<?xml version="1.0" encoding="UTF-8" standalone="no" ?>
<gpx xmlns="http://www.topografix.com/GPX/1/1" xmlns:xsi="http://www.w3.org/2001/XMLSchema-instance" xsi:schemaLocation="http://www.topografix.com/GPX/1/1 http://www.topografix.com/GPX/1/1/gpx.xsd" version="1.1" creator="VisuGPX - https://www.visugpx.com">
  <metadata>
    <name>VTTAE Col des Tourettes Col d'Arron Col des Praux Col des Cassets</name>
    <desc><![CDATA[VTTAE Au départ de St-André de Rosans (on peut démarrer de Ribeyret pour éviter la portion de route) ce tour sauvage passe par 4 cols avec un single splendide qui emprunte le GR94 coté sud du Duffre, du col d'Arron au col des Praux.]]></desc>
  </metadata>
  <trk>
    <name><![CDATA[VTTAE Col des Tourettes Col d'Arron Col des Praux Col des Cassets]]></name>
    <trkseg>
      <trkpt lat="44.3774" lon="5.51291">
        <ele>731.9</ele>
        <time>2023-03-20T09:29:43Z</time>
      </trkpt>
      <trkpt lat="44.3774" lon="5.51291">
        <ele>731.9</ele>
        <time>2023-03-20T09:29:44Z</time>
      </trkpt>
      <trkpt lat="44.3774" lon="5.51291">
        <ele>731.9</ele>
        <time>2023-03-20T09:29:45Z</time>
      </trkpt>
      <trkpt lat="44.3774" lon="5.51291">
        <ele>731.9</ele>
        <time>2023-03-20T09:29:46Z</time>
      </trkpt>
      <trkpt lat="44.3774" lon="5.51291">
        <ele>731.9</ele>
        <time>2023-03-20T09:29:47Z</time>
      </trkpt>
      <trkpt lat="44.3774" lon="5.51291">
        <ele>731.9</ele>
        <time>2023-03-20T09:29:48Z</time>
      </trkpt>
      <trkpt lat="44.3774" lon="5.5129">
        <ele>731.9</ele>
        <time>2023-03-20T09:29:49Z</time>
      </trkpt>
      <trkpt lat="44.3774" lon="5.5129">
        <ele>731.9</ele>
        <time>2023-03-20T09:29:50Z</time>
      </trkpt>
      <trkpt lat="44.3774" lon="5.5129">
        <ele>731.9</ele>
        <time>2023-03-20T09:29:51Z</time>
      </trkpt>
      <trkpt lat="44.3774" lon="5.5129">
        <ele>731.9</ele>
        <time>2023-03-20T09:29:52Z</time>
      </trkpt>
      <trkpt lat="44.3774" lon="5.5129">
        <ele>731.9</ele>
        <time>2023-03-20T09:29:53Z</time>
      </trkpt>
      <trkpt lat="44.37736" lon="5.51294">
        <ele>732</ele>
        <time>2023-03-20T09:30:23Z</time>
      </trkpt>
      <trkpt lat="44.37734" lon="5.51293">
        <ele>732</ele>
        <time>2023-03-20T09:30:24Z</time>
      </trkpt>
      <trkpt lat="44.37734" lon="5.51291">
        <ele>732</ele>
        <time>2023-03-20T09:30:25Z</time>
      </trkpt>
      <trkpt lat="44.37734" lon="5.51286">
        <ele>732</ele>
        <time>2023-03-20T09:30:26Z</time>
      </trkpt>
      <trkpt lat="44.37734" lon="5.51284">
        <ele>732.1</ele>
        <time>2023-03-20T09:30:27Z</time>
      </trkpt>
      <trkpt lat="44.37733" lon="5.51279">
        <ele>732.1</ele>
        <time>2023-03-20T09:30:28Z</time>
      </trkpt>
      <trkpt lat="44.37733" lon="5.51278">
        <ele>732.1</ele>
        <time>2023-03-20T09:30:29Z</time>
      </trkpt>
      <trkpt lat="44.37734" lon="5.51274">
        <ele>732.1</ele>
        <time>2023-03-20T09:30:30Z</time>
      </trkpt>
      <trkpt lat="44.37734" lon="5.51273">
        <ele>732.1</ele>
        <time>2023-03-20T09:30:31Z</time>
      </trkpt>
      <trkpt lat="44.37735" lon="5.51271">
        <ele>732.2</ele>
        <time>2023-03-20T09:30:32Z</time>
      </trkpt>
      <trkpt lat="44.37736" lon="5.51269">
        <ele>732.2</ele>
        <time>2023-03-20T09:30:33Z</time>
      </trkpt>
      <trkpt lat="44.37738" lon="5.51269">
        <ele>732.2</ele>
        <time>2023-03-20T09:30:34Z</time>
      </trkpt>
      <trkpt lat="44.3774" lon="5.51269">
        <ele>732.2</ele>
        <time>2023-03-20T09:30:35Z</time>
      </trkpt>
      <trkpt lat="44.37743" lon="5.51269">
        <ele>732.3</ele>
        <time>2023-03-20T09:30:36Z</time>
      </trkpt>
      <trkpt lat="44.37744" lon="5.5127">
        <ele>732.3</ele>
        <time>2023-03-20T09:30:37Z</time>
      </trkpt>
      <trkpt lat="44.37747" lon="5.51271">
        <ele>732.3</ele>
        <time>2023-03-20T09:30:38Z</time>
      </trkpt>
      <trkpt lat="44.37749" lon="5.51272">
        <ele>732.3</ele>
        <time>2023-03-20T09:30:39Z</time>
      </trkpt>
      <trkpt lat="44.37751" lon="5.51273">
        <ele>732.4</ele>
        <time>2023-03-20T09:30:40Z</time>
      </trkpt>
      <trkpt lat="44.37754" lon="5.51275">
        <ele>732.4</ele>
        <time>2023-03-20T09:30:41Z</time>
      </trkpt>
      <trkpt lat="44.37757" lon="5.51277">
        <ele>732.4</ele>
        <time>2023-03-20T09:30:42Z</time>
      </trkpt>
      <trkpt lat="44.3776" lon="5.5128">
        <ele>732.5</ele>
        <time>2023-03-20T09:30:43Z</time>
      </trkpt>
      <trkpt lat="44.37763" lon="5.51283">
        <ele>732.5</ele>
        <time>2023-03-20T09:30:44Z</time>
      </trkpt>
      <trkpt lat="44.37766" lon="5.51286">
        <ele>732.5</ele>
        <time>2023-03-20T09:30:45Z</time>
      </trkpt>
      <trkpt lat="44.37769" lon="5.51289">
        <ele>732.6</ele>
        <time>2023-03-20T09:30:46Z</time>
      </trkpt>
      <trkpt lat="44.37771" lon="5.51293">
        <ele>732.6</ele>
        <time>2023-03-20T09:30:47Z</time>
      </trkpt>
      <trkpt lat="44.37772" lon="5.51296">
        <ele>732.6</ele>
        <time>2023-03-20T09:30:48Z</time>
      </trkpt>
      <trkpt lat="44.37773" lon="5.513">
        <ele>732.7</ele>
        <time>2023-03-20T09:30:49Z</time>
      </trkpt>
      <trkpt lat="44.37772" lon="5.51305">
        <ele>732.7</ele>
        <time>2023-03-20T09:30:50Z</time>
      </trkpt>
      <trkpt lat="44.37771" lon="5.5131">
        <ele>732.7</ele>
        <time>2023-03-20T09:30:51Z</time>
      </trkpt>
      <trkpt lat="44.3777" lon="5.51315">
        <ele>732.8</ele>
        <time>2023-03-20T09:30:52Z</time>
      </trkpt>
      <trkpt lat="44.37768" lon="5.51319">
        <ele>732.8</ele>
        <time>2023-03-20T09:30:53Z</time>
      </trkpt>
      <trkpt lat="44.37766" lon="5.51323">
        <ele>732.9</ele>
        <time>2023-03-20T09:30:54Z</time>
      </trkpt>
      <trkpt lat="44.37765" lon="5.51326">
        <ele>732.9</ele>
        <time>2023-03-20T09:30:55Z</time>
      </trkpt>
      <trkpt lat="44.37764" lon="5.5133">
        <ele>732.9</ele>
        <time>2023-03-20T09:30:56Z</time>
      </trkpt>
      <trkpt lat="44.37764" lon="5.51334">
        <ele>732.9</ele>
        <time>2023-03-20T09:30:57Z</time>
      </trkpt>
      <trkpt lat="44.37765" lon="5.5134">
        <ele>733</ele>
        <time>2023-03-20T09:30:59Z</time>
      </trkpt>
      <trkpt lat="44.37766" lon="5.51345">
        <ele>733.1</ele>
        <time>2023-03-20T09:31:00Z</time>
      </trkpt>
      <trkpt lat="44.37767" lon="5.51347">
        <ele>733.1</ele>
        <time>2023-03-20T09:31:01Z</time>
      </trkpt>
      <trkpt lat="44.37768" lon="5.51351">
        <ele>733.2</ele>
        <time>2023-03-20T09:31:02Z</time>
      </trkpt>
      <trkpt lat="44.37769" lon="5.51355">
        <ele>733.2</ele>
        <time>2023-03-20T09:31:03Z</time>
      </trkpt>
      <trkpt lat="44.3777" lon="5.51357">
        <ele>733.3</ele>
        <time>2023-03-20T09:31:04Z</time>
      </trkpt>
      <trkpt lat="44.37771" lon="5.51361">
        <ele>733.3</ele>
        <time>2023-03-20T09:31:05Z</time>
      </trkpt>
      <trkpt lat="44.37772" lon="5.51362">
        <ele>733.3</ele>
        <time>2023-03-20T09:31:06Z</time>
      </trkpt>
      <trkpt lat="44.37772" lon="5.51364">
        <ele>733.4</ele>
        <time>2023-03-20T09:31:07Z</time>
      </trkpt>
      <trkpt lat="44.37773" lon="5.51366">
        <ele>733.4</ele>
        <time>2023-03-20T09:31:08Z</time>
      </trkpt>
      <trkpt lat="44.37774" lon="5.51368">
        <ele>733.5</ele>
        <time>2023-03-20T09:31:09Z</time>
      </trkpt>
      <trkpt lat="44.37775" lon="5.5137">
        <ele>733.5</ele>
        <time>2023-03-20T09:31:10Z</time>
      </trkpt>
      <trkpt lat="44.37777" lon="5.51373">
        <ele>733.6</ele>
        <time>2023-03-20T09:31:11Z</time>
      </trkpt>
      <trkpt lat="44.37778" lon="5.51374">
        <ele>733.6</ele>
        <time>2023-03-20T09:31:12Z</time>
      </trkpt>
      <trkpt lat="44.37781" lon="5.51376">
        <ele>733.6</ele>
        <time>2023-03-20T09:31:13Z</time>
      </trkpt>
      <trkpt lat="44.37782" lon="5.51377">
        <ele>733.7</ele>
        <time>2023-03-20T09:31:14Z</time>
      </trkpt>
      <trkpt lat="44.37786" lon="5.51379">
        <ele>733.8</ele>
        <time>2023-03-20T09:31:15Z</time>
      </trkpt>
      <trkpt lat="44.37787" lon="5.51379">
        <ele>733.8</ele>
        <time>2023-03-20T09:31:16Z</time>
      </trkpt>
      <trkpt lat="44.3779" lon="5.51381">
        <ele>733.8</ele>
        <time>2023-03-20T09:31:17Z</time>
      </trkpt>
      <trkpt lat="44.37793" lon="5.51382">
        <ele>733.9</ele>
        <time>2023-03-20T09:31:18Z</time>
      </trkpt>
      <trkpt lat="44.37795" lon="5.51383">
        <ele>734</ele>
        <time>2023-03-20T09:31:19Z</time>
      </trkpt>
      <trkpt lat="44.37798" lon="5.51384">
        <ele>734</ele>
        <time>2023-03-20T09:31:20Z</time>
      </trkpt>
      <trkpt lat="44.37801" lon="5.51386">
        <ele>734.1</ele>
        <time>2023-03-20T09:31:21Z</time>
      </trkpt>
      <trkpt lat="44.37803" lon="5.51387">
        <ele>734.1</ele>
        <time>2023-03-20T09:31:22Z</time>
      </trkpt>
      <trkpt lat="44.37806" lon="5.51388">
        <ele>734.2</ele>
        <time>2023-03-20T09:31:23Z</time>
      </trkpt>
      <trkpt lat="44.37809" lon="5.51389">
        <ele>734.3</ele>
        <time>2023-03-20T09:31:24Z</time>
      </trkpt>
      <trkpt lat="44.37812" lon="5.51391">
        <ele>734.3</ele>
        <time>2023-03-20T09:31:25Z</time>
      </trkpt>
      <trkpt lat="44.37814" lon="5.51393">
        <ele>734.4</ele>
        <time>2023-03-20T09:31:26Z</time>
      </trkpt>
      <trkpt lat="44.37817" lon="5.51395">
        <ele>734.5</ele>
        <time>2023-03-20T09:31:27Z</time>
      </trkpt>
      <trkpt lat="44.3782" lon="5.51397">
        <ele>734.5</ele>
        <time>2023-03-20T09:31:28Z</time>
      </trkpt>
      <trkpt lat="44.37822" lon="5.51399">
        <ele>734.6</ele>
        <time>2023-03-20T09:31:29Z</time>
      </trkpt>
      <trkpt lat="44.37825" lon="5.51402">
        <ele>734.7</ele>
        <time>2023-03-20T09:31:30Z</time>
      </trkpt>
      <trkpt lat="44.37828" lon="5.51404">
        <ele>734.7</ele>
        <time>2023-03-20T09:31:31Z</time>
      </trkpt>
      <trkpt lat="44.3783" lon="5.51407">
        <ele>734.8</ele>
        <time>2023-03-20T09:31:32Z</time>
      </trkpt>
      <trkpt lat="44.37833" lon="5.51409">
        <ele>734.9</ele>
        <time>2023-03-20T09:31:33Z</time>
      </trkpt>
      <trkpt lat="44.37835" lon="5.51413">
        <ele>734.9</ele>
        <time>2023-03-20T09:31:34Z</time>
      </trkpt>
      <trkpt lat="44.37837" lon="5.51416">
        <ele>735</ele>
        <time>2023-03-20T09:31:35Z</time>
      </trkpt>
      <trkpt lat="44.37838" lon="5.5142">
        <ele>735.1</ele>
        <time>2023-03-20T09:31:36Z</time>
      </trkpt>
      <trkpt lat="44.37839" lon="5.51425">
        <ele>735.1</ele>
        <time>2023-03-20T09:31:37Z</time>
      </trkpt>
      <trkpt lat="44.37841" lon="5.51429">
        <ele>735.2</ele>
        <time>2023-03-20T09:31:38Z</time>
      </trkpt>
      <trkpt lat="44.37842" lon="5.51433">
        <ele>735.3</ele>
        <time>2023-03-20T09:31:39Z</time>
      </trkpt>
      <trkpt lat="44.37843" lon="5.51438">
        <ele>735.3</ele>
        <time>2023-03-20T09:31:40Z</time>
      </trkpt>
      <trkpt lat="44.37844" lon="5.51442">
        <ele>735.4</ele>
        <time>2023-03-20T09:31:41Z</time>
      </trkpt>
      <trkpt lat="44.37845" lon="5.51446">
        <ele>735.5</ele>
        <time>2023-03-20T09:31:42Z</time>
      </trkpt>
      <trkpt lat="44.37846" lon="5.51451">
        <ele>735.6</ele>
        <time>2023-03-20T09:31:43Z</time>
      </trkpt>
      <trkpt lat="44.37847" lon="5.51455">
        <ele>735.6</ele>
        <time>2023-03-20T09:31:44Z</time>
      </trkpt>
      <trkpt lat="44.37847" lon="5.5146">
        <ele>735.7</ele>
        <time>2023-03-20T09:31:45Z</time>
      </trkpt>
      <trkpt lat="44.37847" lon="5.51464">
        <ele>735.8</ele>
        <time>2023-03-20T09:31:46Z</time>
      </trkpt>
      <trkpt lat="44.37846" lon="5.51468">
        <ele>735.8</ele>
        <time>2023-03-20T09:31:47Z</time>
      </trkpt>
      <trkpt lat="44.37845" lon="5.51472">
        <ele>735.9</ele>
        <time>2023-03-20T09:31:48Z</time>
      </trkpt>
      <trkpt lat="44.37843" lon="5.51476">
        <ele>736</ele>
        <time>2023-03-20T09:31:49Z</time>
      </trkpt>
      <trkpt lat="44.37841" lon="5.51479">
        <ele>736</ele>
        <time>2023-03-20T09:31:50Z</time>
      </trkpt>
      <trkpt lat="44.37839" lon="5.51482">
        <ele>736.1</ele>
        <time>2023-03-20T09:31:51Z</time>
      </trkpt>
      <trkpt lat="44.37837" lon="5.51485">
        <ele>736.2</ele>
        <time>2023-03-20T09:31:52Z</time>
      </trkpt>
      <trkpt lat="44.37835" lon="5.51489">
        <ele>736.2</ele>
        <time>2023-03-20T09:31:53Z</time>
      </trkpt>
      <trkpt lat="44.37832" lon="5.51492">
        <ele>736.3</ele>
        <time>2023-03-20T09:31:54Z</time>
      </trkpt>
      <trkpt lat="44.3783" lon="5.51495">
        <ele>736.4</ele>
        <time>2023-03-20T09:31:55Z</time>
      </trkpt>
      <trkpt lat="44.37829" lon="5.51499">
        <ele>736.4</ele>
        <time>2023-03-20T09:31:56Z</time>
      </trkpt>
      <trkpt lat="44.37829" lon="5.51503">
        <ele>736.5</ele>
        <time>2023-03-20T09:31:57Z</time>
      </trkpt>
      <trkpt lat="44.3783" lon="5.51507">
        <ele>736.8</ele>
        <time>2023-03-20T09:31:58Z</time>
      </trkpt>
      <trkpt lat="44.37832" lon="5.51509">
        <ele>737.1</ele>
        <time>2023-03-20T09:31:59Z</time>
      </trkpt>
      <trkpt lat="44.37835" lon="5.51512">
        <ele>737.5</ele>
        <time>2023-03-20T09:32:00Z</time>
      </trkpt>
      <trkpt lat="44.37837" lon="5.51514">
        <ele>737.8</ele>
        <time>2023-03-20T09:32:01Z</time>
      </trkpt>
      <trkpt lat="44.3784" lon="5.51517">
        <ele>738.1</ele>
        <time>2023-03-20T09:32:02Z</time>
      </trkpt>
      <trkpt lat="44.37842" lon="5.51519">
        <ele>738.4</ele>
        <time>2023-03-20T09:32:03Z</time>
      </trkpt>
      <trkpt lat="44.37844" lon="5.51522">
        <ele>738.7</ele>
        <time>2023-03-20T09:32:04Z</time>
      </trkpt>
      <trkpt lat="44.37847" lon="5.51525">
        <ele>739</ele>
        <time>2023-03-20T09:32:05Z</time>
      </trkpt>
      <trkpt lat="44.37849" lon="5.51527">
        <ele>739.4</ele>
        <time>2023-03-20T09:32:06Z</time>
      </trkpt>
      <trkpt lat="44.37852" lon="5.51529">
        <ele>739.7</ele>
        <time>2023-03-20T09:32:07Z</time>
      </trkpt>
      <trkpt lat="44.37854" lon="5.51532">
        <ele>740</ele>
        <time>2023-03-20T09:32:08Z</time>
      </trkpt>
      <trkpt lat="44.37856" lon="5.51534">
        <ele>740.3</ele>
        <time>2023-03-20T09:32:09Z</time>
      </trkpt>
      <trkpt lat="44.3786" lon="5.51536">
        <ele>740.7</ele>
        <time>2023-03-20T09:32:10Z</time>
      </trkpt>
      <trkpt lat="44.37861" lon="5.51537">
        <ele>740.8</ele>
        <time>2023-03-20T09:32:11Z</time>
      </trkpt>
      <trkpt lat="44.37865" lon="5.51537">
        <ele>741.2</ele>
        <time>2023-03-20T09:32:12Z</time>
      </trkpt>
      <trkpt lat="44.37866" lon="5.51536">
        <ele>741.3</ele>
        <time>2023-03-20T09:32:13Z</time>
      </trkpt>
      <trkpt lat="44.3787" lon="5.51535">
        <ele>741.7</ele>
        <time>2023-03-20T09:32:14Z</time>
      </trkpt>
      <trkpt lat="44.37871" lon="5.51534">
        <ele>741.8</ele>
        <time>2023-03-20T09:32:15Z</time>
      </trkpt>
      <trkpt lat="44.37874" lon="5.51533">
        <ele>742.2</ele>
        <time>2023-03-20T09:32:16Z</time>
      </trkpt>
      <trkpt lat="44.37875" lon="5.51532">
        <ele>742.3</ele>
        <time>2023-03-20T09:32:17Z</time>
      </trkpt>
      <trkpt lat="44.37878" lon="5.51532">
        <ele>742.6</ele>
        <time>2023-03-20T09:32:18Z</time>
      </trkpt>
      <trkpt lat="44.37879" lon="5.51532">
        <ele>742.7</ele>
        <time>2023-03-20T09:32:19Z</time>
      </trkpt>
      <trkpt lat="44.37882" lon="5.51534">
        <ele>743.1</ele>
        <time>2023-03-20T09:32:20Z</time>
      </trkpt>
      <trkpt lat="44.37883" lon="5.51534">
        <ele>743.2</ele>
        <time>2023-03-20T09:32:21Z</time>
      </trkpt>
      <trkpt lat="44.37886" lon="5.51537">
        <ele>743.5</ele>
        <time>2023-03-20T09:32:22Z</time>
      </trkpt>
      <trkpt lat="44.37887" lon="5.51538">
        <ele>743.7</ele>
        <time>2023-03-20T09:32:23Z</time>
      </trkpt>
      <trkpt lat="44.3789" lon="5.5154">
        <ele>744</ele>
        <time>2023-03-20T09:32:24Z</time>
      </trkpt>
      <trkpt lat="44.37891" lon="5.51541">
        <ele>744.1</ele>
        <time>2023-03-20T09:32:25Z</time>
      </trkpt>
      <trkpt lat="44.37894" lon="5.51543">
        <ele>744.5</ele>
        <time>2023-03-20T09:32:26Z</time>
      </trkpt>
      <trkpt lat="44.37895" lon="5.51544">
        <ele>744.6</ele>
        <time>2023-03-20T09:32:27Z</time>
      </trkpt>
      <trkpt lat="44.37898" lon="5.51546">
        <ele>744.9</ele>
        <time>2023-03-20T09:32:28Z</time>
      </trkpt>
      <trkpt lat="44.37898" lon="5.51547">
        <ele>745</ele>
        <time>2023-03-20T09:32:29Z</time>
      </trkpt>
      <trkpt lat="44.37901" lon="5.51548">
        <ele>745.3</ele>
        <time>2023-03-20T09:32:30Z</time>
      </trkpt>
      <trkpt lat="44.37902" lon="5.51548">
        <ele>745.4</ele>
        <time>2023-03-20T09:32:31Z</time>
      </trkpt>
      <trkpt lat="44.37905" lon="5.5155">
        <ele>745.7</ele>
        <time>2023-03-20T09:32:32Z</time>
      </trkpt>
      <trkpt lat="44.37906" lon="5.51551">
        <ele>745.9</ele>
        <time>2023-03-20T09:32:33Z</time>
      </trkpt>
      <trkpt lat="44.37909" lon="5.51553">
        <ele>746.2</ele>
        <time>2023-03-20T09:32:34Z</time>
      </trkpt>
      <trkpt lat="44.37911" lon="5.51554">
        <ele>746.4</ele>
        <time>2023-03-20T09:32:35Z</time>
      </trkpt>
      <trkpt lat="44.37913" lon="5.51555">
        <ele>746.6</ele>
        <time>2023-03-20T09:32:36Z</time>
      </trkpt>
      <trkpt lat="44.37916" lon="5.51557">
        <ele>746.9</ele>
        <time>2023-03-20T09:32:37Z</time>
      </trkpt>
      <trkpt lat="44.37918" lon="5.51559">
        <ele>747.2</ele>
        <time>2023-03-20T09:32:38Z</time>
      </trkpt>
      <trkpt lat="44.37921" lon="5.51561">
        <ele>747.5</ele>
        <time>2023-03-20T09:32:39Z</time>
      </trkpt>
      <trkpt lat="44.37924" lon="5.51563">
        <ele>747.9</ele>
        <time>2023-03-20T09:32:40Z</time>
      </trkpt>
      <trkpt lat="44.37925" lon="5.51564">
        <ele>748</ele>
        <time>2023-03-20T09:32:41Z</time>
      </trkpt>
      <trkpt lat="44.37928" lon="5.51566">
        <ele>748.4</ele>
        <time>2023-03-20T09:32:42Z</time>
      </trkpt>
      <trkpt lat="44.37929" lon="5.51567">
        <ele>748.5</ele>
        <time>2023-03-20T09:32:43Z</time>
      </trkpt>
      <trkpt lat="44.37932" lon="5.51569">
        <ele>748.9</ele>
        <time>2023-03-20T09:32:44Z</time>
      </trkpt>
      <trkpt lat="44.37934" lon="5.51569">
        <ele>749</ele>
        <time>2023-03-20T09:32:45Z</time>
      </trkpt>
      <trkpt lat="44.37937" lon="5.51572">
        <ele>749.4</ele>
        <time>2023-03-20T09:32:46Z</time>
      </trkpt>
      <trkpt lat="44.37937" lon="5.51573">
        <ele>749.5</ele>
        <time>2023-03-20T09:32:47Z</time>
      </trkpt>
      <trkpt lat="44.3794" lon="5.51575">
        <ele>749.8</ele>
        <time>2023-03-20T09:32:48Z</time>
      </trkpt>
      <trkpt lat="44.37941" lon="5.51576">
        <ele>749.9</ele>
        <time>2023-03-20T09:32:49Z</time>
      </trkpt>
      <trkpt lat="44.37944" lon="5.51579">
        <ele>750.3</ele>
        <time>2023-03-20T09:32:50Z</time>
      </trkpt>
      <trkpt lat="44.37945" lon="5.5158">
        <ele>750.4</ele>
        <time>2023-03-20T09:32:51Z</time>
      </trkpt>
      <trkpt lat="44.37947" lon="5.51584">
        <ele>750.8</ele>
        <time>2023-03-20T09:32:52Z</time>
      </trkpt>
      <trkpt lat="44.37948" lon="5.51585">
        <ele>750.9</ele>
        <time>2023-03-20T09:32:53Z</time>
      </trkpt>
      <trkpt lat="44.37951" lon="5.51589">
        <ele>751.3</ele>
        <time>2023-03-20T09:32:54Z</time>
      </trkpt>
      <trkpt lat="44.37951" lon="5.5159">
        <ele>751.4</ele>
        <time>2023-03-20T09:32:55Z</time>
      </trkpt>
      <trkpt lat="44.37953" lon="5.51595">
        <ele>751.8</ele>
        <time>2023-03-20T09:32:56Z</time>
      </trkpt>
      <trkpt lat="44.37954" lon="5.51596">
        <ele>751.9</ele>
        <time>2023-03-20T09:32:57Z</time>
      </trkpt>
      <trkpt lat="44.37956" lon="5.51599">
        <ele>752.2</ele>
        <time>2023-03-20T09:32:58Z</time>
      </trkpt>
      <trkpt lat="44.37956" lon="5.516">
        <ele>752.3</ele>
        <time>2023-03-20T09:32:59Z</time>
      </trkpt>
      <trkpt lat="44.37958" lon="5.51604">
        <ele>752.6</ele>
        <time>2023-03-20T09:33:00Z</time>
      </trkpt>
      <trkpt lat="44.37958" lon="5.51605">
        <ele>752.7</ele>
        <time>2023-03-20T09:33:01Z</time>
      </trkpt>
      <trkpt lat="44.3796" lon="5.51609">
        <ele>753.1</ele>
        <time>2023-03-20T09:33:02Z</time>
      </trkpt>
      <trkpt lat="44.37961" lon="5.5161">
        <ele>753.2</ele>
        <time>2023-03-20T09:33:03Z</time>
      </trkpt>
      <trkpt lat="44.37962" lon="5.51613">
        <ele>753.5</ele>
        <time>2023-03-20T09:33:04Z</time>
      </trkpt>
      <trkpt lat="44.37962" lon="5.51614">
        <ele>753.5</ele>
        <time>2023-03-20T09:33:05Z</time>
      </trkpt>
      <trkpt lat="44.37964" lon="5.51618">
        <ele>753.9</ele>
        <time>2023-03-20T09:33:06Z</time>
      </trkpt>
      <trkpt lat="44.37964" lon="5.5162">
        <ele>754</ele>
        <time>2023-03-20T09:33:07Z</time>
      </trkpt>
      <trkpt lat="44.37966" lon="5.51623">
        <ele>754.3</ele>
        <time>2023-03-20T09:33:08Z</time>
      </trkpt>
      <trkpt lat="44.37966" lon="5.51624">
        <ele>754.4</ele>
        <time>2023-03-20T09:33:09Z</time>
      </trkpt>
      <trkpt lat="44.37968" lon="5.51628">
        <ele>754.7</ele>
        <time>2023-03-20T09:33:10Z</time>
      </trkpt>
      <trkpt lat="44.37968" lon="5.51629">
        <ele>754.8</ele>
        <time>2023-03-20T09:33:11Z</time>
      </trkpt>
      <trkpt lat="44.3797" lon="5.51632">
        <ele>755.1</ele>
        <time>2023-03-20T09:33:12Z</time>
      </trkpt>
      <trkpt lat="44.37971" lon="5.51634">
        <ele>755.2</ele>
        <time>2023-03-20T09:33:13Z</time>
      </trkpt>
      <trkpt lat="44.37973" lon="5.51637">
        <ele>755.6</ele>
        <time>2023-03-20T09:33:14Z</time>
      </trkpt>
      <trkpt lat="44.37974" lon="5.51638">
        <ele>755.7</ele>
        <time>2023-03-20T09:33:15Z</time>
      </trkpt>
      <trkpt lat="44.37976" lon="5.51641">
        <ele>756</ele>
        <time>2023-03-20T09:33:16Z</time>
      </trkpt>
      <trkpt lat="44.37977" lon="5.51643">
        <ele>756.1</ele>
        <time>2023-03-20T09:33:17Z</time>
      </trkpt>
      <trkpt lat="44.37978" lon="5.51646">
        <ele>756.4</ele>
        <time>2023-03-20T09:33:18Z</time>
      </trkpt>
      <trkpt lat="44.37979" lon="5.51647">
        <ele>756.5</ele>
        <time>2023-03-20T09:33:19Z</time>
      </trkpt>
      <trkpt lat="44.37981" lon="5.5165">
        <ele>756.8</ele>
        <time>2023-03-20T09:33:20Z</time>
      </trkpt>
      <trkpt lat="44.37982" lon="5.51651">
        <ele>756.9</ele>
        <time>2023-03-20T09:33:21Z</time>
      </trkpt>
      <trkpt lat="44.37984" lon="5.51653">
        <ele>757.2</ele>
        <time>2023-03-20T09:33:22Z</time>
      </trkpt>
      <trkpt lat="44.37985" lon="5.51654">
        <ele>757.3</ele>
        <time>2023-03-20T09:33:23Z</time>
      </trkpt>
      <trkpt lat="44.37987" lon="5.51657">
        <ele>757.7</ele>
        <time>2023-03-20T09:33:24Z</time>
      </trkpt>
      <trkpt lat="44.37988" lon="5.51658">
        <ele>757.8</ele>
        <time>2023-03-20T09:33:25Z</time>
      </trkpt>
      <trkpt lat="44.3799" lon="5.51661">
        <ele>758.1</ele>
        <time>2023-03-20T09:33:26Z</time>
      </trkpt>
      <trkpt lat="44.37991" lon="5.51662">
        <ele>758.2</ele>
        <time>2023-03-20T09:33:27Z</time>
      </trkpt>
      <trkpt lat="44.37993" lon="5.51665">
        <ele>758.5</ele>
        <time>2023-03-20T09:33:28Z</time>
      </trkpt>
      <trkpt lat="44.37994" lon="5.51666">
        <ele>758.6</ele>
        <time>2023-03-20T09:33:29Z</time>
      </trkpt>
      <trkpt lat="44.37997" lon="5.51668">
        <ele>759</ele>
        <time>2023-03-20T09:33:30Z</time>
      </trkpt>
      <trkpt lat="44.37998" lon="5.51669">
        <ele>759.1</ele>
        <time>2023-03-20T09:33:31Z</time>
      </trkpt>
      <trkpt lat="44.38" lon="5.51671">
        <ele>759.4</ele>
        <time>2023-03-20T09:33:32Z</time>
      </trkpt>
      <trkpt lat="44.38001" lon="5.51672">
        <ele>759.5</ele>
        <time>2023-03-20T09:33:33Z</time>
      </trkpt>
      <trkpt lat="44.38004" lon="5.51674">
        <ele>759.8</ele>
        <time>2023-03-20T09:33:34Z</time>
      </trkpt>
      <trkpt lat="44.38005" lon="5.51674">
        <ele>759.9</ele>
        <time>2023-03-20T09:33:35Z</time>
      </trkpt>
      <trkpt lat="44.38008" lon="5.51677">
        <ele>760.3</ele>
        <time>2023-03-20T09:33:36Z</time>
      </trkpt>
      <trkpt lat="44.38008" lon="5.51678">
        <ele>760.4</ele>
        <time>2023-03-20T09:33:37Z</time>
      </trkpt>
      <trkpt lat="44.3801" lon="5.51681">
        <ele>760.7</ele>
        <time>2023-03-20T09:33:38Z</time>
      </trkpt>
      <trkpt lat="44.38011" lon="5.51682">
        <ele>760.7</ele>
        <time>2023-03-20T09:33:39Z</time>
      </trkpt>
      <trkpt lat="44.38013" lon="5.51684">
        <ele>761</ele>
        <time>2023-03-20T09:33:40Z</time>
      </trkpt>
      <trkpt lat="44.38014" lon="5.51685">
        <ele>761.1</ele>
        <time>2023-03-20T09:33:41Z</time>
      </trkpt>
      <trkpt lat="44.38017" lon="5.51687">
        <ele>761.4</ele>
        <time>2023-03-20T09:33:42Z</time>
      </trkpt>
      <trkpt lat="44.38017" lon="5.51688">
        <ele>761.6</ele>
        <time>2023-03-20T09:33:43Z</time>
      </trkpt>
      <trkpt lat="44.3802" lon="5.5169">
        <ele>761.8</ele>
        <time>2023-03-20T09:33:44Z</time>
      </trkpt>
      <trkpt lat="44.3802" lon="5.51691">
        <ele>761.9</ele>
        <time>2023-03-20T09:33:45Z</time>
      </trkpt>
      <trkpt lat="44.38023" lon="5.51694">
        <ele>762.2</ele>
        <time>2023-03-20T09:33:46Z</time>
      </trkpt>
      <trkpt lat="44.38023" lon="5.51695">
        <ele>762.3</ele>
        <time>2023-03-20T09:33:47Z</time>
      </trkpt>
      <trkpt lat="44.38026" lon="5.51697">
        <ele>762.6</ele>
        <time>2023-03-20T09:33:48Z</time>
      </trkpt>
      <trkpt lat="44.38026" lon="5.51697">
        <ele>762.7</ele>
        <time>2023-03-20T09:33:49Z</time>
      </trkpt>
      <trkpt lat="44.38028" lon="5.51699">
        <ele>762.9</ele>
        <time>2023-03-20T09:33:50Z</time>
      </trkpt>
      <trkpt lat="44.38029" lon="5.517">
        <ele>763.1</ele>
        <time>2023-03-20T09:33:51Z</time>
      </trkpt>
      <trkpt lat="44.38031" lon="5.51703">
        <ele>763.4</ele>
        <time>2023-03-20T09:33:52Z</time>
      </trkpt>
      <trkpt lat="44.38032" lon="5.51704">
        <ele>763.5</ele>
        <time>2023-03-20T09:33:53Z</time>
      </trkpt>
      <trkpt lat="44.38034" lon="5.51707">
        <ele>763.8</ele>
        <time>2023-03-20T09:33:54Z</time>
      </trkpt>
      <trkpt lat="44.38035" lon="5.51708">
        <ele>763.9</ele>
        <time>2023-03-20T09:33:55Z</time>
      </trkpt>
      <trkpt lat="44.38037" lon="5.51711">
        <ele>764.2</ele>
        <time>2023-03-20T09:33:56Z</time>
      </trkpt>
      <trkpt lat="44.38038" lon="5.51712">
        <ele>764.3</ele>
        <time>2023-03-20T09:33:57Z</time>
      </trkpt>
      <trkpt lat="44.3804" lon="5.51714">
        <ele>764.6</ele>
        <time>2023-03-20T09:33:58Z</time>
      </trkpt>
      <trkpt lat="44.38041" lon="5.51715">
        <ele>764.7</ele>
        <time>2023-03-20T09:33:59Z</time>
      </trkpt>
      <trkpt lat="44.38043" lon="5.51717">
        <ele>765</ele>
        <time>2023-03-20T09:34:00Z</time>
      </trkpt>
      <trkpt lat="44.38044" lon="5.51718">
        <ele>765.1</ele>
        <time>2023-03-20T09:34:01Z</time>
      </trkpt>
      <trkpt lat="44.38047" lon="5.5172">
        <ele>765.4</ele>
        <time>2023-03-20T09:34:02Z</time>
      </trkpt>
      <trkpt lat="44.38048" lon="5.5172">
        <ele>765.5</ele>
        <time>2023-03-20T09:34:03Z</time>
      </trkpt>
      <trkpt lat="44.3805" lon="5.51722">
        <ele>765.8</ele>
        <time>2023-03-20T09:34:04Z</time>
      </trkpt>
      <trkpt lat="44.38051" lon="5.51723">
        <ele>765.9</ele>
        <time>2023-03-20T09:34:05Z</time>
      </trkpt>
      <trkpt lat="44.38053" lon="5.51726">
        <ele>766.2</ele>
        <time>2023-03-20T09:34:06Z</time>
      </trkpt>
      <trkpt lat="44.38054" lon="5.51727">
        <ele>766.3</ele>
        <time>2023-03-20T09:34:07Z</time>
      </trkpt>
      <trkpt lat="44.38056" lon="5.5173">
        <ele>766.6</ele>
        <time>2023-03-20T09:34:08Z</time>
      </trkpt>
      <trkpt lat="44.38056" lon="5.5173">
        <ele>766.7</ele>
        <time>2023-03-20T09:34:09Z</time>
      </trkpt>
      <trkpt lat="44.38059" lon="5.51733">
        <ele>767</ele>
        <time>2023-03-20T09:34:10Z</time>
      </trkpt>
      <trkpt lat="44.3806" lon="5.51733">
        <ele>767.1</ele>
        <time>2023-03-20T09:34:11Z</time>
      </trkpt>
      <trkpt lat="44.38062" lon="5.51736">
        <ele>767.4</ele>
        <time>2023-03-20T09:34:12Z</time>
      </trkpt>
      <trkpt lat="44.38063" lon="5.51737">
        <ele>767.5</ele>
        <time>2023-03-20T09:34:13Z</time>
      </trkpt>
      <trkpt lat="44.38065" lon="5.51739">
        <ele>767.8</ele>
        <time>2023-03-20T09:34:14Z</time>
      </trkpt>
      <trkpt lat="44.38065" lon="5.5174">
        <ele>767.9</ele>
        <time>2023-03-20T09:34:15Z</time>
      </trkpt>
      <trkpt lat="44.38067" lon="5.51741">
        <ele>768</ele>
        <time>2023-03-20T09:34:16Z</time>
      </trkpt>
      <trkpt lat="44.38068" lon="5.51743">
        <ele>768.2</ele>
        <time>2023-03-20T09:34:17Z</time>
      </trkpt>
      <trkpt lat="44.3807" lon="5.51745">
        <ele>768.4</ele>
        <time>2023-03-20T09:34:18Z</time>
      </trkpt>
      <trkpt lat="44.3807" lon="5.51746">
        <ele>768.6</ele>
        <time>2023-03-20T09:34:19Z</time>
      </trkpt>
      <trkpt lat="44.38072" lon="5.51748">
        <ele>768.8</ele>
        <time>2023-03-20T09:34:20Z</time>
      </trkpt>
      <trkpt lat="44.38072" lon="5.5175">
        <ele>768.9</ele>
        <time>2023-03-20T09:34:21Z</time>
      </trkpt>
      <trkpt lat="44.38074" lon="5.51754">
        <ele>769.2</ele>
        <time>2023-03-20T09:34:22Z</time>
      </trkpt>
      <trkpt lat="44.38075" lon="5.51755">
        <ele>769.4</ele>
        <time>2023-03-20T09:34:23Z</time>
      </trkpt>
      <trkpt lat="44.38077" lon="5.51758">
        <ele>769.7</ele>
        <time>2023-03-20T09:34:24Z</time>
      </trkpt>
      <trkpt lat="44.38078" lon="5.51759">
        <ele>769.8</ele>
        <time>2023-03-20T09:34:25Z</time>
      </trkpt>
      <trkpt lat="44.38081" lon="5.51763">
        <ele>770.2</ele>
        <time>2023-03-20T09:34:26Z</time>
      </trkpt>
      <trkpt lat="44.38082" lon="5.51764">
        <ele>770.3</ele>
        <time>2023-03-20T09:34:27Z</time>
      </trkpt>
      <trkpt lat="44.38084" lon="5.51767">
        <ele>770.7</ele>
        <time>2023-03-20T09:34:28Z</time>
      </trkpt>
      <trkpt lat="44.38085" lon="5.51769">
        <ele>770.8</ele>
        <time>2023-03-20T09:34:29Z</time>
      </trkpt>
      <trkpt lat="44.38086" lon="5.51773">
        <ele>771.2</ele>
        <time>2023-03-20T09:34:30Z</time>
      </trkpt>
      <trkpt lat="44.38087" lon="5.51774">
        <ele>771.3</ele>
        <time>2023-03-20T09:34:31Z</time>
      </trkpt>
      <trkpt lat="44.38089" lon="5.51778">
        <ele>771.6</ele>
        <time>2023-03-20T09:34:32Z</time>
      </trkpt>
      <trkpt lat="44.3809" lon="5.51779">
        <ele>771.7</ele>
        <time>2023-03-20T09:34:33Z</time>
      </trkpt>
      <trkpt lat="44.38092" lon="5.51782">
        <ele>772</ele>
        <time>2023-03-20T09:34:34Z</time>
      </trkpt>
      <trkpt lat="44.38093" lon="5.51782">
        <ele>772.1</ele>
        <time>2023-03-20T09:34:35Z</time>
      </trkpt>
      <trkpt lat="44.38094" lon="5.51784">
        <ele>772.3</ele>
        <time>2023-03-20T09:34:36Z</time>
      </trkpt>
      <trkpt lat="44.38095" lon="5.51785">
        <ele>772.5</ele>
        <time>2023-03-20T09:34:37Z</time>
      </trkpt>
      <trkpt lat="44.38097" lon="5.51786">
        <ele>772.7</ele>
        <time>2023-03-20T09:34:38Z</time>
      </trkpt>
      <trkpt lat="44.38099" lon="5.51787">
        <ele>772.8</ele>
        <time>2023-03-20T09:34:39Z</time>
      </trkpt>
      <trkpt lat="44.381" lon="5.51788">
        <ele>773</ele>
        <time>2023-03-20T09:34:40Z</time>
      </trkpt>
      <trkpt lat="44.38102" lon="5.51789">
        <ele>773.2</ele>
        <time>2023-03-20T09:34:41Z</time>
      </trkpt>
      <trkpt lat="44.38104" lon="5.5179">
        <ele>773.5</ele>
        <time>2023-03-20T09:34:42Z</time>
      </trkpt>
      <trkpt lat="44.38105" lon="5.51791">
        <ele>773.6</ele>
        <time>2023-03-20T09:34:43Z</time>
      </trkpt>
      <trkpt lat="44.38107" lon="5.51792">
        <ele>773.7</ele>
        <time>2023-03-20T09:34:44Z</time>
      </trkpt>
      <trkpt lat="44.38108" lon="5.51793">
        <ele>773.9</ele>
        <time>2023-03-20T09:34:45Z</time>
      </trkpt>
      <trkpt lat="44.38109" lon="5.51794">
        <ele>774.1</ele>
        <time>2023-03-20T09:34:46Z</time>
      </trkpt>
      <trkpt lat="44.38111" lon="5.51795">
        <ele>774.2</ele>
        <time>2023-03-20T09:34:47Z</time>
      </trkpt>
      <trkpt lat="44.38112" lon="5.51796">
        <ele>774.4</ele>
        <time>2023-03-20T09:34:48Z</time>
      </trkpt>
      <trkpt lat="44.38114" lon="5.51797">
        <ele>774.6</ele>
        <time>2023-03-20T09:34:49Z</time>
      </trkpt>
      <trkpt lat="44.38117" lon="5.51798">
        <ele>774.9</ele>
        <time>2023-03-20T09:34:50Z</time>
      </trkpt>
      <trkpt lat="44.38117" lon="5.51798">
        <ele>775</ele>
        <time>2023-03-20T09:34:51Z</time>
      </trkpt>
      <trkpt lat="44.3812" lon="5.518">
        <ele>775.3</ele>
        <time>2023-03-20T09:34:52Z</time>
      </trkpt>
      <trkpt lat="44.38122" lon="5.518">
        <ele>775.4</ele>
        <time>2023-03-20T09:34:53Z</time>
      </trkpt>
      <trkpt lat="44.38124" lon="5.51802">
        <ele>775.7</ele>
        <time>2023-03-20T09:34:54Z</time>
      </trkpt>
      <trkpt lat="44.38125" lon="5.51803">
        <ele>775.8</ele>
        <time>2023-03-20T09:34:55Z</time>
      </trkpt>
      <trkpt lat="44.38128" lon="5.51805">
        <ele>776.2</ele>
        <time>2023-03-20T09:34:56Z</time>
      </trkpt>
      <trkpt lat="44.38129" lon="5.51806">
        <ele>776.3</ele>
        <time>2023-03-20T09:34:57Z</time>
      </trkpt>
      <trkpt lat="44.38131" lon="5.51809">
        <ele>776.6</ele>
        <time>2023-03-20T09:34:58Z</time>
      </trkpt>
      <trkpt lat="44.38132" lon="5.5181">
        <ele>776.7</ele>
        <time>2023-03-20T09:34:59Z</time>
      </trkpt>
      <trkpt lat="44.38135" lon="5.51813">
        <ele>777.1</ele>
        <time>2023-03-20T09:35:00Z</time>
      </trkpt>
      <trkpt lat="44.38135" lon="5.51814">
        <ele>777.2</ele>
        <time>2023-03-20T09:35:01Z</time>
      </trkpt>
      <trkpt lat="44.38137" lon="5.51818">
        <ele>777.5</ele>
        <time>2023-03-20T09:35:02Z</time>
      </trkpt>
      <trkpt lat="44.38138" lon="5.51819">
        <ele>777.6</ele>
        <time>2023-03-20T09:35:03Z</time>
      </trkpt>
      <trkpt lat="44.3814" lon="5.51822">
        <ele>778</ele>
        <time>2023-03-20T09:35:04Z</time>
      </trkpt>
      <trkpt lat="44.38141" lon="5.51823">
        <ele>778.1</ele>
        <time>2023-03-20T09:35:05Z</time>
      </trkpt>
      <trkpt lat="44.38143" lon="5.51827">
        <ele>778.4</ele>
        <time>2023-03-20T09:35:06Z</time>
      </trkpt>
      <trkpt lat="44.38144" lon="5.51829">
        <ele>778.6</ele>
        <time>2023-03-20T09:35:07Z</time>
      </trkpt>
      <trkpt lat="44.38145" lon="5.51831">
        <ele>778.8</ele>
        <time>2023-03-20T09:35:08Z</time>
      </trkpt>
      <trkpt lat="44.38147" lon="5.51835">
        <ele>779.2</ele>
        <time>2023-03-20T09:35:09Z</time>
      </trkpt>
      <trkpt lat="44.38148" lon="5.51836">
        <ele>779.3</ele>
        <time>2023-03-20T09:35:10Z</time>
      </trkpt>
      <trkpt lat="44.38148" lon="5.5184">
        <ele>779.6</ele>
        <time>2023-03-20T09:35:11Z</time>
      </trkpt>
      <trkpt lat="44.38149" lon="5.51842">
        <ele>779.7</ele>
        <time>2023-03-20T09:35:12Z</time>
      </trkpt>
      <trkpt lat="44.38149" lon="5.51846">
        <ele>780</ele>
        <time>2023-03-20T09:35:13Z</time>
      </trkpt>
      <trkpt lat="44.38149" lon="5.51847">
        <ele>780.1</ele>
        <time>2023-03-20T09:35:14Z</time>
      </trkpt>
      <trkpt lat="44.3815" lon="5.51852">
        <ele>780.4</ele>
        <time>2023-03-20T09:35:15Z</time>
      </trkpt>
      <trkpt lat="44.3815" lon="5.51853">
        <ele>780.5</ele>
        <time>2023-03-20T09:35:16Z</time>
      </trkpt>
      <trkpt lat="44.3815" lon="5.51858">
        <ele>780.9</ele>
        <time>2023-03-20T09:35:17Z</time>
      </trkpt>
      <trkpt lat="44.3815" lon="5.51859">
        <ele>781</ele>
        <time>2023-03-20T09:35:18Z</time>
      </trkpt>
      <trkpt lat="44.38151" lon="5.51864">
        <ele>781.4</ele>
        <time>2023-03-20T09:35:19Z</time>
      </trkpt>
      <trkpt lat="44.38152" lon="5.51865">
        <ele>781.5</ele>
        <time>2023-03-20T09:35:20Z</time>
      </trkpt>
      <trkpt lat="44.38152" lon="5.5187">
        <ele>781.8</ele>
        <time>2023-03-20T09:35:21Z</time>
      </trkpt>
      <trkpt lat="44.38152" lon="5.51871">
        <ele>781.9</ele>
        <time>2023-03-20T09:35:22Z</time>
      </trkpt>
      <trkpt lat="44.38152" lon="5.51876">
        <ele>782.2</ele>
        <time>2023-03-20T09:35:23Z</time>
      </trkpt>
      <trkpt lat="44.38152" lon="5.51877">
        <ele>782.3</ele>
        <time>2023-03-20T09:35:24Z</time>
      </trkpt>
      <trkpt lat="44.38151" lon="5.51881">
        <ele>782.6</ele>
        <time>2023-03-20T09:35:25Z</time>
      </trkpt>
      <trkpt lat="44.38151" lon="5.51882">
        <ele>782.7</ele>
        <time>2023-03-20T09:35:26Z</time>
      </trkpt>
      <trkpt lat="44.38151" lon="5.51884">
        <ele>782.9</ele>
        <time>2023-03-20T09:35:27Z</time>
      </trkpt>
      <trkpt lat="44.3815" lon="5.51886">
        <ele>783</ele>
        <time>2023-03-20T09:35:28Z</time>
      </trkpt>
      <trkpt lat="44.38148" lon="5.51887">
        <ele>783.3</ele>
        <time>2023-03-20T09:35:29Z</time>
      </trkpt>
      <trkpt lat="44.38147" lon="5.51888">
        <ele>784.1</ele>
        <time>2023-03-20T09:35:30Z</time>
      </trkpt>
      <trkpt lat="44.38143" lon="5.51889">
        <ele>784.2</ele>
        <time>2023-03-20T09:35:31Z</time>
      </trkpt>
      <trkpt lat="44.38142" lon="5.51889">
        <ele>784.2</ele>
        <time>2023-03-20T09:35:32Z</time>
      </trkpt>
      <trkpt lat="44.38139" lon="5.51889">
        <ele>784.3</ele>
        <time>2023-03-20T09:35:33Z</time>
      </trkpt>
      <trkpt lat="44.38135" lon="5.51889">
        <ele>784.3</ele>
        <time>2023-03-20T09:35:34Z</time>
      </trkpt>
      <trkpt lat="44.38132" lon="5.51889">
        <ele>784.4</ele>
        <time>2023-03-20T09:35:35Z</time>
      </trkpt>
      <trkpt lat="44.38128" lon="5.51889">
        <ele>784.5</ele>
        <time>2023-03-20T09:35:36Z</time>
      </trkpt>
      <trkpt lat="44.38123" lon="5.51889">
        <ele>784.6</ele>
        <time>2023-03-20T09:35:37Z</time>
      </trkpt>
      <trkpt lat="44.38118" lon="5.51888">
        <ele>784.7</ele>
        <time>2023-03-20T09:35:38Z</time>
      </trkpt>
      <trkpt lat="44.38114" lon="5.51889">
        <ele>784.9</ele>
        <time>2023-03-20T09:35:39Z</time>
      </trkpt>
      <trkpt lat="44.3811" lon="5.5189">
        <ele>785</ele>
        <time>2023-03-20T09:35:40Z</time>
      </trkpt>
      <trkpt lat="44.38106" lon="5.51891">
        <ele>785</ele>
        <time>2023-03-20T09:35:41Z</time>
      </trkpt>
      <trkpt lat="44.38104" lon="5.51892">
        <ele>785.1</ele>
        <time>2023-03-20T09:35:42Z</time>
      </trkpt>
      <trkpt lat="44.38102" lon="5.51895">
        <ele>785.2</ele>
        <time>2023-03-20T09:35:43Z</time>
      </trkpt>
      <trkpt lat="44.38101" lon="5.51896">
        <ele>785.2</ele>
        <time>2023-03-20T09:35:44Z</time>
      </trkpt>
      <trkpt lat="44.38101" lon="5.51898">
        <ele>785.2</ele>
        <time>2023-03-20T09:35:45Z</time>
      </trkpt>
      <trkpt lat="44.38103" lon="5.51899">
        <ele>785.3</ele>
        <time>2023-03-20T09:35:46Z</time>
      </trkpt>
      <trkpt lat="44.38106" lon="5.519">
        <ele>786.3</ele>
        <time>2023-03-20T09:35:47Z</time>
      </trkpt>
      <trkpt lat="44.38107" lon="5.51899">
        <ele>786.4</ele>
        <time>2023-03-20T09:35:48Z</time>
      </trkpt>
      <trkpt lat="44.38111" lon="5.51899">
        <ele>786.8</ele>
        <time>2023-03-20T09:35:49Z</time>
      </trkpt>
      <trkpt lat="44.38112" lon="5.51898">
        <ele>786.9</ele>
        <time>2023-03-20T09:35:50Z</time>
      </trkpt>
      <trkpt lat="44.38115" lon="5.51898">
        <ele>787.2</ele>
        <time>2023-03-20T09:35:51Z</time>
      </trkpt>
      <trkpt lat="44.38116" lon="5.51898">
        <ele>787.2</ele>
        <time>2023-03-20T09:35:52Z</time>
      </trkpt>
      <trkpt lat="44.38119" lon="5.51898">
        <ele>787.5</ele>
        <time>2023-03-20T09:35:53Z</time>
      </trkpt>
      <trkpt lat="44.3812" lon="5.51898">
        <ele>787.6</ele>
        <time>2023-03-20T09:35:54Z</time>
      </trkpt>
      <trkpt lat="44.38123" lon="5.51898">
        <ele>787.9</ele>
        <time>2023-03-20T09:35:55Z</time>
      </trkpt>
      <trkpt lat="44.38124" lon="5.51898">
        <ele>788</ele>
        <time>2023-03-20T09:35:56Z</time>
      </trkpt>
      <trkpt lat="44.38127" lon="5.51898">
        <ele>788.3</ele>
        <time>2023-03-20T09:35:57Z</time>
      </trkpt>
      <trkpt lat="44.38128" lon="5.51898">
        <ele>788.4</ele>
        <time>2023-03-20T09:35:58Z</time>
      </trkpt>
      <trkpt lat="44.38131" lon="5.51899">
        <ele>788.7</ele>
        <time>2023-03-20T09:35:59Z</time>
      </trkpt>
      <trkpt lat="44.38132" lon="5.51899">
        <ele>788.8</ele>
        <time>2023-03-20T09:36:00Z</time>
      </trkpt>
      <trkpt lat="44.38135" lon="5.51899">
        <ele>789.1</ele>
        <time>2023-03-20T09:36:01Z</time>
      </trkpt>
      <trkpt lat="44.38136" lon="5.519">
        <ele>789.2</ele>
        <time>2023-03-20T09:36:02Z</time>
      </trkpt>
      <trkpt lat="44.38139" lon="5.51901">
        <ele>789.4</ele>
        <time>2023-03-20T09:36:03Z</time>
      </trkpt>
      <trkpt lat="44.3814" lon="5.51901">
        <ele>789.5</ele>
        <time>2023-03-20T09:36:04Z</time>
      </trkpt>
      <trkpt lat="44.38143" lon="5.51901">
        <ele>789.8</ele>
        <time>2023-03-20T09:36:05Z</time>
      </trkpt>
      <trkpt lat="44.38144" lon="5.51901">
        <ele>789.9</ele>
        <time>2023-03-20T09:36:06Z</time>
      </trkpt>
      <trkpt lat="44.38148" lon="5.51902">
        <ele>790.2</ele>
        <time>2023-03-20T09:36:07Z</time>
      </trkpt>
      <trkpt lat="44.38149" lon="5.51902">
        <ele>790.3</ele>
        <time>2023-03-20T09:36:08Z</time>
      </trkpt>
      <trkpt lat="44.38152" lon="5.51904">
        <ele>790.6</ele>
        <time>2023-03-20T09:36:09Z</time>
      </trkpt>
      <trkpt lat="44.38153" lon="5.51904">
        <ele>790.7</ele>
        <time>2023-03-20T09:36:10Z</time>
      </trkpt>
      <trkpt lat="44.38156" lon="5.51906">
        <ele>791</ele>
        <time>2023-03-20T09:36:11Z</time>
      </trkpt>
      <trkpt lat="44.38157" lon="5.51907">
        <ele>791</ele>
        <time>2023-03-20T09:36:12Z</time>
      </trkpt>
      <trkpt lat="44.3816" lon="5.51908">
        <ele>791.3</ele>
        <time>2023-03-20T09:36:13Z</time>
      </trkpt>
      <trkpt lat="44.38161" lon="5.51908">
        <ele>791.4</ele>
        <time>2023-03-20T09:36:14Z</time>
      </trkpt>
      <trkpt lat="44.38164" lon="5.5191">
        <ele>791.7</ele>
        <time>2023-03-20T09:36:15Z</time>
      </trkpt>
      <trkpt lat="44.38165" lon="5.5191">
        <ele>791.8</ele>
        <time>2023-03-20T09:36:16Z</time>
      </trkpt>
      <trkpt lat="44.38166" lon="5.51911">
        <ele>791.9</ele>
        <time>2023-03-20T09:36:17Z</time>
      </trkpt>
      <trkpt lat="44.38168" lon="5.51911">
        <ele>792.1</ele>
        <time>2023-03-20T09:36:18Z</time>
      </trkpt>
      <trkpt lat="44.38171" lon="5.51913">
        <ele>792.3</ele>
        <time>2023-03-20T09:36:19Z</time>
      </trkpt>
      <trkpt lat="44.38172" lon="5.51913">
        <ele>792.4</ele>
        <time>2023-03-20T09:36:20Z</time>
      </trkpt>
      <trkpt lat="44.38175" lon="5.51915">
        <ele>792.7</ele>
        <time>2023-03-20T09:36:21Z</time>
      </trkpt>
      <trkpt lat="44.38176" lon="5.51915">
        <ele>792.8</ele>
        <time>2023-03-20T09:36:22Z</time>
      </trkpt>
      <trkpt lat="44.38178" lon="5.51916">
        <ele>793.1</ele>
        <time>2023-03-20T09:36:23Z</time>
      </trkpt>
      <trkpt lat="44.38179" lon="5.51917">
        <ele>793.1</ele>
        <time>2023-03-20T09:36:24Z</time>
      </trkpt>
      <trkpt lat="44.38182" lon="5.51919">
        <ele>793.4</ele>
        <time>2023-03-20T09:36:25Z</time>
      </trkpt>
      <trkpt lat="44.38183" lon="5.51919">
        <ele>793.5</ele>
        <time>2023-03-20T09:36:26Z</time>
      </trkpt>
      <trkpt lat="44.38186" lon="5.51921">
        <ele>793.8</ele>
        <time>2023-03-20T09:36:27Z</time>
      </trkpt>
      <trkpt lat="44.38187" lon="5.51922">
        <ele>793.9</ele>
        <time>2023-03-20T09:36:28Z</time>
      </trkpt>
      <trkpt lat="44.3819" lon="5.51924">
        <ele>794.3</ele>
        <time>2023-03-20T09:36:29Z</time>
      </trkpt>
      <trkpt lat="44.38191" lon="5.51925">
        <ele>794.4</ele>
        <time>2023-03-20T09:36:30Z</time>
      </trkpt>
      <trkpt lat="44.38192" lon="5.51929">
        <ele>794.7</ele>
        <time>2023-03-20T09:36:31Z</time>
      </trkpt>
      <trkpt lat="44.38192" lon="5.5193">
        <ele>794.7</ele>
        <time>2023-03-20T09:36:32Z</time>
      </trkpt>
      <trkpt lat="44.38192" lon="5.51932">
        <ele>794.9</ele>
        <time>2023-03-20T09:36:33Z</time>
      </trkpt>
      <trkpt lat="44.38192" lon="5.51935">
        <ele>795.1</ele>
        <time>2023-03-20T09:36:34Z</time>
      </trkpt>
      <trkpt lat="44.38191" lon="5.51939">
        <ele>795.4</ele>
        <time>2023-03-20T09:36:35Z</time>
      </trkpt>
      <trkpt lat="44.38191" lon="5.5194">
        <ele>795.5</ele>
        <time>2023-03-20T09:36:36Z</time>
      </trkpt>
      <trkpt lat="44.38189" lon="5.51943">
        <ele>795.8</ele>
        <time>2023-03-20T09:36:37Z</time>
      </trkpt>
      <trkpt lat="44.38189" lon="5.51944">
        <ele>795.9</ele>
        <time>2023-03-20T09:36:38Z</time>
      </trkpt>
      <trkpt lat="44.38187" lon="5.51947">
        <ele>796.2</ele>
        <time>2023-03-20T09:36:39Z</time>
      </trkpt>
      <trkpt lat="44.38186" lon="5.51948">
        <ele>796.2</ele>
        <time>2023-03-20T09:36:40Z</time>
      </trkpt>
      <trkpt lat="44.38183" lon="5.51949">
        <ele>796.5</ele>
        <time>2023-03-20T09:36:41Z</time>
      </trkpt>
      <trkpt lat="44.38182" lon="5.51949">
        <ele>796.6</ele>
        <time>2023-03-20T09:36:42Z</time>
      </trkpt>
      <trkpt lat="44.38179" lon="5.5195">
        <ele>796.9</ele>
        <time>2023-03-20T09:36:43Z</time>
      </trkpt>
      <trkpt lat="44.38178" lon="5.51951">
        <ele>797</ele>
        <time>2023-03-20T09:36:44Z</time>
      </trkpt>
      <trkpt lat="44.38175" lon="5.51952">
        <ele>797.3</ele>
        <time>2023-03-20T09:36:45Z</time>
      </trkpt>
      <trkpt lat="44.38173" lon="5.51952">
        <ele>797.4</ele>
        <time>2023-03-20T09:36:46Z</time>
      </trkpt>
      <trkpt lat="44.3817" lon="5.51953">
        <ele>797.8</ele>
        <time>2023-03-20T09:36:47Z</time>
      </trkpt>
      <trkpt lat="44.38168" lon="5.51953">
        <ele>797.9</ele>
        <time>2023-03-20T09:36:48Z</time>
      </trkpt>
      <trkpt lat="44.38165" lon="5.51955">
        <ele>798.1</ele>
        <time>2023-03-20T09:36:49Z</time>
      </trkpt>
      <trkpt lat="44.38164" lon="5.51955">
        <ele>798.2</ele>
        <time>2023-03-20T09:36:50Z</time>
      </trkpt>
      <trkpt lat="44.38161" lon="5.51957">
        <ele>798.5</ele>
        <time>2023-03-20T09:36:51Z</time>
      </trkpt>
      <trkpt lat="44.3816" lon="5.51958">
        <ele>798.6</ele>
        <time>2023-03-20T09:36:52Z</time>
      </trkpt>
      <trkpt lat="44.38157" lon="5.51961">
        <ele>798.8</ele>
        <time>2023-03-20T09:36:53Z</time>
      </trkpt>
      <trkpt lat="44.38157" lon="5.51963">
        <ele>798.9</ele>
        <time>2023-03-20T09:36:54Z</time>
      </trkpt>
      <trkpt lat="44.38155" lon="5.51967">
        <ele>799.2</ele>
        <time>2023-03-20T09:36:55Z</time>
      </trkpt>
      <trkpt lat="44.38154" lon="5.51968">
        <ele>799.3</ele>
        <time>2023-03-20T09:36:56Z</time>
      </trkpt>
      <trkpt lat="44.38153" lon="5.51972">
        <ele>799.5</ele>
        <time>2023-03-20T09:36:57Z</time>
      </trkpt>
      <trkpt lat="44.38152" lon="5.51974">
        <ele>799.6</ele>
        <time>2023-03-20T09:36:58Z</time>
      </trkpt>
      <trkpt lat="44.38151" lon="5.51978">
        <ele>799.8</ele>
        <time>2023-03-20T09:36:59Z</time>
      </trkpt>
      <trkpt lat="44.3815" lon="5.51979">
        <ele>799.9</ele>
        <time>2023-03-20T09:37:00Z</time>
      </trkpt>
      <trkpt lat="44.38149" lon="5.51983">
        <ele>800.1</ele>
        <time>2023-03-20T09:37:01Z</time>
      </trkpt>
      <trkpt lat="44.38149" lon="5.51985">
        <ele>800.2</ele>
        <time>2023-03-20T09:37:02Z</time>
      </trkpt>
      <trkpt lat="44.38148" lon="5.51989">
        <ele>800.5</ele>
        <time>2023-03-20T09:37:03Z</time>
      </trkpt>
      <trkpt lat="44.38148" lon="5.51991">
        <ele>800.5</ele>
        <time>2023-03-20T09:37:04Z</time>
      </trkpt>
      <trkpt lat="44.38146" lon="5.51995">
        <ele>800.8</ele>
        <time>2023-03-20T09:37:05Z</time>
      </trkpt>
      <trkpt lat="44.38146" lon="5.51996">
        <ele>800.9</ele>
        <time>2023-03-20T09:37:06Z</time>
      </trkpt>
      <trkpt lat="44.38145" lon="5.52001">
        <ele>801.1</ele>
        <time>2023-03-20T09:37:07Z</time>
      </trkpt>
      <trkpt lat="44.38144" lon="5.52002">
        <ele>801.2</ele>
        <time>2023-03-20T09:37:08Z</time>
      </trkpt>
      <trkpt lat="44.38143" lon="5.52006">
        <ele>801.5</ele>
        <time>2023-03-20T09:37:09Z</time>
      </trkpt>
      <trkpt lat="44.38143" lon="5.52008">
        <ele>801.6</ele>
        <time>2023-03-20T09:37:10Z</time>
      </trkpt>
      <trkpt lat="44.38141" lon="5.52013">
        <ele>801.9</ele>
        <time>2023-03-20T09:37:11Z</time>
      </trkpt>
      <trkpt lat="44.38141" lon="5.52014">
        <ele>802</ele>
        <time>2023-03-20T09:37:12Z</time>
      </trkpt>
      <trkpt lat="44.3814" lon="5.5202">
        <ele>802.3</ele>
        <time>2023-03-20T09:37:13Z</time>
      </trkpt>
      <trkpt lat="44.38139" lon="5.52022">
        <ele>802.4</ele>
        <time>2023-03-20T09:37:14Z</time>
      </trkpt>
      <trkpt lat="44.38138" lon="5.52025">
        <ele>802.6</ele>
        <time>2023-03-20T09:37:15Z</time>
      </trkpt>
      <trkpt lat="44.38137" lon="5.5203">
        <ele>802.9</ele>
        <time>2023-03-20T09:37:16Z</time>
      </trkpt>
      <trkpt lat="44.38137" lon="5.52031">
        <ele>803</ele>
        <time>2023-03-20T09:37:17Z</time>
      </trkpt>
      <trkpt lat="44.38136" lon="5.52036">
        <ele>803.2</ele>
        <time>2023-03-20T09:37:18Z</time>
      </trkpt>
      <trkpt lat="44.38135" lon="5.52037">
        <ele>803.3</ele>
        <time>2023-03-20T09:37:19Z</time>
      </trkpt>
      <trkpt lat="44.38134" lon="5.52041">
        <ele>803.6</ele>
        <time>2023-03-20T09:37:20Z</time>
      </trkpt>
      <trkpt lat="44.38134" lon="5.52043">
        <ele>803.7</ele>
        <time>2023-03-20T09:37:21Z</time>
      </trkpt>
      <trkpt lat="44.38132" lon="5.52048">
        <ele>804</ele>
        <time>2023-03-20T09:37:22Z</time>
      </trkpt>
      <trkpt lat="44.38131" lon="5.52049">
        <ele>804.1</ele>
        <time>2023-03-20T09:37:23Z</time>
      </trkpt>
      <trkpt lat="44.3813" lon="5.52054">
        <ele>804.5</ele>
        <time>2023-03-20T09:37:24Z</time>
      </trkpt>
      <trkpt lat="44.38129" lon="5.52056">
        <ele>804.6</ele>
        <time>2023-03-20T09:37:25Z</time>
      </trkpt>
      <trkpt lat="44.38128" lon="5.52061">
        <ele>805</ele>
        <time>2023-03-20T09:37:26Z</time>
      </trkpt>
      <trkpt lat="44.38127" lon="5.52063">
        <ele>805.1</ele>
        <time>2023-03-20T09:37:27Z</time>
      </trkpt>
      <trkpt lat="44.38127" lon="5.52068">
        <ele>805.4</ele>
        <time>2023-03-20T09:37:28Z</time>
      </trkpt>
      <trkpt lat="44.38126" lon="5.52069">
        <ele>805.5</ele>
        <time>2023-03-20T09:37:29Z</time>
      </trkpt>
      <trkpt lat="44.38126" lon="5.52075">
        <ele>805.9</ele>
        <time>2023-03-20T09:37:30Z</time>
      </trkpt>
      <trkpt lat="44.38126" lon="5.52076">
        <ele>806</ele>
        <time>2023-03-20T09:37:31Z</time>
      </trkpt>
      <trkpt lat="44.38126" lon="5.52082">
        <ele>806.3</ele>
        <time>2023-03-20T09:37:32Z</time>
      </trkpt>
      <trkpt lat="44.38126" lon="5.52083">
        <ele>806.4</ele>
        <time>2023-03-20T09:37:33Z</time>
      </trkpt>
      <trkpt lat="44.38127" lon="5.52088">
        <ele>806.7</ele>
        <time>2023-03-20T09:37:34Z</time>
      </trkpt>
      <trkpt lat="44.38128" lon="5.5209">
        <ele>806.8</ele>
        <time>2023-03-20T09:37:35Z</time>
      </trkpt>
      <trkpt lat="44.3813" lon="5.52094">
        <ele>807.1</ele>
        <time>2023-03-20T09:37:36Z</time>
      </trkpt>
      <trkpt lat="44.3813" lon="5.52095">
        <ele>807.2</ele>
        <time>2023-03-20T09:37:37Z</time>
      </trkpt>
      <trkpt lat="44.38132" lon="5.52099">
        <ele>807.5</ele>
        <time>2023-03-20T09:37:38Z</time>
      </trkpt>
      <trkpt lat="44.38132" lon="5.52101">
        <ele>807.6</ele>
        <time>2023-03-20T09:37:39Z</time>
      </trkpt>
      <trkpt lat="44.38135" lon="5.52104">
        <ele>807.9</ele>
        <time>2023-03-20T09:37:40Z</time>
      </trkpt>
      <trkpt lat="44.38135" lon="5.52105">
        <ele>807.9</ele>
        <time>2023-03-20T09:37:41Z</time>
      </trkpt>
      <trkpt lat="44.38137" lon="5.52109">
        <ele>808.2</ele>
        <time>2023-03-20T09:37:42Z</time>
      </trkpt>
      <trkpt lat="44.38138" lon="5.5211">
        <ele>808.3</ele>
        <time>2023-03-20T09:37:43Z</time>
      </trkpt>
      <trkpt lat="44.38141" lon="5.52113">
        <ele>808.6</ele>
        <time>2023-03-20T09:37:44Z</time>
      </trkpt>
      <trkpt lat="44.38142" lon="5.52114">
        <ele>808.6</ele>
        <time>2023-03-20T09:37:45Z</time>
      </trkpt>
      <trkpt lat="44.38144" lon="5.52117">
        <ele>808.9</ele>
        <time>2023-03-20T09:37:46Z</time>
      </trkpt>
      <trkpt lat="44.38145" lon="5.52119">
        <ele>809</ele>
        <time>2023-03-20T09:37:47Z</time>
      </trkpt>
      <trkpt lat="44.38148" lon="5.52122">
        <ele>809.3</ele>
        <time>2023-03-20T09:37:48Z</time>
      </trkpt>
      <trkpt lat="44.38149" lon="5.52122">
        <ele>809.4</ele>
        <time>2023-03-20T09:37:49Z</time>
      </trkpt>
      <trkpt lat="44.38152" lon="5.52125">
        <ele>809.7</ele>
        <time>2023-03-20T09:37:50Z</time>
      </trkpt>
      <trkpt lat="44.38153" lon="5.52126">
        <ele>809.8</ele>
        <time>2023-03-20T09:37:51Z</time>
      </trkpt>
      <trkpt lat="44.38156" lon="5.52128">
        <ele>810.1</ele>
        <time>2023-03-20T09:37:52Z</time>
      </trkpt>
      <trkpt lat="44.38157" lon="5.52128">
        <ele>810.2</ele>
        <time>2023-03-20T09:37:53Z</time>
      </trkpt>
      <trkpt lat="44.38161" lon="5.52128">
        <ele>810.5</ele>
        <time>2023-03-20T09:37:54Z</time>
      </trkpt>
      <trkpt lat="44.38162" lon="5.52128">
        <ele>810.6</ele>
        <time>2023-03-20T09:37:55Z</time>
      </trkpt>
      <trkpt lat="44.38166" lon="5.52126">
        <ele>810.9</ele>
        <time>2023-03-20T09:37:56Z</time>
      </trkpt>
      <trkpt lat="44.38167" lon="5.52126">
        <ele>811</ele>
        <time>2023-03-20T09:37:57Z</time>
      </trkpt>
      <trkpt lat="44.3817" lon="5.52124">
        <ele>811.3</ele>
        <time>2023-03-20T09:37:58Z</time>
      </trkpt>
      <trkpt lat="44.38173" lon="5.52121">
        <ele>811.6</ele>
        <time>2023-03-20T09:37:59Z</time>
      </trkpt>
      <trkpt lat="44.38174" lon="5.5212">
        <ele>811.8</ele>
        <time>2023-03-20T09:38:00Z</time>
      </trkpt>
      <trkpt lat="44.38177" lon="5.52117">
        <ele>812.1</ele>
        <time>2023-03-20T09:38:01Z</time>
      </trkpt>
      <trkpt lat="44.38177" lon="5.52116">
        <ele>812.2</ele>
        <time>2023-03-20T09:38:02Z</time>
      </trkpt>
      <trkpt lat="44.3818" lon="5.52112">
        <ele>812.6</ele>
        <time>2023-03-20T09:38:03Z</time>
      </trkpt>
      <trkpt lat="44.38181" lon="5.52111">
        <ele>812.7</ele>
        <time>2023-03-20T09:38:04Z</time>
      </trkpt>
      <trkpt lat="44.38184" lon="5.52109">
        <ele>813</ele>
        <time>2023-03-20T09:38:05Z</time>
      </trkpt>
      <trkpt lat="44.38185" lon="5.52108">
        <ele>813.1</ele>
        <time>2023-03-20T09:38:06Z</time>
      </trkpt>
      <trkpt lat="44.38188" lon="5.52106">
        <ele>813.4</ele>
        <time>2023-03-20T09:38:07Z</time>
      </trkpt>
      <trkpt lat="44.38189" lon="5.52105">
        <ele>813.6</ele>
        <time>2023-03-20T09:38:08Z</time>
      </trkpt>
      <trkpt lat="44.38192" lon="5.52104">
        <ele>813.9</ele>
        <time>2023-03-20T09:38:09Z</time>
      </trkpt>
      <trkpt lat="44.38194" lon="5.52104">
        <ele>814</ele>
        <time>2023-03-20T09:38:10Z</time>
      </trkpt>
      <trkpt lat="44.38197" lon="5.52104">
        <ele>814.3</ele>
        <time>2023-03-20T09:38:11Z</time>
      </trkpt>
      <trkpt lat="44.38198" lon="5.52104">
        <ele>814.4</ele>
        <time>2023-03-20T09:38:12Z</time>
      </trkpt>
      <trkpt lat="44.38201" lon="5.52106">
        <ele>814.8</ele>
        <time>2023-03-20T09:38:13Z</time>
      </trkpt>
      <trkpt lat="44.38202" lon="5.52106">
        <ele>814.9</ele>
        <time>2023-03-20T09:38:14Z</time>
      </trkpt>
      <trkpt lat="44.38205" lon="5.52108">
        <ele>815.2</ele>
        <time>2023-03-20T09:38:15Z</time>
      </trkpt>
      <trkpt lat="44.38206" lon="5.52109">
        <ele>815.3</ele>
        <time>2023-03-20T09:38:16Z</time>
      </trkpt>
      <trkpt lat="44.38209" lon="5.52111">
        <ele>815.7</ele>
        <time>2023-03-20T09:38:17Z</time>
      </trkpt>
      <trkpt lat="44.3821" lon="5.52112">
        <ele>815.8</ele>
        <time>2023-03-20T09:38:18Z</time>
      </trkpt>
      <trkpt lat="44.38213" lon="5.52115">
        <ele>816.1</ele>
        <time>2023-03-20T09:38:19Z</time>
      </trkpt>
      <trkpt lat="44.38213" lon="5.52116">
        <ele>816.2</ele>
        <time>2023-03-20T09:38:20Z</time>
      </trkpt>
      <trkpt lat="44.38215" lon="5.5212">
        <ele>816.5</ele>
        <time>2023-03-20T09:38:21Z</time>
      </trkpt>
      <trkpt lat="44.38215" lon="5.52121">
        <ele>816.6</ele>
        <time>2023-03-20T09:38:22Z</time>
      </trkpt>
      <trkpt lat="44.38217" lon="5.52125">
        <ele>816.9</ele>
        <time>2023-03-20T09:38:23Z</time>
      </trkpt>
      <trkpt lat="44.38217" lon="5.52127">
        <ele>817</ele>
        <time>2023-03-20T09:38:24Z</time>
      </trkpt>
      <trkpt lat="44.38219" lon="5.52131">
        <ele>817.4</ele>
        <time>2023-03-20T09:38:25Z</time>
      </trkpt>
      <trkpt lat="44.38219" lon="5.52133">
        <ele>817.5</ele>
        <time>2023-03-20T09:38:26Z</time>
      </trkpt>
      <trkpt lat="44.38221" lon="5.52138">
        <ele>817.9</ele>
        <time>2023-03-20T09:38:27Z</time>
      </trkpt>
      <trkpt lat="44.38221" lon="5.52139">
        <ele>817.9</ele>
        <time>2023-03-20T09:38:28Z</time>
      </trkpt>
      <trkpt lat="44.38223" lon="5.52144">
        <ele>818.3</ele>
        <time>2023-03-20T09:38:29Z</time>
      </trkpt>
      <trkpt lat="44.38223" lon="5.52146">
        <ele>818.4</ele>
        <time>2023-03-20T09:38:30Z</time>
      </trkpt>
      <trkpt lat="44.38224" lon="5.5215">
        <ele>818.7</ele>
        <time>2023-03-20T09:38:31Z</time>
      </trkpt>
      <trkpt lat="44.38225" lon="5.52152">
        <ele>818.9</ele>
        <time>2023-03-20T09:38:32Z</time>
      </trkpt>
      <trkpt lat="44.38226" lon="5.52157">
        <ele>819.2</ele>
        <time>2023-03-20T09:38:33Z</time>
      </trkpt>
      <trkpt lat="44.38226" lon="5.52158">
        <ele>819.3</ele>
        <time>2023-03-20T09:38:34Z</time>
      </trkpt>
      <trkpt lat="44.38228" lon="5.52163">
        <ele>819.7</ele>
        <time>2023-03-20T09:38:35Z</time>
      </trkpt>
      <trkpt lat="44.38228" lon="5.52165">
        <ele>819.8</ele>
        <time>2023-03-20T09:38:36Z</time>
      </trkpt>
      <trkpt lat="44.3823" lon="5.5217">
        <ele>820.1</ele>
        <time>2023-03-20T09:38:37Z</time>
      </trkpt>
      <trkpt lat="44.3823" lon="5.52171">
        <ele>820.2</ele>
        <time>2023-03-20T09:38:38Z</time>
      </trkpt>
      <trkpt lat="44.38231" lon="5.52176">
        <ele>820.5</ele>
        <time>2023-03-20T09:38:39Z</time>
      </trkpt>
      <trkpt lat="44.38232" lon="5.52177">
        <ele>820.7</ele>
        <time>2023-03-20T09:38:40Z</time>
      </trkpt>
      <trkpt lat="44.38234" lon="5.52181">
        <ele>820.9</ele>
        <time>2023-03-20T09:38:41Z</time>
      </trkpt>
      <trkpt lat="44.38234" lon="5.52182">
        <ele>821</ele>
        <time>2023-03-20T09:38:42Z</time>
      </trkpt>
      <trkpt lat="44.38236" lon="5.52187">
        <ele>821.4</ele>
        <time>2023-03-20T09:38:43Z</time>
      </trkpt>
      <trkpt lat="44.38236" lon="5.52188">
        <ele>821.5</ele>
        <time>2023-03-20T09:38:44Z</time>
      </trkpt>
      <trkpt lat="44.38238" lon="5.52192">
        <ele>821.7</ele>
        <time>2023-03-20T09:38:45Z</time>
      </trkpt>
      <trkpt lat="44.38238" lon="5.52193">
        <ele>821.8</ele>
        <time>2023-03-20T09:38:46Z</time>
      </trkpt>
      <trkpt lat="44.3824" lon="5.52197">
        <ele>822.1</ele>
        <time>2023-03-20T09:38:47Z</time>
      </trkpt>
      <trkpt lat="44.38241" lon="5.52198">
        <ele>822.2</ele>
        <time>2023-03-20T09:38:48Z</time>
      </trkpt>
      <trkpt lat="44.38242" lon="5.52202">
        <ele>822.5</ele>
        <time>2023-03-20T09:38:49Z</time>
      </trkpt>
      <trkpt lat="44.38243" lon="5.52203">
        <ele>822.5</ele>
        <time>2023-03-20T09:38:50Z</time>
      </trkpt>
      <trkpt lat="44.38244" lon="5.52207">
        <ele>822.8</ele>
        <time>2023-03-20T09:38:51Z</time>
      </trkpt>
      <trkpt lat="44.38245" lon="5.52208">
        <ele>822.9</ele>
        <time>2023-03-20T09:38:52Z</time>
      </trkpt>
      <trkpt lat="44.38246" lon="5.52212">
        <ele>823.2</ele>
        <time>2023-03-20T09:38:53Z</time>
      </trkpt>
      <trkpt lat="44.38247" lon="5.52213">
        <ele>823.2</ele>
        <time>2023-03-20T09:38:54Z</time>
      </trkpt>
      <trkpt lat="44.38249" lon="5.52217">
        <ele>823.5</ele>
        <time>2023-03-20T09:38:55Z</time>
      </trkpt>
      <trkpt lat="44.3825" lon="5.52218">
        <ele>823.6</ele>
        <time>2023-03-20T09:38:56Z</time>
      </trkpt>
      <trkpt lat="44.38252" lon="5.52222">
        <ele>823.9</ele>
        <time>2023-03-20T09:38:57Z</time>
      </trkpt>
      <trkpt lat="44.38252" lon="5.52223">
        <ele>824</ele>
        <time>2023-03-20T09:38:58Z</time>
      </trkpt>
      <trkpt lat="44.38255" lon="5.52227">
        <ele>824.3</ele>
        <time>2023-03-20T09:38:59Z</time>
      </trkpt>
      <trkpt lat="44.38256" lon="5.52228">
        <ele>824.4</ele>
        <time>2023-03-20T09:39:00Z</time>
      </trkpt>
      <trkpt lat="44.38258" lon="5.52231">
        <ele>824.7</ele>
        <time>2023-03-20T09:39:01Z</time>
      </trkpt>
      <trkpt lat="44.38259" lon="5.52233">
        <ele>824.8</ele>
        <time>2023-03-20T09:39:02Z</time>
      </trkpt>
      <trkpt lat="44.38261" lon="5.52236">
        <ele>825.1</ele>
        <time>2023-03-20T09:39:03Z</time>
      </trkpt>
      <trkpt lat="44.38262" lon="5.52237">
        <ele>825.2</ele>
        <time>2023-03-20T09:39:04Z</time>
      </trkpt>
      <trkpt lat="44.38264" lon="5.52241">
        <ele>825.4</ele>
        <time>2023-03-20T09:39:05Z</time>
      </trkpt>
      <trkpt lat="44.38264" lon="5.52243">
        <ele>825.5</ele>
        <time>2023-03-20T09:39:06Z</time>
      </trkpt>
      <trkpt lat="44.38266" lon="5.52247">
        <ele>825.8</ele>
        <time>2023-03-20T09:39:07Z</time>
      </trkpt>
      <trkpt lat="44.38266" lon="5.52248">
        <ele>825.9</ele>
        <time>2023-03-20T09:39:08Z</time>
      </trkpt>
      <trkpt lat="44.38268" lon="5.52252">
        <ele>826.2</ele>
        <time>2023-03-20T09:39:09Z</time>
      </trkpt>
      <trkpt lat="44.38269" lon="5.52254">
        <ele>826.3</ele>
        <time>2023-03-20T09:39:10Z</time>
      </trkpt>
      <trkpt lat="44.38271" lon="5.52258">
        <ele>826.5</ele>
        <time>2023-03-20T09:39:11Z</time>
      </trkpt>
      <trkpt lat="44.38271" lon="5.52259">
        <ele>826.6</ele>
        <time>2023-03-20T09:39:12Z</time>
      </trkpt>
      <trkpt lat="44.38273" lon="5.52263">
        <ele>826.9</ele>
        <time>2023-03-20T09:39:13Z</time>
      </trkpt>
      <trkpt lat="44.38274" lon="5.52264">
        <ele>827</ele>
        <time>2023-03-20T09:39:14Z</time>
      </trkpt>
      <trkpt lat="44.38276" lon="5.52268">
        <ele>827.4</ele>
        <time>2023-03-20T09:39:15Z</time>
      </trkpt>
      <trkpt lat="44.38277" lon="5.5227">
        <ele>827.5</ele>
        <time>2023-03-20T09:39:16Z</time>
      </trkpt>
      <trkpt lat="44.38279" lon="5.52274">
        <ele>827.8</ele>
        <time>2023-03-20T09:39:17Z</time>
      </trkpt>
      <trkpt lat="44.38279" lon="5.52275">
        <ele>827.9</ele>
        <time>2023-03-20T09:39:18Z</time>
      </trkpt>
      <trkpt lat="44.38281" lon="5.5228">
        <ele>828.2</ele>
        <time>2023-03-20T09:39:19Z</time>
      </trkpt>
      <trkpt lat="44.38282" lon="5.52282">
        <ele>828.3</ele>
        <time>2023-03-20T09:39:20Z</time>
      </trkpt>
      <trkpt lat="44.38284" lon="5.52285">
        <ele>828.6</ele>
        <time>2023-03-20T09:39:21Z</time>
      </trkpt>
      <trkpt lat="44.38285" lon="5.52286">
        <ele>828.7</ele>
        <time>2023-03-20T09:39:22Z</time>
      </trkpt>
      <trkpt lat="44.38287" lon="5.52289">
        <ele>829</ele>
        <time>2023-03-20T09:39:23Z</time>
      </trkpt>
      <trkpt lat="44.38287" lon="5.5229">
        <ele>829.1</ele>
        <time>2023-03-20T09:39:24Z</time>
      </trkpt>
      <trkpt lat="44.38289" lon="5.52295">
        <ele>829.4</ele>
        <time>2023-03-20T09:39:25Z</time>
      </trkpt>
      <trkpt lat="44.3829" lon="5.52296">
        <ele>829.5</ele>
        <time>2023-03-20T09:39:26Z</time>
      </trkpt>
      <trkpt lat="44.38291" lon="5.52301">
        <ele>829.8</ele>
        <time>2023-03-20T09:39:27Z</time>
      </trkpt>
      <trkpt lat="44.38292" lon="5.52302">
        <ele>830</ele>
        <time>2023-03-20T09:39:28Z</time>
      </trkpt>
      <trkpt lat="44.38294" lon="5.52306">
        <ele>830.3</ele>
        <time>2023-03-20T09:39:29Z</time>
      </trkpt>
      <trkpt lat="44.38295" lon="5.52308">
        <ele>830.4</ele>
        <time>2023-03-20T09:39:30Z</time>
      </trkpt>
      <trkpt lat="44.38296" lon="5.52313">
        <ele>830.8</ele>
        <time>2023-03-20T09:39:31Z</time>
      </trkpt>
      <trkpt lat="44.38297" lon="5.52314">
        <ele>830.9</ele>
        <time>2023-03-20T09:39:32Z</time>
      </trkpt>
      <trkpt lat="44.38299" lon="5.52319">
        <ele>831.3</ele>
        <time>2023-03-20T09:39:33Z</time>
      </trkpt>
      <trkpt lat="44.383" lon="5.5232">
        <ele>831.4</ele>
        <time>2023-03-20T09:39:34Z</time>
      </trkpt>
      <trkpt lat="44.38302" lon="5.52324">
        <ele>831.7</ele>
        <time>2023-03-20T09:39:35Z</time>
      </trkpt>
      <trkpt lat="44.38303" lon="5.52325">
        <ele>831.8</ele>
        <time>2023-03-20T09:39:36Z</time>
      </trkpt>
      <trkpt lat="44.38305" lon="5.52329">
        <ele>832.2</ele>
        <time>2023-03-20T09:39:37Z</time>
      </trkpt>
      <trkpt lat="44.38306" lon="5.52331">
        <ele>832.3</ele>
        <time>2023-03-20T09:39:38Z</time>
      </trkpt>
      <trkpt lat="44.38308" lon="5.52335">
        <ele>832.6</ele>
        <time>2023-03-20T09:39:39Z</time>
      </trkpt>
      <trkpt lat="44.38309" lon="5.52336">
        <ele>832.7</ele>
        <time>2023-03-20T09:39:40Z</time>
      </trkpt>
      <trkpt lat="44.38311" lon="5.5234">
        <ele>833</ele>
        <time>2023-03-20T09:39:41Z</time>
      </trkpt>
      <trkpt lat="44.38312" lon="5.52341">
        <ele>833.2</ele>
        <time>2023-03-20T09:39:42Z</time>
      </trkpt>
      <trkpt lat="44.38314" lon="5.52344">
        <ele>833.4</ele>
        <time>2023-03-20T09:39:43Z</time>
      </trkpt>
      <trkpt lat="44.38315" lon="5.52346">
        <ele>833.6</ele>
        <time>2023-03-20T09:39:44Z</time>
      </trkpt>
      <trkpt lat="44.38318" lon="5.52349">
        <ele>833.9</ele>
        <time>2023-03-20T09:39:45Z</time>
      </trkpt>
      <trkpt lat="44.38319" lon="5.52351">
        <ele>834</ele>
        <time>2023-03-20T09:39:46Z</time>
      </trkpt>
      <trkpt lat="44.38321" lon="5.52354">
        <ele>834.3</ele>
        <time>2023-03-20T09:39:47Z</time>
      </trkpt>
      <trkpt lat="44.38322" lon="5.52356">
        <ele>834.4</ele>
        <time>2023-03-20T09:39:48Z</time>
      </trkpt>
      <trkpt lat="44.38325" lon="5.52359">
        <ele>834.7</ele>
        <time>2023-03-20T09:39:49Z</time>
      </trkpt>
      <trkpt lat="44.38325" lon="5.5236">
        <ele>834.8</ele>
        <time>2023-03-20T09:39:50Z</time>
      </trkpt>
      <trkpt lat="44.38328" lon="5.52363">
        <ele>835.1</ele>
        <time>2023-03-20T09:39:51Z</time>
      </trkpt>
      <trkpt lat="44.38329" lon="5.52364">
        <ele>835.2</ele>
        <time>2023-03-20T09:39:52Z</time>
      </trkpt>
      <trkpt lat="44.38331" lon="5.52368">
        <ele>835.5</ele>
        <time>2023-03-20T09:39:53Z</time>
      </trkpt>
      <trkpt lat="44.38332" lon="5.52369">
        <ele>835.6</ele>
        <time>2023-03-20T09:39:54Z</time>
      </trkpt>
      <trkpt lat="44.38335" lon="5.52373">
        <ele>835.9</ele>
        <time>2023-03-20T09:39:55Z</time>
      </trkpt>
      <trkpt lat="44.38335" lon="5.52374">
        <ele>836.1</ele>
        <time>2023-03-20T09:39:56Z</time>
      </trkpt>
      <trkpt lat="44.38338" lon="5.52377">
        <ele>836.4</ele>
        <time>2023-03-20T09:39:57Z</time>
      </trkpt>
      <trkpt lat="44.38339" lon="5.52378">
        <ele>836.5</ele>
        <time>2023-03-20T09:39:58Z</time>
      </trkpt>
      <trkpt lat="44.38342" lon="5.52381">
        <ele>836.8</ele>
        <time>2023-03-20T09:39:59Z</time>
      </trkpt>
      <trkpt lat="44.38344" lon="5.52382">
        <ele>836.9</ele>
        <time>2023-03-20T09:40:00Z</time>
      </trkpt>
      <trkpt lat="44.38347" lon="5.52384">
        <ele>837.2</ele>
        <time>2023-03-20T09:40:01Z</time>
      </trkpt>
      <trkpt lat="44.38348" lon="5.52385">
        <ele>837.3</ele>
        <time>2023-03-20T09:40:02Z</time>
      </trkpt>
      <trkpt lat="44.38351" lon="5.52388">
        <ele>837.6</ele>
        <time>2023-03-20T09:40:03Z</time>
      </trkpt>
      <trkpt lat="44.38352" lon="5.52389">
        <ele>837.8</ele>
        <time>2023-03-20T09:40:04Z</time>
      </trkpt>
      <trkpt lat="44.38355" lon="5.52393">
        <ele>838.1</ele>
        <time>2023-03-20T09:40:05Z</time>
      </trkpt>
      <trkpt lat="44.38356" lon="5.52394">
        <ele>838.2</ele>
        <time>2023-03-20T09:40:06Z</time>
      </trkpt>
      <trkpt lat="44.38358" lon="5.52398">
        <ele>838.5</ele>
        <time>2023-03-20T09:40:07Z</time>
      </trkpt>
      <trkpt lat="44.38359" lon="5.524">
        <ele>838.6</ele>
        <time>2023-03-20T09:40:08Z</time>
      </trkpt>
      <trkpt lat="44.38361" lon="5.52404">
        <ele>838.9</ele>
        <time>2023-03-20T09:40:09Z</time>
      </trkpt>
      <trkpt lat="44.38362" lon="5.52405">
        <ele>839</ele>
        <time>2023-03-20T09:40:10Z</time>
      </trkpt>
      <trkpt lat="44.38365" lon="5.52409">
        <ele>839.3</ele>
        <time>2023-03-20T09:40:11Z</time>
      </trkpt>
      <trkpt lat="44.38365" lon="5.5241">
        <ele>839.4</ele>
        <time>2023-03-20T09:40:12Z</time>
      </trkpt>
      <trkpt lat="44.38368" lon="5.52414">
        <ele>839.7</ele>
        <time>2023-03-20T09:40:13Z</time>
      </trkpt>
      <trkpt lat="44.38368" lon="5.52415">
        <ele>839.8</ele>
        <time>2023-03-20T09:40:14Z</time>
      </trkpt>
      <trkpt lat="44.38371" lon="5.52418">
        <ele>840.2</ele>
        <time>2023-03-20T09:40:15Z</time>
      </trkpt>
      <trkpt lat="44.38372" lon="5.5242">
        <ele>840.3</ele>
        <time>2023-03-20T09:40:16Z</time>
      </trkpt>
      <trkpt lat="44.38374" lon="5.52424">
        <ele>840.6</ele>
        <time>2023-03-20T09:40:17Z</time>
      </trkpt>
      <trkpt lat="44.38375" lon="5.52425">
        <ele>840.7</ele>
        <time>2023-03-20T09:40:18Z</time>
      </trkpt>
      <trkpt lat="44.38377" lon="5.52428">
        <ele>841</ele>
        <time>2023-03-20T09:40:19Z</time>
      </trkpt>
      <trkpt lat="44.38378" lon="5.5243">
        <ele>841.1</ele>
        <time>2023-03-20T09:40:20Z</time>
      </trkpt>
      <trkpt lat="44.3838" lon="5.52433">
        <ele>841.4</ele>
        <time>2023-03-20T09:40:21Z</time>
      </trkpt>
      <trkpt lat="44.38381" lon="5.52434">
        <ele>841.5</ele>
        <time>2023-03-20T09:40:22Z</time>
      </trkpt>
      <trkpt lat="44.38383" lon="5.52438">
        <ele>841.8</ele>
        <time>2023-03-20T09:40:23Z</time>
      </trkpt>
      <trkpt lat="44.38384" lon="5.52439">
        <ele>841.9</ele>
        <time>2023-03-20T09:40:24Z</time>
      </trkpt>
      <trkpt lat="44.38386" lon="5.52443">
        <ele>842.2</ele>
        <time>2023-03-20T09:40:25Z</time>
      </trkpt>
      <trkpt lat="44.38387" lon="5.52444">
        <ele>842.3</ele>
        <time>2023-03-20T09:40:26Z</time>
      </trkpt>
      <trkpt lat="44.38389" lon="5.52447">
        <ele>842.6</ele>
        <time>2023-03-20T09:40:27Z</time>
      </trkpt>
      <trkpt lat="44.3839" lon="5.52449">
        <ele>842.7</ele>
        <time>2023-03-20T09:40:28Z</time>
      </trkpt>
      <trkpt lat="44.38392" lon="5.52452">
        <ele>843</ele>
        <time>2023-03-20T09:40:29Z</time>
      </trkpt>
      <trkpt lat="44.38393" lon="5.52454">
        <ele>843.1</ele>
        <time>2023-03-20T09:40:30Z</time>
      </trkpt>
      <trkpt lat="44.38395" lon="5.52457">
        <ele>843.4</ele>
        <time>2023-03-20T09:40:31Z</time>
      </trkpt>
      <trkpt lat="44.38396" lon="5.52459">
        <ele>843.4</ele>
        <time>2023-03-20T09:40:32Z</time>
      </trkpt>
      <trkpt lat="44.38398" lon="5.52462">
        <ele>843.8</ele>
        <time>2023-03-20T09:40:33Z</time>
      </trkpt>
      <trkpt lat="44.38399" lon="5.52464">
        <ele>843.9</ele>
        <time>2023-03-20T09:40:34Z</time>
      </trkpt>
      <trkpt lat="44.38402" lon="5.52467">
        <ele>844.2</ele>
        <time>2023-03-20T09:40:35Z</time>
      </trkpt>
      <trkpt lat="44.38403" lon="5.52468">
        <ele>844.3</ele>
        <time>2023-03-20T09:40:36Z</time>
      </trkpt>
      <trkpt lat="44.38405" lon="5.52471">
        <ele>844.6</ele>
        <time>2023-03-20T09:40:37Z</time>
      </trkpt>
      <trkpt lat="44.38406" lon="5.52473">
        <ele>844.7</ele>
        <time>2023-03-20T09:40:38Z</time>
      </trkpt>
      <trkpt lat="44.38409" lon="5.52476">
        <ele>845</ele>
        <time>2023-03-20T09:40:39Z</time>
      </trkpt>
      <trkpt lat="44.3841" lon="5.52477">
        <ele>845.1</ele>
        <time>2023-03-20T09:40:40Z</time>
      </trkpt>
      <trkpt lat="44.38413" lon="5.52481">
        <ele>845.3</ele>
        <time>2023-03-20T09:40:41Z</time>
      </trkpt>
      <trkpt lat="44.38414" lon="5.52482">
        <ele>845.4</ele>
        <time>2023-03-20T09:40:42Z</time>
      </trkpt>
      <trkpt lat="44.38416" lon="5.52486">
        <ele>845.7</ele>
        <time>2023-03-20T09:40:43Z</time>
      </trkpt>
      <trkpt lat="44.38417" lon="5.52487">
        <ele>845.8</ele>
        <time>2023-03-20T09:40:44Z</time>
      </trkpt>
      <trkpt lat="44.3842" lon="5.5249">
        <ele>846</ele>
        <time>2023-03-20T09:40:45Z</time>
      </trkpt>
      <trkpt lat="44.38421" lon="5.52491">
        <ele>846.1</ele>
        <time>2023-03-20T09:40:46Z</time>
      </trkpt>
      <trkpt lat="44.38424" lon="5.52495">
        <ele>846.4</ele>
        <time>2023-03-20T09:40:47Z</time>
      </trkpt>
      <trkpt lat="44.38425" lon="5.52496">
        <ele>846.5</ele>
        <time>2023-03-20T09:40:48Z</time>
      </trkpt>
      <trkpt lat="44.38427" lon="5.52499">
        <ele>846.7</ele>
        <time>2023-03-20T09:40:49Z</time>
      </trkpt>
      <trkpt lat="44.38428" lon="5.525">
        <ele>846.8</ele>
        <time>2023-03-20T09:40:50Z</time>
      </trkpt>
      <trkpt lat="44.38431" lon="5.52504">
        <ele>847</ele>
        <time>2023-03-20T09:40:51Z</time>
      </trkpt>
      <trkpt lat="44.38432" lon="5.52505">
        <ele>847.1</ele>
        <time>2023-03-20T09:40:52Z</time>
      </trkpt>
      <trkpt lat="44.38435" lon="5.52507">
        <ele>847.3</ele>
        <time>2023-03-20T09:40:53Z</time>
      </trkpt>
      <trkpt lat="44.38436" lon="5.52508">
        <ele>847.4</ele>
        <time>2023-03-20T09:40:54Z</time>
      </trkpt>
      <trkpt lat="44.38439" lon="5.52512">
        <ele>847.6</ele>
        <time>2023-03-20T09:40:55Z</time>
      </trkpt>
      <trkpt lat="44.3844" lon="5.52513">
        <ele>847.7</ele>
        <time>2023-03-20T09:40:56Z</time>
      </trkpt>
      <trkpt lat="44.38442" lon="5.52516">
        <ele>847.9</ele>
        <time>2023-03-20T09:40:57Z</time>
      </trkpt>
      <trkpt lat="44.38444" lon="5.52518">
        <ele>848.1</ele>
        <time>2023-03-20T09:40:58Z</time>
      </trkpt>
      <trkpt lat="44.38446" lon="5.5252">
        <ele>848.3</ele>
        <time>2023-03-20T09:40:59Z</time>
      </trkpt>
      <trkpt lat="44.38449" lon="5.52523">
        <ele>848.6</ele>
        <time>2023-03-20T09:41:00Z</time>
      </trkpt>
      <trkpt lat="44.38451" lon="5.52524">
        <ele>848.7</ele>
        <time>2023-03-20T09:41:01Z</time>
      </trkpt>
      <trkpt lat="44.38453" lon="5.52525">
        <ele>848.9</ele>
        <time>2023-03-20T09:41:02Z</time>
      </trkpt>
      <trkpt lat="44.38456" lon="5.52528">
        <ele>849.1</ele>
        <time>2023-03-20T09:41:03Z</time>
      </trkpt>
      <trkpt lat="44.38457" lon="5.52529">
        <ele>849.2</ele>
        <time>2023-03-20T09:41:04Z</time>
      </trkpt>
      <trkpt lat="44.3846" lon="5.52531">
        <ele>849.5</ele>
        <time>2023-03-20T09:41:05Z</time>
      </trkpt>
      <trkpt lat="44.38461" lon="5.52532">
        <ele>849.6</ele>
        <time>2023-03-20T09:41:06Z</time>
      </trkpt>
      <trkpt lat="44.38464" lon="5.52535">
        <ele>849.8</ele>
        <time>2023-03-20T09:41:07Z</time>
      </trkpt>
      <trkpt lat="44.38466" lon="5.52536">
        <ele>849.9</ele>
        <time>2023-03-20T09:41:08Z</time>
      </trkpt>
      <trkpt lat="44.38469" lon="5.52538">
        <ele>850.2</ele>
        <time>2023-03-20T09:41:09Z</time>
      </trkpt>
      <trkpt lat="44.3847" lon="5.5254">
        <ele>850.3</ele>
        <time>2023-03-20T09:41:10Z</time>
      </trkpt>
      <trkpt lat="44.38472" lon="5.52542">
        <ele>850.6</ele>
        <time>2023-03-20T09:41:11Z</time>
      </trkpt>
      <trkpt lat="44.38473" lon="5.52543">
        <ele>850.6</ele>
        <time>2023-03-20T09:41:12Z</time>
      </trkpt>
      <trkpt lat="44.38476" lon="5.52546">
        <ele>850.9</ele>
        <time>2023-03-20T09:41:13Z</time>
      </trkpt>
      <trkpt lat="44.38477" lon="5.52547">
        <ele>851</ele>
        <time>2023-03-20T09:41:14Z</time>
      </trkpt>
      <trkpt lat="44.38481" lon="5.5255">
        <ele>851.3</ele>
        <time>2023-03-20T09:41:15Z</time>
      </trkpt>
      <trkpt lat="44.38482" lon="5.52551">
        <ele>851.4</ele>
        <time>2023-03-20T09:41:16Z</time>
      </trkpt>
      <trkpt lat="44.38485" lon="5.52554">
        <ele>851.6</ele>
        <time>2023-03-20T09:41:17Z</time>
      </trkpt>
      <trkpt lat="44.38486" lon="5.52555">
        <ele>851.7</ele>
        <time>2023-03-20T09:41:18Z</time>
      </trkpt>
      <trkpt lat="44.38489" lon="5.52558">
        <ele>852</ele>
        <time>2023-03-20T09:41:19Z</time>
      </trkpt>
      <trkpt lat="44.3849" lon="5.5256">
        <ele>852.1</ele>
        <time>2023-03-20T09:41:20Z</time>
      </trkpt>
      <trkpt lat="44.38493" lon="5.52562">
        <ele>852.4</ele>
        <time>2023-03-20T09:41:21Z</time>
      </trkpt>
      <trkpt lat="44.38494" lon="5.52563">
        <ele>852.5</ele>
        <time>2023-03-20T09:41:22Z</time>
      </trkpt>
      <trkpt lat="44.38498" lon="5.52566">
        <ele>852.8</ele>
        <time>2023-03-20T09:41:23Z</time>
      </trkpt>
      <trkpt lat="44.38499" lon="5.52567">
        <ele>852.9</ele>
        <time>2023-03-20T09:41:24Z</time>
      </trkpt>
      <trkpt lat="44.38502" lon="5.5257">
        <ele>853.1</ele>
        <time>2023-03-20T09:41:25Z</time>
      </trkpt>
      <trkpt lat="44.38503" lon="5.5257">
        <ele>853.2</ele>
        <time>2023-03-20T09:41:26Z</time>
      </trkpt>
      <trkpt lat="44.38506" lon="5.52573">
        <ele>853.5</ele>
        <time>2023-03-20T09:41:27Z</time>
      </trkpt>
      <trkpt lat="44.38507" lon="5.52573">
        <ele>853.6</ele>
        <time>2023-03-20T09:41:28Z</time>
      </trkpt>
      <trkpt lat="44.3851" lon="5.52576">
        <ele>853.9</ele>
        <time>2023-03-20T09:41:29Z</time>
      </trkpt>
      <trkpt lat="44.38512" lon="5.52577">
        <ele>854</ele>
        <time>2023-03-20T09:41:30Z</time>
      </trkpt>
      <trkpt lat="44.38515" lon="5.5258">
        <ele>854.3</ele>
        <time>2023-03-20T09:41:31Z</time>
      </trkpt>
      <trkpt lat="44.38516" lon="5.52581">
        <ele>854.4</ele>
        <time>2023-03-20T09:41:32Z</time>
      </trkpt>
      <trkpt lat="44.38519" lon="5.52584">
        <ele>854.5</ele>
        <time>2023-03-20T09:41:33Z</time>
      </trkpt>
      <trkpt lat="44.3852" lon="5.52585">
        <ele>854.6</ele>
        <time>2023-03-20T09:41:34Z</time>
      </trkpt>
      <trkpt lat="44.38523" lon="5.52588">
        <ele>854.8</ele>
        <time>2023-03-20T09:41:35Z</time>
      </trkpt>
      <trkpt lat="44.38525" lon="5.52592">
        <ele>855.1</ele>
        <time>2023-03-20T09:41:36Z</time>
      </trkpt>
      <trkpt lat="44.38525" lon="5.52594">
        <ele>855.2</ele>
        <time>2023-03-20T09:41:37Z</time>
      </trkpt>
      <trkpt lat="44.38527" lon="5.52599">
        <ele>855.4</ele>
        <time>2023-03-20T09:41:38Z</time>
      </trkpt>
      <trkpt lat="44.38528" lon="5.526">
        <ele>855.5</ele>
        <time>2023-03-20T09:41:39Z</time>
      </trkpt>
      <trkpt lat="44.3853" lon="5.52605">
        <ele>855.8</ele>
        <time>2023-03-20T09:41:40Z</time>
      </trkpt>
      <trkpt lat="44.3853" lon="5.52606">
        <ele>855.9</ele>
        <time>2023-03-20T09:41:41Z</time>
      </trkpt>
      <trkpt lat="44.38532" lon="5.52611">
        <ele>856.1</ele>
        <time>2023-03-20T09:41:42Z</time>
      </trkpt>
      <trkpt lat="44.38533" lon="5.52612">
        <ele>856.2</ele>
        <time>2023-03-20T09:41:43Z</time>
      </trkpt>
      <trkpt lat="44.38534" lon="5.52616">
        <ele>856.4</ele>
        <time>2023-03-20T09:41:44Z</time>
      </trkpt>
      <trkpt lat="44.38535" lon="5.52619">
        <ele>856.6</ele>
        <time>2023-03-20T09:41:45Z</time>
      </trkpt>
      <trkpt lat="44.38537" lon="5.52623">
        <ele>856.8</ele>
        <time>2023-03-20T09:41:46Z</time>
      </trkpt>
      <trkpt lat="44.38538" lon="5.52626">
        <ele>857</ele>
        <time>2023-03-20T09:41:47Z</time>
      </trkpt>
      <trkpt lat="44.38539" lon="5.5263">
        <ele>857.2</ele>
        <time>2023-03-20T09:41:48Z</time>
      </trkpt>
      <trkpt lat="44.38541" lon="5.52634">
        <ele>857.4</ele>
        <time>2023-03-20T09:41:49Z</time>
      </trkpt>
      <trkpt lat="44.38542" lon="5.52635">
        <ele>857.5</ele>
        <time>2023-03-20T09:41:50Z</time>
      </trkpt>
      <trkpt lat="44.38543" lon="5.52639">
        <ele>857.7</ele>
        <time>2023-03-20T09:41:51Z</time>
      </trkpt>
      <trkpt lat="44.38544" lon="5.5264">
        <ele>857.7</ele>
        <time>2023-03-20T09:41:52Z</time>
      </trkpt>
      <trkpt lat="44.38545" lon="5.52644">
        <ele>857.9</ele>
        <time>2023-03-20T09:41:53Z</time>
      </trkpt>
      <trkpt lat="44.38546" lon="5.52645">
        <ele>858</ele>
        <time>2023-03-20T09:41:54Z</time>
      </trkpt>
      <trkpt lat="44.38548" lon="5.52649">
        <ele>858.2</ele>
        <time>2023-03-20T09:41:55Z</time>
      </trkpt>
      <trkpt lat="44.38549" lon="5.5265">
        <ele>858.3</ele>
        <time>2023-03-20T09:41:56Z</time>
      </trkpt>
      <trkpt lat="44.38551" lon="5.52655">
        <ele>858.6</ele>
        <time>2023-03-20T09:41:57Z</time>
      </trkpt>
      <trkpt lat="44.38552" lon="5.52656">
        <ele>858.7</ele>
        <time>2023-03-20T09:41:58Z</time>
      </trkpt>
      <trkpt lat="44.38555" lon="5.5266">
        <ele>859</ele>
        <time>2023-03-20T09:41:59Z</time>
      </trkpt>
      <trkpt lat="44.38556" lon="5.52662">
        <ele>859.1</ele>
        <time>2023-03-20T09:42:00Z</time>
      </trkpt>
      <trkpt lat="44.38558" lon="5.52666">
        <ele>859.3</ele>
        <time>2023-03-20T09:42:01Z</time>
      </trkpt>
      <trkpt lat="44.38559" lon="5.52667">
        <ele>859.4</ele>
        <time>2023-03-20T09:42:02Z</time>
      </trkpt>
      <trkpt lat="44.38562" lon="5.5267">
        <ele>859.7</ele>
        <time>2023-03-20T09:42:03Z</time>
      </trkpt>
      <trkpt lat="44.38563" lon="5.52671">
        <ele>859.8</ele>
        <time>2023-03-20T09:42:04Z</time>
      </trkpt>
      <trkpt lat="44.38567" lon="5.52674">
        <ele>860.1</ele>
        <time>2023-03-20T09:42:05Z</time>
      </trkpt>
      <trkpt lat="44.38568" lon="5.52674">
        <ele>860.1</ele>
        <time>2023-03-20T09:42:06Z</time>
      </trkpt>
      <trkpt lat="44.38571" lon="5.52677">
        <ele>860.4</ele>
        <time>2023-03-20T09:42:07Z</time>
      </trkpt>
      <trkpt lat="44.38572" lon="5.52678">
        <ele>860.5</ele>
        <time>2023-03-20T09:42:08Z</time>
      </trkpt>
      <trkpt lat="44.38576" lon="5.52679">
        <ele>860.7</ele>
        <time>2023-03-20T09:42:09Z</time>
      </trkpt>
      <trkpt lat="44.38577" lon="5.5268">
        <ele>860.8</ele>
        <time>2023-03-20T09:42:10Z</time>
      </trkpt>
      <trkpt lat="44.3858" lon="5.52682">
        <ele>861</ele>
        <time>2023-03-20T09:42:11Z</time>
      </trkpt>
      <trkpt lat="44.38581" lon="5.52683">
        <ele>861.1</ele>
        <time>2023-03-20T09:42:12Z</time>
      </trkpt>
      <trkpt lat="44.38585" lon="5.52686">
        <ele>861.3</ele>
        <time>2023-03-20T09:42:13Z</time>
      </trkpt>
      <trkpt lat="44.38586" lon="5.52687">
        <ele>861.4</ele>
        <time>2023-03-20T09:42:14Z</time>
      </trkpt>
      <trkpt lat="44.38589" lon="5.5269">
        <ele>861.6</ele>
        <time>2023-03-20T09:42:15Z</time>
      </trkpt>
      <trkpt lat="44.3859" lon="5.52691">
        <ele>861.7</ele>
        <time>2023-03-20T09:42:16Z</time>
      </trkpt>
      <trkpt lat="44.38594" lon="5.52693">
        <ele>862</ele>
        <time>2023-03-20T09:42:17Z</time>
      </trkpt>
      <trkpt lat="44.38595" lon="5.52694">
        <ele>862</ele>
        <time>2023-03-20T09:42:18Z</time>
      </trkpt>
      <trkpt lat="44.38598" lon="5.52697">
        <ele>862.3</ele>
        <time>2023-03-20T09:42:19Z</time>
      </trkpt>
      <trkpt lat="44.38599" lon="5.52698">
        <ele>862.4</ele>
        <time>2023-03-20T09:42:20Z</time>
      </trkpt>
      <trkpt lat="44.38602" lon="5.527">
        <ele>862.7</ele>
        <time>2023-03-20T09:42:21Z</time>
      </trkpt>
      <trkpt lat="44.38603" lon="5.52701">
        <ele>862.8</ele>
        <time>2023-03-20T09:42:22Z</time>
      </trkpt>
      <trkpt lat="44.38607" lon="5.52704">
        <ele>863.1</ele>
        <time>2023-03-20T09:42:23Z</time>
      </trkpt>
      <trkpt lat="44.38608" lon="5.52705">
        <ele>863.2</ele>
        <time>2023-03-20T09:42:24Z</time>
      </trkpt>
      <trkpt lat="44.3861" lon="5.52707">
        <ele>863.4</ele>
        <time>2023-03-20T09:42:25Z</time>
      </trkpt>
      <trkpt lat="44.38612" lon="5.52709">
        <ele>863.6</ele>
        <time>2023-03-20T09:42:26Z</time>
      </trkpt>
      <trkpt lat="44.38615" lon="5.52711">
        <ele>863.8</ele>
        <time>2023-03-20T09:42:27Z</time>
      </trkpt>
      <trkpt lat="44.38618" lon="5.52714">
        <ele>864.2</ele>
        <time>2023-03-20T09:42:28Z</time>
      </trkpt>
      <trkpt lat="44.38619" lon="5.52715">
        <ele>864.3</ele>
        <time>2023-03-20T09:42:29Z</time>
      </trkpt>
      <trkpt lat="44.38623" lon="5.52716">
        <ele>864.6</ele>
        <time>2023-03-20T09:42:30Z</time>
      </trkpt>
      <trkpt lat="44.38624" lon="5.52717">
        <ele>864.7</ele>
        <time>2023-03-20T09:42:31Z</time>
      </trkpt>
      <trkpt lat="44.38628" lon="5.52719">
        <ele>865.1</ele>
        <time>2023-03-20T09:42:32Z</time>
      </trkpt>
      <trkpt lat="44.38629" lon="5.52719">
        <ele>865.2</ele>
        <time>2023-03-20T09:42:33Z</time>
      </trkpt>
      <trkpt lat="44.38633" lon="5.52721">
        <ele>865.5</ele>
        <time>2023-03-20T09:42:34Z</time>
      </trkpt>
      <trkpt lat="44.38634" lon="5.52722">
        <ele>865.6</ele>
        <time>2023-03-20T09:42:35Z</time>
      </trkpt>
      <trkpt lat="44.38637" lon="5.52724">
        <ele>865.9</ele>
        <time>2023-03-20T09:42:36Z</time>
      </trkpt>
      <trkpt lat="44.38638" lon="5.52724">
        <ele>866.1</ele>
        <time>2023-03-20T09:42:37Z</time>
      </trkpt>
      <trkpt lat="44.38642" lon="5.52726">
        <ele>866.4</ele>
        <time>2023-03-20T09:42:38Z</time>
      </trkpt>
      <trkpt lat="44.38643" lon="5.52727">
        <ele>866.5</ele>
        <time>2023-03-20T09:42:39Z</time>
      </trkpt>
      <trkpt lat="44.38647" lon="5.52729">
        <ele>866.8</ele>
        <time>2023-03-20T09:42:40Z</time>
      </trkpt>
      <trkpt lat="44.38648" lon="5.52729">
        <ele>866.9</ele>
        <time>2023-03-20T09:42:41Z</time>
      </trkpt>
      <trkpt lat="44.38653" lon="5.52732">
        <ele>867.4</ele>
        <time>2023-03-20T09:42:43Z</time>
      </trkpt>
      <trkpt lat="44.38656" lon="5.52733">
        <ele>867.6</ele>
        <time>2023-03-20T09:42:44Z</time>
      </trkpt>
      <trkpt lat="44.38659" lon="5.52734">
        <ele>867.8</ele>
        <time>2023-03-20T09:42:45Z</time>
      </trkpt>
      <trkpt lat="44.38661" lon="5.52735">
        <ele>868</ele>
        <time>2023-03-20T09:42:46Z</time>
      </trkpt>
      <trkpt lat="44.38664" lon="5.52737">
        <ele>868.2</ele>
        <time>2023-03-20T09:42:47Z</time>
      </trkpt>
      <trkpt lat="44.38668" lon="5.52738">
        <ele>868.5</ele>
        <time>2023-03-20T09:42:48Z</time>
      </trkpt>
      <trkpt lat="44.38669" lon="5.52739">
        <ele>868.5</ele>
        <time>2023-03-20T09:42:49Z</time>
      </trkpt>
      <trkpt lat="44.38673" lon="5.5274">
        <ele>868.8</ele>
        <time>2023-03-20T09:42:50Z</time>
      </trkpt>
      <trkpt lat="44.38674" lon="5.52741">
        <ele>868.9</ele>
        <time>2023-03-20T09:42:51Z</time>
      </trkpt>
      <trkpt lat="44.38677" lon="5.52741">
        <ele>869</ele>
        <time>2023-03-20T09:42:52Z</time>
      </trkpt>
      <trkpt lat="44.3868" lon="5.52742">
        <ele>869.2</ele>
        <time>2023-03-20T09:42:53Z</time>
      </trkpt>
      <trkpt lat="44.38684" lon="5.52744">
        <ele>869.4</ele>
        <time>2023-03-20T09:42:54Z</time>
      </trkpt>
      <trkpt lat="44.38685" lon="5.52744">
        <ele>869.5</ele>
        <time>2023-03-20T09:42:55Z</time>
      </trkpt>
      <trkpt lat="44.38688" lon="5.52745">
        <ele>869.6</ele>
        <time>2023-03-20T09:42:56Z</time>
      </trkpt>
      <trkpt lat="44.38692" lon="5.52747">
        <ele>869.8</ele>
        <time>2023-03-20T09:42:57Z</time>
      </trkpt>
      <trkpt lat="44.38693" lon="5.52747">
        <ele>869.9</ele>
        <time>2023-03-20T09:42:58Z</time>
      </trkpt>
      <trkpt lat="44.38696" lon="5.52748">
        <ele>870</ele>
        <time>2023-03-20T09:42:59Z</time>
      </trkpt>
      <trkpt lat="44.38699" lon="5.52749">
        <ele>870.1</ele>
        <time>2023-03-20T09:43:00Z</time>
      </trkpt>
      <trkpt lat="44.38702" lon="5.52749">
        <ele>870.3</ele>
        <time>2023-03-20T09:43:01Z</time>
      </trkpt>
      <trkpt lat="44.38705" lon="5.5275">
        <ele>870.4</ele>
        <time>2023-03-20T09:43:02Z</time>
      </trkpt>
      <trkpt lat="44.38708" lon="5.52751">
        <ele>870.5</ele>
        <time>2023-03-20T09:43:03Z</time>
      </trkpt>
      <trkpt lat="44.3871" lon="5.52751">
        <ele>870.7</ele>
        <time>2023-03-20T09:43:04Z</time>
      </trkpt>
      <trkpt lat="44.38713" lon="5.52752">
        <ele>870.8</ele>
        <time>2023-03-20T09:43:05Z</time>
      </trkpt>
      <trkpt lat="44.38716" lon="5.52752">
        <ele>870.9</ele>
        <time>2023-03-20T09:43:06Z</time>
      </trkpt>
      <trkpt lat="44.38719" lon="5.52753">
        <ele>871.1</ele>
        <time>2023-03-20T09:43:07Z</time>
      </trkpt>
      <trkpt lat="44.38722" lon="5.52753">
        <ele>871.2</ele>
        <time>2023-03-20T09:43:08Z</time>
      </trkpt>
      <trkpt lat="44.38726" lon="5.52753">
        <ele>871.4</ele>
        <time>2023-03-20T09:43:09Z</time>
      </trkpt>
      <trkpt lat="44.38727" lon="5.52753">
        <ele>871.5</ele>
        <time>2023-03-20T09:43:10Z</time>
      </trkpt>
      <trkpt lat="44.3873" lon="5.52753">
        <ele>871.6</ele>
        <time>2023-03-20T09:43:11Z</time>
      </trkpt>
      <trkpt lat="44.38733" lon="5.52753">
        <ele>871.8</ele>
        <time>2023-03-20T09:43:12Z</time>
      </trkpt>
      <trkpt lat="44.38735" lon="5.52753">
        <ele>871.9</ele>
        <time>2023-03-20T09:43:13Z</time>
      </trkpt>
      <trkpt lat="44.38738" lon="5.52753">
        <ele>872</ele>
        <time>2023-03-20T09:43:14Z</time>
      </trkpt>
      <trkpt lat="44.38741" lon="5.52753">
        <ele>872.2</ele>
        <time>2023-03-20T09:43:15Z</time>
      </trkpt>
      <trkpt lat="44.38745" lon="5.52753">
        <ele>872.4</ele>
        <time>2023-03-20T09:43:16Z</time>
      </trkpt>
      <trkpt lat="44.38746" lon="5.52753">
        <ele>872.5</ele>
        <time>2023-03-20T09:43:17Z</time>
      </trkpt>
      <trkpt lat="44.3875" lon="5.52754">
        <ele>872.7</ele>
        <time>2023-03-20T09:43:18Z</time>
      </trkpt>
      <trkpt lat="44.38752" lon="5.52754">
        <ele>872.8</ele>
        <time>2023-03-20T09:43:19Z</time>
      </trkpt>
      <trkpt lat="44.38756" lon="5.52754">
        <ele>873</ele>
        <time>2023-03-20T09:43:20Z</time>
      </trkpt>
      <trkpt lat="44.38757" lon="5.52754">
        <ele>873</ele>
        <time>2023-03-20T09:43:21Z</time>
      </trkpt>
      <trkpt lat="44.38761" lon="5.52754">
        <ele>873.2</ele>
        <time>2023-03-20T09:43:22Z</time>
      </trkpt>
      <trkpt lat="44.38762" lon="5.52754">
        <ele>873.3</ele>
        <time>2023-03-20T09:43:23Z</time>
      </trkpt>
      <trkpt lat="44.38765" lon="5.52754">
        <ele>873.5</ele>
        <time>2023-03-20T09:43:24Z</time>
      </trkpt>
      <trkpt lat="44.38768" lon="5.52754">
        <ele>873.6</ele>
        <time>2023-03-20T09:43:25Z</time>
      </trkpt>
      <trkpt lat="44.38771" lon="5.52754">
        <ele>873.8</ele>
        <time>2023-03-20T09:43:26Z</time>
      </trkpt>
      <trkpt lat="44.38774" lon="5.52754">
        <ele>874</ele>
        <time>2023-03-20T09:43:27Z</time>
      </trkpt>
      <trkpt lat="44.38777" lon="5.52754">
        <ele>874.2</ele>
        <time>2023-03-20T09:43:28Z</time>
      </trkpt>
      <trkpt lat="44.38781" lon="5.52754">
        <ele>874.4</ele>
        <time>2023-03-20T09:43:29Z</time>
      </trkpt>
      <trkpt lat="44.38784" lon="5.52754">
        <ele>874.6</ele>
        <time>2023-03-20T09:43:30Z</time>
      </trkpt>
      <trkpt lat="44.38787" lon="5.52754">
        <ele>874.8</ele>
        <time>2023-03-20T09:43:31Z</time>
      </trkpt>
      <trkpt lat="44.3879" lon="5.52754">
        <ele>875</ele>
        <time>2023-03-20T09:43:32Z</time>
      </trkpt>
      <trkpt lat="44.38793" lon="5.52754">
        <ele>875.2</ele>
        <time>2023-03-20T09:43:33Z</time>
      </trkpt>
      <trkpt lat="44.38796" lon="5.52755">
        <ele>875.4</ele>
        <time>2023-03-20T09:43:34Z</time>
      </trkpt>
      <trkpt lat="44.38799" lon="5.52755">
        <ele>875.6</ele>
        <time>2023-03-20T09:43:35Z</time>
      </trkpt>
      <trkpt lat="44.38802" lon="5.52756">
        <ele>875.8</ele>
        <time>2023-03-20T09:43:36Z</time>
      </trkpt>
      <trkpt lat="44.38806" lon="5.52757">
        <ele>876</ele>
        <time>2023-03-20T09:43:37Z</time>
      </trkpt>
      <trkpt lat="44.38809" lon="5.52757">
        <ele>876.2</ele>
        <time>2023-03-20T09:43:38Z</time>
      </trkpt>
      <trkpt lat="44.38812" lon="5.52758">
        <ele>876.5</ele>
        <time>2023-03-20T09:43:39Z</time>
      </trkpt>
      <trkpt lat="44.38815" lon="5.52759">
        <ele>876.6</ele>
        <time>2023-03-20T09:43:40Z</time>
      </trkpt>
      <trkpt lat="44.38818" lon="5.5276">
        <ele>876.8</ele>
        <time>2023-03-20T09:43:41Z</time>
      </trkpt>
      <trkpt lat="44.3882" lon="5.52761">
        <ele>877</ele>
        <time>2023-03-20T09:43:42Z</time>
      </trkpt>
      <trkpt lat="44.38823" lon="5.52762">
        <ele>877.3</ele>
        <time>2023-03-20T09:43:43Z</time>
      </trkpt>
      <trkpt lat="44.38826" lon="5.52762">
        <ele>877.5</ele>
        <time>2023-03-20T09:43:44Z</time>
      </trkpt>
      <trkpt lat="44.38829" lon="5.52763">
        <ele>877.7</ele>
        <time>2023-03-20T09:43:45Z</time>
      </trkpt>
      <trkpt lat="44.38833" lon="5.52764">
        <ele>878</ele>
        <time>2023-03-20T09:43:46Z</time>
      </trkpt>
      <trkpt lat="44.38836" lon="5.52765">
        <ele>878.2</ele>
        <time>2023-03-20T09:43:47Z</time>
      </trkpt>
      <trkpt lat="44.38839" lon="5.52765">
        <ele>878.4</ele>
        <time>2023-03-20T09:43:48Z</time>
      </trkpt>
      <trkpt lat="44.38842" lon="5.52767">
        <ele>878.7</ele>
        <time>2023-03-20T09:43:49Z</time>
      </trkpt>
      <trkpt lat="44.38844" lon="5.52768">
        <ele>878.9</ele>
        <time>2023-03-20T09:43:50Z</time>
      </trkpt>
      <trkpt lat="44.38848" lon="5.52769">
        <ele>879.2</ele>
        <time>2023-03-20T09:43:51Z</time>
      </trkpt>
      <trkpt lat="44.3885" lon="5.52769">
        <ele>879.3</ele>
        <time>2023-03-20T09:43:52Z</time>
      </trkpt>
      <trkpt lat="44.38853" lon="5.5277">
        <ele>879.5</ele>
        <time>2023-03-20T09:43:53Z</time>
      </trkpt>
      <trkpt lat="44.38857" lon="5.52771">
        <ele>879.7</ele>
        <time>2023-03-20T09:43:54Z</time>
      </trkpt>
      <trkpt lat="44.38858" lon="5.52771">
        <ele>879.8</ele>
        <time>2023-03-20T09:43:55Z</time>
      </trkpt>
      <trkpt lat="44.38861" lon="5.52772">
        <ele>880</ele>
        <time>2023-03-20T09:43:56Z</time>
      </trkpt>
      <trkpt lat="44.38864" lon="5.52773">
        <ele>880.1</ele>
        <time>2023-03-20T09:43:57Z</time>
      </trkpt>
      <trkpt lat="44.38867" lon="5.52773">
        <ele>880.3</ele>
        <time>2023-03-20T09:43:58Z</time>
      </trkpt>
      <trkpt lat="44.3887" lon="5.52774">
        <ele>880.4</ele>
        <time>2023-03-20T09:43:59Z</time>
      </trkpt>
      <trkpt lat="44.38872" lon="5.52774">
        <ele>880.6</ele>
        <time>2023-03-20T09:44:00Z</time>
      </trkpt>
      <trkpt lat="44.38875" lon="5.52775">
        <ele>880.7</ele>
        <time>2023-03-20T09:44:01Z</time>
      </trkpt>
      <trkpt lat="44.38878" lon="5.52776">
        <ele>880.9</ele>
        <time>2023-03-20T09:44:02Z</time>
      </trkpt>
      <trkpt lat="44.38881" lon="5.52776">
        <ele>881</ele>
        <time>2023-03-20T09:44:03Z</time>
      </trkpt>
      <trkpt lat="44.38885" lon="5.52777">
        <ele>881.2</ele>
        <time>2023-03-20T09:44:04Z</time>
      </trkpt>
      <trkpt lat="44.38886" lon="5.52778">
        <ele>881.3</ele>
        <time>2023-03-20T09:44:05Z</time>
      </trkpt>
      <trkpt lat="44.38889" lon="5.52778">
        <ele>881.4</ele>
        <time>2023-03-20T09:44:06Z</time>
      </trkpt>
      <trkpt lat="44.38892" lon="5.52779">
        <ele>881.6</ele>
        <time>2023-03-20T09:44:07Z</time>
      </trkpt>
      <trkpt lat="44.38895" lon="5.5278">
        <ele>881.7</ele>
        <time>2023-03-20T09:44:08Z</time>
      </trkpt>
      <trkpt lat="44.38898" lon="5.52781">
        <ele>881.9</ele>
        <time>2023-03-20T09:44:09Z</time>
      </trkpt>
      <trkpt lat="44.38901" lon="5.52782">
        <ele>882</ele>
        <time>2023-03-20T09:44:10Z</time>
      </trkpt>
      <trkpt lat="44.38904" lon="5.52782">
        <ele>882.2</ele>
        <time>2023-03-20T09:44:11Z</time>
      </trkpt>
      <trkpt lat="44.38907" lon="5.52783">
        <ele>882.3</ele>
        <time>2023-03-20T09:44:12Z</time>
      </trkpt>
      <trkpt lat="44.3891" lon="5.52783">
        <ele>882.4</ele>
        <time>2023-03-20T09:44:13Z</time>
      </trkpt>
      <trkpt lat="44.38912" lon="5.52784">
        <ele>882.5</ele>
        <time>2023-03-20T09:44:14Z</time>
      </trkpt>
      <trkpt lat="44.38916" lon="5.52785">
        <ele>882.7</ele>
        <time>2023-03-20T09:44:15Z</time>
      </trkpt>
      <trkpt lat="44.38918" lon="5.52786">
        <ele>882.7</ele>
        <time>2023-03-20T09:44:16Z</time>
      </trkpt>
      <trkpt lat="44.38922" lon="5.52787">
        <ele>882.8</ele>
        <time>2023-03-20T09:44:17Z</time>
      </trkpt>
      <trkpt lat="44.38923" lon="5.52787">
        <ele>882.9</ele>
        <time>2023-03-20T09:44:18Z</time>
      </trkpt>
      <trkpt lat="44.38925" lon="5.52786">
        <ele>882.9</ele>
        <time>2023-03-20T09:44:19Z</time>
      </trkpt>
      <trkpt lat="44.38926" lon="5.52786">
        <ele>882.9</ele>
        <time>2023-03-20T09:44:20Z</time>
      </trkpt>
      <trkpt lat="44.38928" lon="5.52787">
        <ele>882.9</ele>
        <time>2023-03-20T09:44:21Z</time>
      </trkpt>
      <trkpt lat="44.38928" lon="5.52787">
        <ele>883</ele>
        <time>2023-03-20T09:44:22Z</time>
      </trkpt>
      <trkpt lat="44.38929" lon="5.52787">
        <ele>883</ele>
        <time>2023-03-20T09:44:23Z</time>
      </trkpt>
      <trkpt lat="44.3893" lon="5.52788">
        <ele>883</ele>
        <time>2023-03-20T09:44:24Z</time>
      </trkpt>
      <trkpt lat="44.3893" lon="5.52788">
        <ele>883</ele>
        <time>2023-03-20T09:44:25Z</time>
      </trkpt>
      <trkpt lat="44.38931" lon="5.52788">
        <ele>883</ele>
        <time>2023-03-20T09:44:26Z</time>
      </trkpt>
      <trkpt lat="44.38932" lon="5.52788">
        <ele>883</ele>
        <time>2023-03-20T09:44:27Z</time>
      </trkpt>
      <trkpt lat="44.38932" lon="5.52789">
        <ele>883</ele>
        <time>2023-03-20T09:44:28Z</time>
      </trkpt>
      <trkpt lat="44.38933" lon="5.52789">
        <ele>883</ele>
        <time>2023-03-20T09:44:29Z</time>
      </trkpt>
      <trkpt lat="44.38934" lon="5.52789">
        <ele>883</ele>
        <time>2023-03-20T09:44:30Z</time>
      </trkpt>
      <trkpt lat="44.38934" lon="5.52789">
        <ele>883</ele>
        <time>2023-03-20T09:44:31Z</time>
      </trkpt>
      <trkpt lat="44.38935" lon="5.5279">
        <ele>883.1</ele>
        <time>2023-03-20T09:44:32Z</time>
      </trkpt>
      <trkpt lat="44.38935" lon="5.5279">
        <ele>883.1</ele>
        <time>2023-03-20T09:45:17Z</time>
      </trkpt>
      <trkpt lat="44.38936" lon="5.5279">
        <ele>883.1</ele>
        <time>2023-03-20T09:45:18Z</time>
      </trkpt>
      <trkpt lat="44.38937" lon="5.5279">
        <ele>883.1</ele>
        <time>2023-03-20T09:45:19Z</time>
      </trkpt>
      <trkpt lat="44.3894" lon="5.52791">
        <ele>883.1</ele>
        <time>2023-03-20T09:45:20Z</time>
      </trkpt>
      <trkpt lat="44.38943" lon="5.52792">
        <ele>883.1</ele>
        <time>2023-03-20T09:45:21Z</time>
      </trkpt>
      <trkpt lat="44.38947" lon="5.52793">
        <ele>883.1</ele>
        <time>2023-03-20T09:45:22Z</time>
      </trkpt>
      <trkpt lat="44.3895" lon="5.52793">
        <ele>883.1</ele>
        <time>2023-03-20T09:45:23Z</time>
      </trkpt>
      <trkpt lat="44.38953" lon="5.52794">
        <ele>883.1</ele>
        <time>2023-03-20T09:45:24Z</time>
      </trkpt>
      <trkpt lat="44.38957" lon="5.52795">
        <ele>883.1</ele>
        <time>2023-03-20T09:45:25Z</time>
      </trkpt>
      <trkpt lat="44.38961" lon="5.52796">
        <ele>883</ele>
        <time>2023-03-20T09:45:26Z</time>
      </trkpt>
      <trkpt lat="44.38965" lon="5.52797">
        <ele>882.9</ele>
        <time>2023-03-20T09:45:27Z</time>
      </trkpt>
      <trkpt lat="44.38969" lon="5.52798">
        <ele>882.8</ele>
        <time>2023-03-20T09:45:28Z</time>
      </trkpt>
      <trkpt lat="44.38974" lon="5.52799">
        <ele>882.6</ele>
        <time>2023-03-20T09:45:29Z</time>
      </trkpt>
      <trkpt lat="44.38978" lon="5.52799">
        <ele>882.4</ele>
        <time>2023-03-20T09:45:30Z</time>
      </trkpt>
      <trkpt lat="44.38982" lon="5.52801">
        <ele>882.2</ele>
        <time>2023-03-20T09:45:31Z</time>
      </trkpt>
      <trkpt lat="44.38985" lon="5.52802">
        <ele>882.1</ele>
        <time>2023-03-20T09:45:32Z</time>
      </trkpt>
      <trkpt lat="44.38988" lon="5.52802">
        <ele>881.9</ele>
        <time>2023-03-20T09:45:33Z</time>
      </trkpt>
      <trkpt lat="44.38991" lon="5.52801">
        <ele>881.8</ele>
        <time>2023-03-20T09:45:34Z</time>
      </trkpt>
      <trkpt lat="44.38995" lon="5.528">
        <ele>881.6</ele>
        <time>2023-03-20T09:45:35Z</time>
      </trkpt>
      <trkpt lat="44.38998" lon="5.528">
        <ele>881.5</ele>
        <time>2023-03-20T09:45:36Z</time>
      </trkpt>
      <trkpt lat="44.39002" lon="5.528">
        <ele>881.4</ele>
        <time>2023-03-20T09:45:37Z</time>
      </trkpt>
      <trkpt lat="44.39007" lon="5.52801">
        <ele>881.2</ele>
        <time>2023-03-20T09:45:38Z</time>
      </trkpt>
      <trkpt lat="44.39011" lon="5.52801">
        <ele>881.1</ele>
        <time>2023-03-20T09:45:39Z</time>
      </trkpt>
      <trkpt lat="44.39015" lon="5.52803">
        <ele>880.9</ele>
        <time>2023-03-20T09:45:40Z</time>
      </trkpt>
      <trkpt lat="44.39019" lon="5.52806">
        <ele>880.7</ele>
        <time>2023-03-20T09:45:41Z</time>
      </trkpt>
      <trkpt lat="44.39024" lon="5.52808">
        <ele>880.5</ele>
        <time>2023-03-20T09:45:42Z</time>
      </trkpt>
      <trkpt lat="44.39028" lon="5.5281">
        <ele>880.2</ele>
        <time>2023-03-20T09:45:43Z</time>
      </trkpt>
      <trkpt lat="44.39033" lon="5.5281">
        <ele>880</ele>
        <time>2023-03-20T09:45:44Z</time>
      </trkpt>
      <trkpt lat="44.39037" lon="5.5281">
        <ele>879.7</ele>
        <time>2023-03-20T09:45:45Z</time>
      </trkpt>
      <trkpt lat="44.39043" lon="5.5281">
        <ele>879.4</ele>
        <time>2023-03-20T09:45:46Z</time>
      </trkpt>
      <trkpt lat="44.39048" lon="5.52811">
        <ele>879.1</ele>
        <time>2023-03-20T09:45:47Z</time>
      </trkpt>
      <trkpt lat="44.39053" lon="5.52812">
        <ele>878.8</ele>
        <time>2023-03-20T09:45:48Z</time>
      </trkpt>
      <trkpt lat="44.39058" lon="5.52814">
        <ele>878.5</ele>
        <time>2023-03-20T09:45:49Z</time>
      </trkpt>
      <trkpt lat="44.39063" lon="5.52814">
        <ele>878.2</ele>
        <time>2023-03-20T09:45:50Z</time>
      </trkpt>
      <trkpt lat="44.39069" lon="5.52814">
        <ele>877.9</ele>
        <time>2023-03-20T09:45:51Z</time>
      </trkpt>
      <trkpt lat="44.39075" lon="5.52813">
        <ele>877.6</ele>
        <time>2023-03-20T09:45:52Z</time>
      </trkpt>
      <trkpt lat="44.39081" lon="5.52812">
        <ele>877.3</ele>
        <time>2023-03-20T09:45:53Z</time>
      </trkpt>
      <trkpt lat="44.39088" lon="5.52811">
        <ele>877</ele>
        <time>2023-03-20T09:45:54Z</time>
      </trkpt>
      <trkpt lat="44.39094" lon="5.5281">
        <ele>876.8</ele>
        <time>2023-03-20T09:45:55Z</time>
      </trkpt>
      <trkpt lat="44.391" lon="5.52808">
        <ele>876.5</ele>
        <time>2023-03-20T09:45:56Z</time>
      </trkpt>
      <trkpt lat="44.39106" lon="5.52806">
        <ele>876.3</ele>
        <time>2023-03-20T09:45:57Z</time>
      </trkpt>
      <trkpt lat="44.39112" lon="5.52804">
        <ele>876.1</ele>
        <time>2023-03-20T09:45:58Z</time>
      </trkpt>
      <trkpt lat="44.39118" lon="5.52801">
        <ele>875.9</ele>
        <time>2023-03-20T09:45:59Z</time>
      </trkpt>
      <trkpt lat="44.39125" lon="5.52798">
        <ele>875.7</ele>
        <time>2023-03-20T09:46:00Z</time>
      </trkpt>
      <trkpt lat="44.3913" lon="5.52795">
        <ele>875.5</ele>
        <time>2023-03-20T09:46:01Z</time>
      </trkpt>
      <trkpt lat="44.39137" lon="5.52792">
        <ele>875.3</ele>
        <time>2023-03-20T09:46:02Z</time>
      </trkpt>
      <trkpt lat="44.39144" lon="5.52791">
        <ele>875.2</ele>
        <time>2023-03-20T09:46:03Z</time>
      </trkpt>
      <trkpt lat="44.3915" lon="5.5279">
        <ele>875.2</ele>
        <time>2023-03-20T09:46:04Z</time>
      </trkpt>
      <trkpt lat="44.39157" lon="5.52792">
        <ele>875.2</ele>
        <time>2023-03-20T09:46:05Z</time>
      </trkpt>
      <trkpt lat="44.39163" lon="5.52796">
        <ele>875.2</ele>
        <time>2023-03-20T09:46:06Z</time>
      </trkpt>
      <trkpt lat="44.39168" lon="5.528">
        <ele>875.2</ele>
        <time>2023-03-20T09:46:07Z</time>
      </trkpt>
      <trkpt lat="44.39173" lon="5.52806">
        <ele>875.2</ele>
        <time>2023-03-20T09:46:08Z</time>
      </trkpt>
      <trkpt lat="44.39176" lon="5.52812">
        <ele>875.3</ele>
        <time>2023-03-20T09:46:09Z</time>
      </trkpt>
      <trkpt lat="44.39179" lon="5.52819">
        <ele>875.5</ele>
        <time>2023-03-20T09:46:10Z</time>
      </trkpt>
      <trkpt lat="44.39182" lon="5.52826">
        <ele>875.7</ele>
        <time>2023-03-20T09:46:11Z</time>
      </trkpt>
      <trkpt lat="44.39184" lon="5.52832">
        <ele>875.9</ele>
        <time>2023-03-20T09:46:12Z</time>
      </trkpt>
      <trkpt lat="44.39187" lon="5.52839">
        <ele>876.2</ele>
        <time>2023-03-20T09:46:13Z</time>
      </trkpt>
      <trkpt lat="44.39189" lon="5.52846">
        <ele>876.5</ele>
        <time>2023-03-20T09:46:14Z</time>
      </trkpt>
      <trkpt lat="44.39191" lon="5.52852">
        <ele>876.8</ele>
        <time>2023-03-20T09:46:15Z</time>
      </trkpt>
      <trkpt lat="44.39192" lon="5.52858">
        <ele>877</ele>
        <time>2023-03-20T09:46:16Z</time>
      </trkpt>
      <trkpt lat="44.39193" lon="5.52864">
        <ele>877.4</ele>
        <time>2023-03-20T09:46:17Z</time>
      </trkpt>
      <trkpt lat="44.39194" lon="5.5287">
        <ele>877.7</ele>
        <time>2023-03-20T09:46:18Z</time>
      </trkpt>
      <trkpt lat="44.39195" lon="5.52876">
        <ele>878.1</ele>
        <time>2023-03-20T09:46:19Z</time>
      </trkpt>
      <trkpt lat="44.39196" lon="5.52882">
        <ele>878.5</ele>
        <time>2023-03-20T09:46:20Z</time>
      </trkpt>
      <trkpt lat="44.39197" lon="5.52888">
        <ele>878.9</ele>
        <time>2023-03-20T09:46:21Z</time>
      </trkpt>
      <trkpt lat="44.39199" lon="5.52894">
        <ele>879.3</ele>
        <time>2023-03-20T09:46:22Z</time>
      </trkpt>
      <trkpt lat="44.39201" lon="5.52899">
        <ele>879.7</ele>
        <time>2023-03-20T09:46:23Z</time>
      </trkpt>
      <trkpt lat="44.39205" lon="5.52903">
        <ele>880.1</ele>
        <time>2023-03-20T09:46:24Z</time>
      </trkpt>
      <trkpt lat="44.3921" lon="5.52905">
        <ele>880.6</ele>
        <time>2023-03-20T09:46:25Z</time>
      </trkpt>
      <trkpt lat="44.39214" lon="5.52907">
        <ele>881</ele>
        <time>2023-03-20T09:46:26Z</time>
      </trkpt>
      <trkpt lat="44.39219" lon="5.52909">
        <ele>881.3</ele>
        <time>2023-03-20T09:46:27Z</time>
      </trkpt>
      <trkpt lat="44.39224" lon="5.52911">
        <ele>881.6</ele>
        <time>2023-03-20T09:46:28Z</time>
      </trkpt>
      <trkpt lat="44.39228" lon="5.52912">
        <ele>881.8</ele>
        <time>2023-03-20T09:46:29Z</time>
      </trkpt>
      <trkpt lat="44.39232" lon="5.52913">
        <ele>882</ele>
        <time>2023-03-20T09:46:30Z</time>
      </trkpt>
      <trkpt lat="44.39236" lon="5.52914">
        <ele>882.1</ele>
        <time>2023-03-20T09:46:31Z</time>
      </trkpt>
      <trkpt lat="44.39241" lon="5.52915">
        <ele>882.2</ele>
        <time>2023-03-20T09:46:32Z</time>
      </trkpt>
      <trkpt lat="44.39245" lon="5.52916">
        <ele>882.3</ele>
        <time>2023-03-20T09:46:33Z</time>
      </trkpt>
      <trkpt lat="44.39249" lon="5.52917">
        <ele>882.4</ele>
        <time>2023-03-20T09:46:34Z</time>
      </trkpt>
      <trkpt lat="44.39254" lon="5.52918">
        <ele>882.4</ele>
        <time>2023-03-20T09:46:35Z</time>
      </trkpt>
      <trkpt lat="44.39259" lon="5.52919">
        <ele>882.4</ele>
        <time>2023-03-20T09:46:36Z</time>
      </trkpt>
      <trkpt lat="44.39264" lon="5.5292">
        <ele>882.3</ele>
        <time>2023-03-20T09:46:37Z</time>
      </trkpt>
      <trkpt lat="44.39269" lon="5.52921">
        <ele>882.2</ele>
        <time>2023-03-20T09:46:38Z</time>
      </trkpt>
      <trkpt lat="44.39275" lon="5.52921">
        <ele>882</ele>
        <time>2023-03-20T09:46:39Z</time>
      </trkpt>
      <trkpt lat="44.39281" lon="5.52922">
        <ele>881.8</ele>
        <time>2023-03-20T09:46:40Z</time>
      </trkpt>
      <trkpt lat="44.39286" lon="5.52923">
        <ele>881.6</ele>
        <time>2023-03-20T09:46:41Z</time>
      </trkpt>
      <trkpt lat="44.39292" lon="5.52925">
        <ele>881.4</ele>
        <time>2023-03-20T09:46:42Z</time>
      </trkpt>
      <trkpt lat="44.39298" lon="5.52926">
        <ele>881.1</ele>
        <time>2023-03-20T09:46:43Z</time>
      </trkpt>
      <trkpt lat="44.39304" lon="5.52928">
        <ele>880.9</ele>
        <time>2023-03-20T09:46:44Z</time>
      </trkpt>
      <trkpt lat="44.3931" lon="5.52929">
        <ele>880.7</ele>
        <time>2023-03-20T09:46:45Z</time>
      </trkpt>
      <trkpt lat="44.39316" lon="5.52931">
        <ele>880.5</ele>
        <time>2023-03-20T09:46:46Z</time>
      </trkpt>
      <trkpt lat="44.39323" lon="5.52933">
        <ele>880.3</ele>
        <time>2023-03-20T09:46:47Z</time>
      </trkpt>
      <trkpt lat="44.39329" lon="5.52936">
        <ele>880.1</ele>
        <time>2023-03-20T09:46:48Z</time>
      </trkpt>
      <trkpt lat="44.39336" lon="5.52939">
        <ele>879.9</ele>
        <time>2023-03-20T09:46:49Z</time>
      </trkpt>
      <trkpt lat="44.39342" lon="5.52943">
        <ele>879.6</ele>
        <time>2023-03-20T09:46:50Z</time>
      </trkpt>
      <trkpt lat="44.39348" lon="5.52948">
        <ele>879.3</ele>
        <time>2023-03-20T09:46:51Z</time>
      </trkpt>
      <trkpt lat="44.39354" lon="5.52953">
        <ele>879</ele>
        <time>2023-03-20T09:46:52Z</time>
      </trkpt>
      <trkpt lat="44.3936" lon="5.52958">
        <ele>878.7</ele>
        <time>2023-03-20T09:46:53Z</time>
      </trkpt>
      <trkpt lat="44.39365" lon="5.52964">
        <ele>878.4</ele>
        <time>2023-03-20T09:46:54Z</time>
      </trkpt>
      <trkpt lat="44.3937" lon="5.52971">
        <ele>877.9</ele>
        <time>2023-03-20T09:46:55Z</time>
      </trkpt>
      <trkpt lat="44.39376" lon="5.52978">
        <ele>877.5</ele>
        <time>2023-03-20T09:46:56Z</time>
      </trkpt>
      <trkpt lat="44.39382" lon="5.52985">
        <ele>877</ele>
        <time>2023-03-20T09:46:57Z</time>
      </trkpt>
      <trkpt lat="44.39388" lon="5.52991">
        <ele>876.4</ele>
        <time>2023-03-20T09:46:58Z</time>
      </trkpt>
      <trkpt lat="44.39395" lon="5.52996">
        <ele>875.8</ele>
        <time>2023-03-20T09:46:59Z</time>
      </trkpt>
      <trkpt lat="44.39402" lon="5.53001">
        <ele>875.3</ele>
        <time>2023-03-20T09:47:00Z</time>
      </trkpt>
      <trkpt lat="44.3941" lon="5.53004">
        <ele>874.7</ele>
        <time>2023-03-20T09:47:01Z</time>
      </trkpt>
      <trkpt lat="44.39419" lon="5.53008">
        <ele>874.1</ele>
        <time>2023-03-20T09:47:02Z</time>
      </trkpt>
      <trkpt lat="44.39427" lon="5.53011">
        <ele>873.5</ele>
        <time>2023-03-20T09:47:03Z</time>
      </trkpt>
      <trkpt lat="44.39436" lon="5.53015">
        <ele>872.9</ele>
        <time>2023-03-20T09:47:04Z</time>
      </trkpt>
      <trkpt lat="44.39444" lon="5.53019">
        <ele>872.3</ele>
        <time>2023-03-20T09:47:05Z</time>
      </trkpt>
      <trkpt lat="44.39452" lon="5.53024">
        <ele>871.7</ele>
        <time>2023-03-20T09:47:06Z</time>
      </trkpt>
      <trkpt lat="44.39461" lon="5.53029">
        <ele>871.1</ele>
        <time>2023-03-20T09:47:07Z</time>
      </trkpt>
      <trkpt lat="44.3947" lon="5.53033">
        <ele>870.6</ele>
        <time>2023-03-20T09:47:08Z</time>
      </trkpt>
      <trkpt lat="44.3948" lon="5.53035">
        <ele>870.1</ele>
        <time>2023-03-20T09:47:09Z</time>
      </trkpt>
      <trkpt lat="44.39489" lon="5.53037">
        <ele>869.6</ele>
        <time>2023-03-20T09:47:10Z</time>
      </trkpt>
      <trkpt lat="44.39498" lon="5.53041">
        <ele>869</ele>
        <time>2023-03-20T09:47:11Z</time>
      </trkpt>
      <trkpt lat="44.39506" lon="5.53048">
        <ele>868.5</ele>
        <time>2023-03-20T09:47:12Z</time>
      </trkpt>
      <trkpt lat="44.39513" lon="5.53057">
        <ele>867.9</ele>
        <time>2023-03-20T09:47:13Z</time>
      </trkpt>
      <trkpt lat="44.39519" lon="5.53067">
        <ele>867.3</ele>
        <time>2023-03-20T09:47:14Z</time>
      </trkpt>
      <trkpt lat="44.39525" lon="5.53075">
        <ele>866.7</ele>
        <time>2023-03-20T09:47:15Z</time>
      </trkpt>
      <trkpt lat="44.39532" lon="5.53081">
        <ele>866</ele>
        <time>2023-03-20T09:47:16Z</time>
      </trkpt>
      <trkpt lat="44.3954" lon="5.53082">
        <ele>865.3</ele>
        <time>2023-03-20T09:47:17Z</time>
      </trkpt>
      <trkpt lat="44.39549" lon="5.53079">
        <ele>864.7</ele>
        <time>2023-03-20T09:47:18Z</time>
      </trkpt>
      <trkpt lat="44.39556" lon="5.53072">
        <ele>864.1</ele>
        <time>2023-03-20T09:47:19Z</time>
      </trkpt>
      <trkpt lat="44.39562" lon="5.53062">
        <ele>863.4</ele>
        <time>2023-03-20T09:47:20Z</time>
      </trkpt>
      <trkpt lat="44.39566" lon="5.5305">
        <ele>862.8</ele>
        <time>2023-03-20T09:47:21Z</time>
      </trkpt>
      <trkpt lat="44.3957" lon="5.53038">
        <ele>862.2</ele>
        <time>2023-03-20T09:47:22Z</time>
      </trkpt>
      <trkpt lat="44.39573" lon="5.53027">
        <ele>861.7</ele>
        <time>2023-03-20T09:47:23Z</time>
      </trkpt>
      <trkpt lat="44.39576" lon="5.53016">
        <ele>861.1</ele>
        <time>2023-03-20T09:47:24Z</time>
      </trkpt>
      <trkpt lat="44.3958" lon="5.53006">
        <ele>860.6</ele>
        <time>2023-03-20T09:47:25Z</time>
      </trkpt>
      <trkpt lat="44.39586" lon="5.52996">
        <ele>860</ele>
        <time>2023-03-20T09:47:26Z</time>
      </trkpt>
      <trkpt lat="44.39592" lon="5.52986">
        <ele>859.5</ele>
        <time>2023-03-20T09:47:27Z</time>
      </trkpt>
      <trkpt lat="44.39599" lon="5.52978">
        <ele>858.9</ele>
        <time>2023-03-20T09:47:28Z</time>
      </trkpt>
      <trkpt lat="44.39607" lon="5.52973">
        <ele>858.4</ele>
        <time>2023-03-20T09:47:29Z</time>
      </trkpt>
      <trkpt lat="44.39616" lon="5.52972">
        <ele>857.8</ele>
        <time>2023-03-20T09:47:30Z</time>
      </trkpt>
      <trkpt lat="44.39625" lon="5.52975">
        <ele>857.1</ele>
        <time>2023-03-20T09:47:31Z</time>
      </trkpt>
      <trkpt lat="44.39636" lon="5.52978">
        <ele>856.3</ele>
        <time>2023-03-20T09:47:32Z</time>
      </trkpt>
      <trkpt lat="44.39646" lon="5.5298">
        <ele>855.6</ele>
        <time>2023-03-20T09:47:33Z</time>
      </trkpt>
      <trkpt lat="44.39657" lon="5.52983">
        <ele>854.9</ele>
        <time>2023-03-20T09:47:34Z</time>
      </trkpt>
      <trkpt lat="44.39667" lon="5.52984">
        <ele>854.3</ele>
        <time>2023-03-20T09:47:35Z</time>
      </trkpt>
      <trkpt lat="44.39677" lon="5.52986">
        <ele>853.6</ele>
        <time>2023-03-20T09:47:36Z</time>
      </trkpt>
      <trkpt lat="44.39686" lon="5.52988">
        <ele>852.9</ele>
        <time>2023-03-20T09:47:37Z</time>
      </trkpt>
      <trkpt lat="44.39694" lon="5.52994">
        <ele>852.2</ele>
        <time>2023-03-20T09:47:38Z</time>
      </trkpt>
      <trkpt lat="44.39701" lon="5.53004">
        <ele>851.5</ele>
        <time>2023-03-20T09:47:39Z</time>
      </trkpt>
      <trkpt lat="44.39706" lon="5.53017">
        <ele>850.7</ele>
        <time>2023-03-20T09:47:40Z</time>
      </trkpt>
      <trkpt lat="44.39712" lon="5.53029">
        <ele>850</ele>
        <time>2023-03-20T09:47:41Z</time>
      </trkpt>
      <trkpt lat="44.3972" lon="5.53038">
        <ele>849.3</ele>
        <time>2023-03-20T09:47:42Z</time>
      </trkpt>
      <trkpt lat="44.3973" lon="5.53042">
        <ele>848.6</ele>
        <time>2023-03-20T09:47:43Z</time>
      </trkpt>
      <trkpt lat="44.3974" lon="5.53043">
        <ele>847.9</ele>
        <time>2023-03-20T09:47:44Z</time>
      </trkpt>
      <trkpt lat="44.3975" lon="5.53043">
        <ele>847.3</ele>
        <time>2023-03-20T09:47:45Z</time>
      </trkpt>
      <trkpt lat="44.3976" lon="5.53044">
        <ele>846.7</ele>
        <time>2023-03-20T09:47:46Z</time>
      </trkpt>
      <trkpt lat="44.3977" lon="5.53047">
        <ele>846</ele>
        <time>2023-03-20T09:47:47Z</time>
      </trkpt>
      <trkpt lat="44.39779" lon="5.5305">
        <ele>845.4</ele>
        <time>2023-03-20T09:47:48Z</time>
      </trkpt>
      <trkpt lat="44.39788" lon="5.53054">
        <ele>844.8</ele>
        <time>2023-03-20T09:47:49Z</time>
      </trkpt>
      <trkpt lat="44.39797" lon="5.53058">
        <ele>844.2</ele>
        <time>2023-03-20T09:47:50Z</time>
      </trkpt>
      <trkpt lat="44.39806" lon="5.53063">
        <ele>843.6</ele>
        <time>2023-03-20T09:47:51Z</time>
      </trkpt>
      <trkpt lat="44.39815" lon="5.53067">
        <ele>842.9</ele>
        <time>2023-03-20T09:47:52Z</time>
      </trkpt>
      <trkpt lat="44.39824" lon="5.53069">
        <ele>842.3</ele>
        <time>2023-03-20T09:47:53Z</time>
      </trkpt>
      <trkpt lat="44.39832" lon="5.53067">
        <ele>841.7</ele>
        <time>2023-03-20T09:47:54Z</time>
      </trkpt>
      <trkpt lat="44.3984" lon="5.5306">
        <ele>841.1</ele>
        <time>2023-03-20T09:47:55Z</time>
      </trkpt>
      <trkpt lat="44.39845" lon="5.53049">
        <ele>840.5</ele>
        <time>2023-03-20T09:47:56Z</time>
      </trkpt>
      <trkpt lat="44.39849" lon="5.53038">
        <ele>839.9</ele>
        <time>2023-03-20T09:47:57Z</time>
      </trkpt>
      <trkpt lat="44.39854" lon="5.53026">
        <ele>839.2</ele>
        <time>2023-03-20T09:47:58Z</time>
      </trkpt>
      <trkpt lat="44.39858" lon="5.53015">
        <ele>838.5</ele>
        <time>2023-03-20T09:47:59Z</time>
      </trkpt>
      <trkpt lat="44.39862" lon="5.53004">
        <ele>837.9</ele>
        <time>2023-03-20T09:48:00Z</time>
      </trkpt>
      <trkpt lat="44.39867" lon="5.52994">
        <ele>837.4</ele>
        <time>2023-03-20T09:48:01Z</time>
      </trkpt>
      <trkpt lat="44.39874" lon="5.52986">
        <ele>836.8</ele>
        <time>2023-03-20T09:48:02Z</time>
      </trkpt>
      <trkpt lat="44.39882" lon="5.52982">
        <ele>836.3</ele>
        <time>2023-03-20T09:48:03Z</time>
      </trkpt>
      <trkpt lat="44.39892" lon="5.52982">
        <ele>835.7</ele>
        <time>2023-03-20T09:48:04Z</time>
      </trkpt>
      <trkpt lat="44.39901" lon="5.52985">
        <ele>835</ele>
        <time>2023-03-20T09:48:05Z</time>
      </trkpt>
      <trkpt lat="44.3991" lon="5.5299">
        <ele>834.5</ele>
        <time>2023-03-20T09:48:06Z</time>
      </trkpt>
      <trkpt lat="44.39919" lon="5.52994">
        <ele>833.8</ele>
        <time>2023-03-20T09:48:07Z</time>
      </trkpt>
      <trkpt lat="44.39929" lon="5.52996">
        <ele>833.1</ele>
        <time>2023-03-20T09:48:08Z</time>
      </trkpt>
      <trkpt lat="44.39939" lon="5.52996">
        <ele>832.5</ele>
        <time>2023-03-20T09:48:09Z</time>
      </trkpt>
      <trkpt lat="44.39948" lon="5.52995">
        <ele>831.9</ele>
        <time>2023-03-20T09:48:10Z</time>
      </trkpt>
      <trkpt lat="44.39958" lon="5.52995">
        <ele>831.3</ele>
        <time>2023-03-20T09:48:11Z</time>
      </trkpt>
      <trkpt lat="44.39968" lon="5.52996">
        <ele>830.7</ele>
        <time>2023-03-20T09:48:12Z</time>
      </trkpt>
      <trkpt lat="44.39977" lon="5.52998">
        <ele>830.1</ele>
        <time>2023-03-20T09:48:13Z</time>
      </trkpt>
      <trkpt lat="44.39986" lon="5.53002">
        <ele>829.4</ele>
        <time>2023-03-20T09:48:14Z</time>
      </trkpt>
      <trkpt lat="44.39995" lon="5.53006">
        <ele>828.7</ele>
        <time>2023-03-20T09:48:15Z</time>
      </trkpt>
      <trkpt lat="44.40004" lon="5.53005">
        <ele>828</ele>
        <time>2023-03-20T09:48:16Z</time>
      </trkpt>
      <trkpt lat="44.40012" lon="5.52998">
        <ele>827.3</ele>
        <time>2023-03-20T09:48:17Z</time>
      </trkpt>
      <trkpt lat="44.40019" lon="5.52989">
        <ele>826.7</ele>
        <time>2023-03-20T09:48:18Z</time>
      </trkpt>
      <trkpt lat="44.40027" lon="5.52983">
        <ele>826.1</ele>
        <time>2023-03-20T09:48:19Z</time>
      </trkpt>
      <trkpt lat="44.40034" lon="5.52982">
        <ele>825.6</ele>
        <time>2023-03-20T09:48:20Z</time>
      </trkpt>
      <trkpt lat="44.40044" lon="5.52985">
        <ele>824.9</ele>
        <time>2023-03-20T09:48:21Z</time>
      </trkpt>
      <trkpt lat="44.40054" lon="5.5299">
        <ele>824.2</ele>
        <time>2023-03-20T09:48:22Z</time>
      </trkpt>
      <trkpt lat="44.40062" lon="5.52993">
        <ele>823.5</ele>
        <time>2023-03-20T09:48:23Z</time>
      </trkpt>
      <trkpt lat="44.40071" lon="5.52992">
        <ele>822.8</ele>
        <time>2023-03-20T09:48:24Z</time>
      </trkpt>
      <trkpt lat="44.40079" lon="5.52986">
        <ele>822.1</ele>
        <time>2023-03-20T09:48:25Z</time>
      </trkpt>
      <trkpt lat="44.40087" lon="5.52978">
        <ele>821.4</ele>
        <time>2023-03-20T09:48:26Z</time>
      </trkpt>
      <trkpt lat="44.40094" lon="5.52967">
        <ele>820.6</ele>
        <time>2023-03-20T09:48:27Z</time>
      </trkpt>
      <trkpt lat="44.401" lon="5.52957">
        <ele>820</ele>
        <time>2023-03-20T09:48:28Z</time>
      </trkpt>
      <trkpt lat="44.40105" lon="5.52947">
        <ele>819.5</ele>
        <time>2023-03-20T09:48:29Z</time>
      </trkpt>
      <trkpt lat="44.4011" lon="5.52937">
        <ele>819</ele>
        <time>2023-03-20T09:48:30Z</time>
      </trkpt>
      <trkpt lat="44.40114" lon="5.52926">
        <ele>818.5</ele>
        <time>2023-03-20T09:48:31Z</time>
      </trkpt>
      <trkpt lat="44.40118" lon="5.52914">
        <ele>818.2</ele>
        <time>2023-03-20T09:48:32Z</time>
      </trkpt>
      <trkpt lat="44.40122" lon="5.52904">
        <ele>817.9</ele>
        <time>2023-03-20T09:48:33Z</time>
      </trkpt>
      <trkpt lat="44.40128" lon="5.52895">
        <ele>817.5</ele>
        <time>2023-03-20T09:48:34Z</time>
      </trkpt>
      <trkpt lat="44.40134" lon="5.52887">
        <ele>816.9</ele>
        <time>2023-03-20T09:48:35Z</time>
      </trkpt>
      <trkpt lat="44.40141" lon="5.52879">
        <ele>816.3</ele>
        <time>2023-03-20T09:48:36Z</time>
      </trkpt>
      <trkpt lat="44.40148" lon="5.52872">
        <ele>815.7</ele>
        <time>2023-03-20T09:48:37Z</time>
      </trkpt>
      <trkpt lat="44.40155" lon="5.52865">
        <ele>815.2</ele>
        <time>2023-03-20T09:48:38Z</time>
      </trkpt>
      <trkpt lat="44.40162" lon="5.52858">
        <ele>814.7</ele>
        <time>2023-03-20T09:48:39Z</time>
      </trkpt>
      <trkpt lat="44.40169" lon="5.52852">
        <ele>814.1</ele>
        <time>2023-03-20T09:48:40Z</time>
      </trkpt>
      <trkpt lat="44.40176" lon="5.52844">
        <ele>813.5</ele>
        <time>2023-03-20T09:48:41Z</time>
      </trkpt>
      <trkpt lat="44.40183" lon="5.52837">
        <ele>812.9</ele>
        <time>2023-03-20T09:48:42Z</time>
      </trkpt>
      <trkpt lat="44.40191" lon="5.52831">
        <ele>812.3</ele>
        <time>2023-03-20T09:48:43Z</time>
      </trkpt>
      <trkpt lat="44.40198" lon="5.52826">
        <ele>811.7</ele>
        <time>2023-03-20T09:48:44Z</time>
      </trkpt>
      <trkpt lat="44.40206" lon="5.52822">
        <ele>811</ele>
        <time>2023-03-20T09:48:45Z</time>
      </trkpt>
      <trkpt lat="44.40215" lon="5.52819">
        <ele>810.5</ele>
        <time>2023-03-20T09:48:46Z</time>
      </trkpt>
      <trkpt lat="44.40223" lon="5.52815">
        <ele>809.9</ele>
        <time>2023-03-20T09:48:47Z</time>
      </trkpt>
      <trkpt lat="44.4023" lon="5.52808">
        <ele>809.3</ele>
        <time>2023-03-20T09:48:48Z</time>
      </trkpt>
      <trkpt lat="44.40235" lon="5.52798">
        <ele>808.8</ele>
        <time>2023-03-20T09:48:49Z</time>
      </trkpt>
      <trkpt lat="44.40238" lon="5.52786">
        <ele>808.1</ele>
        <time>2023-03-20T09:48:50Z</time>
      </trkpt>
      <trkpt lat="44.40241" lon="5.52774">
        <ele>807.5</ele>
        <time>2023-03-20T09:48:51Z</time>
      </trkpt>
      <trkpt lat="44.40243" lon="5.52762">
        <ele>806.9</ele>
        <time>2023-03-20T09:48:52Z</time>
      </trkpt>
      <trkpt lat="44.40245" lon="5.5275">
        <ele>806.3</ele>
        <time>2023-03-20T09:48:53Z</time>
      </trkpt>
      <trkpt lat="44.40246" lon="5.5274">
        <ele>805.8</ele>
        <time>2023-03-20T09:48:54Z</time>
      </trkpt>
      <trkpt lat="44.40247" lon="5.52728">
        <ele>805.3</ele>
        <time>2023-03-20T09:48:55Z</time>
      </trkpt>
      <trkpt lat="44.40248" lon="5.52717">
        <ele>804.7</ele>
        <time>2023-03-20T09:48:56Z</time>
      </trkpt>
      <trkpt lat="44.40248" lon="5.52706">
        <ele>804.2</ele>
        <time>2023-03-20T09:48:57Z</time>
      </trkpt>
      <trkpt lat="44.40249" lon="5.52694">
        <ele>803.6</ele>
        <time>2023-03-20T09:48:58Z</time>
      </trkpt>
      <trkpt lat="44.4025" lon="5.52683">
        <ele>803</ele>
        <time>2023-03-20T09:48:59Z</time>
      </trkpt>
      <trkpt lat="44.40251" lon="5.52671">
        <ele>802.4</ele>
        <time>2023-03-20T09:49:00Z</time>
      </trkpt>
      <trkpt lat="44.40252" lon="5.52661">
        <ele>801.9</ele>
        <time>2023-03-20T09:49:01Z</time>
      </trkpt>
      <trkpt lat="44.40254" lon="5.52649">
        <ele>801.3</ele>
        <time>2023-03-20T09:49:02Z</time>
      </trkpt>
      <trkpt lat="44.40256" lon="5.52638">
        <ele>800.7</ele>
        <time>2023-03-20T09:49:03Z</time>
      </trkpt>
      <trkpt lat="44.40259" lon="5.52626">
        <ele>800.2</ele>
        <time>2023-03-20T09:49:04Z</time>
      </trkpt>
      <trkpt lat="44.40263" lon="5.52616">
        <ele>799.7</ele>
        <time>2023-03-20T09:49:05Z</time>
      </trkpt>
      <trkpt lat="44.40269" lon="5.52606">
        <ele>799.2</ele>
        <time>2023-03-20T09:49:06Z</time>
      </trkpt>
      <trkpt lat="44.40276" lon="5.52598">
        <ele>798.8</ele>
        <time>2023-03-20T09:49:07Z</time>
      </trkpt>
      <trkpt lat="44.40283" lon="5.52592">
        <ele>798.5</ele>
        <time>2023-03-20T09:49:08Z</time>
      </trkpt>
      <trkpt lat="44.40291" lon="5.52587">
        <ele>798.2</ele>
        <time>2023-03-20T09:49:09Z</time>
      </trkpt>
      <trkpt lat="44.40299" lon="5.52584">
        <ele>798</ele>
        <time>2023-03-20T09:49:10Z</time>
      </trkpt>
      <trkpt lat="44.40308" lon="5.52581">
        <ele>797.8</ele>
        <time>2023-03-20T09:49:11Z</time>
      </trkpt>
      <trkpt lat="44.40316" lon="5.5258">
        <ele>797.7</ele>
        <time>2023-03-20T09:49:12Z</time>
      </trkpt>
      <trkpt lat="44.40324" lon="5.52581">
        <ele>797.6</ele>
        <time>2023-03-20T09:49:13Z</time>
      </trkpt>
      <trkpt lat="44.40332" lon="5.52584">
        <ele>797.9</ele>
        <time>2023-03-20T09:49:14Z</time>
      </trkpt>
      <trkpt lat="44.40339" lon="5.5259">
        <ele>798</ele>
        <time>2023-03-20T09:49:15Z</time>
      </trkpt>
      <trkpt lat="44.40345" lon="5.52596">
        <ele>798.2</ele>
        <time>2023-03-20T09:49:16Z</time>
      </trkpt>
      <trkpt lat="44.40351" lon="5.52601">
        <ele>798.3</ele>
        <time>2023-03-20T09:49:17Z</time>
      </trkpt>
      <trkpt lat="44.40356" lon="5.52605">
        <ele>798.3</ele>
        <time>2023-03-20T09:49:18Z</time>
      </trkpt>
      <trkpt lat="44.40361" lon="5.52609">
        <ele>798.4</ele>
        <time>2023-03-20T09:49:19Z</time>
      </trkpt>
      <trkpt lat="44.40367" lon="5.52613">
        <ele>798.4</ele>
        <time>2023-03-20T09:49:20Z</time>
      </trkpt>
      <trkpt lat="44.40372" lon="5.52617">
        <ele>798.5</ele>
        <time>2023-03-20T09:49:21Z</time>
      </trkpt>
      <trkpt lat="44.40377" lon="5.52621">
        <ele>798.5</ele>
        <time>2023-03-20T09:49:22Z</time>
      </trkpt>
      <trkpt lat="44.40382" lon="5.52626">
        <ele>798.5</ele>
        <time>2023-03-20T09:49:23Z</time>
      </trkpt>
      <trkpt lat="44.40387" lon="5.5263">
        <ele>798.5</ele>
        <time>2023-03-20T09:49:24Z</time>
      </trkpt>
      <trkpt lat="44.40393" lon="5.52633">
        <ele>798.6</ele>
        <time>2023-03-20T09:49:25Z</time>
      </trkpt>
      <trkpt lat="44.40398" lon="5.52637">
        <ele>798.6</ele>
        <time>2023-03-20T09:49:26Z</time>
      </trkpt>
      <trkpt lat="44.40404" lon="5.52641">
        <ele>798.6</ele>
        <time>2023-03-20T09:49:27Z</time>
      </trkpt>
      <trkpt lat="44.4041" lon="5.52645">
        <ele>798.6</ele>
        <time>2023-03-20T09:49:28Z</time>
      </trkpt>
      <trkpt lat="44.40415" lon="5.52649">
        <ele>798.6</ele>
        <time>2023-03-20T09:49:29Z</time>
      </trkpt>
      <trkpt lat="44.4042" lon="5.52654">
        <ele>798.7</ele>
        <time>2023-03-20T09:49:30Z</time>
      </trkpt>
      <trkpt lat="44.40425" lon="5.52659">
        <ele>798.7</ele>
        <time>2023-03-20T09:49:31Z</time>
      </trkpt>
      <trkpt lat="44.4043" lon="5.52664">
        <ele>798.8</ele>
        <time>2023-03-20T09:49:32Z</time>
      </trkpt>
      <trkpt lat="44.40435" lon="5.5267">
        <ele>798.8</ele>
        <time>2023-03-20T09:49:33Z</time>
      </trkpt>
      <trkpt lat="44.4044" lon="5.52676">
        <ele>798.9</ele>
        <time>2023-03-20T09:49:34Z</time>
      </trkpt>
      <trkpt lat="44.40445" lon="5.52681">
        <ele>799</ele>
        <time>2023-03-20T09:49:35Z</time>
      </trkpt>
      <trkpt lat="44.40449" lon="5.52687">
        <ele>799.1</ele>
        <time>2023-03-20T09:49:36Z</time>
      </trkpt>
      <trkpt lat="44.40452" lon="5.52693">
        <ele>799.2</ele>
        <time>2023-03-20T09:49:37Z</time>
      </trkpt>
      <trkpt lat="44.40456" lon="5.527">
        <ele>799.3</ele>
        <time>2023-03-20T09:49:38Z</time>
      </trkpt>
      <trkpt lat="44.40459" lon="5.52706">
        <ele>799.4</ele>
        <time>2023-03-20T09:49:39Z</time>
      </trkpt>
      <trkpt lat="44.40463" lon="5.52712">
        <ele>799.6</ele>
        <time>2023-03-20T09:49:40Z</time>
      </trkpt>
      <trkpt lat="44.40467" lon="5.52718">
        <ele>799.7</ele>
        <time>2023-03-20T09:49:41Z</time>
      </trkpt>
      <trkpt lat="44.40471" lon="5.52724">
        <ele>799.9</ele>
        <time>2023-03-20T09:49:42Z</time>
      </trkpt>
      <trkpt lat="44.40475" lon="5.5273">
        <ele>800.1</ele>
        <time>2023-03-20T09:49:43Z</time>
      </trkpt>
      <trkpt lat="44.40478" lon="5.52735">
        <ele>800.2</ele>
        <time>2023-03-20T09:49:44Z</time>
      </trkpt>
      <trkpt lat="44.40482" lon="5.5274">
        <ele>800.4</ele>
        <time>2023-03-20T09:49:45Z</time>
      </trkpt>
      <trkpt lat="44.40486" lon="5.52745">
        <ele>800.7</ele>
        <time>2023-03-20T09:49:46Z</time>
      </trkpt>
      <trkpt lat="44.40491" lon="5.52749">
        <ele>800.9</ele>
        <time>2023-03-20T09:49:47Z</time>
      </trkpt>
      <trkpt lat="44.40495" lon="5.52754">
        <ele>801.1</ele>
        <time>2023-03-20T09:49:48Z</time>
      </trkpt>
      <trkpt lat="44.40499" lon="5.52758">
        <ele>801.4</ele>
        <time>2023-03-20T09:49:49Z</time>
      </trkpt>
      <trkpt lat="44.40503" lon="5.52762">
        <ele>801.6</ele>
        <time>2023-03-20T09:49:50Z</time>
      </trkpt>
      <trkpt lat="44.40507" lon="5.52766">
        <ele>801.9</ele>
        <time>2023-03-20T09:49:51Z</time>
      </trkpt>
      <trkpt lat="44.40512" lon="5.52769">
        <ele>802.1</ele>
        <time>2023-03-20T09:49:52Z</time>
      </trkpt>
      <trkpt lat="44.40516" lon="5.52772">
        <ele>802.4</ele>
        <time>2023-03-20T09:49:53Z</time>
      </trkpt>
      <trkpt lat="44.4052" lon="5.52775">
        <ele>802.7</ele>
        <time>2023-03-20T09:49:54Z</time>
      </trkpt>
      <trkpt lat="44.40525" lon="5.52777">
        <ele>802.9</ele>
        <time>2023-03-20T09:49:55Z</time>
      </trkpt>
      <trkpt lat="44.40529" lon="5.52779">
        <ele>803.2</ele>
        <time>2023-03-20T09:49:56Z</time>
      </trkpt>
      <trkpt lat="44.40534" lon="5.52782">
        <ele>803.5</ele>
        <time>2023-03-20T09:49:57Z</time>
      </trkpt>
      <trkpt lat="44.40538" lon="5.52784">
        <ele>803.7</ele>
        <time>2023-03-20T09:49:58Z</time>
      </trkpt>
      <trkpt lat="44.40543" lon="5.52786">
        <ele>804</ele>
        <time>2023-03-20T09:49:59Z</time>
      </trkpt>
      <trkpt lat="44.40548" lon="5.52787">
        <ele>804.3</ele>
        <time>2023-03-20T09:50:00Z</time>
      </trkpt>
      <trkpt lat="44.40552" lon="5.52788">
        <ele>804.5</ele>
        <time>2023-03-20T09:50:01Z</time>
      </trkpt>
      <trkpt lat="44.40557" lon="5.52789">
        <ele>804.8</ele>
        <time>2023-03-20T09:50:02Z</time>
      </trkpt>
      <trkpt lat="44.40561" lon="5.5279">
        <ele>805.1</ele>
        <time>2023-03-20T09:50:03Z</time>
      </trkpt>
      <trkpt lat="44.40565" lon="5.52792">
        <ele>805.3</ele>
        <time>2023-03-20T09:50:04Z</time>
      </trkpt>
      <trkpt lat="44.4057" lon="5.52794">
        <ele>805.6</ele>
        <time>2023-03-20T09:50:05Z</time>
      </trkpt>
      <trkpt lat="44.40574" lon="5.52796">
        <ele>805.9</ele>
        <time>2023-03-20T09:50:06Z</time>
      </trkpt>
      <trkpt lat="44.40579" lon="5.52797">
        <ele>806.2</ele>
        <time>2023-03-20T09:50:07Z</time>
      </trkpt>
      <trkpt lat="44.40583" lon="5.52798">
        <ele>806.5</ele>
        <time>2023-03-20T09:50:08Z</time>
      </trkpt>
      <trkpt lat="44.40588" lon="5.528">
        <ele>806.8</ele>
        <time>2023-03-20T09:50:09Z</time>
      </trkpt>
      <trkpt lat="44.40592" lon="5.52802">
        <ele>807.1</ele>
        <time>2023-03-20T09:50:10Z</time>
      </trkpt>
      <trkpt lat="44.40596" lon="5.52804">
        <ele>807.3</ele>
        <time>2023-03-20T09:50:11Z</time>
      </trkpt>
      <trkpt lat="44.406" lon="5.52806">
        <ele>807.6</ele>
        <time>2023-03-20T09:50:12Z</time>
      </trkpt>
      <trkpt lat="44.40605" lon="5.52808">
        <ele>807.9</ele>
        <time>2023-03-20T09:50:13Z</time>
      </trkpt>
      <trkpt lat="44.40609" lon="5.5281">
        <ele>808.2</ele>
        <time>2023-03-20T09:50:14Z</time>
      </trkpt>
      <trkpt lat="44.40613" lon="5.52813">
        <ele>808.5</ele>
        <time>2023-03-20T09:50:15Z</time>
      </trkpt>
      <trkpt lat="44.40617" lon="5.52815">
        <ele>808.7</ele>
        <time>2023-03-20T09:50:16Z</time>
      </trkpt>
      <trkpt lat="44.40621" lon="5.52818">
        <ele>809</ele>
        <time>2023-03-20T09:50:17Z</time>
      </trkpt>
      <trkpt lat="44.40624" lon="5.52821">
        <ele>809.3</ele>
        <time>2023-03-20T09:50:18Z</time>
      </trkpt>
      <trkpt lat="44.40627" lon="5.52824">
        <ele>809.5</ele>
        <time>2023-03-20T09:50:19Z</time>
      </trkpt>
      <trkpt lat="44.4063" lon="5.52828">
        <ele>809.7</ele>
        <time>2023-03-20T09:50:20Z</time>
      </trkpt>
      <trkpt lat="44.40634" lon="5.52832">
        <ele>810</ele>
        <time>2023-03-20T09:50:21Z</time>
      </trkpt>
      <trkpt lat="44.40637" lon="5.52837">
        <ele>810.3</ele>
        <time>2023-03-20T09:50:22Z</time>
      </trkpt>
      <trkpt lat="44.40639" lon="5.52841">
        <ele>810.6</ele>
        <time>2023-03-20T09:50:23Z</time>
      </trkpt>
      <trkpt lat="44.40642" lon="5.52846">
        <ele>810.9</ele>
        <time>2023-03-20T09:50:24Z</time>
      </trkpt>
      <trkpt lat="44.40645" lon="5.5285">
        <ele>811.2</ele>
        <time>2023-03-20T09:50:25Z</time>
      </trkpt>
      <trkpt lat="44.40648" lon="5.52856">
        <ele>811.5</ele>
        <time>2023-03-20T09:50:26Z</time>
      </trkpt>
      <trkpt lat="44.4065" lon="5.52861">
        <ele>811.8</ele>
        <time>2023-03-20T09:50:27Z</time>
      </trkpt>
      <trkpt lat="44.40652" lon="5.52867">
        <ele>812.1</ele>
        <time>2023-03-20T09:50:28Z</time>
      </trkpt>
      <trkpt lat="44.40653" lon="5.52872">
        <ele>812.4</ele>
        <time>2023-03-20T09:50:29Z</time>
      </trkpt>
      <trkpt lat="44.40654" lon="5.52878">
        <ele>812.7</ele>
        <time>2023-03-20T09:50:30Z</time>
      </trkpt>
      <trkpt lat="44.40654" lon="5.52884">
        <ele>812.9</ele>
        <time>2023-03-20T09:50:31Z</time>
      </trkpt>
      <trkpt lat="44.40655" lon="5.52889">
        <ele>813.2</ele>
        <time>2023-03-20T09:50:32Z</time>
      </trkpt>
      <trkpt lat="44.40656" lon="5.52895">
        <ele>813.5</ele>
        <time>2023-03-20T09:50:33Z</time>
      </trkpt>
      <trkpt lat="44.40656" lon="5.52901">
        <ele>813.7</ele>
        <time>2023-03-20T09:50:34Z</time>
      </trkpt>
      <trkpt lat="44.40656" lon="5.52907">
        <ele>814</ele>
        <time>2023-03-20T09:50:35Z</time>
      </trkpt>
      <trkpt lat="44.40656" lon="5.52912">
        <ele>814.2</ele>
        <time>2023-03-20T09:50:36Z</time>
      </trkpt>
      <trkpt lat="44.40655" lon="5.52918">
        <ele>814.5</ele>
        <time>2023-03-20T09:50:37Z</time>
      </trkpt>
      <trkpt lat="44.40655" lon="5.52924">
        <ele>814.8</ele>
        <time>2023-03-20T09:50:38Z</time>
      </trkpt>
      <trkpt lat="44.40654" lon="5.52929">
        <ele>815</ele>
        <time>2023-03-20T09:50:39Z</time>
      </trkpt>
      <trkpt lat="44.40653" lon="5.52934">
        <ele>815.2</ele>
        <time>2023-03-20T09:50:40Z</time>
      </trkpt>
      <trkpt lat="44.40651" lon="5.52939">
        <ele>815.5</ele>
        <time>2023-03-20T09:50:41Z</time>
      </trkpt>
      <trkpt lat="44.40649" lon="5.52944">
        <ele>815.7</ele>
        <time>2023-03-20T09:50:42Z</time>
      </trkpt>
      <trkpt lat="44.40647" lon="5.52949">
        <ele>815.9</ele>
        <time>2023-03-20T09:50:43Z</time>
      </trkpt>
      <trkpt lat="44.40645" lon="5.52954">
        <ele>816.2</ele>
        <time>2023-03-20T09:50:44Z</time>
      </trkpt>
      <trkpt lat="44.40643" lon="5.52958">
        <ele>816.4</ele>
        <time>2023-03-20T09:50:45Z</time>
      </trkpt>
      <trkpt lat="44.4064" lon="5.52963">
        <ele>816.6</ele>
        <time>2023-03-20T09:50:46Z</time>
      </trkpt>
      <trkpt lat="44.40637" lon="5.52967">
        <ele>816.9</ele>
        <time>2023-03-20T09:50:47Z</time>
      </trkpt>
      <trkpt lat="44.40635" lon="5.52972">
        <ele>817.1</ele>
        <time>2023-03-20T09:50:48Z</time>
      </trkpt>
      <trkpt lat="44.40632" lon="5.52976">
        <ele>817.3</ele>
        <time>2023-03-20T09:50:49Z</time>
      </trkpt>
      <trkpt lat="44.40629" lon="5.5298">
        <ele>817.6</ele>
        <time>2023-03-20T09:50:50Z</time>
      </trkpt>
      <trkpt lat="44.40626" lon="5.52984">
        <ele>817.8</ele>
        <time>2023-03-20T09:50:51Z</time>
      </trkpt>
      <trkpt lat="44.40624" lon="5.52987">
        <ele>818</ele>
        <time>2023-03-20T09:50:52Z</time>
      </trkpt>
      <trkpt lat="44.40621" lon="5.5299">
        <ele>818.2</ele>
        <time>2023-03-20T09:50:53Z</time>
      </trkpt>
      <trkpt lat="44.40617" lon="5.52993">
        <ele>818.3</ele>
        <time>2023-03-20T09:50:54Z</time>
      </trkpt>
      <trkpt lat="44.40614" lon="5.52995">
        <ele>818.5</ele>
        <time>2023-03-20T09:50:55Z</time>
      </trkpt>
      <trkpt lat="44.40611" lon="5.52997">
        <ele>818.7</ele>
        <time>2023-03-20T09:50:56Z</time>
      </trkpt>
      <trkpt lat="44.40608" lon="5.52999">
        <ele>818.9</ele>
        <time>2023-03-20T09:50:57Z</time>
      </trkpt>
      <trkpt lat="44.40604" lon="5.53002">
        <ele>819</ele>
        <time>2023-03-20T09:50:58Z</time>
      </trkpt>
      <trkpt lat="44.40601" lon="5.53004">
        <ele>819.2</ele>
        <time>2023-03-20T09:50:59Z</time>
      </trkpt>
      <trkpt lat="44.40598" lon="5.53006">
        <ele>819.4</ele>
        <time>2023-03-20T09:51:00Z</time>
      </trkpt>
      <trkpt lat="44.40594" lon="5.53008">
        <ele>819.6</ele>
        <time>2023-03-20T09:51:01Z</time>
      </trkpt>
      <trkpt lat="44.40591" lon="5.53011">
        <ele>819.7</ele>
        <time>2023-03-20T09:51:02Z</time>
      </trkpt>
      <trkpt lat="44.40588" lon="5.53013">
        <ele>819.8</ele>
        <time>2023-03-20T09:51:03Z</time>
      </trkpt>
      <trkpt lat="44.40585" lon="5.53015">
        <ele>820</ele>
        <time>2023-03-20T09:51:04Z</time>
      </trkpt>
      <trkpt lat="44.40581" lon="5.53018">
        <ele>820.1</ele>
        <time>2023-03-20T09:51:05Z</time>
      </trkpt>
      <trkpt lat="44.40578" lon="5.5302">
        <ele>820.1</ele>
        <time>2023-03-20T09:51:06Z</time>
      </trkpt>
      <trkpt lat="44.40574" lon="5.53024">
        <ele>820.2</ele>
        <time>2023-03-20T09:51:07Z</time>
      </trkpt>
      <trkpt lat="44.40571" lon="5.53027">
        <ele>820.3</ele>
        <time>2023-03-20T09:51:08Z</time>
      </trkpt>
      <trkpt lat="44.40569" lon="5.53031">
        <ele>820.3</ele>
        <time>2023-03-20T09:51:09Z</time>
      </trkpt>
      <trkpt lat="44.40566" lon="5.53035">
        <ele>820.3</ele>
        <time>2023-03-20T09:51:10Z</time>
      </trkpt>
      <trkpt lat="44.40563" lon="5.5304">
        <ele>820.3</ele>
        <time>2023-03-20T09:51:11Z</time>
      </trkpt>
      <trkpt lat="44.40561" lon="5.53045">
        <ele>820.4</ele>
        <time>2023-03-20T09:51:12Z</time>
      </trkpt>
      <trkpt lat="44.40559" lon="5.53051">
        <ele>820.4</ele>
        <time>2023-03-20T09:51:13Z</time>
      </trkpt>
      <trkpt lat="44.40557" lon="5.53057">
        <ele>820.4</ele>
        <time>2023-03-20T09:51:14Z</time>
      </trkpt>
      <trkpt lat="44.40555" lon="5.53063">
        <ele>820.4</ele>
        <time>2023-03-20T09:51:15Z</time>
      </trkpt>
      <trkpt lat="44.40553" lon="5.53068">
        <ele>820.4</ele>
        <time>2023-03-20T09:51:16Z</time>
      </trkpt>
      <trkpt lat="44.40552" lon="5.53075">
        <ele>820.4</ele>
        <time>2023-03-20T09:51:17Z</time>
      </trkpt>
      <trkpt lat="44.40551" lon="5.53081">
        <ele>820.4</ele>
        <time>2023-03-20T09:51:18Z</time>
      </trkpt>
      <trkpt lat="44.40551" lon="5.53088">
        <ele>820.4</ele>
        <time>2023-03-20T09:51:19Z</time>
      </trkpt>
      <trkpt lat="44.40551" lon="5.53095">
        <ele>820.4</ele>
        <time>2023-03-20T09:51:20Z</time>
      </trkpt>
      <trkpt lat="44.40552" lon="5.53102">
        <ele>820.4</ele>
        <time>2023-03-20T09:51:21Z</time>
      </trkpt>
      <trkpt lat="44.40553" lon="5.53109">
        <ele>820.4</ele>
        <time>2023-03-20T09:51:22Z</time>
      </trkpt>
      <trkpt lat="44.40555" lon="5.53116">
        <ele>820.4</ele>
        <time>2023-03-20T09:51:23Z</time>
      </trkpt>
      <trkpt lat="44.40556" lon="5.53123">
        <ele>820.4</ele>
        <time>2023-03-20T09:51:24Z</time>
      </trkpt>
      <trkpt lat="44.40558" lon="5.53129">
        <ele>820.4</ele>
        <time>2023-03-20T09:51:25Z</time>
      </trkpt>
      <trkpt lat="44.4056" lon="5.53135">
        <ele>820.4</ele>
        <time>2023-03-20T09:51:26Z</time>
      </trkpt>
      <trkpt lat="44.40563" lon="5.53141">
        <ele>820.4</ele>
        <time>2023-03-20T09:51:27Z</time>
      </trkpt>
      <trkpt lat="44.40566" lon="5.53148">
        <ele>820.4</ele>
        <time>2023-03-20T09:51:28Z</time>
      </trkpt>
      <trkpt lat="44.40568" lon="5.53153">
        <ele>820.4</ele>
        <time>2023-03-20T09:51:29Z</time>
      </trkpt>
      <trkpt lat="44.40571" lon="5.53159">
        <ele>820.4</ele>
        <time>2023-03-20T09:51:30Z</time>
      </trkpt>
      <trkpt lat="44.40574" lon="5.53165">
        <ele>820.4</ele>
        <time>2023-03-20T09:51:31Z</time>
      </trkpt>
      <trkpt lat="44.40578" lon="5.5317">
        <ele>820.4</ele>
        <time>2023-03-20T09:51:32Z</time>
      </trkpt>
      <trkpt lat="44.40581" lon="5.53176">
        <ele>820.3</ele>
        <time>2023-03-20T09:51:33Z</time>
      </trkpt>
      <trkpt lat="44.40585" lon="5.53181">
        <ele>820.3</ele>
        <time>2023-03-20T09:51:34Z</time>
      </trkpt>
      <trkpt lat="44.40588" lon="5.53185">
        <ele>820.3</ele>
        <time>2023-03-20T09:51:35Z</time>
      </trkpt>
      <trkpt lat="44.40592" lon="5.53188">
        <ele>820.3</ele>
        <time>2023-03-20T09:51:36Z</time>
      </trkpt>
      <trkpt lat="44.40597" lon="5.53192">
        <ele>820.3</ele>
        <time>2023-03-20T09:51:37Z</time>
      </trkpt>
      <trkpt lat="44.40601" lon="5.53195">
        <ele>820.3</ele>
        <time>2023-03-20T09:51:38Z</time>
      </trkpt>
      <trkpt lat="44.40605" lon="5.53198">
        <ele>820.2</ele>
        <time>2023-03-20T09:51:39Z</time>
      </trkpt>
      <trkpt lat="44.40609" lon="5.53201">
        <ele>820.2</ele>
        <time>2023-03-20T09:51:40Z</time>
      </trkpt>
      <trkpt lat="44.40614" lon="5.53204">
        <ele>820.2</ele>
        <time>2023-03-20T09:51:41Z</time>
      </trkpt>
      <trkpt lat="44.40618" lon="5.53207">
        <ele>820.2</ele>
        <time>2023-03-20T09:51:42Z</time>
      </trkpt>
      <trkpt lat="44.40623" lon="5.5321">
        <ele>820.2</ele>
        <time>2023-03-20T09:51:43Z</time>
      </trkpt>
      <trkpt lat="44.40627" lon="5.53212">
        <ele>820.2</ele>
        <time>2023-03-20T09:51:44Z</time>
      </trkpt>
      <trkpt lat="44.40632" lon="5.53215">
        <ele>820.2</ele>
        <time>2023-03-20T09:51:45Z</time>
      </trkpt>
      <trkpt lat="44.40637" lon="5.53217">
        <ele>820.2</ele>
        <time>2023-03-20T09:51:46Z</time>
      </trkpt>
      <trkpt lat="44.40642" lon="5.53219">
        <ele>820.2</ele>
        <time>2023-03-20T09:51:47Z</time>
      </trkpt>
      <trkpt lat="44.40647" lon="5.5322">
        <ele>820.2</ele>
        <time>2023-03-20T09:51:48Z</time>
      </trkpt>
      <trkpt lat="44.40652" lon="5.53221">
        <ele>820.1</ele>
        <time>2023-03-20T09:51:49Z</time>
      </trkpt>
      <trkpt lat="44.40657" lon="5.53223">
        <ele>820.1</ele>
        <time>2023-03-20T09:51:50Z</time>
      </trkpt>
      <trkpt lat="44.40662" lon="5.53224">
        <ele>820.1</ele>
        <time>2023-03-20T09:51:51Z</time>
      </trkpt>
      <trkpt lat="44.40667" lon="5.53225">
        <ele>820</ele>
        <time>2023-03-20T09:51:52Z</time>
      </trkpt>
      <trkpt lat="44.40672" lon="5.53227">
        <ele>820</ele>
        <time>2023-03-20T09:51:53Z</time>
      </trkpt>
      <trkpt lat="44.40677" lon="5.5323">
        <ele>819.9</ele>
        <time>2023-03-20T09:51:54Z</time>
      </trkpt>
      <trkpt lat="44.40682" lon="5.53233">
        <ele>819.9</ele>
        <time>2023-03-20T09:51:55Z</time>
      </trkpt>
      <trkpt lat="44.40687" lon="5.53237">
        <ele>819.8</ele>
        <time>2023-03-20T09:51:56Z</time>
      </trkpt>
      <trkpt lat="44.40692" lon="5.5324">
        <ele>819.8</ele>
        <time>2023-03-20T09:51:57Z</time>
      </trkpt>
      <trkpt lat="44.40696" lon="5.53245">
        <ele>819.8</ele>
        <time>2023-03-20T09:51:58Z</time>
      </trkpt>
      <trkpt lat="44.407" lon="5.53249">
        <ele>819.7</ele>
        <time>2023-03-20T09:51:59Z</time>
      </trkpt>
      <trkpt lat="44.40704" lon="5.53253">
        <ele>819.7</ele>
        <time>2023-03-20T09:52:00Z</time>
      </trkpt>
      <trkpt lat="44.40708" lon="5.53258">
        <ele>819.6</ele>
        <time>2023-03-20T09:52:01Z</time>
      </trkpt>
      <trkpt lat="44.40713" lon="5.53262">
        <ele>819.6</ele>
        <time>2023-03-20T09:52:02Z</time>
      </trkpt>
      <trkpt lat="44.40717" lon="5.53266">
        <ele>819.6</ele>
        <time>2023-03-20T09:52:03Z</time>
      </trkpt>
      <trkpt lat="44.40721" lon="5.53271">
        <ele>819.6</ele>
        <time>2023-03-20T09:52:04Z</time>
      </trkpt>
      <trkpt lat="44.40726" lon="5.53275">
        <ele>819.6</ele>
        <time>2023-03-20T09:52:05Z</time>
      </trkpt>
      <trkpt lat="44.4073" lon="5.53279">
        <ele>819.5</ele>
        <time>2023-03-20T09:52:06Z</time>
      </trkpt>
      <trkpt lat="44.40735" lon="5.53282">
        <ele>819.5</ele>
        <time>2023-03-20T09:52:07Z</time>
      </trkpt>
      <trkpt lat="44.4074" lon="5.53285">
        <ele>819.4</ele>
        <time>2023-03-20T09:52:08Z</time>
      </trkpt>
      <trkpt lat="44.40745" lon="5.53287">
        <ele>819.4</ele>
        <time>2023-03-20T09:52:09Z</time>
      </trkpt>
      <trkpt lat="44.4075" lon="5.53289">
        <ele>819.3</ele>
        <time>2023-03-20T09:52:10Z</time>
      </trkpt>
      <trkpt lat="44.40755" lon="5.53291">
        <ele>819.3</ele>
        <time>2023-03-20T09:52:11Z</time>
      </trkpt>
      <trkpt lat="44.4076" lon="5.53292">
        <ele>819.3</ele>
        <time>2023-03-20T09:52:12Z</time>
      </trkpt>
      <trkpt lat="44.40765" lon="5.53292">
        <ele>819.3</ele>
        <time>2023-03-20T09:52:13Z</time>
      </trkpt>
      <trkpt lat="44.4077" lon="5.53292">
        <ele>819.2</ele>
        <time>2023-03-20T09:52:14Z</time>
      </trkpt>
      <trkpt lat="44.40776" lon="5.53293">
        <ele>819.2</ele>
        <time>2023-03-20T09:52:15Z</time>
      </trkpt>
      <trkpt lat="44.40781" lon="5.53293">
        <ele>819.2</ele>
        <time>2023-03-20T09:52:16Z</time>
      </trkpt>
      <trkpt lat="44.40786" lon="5.53293">
        <ele>819.2</ele>
        <time>2023-03-20T09:52:17Z</time>
      </trkpt>
      <trkpt lat="44.40791" lon="5.53292">
        <ele>819.2</ele>
        <time>2023-03-20T09:52:18Z</time>
      </trkpt>
      <trkpt lat="44.40796" lon="5.53292">
        <ele>819.2</ele>
        <time>2023-03-20T09:52:19Z</time>
      </trkpt>
      <trkpt lat="44.40801" lon="5.53292">
        <ele>819.2</ele>
        <time>2023-03-20T09:52:20Z</time>
      </trkpt>
      <trkpt lat="44.40806" lon="5.53292">
        <ele>819.3</ele>
        <time>2023-03-20T09:52:21Z</time>
      </trkpt>
      <trkpt lat="44.40811" lon="5.53292">
        <ele>819.3</ele>
        <time>2023-03-20T09:52:22Z</time>
      </trkpt>
      <trkpt lat="44.40817" lon="5.53293">
        <ele>819.3</ele>
        <time>2023-03-20T09:52:23Z</time>
      </trkpt>
      <trkpt lat="44.40822" lon="5.53294">
        <ele>819.4</ele>
        <time>2023-03-20T09:52:24Z</time>
      </trkpt>
      <trkpt lat="44.40827" lon="5.53295">
        <ele>819.5</ele>
        <time>2023-03-20T09:52:25Z</time>
      </trkpt>
      <trkpt lat="44.40832" lon="5.53296">
        <ele>819.6</ele>
        <time>2023-03-20T09:52:26Z</time>
      </trkpt>
      <trkpt lat="44.40837" lon="5.53299">
        <ele>819.7</ele>
        <time>2023-03-20T09:52:27Z</time>
      </trkpt>
      <trkpt lat="44.40842" lon="5.53301">
        <ele>819.8</ele>
        <time>2023-03-20T09:52:28Z</time>
      </trkpt>
      <trkpt lat="44.40847" lon="5.53303">
        <ele>820</ele>
        <time>2023-03-20T09:52:29Z</time>
      </trkpt>
      <trkpt lat="44.40851" lon="5.53306">
        <ele>820.2</ele>
        <time>2023-03-20T09:52:30Z</time>
      </trkpt>
      <trkpt lat="44.40855" lon="5.53308">
        <ele>820.4</ele>
        <time>2023-03-20T09:52:31Z</time>
      </trkpt>
      <trkpt lat="44.4086" lon="5.53311">
        <ele>820.6</ele>
        <time>2023-03-20T09:52:32Z</time>
      </trkpt>
      <trkpt lat="44.40864" lon="5.53313">
        <ele>820.7</ele>
        <time>2023-03-20T09:52:33Z</time>
      </trkpt>
      <trkpt lat="44.40868" lon="5.53315">
        <ele>820.9</ele>
        <time>2023-03-20T09:52:34Z</time>
      </trkpt>
      <trkpt lat="44.40872" lon="5.53318">
        <ele>821.1</ele>
        <time>2023-03-20T09:52:35Z</time>
      </trkpt>
      <trkpt lat="44.40876" lon="5.5332">
        <ele>821.3</ele>
        <time>2023-03-20T09:52:36Z</time>
      </trkpt>
      <trkpt lat="44.4088" lon="5.53323">
        <ele>821.5</ele>
        <time>2023-03-20T09:52:37Z</time>
      </trkpt>
      <trkpt lat="44.40884" lon="5.53325">
        <ele>821.7</ele>
        <time>2023-03-20T09:52:38Z</time>
      </trkpt>
      <trkpt lat="44.40888" lon="5.53327">
        <ele>821.9</ele>
        <time>2023-03-20T09:52:39Z</time>
      </trkpt>
      <trkpt lat="44.40892" lon="5.53329">
        <ele>822.1</ele>
        <time>2023-03-20T09:52:40Z</time>
      </trkpt>
      <trkpt lat="44.40896" lon="5.53331">
        <ele>822.4</ele>
        <time>2023-03-20T09:52:41Z</time>
      </trkpt>
      <trkpt lat="44.40899" lon="5.53333">
        <ele>822.6</ele>
        <time>2023-03-20T09:52:42Z</time>
      </trkpt>
      <trkpt lat="44.40903" lon="5.53336">
        <ele>822.8</ele>
        <time>2023-03-20T09:52:43Z</time>
      </trkpt>
      <trkpt lat="44.40906" lon="5.53338">
        <ele>823.1</ele>
        <time>2023-03-20T09:52:44Z</time>
      </trkpt>
      <trkpt lat="44.4091" lon="5.5334">
        <ele>823.3</ele>
        <time>2023-03-20T09:52:45Z</time>
      </trkpt>
      <trkpt lat="44.40914" lon="5.53343">
        <ele>823.6</ele>
        <time>2023-03-20T09:52:46Z</time>
      </trkpt>
      <trkpt lat="44.40918" lon="5.53345">
        <ele>823.9</ele>
        <time>2023-03-20T09:52:47Z</time>
      </trkpt>
      <trkpt lat="44.40922" lon="5.53347">
        <ele>824.2</ele>
        <time>2023-03-20T09:52:48Z</time>
      </trkpt>
      <trkpt lat="44.40925" lon="5.5335">
        <ele>824.5</ele>
        <time>2023-03-20T09:52:49Z</time>
      </trkpt>
      <trkpt lat="44.40929" lon="5.53352">
        <ele>824.7</ele>
        <time>2023-03-20T09:52:50Z</time>
      </trkpt>
      <trkpt lat="44.40932" lon="5.53355">
        <ele>825</ele>
        <time>2023-03-20T09:52:51Z</time>
      </trkpt>
      <trkpt lat="44.40936" lon="5.53358">
        <ele>825.3</ele>
        <time>2023-03-20T09:52:52Z</time>
      </trkpt>
      <trkpt lat="44.40939" lon="5.53361">
        <ele>825.5</ele>
        <time>2023-03-20T09:52:53Z</time>
      </trkpt>
      <trkpt lat="44.40942" lon="5.53364">
        <ele>825.7</ele>
        <time>2023-03-20T09:52:54Z</time>
      </trkpt>
      <trkpt lat="44.40946" lon="5.53368">
        <ele>826</ele>
        <time>2023-03-20T09:52:55Z</time>
      </trkpt>
      <trkpt lat="44.40949" lon="5.53371">
        <ele>826.2</ele>
        <time>2023-03-20T09:52:56Z</time>
      </trkpt>
      <trkpt lat="44.40952" lon="5.53375">
        <ele>826.4</ele>
        <time>2023-03-20T09:52:57Z</time>
      </trkpt>
      <trkpt lat="44.40955" lon="5.53379">
        <ele>826.7</ele>
        <time>2023-03-20T09:52:58Z</time>
      </trkpt>
      <trkpt lat="44.40958" lon="5.53383">
        <ele>826.9</ele>
        <time>2023-03-20T09:52:59Z</time>
      </trkpt>
      <trkpt lat="44.40961" lon="5.53386">
        <ele>827.2</ele>
        <time>2023-03-20T09:53:00Z</time>
      </trkpt>
      <trkpt lat="44.40963" lon="5.53391">
        <ele>827.5</ele>
        <time>2023-03-20T09:53:01Z</time>
      </trkpt>
      <trkpt lat="44.40965" lon="5.53395">
        <ele>827.7</ele>
        <time>2023-03-20T09:53:02Z</time>
      </trkpt>
      <trkpt lat="44.40967" lon="5.53399">
        <ele>827.9</ele>
        <time>2023-03-20T09:53:03Z</time>
      </trkpt>
      <trkpt lat="44.4097" lon="5.53404">
        <ele>828.2</ele>
        <time>2023-03-20T09:53:04Z</time>
      </trkpt>
      <trkpt lat="44.40972" lon="5.53409">
        <ele>828.5</ele>
        <time>2023-03-20T09:53:05Z</time>
      </trkpt>
      <trkpt lat="44.40974" lon="5.53413">
        <ele>828.8</ele>
        <time>2023-03-20T09:53:06Z</time>
      </trkpt>
      <trkpt lat="44.40977" lon="5.53418">
        <ele>829</ele>
        <time>2023-03-20T09:53:07Z</time>
      </trkpt>
      <trkpt lat="44.40978" lon="5.53423">
        <ele>829.3</ele>
        <time>2023-03-20T09:53:08Z</time>
      </trkpt>
      <trkpt lat="44.4098" lon="5.53429">
        <ele>829.6</ele>
        <time>2023-03-20T09:53:09Z</time>
      </trkpt>
      <trkpt lat="44.40982" lon="5.53434">
        <ele>829.8</ele>
        <time>2023-03-20T09:53:10Z</time>
      </trkpt>
      <trkpt lat="44.40984" lon="5.53439">
        <ele>830.1</ele>
        <time>2023-03-20T09:53:11Z</time>
      </trkpt>
      <trkpt lat="44.40986" lon="5.53444">
        <ele>830.3</ele>
        <time>2023-03-20T09:53:12Z</time>
      </trkpt>
      <trkpt lat="44.40988" lon="5.53449">
        <ele>830.6</ele>
        <time>2023-03-20T09:53:13Z</time>
      </trkpt>
      <trkpt lat="44.4099" lon="5.53454">
        <ele>830.8</ele>
        <time>2023-03-20T09:53:14Z</time>
      </trkpt>
      <trkpt lat="44.40991" lon="5.53458">
        <ele>831.1</ele>
        <time>2023-03-20T09:53:15Z</time>
      </trkpt>
      <trkpt lat="44.40993" lon="5.53463">
        <ele>831.3</ele>
        <time>2023-03-20T09:53:16Z</time>
      </trkpt>
      <trkpt lat="44.40995" lon="5.53468">
        <ele>831.6</ele>
        <time>2023-03-20T09:53:17Z</time>
      </trkpt>
      <trkpt lat="44.40997" lon="5.53474">
        <ele>831.9</ele>
        <time>2023-03-20T09:53:18Z</time>
      </trkpt>
      <trkpt lat="44.40999" lon="5.53478">
        <ele>832.1</ele>
        <time>2023-03-20T09:53:19Z</time>
      </trkpt>
      <trkpt lat="44.41001" lon="5.53483">
        <ele>832.4</ele>
        <time>2023-03-20T09:53:20Z</time>
      </trkpt>
      <trkpt lat="44.41003" lon="5.53488">
        <ele>832.7</ele>
        <time>2023-03-20T09:53:21Z</time>
      </trkpt>
      <trkpt lat="44.41005" lon="5.53493">
        <ele>832.9</ele>
        <time>2023-03-20T09:53:22Z</time>
      </trkpt>
      <trkpt lat="44.41007" lon="5.53497">
        <ele>833.2</ele>
        <time>2023-03-20T09:53:23Z</time>
      </trkpt>
      <trkpt lat="44.41009" lon="5.53503">
        <ele>833.5</ele>
        <time>2023-03-20T09:53:24Z</time>
      </trkpt>
      <trkpt lat="44.41011" lon="5.53508">
        <ele>833.8</ele>
        <time>2023-03-20T09:53:25Z</time>
      </trkpt>
      <trkpt lat="44.41013" lon="5.53513">
        <ele>834.1</ele>
        <time>2023-03-20T09:53:26Z</time>
      </trkpt>
      <trkpt lat="44.41014" lon="5.53518">
        <ele>834.4</ele>
        <time>2023-03-20T09:53:27Z</time>
      </trkpt>
      <trkpt lat="44.41016" lon="5.53523">
        <ele>834.7</ele>
        <time>2023-03-20T09:53:28Z</time>
      </trkpt>
      <trkpt lat="44.41018" lon="5.53528">
        <ele>834.9</ele>
        <time>2023-03-20T09:53:29Z</time>
      </trkpt>
      <trkpt lat="44.4102" lon="5.53532">
        <ele>835.2</ele>
        <time>2023-03-20T09:53:30Z</time>
      </trkpt>
      <trkpt lat="44.41021" lon="5.53537">
        <ele>835.5</ele>
        <time>2023-03-20T09:53:31Z</time>
      </trkpt>
      <trkpt lat="44.41023" lon="5.53542">
        <ele>835.8</ele>
        <time>2023-03-20T09:53:32Z</time>
      </trkpt>
      <trkpt lat="44.41025" lon="5.53547">
        <ele>836.1</ele>
        <time>2023-03-20T09:53:33Z</time>
      </trkpt>
      <trkpt lat="44.41027" lon="5.53552">
        <ele>836.3</ele>
        <time>2023-03-20T09:53:34Z</time>
      </trkpt>
      <trkpt lat="44.41029" lon="5.53557">
        <ele>836.6</ele>
        <time>2023-03-20T09:53:35Z</time>
      </trkpt>
      <trkpt lat="44.41031" lon="5.53562">
        <ele>836.9</ele>
        <time>2023-03-20T09:53:36Z</time>
      </trkpt>
      <trkpt lat="44.41033" lon="5.53567">
        <ele>837.2</ele>
        <time>2023-03-20T09:53:37Z</time>
      </trkpt>
      <trkpt lat="44.41035" lon="5.53572">
        <ele>837.4</ele>
        <time>2023-03-20T09:53:38Z</time>
      </trkpt>
      <trkpt lat="44.41036" lon="5.53577">
        <ele>837.7</ele>
        <time>2023-03-20T09:53:39Z</time>
      </trkpt>
      <trkpt lat="44.41038" lon="5.53581">
        <ele>837.9</ele>
        <time>2023-03-20T09:53:40Z</time>
      </trkpt>
      <trkpt lat="44.4104" lon="5.53586">
        <ele>838.2</ele>
        <time>2023-03-20T09:53:41Z</time>
      </trkpt>
      <trkpt lat="44.41042" lon="5.53591">
        <ele>838.5</ele>
        <time>2023-03-20T09:53:42Z</time>
      </trkpt>
      <trkpt lat="44.41044" lon="5.53596">
        <ele>838.8</ele>
        <time>2023-03-20T09:53:43Z</time>
      </trkpt>
      <trkpt lat="44.41046" lon="5.53601">
        <ele>839</ele>
        <time>2023-03-20T09:53:44Z</time>
      </trkpt>
      <trkpt lat="44.41048" lon="5.53605">
        <ele>839.3</ele>
        <time>2023-03-20T09:53:45Z</time>
      </trkpt>
      <trkpt lat="44.4105" lon="5.5361">
        <ele>839.6</ele>
        <time>2023-03-20T09:53:46Z</time>
      </trkpt>
      <trkpt lat="44.41052" lon="5.53615">
        <ele>839.9</ele>
        <time>2023-03-20T09:53:47Z</time>
      </trkpt>
      <trkpt lat="44.41054" lon="5.53621">
        <ele>840.2</ele>
        <time>2023-03-20T09:53:48Z</time>
      </trkpt>
      <trkpt lat="44.41056" lon="5.53625">
        <ele>840.5</ele>
        <time>2023-03-20T09:53:49Z</time>
      </trkpt>
      <trkpt lat="44.41058" lon="5.5363">
        <ele>840.8</ele>
        <time>2023-03-20T09:53:50Z</time>
      </trkpt>
      <trkpt lat="44.4106" lon="5.53635">
        <ele>841</ele>
        <time>2023-03-20T09:53:51Z</time>
      </trkpt>
      <trkpt lat="44.41061" lon="5.53639">
        <ele>841.3</ele>
        <time>2023-03-20T09:53:52Z</time>
      </trkpt>
      <trkpt lat="44.41063" lon="5.53644">
        <ele>841.6</ele>
        <time>2023-03-20T09:53:53Z</time>
      </trkpt>
      <trkpt lat="44.41065" lon="5.53649">
        <ele>841.8</ele>
        <time>2023-03-20T09:53:54Z</time>
      </trkpt>
      <trkpt lat="44.41066" lon="5.53654">
        <ele>842.1</ele>
        <time>2023-03-20T09:53:55Z</time>
      </trkpt>
      <trkpt lat="44.41068" lon="5.53659">
        <ele>842.3</ele>
        <time>2023-03-20T09:53:56Z</time>
      </trkpt>
      <trkpt lat="44.4107" lon="5.53664">
        <ele>842.5</ele>
        <time>2023-03-20T09:53:57Z</time>
      </trkpt>
      <trkpt lat="44.41072" lon="5.53669">
        <ele>842.8</ele>
        <time>2023-03-20T09:53:58Z</time>
      </trkpt>
      <trkpt lat="44.41074" lon="5.53674">
        <ele>843.1</ele>
        <time>2023-03-20T09:53:59Z</time>
      </trkpt>
      <trkpt lat="44.41076" lon="5.53679">
        <ele>843.3</ele>
        <time>2023-03-20T09:54:00Z</time>
      </trkpt>
      <trkpt lat="44.41078" lon="5.53684">
        <ele>843.5</ele>
        <time>2023-03-20T09:54:01Z</time>
      </trkpt>
      <trkpt lat="44.41079" lon="5.53689">
        <ele>843.7</ele>
        <time>2023-03-20T09:54:02Z</time>
      </trkpt>
      <trkpt lat="44.41081" lon="5.53693">
        <ele>843.9</ele>
        <time>2023-03-20T09:54:03Z</time>
      </trkpt>
      <trkpt lat="44.41083" lon="5.53698">
        <ele>844.1</ele>
        <time>2023-03-20T09:54:04Z</time>
      </trkpt>
      <trkpt lat="44.41085" lon="5.53703">
        <ele>844.3</ele>
        <time>2023-03-20T09:54:05Z</time>
      </trkpt>
      <trkpt lat="44.41086" lon="5.53707">
        <ele>844.4</ele>
        <time>2023-03-20T09:54:06Z</time>
      </trkpt>
      <trkpt lat="44.41088" lon="5.53712">
        <ele>844.6</ele>
        <time>2023-03-20T09:54:07Z</time>
      </trkpt>
      <trkpt lat="44.4109" lon="5.53717">
        <ele>844.7</ele>
        <time>2023-03-20T09:54:08Z</time>
      </trkpt>
      <trkpt lat="44.41092" lon="5.53722">
        <ele>844.9</ele>
        <time>2023-03-20T09:54:09Z</time>
      </trkpt>
      <trkpt lat="44.41094" lon="5.53727">
        <ele>845</ele>
        <time>2023-03-20T09:54:10Z</time>
      </trkpt>
      <trkpt lat="44.41095" lon="5.53732">
        <ele>845.2</ele>
        <time>2023-03-20T09:54:11Z</time>
      </trkpt>
      <trkpt lat="44.41097" lon="5.53738">
        <ele>845.2</ele>
        <time>2023-03-20T09:54:12Z</time>
      </trkpt>
      <trkpt lat="44.41099" lon="5.53743">
        <ele>845.3</ele>
        <time>2023-03-20T09:54:13Z</time>
      </trkpt>
      <trkpt lat="44.411" lon="5.53749">
        <ele>845.4</ele>
        <time>2023-03-20T09:54:14Z</time>
      </trkpt>
      <trkpt lat="44.41102" lon="5.53754">
        <ele>845.4</ele>
        <time>2023-03-20T09:54:15Z</time>
      </trkpt>
      <trkpt lat="44.41103" lon="5.53759">
        <ele>845.5</ele>
        <time>2023-03-20T09:54:16Z</time>
      </trkpt>
      <trkpt lat="44.41105" lon="5.53764">
        <ele>845.5</ele>
        <time>2023-03-20T09:54:17Z</time>
      </trkpt>
      <trkpt lat="44.41107" lon="5.53769">
        <ele>845.6</ele>
        <time>2023-03-20T09:54:18Z</time>
      </trkpt>
      <trkpt lat="44.41108" lon="5.53774">
        <ele>845.6</ele>
        <time>2023-03-20T09:54:19Z</time>
      </trkpt>
      <trkpt lat="44.41109" lon="5.5378">
        <ele>845.7</ele>
        <time>2023-03-20T09:54:20Z</time>
      </trkpt>
      <trkpt lat="44.41111" lon="5.53787">
        <ele>845.7</ele>
        <time>2023-03-20T09:54:21Z</time>
      </trkpt>
      <trkpt lat="44.41112" lon="5.53792">
        <ele>845.7</ele>
        <time>2023-03-20T09:54:22Z</time>
      </trkpt>
      <trkpt lat="44.41113" lon="5.53799">
        <ele>845.7</ele>
        <time>2023-03-20T09:54:23Z</time>
      </trkpt>
      <trkpt lat="44.41114" lon="5.53805">
        <ele>845.7</ele>
        <time>2023-03-20T09:54:24Z</time>
      </trkpt>
      <trkpt lat="44.41115" lon="5.53811">
        <ele>845.7</ele>
        <time>2023-03-20T09:54:25Z</time>
      </trkpt>
      <trkpt lat="44.41117" lon="5.53818">
        <ele>845.7</ele>
        <time>2023-03-20T09:54:26Z</time>
      </trkpt>
      <trkpt lat="44.41118" lon="5.53824">
        <ele>845.6</ele>
        <time>2023-03-20T09:54:27Z</time>
      </trkpt>
      <trkpt lat="44.41119" lon="5.53831">
        <ele>845.5</ele>
        <time>2023-03-20T09:54:28Z</time>
      </trkpt>
      <trkpt lat="44.4112" lon="5.53838">
        <ele>845.5</ele>
        <time>2023-03-20T09:54:29Z</time>
      </trkpt>
      <trkpt lat="44.41122" lon="5.53845">
        <ele>845.4</ele>
        <time>2023-03-20T09:54:30Z</time>
      </trkpt>
      <trkpt lat="44.41123" lon="5.53852">
        <ele>845.2</ele>
        <time>2023-03-20T09:54:31Z</time>
      </trkpt>
      <trkpt lat="44.41124" lon="5.53859">
        <ele>845.1</ele>
        <time>2023-03-20T09:54:32Z</time>
      </trkpt>
      <trkpt lat="44.41125" lon="5.53866">
        <ele>845</ele>
        <time>2023-03-20T09:54:33Z</time>
      </trkpt>
      <trkpt lat="44.41126" lon="5.53873">
        <ele>844.9</ele>
        <time>2023-03-20T09:54:34Z</time>
      </trkpt>
      <trkpt lat="44.41127" lon="5.5388">
        <ele>844.8</ele>
        <time>2023-03-20T09:54:35Z</time>
      </trkpt>
      <trkpt lat="44.41128" lon="5.53887">
        <ele>844.6</ele>
        <time>2023-03-20T09:54:36Z</time>
      </trkpt>
      <trkpt lat="44.41128" lon="5.53895">
        <ele>844.5</ele>
        <time>2023-03-20T09:54:37Z</time>
      </trkpt>
      <trkpt lat="44.41128" lon="5.53903">
        <ele>844.3</ele>
        <time>2023-03-20T09:54:38Z</time>
      </trkpt>
      <trkpt lat="44.41128" lon="5.53911">
        <ele>844.2</ele>
        <time>2023-03-20T09:54:39Z</time>
      </trkpt>
      <trkpt lat="44.41127" lon="5.53919">
        <ele>844.1</ele>
        <time>2023-03-20T09:54:40Z</time>
      </trkpt>
      <trkpt lat="44.41126" lon="5.53927">
        <ele>844</ele>
        <time>2023-03-20T09:54:41Z</time>
      </trkpt>
      <trkpt lat="44.41125" lon="5.53934">
        <ele>843.9</ele>
        <time>2023-03-20T09:54:42Z</time>
      </trkpt>
      <trkpt lat="44.41124" lon="5.53942">
        <ele>843.7</ele>
        <time>2023-03-20T09:54:43Z</time>
      </trkpt>
      <trkpt lat="44.41122" lon="5.5395">
        <ele>843.7</ele>
        <time>2023-03-20T09:54:44Z</time>
      </trkpt>
      <trkpt lat="44.4112" lon="5.53957">
        <ele>843.6</ele>
        <time>2023-03-20T09:54:45Z</time>
      </trkpt>
      <trkpt lat="44.41118" lon="5.53965">
        <ele>843.5</ele>
        <time>2023-03-20T09:54:46Z</time>
      </trkpt>
      <trkpt lat="44.41115" lon="5.53972">
        <ele>843.5</ele>
        <time>2023-03-20T09:54:47Z</time>
      </trkpt>
      <trkpt lat="44.41112" lon="5.53978">
        <ele>843.5</ele>
        <time>2023-03-20T09:54:48Z</time>
      </trkpt>
      <trkpt lat="44.41109" lon="5.53985">
        <ele>843.5</ele>
        <time>2023-03-20T09:54:49Z</time>
      </trkpt>
      <trkpt lat="44.41106" lon="5.53992">
        <ele>843.5</ele>
        <time>2023-03-20T09:54:50Z</time>
      </trkpt>
      <trkpt lat="44.41102" lon="5.53998">
        <ele>843.5</ele>
        <time>2023-03-20T09:54:51Z</time>
      </trkpt>
      <trkpt lat="44.41099" lon="5.54004">
        <ele>843.5</ele>
        <time>2023-03-20T09:54:52Z</time>
      </trkpt>
      <trkpt lat="44.41095" lon="5.54009">
        <ele>843.5</ele>
        <time>2023-03-20T09:54:53Z</time>
      </trkpt>
      <trkpt lat="44.41091" lon="5.54015">
        <ele>843.5</ele>
        <time>2023-03-20T09:54:54Z</time>
      </trkpt>
      <trkpt lat="44.41087" lon="5.54021">
        <ele>843.5</ele>
        <time>2023-03-20T09:54:55Z</time>
      </trkpt>
      <trkpt lat="44.41082" lon="5.54026">
        <ele>843.5</ele>
        <time>2023-03-20T09:54:56Z</time>
      </trkpt>
      <trkpt lat="44.41078" lon="5.54031">
        <ele>843.5</ele>
        <time>2023-03-20T09:54:57Z</time>
      </trkpt>
      <trkpt lat="44.41073" lon="5.54036">
        <ele>843.5</ele>
        <time>2023-03-20T09:54:58Z</time>
      </trkpt>
      <trkpt lat="44.41069" lon="5.54041">
        <ele>843.5</ele>
        <time>2023-03-20T09:54:59Z</time>
      </trkpt>
      <trkpt lat="44.41064" lon="5.54047">
        <ele>843.6</ele>
        <time>2023-03-20T09:55:00Z</time>
      </trkpt>
      <trkpt lat="44.4106" lon="5.54052">
        <ele>843.6</ele>
        <time>2023-03-20T09:55:01Z</time>
      </trkpt>
      <trkpt lat="44.41055" lon="5.54058">
        <ele>843.6</ele>
        <time>2023-03-20T09:55:02Z</time>
      </trkpt>
      <trkpt lat="44.41051" lon="5.54063">
        <ele>843.6</ele>
        <time>2023-03-20T09:55:03Z</time>
      </trkpt>
      <trkpt lat="44.41047" lon="5.54068">
        <ele>843.7</ele>
        <time>2023-03-20T09:55:04Z</time>
      </trkpt>
      <trkpt lat="44.41043" lon="5.54073">
        <ele>843.8</ele>
        <time>2023-03-20T09:55:05Z</time>
      </trkpt>
      <trkpt lat="44.41039" lon="5.54079">
        <ele>843.9</ele>
        <time>2023-03-20T09:55:06Z</time>
      </trkpt>
      <trkpt lat="44.41036" lon="5.54084">
        <ele>844</ele>
        <time>2023-03-20T09:55:07Z</time>
      </trkpt>
      <trkpt lat="44.41031" lon="5.5409">
        <ele>844.2</ele>
        <time>2023-03-20T09:55:08Z</time>
      </trkpt>
      <trkpt lat="44.41028" lon="5.54096">
        <ele>844.3</ele>
        <time>2023-03-20T09:55:09Z</time>
      </trkpt>
      <trkpt lat="44.41024" lon="5.54101">
        <ele>844.4</ele>
        <time>2023-03-20T09:55:10Z</time>
      </trkpt>
      <trkpt lat="44.4102" lon="5.54107">
        <ele>844.5</ele>
        <time>2023-03-20T09:55:11Z</time>
      </trkpt>
      <trkpt lat="44.41016" lon="5.54113">
        <ele>844.6</ele>
        <time>2023-03-20T09:55:12Z</time>
      </trkpt>
      <trkpt lat="44.41013" lon="5.54118">
        <ele>844.7</ele>
        <time>2023-03-20T09:55:13Z</time>
      </trkpt>
      <trkpt lat="44.41009" lon="5.54123">
        <ele>844.8</ele>
        <time>2023-03-20T09:55:14Z</time>
      </trkpt>
      <trkpt lat="44.41006" lon="5.54129">
        <ele>845</ele>
        <time>2023-03-20T09:55:15Z</time>
      </trkpt>
      <trkpt lat="44.41002" lon="5.54135">
        <ele>845.1</ele>
        <time>2023-03-20T09:55:16Z</time>
      </trkpt>
      <trkpt lat="44.40999" lon="5.5414">
        <ele>845.3</ele>
        <time>2023-03-20T09:55:17Z</time>
      </trkpt>
      <trkpt lat="44.40997" lon="5.54147">
        <ele>845.4</ele>
        <time>2023-03-20T09:55:18Z</time>
      </trkpt>
      <trkpt lat="44.40994" lon="5.54154">
        <ele>845.5</ele>
        <time>2023-03-20T09:55:19Z</time>
      </trkpt>
      <trkpt lat="44.40992" lon="5.54161">
        <ele>845.6</ele>
        <time>2023-03-20T09:55:20Z</time>
      </trkpt>
      <trkpt lat="44.40989" lon="5.54168">
        <ele>845.8</ele>
        <time>2023-03-20T09:55:21Z</time>
      </trkpt>
      <trkpt lat="44.40986" lon="5.54174">
        <ele>845.9</ele>
        <time>2023-03-20T09:55:22Z</time>
      </trkpt>
      <trkpt lat="44.40984" lon="5.54181">
        <ele>846</ele>
        <time>2023-03-20T09:55:23Z</time>
      </trkpt>
      <trkpt lat="44.40981" lon="5.54188">
        <ele>846.2</ele>
        <time>2023-03-20T09:55:24Z</time>
      </trkpt>
      <trkpt lat="44.40979" lon="5.54195">
        <ele>846.3</ele>
        <time>2023-03-20T09:55:25Z</time>
      </trkpt>
      <trkpt lat="44.40977" lon="5.54202">
        <ele>846.5</ele>
        <time>2023-03-20T09:55:26Z</time>
      </trkpt>
      <trkpt lat="44.40975" lon="5.54209">
        <ele>846.6</ele>
        <time>2023-03-20T09:55:27Z</time>
      </trkpt>
      <trkpt lat="44.40973" lon="5.54216">
        <ele>846.7</ele>
        <time>2023-03-20T09:55:28Z</time>
      </trkpt>
      <trkpt lat="44.40971" lon="5.54222">
        <ele>846.7</ele>
        <time>2023-03-20T09:55:29Z</time>
      </trkpt>
      <trkpt lat="44.4097" lon="5.5423">
        <ele>846.8</ele>
        <time>2023-03-20T09:55:30Z</time>
      </trkpt>
      <trkpt lat="44.40969" lon="5.54237">
        <ele>846.9</ele>
        <time>2023-03-20T09:55:31Z</time>
      </trkpt>
      <trkpt lat="44.40968" lon="5.54244">
        <ele>846.9</ele>
        <time>2023-03-20T09:55:32Z</time>
      </trkpt>
      <trkpt lat="44.40967" lon="5.54251">
        <ele>846.9</ele>
        <time>2023-03-20T09:55:33Z</time>
      </trkpt>
      <trkpt lat="44.40966" lon="5.54258">
        <ele>846.9</ele>
        <time>2023-03-20T09:55:34Z</time>
      </trkpt>
      <trkpt lat="44.40965" lon="5.54266">
        <ele>846.9</ele>
        <time>2023-03-20T09:55:35Z</time>
      </trkpt>
      <trkpt lat="44.40964" lon="5.54274">
        <ele>846.9</ele>
        <time>2023-03-20T09:55:36Z</time>
      </trkpt>
      <trkpt lat="44.40963" lon="5.54281">
        <ele>846.9</ele>
        <time>2023-03-20T09:55:37Z</time>
      </trkpt>
      <trkpt lat="44.40962" lon="5.54289">
        <ele>846.9</ele>
        <time>2023-03-20T09:55:38Z</time>
      </trkpt>
      <trkpt lat="44.40961" lon="5.54298">
        <ele>846.8</ele>
        <time>2023-03-20T09:55:39Z</time>
      </trkpt>
      <trkpt lat="44.40961" lon="5.54306">
        <ele>846.8</ele>
        <time>2023-03-20T09:55:40Z</time>
      </trkpt>
      <trkpt lat="44.40961" lon="5.54313">
        <ele>846.7</ele>
        <time>2023-03-20T09:55:41Z</time>
      </trkpt>
      <trkpt lat="44.40961" lon="5.54321">
        <ele>846.6</ele>
        <time>2023-03-20T09:55:42Z</time>
      </trkpt>
      <trkpt lat="44.40961" lon="5.54329">
        <ele>846.5</ele>
        <time>2023-03-20T09:55:43Z</time>
      </trkpt>
      <trkpt lat="44.40961" lon="5.54337">
        <ele>846.3</ele>
        <time>2023-03-20T09:55:44Z</time>
      </trkpt>
      <trkpt lat="44.40962" lon="5.54345">
        <ele>846.1</ele>
        <time>2023-03-20T09:55:45Z</time>
      </trkpt>
      <trkpt lat="44.40962" lon="5.54353">
        <ele>846</ele>
        <time>2023-03-20T09:55:46Z</time>
      </trkpt>
      <trkpt lat="44.40963" lon="5.54361">
        <ele>845.8</ele>
        <time>2023-03-20T09:55:47Z</time>
      </trkpt>
      <trkpt lat="44.40964" lon="5.5437">
        <ele>845.5</ele>
        <time>2023-03-20T09:55:48Z</time>
      </trkpt>
      <trkpt lat="44.40965" lon="5.54378">
        <ele>845.2</ele>
        <time>2023-03-20T09:55:49Z</time>
      </trkpt>
      <trkpt lat="44.40966" lon="5.54387">
        <ele>844.9</ele>
        <time>2023-03-20T09:55:50Z</time>
      </trkpt>
      <trkpt lat="44.40968" lon="5.54396">
        <ele>844.6</ele>
        <time>2023-03-20T09:55:51Z</time>
      </trkpt>
      <trkpt lat="44.4097" lon="5.54404">
        <ele>844.2</ele>
        <time>2023-03-20T09:55:52Z</time>
      </trkpt>
      <trkpt lat="44.40972" lon="5.54413">
        <ele>843.9</ele>
        <time>2023-03-20T09:55:53Z</time>
      </trkpt>
      <trkpt lat="44.40975" lon="5.54422">
        <ele>843.5</ele>
        <time>2023-03-20T09:55:54Z</time>
      </trkpt>
      <trkpt lat="44.40977" lon="5.54432">
        <ele>843.1</ele>
        <time>2023-03-20T09:55:55Z</time>
      </trkpt>
      <trkpt lat="44.4098" lon="5.54442">
        <ele>842.7</ele>
        <time>2023-03-20T09:55:56Z</time>
      </trkpt>
      <trkpt lat="44.40982" lon="5.54452">
        <ele>842.2</ele>
        <time>2023-03-20T09:55:57Z</time>
      </trkpt>
      <trkpt lat="44.40986" lon="5.54463">
        <ele>841.7</ele>
        <time>2023-03-20T09:55:58Z</time>
      </trkpt>
      <trkpt lat="44.40989" lon="5.54474">
        <ele>841.2</ele>
        <time>2023-03-20T09:55:59Z</time>
      </trkpt>
      <trkpt lat="44.40992" lon="5.54484">
        <ele>840.8</ele>
        <time>2023-03-20T09:56:00Z</time>
      </trkpt>
      <trkpt lat="44.40996" lon="5.54493">
        <ele>840.4</ele>
        <time>2023-03-20T09:56:01Z</time>
      </trkpt>
      <trkpt lat="44.41001" lon="5.54502">
        <ele>840</ele>
        <time>2023-03-20T09:56:02Z</time>
      </trkpt>
      <trkpt lat="44.41006" lon="5.5451">
        <ele>839.7</ele>
        <time>2023-03-20T09:56:03Z</time>
      </trkpt>
      <trkpt lat="44.4101" lon="5.5452">
        <ele>839.3</ele>
        <time>2023-03-20T09:56:04Z</time>
      </trkpt>
      <trkpt lat="44.41014" lon="5.5453">
        <ele>838.9</ele>
        <time>2023-03-20T09:56:05Z</time>
      </trkpt>
      <trkpt lat="44.41019" lon="5.5454">
        <ele>838.5</ele>
        <time>2023-03-20T09:56:06Z</time>
      </trkpt>
      <trkpt lat="44.41025" lon="5.5455">
        <ele>838.1</ele>
        <time>2023-03-20T09:56:07Z</time>
      </trkpt>
      <trkpt lat="44.41031" lon="5.5456">
        <ele>838.4</ele>
        <time>2023-03-20T09:56:08Z</time>
      </trkpt>
      <trkpt lat="44.41037" lon="5.54569">
        <ele>838.8</ele>
        <time>2023-03-20T09:56:09Z</time>
      </trkpt>
      <trkpt lat="44.41042" lon="5.5458">
        <ele>839.2</ele>
        <time>2023-03-20T09:56:10Z</time>
      </trkpt>
      <trkpt lat="44.41046" lon="5.54591">
        <ele>839.6</ele>
        <time>2023-03-20T09:56:11Z</time>
      </trkpt>
      <trkpt lat="44.41049" lon="5.54601">
        <ele>840</ele>
        <time>2023-03-20T09:56:12Z</time>
      </trkpt>
      <trkpt lat="44.41053" lon="5.54612">
        <ele>840.4</ele>
        <time>2023-03-20T09:56:13Z</time>
      </trkpt>
      <trkpt lat="44.41056" lon="5.54622">
        <ele>840.7</ele>
        <time>2023-03-20T09:56:14Z</time>
      </trkpt>
      <trkpt lat="44.4106" lon="5.54631">
        <ele>841</ele>
        <time>2023-03-20T09:56:15Z</time>
      </trkpt>
      <trkpt lat="44.41063" lon="5.54639">
        <ele>841.3</ele>
        <time>2023-03-20T09:56:16Z</time>
      </trkpt>
      <trkpt lat="44.41066" lon="5.54646">
        <ele>841.6</ele>
        <time>2023-03-20T09:56:17Z</time>
      </trkpt>
      <trkpt lat="44.41069" lon="5.54653">
        <ele>841.9</ele>
        <time>2023-03-20T09:56:18Z</time>
      </trkpt>
      <trkpt lat="44.41072" lon="5.54659">
        <ele>842.1</ele>
        <time>2023-03-20T09:56:19Z</time>
      </trkpt>
      <trkpt lat="44.41076" lon="5.54664">
        <ele>842.4</ele>
        <time>2023-03-20T09:56:20Z</time>
      </trkpt>
      <trkpt lat="44.41079" lon="5.5467">
        <ele>842.6</ele>
        <time>2023-03-20T09:56:21Z</time>
      </trkpt>
      <trkpt lat="44.41083" lon="5.54675">
        <ele>842.8</ele>
        <time>2023-03-20T09:56:22Z</time>
      </trkpt>
      <trkpt lat="44.41086" lon="5.54681">
        <ele>843.1</ele>
        <time>2023-03-20T09:56:23Z</time>
      </trkpt>
      <trkpt lat="44.41089" lon="5.54687">
        <ele>843.3</ele>
        <time>2023-03-20T09:56:24Z</time>
      </trkpt>
      <trkpt lat="44.41093" lon="5.54693">
        <ele>843.6</ele>
        <time>2023-03-20T09:56:25Z</time>
      </trkpt>
      <trkpt lat="44.41096" lon="5.54699">
        <ele>843.8</ele>
        <time>2023-03-20T09:56:26Z</time>
      </trkpt>
      <trkpt lat="44.411" lon="5.54705">
        <ele>844.1</ele>
        <time>2023-03-20T09:56:27Z</time>
      </trkpt>
      <trkpt lat="44.41103" lon="5.54711">
        <ele>844.3</ele>
        <time>2023-03-20T09:56:28Z</time>
      </trkpt>
      <trkpt lat="44.41107" lon="5.54717">
        <ele>844.6</ele>
        <time>2023-03-20T09:56:29Z</time>
      </trkpt>
      <trkpt lat="44.4111" lon="5.54723">
        <ele>844.8</ele>
        <time>2023-03-20T09:56:30Z</time>
      </trkpt>
      <trkpt lat="44.41114" lon="5.54729">
        <ele>845.1</ele>
        <time>2023-03-20T09:56:31Z</time>
      </trkpt>
      <trkpt lat="44.41117" lon="5.54735">
        <ele>845.3</ele>
        <time>2023-03-20T09:56:32Z</time>
      </trkpt>
      <trkpt lat="44.41121" lon="5.54741">
        <ele>845.6</ele>
        <time>2023-03-20T09:56:33Z</time>
      </trkpt>
      <trkpt lat="44.41125" lon="5.54747">
        <ele>845.8</ele>
        <time>2023-03-20T09:56:34Z</time>
      </trkpt>
      <trkpt lat="44.41129" lon="5.54753">
        <ele>846.1</ele>
        <time>2023-03-20T09:56:35Z</time>
      </trkpt>
      <trkpt lat="44.41134" lon="5.54758">
        <ele>846.4</ele>
        <time>2023-03-20T09:56:36Z</time>
      </trkpt>
      <trkpt lat="44.41139" lon="5.54763">
        <ele>846.6</ele>
        <time>2023-03-20T09:56:37Z</time>
      </trkpt>
      <trkpt lat="44.41143" lon="5.54768">
        <ele>846.9</ele>
        <time>2023-03-20T09:56:38Z</time>
      </trkpt>
      <trkpt lat="44.41147" lon="5.54773">
        <ele>847.2</ele>
        <time>2023-03-20T09:56:39Z</time>
      </trkpt>
      <trkpt lat="44.41152" lon="5.54778">
        <ele>847.4</ele>
        <time>2023-03-20T09:56:40Z</time>
      </trkpt>
      <trkpt lat="44.41156" lon="5.54783">
        <ele>847.7</ele>
        <time>2023-03-20T09:56:41Z</time>
      </trkpt>
      <trkpt lat="44.41161" lon="5.54788">
        <ele>847.9</ele>
        <time>2023-03-20T09:56:42Z</time>
      </trkpt>
      <trkpt lat="44.41165" lon="5.54794">
        <ele>848.2</ele>
        <time>2023-03-20T09:56:43Z</time>
      </trkpt>
      <trkpt lat="44.4117" lon="5.54798">
        <ele>848.5</ele>
        <time>2023-03-20T09:56:44Z</time>
      </trkpt>
      <trkpt lat="44.41174" lon="5.54804">
        <ele>848.7</ele>
        <time>2023-03-20T09:56:45Z</time>
      </trkpt>
      <trkpt lat="44.41178" lon="5.54809">
        <ele>849</ele>
        <time>2023-03-20T09:56:46Z</time>
      </trkpt>
      <trkpt lat="44.41181" lon="5.54814">
        <ele>849.2</ele>
        <time>2023-03-20T09:56:47Z</time>
      </trkpt>
      <trkpt lat="44.41185" lon="5.54819">
        <ele>849.4</ele>
        <time>2023-03-20T09:56:48Z</time>
      </trkpt>
      <trkpt lat="44.41189" lon="5.54824">
        <ele>849.7</ele>
        <time>2023-03-20T09:56:49Z</time>
      </trkpt>
      <trkpt lat="44.41193" lon="5.54828">
        <ele>849.9</ele>
        <time>2023-03-20T09:56:50Z</time>
      </trkpt>
      <trkpt lat="44.41197" lon="5.54833">
        <ele>850.1</ele>
        <time>2023-03-20T09:56:51Z</time>
      </trkpt>
      <trkpt lat="44.412" lon="5.54838">
        <ele>850.3</ele>
        <time>2023-03-20T09:56:52Z</time>
      </trkpt>
      <trkpt lat="44.41203" lon="5.54842">
        <ele>850.5</ele>
        <time>2023-03-20T09:56:53Z</time>
      </trkpt>
      <trkpt lat="44.41206" lon="5.54847">
        <ele>850.8</ele>
        <time>2023-03-20T09:56:54Z</time>
      </trkpt>
      <trkpt lat="44.41209" lon="5.54851">
        <ele>851</ele>
        <time>2023-03-20T09:56:55Z</time>
      </trkpt>
      <trkpt lat="44.41213" lon="5.54856">
        <ele>851.2</ele>
        <time>2023-03-20T09:56:56Z</time>
      </trkpt>
      <trkpt lat="44.41215" lon="5.54861">
        <ele>851.4</ele>
        <time>2023-03-20T09:56:57Z</time>
      </trkpt>
      <trkpt lat="44.41218" lon="5.54866">
        <ele>851.6</ele>
        <time>2023-03-20T09:56:58Z</time>
      </trkpt>
      <trkpt lat="44.4122" lon="5.54871">
        <ele>851.8</ele>
        <time>2023-03-20T09:56:59Z</time>
      </trkpt>
      <trkpt lat="44.41223" lon="5.54876">
        <ele>852</ele>
        <time>2023-03-20T09:57:00Z</time>
      </trkpt>
      <trkpt lat="44.41225" lon="5.5488">
        <ele>852.1</ele>
        <time>2023-03-20T09:57:01Z</time>
      </trkpt>
      <trkpt lat="44.41228" lon="5.54885">
        <ele>852.3</ele>
        <time>2023-03-20T09:57:02Z</time>
      </trkpt>
      <trkpt lat="44.41231" lon="5.54889">
        <ele>852.5</ele>
        <time>2023-03-20T09:57:03Z</time>
      </trkpt>
      <trkpt lat="44.41233" lon="5.54894">
        <ele>852.7</ele>
        <time>2023-03-20T09:57:04Z</time>
      </trkpt>
      <trkpt lat="44.41235" lon="5.54899">
        <ele>852.9</ele>
        <time>2023-03-20T09:57:05Z</time>
      </trkpt>
      <trkpt lat="44.41237" lon="5.54904">
        <ele>853.1</ele>
        <time>2023-03-20T09:57:06Z</time>
      </trkpt>
      <trkpt lat="44.41239" lon="5.54909">
        <ele>853.3</ele>
        <time>2023-03-20T09:57:07Z</time>
      </trkpt>
      <trkpt lat="44.41241" lon="5.54914">
        <ele>853.5</ele>
        <time>2023-03-20T09:57:08Z</time>
      </trkpt>
      <trkpt lat="44.41244" lon="5.54919">
        <ele>853.7</ele>
        <time>2023-03-20T09:57:09Z</time>
      </trkpt>
      <trkpt lat="44.41246" lon="5.54923">
        <ele>853.8</ele>
        <time>2023-03-20T09:57:10Z</time>
      </trkpt>
      <trkpt lat="44.41249" lon="5.54928">
        <ele>854</ele>
        <time>2023-03-20T09:57:11Z</time>
      </trkpt>
      <trkpt lat="44.41251" lon="5.54933">
        <ele>854.2</ele>
        <time>2023-03-20T09:57:12Z</time>
      </trkpt>
      <trkpt lat="44.41253" lon="5.54938">
        <ele>854.4</ele>
        <time>2023-03-20T09:57:13Z</time>
      </trkpt>
      <trkpt lat="44.41255" lon="5.54943">
        <ele>854.6</ele>
        <time>2023-03-20T09:57:14Z</time>
      </trkpt>
      <trkpt lat="44.41258" lon="5.54948">
        <ele>854.8</ele>
        <time>2023-03-20T09:57:15Z</time>
      </trkpt>
      <trkpt lat="44.4126" lon="5.54953">
        <ele>855</ele>
        <time>2023-03-20T09:57:16Z</time>
      </trkpt>
      <trkpt lat="44.41263" lon="5.54958">
        <ele>855.2</ele>
        <time>2023-03-20T09:57:17Z</time>
      </trkpt>
      <trkpt lat="44.41265" lon="5.54963">
        <ele>855.4</ele>
        <time>2023-03-20T09:57:18Z</time>
      </trkpt>
      <trkpt lat="44.41268" lon="5.54968">
        <ele>855.6</ele>
        <time>2023-03-20T09:57:19Z</time>
      </trkpt>
      <trkpt lat="44.41271" lon="5.54972">
        <ele>855.8</ele>
        <time>2023-03-20T09:57:20Z</time>
      </trkpt>
      <trkpt lat="44.41274" lon="5.54977">
        <ele>856</ele>
        <time>2023-03-20T09:57:21Z</time>
      </trkpt>
      <trkpt lat="44.41277" lon="5.54981">
        <ele>856.2</ele>
        <time>2023-03-20T09:57:22Z</time>
      </trkpt>
      <trkpt lat="44.4128" lon="5.54984">
        <ele>856.4</ele>
        <time>2023-03-20T09:57:23Z</time>
      </trkpt>
      <trkpt lat="44.41284" lon="5.54987">
        <ele>856.6</ele>
        <time>2023-03-20T09:57:24Z</time>
      </trkpt>
      <trkpt lat="44.41289" lon="5.54988">
        <ele>856.8</ele>
        <time>2023-03-20T09:57:25Z</time>
      </trkpt>
      <trkpt lat="44.41293" lon="5.54989">
        <ele>857</ele>
        <time>2023-03-20T09:57:26Z</time>
      </trkpt>
      <trkpt lat="44.41297" lon="5.5499">
        <ele>857.1</ele>
        <time>2023-03-20T09:57:27Z</time>
      </trkpt>
      <trkpt lat="44.41301" lon="5.54989">
        <ele>857.3</ele>
        <time>2023-03-20T09:57:28Z</time>
      </trkpt>
      <trkpt lat="44.41305" lon="5.54989">
        <ele>857.5</ele>
        <time>2023-03-20T09:57:29Z</time>
      </trkpt>
      <trkpt lat="44.41309" lon="5.54989">
        <ele>857.7</ele>
        <time>2023-03-20T09:57:30Z</time>
      </trkpt>
      <trkpt lat="44.41313" lon="5.54988">
        <ele>857.9</ele>
        <time>2023-03-20T09:57:31Z</time>
      </trkpt>
      <trkpt lat="44.41317" lon="5.5499">
        <ele>858.1</ele>
        <time>2023-03-20T09:57:32Z</time>
      </trkpt>
      <trkpt lat="44.41321" lon="5.54993">
        <ele>858.3</ele>
        <time>2023-03-20T09:57:33Z</time>
      </trkpt>
      <trkpt lat="44.41324" lon="5.54997">
        <ele>858.4</ele>
        <time>2023-03-20T09:57:34Z</time>
      </trkpt>
      <trkpt lat="44.41325" lon="5.55002">
        <ele>858.6</ele>
        <time>2023-03-20T09:57:35Z</time>
      </trkpt>
      <trkpt lat="44.41325" lon="5.55006">
        <ele>858.8</ele>
        <time>2023-03-20T09:57:36Z</time>
      </trkpt>
      <trkpt lat="44.41326" lon="5.5501">
        <ele>858.9</ele>
        <time>2023-03-20T09:57:37Z</time>
      </trkpt>
      <trkpt lat="44.41326" lon="5.55015">
        <ele>859</ele>
        <time>2023-03-20T09:57:38Z</time>
      </trkpt>
      <trkpt lat="44.41327" lon="5.55019">
        <ele>859.2</ele>
        <time>2023-03-20T09:57:39Z</time>
      </trkpt>
      <trkpt lat="44.41329" lon="5.55024">
        <ele>859.4</ele>
        <time>2023-03-20T09:57:40Z</time>
      </trkpt>
      <trkpt lat="44.41329" lon="5.55028">
        <ele>859.5</ele>
        <time>2023-03-20T09:57:41Z</time>
      </trkpt>
      <trkpt lat="44.41331" lon="5.55033">
        <ele>859.7</ele>
        <time>2023-03-20T09:57:42Z</time>
      </trkpt>
      <trkpt lat="44.41332" lon="5.55037">
        <ele>859.8</ele>
        <time>2023-03-20T09:57:43Z</time>
      </trkpt>
      <trkpt lat="44.41334" lon="5.55041">
        <ele>860</ele>
        <time>2023-03-20T09:57:44Z</time>
      </trkpt>
      <trkpt lat="44.41336" lon="5.55044">
        <ele>860.1</ele>
        <time>2023-03-20T09:57:45Z</time>
      </trkpt>
      <trkpt lat="44.41338" lon="5.55048">
        <ele>860.3</ele>
        <time>2023-03-20T09:57:46Z</time>
      </trkpt>
      <trkpt lat="44.4134" lon="5.55051">
        <ele>860.4</ele>
        <time>2023-03-20T09:57:47Z</time>
      </trkpt>
      <trkpt lat="44.41342" lon="5.55055">
        <ele>860.5</ele>
        <time>2023-03-20T09:57:48Z</time>
      </trkpt>
      <trkpt lat="44.41344" lon="5.55058">
        <ele>860.7</ele>
        <time>2023-03-20T09:57:49Z</time>
      </trkpt>
      <trkpt lat="44.41346" lon="5.55062">
        <ele>860.8</ele>
        <time>2023-03-20T09:57:50Z</time>
      </trkpt>
      <trkpt lat="44.41348" lon="5.55065">
        <ele>861</ele>
        <time>2023-03-20T09:57:51Z</time>
      </trkpt>
      <trkpt lat="44.4135" lon="5.55069">
        <ele>861.1</ele>
        <time>2023-03-20T09:57:52Z</time>
      </trkpt>
      <trkpt lat="44.41351" lon="5.55071">
        <ele>861.2</ele>
        <time>2023-03-20T09:57:53Z</time>
      </trkpt>
      <trkpt lat="44.41353" lon="5.55074">
        <ele>861.3</ele>
        <time>2023-03-20T09:57:54Z</time>
      </trkpt>
      <trkpt lat="44.41356" lon="5.55078">
        <ele>861.5</ele>
        <time>2023-03-20T09:57:55Z</time>
      </trkpt>
      <trkpt lat="44.41357" lon="5.55079">
        <ele>861.6</ele>
        <time>2023-03-20T09:57:56Z</time>
      </trkpt>
      <trkpt lat="44.41359" lon="5.55083">
        <ele>861.7</ele>
        <time>2023-03-20T09:57:57Z</time>
      </trkpt>
      <trkpt lat="44.4136" lon="5.55084">
        <ele>861.8</ele>
        <time>2023-03-20T09:57:58Z</time>
      </trkpt>
      <trkpt lat="44.41362" lon="5.55089">
        <ele>862</ele>
        <time>2023-03-20T09:57:59Z</time>
      </trkpt>
      <trkpt lat="44.41363" lon="5.5509">
        <ele>862</ele>
        <time>2023-03-20T09:58:00Z</time>
      </trkpt>
      <trkpt lat="44.41365" lon="5.55095">
        <ele>862.2</ele>
        <time>2023-03-20T09:58:01Z</time>
      </trkpt>
      <trkpt lat="44.41366" lon="5.55097">
        <ele>862.3</ele>
        <time>2023-03-20T09:58:02Z</time>
      </trkpt>
      <trkpt lat="44.41367" lon="5.551">
        <ele>862.4</ele>
        <time>2023-03-20T09:58:03Z</time>
      </trkpt>
      <trkpt lat="44.41369" lon="5.55104">
        <ele>862.5</ele>
        <time>2023-03-20T09:58:04Z</time>
      </trkpt>
      <trkpt lat="44.4137" lon="5.55108">
        <ele>862.7</ele>
        <time>2023-03-20T09:58:05Z</time>
      </trkpt>
      <trkpt lat="44.41371" lon="5.55112">
        <ele>862.8</ele>
        <time>2023-03-20T09:58:06Z</time>
      </trkpt>
      <trkpt lat="44.41372" lon="5.55115">
        <ele>863</ele>
        <time>2023-03-20T09:58:07Z</time>
      </trkpt>
      <trkpt lat="44.41373" lon="5.55119">
        <ele>863.1</ele>
        <time>2023-03-20T09:58:08Z</time>
      </trkpt>
      <trkpt lat="44.41374" lon="5.55123">
        <ele>863.2</ele>
        <time>2023-03-20T09:58:09Z</time>
      </trkpt>
      <trkpt lat="44.41376" lon="5.55126">
        <ele>863.3</ele>
        <time>2023-03-20T09:58:10Z</time>
      </trkpt>
      <trkpt lat="44.41377" lon="5.55131">
        <ele>863.5</ele>
        <time>2023-03-20T09:58:11Z</time>
      </trkpt>
      <trkpt lat="44.41378" lon="5.55133">
        <ele>863.6</ele>
        <time>2023-03-20T09:58:12Z</time>
      </trkpt>
      <trkpt lat="44.41379" lon="5.55138">
        <ele>863.8</ele>
        <time>2023-03-20T09:58:13Z</time>
      </trkpt>
      <trkpt lat="44.4138" lon="5.55139">
        <ele>863.8</ele>
        <time>2023-03-20T09:58:14Z</time>
      </trkpt>
      <trkpt lat="44.41382" lon="5.55144">
        <ele>864</ele>
        <time>2023-03-20T09:58:15Z</time>
      </trkpt>
      <trkpt lat="44.41382" lon="5.55145">
        <ele>864</ele>
        <time>2023-03-20T09:58:16Z</time>
      </trkpt>
      <trkpt lat="44.41384" lon="5.55149">
        <ele>864.2</ele>
        <time>2023-03-20T09:58:17Z</time>
      </trkpt>
      <trkpt lat="44.41385" lon="5.55151">
        <ele>864.2</ele>
        <time>2023-03-20T09:58:18Z</time>
      </trkpt>
      <trkpt lat="44.41387" lon="5.55155">
        <ele>864.4</ele>
        <time>2023-03-20T09:58:19Z</time>
      </trkpt>
      <trkpt lat="44.41388" lon="5.55156">
        <ele>864.5</ele>
        <time>2023-03-20T09:58:20Z</time>
      </trkpt>
      <trkpt lat="44.4139" lon="5.5516">
        <ele>864.6</ele>
        <time>2023-03-20T09:58:21Z</time>
      </trkpt>
      <trkpt lat="44.41391" lon="5.55162">
        <ele>864.7</ele>
        <time>2023-03-20T09:58:22Z</time>
      </trkpt>
      <trkpt lat="44.41393" lon="5.55166">
        <ele>864.8</ele>
        <time>2023-03-20T09:58:23Z</time>
      </trkpt>
      <trkpt lat="44.41393" lon="5.55167">
        <ele>864.9</ele>
        <time>2023-03-20T09:58:24Z</time>
      </trkpt>
      <trkpt lat="44.41396" lon="5.5517">
        <ele>865</ele>
        <time>2023-03-20T09:58:25Z</time>
      </trkpt>
      <trkpt lat="44.41397" lon="5.55171">
        <ele>865.1</ele>
        <time>2023-03-20T09:58:26Z</time>
      </trkpt>
      <trkpt lat="44.414" lon="5.55174">
        <ele>865.3</ele>
        <time>2023-03-20T09:58:27Z</time>
      </trkpt>
      <trkpt lat="44.41401" lon="5.55175">
        <ele>865.3</ele>
        <time>2023-03-20T09:58:28Z</time>
      </trkpt>
      <trkpt lat="44.41404" lon="5.55179">
        <ele>865.5</ele>
        <time>2023-03-20T09:58:29Z</time>
      </trkpt>
      <trkpt lat="44.41405" lon="5.5518">
        <ele>865.5</ele>
        <time>2023-03-20T09:58:30Z</time>
      </trkpt>
      <trkpt lat="44.41407" lon="5.55183">
        <ele>865.7</ele>
        <time>2023-03-20T09:58:31Z</time>
      </trkpt>
      <trkpt lat="44.41408" lon="5.55185">
        <ele>865.8</ele>
        <time>2023-03-20T09:58:32Z</time>
      </trkpt>
      <trkpt lat="44.4141" lon="5.55188">
        <ele>865.9</ele>
        <time>2023-03-20T09:58:33Z</time>
      </trkpt>
      <trkpt lat="44.41411" lon="5.5519">
        <ele>866</ele>
        <time>2023-03-20T09:58:34Z</time>
      </trkpt>
      <trkpt lat="44.41414" lon="5.55193">
        <ele>866.2</ele>
        <time>2023-03-20T09:58:35Z</time>
      </trkpt>
      <trkpt lat="44.41415" lon="5.55195">
        <ele>866.2</ele>
        <time>2023-03-20T09:58:36Z</time>
      </trkpt>
      <trkpt lat="44.41417" lon="5.55197">
        <ele>866.3</ele>
        <time>2023-03-20T09:58:37Z</time>
      </trkpt>
      <trkpt lat="44.41419" lon="5.55201">
        <ele>866.5</ele>
        <time>2023-03-20T09:58:38Z</time>
      </trkpt>
      <trkpt lat="44.4142" lon="5.55203">
        <ele>866.6</ele>
        <time>2023-03-20T09:58:39Z</time>
      </trkpt>
      <trkpt lat="44.41423" lon="5.55207">
        <ele>866.8</ele>
        <time>2023-03-20T09:58:40Z</time>
      </trkpt>
      <trkpt lat="44.41424" lon="5.55208">
        <ele>866.8</ele>
        <time>2023-03-20T09:58:41Z</time>
      </trkpt>
      <trkpt lat="44.41427" lon="5.55212">
        <ele>867</ele>
        <time>2023-03-20T09:58:42Z</time>
      </trkpt>
      <trkpt lat="44.41428" lon="5.55213">
        <ele>867.1</ele>
        <time>2023-03-20T09:58:43Z</time>
      </trkpt>
      <trkpt lat="44.4143" lon="5.55218">
        <ele>867.2</ele>
        <time>2023-03-20T09:58:44Z</time>
      </trkpt>
      <trkpt lat="44.4143" lon="5.55219">
        <ele>867.3</ele>
        <time>2023-03-20T09:58:45Z</time>
      </trkpt>
      <trkpt lat="44.41432" lon="5.55224">
        <ele>867.3</ele>
        <time>2023-03-20T09:58:46Z</time>
      </trkpt>
      <trkpt lat="44.41432" lon="5.55225">
        <ele>867.3</ele>
        <time>2023-03-20T09:58:47Z</time>
      </trkpt>
      <trkpt lat="44.41432" lon="5.55229">
        <ele>867.3</ele>
        <time>2023-03-20T09:58:48Z</time>
      </trkpt>
      <trkpt lat="44.41432" lon="5.55233">
        <ele>867.3</ele>
        <time>2023-03-20T09:58:49Z</time>
      </trkpt>
      <trkpt lat="44.41433" lon="5.55237">
        <ele>867.4</ele>
        <time>2023-03-20T09:58:50Z</time>
      </trkpt>
      <trkpt lat="44.41433" lon="5.55241">
        <ele>867.4</ele>
        <time>2023-03-20T09:58:51Z</time>
      </trkpt>
      <trkpt lat="44.41433" lon="5.55245">
        <ele>867.4</ele>
        <time>2023-03-20T09:58:52Z</time>
      </trkpt>
      <trkpt lat="44.41433" lon="5.5525">
        <ele>867.4</ele>
        <time>2023-03-20T09:58:53Z</time>
      </trkpt>
      <trkpt lat="44.41433" lon="5.55252">
        <ele>867.4</ele>
        <time>2023-03-20T09:58:54Z</time>
      </trkpt>
      <trkpt lat="44.41433" lon="5.55257">
        <ele>867.3</ele>
        <time>2023-03-20T09:58:55Z</time>
      </trkpt>
      <trkpt lat="44.41432" lon="5.55259">
        <ele>867.3</ele>
        <time>2023-03-20T09:58:56Z</time>
      </trkpt>
      <trkpt lat="44.41433" lon="5.55265">
        <ele>867.2</ele>
        <time>2023-03-20T09:58:57Z</time>
      </trkpt>
      <trkpt lat="44.41433" lon="5.55267">
        <ele>867.2</ele>
        <time>2023-03-20T09:58:58Z</time>
      </trkpt>
      <trkpt lat="44.41433" lon="5.55271">
        <ele>867.1</ele>
        <time>2023-03-20T09:58:59Z</time>
      </trkpt>
      <trkpt lat="44.41433" lon="5.55276">
        <ele>867</ele>
        <time>2023-03-20T09:59:00Z</time>
      </trkpt>
      <trkpt lat="44.41433" lon="5.55278">
        <ele>867.1</ele>
        <time>2023-03-20T09:59:01Z</time>
      </trkpt>
      <trkpt lat="44.41433" lon="5.55283">
        <ele>867.1</ele>
        <time>2023-03-20T09:59:02Z</time>
      </trkpt>
      <trkpt lat="44.41433" lon="5.55285">
        <ele>867.2</ele>
        <time>2023-03-20T09:59:03Z</time>
      </trkpt>
      <trkpt lat="44.41432" lon="5.5529">
        <ele>867.2</ele>
        <time>2023-03-20T09:59:04Z</time>
      </trkpt>
      <trkpt lat="44.41432" lon="5.55292">
        <ele>867.2</ele>
        <time>2023-03-20T09:59:05Z</time>
      </trkpt>
      <trkpt lat="44.41432" lon="5.55297">
        <ele>867.2</ele>
        <time>2023-03-20T09:59:06Z</time>
      </trkpt>
      <trkpt lat="44.41432" lon="5.55299">
        <ele>867.2</ele>
        <time>2023-03-20T09:59:07Z</time>
      </trkpt>
      <trkpt lat="44.41432" lon="5.55303">
        <ele>867.2</ele>
        <time>2023-03-20T09:59:08Z</time>
      </trkpt>
      <trkpt lat="44.41431" lon="5.55308">
        <ele>867.1</ele>
        <time>2023-03-20T09:59:09Z</time>
      </trkpt>
      <trkpt lat="44.41429" lon="5.55313">
        <ele>867</ele>
        <time>2023-03-20T09:59:10Z</time>
      </trkpt>
      <trkpt lat="44.41428" lon="5.5532">
        <ele>866.9</ele>
        <time>2023-03-20T09:59:11Z</time>
      </trkpt>
      <trkpt lat="44.41427" lon="5.55327">
        <ele>866.5</ele>
        <time>2023-03-20T09:59:12Z</time>
      </trkpt>
      <trkpt lat="44.41425" lon="5.55335">
        <ele>865.9</ele>
        <time>2023-03-20T09:59:13Z</time>
      </trkpt>
      <trkpt lat="44.41423" lon="5.55344">
        <ele>865.4</ele>
        <time>2023-03-20T09:59:14Z</time>
      </trkpt>
      <trkpt lat="44.41421" lon="5.55352">
        <ele>864.8</ele>
        <time>2023-03-20T09:59:15Z</time>
      </trkpt>
      <trkpt lat="44.41419" lon="5.5536">
        <ele>864.3</ele>
        <time>2023-03-20T09:59:16Z</time>
      </trkpt>
      <trkpt lat="44.41417" lon="5.55369">
        <ele>863.9</ele>
        <time>2023-03-20T09:59:17Z</time>
      </trkpt>
      <trkpt lat="44.41414" lon="5.55378">
        <ele>863.4</ele>
        <time>2023-03-20T09:59:18Z</time>
      </trkpt>
      <trkpt lat="44.41412" lon="5.55385">
        <ele>862.9</ele>
        <time>2023-03-20T09:59:19Z</time>
      </trkpt>
      <trkpt lat="44.4141" lon="5.55392">
        <ele>862.3</ele>
        <time>2023-03-20T09:59:20Z</time>
      </trkpt>
      <trkpt lat="44.41408" lon="5.55399">
        <ele>861.9</ele>
        <time>2023-03-20T09:59:21Z</time>
      </trkpt>
      <trkpt lat="44.41406" lon="5.55405">
        <ele>861.7</ele>
        <time>2023-03-20T09:59:22Z</time>
      </trkpt>
      <trkpt lat="44.41405" lon="5.55411">
        <ele>861.5</ele>
        <time>2023-03-20T09:59:23Z</time>
      </trkpt>
      <trkpt lat="44.41404" lon="5.55416">
        <ele>861.3</ele>
        <time>2023-03-20T09:59:24Z</time>
      </trkpt>
      <trkpt lat="44.41403" lon="5.55421">
        <ele>861.2</ele>
        <time>2023-03-20T09:59:25Z</time>
      </trkpt>
      <trkpt lat="44.41401" lon="5.55424">
        <ele>861.1</ele>
        <time>2023-03-20T09:59:26Z</time>
      </trkpt>
      <trkpt lat="44.414" lon="5.55429">
        <ele>861</ele>
        <time>2023-03-20T09:59:27Z</time>
      </trkpt>
      <trkpt lat="44.41399" lon="5.5543">
        <ele>860.9</ele>
        <time>2023-03-20T09:59:28Z</time>
      </trkpt>
      <trkpt lat="44.41397" lon="5.55435">
        <ele>860.8</ele>
        <time>2023-03-20T09:59:29Z</time>
      </trkpt>
      <trkpt lat="44.41396" lon="5.55436">
        <ele>860.8</ele>
        <time>2023-03-20T09:59:30Z</time>
      </trkpt>
      <trkpt lat="44.41394" lon="5.55439">
        <ele>860.7</ele>
        <time>2023-03-20T09:59:31Z</time>
      </trkpt>
      <trkpt lat="44.41392" lon="5.55442">
        <ele>860.6</ele>
        <time>2023-03-20T09:59:32Z</time>
      </trkpt>
      <trkpt lat="44.41389" lon="5.55443">
        <ele>860.5</ele>
        <time>2023-03-20T09:59:33Z</time>
      </trkpt>
      <trkpt lat="44.41388" lon="5.55442">
        <ele>860.5</ele>
        <time>2023-03-20T09:59:34Z</time>
      </trkpt>
      <trkpt lat="44.41387" lon="5.55438">
        <ele>860.6</ele>
        <time>2023-03-20T09:59:35Z</time>
      </trkpt>
      <trkpt lat="44.41387" lon="5.55436">
        <ele>860.6</ele>
        <time>2023-03-20T09:59:36Z</time>
      </trkpt>
      <trkpt lat="44.41389" lon="5.55433">
        <ele>860.7</ele>
        <time>2023-03-20T09:59:37Z</time>
      </trkpt>
      <trkpt lat="44.4139" lon="5.55432">
        <ele>860.7</ele>
        <time>2023-03-20T09:59:38Z</time>
      </trkpt>
      <trkpt lat="44.41392" lon="5.55431">
        <ele>860.9</ele>
        <time>2023-03-20T09:59:39Z</time>
      </trkpt>
      <trkpt lat="44.41393" lon="5.5543">
        <ele>860.9</ele>
        <time>2023-03-20T09:59:40Z</time>
      </trkpt>
      <trkpt lat="44.41393" lon="5.55431">
        <ele>860.9</ele>
        <time>2023-03-20T09:59:41Z</time>
      </trkpt>
      <trkpt lat="44.41394" lon="5.55431">
        <ele>860.9</ele>
        <time>2023-03-20T09:59:42Z</time>
      </trkpt>
      <trkpt lat="44.41394" lon="5.55432">
        <ele>860.9</ele>
        <time>2023-03-20T09:59:43Z</time>
      </trkpt>
      <trkpt lat="44.41394" lon="5.55433">
        <ele>860.9</ele>
        <time>2023-03-20T09:59:44Z</time>
      </trkpt>
      <trkpt lat="44.41395" lon="5.55433">
        <ele>860.9</ele>
        <time>2023-03-20T09:59:45Z</time>
      </trkpt>
      <trkpt lat="44.41395" lon="5.55434">
        <ele>860.9</ele>
        <time>2023-03-20T09:59:46Z</time>
      </trkpt>
      <trkpt lat="44.41396" lon="5.55434">
        <ele>860.9</ele>
        <time>2023-03-20T09:59:47Z</time>
      </trkpt>
      <trkpt lat="44.41396" lon="5.55435">
        <ele>860.9</ele>
        <time>2023-03-20T09:59:48Z</time>
      </trkpt>
      <trkpt lat="44.41396" lon="5.55435">
        <ele>860.9</ele>
        <time>2023-03-20T09:59:49Z</time>
      </trkpt>
      <trkpt lat="44.41397" lon="5.55436">
        <ele>860.9</ele>
        <time>2023-03-20T09:59:50Z</time>
      </trkpt>
      <trkpt lat="44.41397" lon="5.55436">
        <ele>860.9</ele>
        <time>2023-03-20T09:59:51Z</time>
      </trkpt>
      <trkpt lat="44.41397" lon="5.55437">
        <ele>860.8</ele>
        <time>2023-03-20T09:59:52Z</time>
      </trkpt>
      <trkpt lat="44.41398" lon="5.55438">
        <ele>860.8</ele>
        <time>2023-03-20T09:59:53Z</time>
      </trkpt>
      <trkpt lat="44.41398" lon="5.55438">
        <ele>860.8</ele>
        <time>2023-03-20T10:01:37Z</time>
      </trkpt>
      <trkpt lat="44.41398" lon="5.55439">
        <ele>860.8</ele>
        <time>2023-03-20T10:01:38Z</time>
      </trkpt>
      <trkpt lat="44.41399" lon="5.55439">
        <ele>860.8</ele>
        <time>2023-03-20T10:01:39Z</time>
      </trkpt>
      <trkpt lat="44.41402" lon="5.5544">
        <ele>860.8</ele>
        <time>2023-03-20T10:01:40Z</time>
      </trkpt>
      <trkpt lat="44.41403" lon="5.55441">
        <ele>860.8</ele>
        <time>2023-03-20T10:01:41Z</time>
      </trkpt>
      <trkpt lat="44.41407" lon="5.55443">
        <ele>860.7</ele>
        <time>2023-03-20T10:01:42Z</time>
      </trkpt>
      <trkpt lat="44.41408" lon="5.55443">
        <ele>860.6</ele>
        <time>2023-03-20T10:01:43Z</time>
      </trkpt>
      <trkpt lat="44.41411" lon="5.55445">
        <ele>860.6</ele>
        <time>2023-03-20T10:01:44Z</time>
      </trkpt>
      <trkpt lat="44.41414" lon="5.55448">
        <ele>860.4</ele>
        <time>2023-03-20T10:01:45Z</time>
      </trkpt>
      <trkpt lat="44.41417" lon="5.55451">
        <ele>860.3</ele>
        <time>2023-03-20T10:01:46Z</time>
      </trkpt>
      <trkpt lat="44.4142" lon="5.55453">
        <ele>860.2</ele>
        <time>2023-03-20T10:01:47Z</time>
      </trkpt>
      <trkpt lat="44.41423" lon="5.55456">
        <ele>860.1</ele>
        <time>2023-03-20T10:01:48Z</time>
      </trkpt>
      <trkpt lat="44.41426" lon="5.55459">
        <ele>860</ele>
        <time>2023-03-20T10:01:49Z</time>
      </trkpt>
      <trkpt lat="44.41429" lon="5.55462">
        <ele>859.8</ele>
        <time>2023-03-20T10:01:50Z</time>
      </trkpt>
      <trkpt lat="44.41432" lon="5.55466">
        <ele>859.7</ele>
        <time>2023-03-20T10:01:51Z</time>
      </trkpt>
      <trkpt lat="44.41436" lon="5.5547">
        <ele>859.5</ele>
        <time>2023-03-20T10:01:52Z</time>
      </trkpt>
      <trkpt lat="44.4144" lon="5.55474">
        <ele>859.3</ele>
        <time>2023-03-20T10:01:53Z</time>
      </trkpt>
      <trkpt lat="44.41445" lon="5.55478">
        <ele>859.2</ele>
        <time>2023-03-20T10:01:54Z</time>
      </trkpt>
      <trkpt lat="44.4145" lon="5.55482">
        <ele>859</ele>
        <time>2023-03-20T10:01:55Z</time>
      </trkpt>
      <trkpt lat="44.41456" lon="5.55485">
        <ele>858.8</ele>
        <time>2023-03-20T10:01:56Z</time>
      </trkpt>
      <trkpt lat="44.41461" lon="5.55487">
        <ele>858.5</ele>
        <time>2023-03-20T10:01:57Z</time>
      </trkpt>
      <trkpt lat="44.41467" lon="5.55488">
        <ele>858.2</ele>
        <time>2023-03-20T10:01:58Z</time>
      </trkpt>
      <trkpt lat="44.41473" lon="5.55489">
        <ele>857.8</ele>
        <time>2023-03-20T10:01:59Z</time>
      </trkpt>
      <trkpt lat="44.41479" lon="5.55491">
        <ele>857.4</ele>
        <time>2023-03-20T10:02:00Z</time>
      </trkpt>
      <trkpt lat="44.41485" lon="5.55495">
        <ele>857</ele>
        <time>2023-03-20T10:02:01Z</time>
      </trkpt>
      <trkpt lat="44.41491" lon="5.555">
        <ele>856.6</ele>
        <time>2023-03-20T10:02:02Z</time>
      </trkpt>
      <trkpt lat="44.41497" lon="5.55507">
        <ele>856.1</ele>
        <time>2023-03-20T10:02:03Z</time>
      </trkpt>
      <trkpt lat="44.41503" lon="5.55516">
        <ele>855.6</ele>
        <time>2023-03-20T10:02:04Z</time>
      </trkpt>
      <trkpt lat="44.41509" lon="5.55526">
        <ele>855</ele>
        <time>2023-03-20T10:02:05Z</time>
      </trkpt>
      <trkpt lat="44.41513" lon="5.55536">
        <ele>854.6</ele>
        <time>2023-03-20T10:02:06Z</time>
      </trkpt>
      <trkpt lat="44.41517" lon="5.55548">
        <ele>854.3</ele>
        <time>2023-03-20T10:02:07Z</time>
      </trkpt>
      <trkpt lat="44.41522" lon="5.55559">
        <ele>854.3</ele>
        <time>2023-03-20T10:02:08Z</time>
      </trkpt>
      <trkpt lat="44.41527" lon="5.5557">
        <ele>854.3</ele>
        <time>2023-03-20T10:02:09Z</time>
      </trkpt>
      <trkpt lat="44.41534" lon="5.55578">
        <ele>854.4</ele>
        <time>2023-03-20T10:02:10Z</time>
      </trkpt>
      <trkpt lat="44.41542" lon="5.55582">
        <ele>854.4</ele>
        <time>2023-03-20T10:02:11Z</time>
      </trkpt>
      <trkpt lat="44.4155" lon="5.55583">
        <ele>854.4</ele>
        <time>2023-03-20T10:02:12Z</time>
      </trkpt>
      <trkpt lat="44.41559" lon="5.55583">
        <ele>854.5</ele>
        <time>2023-03-20T10:02:13Z</time>
      </trkpt>
      <trkpt lat="44.41567" lon="5.55583">
        <ele>854.5</ele>
        <time>2023-03-20T10:02:14Z</time>
      </trkpt>
      <trkpt lat="44.41575" lon="5.55587">
        <ele>854.6</ele>
        <time>2023-03-20T10:02:15Z</time>
      </trkpt>
      <trkpt lat="44.41579" lon="5.55598">
        <ele>854.6</ele>
        <time>2023-03-20T10:02:16Z</time>
      </trkpt>
      <trkpt lat="44.41577" lon="5.5561">
        <ele>854.5</ele>
        <time>2023-03-20T10:02:17Z</time>
      </trkpt>
      <trkpt lat="44.41571" lon="5.55618">
        <ele>854.3</ele>
        <time>2023-03-20T10:02:18Z</time>
      </trkpt>
      <trkpt lat="44.41564" lon="5.55622">
        <ele>854.2</ele>
        <time>2023-03-20T10:02:19Z</time>
      </trkpt>
      <trkpt lat="44.41557" lon="5.55627">
        <ele>854</ele>
        <time>2023-03-20T10:02:20Z</time>
      </trkpt>
      <trkpt lat="44.41551" lon="5.55631">
        <ele>853.9</ele>
        <time>2023-03-20T10:02:21Z</time>
      </trkpt>
      <trkpt lat="44.41547" lon="5.55636">
        <ele>853.8</ele>
        <time>2023-03-20T10:02:22Z</time>
      </trkpt>
      <trkpt lat="44.41543" lon="5.55643">
        <ele>853.7</ele>
        <time>2023-03-20T10:02:23Z</time>
      </trkpt>
      <trkpt lat="44.4154" lon="5.5565">
        <ele>853.7</ele>
        <time>2023-03-20T10:02:24Z</time>
      </trkpt>
      <trkpt lat="44.41537" lon="5.55658">
        <ele>853.6</ele>
        <time>2023-03-20T10:02:25Z</time>
      </trkpt>
      <trkpt lat="44.41535" lon="5.55667">
        <ele>853.6</ele>
        <time>2023-03-20T10:02:26Z</time>
      </trkpt>
      <trkpt lat="44.41533" lon="5.55675">
        <ele>853.6</ele>
        <time>2023-03-20T10:02:27Z</time>
      </trkpt>
      <trkpt lat="44.41533" lon="5.55682">
        <ele>853.6</ele>
        <time>2023-03-20T10:02:28Z</time>
      </trkpt>
      <trkpt lat="44.41532" lon="5.55688">
        <ele>853.7</ele>
        <time>2023-03-20T10:02:29Z</time>
      </trkpt>
      <trkpt lat="44.41532" lon="5.55693">
        <ele>853.7</ele>
        <time>2023-03-20T10:02:30Z</time>
      </trkpt>
      <trkpt lat="44.41533" lon="5.55697">
        <ele>853.7</ele>
        <time>2023-03-20T10:02:31Z</time>
      </trkpt>
      <trkpt lat="44.41535" lon="5.557">
        <ele>853.7</ele>
        <time>2023-03-20T10:02:32Z</time>
      </trkpt>
      <trkpt lat="44.41538" lon="5.557">
        <ele>853.8</ele>
        <time>2023-03-20T10:02:33Z</time>
      </trkpt>
      <trkpt lat="44.41541" lon="5.557">
        <ele>855.3</ele>
        <time>2023-03-20T10:02:34Z</time>
      </trkpt>
      <trkpt lat="44.41545" lon="5.55698">
        <ele>855.3</ele>
        <time>2023-03-20T10:02:35Z</time>
      </trkpt>
      <trkpt lat="44.41548" lon="5.55695">
        <ele>855.4</ele>
        <time>2023-03-20T10:02:36Z</time>
      </trkpt>
      <trkpt lat="44.4155" lon="5.55692">
        <ele>855.4</ele>
        <time>2023-03-20T10:02:37Z</time>
      </trkpt>
      <trkpt lat="44.41553" lon="5.55689">
        <ele>857.1</ele>
        <time>2023-03-20T10:02:38Z</time>
      </trkpt>
      <trkpt lat="44.41557" lon="5.55689">
        <ele>857.1</ele>
        <time>2023-03-20T10:02:39Z</time>
      </trkpt>
      <trkpt lat="44.4156" lon="5.55689">
        <ele>857.2</ele>
        <time>2023-03-20T10:02:40Z</time>
      </trkpt>
      <trkpt lat="44.41563" lon="5.5569">
        <ele>857.2</ele>
        <time>2023-03-20T10:02:41Z</time>
      </trkpt>
      <trkpt lat="44.41566" lon="5.55692">
        <ele>858.8</ele>
        <time>2023-03-20T10:02:42Z</time>
      </trkpt>
      <trkpt lat="44.41569" lon="5.55694">
        <ele>858.8</ele>
        <time>2023-03-20T10:02:43Z</time>
      </trkpt>
      <trkpt lat="44.41571" lon="5.55696">
        <ele>858.8</ele>
        <time>2023-03-20T10:02:44Z</time>
      </trkpt>
      <trkpt lat="44.41574" lon="5.55698">
        <ele>858.9</ele>
        <time>2023-03-20T10:02:45Z</time>
      </trkpt>
      <trkpt lat="44.41576" lon="5.55701">
        <ele>860.6</ele>
        <time>2023-03-20T10:02:46Z</time>
      </trkpt>
      <trkpt lat="44.4158" lon="5.55704">
        <ele>861.4</ele>
        <time>2023-03-20T10:02:47Z</time>
      </trkpt>
      <trkpt lat="44.41581" lon="5.55705">
        <ele>861.5</ele>
        <time>2023-03-20T10:02:48Z</time>
      </trkpt>
      <trkpt lat="44.41583" lon="5.55706">
        <ele>861.5</ele>
        <time>2023-03-20T10:02:49Z</time>
      </trkpt>
      <trkpt lat="44.41586" lon="5.55707">
        <ele>861.5</ele>
        <time>2023-03-20T10:02:50Z</time>
      </trkpt>
      <trkpt lat="44.41589" lon="5.55707">
        <ele>863.2</ele>
        <time>2023-03-20T10:02:51Z</time>
      </trkpt>
      <trkpt lat="44.41592" lon="5.55706">
        <ele>863.2</ele>
        <time>2023-03-20T10:02:52Z</time>
      </trkpt>
      <trkpt lat="44.41596" lon="5.55705">
        <ele>863.2</ele>
        <time>2023-03-20T10:02:53Z</time>
      </trkpt>
      <trkpt lat="44.41599" lon="5.55704">
        <ele>863.3</ele>
        <time>2023-03-20T10:02:54Z</time>
      </trkpt>
      <trkpt lat="44.41601" lon="5.55702">
        <ele>864.3</ele>
        <time>2023-03-20T10:02:55Z</time>
      </trkpt>
      <trkpt lat="44.41604" lon="5.55699">
        <ele>864.3</ele>
        <time>2023-03-20T10:02:56Z</time>
      </trkpt>
      <trkpt lat="44.41606" lon="5.55698">
        <ele>864.4</ele>
        <time>2023-03-20T10:02:57Z</time>
      </trkpt>
      <trkpt lat="44.41609" lon="5.55696">
        <ele>864.4</ele>
        <time>2023-03-20T10:02:58Z</time>
      </trkpt>
      <trkpt lat="44.41611" lon="5.55694">
        <ele>864.4</ele>
        <time>2023-03-20T10:02:59Z</time>
      </trkpt>
      <trkpt lat="44.41614" lon="5.55693">
        <ele>866.4</ele>
        <time>2023-03-20T10:03:00Z</time>
      </trkpt>
      <trkpt lat="44.41617" lon="5.55692">
        <ele>866.4</ele>
        <time>2023-03-20T10:03:01Z</time>
      </trkpt>
      <trkpt lat="44.4162" lon="5.5569">
        <ele>866.5</ele>
        <time>2023-03-20T10:03:02Z</time>
      </trkpt>
      <trkpt lat="44.41623" lon="5.55688">
        <ele>866.5</ele>
        <time>2023-03-20T10:03:03Z</time>
      </trkpt>
      <trkpt lat="44.41626" lon="5.55687">
        <ele>868.2</ele>
        <time>2023-03-20T10:03:04Z</time>
      </trkpt>
      <trkpt lat="44.41629" lon="5.55686">
        <ele>868.2</ele>
        <time>2023-03-20T10:03:05Z</time>
      </trkpt>
      <trkpt lat="44.41631" lon="5.55685">
        <ele>868.3</ele>
        <time>2023-03-20T10:03:06Z</time>
      </trkpt>
      <trkpt lat="44.41633" lon="5.55685">
        <ele>868.3</ele>
        <time>2023-03-20T10:03:07Z</time>
      </trkpt>
      <trkpt lat="44.41636" lon="5.55685">
        <ele>868.3</ele>
        <time>2023-03-20T10:03:08Z</time>
      </trkpt>
      <trkpt lat="44.41639" lon="5.55685">
        <ele>870.3</ele>
        <time>2023-03-20T10:03:09Z</time>
      </trkpt>
      <trkpt lat="44.41642" lon="5.55686">
        <ele>870.3</ele>
        <time>2023-03-20T10:03:10Z</time>
      </trkpt>
      <trkpt lat="44.41645" lon="5.55688">
        <ele>870.4</ele>
        <time>2023-03-20T10:03:11Z</time>
      </trkpt>
      <trkpt lat="44.41647" lon="5.55689">
        <ele>870.4</ele>
        <time>2023-03-20T10:03:12Z</time>
      </trkpt>
      <trkpt lat="44.4165" lon="5.55691">
        <ele>872.1</ele>
        <time>2023-03-20T10:03:13Z</time>
      </trkpt>
      <trkpt lat="44.41652" lon="5.55693">
        <ele>872.2</ele>
        <time>2023-03-20T10:03:14Z</time>
      </trkpt>
      <trkpt lat="44.41655" lon="5.55694">
        <ele>872.2</ele>
        <time>2023-03-20T10:03:15Z</time>
      </trkpt>
      <trkpt lat="44.41658" lon="5.55696">
        <ele>872.2</ele>
        <time>2023-03-20T10:03:16Z</time>
      </trkpt>
      <trkpt lat="44.41659" lon="5.55697">
        <ele>872.3</ele>
        <time>2023-03-20T10:03:17Z</time>
      </trkpt>
      <trkpt lat="44.41662" lon="5.557">
        <ele>874.1</ele>
        <time>2023-03-20T10:03:18Z</time>
      </trkpt>
      <trkpt lat="44.41663" lon="5.55701">
        <ele>874.2</ele>
        <time>2023-03-20T10:03:19Z</time>
      </trkpt>
      <trkpt lat="44.41666" lon="5.55703">
        <ele>874.9</ele>
        <time>2023-03-20T10:03:20Z</time>
      </trkpt>
      <trkpt lat="44.41667" lon="5.55704">
        <ele>874.9</ele>
        <time>2023-03-20T10:03:21Z</time>
      </trkpt>
      <trkpt lat="44.41671" lon="5.55706">
        <ele>874.9</ele>
        <time>2023-03-20T10:03:22Z</time>
      </trkpt>
      <trkpt lat="44.41672" lon="5.55707">
        <ele>875</ele>
        <time>2023-03-20T10:03:23Z</time>
      </trkpt>
      <trkpt lat="44.41675" lon="5.55709">
        <ele>876.7</ele>
        <time>2023-03-20T10:03:24Z</time>
      </trkpt>
      <trkpt lat="44.41677" lon="5.55712">
        <ele>876.7</ele>
        <time>2023-03-20T10:03:25Z</time>
      </trkpt>
      <trkpt lat="44.4168" lon="5.55714">
        <ele>876.8</ele>
        <time>2023-03-20T10:03:26Z</time>
      </trkpt>
      <trkpt lat="44.41682" lon="5.55715">
        <ele>876.8</ele>
        <time>2023-03-20T10:03:27Z</time>
      </trkpt>
      <trkpt lat="44.41685" lon="5.55716">
        <ele>876.8</ele>
        <time>2023-03-20T10:03:28Z</time>
      </trkpt>
      <trkpt lat="44.41688" lon="5.55718">
        <ele>878.3</ele>
        <time>2023-03-20T10:03:29Z</time>
      </trkpt>
      <trkpt lat="44.41691" lon="5.55719">
        <ele>878.3</ele>
        <time>2023-03-20T10:03:30Z</time>
      </trkpt>
      <trkpt lat="44.41693" lon="5.55721">
        <ele>879.2</ele>
        <time>2023-03-20T10:03:31Z</time>
      </trkpt>
      <trkpt lat="44.41696" lon="5.55723">
        <ele>879.2</ele>
        <time>2023-03-20T10:03:32Z</time>
      </trkpt>
      <trkpt lat="44.41699" lon="5.55724">
        <ele>880.9</ele>
        <time>2023-03-20T10:03:33Z</time>
      </trkpt>
      <trkpt lat="44.41702" lon="5.55725">
        <ele>880.9</ele>
        <time>2023-03-20T10:03:34Z</time>
      </trkpt>
      <trkpt lat="44.41704" lon="5.55726">
        <ele>880.9</ele>
        <time>2023-03-20T10:03:35Z</time>
      </trkpt>
      <trkpt lat="44.41707" lon="5.55728">
        <ele>881</ele>
        <time>2023-03-20T10:03:36Z</time>
      </trkpt>
      <trkpt lat="44.41708" lon="5.55729">
        <ele>881</ele>
        <time>2023-03-20T10:03:37Z</time>
      </trkpt>
      <trkpt lat="44.41711" lon="5.55731">
        <ele>882.4</ele>
        <time>2023-03-20T10:03:38Z</time>
      </trkpt>
      <trkpt lat="44.41712" lon="5.55732">
        <ele>882.4</ele>
        <time>2023-03-20T10:03:39Z</time>
      </trkpt>
      <trkpt lat="44.41715" lon="5.55734">
        <ele>882.5</ele>
        <time>2023-03-20T10:03:40Z</time>
      </trkpt>
      <trkpt lat="44.41717" lon="5.55735">
        <ele>882.5</ele>
        <time>2023-03-20T10:03:41Z</time>
      </trkpt>
      <trkpt lat="44.41719" lon="5.55736">
        <ele>882.5</ele>
        <time>2023-03-20T10:03:42Z</time>
      </trkpt>
      <trkpt lat="44.41722" lon="5.55737">
        <ele>883.6</ele>
        <time>2023-03-20T10:03:43Z</time>
      </trkpt>
      <trkpt lat="44.41725" lon="5.55737">
        <ele>885.1</ele>
        <time>2023-03-20T10:03:44Z</time>
      </trkpt>
      <trkpt lat="44.41728" lon="5.55737">
        <ele>885.2</ele>
        <time>2023-03-20T10:03:45Z</time>
      </trkpt>
      <trkpt lat="44.41731" lon="5.55738">
        <ele>885.2</ele>
        <time>2023-03-20T10:03:46Z</time>
      </trkpt>
      <trkpt lat="44.41734" lon="5.55742">
        <ele>885.2</ele>
        <time>2023-03-20T10:03:47Z</time>
      </trkpt>
      <trkpt lat="44.41735" lon="5.55744">
        <ele>885.3</ele>
        <time>2023-03-20T10:03:48Z</time>
      </trkpt>
      <trkpt lat="44.41737" lon="5.55747">
        <ele>886.3</ele>
        <time>2023-03-20T10:03:49Z</time>
      </trkpt>
      <trkpt lat="44.41738" lon="5.5575">
        <ele>886.4</ele>
        <time>2023-03-20T10:03:50Z</time>
      </trkpt>
      <trkpt lat="44.4174" lon="5.55754">
        <ele>886.4</ele>
        <time>2023-03-20T10:03:51Z</time>
      </trkpt>
      <trkpt lat="44.41742" lon="5.55758">
        <ele>887.8</ele>
        <time>2023-03-20T10:03:52Z</time>
      </trkpt>
      <trkpt lat="44.41743" lon="5.5576">
        <ele>887.9</ele>
        <time>2023-03-20T10:03:53Z</time>
      </trkpt>
      <trkpt lat="44.41745" lon="5.55764">
        <ele>887.9</ele>
        <time>2023-03-20T10:03:54Z</time>
      </trkpt>
      <trkpt lat="44.41746" lon="5.55765">
        <ele>887.9</ele>
        <time>2023-03-20T10:03:55Z</time>
      </trkpt>
      <trkpt lat="44.41748" lon="5.55768">
        <ele>889</ele>
        <time>2023-03-20T10:03:56Z</time>
      </trkpt>
      <trkpt lat="44.41749" lon="5.55769">
        <ele>889</ele>
        <time>2023-03-20T10:03:57Z</time>
      </trkpt>
      <trkpt lat="44.41752" lon="5.55771">
        <ele>890.6</ele>
        <time>2023-03-20T10:03:58Z</time>
      </trkpt>
      <trkpt lat="44.41753" lon="5.55772">
        <ele>890.6</ele>
        <time>2023-03-20T10:03:59Z</time>
      </trkpt>
      <trkpt lat="44.41756" lon="5.55775">
        <ele>890.7</ele>
        <time>2023-03-20T10:04:00Z</time>
      </trkpt>
      <trkpt lat="44.41757" lon="5.55776">
        <ele>890.7</ele>
        <time>2023-03-20T10:04:01Z</time>
      </trkpt>
      <trkpt lat="44.41759" lon="5.55779">
        <ele>890.7</ele>
        <time>2023-03-20T10:04:02Z</time>
      </trkpt>
      <trkpt lat="44.4176" lon="5.5578">
        <ele>890.8</ele>
        <time>2023-03-20T10:04:03Z</time>
      </trkpt>
      <trkpt lat="44.41763" lon="5.55782">
        <ele>891.6</ele>
        <time>2023-03-20T10:04:04Z</time>
      </trkpt>
      <trkpt lat="44.41764" lon="5.55782">
        <ele>891.6</ele>
        <time>2023-03-20T10:04:05Z</time>
      </trkpt>
      <trkpt lat="44.41767" lon="5.55783">
        <ele>891.6</ele>
        <time>2023-03-20T10:04:06Z</time>
      </trkpt>
      <trkpt lat="44.41768" lon="5.55784">
        <ele>891.6</ele>
        <time>2023-03-20T10:04:07Z</time>
      </trkpt>
      <trkpt lat="44.41771" lon="5.55786">
        <ele>891.7</ele>
        <time>2023-03-20T10:04:08Z</time>
      </trkpt>
      <trkpt lat="44.41771" lon="5.55787">
        <ele>891.7</ele>
        <time>2023-03-20T10:04:09Z</time>
      </trkpt>
      <trkpt lat="44.41774" lon="5.5579">
        <ele>894.4</ele>
        <time>2023-03-20T10:04:10Z</time>
      </trkpt>
      <trkpt lat="44.41774" lon="5.55791">
        <ele>894.4</ele>
        <time>2023-03-20T10:04:11Z</time>
      </trkpt>
      <trkpt lat="44.41777" lon="5.55795">
        <ele>894.4</ele>
        <time>2023-03-20T10:04:12Z</time>
      </trkpt>
      <trkpt lat="44.41777" lon="5.55797">
        <ele>894.5</ele>
        <time>2023-03-20T10:04:13Z</time>
      </trkpt>
      <trkpt lat="44.41779" lon="5.55801">
        <ele>894.5</ele>
        <time>2023-03-20T10:04:14Z</time>
      </trkpt>
      <trkpt lat="44.41779" lon="5.55802">
        <ele>894.5</ele>
        <time>2023-03-20T10:04:15Z</time>
      </trkpt>
      <trkpt lat="44.41781" lon="5.55806">
        <ele>896.5</ele>
        <time>2023-03-20T10:04:16Z</time>
      </trkpt>
      <trkpt lat="44.41782" lon="5.55807">
        <ele>896.5</ele>
        <time>2023-03-20T10:04:17Z</time>
      </trkpt>
      <trkpt lat="44.41784" lon="5.55811">
        <ele>896.6</ele>
        <time>2023-03-20T10:04:18Z</time>
      </trkpt>
      <trkpt lat="44.41784" lon="5.55812">
        <ele>896.6</ele>
        <time>2023-03-20T10:04:19Z</time>
      </trkpt>
      <trkpt lat="44.41786" lon="5.55816">
        <ele>897.8</ele>
        <time>2023-03-20T10:04:20Z</time>
      </trkpt>
      <trkpt lat="44.41787" lon="5.55817">
        <ele>897.8</ele>
        <time>2023-03-20T10:04:21Z</time>
      </trkpt>
      <trkpt lat="44.41789" lon="5.55821">
        <ele>897.9</ele>
        <time>2023-03-20T10:04:22Z</time>
      </trkpt>
      <trkpt lat="44.4179" lon="5.55822">
        <ele>899.6</ele>
        <time>2023-03-20T10:04:23Z</time>
      </trkpt>
      <trkpt lat="44.41791" lon="5.55826">
        <ele>899.6</ele>
        <time>2023-03-20T10:04:24Z</time>
      </trkpt>
      <trkpt lat="44.41792" lon="5.55827">
        <ele>899.7</ele>
        <time>2023-03-20T10:04:25Z</time>
      </trkpt>
      <trkpt lat="44.41794" lon="5.5583">
        <ele>899.7</ele>
        <time>2023-03-20T10:04:26Z</time>
      </trkpt>
      <trkpt lat="44.41795" lon="5.55831">
        <ele>899.7</ele>
        <time>2023-03-20T10:04:27Z</time>
      </trkpt>
      <trkpt lat="44.41798" lon="5.55833">
        <ele>901.1</ele>
        <time>2023-03-20T10:04:28Z</time>
      </trkpt>
      <trkpt lat="44.41799" lon="5.55834">
        <ele>901.1</ele>
        <time>2023-03-20T10:04:29Z</time>
      </trkpt>
      <trkpt lat="44.41802" lon="5.55836">
        <ele>901.1</ele>
        <time>2023-03-20T10:04:30Z</time>
      </trkpt>
      <trkpt lat="44.41803" lon="5.55837">
        <ele>901.2</ele>
        <time>2023-03-20T10:04:31Z</time>
      </trkpt>
      <trkpt lat="44.41806" lon="5.55839">
        <ele>901.2</ele>
        <time>2023-03-20T10:04:32Z</time>
      </trkpt>
      <trkpt lat="44.41807" lon="5.5584">
        <ele>902.8</ele>
        <time>2023-03-20T10:04:33Z</time>
      </trkpt>
      <trkpt lat="44.4181" lon="5.55844">
        <ele>904.3</ele>
        <time>2023-03-20T10:04:34Z</time>
      </trkpt>
      <trkpt lat="44.4181" lon="5.55845">
        <ele>904.3</ele>
        <time>2023-03-20T10:04:35Z</time>
      </trkpt>
      <trkpt lat="44.41812" lon="5.55848">
        <ele>904.3</ele>
        <time>2023-03-20T10:04:36Z</time>
      </trkpt>
      <trkpt lat="44.41813" lon="5.55849">
        <ele>904.4</ele>
        <time>2023-03-20T10:04:37Z</time>
      </trkpt>
      <trkpt lat="44.41816" lon="5.55853">
        <ele>904.4</ele>
        <time>2023-03-20T10:04:38Z</time>
      </trkpt>
      <trkpt lat="44.41816" lon="5.55854">
        <ele>904.4</ele>
        <time>2023-03-20T10:04:39Z</time>
      </trkpt>
      <trkpt lat="44.41819" lon="5.55857">
        <ele>905.9</ele>
        <time>2023-03-20T10:04:40Z</time>
      </trkpt>
      <trkpt lat="44.41819" lon="5.55859">
        <ele>905.9</ele>
        <time>2023-03-20T10:04:41Z</time>
      </trkpt>
      <trkpt lat="44.41822" lon="5.55862">
        <ele>907.3</ele>
        <time>2023-03-20T10:04:42Z</time>
      </trkpt>
      <trkpt lat="44.41822" lon="5.55863">
        <ele>907.3</ele>
        <time>2023-03-20T10:04:43Z</time>
      </trkpt>
      <trkpt lat="44.41825" lon="5.55867">
        <ele>907.7</ele>
        <time>2023-03-20T10:04:44Z</time>
      </trkpt>
      <trkpt lat="44.41825" lon="5.55868">
        <ele>907.9</ele>
        <time>2023-03-20T10:04:45Z</time>
      </trkpt>
      <trkpt lat="44.41828" lon="5.55871">
        <ele>908.4</ele>
        <time>2023-03-20T10:04:46Z</time>
      </trkpt>
      <trkpt lat="44.41829" lon="5.55872">
        <ele>908.5</ele>
        <time>2023-03-20T10:04:47Z</time>
      </trkpt>
      <trkpt lat="44.41831" lon="5.55876">
        <ele>909</ele>
        <time>2023-03-20T10:04:48Z</time>
      </trkpt>
      <trkpt lat="44.41832" lon="5.55877">
        <ele>909.1</ele>
        <time>2023-03-20T10:04:49Z</time>
      </trkpt>
      <trkpt lat="44.41834" lon="5.55881">
        <ele>909.6</ele>
        <time>2023-03-20T10:04:50Z</time>
      </trkpt>
      <trkpt lat="44.41835" lon="5.55882">
        <ele>909.7</ele>
        <time>2023-03-20T10:04:51Z</time>
      </trkpt>
      <trkpt lat="44.41837" lon="5.55886">
        <ele>910.1</ele>
        <time>2023-03-20T10:04:52Z</time>
      </trkpt>
      <trkpt lat="44.41837" lon="5.55887">
        <ele>910.2</ele>
        <time>2023-03-20T10:04:53Z</time>
      </trkpt>
      <trkpt lat="44.4184" lon="5.5589">
        <ele>910.5</ele>
        <time>2023-03-20T10:04:54Z</time>
      </trkpt>
      <trkpt lat="44.4184" lon="5.55892">
        <ele>910.6</ele>
        <time>2023-03-20T10:04:55Z</time>
      </trkpt>
      <trkpt lat="44.41842" lon="5.55896">
        <ele>910.9</ele>
        <time>2023-03-20T10:04:56Z</time>
      </trkpt>
      <trkpt lat="44.41843" lon="5.55897">
        <ele>911</ele>
        <time>2023-03-20T10:04:57Z</time>
      </trkpt>
      <trkpt lat="44.41845" lon="5.55901">
        <ele>911.2</ele>
        <time>2023-03-20T10:04:58Z</time>
      </trkpt>
      <trkpt lat="44.41846" lon="5.55902">
        <ele>911.3</ele>
        <time>2023-03-20T10:04:59Z</time>
      </trkpt>
      <trkpt lat="44.41847" lon="5.55906">
        <ele>911.5</ele>
        <time>2023-03-20T10:05:00Z</time>
      </trkpt>
      <trkpt lat="44.41848" lon="5.55907">
        <ele>911.6</ele>
        <time>2023-03-20T10:05:01Z</time>
      </trkpt>
      <trkpt lat="44.4185" lon="5.55911">
        <ele>911.8</ele>
        <time>2023-03-20T10:05:02Z</time>
      </trkpt>
      <trkpt lat="44.41851" lon="5.55912">
        <ele>911.8</ele>
        <time>2023-03-20T10:05:03Z</time>
      </trkpt>
      <trkpt lat="44.41853" lon="5.55916">
        <ele>912</ele>
        <time>2023-03-20T10:05:04Z</time>
      </trkpt>
      <trkpt lat="44.41854" lon="5.55917">
        <ele>912.1</ele>
        <time>2023-03-20T10:05:05Z</time>
      </trkpt>
      <trkpt lat="44.41856" lon="5.55921">
        <ele>912.3</ele>
        <time>2023-03-20T10:05:06Z</time>
      </trkpt>
      <trkpt lat="44.41857" lon="5.55922">
        <ele>912.4</ele>
        <time>2023-03-20T10:05:07Z</time>
      </trkpt>
      <trkpt lat="44.41859" lon="5.55926">
        <ele>912.5</ele>
        <time>2023-03-20T10:05:08Z</time>
      </trkpt>
      <trkpt lat="44.41859" lon="5.55927">
        <ele>912.6</ele>
        <time>2023-03-20T10:05:09Z</time>
      </trkpt>
      <trkpt lat="44.41861" lon="5.55932">
        <ele>912.8</ele>
        <time>2023-03-20T10:05:10Z</time>
      </trkpt>
      <trkpt lat="44.41862" lon="5.55934">
        <ele>912.9</ele>
        <time>2023-03-20T10:05:11Z</time>
      </trkpt>
      <trkpt lat="44.41864" lon="5.55938">
        <ele>913</ele>
        <time>2023-03-20T10:05:12Z</time>
      </trkpt>
      <trkpt lat="44.41865" lon="5.55939">
        <ele>913.1</ele>
        <time>2023-03-20T10:05:13Z</time>
      </trkpt>
      <trkpt lat="44.41866" lon="5.55943">
        <ele>913.2</ele>
        <time>2023-03-20T10:05:14Z</time>
      </trkpt>
      <trkpt lat="44.41867" lon="5.55945">
        <ele>913.2</ele>
        <time>2023-03-20T10:05:15Z</time>
      </trkpt>
      <trkpt lat="44.41868" lon="5.55949">
        <ele>913.3</ele>
        <time>2023-03-20T10:05:16Z</time>
      </trkpt>
      <trkpt lat="44.41868" lon="5.5595">
        <ele>913.3</ele>
        <time>2023-03-20T10:05:17Z</time>
      </trkpt>
      <trkpt lat="44.41869" lon="5.55954">
        <ele>913.4</ele>
        <time>2023-03-20T10:05:18Z</time>
      </trkpt>
      <trkpt lat="44.4187" lon="5.55955">
        <ele>913.5</ele>
        <time>2023-03-20T10:05:19Z</time>
      </trkpt>
      <trkpt lat="44.41871" lon="5.55959">
        <ele>913.5</ele>
        <time>2023-03-20T10:05:20Z</time>
      </trkpt>
      <trkpt lat="44.41871" lon="5.5596">
        <ele>913.6</ele>
        <time>2023-03-20T10:05:21Z</time>
      </trkpt>
      <trkpt lat="44.41873" lon="5.55963">
        <ele>913.6</ele>
        <time>2023-03-20T10:05:22Z</time>
      </trkpt>
      <trkpt lat="44.41873" lon="5.55965">
        <ele>913.6</ele>
        <time>2023-03-20T10:05:23Z</time>
      </trkpt>
      <trkpt lat="44.41874" lon="5.55967">
        <ele>913.7</ele>
        <time>2023-03-20T10:05:24Z</time>
      </trkpt>
      <trkpt lat="44.41874" lon="5.55969">
        <ele>913.7</ele>
        <time>2023-03-20T10:05:25Z</time>
      </trkpt>
      <trkpt lat="44.41875" lon="5.55973">
        <ele>913.7</ele>
        <time>2023-03-20T10:05:26Z</time>
      </trkpt>
      <trkpt lat="44.41875" lon="5.55974">
        <ele>913.7</ele>
        <time>2023-03-20T10:05:27Z</time>
      </trkpt>
      <trkpt lat="44.41876" lon="5.55978">
        <ele>913.7</ele>
        <time>2023-03-20T10:05:28Z</time>
      </trkpt>
      <trkpt lat="44.41876" lon="5.55979">
        <ele>913.7</ele>
        <time>2023-03-20T10:05:29Z</time>
      </trkpt>
      <trkpt lat="44.41877" lon="5.55983">
        <ele>913.7</ele>
        <time>2023-03-20T10:05:30Z</time>
      </trkpt>
      <trkpt lat="44.41878" lon="5.55984">
        <ele>913.7</ele>
        <time>2023-03-20T10:05:31Z</time>
      </trkpt>
      <trkpt lat="44.41879" lon="5.55988">
        <ele>914</ele>
        <time>2023-03-20T10:05:32Z</time>
      </trkpt>
      <trkpt lat="44.41879" lon="5.55989">
        <ele>914.1</ele>
        <time>2023-03-20T10:05:33Z</time>
      </trkpt>
      <trkpt lat="44.41881" lon="5.55993">
        <ele>914.3</ele>
        <time>2023-03-20T10:05:34Z</time>
      </trkpt>
      <trkpt lat="44.41881" lon="5.55994">
        <ele>914.4</ele>
        <time>2023-03-20T10:05:35Z</time>
      </trkpt>
      <trkpt lat="44.41883" lon="5.55997">
        <ele>914.7</ele>
        <time>2023-03-20T10:05:36Z</time>
      </trkpt>
      <trkpt lat="44.41883" lon="5.55999">
        <ele>914.7</ele>
        <time>2023-03-20T10:05:37Z</time>
      </trkpt>
      <trkpt lat="44.41885" lon="5.56002">
        <ele>915</ele>
        <time>2023-03-20T10:05:38Z</time>
      </trkpt>
      <trkpt lat="44.41886" lon="5.56003">
        <ele>915.1</ele>
        <time>2023-03-20T10:05:39Z</time>
      </trkpt>
      <trkpt lat="44.41887" lon="5.56007">
        <ele>915.4</ele>
        <time>2023-03-20T10:05:40Z</time>
      </trkpt>
      <trkpt lat="44.41888" lon="5.56008">
        <ele>915.5</ele>
        <time>2023-03-20T10:05:41Z</time>
      </trkpt>
      <trkpt lat="44.41889" lon="5.56012">
        <ele>915.7</ele>
        <time>2023-03-20T10:05:42Z</time>
      </trkpt>
      <trkpt lat="44.4189" lon="5.56013">
        <ele>915.8</ele>
        <time>2023-03-20T10:05:43Z</time>
      </trkpt>
      <trkpt lat="44.41891" lon="5.56017">
        <ele>916.1</ele>
        <time>2023-03-20T10:05:44Z</time>
      </trkpt>
      <trkpt lat="44.41891" lon="5.56018">
        <ele>916.2</ele>
        <time>2023-03-20T10:05:45Z</time>
      </trkpt>
      <trkpt lat="44.41892" lon="5.56022">
        <ele>916.5</ele>
        <time>2023-03-20T10:05:46Z</time>
      </trkpt>
      <trkpt lat="44.41893" lon="5.56023">
        <ele>916.6</ele>
        <time>2023-03-20T10:05:47Z</time>
      </trkpt>
      <trkpt lat="44.41894" lon="5.56027">
        <ele>916.9</ele>
        <time>2023-03-20T10:05:48Z</time>
      </trkpt>
      <trkpt lat="44.41894" lon="5.56028">
        <ele>917</ele>
        <time>2023-03-20T10:05:49Z</time>
      </trkpt>
      <trkpt lat="44.41896" lon="5.56032">
        <ele>917.4</ele>
        <time>2023-03-20T10:05:50Z</time>
      </trkpt>
      <trkpt lat="44.41896" lon="5.56033">
        <ele>917.5</ele>
        <time>2023-03-20T10:05:51Z</time>
      </trkpt>
      <trkpt lat="44.41898" lon="5.56035">
        <ele>917.7</ele>
        <time>2023-03-20T10:05:52Z</time>
      </trkpt>
      <trkpt lat="44.41899" lon="5.56037">
        <ele>917.8</ele>
        <time>2023-03-20T10:05:53Z</time>
      </trkpt>
      <trkpt lat="44.41899" lon="5.56041">
        <ele>918.1</ele>
        <time>2023-03-20T10:05:54Z</time>
      </trkpt>
      <trkpt lat="44.41899" lon="5.56042">
        <ele>918.2</ele>
        <time>2023-03-20T10:05:55Z</time>
      </trkpt>
      <trkpt lat="44.419" lon="5.56046">
        <ele>918.6</ele>
        <time>2023-03-20T10:05:56Z</time>
      </trkpt>
      <trkpt lat="44.419" lon="5.56048">
        <ele>918.7</ele>
        <time>2023-03-20T10:05:57Z</time>
      </trkpt>
      <trkpt lat="44.41901" lon="5.56052">
        <ele>919</ele>
        <time>2023-03-20T10:05:58Z</time>
      </trkpt>
      <trkpt lat="44.41901" lon="5.56054">
        <ele>919.1</ele>
        <time>2023-03-20T10:05:59Z</time>
      </trkpt>
      <trkpt lat="44.41902" lon="5.56058">
        <ele>919.3</ele>
        <time>2023-03-20T10:06:00Z</time>
      </trkpt>
      <trkpt lat="44.41902" lon="5.56059">
        <ele>919.4</ele>
        <time>2023-03-20T10:06:01Z</time>
      </trkpt>
      <trkpt lat="44.41903" lon="5.56063">
        <ele>919.7</ele>
        <time>2023-03-20T10:06:02Z</time>
      </trkpt>
      <trkpt lat="44.41903" lon="5.56064">
        <ele>919.8</ele>
        <time>2023-03-20T10:06:03Z</time>
      </trkpt>
      <trkpt lat="44.41904" lon="5.56068">
        <ele>920</ele>
        <time>2023-03-20T10:06:04Z</time>
      </trkpt>
      <trkpt lat="44.41905" lon="5.56069">
        <ele>920.1</ele>
        <time>2023-03-20T10:06:05Z</time>
      </trkpt>
      <trkpt lat="44.41906" lon="5.56074">
        <ele>920.4</ele>
        <time>2023-03-20T10:06:06Z</time>
      </trkpt>
      <trkpt lat="44.41906" lon="5.56075">
        <ele>920.4</ele>
        <time>2023-03-20T10:06:07Z</time>
      </trkpt>
      <trkpt lat="44.41906" lon="5.5608">
        <ele>920.6</ele>
        <time>2023-03-20T10:06:08Z</time>
      </trkpt>
      <trkpt lat="44.41906" lon="5.56081">
        <ele>920.7</ele>
        <time>2023-03-20T10:06:09Z</time>
      </trkpt>
      <trkpt lat="44.41907" lon="5.56085">
        <ele>920.9</ele>
        <time>2023-03-20T10:06:10Z</time>
      </trkpt>
      <trkpt lat="44.41907" lon="5.56087">
        <ele>920.9</ele>
        <time>2023-03-20T10:06:11Z</time>
      </trkpt>
      <trkpt lat="44.41907" lon="5.56091">
        <ele>921.1</ele>
        <time>2023-03-20T10:06:12Z</time>
      </trkpt>
      <trkpt lat="44.41907" lon="5.56092">
        <ele>921.1</ele>
        <time>2023-03-20T10:06:13Z</time>
      </trkpt>
      <trkpt lat="44.41908" lon="5.56096">
        <ele>921.2</ele>
        <time>2023-03-20T10:06:14Z</time>
      </trkpt>
      <trkpt lat="44.41909" lon="5.56098">
        <ele>921.3</ele>
        <time>2023-03-20T10:06:15Z</time>
      </trkpt>
      <trkpt lat="44.4191" lon="5.56101">
        <ele>921.4</ele>
        <time>2023-03-20T10:06:16Z</time>
      </trkpt>
      <trkpt lat="44.41911" lon="5.56103">
        <ele>921.4</ele>
        <time>2023-03-20T10:06:17Z</time>
      </trkpt>
      <trkpt lat="44.41912" lon="5.56106">
        <ele>921.5</ele>
        <time>2023-03-20T10:06:18Z</time>
      </trkpt>
      <trkpt lat="44.41913" lon="5.56108">
        <ele>921.6</ele>
        <time>2023-03-20T10:06:19Z</time>
      </trkpt>
      <trkpt lat="44.41915" lon="5.56111">
        <ele>921.7</ele>
        <time>2023-03-20T10:06:20Z</time>
      </trkpt>
      <trkpt lat="44.41915" lon="5.56112">
        <ele>921.7</ele>
        <time>2023-03-20T10:06:21Z</time>
      </trkpt>
      <trkpt lat="44.41917" lon="5.56115">
        <ele>921.8</ele>
        <time>2023-03-20T10:06:22Z</time>
      </trkpt>
      <trkpt lat="44.41918" lon="5.56116">
        <ele>921.8</ele>
        <time>2023-03-20T10:06:23Z</time>
      </trkpt>
      <trkpt lat="44.41921" lon="5.56118">
        <ele>921.8</ele>
        <time>2023-03-20T10:06:24Z</time>
      </trkpt>
      <trkpt lat="44.41922" lon="5.56119">
        <ele>921.7</ele>
        <time>2023-03-20T10:06:25Z</time>
      </trkpt>
      <trkpt lat="44.41925" lon="5.5612">
        <ele>921.6</ele>
        <time>2023-03-20T10:06:26Z</time>
      </trkpt>
      <trkpt lat="44.41925" lon="5.56121">
        <ele>921.6</ele>
        <time>2023-03-20T10:06:27Z</time>
      </trkpt>
      <trkpt lat="44.41927" lon="5.56123">
        <ele>921.5</ele>
        <time>2023-03-20T10:06:28Z</time>
      </trkpt>
      <trkpt lat="44.41928" lon="5.56124">
        <ele>921.4</ele>
        <time>2023-03-20T10:06:29Z</time>
      </trkpt>
      <trkpt lat="44.41929" lon="5.56126">
        <ele>921.3</ele>
        <time>2023-03-20T10:06:30Z</time>
      </trkpt>
      <trkpt lat="44.41931" lon="5.56127">
        <ele>921.2</ele>
        <time>2023-03-20T10:06:31Z</time>
      </trkpt>
      <trkpt lat="44.41932" lon="5.56128">
        <ele>921.2</ele>
        <time>2023-03-20T10:06:32Z</time>
      </trkpt>
      <trkpt lat="44.41934" lon="5.56129">
        <ele>921.1</ele>
        <time>2023-03-20T10:06:33Z</time>
      </trkpt>
      <trkpt lat="44.41936" lon="5.56131">
        <ele>921</ele>
        <time>2023-03-20T10:06:34Z</time>
      </trkpt>
      <trkpt lat="44.41936" lon="5.56131">
        <ele>921</ele>
        <time>2023-03-20T10:06:35Z</time>
      </trkpt>
      <trkpt lat="44.41937" lon="5.56132">
        <ele>920.9</ele>
        <time>2023-03-20T10:06:36Z</time>
      </trkpt>
      <trkpt lat="44.41937" lon="5.56132">
        <ele>920.9</ele>
        <time>2023-03-20T10:06:37Z</time>
      </trkpt>
      <trkpt lat="44.41938" lon="5.56133">
        <ele>920.9</ele>
        <time>2023-03-20T10:06:38Z</time>
      </trkpt>
      <trkpt lat="44.41938" lon="5.56133">
        <ele>920.9</ele>
        <time>2023-03-20T10:06:39Z</time>
      </trkpt>
      <trkpt lat="44.41939" lon="5.56134">
        <ele>920.8</ele>
        <time>2023-03-20T10:06:40Z</time>
      </trkpt>
      <trkpt lat="44.41939" lon="5.56135">
        <ele>920.8</ele>
        <time>2023-03-20T10:06:41Z</time>
      </trkpt>
      <trkpt lat="44.41939" lon="5.56135">
        <ele>920.8</ele>
        <time>2023-03-20T10:06:42Z</time>
      </trkpt>
      <trkpt lat="44.4194" lon="5.56136">
        <ele>920.8</ele>
        <time>2023-03-20T10:06:43Z</time>
      </trkpt>
      <trkpt lat="44.4194" lon="5.56136">
        <ele>920.8</ele>
        <time>2023-03-20T10:06:44Z</time>
      </trkpt>
      <trkpt lat="44.41941" lon="5.56137">
        <ele>920.7</ele>
        <time>2023-03-20T10:06:45Z</time>
      </trkpt>
      <trkpt lat="44.41941" lon="5.56137">
        <ele>920.7</ele>
        <time>2023-03-20T10:06:46Z</time>
      </trkpt>
      <trkpt lat="44.41942" lon="5.56138">
        <ele>920.7</ele>
        <time>2023-03-20T10:07:59Z</time>
      </trkpt>
      <trkpt lat="44.41942" lon="5.56139">
        <ele>920.7</ele>
        <time>2023-03-20T10:08:00Z</time>
      </trkpt>
      <trkpt lat="44.41943" lon="5.56139">
        <ele>920.6</ele>
        <time>2023-03-20T10:08:01Z</time>
      </trkpt>
      <trkpt lat="44.41946" lon="5.56143">
        <ele>920.5</ele>
        <time>2023-03-20T10:08:02Z</time>
      </trkpt>
      <trkpt lat="44.41947" lon="5.56144">
        <ele>920.5</ele>
        <time>2023-03-20T10:08:03Z</time>
      </trkpt>
      <trkpt lat="44.4195" lon="5.56146">
        <ele>920.4</ele>
        <time>2023-03-20T10:08:04Z</time>
      </trkpt>
      <trkpt lat="44.41952" lon="5.56148">
        <ele>920.3</ele>
        <time>2023-03-20T10:08:05Z</time>
      </trkpt>
      <trkpt lat="44.41955" lon="5.5615">
        <ele>920.1</ele>
        <time>2023-03-20T10:08:06Z</time>
      </trkpt>
      <trkpt lat="44.41957" lon="5.56152">
        <ele>920</ele>
        <time>2023-03-20T10:08:07Z</time>
      </trkpt>
      <trkpt lat="44.41961" lon="5.56153">
        <ele>919.9</ele>
        <time>2023-03-20T10:08:08Z</time>
      </trkpt>
      <trkpt lat="44.41962" lon="5.56154">
        <ele>919.8</ele>
        <time>2023-03-20T10:08:09Z</time>
      </trkpt>
      <trkpt lat="44.41966" lon="5.56155">
        <ele>919.6</ele>
        <time>2023-03-20T10:08:10Z</time>
      </trkpt>
      <trkpt lat="44.41967" lon="5.56156">
        <ele>919.5</ele>
        <time>2023-03-20T10:08:11Z</time>
      </trkpt>
      <trkpt lat="44.4197" lon="5.56157">
        <ele>919.3</ele>
        <time>2023-03-20T10:08:12Z</time>
      </trkpt>
      <trkpt lat="44.41972" lon="5.56158">
        <ele>919.2</ele>
        <time>2023-03-20T10:08:13Z</time>
      </trkpt>
      <trkpt lat="44.41976" lon="5.56159">
        <ele>918.9</ele>
        <time>2023-03-20T10:08:14Z</time>
      </trkpt>
      <trkpt lat="44.41978" lon="5.5616">
        <ele>918.8</ele>
        <time>2023-03-20T10:08:15Z</time>
      </trkpt>
      <trkpt lat="44.4198" lon="5.5616">
        <ele>918.5</ele>
        <time>2023-03-20T10:08:16Z</time>
      </trkpt>
      <trkpt lat="44.41983" lon="5.5616">
        <ele>918.3</ele>
        <time>2023-03-20T10:08:17Z</time>
      </trkpt>
      <trkpt lat="44.41987" lon="5.56161">
        <ele>917.9</ele>
        <time>2023-03-20T10:08:18Z</time>
      </trkpt>
      <trkpt lat="44.41988" lon="5.56161">
        <ele>917.8</ele>
        <time>2023-03-20T10:08:19Z</time>
      </trkpt>
      <trkpt lat="44.41992" lon="5.56161">
        <ele>917.4</ele>
        <time>2023-03-20T10:08:20Z</time>
      </trkpt>
      <trkpt lat="44.41993" lon="5.56161">
        <ele>917.3</ele>
        <time>2023-03-20T10:08:21Z</time>
      </trkpt>
      <trkpt lat="44.41997" lon="5.56162">
        <ele>916.9</ele>
        <time>2023-03-20T10:08:22Z</time>
      </trkpt>
      <trkpt lat="44.41999" lon="5.56162">
        <ele>916.7</ele>
        <time>2023-03-20T10:08:23Z</time>
      </trkpt>
      <trkpt lat="44.42001" lon="5.56161">
        <ele>916.5</ele>
        <time>2023-03-20T10:08:24Z</time>
      </trkpt>
      <trkpt lat="44.42005" lon="5.5616">
        <ele>916.2</ele>
        <time>2023-03-20T10:08:25Z</time>
      </trkpt>
      <trkpt lat="44.42007" lon="5.5616">
        <ele>915.9</ele>
        <time>2023-03-20T10:08:26Z</time>
      </trkpt>
      <trkpt lat="44.4201" lon="5.56159">
        <ele>915.7</ele>
        <time>2023-03-20T10:08:27Z</time>
      </trkpt>
      <trkpt lat="44.42013" lon="5.56158">
        <ele>915.4</ele>
        <time>2023-03-20T10:08:28Z</time>
      </trkpt>
      <trkpt lat="44.42017" lon="5.56158">
        <ele>915.2</ele>
        <time>2023-03-20T10:08:29Z</time>
      </trkpt>
      <trkpt lat="44.4202" lon="5.56158">
        <ele>914.8</ele>
        <time>2023-03-20T10:08:30Z</time>
      </trkpt>
      <trkpt lat="44.42024" lon="5.56158">
        <ele>914.5</ele>
        <time>2023-03-20T10:08:31Z</time>
      </trkpt>
      <trkpt lat="44.42028" lon="5.56157">
        <ele>914.2</ele>
        <time>2023-03-20T10:08:32Z</time>
      </trkpt>
      <trkpt lat="44.42031" lon="5.56157">
        <ele>913.9</ele>
        <time>2023-03-20T10:08:33Z</time>
      </trkpt>
      <trkpt lat="44.42035" lon="5.56156">
        <ele>913.6</ele>
        <time>2023-03-20T10:08:34Z</time>
      </trkpt>
      <trkpt lat="44.42039" lon="5.56156">
        <ele>913.3</ele>
        <time>2023-03-20T10:08:35Z</time>
      </trkpt>
      <trkpt lat="44.42042" lon="5.56156">
        <ele>913.3</ele>
        <time>2023-03-20T10:08:36Z</time>
      </trkpt>
      <trkpt lat="44.42046" lon="5.56156">
        <ele>913.4</ele>
        <time>2023-03-20T10:08:37Z</time>
      </trkpt>
      <trkpt lat="44.42049" lon="5.56156">
        <ele>913.5</ele>
        <time>2023-03-20T10:08:38Z</time>
      </trkpt>
      <trkpt lat="44.42053" lon="5.56156">
        <ele>913.6</ele>
        <time>2023-03-20T10:08:39Z</time>
      </trkpt>
      <trkpt lat="44.42056" lon="5.56156">
        <ele>913.6</ele>
        <time>2023-03-20T10:08:40Z</time>
      </trkpt>
      <trkpt lat="44.4206" lon="5.56156">
        <ele>913.7</ele>
        <time>2023-03-20T10:08:41Z</time>
      </trkpt>
      <trkpt lat="44.42063" lon="5.56157">
        <ele>913.8</ele>
        <time>2023-03-20T10:08:42Z</time>
      </trkpt>
      <trkpt lat="44.42067" lon="5.56157">
        <ele>914</ele>
        <time>2023-03-20T10:08:43Z</time>
      </trkpt>
      <trkpt lat="44.4207" lon="5.56158">
        <ele>914.1</ele>
        <time>2023-03-20T10:08:44Z</time>
      </trkpt>
      <trkpt lat="44.42073" lon="5.56158">
        <ele>914.2</ele>
        <time>2023-03-20T10:08:45Z</time>
      </trkpt>
      <trkpt lat="44.42077" lon="5.56158">
        <ele>914.2</ele>
        <time>2023-03-20T10:08:46Z</time>
      </trkpt>
      <trkpt lat="44.4208" lon="5.56159">
        <ele>914.7</ele>
        <time>2023-03-20T10:08:47Z</time>
      </trkpt>
      <trkpt lat="44.42083" lon="5.5616">
        <ele>914.8</ele>
        <time>2023-03-20T10:08:48Z</time>
      </trkpt>
      <trkpt lat="44.42087" lon="5.56161">
        <ele>914.9</ele>
        <time>2023-03-20T10:08:49Z</time>
      </trkpt>
      <trkpt lat="44.4209" lon="5.56162">
        <ele>915</ele>
        <time>2023-03-20T10:08:50Z</time>
      </trkpt>
      <trkpt lat="44.42093" lon="5.56163">
        <ele>915.6</ele>
        <time>2023-03-20T10:08:51Z</time>
      </trkpt>
      <trkpt lat="44.42096" lon="5.56165">
        <ele>915.7</ele>
        <time>2023-03-20T10:08:52Z</time>
      </trkpt>
      <trkpt lat="44.42099" lon="5.56167">
        <ele>913.2</ele>
        <time>2023-03-20T10:08:53Z</time>
      </trkpt>
      <trkpt lat="44.42102" lon="5.5617">
        <ele>913.3</ele>
        <time>2023-03-20T10:08:54Z</time>
      </trkpt>
      <trkpt lat="44.42105" lon="5.56173">
        <ele>914</ele>
        <time>2023-03-20T10:08:55Z</time>
      </trkpt>
      <trkpt lat="44.42109" lon="5.56175">
        <ele>914.1</ele>
        <time>2023-03-20T10:08:56Z</time>
      </trkpt>
      <trkpt lat="44.42112" lon="5.56177">
        <ele>914.2</ele>
        <time>2023-03-20T10:08:57Z</time>
      </trkpt>
      <trkpt lat="44.42116" lon="5.56178">
        <ele>914.9</ele>
        <time>2023-03-20T10:08:58Z</time>
      </trkpt>
      <trkpt lat="44.42119" lon="5.56179">
        <ele>915</ele>
        <time>2023-03-20T10:08:59Z</time>
      </trkpt>
      <trkpt lat="44.42123" lon="5.56179">
        <ele>915.1</ele>
        <time>2023-03-20T10:09:00Z</time>
      </trkpt>
      <trkpt lat="44.42126" lon="5.56178">
        <ele>915.2</ele>
        <time>2023-03-20T10:09:01Z</time>
      </trkpt>
      <trkpt lat="44.42128" lon="5.56177">
        <ele>915.7</ele>
        <time>2023-03-20T10:09:02Z</time>
      </trkpt>
      <trkpt lat="44.42131" lon="5.56176">
        <ele>915.8</ele>
        <time>2023-03-20T10:09:03Z</time>
      </trkpt>
      <trkpt lat="44.42135" lon="5.56176">
        <ele>915.9</ele>
        <time>2023-03-20T10:09:04Z</time>
      </trkpt>
      <trkpt lat="44.42138" lon="5.56177">
        <ele>916</ele>
        <time>2023-03-20T10:09:05Z</time>
      </trkpt>
      <trkpt lat="44.42142" lon="5.56178">
        <ele>916.5</ele>
        <time>2023-03-20T10:09:06Z</time>
      </trkpt>
      <trkpt lat="44.42146" lon="5.5618">
        <ele>916.6</ele>
        <time>2023-03-20T10:09:07Z</time>
      </trkpt>
      <trkpt lat="44.42149" lon="5.56181">
        <ele>916.7</ele>
        <time>2023-03-20T10:09:08Z</time>
      </trkpt>
      <trkpt lat="44.42153" lon="5.56182">
        <ele>917.1</ele>
        <time>2023-03-20T10:09:09Z</time>
      </trkpt>
      <trkpt lat="44.42156" lon="5.56184">
        <ele>915.6</ele>
        <time>2023-03-20T10:09:10Z</time>
      </trkpt>
      <trkpt lat="44.42159" lon="5.56186">
        <ele>915.7</ele>
        <time>2023-03-20T10:09:11Z</time>
      </trkpt>
      <trkpt lat="44.42163" lon="5.56188">
        <ele>915.8</ele>
        <time>2023-03-20T10:09:12Z</time>
      </trkpt>
      <trkpt lat="44.42167" lon="5.5619">
        <ele>916.7</ele>
        <time>2023-03-20T10:09:13Z</time>
      </trkpt>
      <trkpt lat="44.4217" lon="5.56191">
        <ele>916.8</ele>
        <time>2023-03-20T10:09:14Z</time>
      </trkpt>
      <trkpt lat="44.42174" lon="5.56192">
        <ele>916.9</ele>
        <time>2023-03-20T10:09:15Z</time>
      </trkpt>
      <trkpt lat="44.42177" lon="5.56193">
        <ele>918</ele>
        <time>2023-03-20T10:09:16Z</time>
      </trkpt>
      <trkpt lat="44.42181" lon="5.56193">
        <ele>918.1</ele>
        <time>2023-03-20T10:09:17Z</time>
      </trkpt>
      <trkpt lat="44.42184" lon="5.56194">
        <ele>918.2</ele>
        <time>2023-03-20T10:09:18Z</time>
      </trkpt>
      <trkpt lat="44.42187" lon="5.56196">
        <ele>918.3</ele>
        <time>2023-03-20T10:09:19Z</time>
      </trkpt>
      <trkpt lat="44.42191" lon="5.56197">
        <ele>919.7</ele>
        <time>2023-03-20T10:09:20Z</time>
      </trkpt>
      <trkpt lat="44.42192" lon="5.56197">
        <ele>919.8</ele>
        <time>2023-03-20T10:09:21Z</time>
      </trkpt>
      <trkpt lat="44.42195" lon="5.56198">
        <ele>919.9</ele>
        <time>2023-03-20T10:09:22Z</time>
      </trkpt>
      <trkpt lat="44.42196" lon="5.56199">
        <ele>920</ele>
        <time>2023-03-20T10:09:23Z</time>
      </trkpt>
      <trkpt lat="44.42198" lon="5.56201">
        <ele>918.8</ele>
        <time>2023-03-20T10:09:24Z</time>
      </trkpt>
      <trkpt lat="44.42201" lon="5.56202">
        <ele>918.9</ele>
        <time>2023-03-20T10:09:25Z</time>
      </trkpt>
      <trkpt lat="44.42203" lon="5.56205">
        <ele>920.4</ele>
        <time>2023-03-20T10:09:26Z</time>
      </trkpt>
      <trkpt lat="44.42206" lon="5.56206">
        <ele>920.5</ele>
        <time>2023-03-20T10:09:27Z</time>
      </trkpt>
      <trkpt lat="44.42208" lon="5.56208">
        <ele>920.6</ele>
        <time>2023-03-20T10:09:28Z</time>
      </trkpt>
      <trkpt lat="44.42211" lon="5.5621">
        <ele>920.7</ele>
        <time>2023-03-20T10:09:29Z</time>
      </trkpt>
      <trkpt lat="44.42214" lon="5.56211">
        <ele>922.2</ele>
        <time>2023-03-20T10:09:30Z</time>
      </trkpt>
      <trkpt lat="44.42217" lon="5.56213">
        <ele>922.3</ele>
        <time>2023-03-20T10:09:31Z</time>
      </trkpt>
      <trkpt lat="44.42219" lon="5.56214">
        <ele>922.4</ele>
        <time>2023-03-20T10:09:32Z</time>
      </trkpt>
      <trkpt lat="44.42222" lon="5.56215">
        <ele>922.5</ele>
        <time>2023-03-20T10:09:33Z</time>
      </trkpt>
      <trkpt lat="44.42225" lon="5.56216">
        <ele>922.6</ele>
        <time>2023-03-20T10:09:34Z</time>
      </trkpt>
      <trkpt lat="44.42228" lon="5.56218">
        <ele>924</ele>
        <time>2023-03-20T10:09:35Z</time>
      </trkpt>
      <trkpt lat="44.4223" lon="5.56222">
        <ele>924.1</ele>
        <time>2023-03-20T10:09:36Z</time>
      </trkpt>
      <trkpt lat="44.42233" lon="5.56225">
        <ele>924.2</ele>
        <time>2023-03-20T10:09:37Z</time>
      </trkpt>
      <trkpt lat="44.42235" lon="5.56229">
        <ele>924.3</ele>
        <time>2023-03-20T10:09:38Z</time>
      </trkpt>
      <trkpt lat="44.42237" lon="5.56232">
        <ele>924.4</ele>
        <time>2023-03-20T10:09:39Z</time>
      </trkpt>
      <trkpt lat="44.42239" lon="5.56235">
        <ele>926.5</ele>
        <time>2023-03-20T10:09:40Z</time>
      </trkpt>
      <trkpt lat="44.42242" lon="5.56237">
        <ele>926.6</ele>
        <time>2023-03-20T10:09:41Z</time>
      </trkpt>
      <trkpt lat="44.42245" lon="5.56238">
        <ele>926.7</ele>
        <time>2023-03-20T10:09:42Z</time>
      </trkpt>
      <trkpt lat="44.42248" lon="5.5624">
        <ele>926.8</ele>
        <time>2023-03-20T10:09:43Z</time>
      </trkpt>
      <trkpt lat="44.4225" lon="5.56242">
        <ele>929.3</ele>
        <time>2023-03-20T10:09:44Z</time>
      </trkpt>
      <trkpt lat="44.42253" lon="5.56243">
        <ele>929.4</ele>
        <time>2023-03-20T10:09:45Z</time>
      </trkpt>
      <trkpt lat="44.42256" lon="5.56245">
        <ele>929.5</ele>
        <time>2023-03-20T10:09:46Z</time>
      </trkpt>
      <trkpt lat="44.42259" lon="5.56247">
        <ele>929.6</ele>
        <time>2023-03-20T10:09:47Z</time>
      </trkpt>
      <trkpt lat="44.42261" lon="5.56249">
        <ele>929.7</ele>
        <time>2023-03-20T10:09:48Z</time>
      </trkpt>
      <trkpt lat="44.42265" lon="5.56251">
        <ele>931.8</ele>
        <time>2023-03-20T10:09:49Z</time>
      </trkpt>
      <trkpt lat="44.42266" lon="5.56252">
        <ele>932</ele>
        <time>2023-03-20T10:09:50Z</time>
      </trkpt>
      <trkpt lat="44.4227" lon="5.56254">
        <ele>932.1</ele>
        <time>2023-03-20T10:09:51Z</time>
      </trkpt>
      <trkpt lat="44.42271" lon="5.56254">
        <ele>932.2</ele>
        <time>2023-03-20T10:09:52Z</time>
      </trkpt>
      <trkpt lat="44.42274" lon="5.56255">
        <ele>932.2</ele>
        <time>2023-03-20T10:09:53Z</time>
      </trkpt>
      <trkpt lat="44.42277" lon="5.56256">
        <ele>934.9</ele>
        <time>2023-03-20T10:09:54Z</time>
      </trkpt>
      <trkpt lat="44.4228" lon="5.56256">
        <ele>935</ele>
        <time>2023-03-20T10:09:55Z</time>
      </trkpt>
      <trkpt lat="44.42283" lon="5.56257">
        <ele>935.1</ele>
        <time>2023-03-20T10:09:56Z</time>
      </trkpt>
      <trkpt lat="44.42285" lon="5.56258">
        <ele>935.2</ele>
        <time>2023-03-20T10:09:57Z</time>
      </trkpt>
      <trkpt lat="44.42288" lon="5.56259">
        <ele>937.7</ele>
        <time>2023-03-20T10:09:58Z</time>
      </trkpt>
      <trkpt lat="44.42289" lon="5.5626">
        <ele>937.8</ele>
        <time>2023-03-20T10:09:59Z</time>
      </trkpt>
      <trkpt lat="44.42293" lon="5.5626">
        <ele>937.9</ele>
        <time>2023-03-20T10:10:00Z</time>
      </trkpt>
      <trkpt lat="44.42294" lon="5.5626">
        <ele>938</ele>
        <time>2023-03-20T10:10:01Z</time>
      </trkpt>
      <trkpt lat="44.42298" lon="5.56261">
        <ele>938.1</ele>
        <time>2023-03-20T10:10:02Z</time>
      </trkpt>
      <trkpt lat="44.42299" lon="5.56262">
        <ele>938.2</ele>
        <time>2023-03-20T10:10:03Z</time>
      </trkpt>
      <trkpt lat="44.42302" lon="5.56263">
        <ele>941</ele>
        <time>2023-03-20T10:10:04Z</time>
      </trkpt>
      <trkpt lat="44.42304" lon="5.56263">
        <ele>941.1</ele>
        <time>2023-03-20T10:10:05Z</time>
      </trkpt>
      <trkpt lat="44.42307" lon="5.56264">
        <ele>941.2</ele>
        <time>2023-03-20T10:10:06Z</time>
      </trkpt>
      <trkpt lat="44.42309" lon="5.56264">
        <ele>941.3</ele>
        <time>2023-03-20T10:10:07Z</time>
      </trkpt>
      <trkpt lat="44.42312" lon="5.56265">
        <ele>944.1</ele>
        <time>2023-03-20T10:10:08Z</time>
      </trkpt>
      <trkpt lat="44.42313" lon="5.56265">
        <ele>944.2</ele>
        <time>2023-03-20T10:10:09Z</time>
      </trkpt>
      <trkpt lat="44.42317" lon="5.56266">
        <ele>944.3</ele>
        <time>2023-03-20T10:10:10Z</time>
      </trkpt>
      <trkpt lat="44.42318" lon="5.56266">
        <ele>944.4</ele>
        <time>2023-03-20T10:10:11Z</time>
      </trkpt>
      <trkpt lat="44.42322" lon="5.56266">
        <ele>944.5</ele>
        <time>2023-03-20T10:10:12Z</time>
      </trkpt>
      <trkpt lat="44.42323" lon="5.56266">
        <ele>944.6</ele>
        <time>2023-03-20T10:10:13Z</time>
      </trkpt>
      <trkpt lat="44.42326" lon="5.56266">
        <ele>947</ele>
        <time>2023-03-20T10:10:14Z</time>
      </trkpt>
      <trkpt lat="44.42327" lon="5.56266">
        <ele>947.1</ele>
        <time>2023-03-20T10:10:15Z</time>
      </trkpt>
      <trkpt lat="44.4233" lon="5.56267">
        <ele>947.2</ele>
        <time>2023-03-20T10:10:16Z</time>
      </trkpt>
      <trkpt lat="44.42331" lon="5.56267">
        <ele>947.3</ele>
        <time>2023-03-20T10:10:17Z</time>
      </trkpt>
      <trkpt lat="44.42335" lon="5.56267">
        <ele>947.4</ele>
        <time>2023-03-20T10:10:18Z</time>
      </trkpt>
      <trkpt lat="44.42336" lon="5.56267">
        <ele>947.5</ele>
        <time>2023-03-20T10:10:19Z</time>
      </trkpt>
      <trkpt lat="44.4234" lon="5.56268">
        <ele>949.8</ele>
        <time>2023-03-20T10:10:20Z</time>
      </trkpt>
      <trkpt lat="44.42341" lon="5.56268">
        <ele>949.9</ele>
        <time>2023-03-20T10:10:21Z</time>
      </trkpt>
      <trkpt lat="44.42344" lon="5.56269">
        <ele>950</ele>
        <time>2023-03-20T10:10:22Z</time>
      </trkpt>
      <trkpt lat="44.42348" lon="5.5627">
        <ele>950.5</ele>
        <time>2023-03-20T10:10:23Z</time>
      </trkpt>
      <trkpt lat="44.42349" lon="5.5627">
        <ele>952.3</ele>
        <time>2023-03-20T10:10:24Z</time>
      </trkpt>
      <trkpt lat="44.42353" lon="5.56272">
        <ele>952.4</ele>
        <time>2023-03-20T10:10:25Z</time>
      </trkpt>
      <trkpt lat="44.42354" lon="5.56273">
        <ele>952.5</ele>
        <time>2023-03-20T10:10:26Z</time>
      </trkpt>
      <trkpt lat="44.42356" lon="5.56275">
        <ele>952.5</ele>
        <time>2023-03-20T10:10:27Z</time>
      </trkpt>
      <trkpt lat="44.42357" lon="5.56275">
        <ele>952.6</ele>
        <time>2023-03-20T10:10:28Z</time>
      </trkpt>
      <trkpt lat="44.4236" lon="5.56277">
        <ele>952.7</ele>
        <time>2023-03-20T10:10:29Z</time>
      </trkpt>
      <trkpt lat="44.42361" lon="5.56278">
        <ele>953</ele>
        <time>2023-03-20T10:10:30Z</time>
      </trkpt>
      <trkpt lat="44.42364" lon="5.56279">
        <ele>953.8</ele>
        <time>2023-03-20T10:10:31Z</time>
      </trkpt>
      <trkpt lat="44.42365" lon="5.5628">
        <ele>954.1</ele>
        <time>2023-03-20T10:10:32Z</time>
      </trkpt>
      <trkpt lat="44.42369" lon="5.56281">
        <ele>954.9</ele>
        <time>2023-03-20T10:10:33Z</time>
      </trkpt>
      <trkpt lat="44.4237" lon="5.56282">
        <ele>955.1</ele>
        <time>2023-03-20T10:10:34Z</time>
      </trkpt>
      <trkpt lat="44.42373" lon="5.56284">
        <ele>955.8</ele>
        <time>2023-03-20T10:10:35Z</time>
      </trkpt>
      <trkpt lat="44.42374" lon="5.56284">
        <ele>956</ele>
        <time>2023-03-20T10:10:36Z</time>
      </trkpt>
      <trkpt lat="44.42377" lon="5.56286">
        <ele>956.5</ele>
        <time>2023-03-20T10:10:37Z</time>
      </trkpt>
      <trkpt lat="44.4238" lon="5.56289">
        <ele>956.9</ele>
        <time>2023-03-20T10:10:38Z</time>
      </trkpt>
      <trkpt lat="44.42381" lon="5.56289">
        <ele>957</ele>
        <time>2023-03-20T10:10:39Z</time>
      </trkpt>
      <trkpt lat="44.42386" lon="5.56292">
        <ele>957.5</ele>
        <time>2023-03-20T10:10:41Z</time>
      </trkpt>
      <trkpt lat="44.42389" lon="5.56294">
        <ele>957.7</ele>
        <time>2023-03-20T10:10:42Z</time>
      </trkpt>
      <trkpt lat="44.4239" lon="5.56295">
        <ele>957.8</ele>
        <time>2023-03-20T10:10:43Z</time>
      </trkpt>
      <trkpt lat="44.42393" lon="5.56297">
        <ele>958.1</ele>
        <time>2023-03-20T10:10:44Z</time>
      </trkpt>
      <trkpt lat="44.42394" lon="5.56298">
        <ele>958.2</ele>
        <time>2023-03-20T10:10:45Z</time>
      </trkpt>
      <trkpt lat="44.42397" lon="5.563">
        <ele>958.4</ele>
        <time>2023-03-20T10:10:46Z</time>
      </trkpt>
      <trkpt lat="44.42398" lon="5.56301">
        <ele>958.5</ele>
        <time>2023-03-20T10:10:47Z</time>
      </trkpt>
      <trkpt lat="44.424" lon="5.56304">
        <ele>958.8</ele>
        <time>2023-03-20T10:10:48Z</time>
      </trkpt>
      <trkpt lat="44.42401" lon="5.56305">
        <ele>958.9</ele>
        <time>2023-03-20T10:10:49Z</time>
      </trkpt>
      <trkpt lat="44.42404" lon="5.56308">
        <ele>959.1</ele>
        <time>2023-03-20T10:10:50Z</time>
      </trkpt>
      <trkpt lat="44.42404" lon="5.56309">
        <ele>959.2</ele>
        <time>2023-03-20T10:10:51Z</time>
      </trkpt>
      <trkpt lat="44.42408" lon="5.56311">
        <ele>959.6</ele>
        <time>2023-03-20T10:10:52Z</time>
      </trkpt>
      <trkpt lat="44.42409" lon="5.56312">
        <ele>959.7</ele>
        <time>2023-03-20T10:10:53Z</time>
      </trkpt>
      <trkpt lat="44.42412" lon="5.56313">
        <ele>959.9</ele>
        <time>2023-03-20T10:10:54Z</time>
      </trkpt>
      <trkpt lat="44.42413" lon="5.56313">
        <ele>960</ele>
        <time>2023-03-20T10:10:55Z</time>
      </trkpt>
      <trkpt lat="44.42416" lon="5.56315">
        <ele>960.4</ele>
        <time>2023-03-20T10:10:56Z</time>
      </trkpt>
      <trkpt lat="44.42417" lon="5.56316">
        <ele>960.5</ele>
        <time>2023-03-20T10:10:57Z</time>
      </trkpt>
      <trkpt lat="44.4242" lon="5.56318">
        <ele>960.8</ele>
        <time>2023-03-20T10:10:58Z</time>
      </trkpt>
      <trkpt lat="44.42421" lon="5.56319">
        <ele>960.9</ele>
        <time>2023-03-20T10:10:59Z</time>
      </trkpt>
      <trkpt lat="44.42424" lon="5.56322">
        <ele>961.2</ele>
        <time>2023-03-20T10:11:00Z</time>
      </trkpt>
      <trkpt lat="44.42425" lon="5.56323">
        <ele>961.3</ele>
        <time>2023-03-20T10:11:01Z</time>
      </trkpt>
      <trkpt lat="44.42428" lon="5.56325">
        <ele>961.6</ele>
        <time>2023-03-20T10:11:02Z</time>
      </trkpt>
      <trkpt lat="44.42429" lon="5.56326">
        <ele>961.7</ele>
        <time>2023-03-20T10:11:03Z</time>
      </trkpt>
      <trkpt lat="44.42433" lon="5.56329">
        <ele>962</ele>
        <time>2023-03-20T10:11:04Z</time>
      </trkpt>
      <trkpt lat="44.42434" lon="5.5633">
        <ele>962.1</ele>
        <time>2023-03-20T10:11:05Z</time>
      </trkpt>
      <trkpt lat="44.42437" lon="5.56332">
        <ele>962.4</ele>
        <time>2023-03-20T10:11:06Z</time>
      </trkpt>
      <trkpt lat="44.42438" lon="5.56333">
        <ele>962.5</ele>
        <time>2023-03-20T10:11:07Z</time>
      </trkpt>
      <trkpt lat="44.42441" lon="5.56336">
        <ele>962.8</ele>
        <time>2023-03-20T10:11:08Z</time>
      </trkpt>
      <trkpt lat="44.42442" lon="5.56337">
        <ele>962.9</ele>
        <time>2023-03-20T10:11:09Z</time>
      </trkpt>
      <trkpt lat="44.42445" lon="5.5634">
        <ele>963.2</ele>
        <time>2023-03-20T10:11:10Z</time>
      </trkpt>
      <trkpt lat="44.42446" lon="5.56341">
        <ele>963.3</ele>
        <time>2023-03-20T10:11:11Z</time>
      </trkpt>
      <trkpt lat="44.42448" lon="5.56344">
        <ele>963.6</ele>
        <time>2023-03-20T10:11:12Z</time>
      </trkpt>
      <trkpt lat="44.42449" lon="5.56346">
        <ele>963.7</ele>
        <time>2023-03-20T10:11:13Z</time>
      </trkpt>
      <trkpt lat="44.42452" lon="5.56349">
        <ele>964.1</ele>
        <time>2023-03-20T10:11:14Z</time>
      </trkpt>
      <trkpt lat="44.42454" lon="5.56351">
        <ele>964.2</ele>
        <time>2023-03-20T10:11:15Z</time>
      </trkpt>
      <trkpt lat="44.42456" lon="5.56355">
        <ele>964.7</ele>
        <time>2023-03-20T10:11:16Z</time>
      </trkpt>
      <trkpt lat="44.42457" lon="5.56357">
        <ele>964.8</ele>
        <time>2023-03-20T10:11:17Z</time>
      </trkpt>
      <trkpt lat="44.42458" lon="5.5636">
        <ele>965.1</ele>
        <time>2023-03-20T10:11:18Z</time>
      </trkpt>
      <trkpt lat="44.42459" lon="5.56364">
        <ele>965.4</ele>
        <time>2023-03-20T10:11:19Z</time>
      </trkpt>
      <trkpt lat="44.42461" lon="5.56367">
        <ele>965.8</ele>
        <time>2023-03-20T10:11:20Z</time>
      </trkpt>
      <trkpt lat="44.42462" lon="5.56371">
        <ele>966</ele>
        <time>2023-03-20T10:11:21Z</time>
      </trkpt>
      <trkpt lat="44.42464" lon="5.56376">
        <ele>966.4</ele>
        <time>2023-03-20T10:11:22Z</time>
      </trkpt>
      <trkpt lat="44.42464" lon="5.56377">
        <ele>966.5</ele>
        <time>2023-03-20T10:11:23Z</time>
      </trkpt>
      <trkpt lat="44.42465" lon="5.56381">
        <ele>966.7</ele>
        <time>2023-03-20T10:11:24Z</time>
      </trkpt>
      <trkpt lat="44.42466" lon="5.56385">
        <ele>967</ele>
        <time>2023-03-20T10:11:25Z</time>
      </trkpt>
      <trkpt lat="44.42466" lon="5.56389">
        <ele>967.2</ele>
        <time>2023-03-20T10:11:26Z</time>
      </trkpt>
      <trkpt lat="44.42467" lon="5.56394">
        <ele>967.4</ele>
        <time>2023-03-20T10:11:27Z</time>
      </trkpt>
      <trkpt lat="44.42468" lon="5.56398">
        <ele>967.6</ele>
        <time>2023-03-20T10:11:28Z</time>
      </trkpt>
      <trkpt lat="44.42468" lon="5.56403">
        <ele>967.8</ele>
        <time>2023-03-20T10:11:29Z</time>
      </trkpt>
      <trkpt lat="44.42468" lon="5.56407">
        <ele>968</ele>
        <time>2023-03-20T10:11:30Z</time>
      </trkpt>
      <trkpt lat="44.42468" lon="5.56412">
        <ele>968.2</ele>
        <time>2023-03-20T10:11:31Z</time>
      </trkpt>
      <trkpt lat="44.42468" lon="5.56417">
        <ele>968.3</ele>
        <time>2023-03-20T10:11:32Z</time>
      </trkpt>
      <trkpt lat="44.42468" lon="5.56421">
        <ele>968.5</ele>
        <time>2023-03-20T10:11:33Z</time>
      </trkpt>
      <trkpt lat="44.42467" lon="5.56425">
        <ele>968.7</ele>
        <time>2023-03-20T10:11:34Z</time>
      </trkpt>
      <trkpt lat="44.42467" lon="5.56429">
        <ele>968.9</ele>
        <time>2023-03-20T10:11:35Z</time>
      </trkpt>
      <trkpt lat="44.42466" lon="5.56436">
        <ele>969.3</ele>
        <time>2023-03-20T10:11:37Z</time>
      </trkpt>
      <trkpt lat="44.42465" lon="5.5644">
        <ele>969.6</ele>
        <time>2023-03-20T10:11:38Z</time>
      </trkpt>
      <trkpt lat="44.42463" lon="5.56444">
        <ele>969.9</ele>
        <time>2023-03-20T10:11:39Z</time>
      </trkpt>
      <trkpt lat="44.42461" lon="5.56448">
        <ele>970.3</ele>
        <time>2023-03-20T10:11:40Z</time>
      </trkpt>
      <trkpt lat="44.4246" lon="5.56452">
        <ele>970.7</ele>
        <time>2023-03-20T10:11:41Z</time>
      </trkpt>
      <trkpt lat="44.42459" lon="5.56455">
        <ele>971.2</ele>
        <time>2023-03-20T10:11:42Z</time>
      </trkpt>
      <trkpt lat="44.42458" lon="5.56461">
        <ele>971.8</ele>
        <time>2023-03-20T10:11:43Z</time>
      </trkpt>
      <trkpt lat="44.42458" lon="5.56463">
        <ele>972.1</ele>
        <time>2023-03-20T10:11:44Z</time>
      </trkpt>
      <trkpt lat="44.42457" lon="5.56467">
        <ele>972.7</ele>
        <time>2023-03-20T10:11:45Z</time>
      </trkpt>
      <trkpt lat="44.42455" lon="5.56471">
        <ele>973.3</ele>
        <time>2023-03-20T10:11:46Z</time>
      </trkpt>
      <trkpt lat="44.42454" lon="5.56475">
        <ele>973.9</ele>
        <time>2023-03-20T10:11:47Z</time>
      </trkpt>
      <trkpt lat="44.42454" lon="5.56479">
        <ele>974.5</ele>
        <time>2023-03-20T10:11:48Z</time>
      </trkpt>
      <trkpt lat="44.42454" lon="5.56484">
        <ele>975.2</ele>
        <time>2023-03-20T10:11:49Z</time>
      </trkpt>
      <trkpt lat="44.42454" lon="5.56488">
        <ele>975.8</ele>
        <time>2023-03-20T10:11:50Z</time>
      </trkpt>
      <trkpt lat="44.42455" lon="5.56493">
        <ele>976.4</ele>
        <time>2023-03-20T10:11:51Z</time>
      </trkpt>
      <trkpt lat="44.42456" lon="5.56496">
        <ele>976.9</ele>
        <time>2023-03-20T10:11:52Z</time>
      </trkpt>
      <trkpt lat="44.42459" lon="5.56499">
        <ele>977.5</ele>
        <time>2023-03-20T10:11:53Z</time>
      </trkpt>
      <trkpt lat="44.4246" lon="5.565">
        <ele>977.7</ele>
        <time>2023-03-20T10:11:54Z</time>
      </trkpt>
      <trkpt lat="44.42462" lon="5.56502">
        <ele>978.3</ele>
        <time>2023-03-20T10:11:55Z</time>
      </trkpt>
      <trkpt lat="44.42463" lon="5.56503">
        <ele>978.4</ele>
        <time>2023-03-20T10:11:56Z</time>
      </trkpt>
      <trkpt lat="44.42466" lon="5.56506">
        <ele>979</ele>
        <time>2023-03-20T10:11:57Z</time>
      </trkpt>
      <trkpt lat="44.42467" lon="5.56506">
        <ele>979.1</ele>
        <time>2023-03-20T10:11:58Z</time>
      </trkpt>
      <trkpt lat="44.4247" lon="5.56509">
        <ele>979.7</ele>
        <time>2023-03-20T10:11:59Z</time>
      </trkpt>
      <trkpt lat="44.42471" lon="5.5651">
        <ele>979.9</ele>
        <time>2023-03-20T10:12:00Z</time>
      </trkpt>
      <trkpt lat="44.42474" lon="5.56512">
        <ele>980.5</ele>
        <time>2023-03-20T10:12:01Z</time>
      </trkpt>
      <trkpt lat="44.42475" lon="5.56512">
        <ele>980.6</ele>
        <time>2023-03-20T10:12:02Z</time>
      </trkpt>
      <trkpt lat="44.42479" lon="5.56514">
        <ele>981.1</ele>
        <time>2023-03-20T10:12:03Z</time>
      </trkpt>
      <trkpt lat="44.4248" lon="5.56514">
        <ele>981.3</ele>
        <time>2023-03-20T10:12:04Z</time>
      </trkpt>
      <trkpt lat="44.42483" lon="5.56516">
        <ele>981.8</ele>
        <time>2023-03-20T10:12:05Z</time>
      </trkpt>
      <trkpt lat="44.42484" lon="5.56517">
        <ele>981.9</ele>
        <time>2023-03-20T10:12:06Z</time>
      </trkpt>
      <trkpt lat="44.42487" lon="5.56518">
        <ele>982.4</ele>
        <time>2023-03-20T10:12:07Z</time>
      </trkpt>
      <trkpt lat="44.42488" lon="5.56519">
        <ele>982.4</ele>
        <time>2023-03-20T10:12:08Z</time>
      </trkpt>
      <trkpt lat="44.4249" lon="5.56521">
        <ele>983</ele>
        <time>2023-03-20T10:12:09Z</time>
      </trkpt>
      <trkpt lat="44.42491" lon="5.56522">
        <ele>983.3</ele>
        <time>2023-03-20T10:12:10Z</time>
      </trkpt>
      <trkpt lat="44.42494" lon="5.56525">
        <ele>984</ele>
        <time>2023-03-20T10:12:11Z</time>
      </trkpt>
      <trkpt lat="44.42494" lon="5.56526">
        <ele>984.3</ele>
        <time>2023-03-20T10:12:12Z</time>
      </trkpt>
      <trkpt lat="44.42496" lon="5.5653">
        <ele>985</ele>
        <time>2023-03-20T10:12:13Z</time>
      </trkpt>
      <trkpt lat="44.42497" lon="5.56532">
        <ele>985.3</ele>
        <time>2023-03-20T10:12:14Z</time>
      </trkpt>
      <trkpt lat="44.42499" lon="5.56535">
        <ele>986</ele>
        <time>2023-03-20T10:12:15Z</time>
      </trkpt>
      <trkpt lat="44.425" lon="5.56536">
        <ele>986.2</ele>
        <time>2023-03-20T10:12:16Z</time>
      </trkpt>
      <trkpt lat="44.42503" lon="5.56539">
        <ele>986.9</ele>
        <time>2023-03-20T10:12:17Z</time>
      </trkpt>
      <trkpt lat="44.42504" lon="5.5654">
        <ele>987.2</ele>
        <time>2023-03-20T10:12:18Z</time>
      </trkpt>
      <trkpt lat="44.42506" lon="5.56543">
        <ele>987.8</ele>
        <time>2023-03-20T10:12:19Z</time>
      </trkpt>
      <trkpt lat="44.42507" lon="5.56544">
        <ele>988</ele>
        <time>2023-03-20T10:12:20Z</time>
      </trkpt>
      <trkpt lat="44.42509" lon="5.56547">
        <ele>988.8</ele>
        <time>2023-03-20T10:12:21Z</time>
      </trkpt>
      <trkpt lat="44.4251" lon="5.56548">
        <ele>989</ele>
        <time>2023-03-20T10:12:22Z</time>
      </trkpt>
      <trkpt lat="44.42512" lon="5.5655">
        <ele>989.7</ele>
        <time>2023-03-20T10:12:23Z</time>
      </trkpt>
      <trkpt lat="44.42513" lon="5.5655">
        <ele>990</ele>
        <time>2023-03-20T10:12:24Z</time>
      </trkpt>
      <trkpt lat="44.42516" lon="5.56551">
        <ele>990.7</ele>
        <time>2023-03-20T10:12:25Z</time>
      </trkpt>
      <trkpt lat="44.42517" lon="5.56551">
        <ele>991</ele>
        <time>2023-03-20T10:12:26Z</time>
      </trkpt>
      <trkpt lat="44.4252" lon="5.56548">
        <ele>991.7</ele>
        <time>2023-03-20T10:12:27Z</time>
      </trkpt>
      <trkpt lat="44.4252" lon="5.56547">
        <ele>992</ele>
        <time>2023-03-20T10:12:28Z</time>
      </trkpt>
      <trkpt lat="44.42521" lon="5.56543">
        <ele>992.7</ele>
        <time>2023-03-20T10:12:29Z</time>
      </trkpt>
      <trkpt lat="44.42522" lon="5.56541">
        <ele>993</ele>
        <time>2023-03-20T10:12:30Z</time>
      </trkpt>
      <trkpt lat="44.42523" lon="5.5654">
        <ele>993.3</ele>
        <time>2023-03-20T10:12:31Z</time>
      </trkpt>
      <trkpt lat="44.42524" lon="5.56538">
        <ele>993.6</ele>
        <time>2023-03-20T10:12:32Z</time>
      </trkpt>
      <trkpt lat="44.42525" lon="5.56537">
        <ele>993.9</ele>
        <time>2023-03-20T10:12:33Z</time>
      </trkpt>
      <trkpt lat="44.42526" lon="5.56536">
        <ele>994.3</ele>
        <time>2023-03-20T10:12:34Z</time>
      </trkpt>
      <trkpt lat="44.42529" lon="5.56533">
        <ele>994.9</ele>
        <time>2023-03-20T10:12:35Z</time>
      </trkpt>
      <trkpt lat="44.4253" lon="5.56533">
        <ele>995.1</ele>
        <time>2023-03-20T10:12:36Z</time>
      </trkpt>
      <trkpt lat="44.42533" lon="5.56531">
        <ele>995.7</ele>
        <time>2023-03-20T10:12:37Z</time>
      </trkpt>
      <trkpt lat="44.42534" lon="5.5653">
        <ele>995.9</ele>
        <time>2023-03-20T10:12:38Z</time>
      </trkpt>
      <trkpt lat="44.42537" lon="5.56528">
        <ele>996.5</ele>
        <time>2023-03-20T10:12:39Z</time>
      </trkpt>
      <trkpt lat="44.42537" lon="5.56527">
        <ele>996.6</ele>
        <time>2023-03-20T10:12:40Z</time>
      </trkpt>
      <trkpt lat="44.4254" lon="5.56525">
        <ele>997.2</ele>
        <time>2023-03-20T10:12:41Z</time>
      </trkpt>
      <trkpt lat="44.42541" lon="5.56524">
        <ele>997.4</ele>
        <time>2023-03-20T10:12:42Z</time>
      </trkpt>
      <trkpt lat="44.42543" lon="5.56522">
        <ele>997.9</ele>
        <time>2023-03-20T10:12:43Z</time>
      </trkpt>
      <trkpt lat="44.42544" lon="5.56521">
        <ele>998.1</ele>
        <time>2023-03-20T10:12:44Z</time>
      </trkpt>
      <trkpt lat="44.42546" lon="5.5652">
        <ele>998.4</ele>
        <time>2023-03-20T10:12:45Z</time>
      </trkpt>
      <trkpt lat="44.42547" lon="5.56519">
        <ele>998.6</ele>
        <time>2023-03-20T10:12:46Z</time>
      </trkpt>
      <trkpt lat="44.42548" lon="5.56518">
        <ele>998.9</ele>
        <time>2023-03-20T10:12:47Z</time>
      </trkpt>
      <trkpt lat="44.4255" lon="5.56517">
        <ele>999.2</ele>
        <time>2023-03-20T10:12:48Z</time>
      </trkpt>
      <trkpt lat="44.42553" lon="5.56515">
        <ele>999.8</ele>
        <time>2023-03-20T10:12:49Z</time>
      </trkpt>
      <trkpt lat="44.42554" lon="5.56515">
        <ele>1000</ele>
        <time>2023-03-20T10:12:50Z</time>
      </trkpt>
      <trkpt lat="44.42557" lon="5.56515">
        <ele>1000.5</ele>
        <time>2023-03-20T10:12:51Z</time>
      </trkpt>
      <trkpt lat="44.42558" lon="5.56515">
        <ele>1000.7</ele>
        <time>2023-03-20T10:12:52Z</time>
      </trkpt>
      <trkpt lat="44.42561" lon="5.56516">
        <ele>1001.2</ele>
        <time>2023-03-20T10:12:53Z</time>
      </trkpt>
      <trkpt lat="44.42562" lon="5.56517">
        <ele>1001.4</ele>
        <time>2023-03-20T10:12:54Z</time>
      </trkpt>
      <trkpt lat="44.42564" lon="5.56519">
        <ele>1001.8</ele>
        <time>2023-03-20T10:12:55Z</time>
      </trkpt>
      <trkpt lat="44.42564" lon="5.56521">
        <ele>1002</ele>
        <time>2023-03-20T10:12:56Z</time>
      </trkpt>
      <trkpt lat="44.42566" lon="5.56524">
        <ele>1002.5</ele>
        <time>2023-03-20T10:12:57Z</time>
      </trkpt>
      <trkpt lat="44.42567" lon="5.56525">
        <ele>1002.6</ele>
        <time>2023-03-20T10:12:58Z</time>
      </trkpt>
      <trkpt lat="44.42569" lon="5.56527">
        <ele>1003.1</ele>
        <time>2023-03-20T10:12:59Z</time>
      </trkpt>
      <trkpt lat="44.4257" lon="5.56528">
        <ele>1003.3</ele>
        <time>2023-03-20T10:13:00Z</time>
      </trkpt>
      <trkpt lat="44.42573" lon="5.56531">
        <ele>1003.7</ele>
        <time>2023-03-20T10:13:01Z</time>
      </trkpt>
      <trkpt lat="44.42573" lon="5.56531">
        <ele>1003.8</ele>
        <time>2023-03-20T10:13:02Z</time>
      </trkpt>
      <trkpt lat="44.42576" lon="5.56534">
        <ele>1004.3</ele>
        <time>2023-03-20T10:13:03Z</time>
      </trkpt>
      <trkpt lat="44.42577" lon="5.56535">
        <ele>1004.4</ele>
        <time>2023-03-20T10:13:04Z</time>
      </trkpt>
      <trkpt lat="44.42579" lon="5.56537">
        <ele>1004.9</ele>
        <time>2023-03-20T10:13:05Z</time>
      </trkpt>
      <trkpt lat="44.42579" lon="5.56538">
        <ele>1005</ele>
        <time>2023-03-20T10:13:06Z</time>
      </trkpt>
      <trkpt lat="44.42581" lon="5.5654">
        <ele>1005.2</ele>
        <time>2023-03-20T10:13:07Z</time>
      </trkpt>
      <trkpt lat="44.42582" lon="5.56542">
        <ele>1005.5</ele>
        <time>2023-03-20T10:13:08Z</time>
      </trkpt>
      <trkpt lat="44.42584" lon="5.56544">
        <ele>1006</ele>
        <time>2023-03-20T10:13:09Z</time>
      </trkpt>
      <trkpt lat="44.42585" lon="5.56545">
        <ele>1006.1</ele>
        <time>2023-03-20T10:13:10Z</time>
      </trkpt>
      <trkpt lat="44.42587" lon="5.56547">
        <ele>1006.6</ele>
        <time>2023-03-20T10:13:11Z</time>
      </trkpt>
      <trkpt lat="44.42588" lon="5.56548">
        <ele>1006.8</ele>
        <time>2023-03-20T10:13:12Z</time>
      </trkpt>
      <trkpt lat="44.42591" lon="5.56551">
        <ele>1007.4</ele>
        <time>2023-03-20T10:13:13Z</time>
      </trkpt>
      <trkpt lat="44.42591" lon="5.56552">
        <ele>1007.6</ele>
        <time>2023-03-20T10:13:14Z</time>
      </trkpt>
      <trkpt lat="44.42594" lon="5.56554">
        <ele>1008.1</ele>
        <time>2023-03-20T10:13:15Z</time>
      </trkpt>
      <trkpt lat="44.42595" lon="5.56555">
        <ele>1008.3</ele>
        <time>2023-03-20T10:13:16Z</time>
      </trkpt>
      <trkpt lat="44.42597" lon="5.56556">
        <ele>1008.9</ele>
        <time>2023-03-20T10:13:17Z</time>
      </trkpt>
      <trkpt lat="44.42599" lon="5.56557">
        <ele>1009.1</ele>
        <time>2023-03-20T10:13:18Z</time>
      </trkpt>
      <trkpt lat="44.42601" lon="5.56558">
        <ele>1009.7</ele>
        <time>2023-03-20T10:13:19Z</time>
      </trkpt>
      <trkpt lat="44.42603" lon="5.56558">
        <ele>1010</ele>
        <time>2023-03-20T10:13:20Z</time>
      </trkpt>
      <trkpt lat="44.42606" lon="5.56558">
        <ele>1010.6</ele>
        <time>2023-03-20T10:13:21Z</time>
      </trkpt>
      <trkpt lat="44.42607" lon="5.56557">
        <ele>1010.8</ele>
        <time>2023-03-20T10:13:22Z</time>
      </trkpt>
      <trkpt lat="44.42609" lon="5.56557">
        <ele>1011.4</ele>
        <time>2023-03-20T10:13:23Z</time>
      </trkpt>
      <trkpt lat="44.4261" lon="5.56556">
        <ele>1011.6</ele>
        <time>2023-03-20T10:13:24Z</time>
      </trkpt>
      <trkpt lat="44.42613" lon="5.56555">
        <ele>1012.2</ele>
        <time>2023-03-20T10:13:25Z</time>
      </trkpt>
      <trkpt lat="44.42614" lon="5.56555">
        <ele>1012.4</ele>
        <time>2023-03-20T10:13:26Z</time>
      </trkpt>
      <trkpt lat="44.42618" lon="5.56555">
        <ele>1013.1</ele>
        <time>2023-03-20T10:13:27Z</time>
      </trkpt>
      <trkpt lat="44.42619" lon="5.56555">
        <ele>1013.3</ele>
        <time>2023-03-20T10:13:28Z</time>
      </trkpt>
      <trkpt lat="44.42622" lon="5.56555">
        <ele>1013.9</ele>
        <time>2023-03-20T10:13:29Z</time>
      </trkpt>
      <trkpt lat="44.42623" lon="5.56555">
        <ele>1014.1</ele>
        <time>2023-03-20T10:13:30Z</time>
      </trkpt>
      <trkpt lat="44.42625" lon="5.56554">
        <ele>1014.5</ele>
        <time>2023-03-20T10:13:31Z</time>
      </trkpt>
      <trkpt lat="44.42626" lon="5.56554">
        <ele>1014.8</ele>
        <time>2023-03-20T10:13:32Z</time>
      </trkpt>
      <trkpt lat="44.42628" lon="5.56554">
        <ele>1015.1</ele>
        <time>2023-03-20T10:13:33Z</time>
      </trkpt>
      <trkpt lat="44.42629" lon="5.56555">
        <ele>1015.5</ele>
        <time>2023-03-20T10:13:34Z</time>
      </trkpt>
      <trkpt lat="44.4263" lon="5.56557">
        <ele>1015.9</ele>
        <time>2023-03-20T10:13:35Z</time>
      </trkpt>
      <trkpt lat="44.42631" lon="5.56559">
        <ele>1016.3</ele>
        <time>2023-03-20T10:13:36Z</time>
      </trkpt>
      <trkpt lat="44.42632" lon="5.56564">
        <ele>1017</ele>
        <time>2023-03-20T10:13:37Z</time>
      </trkpt>
      <trkpt lat="44.42632" lon="5.56565">
        <ele>1017.3</ele>
        <time>2023-03-20T10:13:38Z</time>
      </trkpt>
      <trkpt lat="44.42631" lon="5.5657">
        <ele>1018</ele>
        <time>2023-03-20T10:13:39Z</time>
      </trkpt>
      <trkpt lat="44.42631" lon="5.56571">
        <ele>1018.2</ele>
        <time>2023-03-20T10:13:40Z</time>
      </trkpt>
      <trkpt lat="44.4263" lon="5.56576">
        <ele>1019</ele>
        <time>2023-03-20T10:13:41Z</time>
      </trkpt>
      <trkpt lat="44.4263" lon="5.56577">
        <ele>1019.3</ele>
        <time>2023-03-20T10:13:42Z</time>
      </trkpt>
      <trkpt lat="44.42631" lon="5.56581">
        <ele>1019.9</ele>
        <time>2023-03-20T10:13:43Z</time>
      </trkpt>
      <trkpt lat="44.42631" lon="5.56583">
        <ele>1020.1</ele>
        <time>2023-03-20T10:13:44Z</time>
      </trkpt>
      <trkpt lat="44.42632" lon="5.56587">
        <ele>1020.8</ele>
        <time>2023-03-20T10:13:45Z</time>
      </trkpt>
      <trkpt lat="44.42632" lon="5.56588">
        <ele>1021</ele>
        <time>2023-03-20T10:13:46Z</time>
      </trkpt>
      <trkpt lat="44.42633" lon="5.56592">
        <ele>1021.6</ele>
        <time>2023-03-20T10:13:47Z</time>
      </trkpt>
      <trkpt lat="44.42633" lon="5.56594">
        <ele>1021.8</ele>
        <time>2023-03-20T10:13:48Z</time>
      </trkpt>
      <trkpt lat="44.42634" lon="5.56596">
        <ele>1022.1</ele>
        <time>2023-03-20T10:13:49Z</time>
      </trkpt>
      <trkpt lat="44.42635" lon="5.56598">
        <ele>1022.4</ele>
        <time>2023-03-20T10:13:50Z</time>
      </trkpt>
      <trkpt lat="44.42636" lon="5.56601">
        <ele>1022.9</ele>
        <time>2023-03-20T10:13:51Z</time>
      </trkpt>
      <trkpt lat="44.42636" lon="5.56602">
        <ele>1023.1</ele>
        <time>2023-03-20T10:13:52Z</time>
      </trkpt>
      <trkpt lat="44.42637" lon="5.56606">
        <ele>1023.6</ele>
        <time>2023-03-20T10:13:53Z</time>
      </trkpt>
      <trkpt lat="44.42637" lon="5.56607">
        <ele>1023.8</ele>
        <time>2023-03-20T10:13:54Z</time>
      </trkpt>
      <trkpt lat="44.42638" lon="5.56612">
        <ele>1024.5</ele>
        <time>2023-03-20T10:13:55Z</time>
      </trkpt>
      <trkpt lat="44.42638" lon="5.56613">
        <ele>1024.7</ele>
        <time>2023-03-20T10:13:56Z</time>
      </trkpt>
      <trkpt lat="44.42639" lon="5.56617">
        <ele>1025.4</ele>
        <time>2023-03-20T10:13:57Z</time>
      </trkpt>
      <trkpt lat="44.4264" lon="5.56618">
        <ele>1025.6</ele>
        <time>2023-03-20T10:13:58Z</time>
      </trkpt>
      <trkpt lat="44.4264" lon="5.56622">
        <ele>1026.3</ele>
        <time>2023-03-20T10:13:59Z</time>
      </trkpt>
      <trkpt lat="44.42641" lon="5.56623">
        <ele>1026.5</ele>
        <time>2023-03-20T10:14:00Z</time>
      </trkpt>
      <trkpt lat="44.42641" lon="5.56625">
        <ele>1026.9</ele>
        <time>2023-03-20T10:14:01Z</time>
      </trkpt>
      <trkpt lat="44.42641" lon="5.56628">
        <ele>1027.2</ele>
        <time>2023-03-20T10:14:02Z</time>
      </trkpt>
      <trkpt lat="44.42642" lon="5.56632">
        <ele>1028</ele>
        <time>2023-03-20T10:14:03Z</time>
      </trkpt>
      <trkpt lat="44.42643" lon="5.56633">
        <ele>1028.2</ele>
        <time>2023-03-20T10:14:04Z</time>
      </trkpt>
      <trkpt lat="44.42644" lon="5.56637">
        <ele>1028.9</ele>
        <time>2023-03-20T10:14:05Z</time>
      </trkpt>
      <trkpt lat="44.42644" lon="5.56638">
        <ele>1029.2</ele>
        <time>2023-03-20T10:14:06Z</time>
      </trkpt>
      <trkpt lat="44.42645" lon="5.56642">
        <ele>1029.8</ele>
        <time>2023-03-20T10:14:07Z</time>
      </trkpt>
      <trkpt lat="44.42645" lon="5.56643">
        <ele>1030.1</ele>
        <time>2023-03-20T10:14:08Z</time>
      </trkpt>
      <trkpt lat="44.42646" lon="5.56647">
        <ele>1030.7</ele>
        <time>2023-03-20T10:14:09Z</time>
      </trkpt>
      <trkpt lat="44.42647" lon="5.56648">
        <ele>1030.9</ele>
        <time>2023-03-20T10:14:10Z</time>
      </trkpt>
      <trkpt lat="44.42647" lon="5.5665">
        <ele>1031.2</ele>
        <time>2023-03-20T10:14:11Z</time>
      </trkpt>
      <trkpt lat="44.42648" lon="5.56652">
        <ele>1031.6</ele>
        <time>2023-03-20T10:14:12Z</time>
      </trkpt>
      <trkpt lat="44.42649" lon="5.56653">
        <ele>1032</ele>
        <time>2023-03-20T10:14:13Z</time>
      </trkpt>
      <trkpt lat="44.4265" lon="5.56656">
        <ele>1032.4</ele>
        <time>2023-03-20T10:14:14Z</time>
      </trkpt>
      <trkpt lat="44.42651" lon="5.56659">
        <ele>1033</ele>
        <time>2023-03-20T10:14:15Z</time>
      </trkpt>
      <trkpt lat="44.42652" lon="5.5666">
        <ele>1033.2</ele>
        <time>2023-03-20T10:14:16Z</time>
      </trkpt>
      <trkpt lat="44.42653" lon="5.56662">
        <ele>1033.6</ele>
        <time>2023-03-20T10:14:17Z</time>
      </trkpt>
      <trkpt lat="44.42654" lon="5.56664">
        <ele>1034</ele>
        <time>2023-03-20T10:14:18Z</time>
      </trkpt>
      <trkpt lat="44.42655" lon="5.56666">
        <ele>1034.5</ele>
        <time>2023-03-20T10:14:19Z</time>
      </trkpt>
      <trkpt lat="44.42656" lon="5.56668">
        <ele>1034.9</ele>
        <time>2023-03-20T10:14:20Z</time>
      </trkpt>
      <trkpt lat="44.42658" lon="5.56671">
        <ele>1035.7</ele>
        <time>2023-03-20T10:14:21Z</time>
      </trkpt>
      <trkpt lat="44.42659" lon="5.56671">
        <ele>1035.9</ele>
        <time>2023-03-20T10:14:22Z</time>
      </trkpt>
      <trkpt lat="44.42661" lon="5.56674">
        <ele>1036.7</ele>
        <time>2023-03-20T10:14:23Z</time>
      </trkpt>
      <trkpt lat="44.42662" lon="5.56675">
        <ele>1036.9</ele>
        <time>2023-03-20T10:14:24Z</time>
      </trkpt>
      <trkpt lat="44.42663" lon="5.56677">
        <ele>1037.4</ele>
        <time>2023-03-20T10:14:25Z</time>
      </trkpt>
      <trkpt lat="44.42663" lon="5.56679">
        <ele>1037.8</ele>
        <time>2023-03-20T10:14:26Z</time>
      </trkpt>
      <trkpt lat="44.42664" lon="5.56681">
        <ele>1038.3</ele>
        <time>2023-03-20T10:14:27Z</time>
      </trkpt>
      <trkpt lat="44.42665" lon="5.56683">
        <ele>1038.7</ele>
        <time>2023-03-20T10:14:28Z</time>
      </trkpt>
      <trkpt lat="44.42667" lon="5.56686">
        <ele>1039.5</ele>
        <time>2023-03-20T10:14:29Z</time>
      </trkpt>
      <trkpt lat="44.42667" lon="5.56687">
        <ele>1039.7</ele>
        <time>2023-03-20T10:14:30Z</time>
      </trkpt>
      <trkpt lat="44.42669" lon="5.56688">
        <ele>1040.1</ele>
        <time>2023-03-20T10:14:31Z</time>
      </trkpt>
      <trkpt lat="44.4267" lon="5.5669">
        <ele>1040.4</ele>
        <time>2023-03-20T10:14:32Z</time>
      </trkpt>
      <trkpt lat="44.42671" lon="5.56691">
        <ele>1040.9</ele>
        <time>2023-03-20T10:14:33Z</time>
      </trkpt>
      <trkpt lat="44.42673" lon="5.56693">
        <ele>1041.2</ele>
        <time>2023-03-20T10:14:34Z</time>
      </trkpt>
      <trkpt lat="44.42673" lon="5.56694">
        <ele>1041.5</ele>
        <time>2023-03-20T10:14:35Z</time>
      </trkpt>
      <trkpt lat="44.42675" lon="5.56696">
        <ele>1041.9</ele>
        <time>2023-03-20T10:14:36Z</time>
      </trkpt>
      <trkpt lat="44.42676" lon="5.56697">
        <ele>1042.2</ele>
        <time>2023-03-20T10:14:37Z</time>
      </trkpt>
      <trkpt lat="44.42678" lon="5.56698">
        <ele>1042.6</ele>
        <time>2023-03-20T10:14:38Z</time>
      </trkpt>
      <trkpt lat="44.42679" lon="5.567">
        <ele>1043.1</ele>
        <time>2023-03-20T10:14:39Z</time>
      </trkpt>
      <trkpt lat="44.4268" lon="5.56701">
        <ele>1043.2</ele>
        <time>2023-03-20T10:14:40Z</time>
      </trkpt>
      <trkpt lat="44.42681" lon="5.56702">
        <ele>1043.4</ele>
        <time>2023-03-20T10:14:41Z</time>
      </trkpt>
      <trkpt lat="44.42682" lon="5.56703">
        <ele>1043.8</ele>
        <time>2023-03-20T10:14:42Z</time>
      </trkpt>
      <trkpt lat="44.42683" lon="5.56705">
        <ele>1044.1</ele>
        <time>2023-03-20T10:14:43Z</time>
      </trkpt>
      <trkpt lat="44.42684" lon="5.56707">
        <ele>1044.5</ele>
        <time>2023-03-20T10:14:44Z</time>
      </trkpt>
      <trkpt lat="44.42685" lon="5.5671">
        <ele>1044.9</ele>
        <time>2023-03-20T10:14:45Z</time>
      </trkpt>
      <trkpt lat="44.42685" lon="5.56712">
        <ele>1045.2</ele>
        <time>2023-03-20T10:14:46Z</time>
      </trkpt>
      <trkpt lat="44.42685" lon="5.56714">
        <ele>1045.6</ele>
        <time>2023-03-20T10:14:47Z</time>
      </trkpt>
      <trkpt lat="44.42686" lon="5.56716">
        <ele>1045.9</ele>
        <time>2023-03-20T10:14:48Z</time>
      </trkpt>
      <trkpt lat="44.42687" lon="5.56718">
        <ele>1046.2</ele>
        <time>2023-03-20T10:14:49Z</time>
      </trkpt>
      <trkpt lat="44.42688" lon="5.5672">
        <ele>1046.6</ele>
        <time>2023-03-20T10:14:50Z</time>
      </trkpt>
      <trkpt lat="44.42688" lon="5.56723">
        <ele>1046.9</ele>
        <time>2023-03-20T10:14:51Z</time>
      </trkpt>
      <trkpt lat="44.42689" lon="5.56726">
        <ele>1047.4</ele>
        <time>2023-03-20T10:14:52Z</time>
      </trkpt>
      <trkpt lat="44.4269" lon="5.56727">
        <ele>1047.6</ele>
        <time>2023-03-20T10:14:53Z</time>
      </trkpt>
      <trkpt lat="44.42691" lon="5.5673">
        <ele>1047.9</ele>
        <time>2023-03-20T10:14:54Z</time>
      </trkpt>
      <trkpt lat="44.42691" lon="5.56732">
        <ele>1048.2</ele>
        <time>2023-03-20T10:14:55Z</time>
      </trkpt>
      <trkpt lat="44.42693" lon="5.56734">
        <ele>1048.6</ele>
        <time>2023-03-20T10:14:56Z</time>
      </trkpt>
      <trkpt lat="44.42693" lon="5.56735">
        <ele>1048.8</ele>
        <time>2023-03-20T10:14:57Z</time>
      </trkpt>
      <trkpt lat="44.42694" lon="5.56737">
        <ele>1049</ele>
        <time>2023-03-20T10:14:58Z</time>
      </trkpt>
      <trkpt lat="44.42695" lon="5.56739">
        <ele>1049.3</ele>
        <time>2023-03-20T10:14:59Z</time>
      </trkpt>
      <trkpt lat="44.42696" lon="5.56741">
        <ele>1049.6</ele>
        <time>2023-03-20T10:15:00Z</time>
      </trkpt>
      <trkpt lat="44.42697" lon="5.56743">
        <ele>1049.9</ele>
        <time>2023-03-20T10:15:01Z</time>
      </trkpt>
      <trkpt lat="44.42698" lon="5.56745">
        <ele>1050.1</ele>
        <time>2023-03-20T10:15:02Z</time>
      </trkpt>
      <trkpt lat="44.427" lon="5.56746">
        <ele>1050.4</ele>
        <time>2023-03-20T10:15:03Z</time>
      </trkpt>
      <trkpt lat="44.42701" lon="5.56747">
        <ele>1050.6</ele>
        <time>2023-03-20T10:15:04Z</time>
      </trkpt>
      <trkpt lat="44.42703" lon="5.5675">
        <ele>1051</ele>
        <time>2023-03-20T10:15:05Z</time>
      </trkpt>
      <trkpt lat="44.42704" lon="5.56751">
        <ele>1051.1</ele>
        <time>2023-03-20T10:15:06Z</time>
      </trkpt>
      <trkpt lat="44.42705" lon="5.56754">
        <ele>1051.5</ele>
        <time>2023-03-20T10:15:07Z</time>
      </trkpt>
      <trkpt lat="44.42706" lon="5.56755">
        <ele>1051.7</ele>
        <time>2023-03-20T10:15:08Z</time>
      </trkpt>
      <trkpt lat="44.42707" lon="5.56757">
        <ele>1051.9</ele>
        <time>2023-03-20T10:15:09Z</time>
      </trkpt>
      <trkpt lat="44.42708" lon="5.56759">
        <ele>1052.1</ele>
        <time>2023-03-20T10:15:10Z</time>
      </trkpt>
      <trkpt lat="44.42709" lon="5.5676">
        <ele>1052.3</ele>
        <time>2023-03-20T10:15:11Z</time>
      </trkpt>
      <trkpt lat="44.4271" lon="5.56762">
        <ele>1052.5</ele>
        <time>2023-03-20T10:15:12Z</time>
      </trkpt>
      <trkpt lat="44.42711" lon="5.56764">
        <ele>1052.7</ele>
        <time>2023-03-20T10:15:13Z</time>
      </trkpt>
      <trkpt lat="44.42712" lon="5.56766">
        <ele>1052.9</ele>
        <time>2023-03-20T10:15:14Z</time>
      </trkpt>
      <trkpt lat="44.42714" lon="5.56769">
        <ele>1053.3</ele>
        <time>2023-03-20T10:15:15Z</time>
      </trkpt>
      <trkpt lat="44.42714" lon="5.56769">
        <ele>1053.4</ele>
        <time>2023-03-20T10:15:16Z</time>
      </trkpt>
      <trkpt lat="44.42716" lon="5.56771">
        <ele>1053.7</ele>
        <time>2023-03-20T10:15:17Z</time>
      </trkpt>
      <trkpt lat="44.42717" lon="5.56773">
        <ele>1053.9</ele>
        <time>2023-03-20T10:15:18Z</time>
      </trkpt>
      <trkpt lat="44.42717" lon="5.56775">
        <ele>1054.1</ele>
        <time>2023-03-20T10:15:19Z</time>
      </trkpt>
      <trkpt lat="44.42718" lon="5.56778">
        <ele>1054.4</ele>
        <time>2023-03-20T10:15:20Z</time>
      </trkpt>
      <trkpt lat="44.4272" lon="5.56781">
        <ele>1054.8</ele>
        <time>2023-03-20T10:15:21Z</time>
      </trkpt>
      <trkpt lat="44.4272" lon="5.56782">
        <ele>1054.9</ele>
        <time>2023-03-20T10:15:22Z</time>
      </trkpt>
      <trkpt lat="44.42721" lon="5.56784">
        <ele>1055.1</ele>
        <time>2023-03-20T10:15:23Z</time>
      </trkpt>
      <trkpt lat="44.42722" lon="5.56786">
        <ele>1055.4</ele>
        <time>2023-03-20T10:15:24Z</time>
      </trkpt>
      <trkpt lat="44.42723" lon="5.56788">
        <ele>1055.6</ele>
        <time>2023-03-20T10:15:25Z</time>
      </trkpt>
      <trkpt lat="44.42724" lon="5.5679">
        <ele>1055.9</ele>
        <time>2023-03-20T10:15:26Z</time>
      </trkpt>
      <trkpt lat="44.42725" lon="5.56792">
        <ele>1056.1</ele>
        <time>2023-03-20T10:15:27Z</time>
      </trkpt>
      <trkpt lat="44.42725" lon="5.56794">
        <ele>1056.4</ele>
        <time>2023-03-20T10:15:28Z</time>
      </trkpt>
      <trkpt lat="44.42726" lon="5.56797">
        <ele>1056.6</ele>
        <time>2023-03-20T10:15:29Z</time>
      </trkpt>
      <trkpt lat="44.42727" lon="5.56799">
        <ele>1056.9</ele>
        <time>2023-03-20T10:15:30Z</time>
      </trkpt>
      <trkpt lat="44.42728" lon="5.56802">
        <ele>1057.3</ele>
        <time>2023-03-20T10:15:31Z</time>
      </trkpt>
      <trkpt lat="44.42728" lon="5.56804">
        <ele>1057.4</ele>
        <time>2023-03-20T10:15:32Z</time>
      </trkpt>
      <trkpt lat="44.4273" lon="5.56807">
        <ele>1057.8</ele>
        <time>2023-03-20T10:15:33Z</time>
      </trkpt>
      <trkpt lat="44.42731" lon="5.56808">
        <ele>1057.9</ele>
        <time>2023-03-20T10:15:34Z</time>
      </trkpt>
      <trkpt lat="44.42732" lon="5.56811">
        <ele>1058.4</ele>
        <time>2023-03-20T10:15:35Z</time>
      </trkpt>
      <trkpt lat="44.42733" lon="5.56812">
        <ele>1058.5</ele>
        <time>2023-03-20T10:15:36Z</time>
      </trkpt>
      <trkpt lat="44.42734" lon="5.56814">
        <ele>1058.8</ele>
        <time>2023-03-20T10:15:37Z</time>
      </trkpt>
      <trkpt lat="44.42735" lon="5.56816">
        <ele>1059.1</ele>
        <time>2023-03-20T10:15:38Z</time>
      </trkpt>
      <trkpt lat="44.42736" lon="5.56818">
        <ele>1059.4</ele>
        <time>2023-03-20T10:15:39Z</time>
      </trkpt>
      <trkpt lat="44.42737" lon="5.5682">
        <ele>1059.7</ele>
        <time>2023-03-20T10:15:40Z</time>
      </trkpt>
      <trkpt lat="44.42739" lon="5.56823">
        <ele>1060.1</ele>
        <time>2023-03-20T10:15:41Z</time>
      </trkpt>
      <trkpt lat="44.4274" lon="5.56824">
        <ele>1060.3</ele>
        <time>2023-03-20T10:15:42Z</time>
      </trkpt>
      <trkpt lat="44.42741" lon="5.56825">
        <ele>1060.6</ele>
        <time>2023-03-20T10:15:43Z</time>
      </trkpt>
      <trkpt lat="44.42742" lon="5.56826">
        <ele>1060.8</ele>
        <time>2023-03-20T10:15:44Z</time>
      </trkpt>
      <trkpt lat="44.42743" lon="5.56827">
        <ele>1061</ele>
        <time>2023-03-20T10:15:45Z</time>
      </trkpt>
      <trkpt lat="44.42744" lon="5.56829">
        <ele>1061.3</ele>
        <time>2023-03-20T10:15:46Z</time>
      </trkpt>
      <trkpt lat="44.42746" lon="5.56832">
        <ele>1061.7</ele>
        <time>2023-03-20T10:15:47Z</time>
      </trkpt>
      <trkpt lat="44.42746" lon="5.56833">
        <ele>1061.9</ele>
        <time>2023-03-20T10:15:48Z</time>
      </trkpt>
      <trkpt lat="44.42748" lon="5.56835">
        <ele>1062.2</ele>
        <time>2023-03-20T10:15:49Z</time>
      </trkpt>
      <trkpt lat="44.42749" lon="5.56837">
        <ele>1062.5</ele>
        <time>2023-03-20T10:15:50Z</time>
      </trkpt>
      <trkpt lat="44.4275" lon="5.56839">
        <ele>1062.8</ele>
        <time>2023-03-20T10:15:51Z</time>
      </trkpt>
      <trkpt lat="44.42751" lon="5.5684">
        <ele>1063.1</ele>
        <time>2023-03-20T10:15:52Z</time>
      </trkpt>
      <trkpt lat="44.42752" lon="5.56841">
        <ele>1063.3</ele>
        <time>2023-03-20T10:15:53Z</time>
      </trkpt>
      <trkpt lat="44.42754" lon="5.56842">
        <ele>1063.6</ele>
        <time>2023-03-20T10:15:54Z</time>
      </trkpt>
      <trkpt lat="44.42755" lon="5.56844">
        <ele>1063.9</ele>
        <time>2023-03-20T10:15:55Z</time>
      </trkpt>
      <trkpt lat="44.42757" lon="5.56845">
        <ele>1064.2</ele>
        <time>2023-03-20T10:15:56Z</time>
      </trkpt>
      <trkpt lat="44.42759" lon="5.56847">
        <ele>1064.7</ele>
        <time>2023-03-20T10:15:57Z</time>
      </trkpt>
      <trkpt lat="44.4276" lon="5.56848">
        <ele>1064.9</ele>
        <time>2023-03-20T10:15:58Z</time>
      </trkpt>
      <trkpt lat="44.42761" lon="5.5685">
        <ele>1065.3</ele>
        <time>2023-03-20T10:15:59Z</time>
      </trkpt>
      <trkpt lat="44.42762" lon="5.56852">
        <ele>1065.5</ele>
        <time>2023-03-20T10:16:00Z</time>
      </trkpt>
      <trkpt lat="44.42764" lon="5.56853">
        <ele>1065.9</ele>
        <time>2023-03-20T10:16:01Z</time>
      </trkpt>
      <trkpt lat="44.42765" lon="5.56854">
        <ele>1066.1</ele>
        <time>2023-03-20T10:16:02Z</time>
      </trkpt>
      <trkpt lat="44.42766" lon="5.56854">
        <ele>1066.2</ele>
        <time>2023-03-20T10:16:03Z</time>
      </trkpt>
      <trkpt lat="44.42767" lon="5.56855">
        <ele>1066.5</ele>
        <time>2023-03-20T10:16:04Z</time>
      </trkpt>
      <trkpt lat="44.42769" lon="5.56855">
        <ele>1066.8</ele>
        <time>2023-03-20T10:16:05Z</time>
      </trkpt>
      <trkpt lat="44.42771" lon="5.56856">
        <ele>1067.2</ele>
        <time>2023-03-20T10:16:06Z</time>
      </trkpt>
      <trkpt lat="44.42772" lon="5.56857">
        <ele>1067.4</ele>
        <time>2023-03-20T10:16:07Z</time>
      </trkpt>
      <trkpt lat="44.42774" lon="5.56858">
        <ele>1067.7</ele>
        <time>2023-03-20T10:16:08Z</time>
      </trkpt>
      <trkpt lat="44.42776" lon="5.56858">
        <ele>1068</ele>
        <time>2023-03-20T10:16:09Z</time>
      </trkpt>
      <trkpt lat="44.42778" lon="5.56858">
        <ele>1068.4</ele>
        <time>2023-03-20T10:16:10Z</time>
      </trkpt>
      <trkpt lat="44.42779" lon="5.56858">
        <ele>1068.6</ele>
        <time>2023-03-20T10:16:11Z</time>
      </trkpt>
      <trkpt lat="44.42781" lon="5.56858">
        <ele>1068.9</ele>
        <time>2023-03-20T10:16:12Z</time>
      </trkpt>
      <trkpt lat="44.42783" lon="5.56858">
        <ele>1069.2</ele>
        <time>2023-03-20T10:16:13Z</time>
      </trkpt>
      <trkpt lat="44.42786" lon="5.56857">
        <ele>1069.8</ele>
        <time>2023-03-20T10:16:14Z</time>
      </trkpt>
      <trkpt lat="44.42787" lon="5.56857">
        <ele>1070</ele>
        <time>2023-03-20T10:16:15Z</time>
      </trkpt>
      <trkpt lat="44.42789" lon="5.56857">
        <ele>1070.5</ele>
        <time>2023-03-20T10:16:16Z</time>
      </trkpt>
      <trkpt lat="44.4279" lon="5.56856">
        <ele>1070.7</ele>
        <time>2023-03-20T10:16:17Z</time>
      </trkpt>
      <trkpt lat="44.42793" lon="5.56856">
        <ele>1071.3</ele>
        <time>2023-03-20T10:16:18Z</time>
      </trkpt>
      <trkpt lat="44.42794" lon="5.56855">
        <ele>1071.5</ele>
        <time>2023-03-20T10:16:19Z</time>
      </trkpt>
      <trkpt lat="44.42797" lon="5.56855">
        <ele>1071.9</ele>
        <time>2023-03-20T10:16:20Z</time>
      </trkpt>
      <trkpt lat="44.42798" lon="5.56854">
        <ele>1072.1</ele>
        <time>2023-03-20T10:16:21Z</time>
      </trkpt>
      <trkpt lat="44.428" lon="5.56854">
        <ele>1072.3</ele>
        <time>2023-03-20T10:16:22Z</time>
      </trkpt>
      <trkpt lat="44.42801" lon="5.56853">
        <ele>1072.5</ele>
        <time>2023-03-20T10:16:23Z</time>
      </trkpt>
      <trkpt lat="44.42804" lon="5.56853">
        <ele>1072.9</ele>
        <time>2023-03-20T10:16:24Z</time>
      </trkpt>
      <trkpt lat="44.42805" lon="5.56853">
        <ele>1073</ele>
        <time>2023-03-20T10:16:25Z</time>
      </trkpt>
      <trkpt lat="44.42808" lon="5.56852">
        <ele>1073.4</ele>
        <time>2023-03-20T10:16:26Z</time>
      </trkpt>
      <trkpt lat="44.42809" lon="5.56852">
        <ele>1073.5</ele>
        <time>2023-03-20T10:16:27Z</time>
      </trkpt>
      <trkpt lat="44.42812" lon="5.56851">
        <ele>1074</ele>
        <time>2023-03-20T10:16:28Z</time>
      </trkpt>
      <trkpt lat="44.42813" lon="5.56851">
        <ele>1074.1</ele>
        <time>2023-03-20T10:16:29Z</time>
      </trkpt>
      <trkpt lat="44.42816" lon="5.56851">
        <ele>1074.5</ele>
        <time>2023-03-20T10:16:30Z</time>
      </trkpt>
      <trkpt lat="44.42817" lon="5.56851">
        <ele>1074.7</ele>
        <time>2023-03-20T10:16:31Z</time>
      </trkpt>
      <trkpt lat="44.42819" lon="5.56851">
        <ele>1074.9</ele>
        <time>2023-03-20T10:16:32Z</time>
      </trkpt>
      <trkpt lat="44.4282" lon="5.56851">
        <ele>1075.2</ele>
        <time>2023-03-20T10:16:33Z</time>
      </trkpt>
      <trkpt lat="44.42823" lon="5.56852">
        <ele>1075.7</ele>
        <time>2023-03-20T10:16:34Z</time>
      </trkpt>
      <trkpt lat="44.42824" lon="5.56852">
        <ele>1075.8</ele>
        <time>2023-03-20T10:16:35Z</time>
      </trkpt>
      <trkpt lat="44.42827" lon="5.56853">
        <ele>1076.2</ele>
        <time>2023-03-20T10:16:36Z</time>
      </trkpt>
      <trkpt lat="44.42828" lon="5.56853">
        <ele>1076.4</ele>
        <time>2023-03-20T10:16:37Z</time>
      </trkpt>
      <trkpt lat="44.42831" lon="5.56854">
        <ele>1076.8</ele>
        <time>2023-03-20T10:16:38Z</time>
      </trkpt>
      <trkpt lat="44.42832" lon="5.56855">
        <ele>1076.9</ele>
        <time>2023-03-20T10:16:39Z</time>
      </trkpt>
      <trkpt lat="44.42834" lon="5.56856">
        <ele>1077.3</ele>
        <time>2023-03-20T10:16:40Z</time>
      </trkpt>
      <trkpt lat="44.42835" lon="5.56856">
        <ele>1077.4</ele>
        <time>2023-03-20T10:16:41Z</time>
      </trkpt>
      <trkpt lat="44.42838" lon="5.56858">
        <ele>1077.8</ele>
        <time>2023-03-20T10:16:42Z</time>
      </trkpt>
      <trkpt lat="44.42839" lon="5.56858">
        <ele>1077.9</ele>
        <time>2023-03-20T10:16:43Z</time>
      </trkpt>
      <trkpt lat="44.42841" lon="5.5686">
        <ele>1078.3</ele>
        <time>2023-03-20T10:16:44Z</time>
      </trkpt>
      <trkpt lat="44.42842" lon="5.5686">
        <ele>1078.4</ele>
        <time>2023-03-20T10:16:45Z</time>
      </trkpt>
      <trkpt lat="44.42845" lon="5.56862">
        <ele>1078.9</ele>
        <time>2023-03-20T10:16:46Z</time>
      </trkpt>
      <trkpt lat="44.42846" lon="5.56863">
        <ele>1079</ele>
        <time>2023-03-20T10:16:47Z</time>
      </trkpt>
      <trkpt lat="44.42848" lon="5.56864">
        <ele>1079.4</ele>
        <time>2023-03-20T10:16:48Z</time>
      </trkpt>
      <trkpt lat="44.42849" lon="5.56865">
        <ele>1079.6</ele>
        <time>2023-03-20T10:16:49Z</time>
      </trkpt>
      <trkpt lat="44.42852" lon="5.56866">
        <ele>1080.1</ele>
        <time>2023-03-20T10:16:50Z</time>
      </trkpt>
      <trkpt lat="44.42853" lon="5.56867">
        <ele>1080.2</ele>
        <time>2023-03-20T10:16:51Z</time>
      </trkpt>
      <trkpt lat="44.42855" lon="5.56868">
        <ele>1080.7</ele>
        <time>2023-03-20T10:16:52Z</time>
      </trkpt>
      <trkpt lat="44.42856" lon="5.56869">
        <ele>1080.8</ele>
        <time>2023-03-20T10:16:53Z</time>
      </trkpt>
      <trkpt lat="44.42858" lon="5.5687">
        <ele>1081.1</ele>
        <time>2023-03-20T10:16:54Z</time>
      </trkpt>
      <trkpt lat="44.42859" lon="5.5687">
        <ele>1081.4</ele>
        <time>2023-03-20T10:16:55Z</time>
      </trkpt>
      <trkpt lat="44.42862" lon="5.56872">
        <ele>1081.8</ele>
        <time>2023-03-20T10:16:56Z</time>
      </trkpt>
      <trkpt lat="44.42863" lon="5.56873">
        <ele>1082</ele>
        <time>2023-03-20T10:16:57Z</time>
      </trkpt>
      <trkpt lat="44.42866" lon="5.56874">
        <ele>1082.5</ele>
        <time>2023-03-20T10:16:58Z</time>
      </trkpt>
      <trkpt lat="44.42867" lon="5.56874">
        <ele>1082.6</ele>
        <time>2023-03-20T10:16:59Z</time>
      </trkpt>
      <trkpt lat="44.42868" lon="5.56875">
        <ele>1082.8</ele>
        <time>2023-03-20T10:17:00Z</time>
      </trkpt>
      <trkpt lat="44.42869" lon="5.56875">
        <ele>1082.9</ele>
        <time>2023-03-20T10:17:01Z</time>
      </trkpt>
      <trkpt lat="44.42869" lon="5.56876">
        <ele>1083</ele>
        <time>2023-03-20T10:17:02Z</time>
      </trkpt>
      <trkpt lat="44.4287" lon="5.56876">
        <ele>1083</ele>
        <time>2023-03-20T10:17:03Z</time>
      </trkpt>
      <trkpt lat="44.4287" lon="5.56876">
        <ele>1083.1</ele>
        <time>2023-03-20T10:17:04Z</time>
      </trkpt>
      <trkpt lat="44.42871" lon="5.56877">
        <ele>1083.2</ele>
        <time>2023-03-20T10:17:05Z</time>
      </trkpt>
      <trkpt lat="44.42874" lon="5.56879">
        <ele>1083.7</ele>
        <time>2023-03-20T10:17:06Z</time>
      </trkpt>
      <trkpt lat="44.42875" lon="5.56879">
        <ele>1083.8</ele>
        <time>2023-03-20T10:17:07Z</time>
      </trkpt>
      <trkpt lat="44.42878" lon="5.5688">
        <ele>1084.3</ele>
        <time>2023-03-20T10:17:08Z</time>
      </trkpt>
      <trkpt lat="44.42879" lon="5.56881">
        <ele>1084.4</ele>
        <time>2023-03-20T10:17:09Z</time>
      </trkpt>
      <trkpt lat="44.42882" lon="5.56882">
        <ele>1084.8</ele>
        <time>2023-03-20T10:17:10Z</time>
      </trkpt>
      <trkpt lat="44.42883" lon="5.56882">
        <ele>1085</ele>
        <time>2023-03-20T10:17:11Z</time>
      </trkpt>
      <trkpt lat="44.42886" lon="5.56884">
        <ele>1085.4</ele>
        <time>2023-03-20T10:17:12Z</time>
      </trkpt>
      <trkpt lat="44.42887" lon="5.56885">
        <ele>1085.6</ele>
        <time>2023-03-20T10:17:13Z</time>
      </trkpt>
      <trkpt lat="44.42889" lon="5.56887">
        <ele>1085.9</ele>
        <time>2023-03-20T10:17:14Z</time>
      </trkpt>
      <trkpt lat="44.4289" lon="5.56887">
        <ele>1086</ele>
        <time>2023-03-20T10:17:15Z</time>
      </trkpt>
      <trkpt lat="44.42892" lon="5.56889">
        <ele>1086.3</ele>
        <time>2023-03-20T10:17:16Z</time>
      </trkpt>
      <trkpt lat="44.42893" lon="5.5689">
        <ele>1086.5</ele>
        <time>2023-03-20T10:17:17Z</time>
      </trkpt>
      <trkpt lat="44.42895" lon="5.56893">
        <ele>1086.8</ele>
        <time>2023-03-20T10:17:18Z</time>
      </trkpt>
      <trkpt lat="44.42896" lon="5.56895">
        <ele>1086.9</ele>
        <time>2023-03-20T10:17:19Z</time>
      </trkpt>
      <trkpt lat="44.42899" lon="5.56898">
        <ele>1087.3</ele>
        <time>2023-03-20T10:17:20Z</time>
      </trkpt>
      <trkpt lat="44.429" lon="5.569">
        <ele>1087.4</ele>
        <time>2023-03-20T10:17:21Z</time>
      </trkpt>
      <trkpt lat="44.42902" lon="5.56903">
        <ele>1087.7</ele>
        <time>2023-03-20T10:17:22Z</time>
      </trkpt>
      <trkpt lat="44.42903" lon="5.56904">
        <ele>1087.8</ele>
        <time>2023-03-20T10:17:23Z</time>
      </trkpt>
      <trkpt lat="44.42906" lon="5.56907">
        <ele>1088</ele>
        <time>2023-03-20T10:17:24Z</time>
      </trkpt>
      <trkpt lat="44.42906" lon="5.56907">
        <ele>1088.1</ele>
        <time>2023-03-20T10:17:25Z</time>
      </trkpt>
      <trkpt lat="44.42909" lon="5.5691">
        <ele>1088.4</ele>
        <time>2023-03-20T10:17:26Z</time>
      </trkpt>
      <trkpt lat="44.4291" lon="5.56911">
        <ele>1088.5</ele>
        <time>2023-03-20T10:17:27Z</time>
      </trkpt>
      <trkpt lat="44.42912" lon="5.56912">
        <ele>1088.6</ele>
        <time>2023-03-20T10:17:28Z</time>
      </trkpt>
      <trkpt lat="44.42913" lon="5.56913">
        <ele>1088.8</ele>
        <time>2023-03-20T10:17:29Z</time>
      </trkpt>
      <trkpt lat="44.42916" lon="5.56914">
        <ele>1089</ele>
        <time>2023-03-20T10:17:30Z</time>
      </trkpt>
      <trkpt lat="44.42917" lon="5.56915">
        <ele>1089.1</ele>
        <time>2023-03-20T10:17:31Z</time>
      </trkpt>
      <trkpt lat="44.42919" lon="5.56917">
        <ele>1089.4</ele>
        <time>2023-03-20T10:17:32Z</time>
      </trkpt>
      <trkpt lat="44.4292" lon="5.56918">
        <ele>1089.5</ele>
        <time>2023-03-20T10:17:33Z</time>
      </trkpt>
      <trkpt lat="44.42921" lon="5.56919">
        <ele>1089.6</ele>
        <time>2023-03-20T10:17:34Z</time>
      </trkpt>
      <trkpt lat="44.42923" lon="5.56921">
        <ele>1089.8</ele>
        <time>2023-03-20T10:17:35Z</time>
      </trkpt>
      <trkpt lat="44.42925" lon="5.56923">
        <ele>1090.1</ele>
        <time>2023-03-20T10:17:36Z</time>
      </trkpt>
      <trkpt lat="44.42926" lon="5.56923">
        <ele>1090.2</ele>
        <time>2023-03-20T10:17:37Z</time>
      </trkpt>
      <trkpt lat="44.42928" lon="5.56924">
        <ele>1090.4</ele>
        <time>2023-03-20T10:17:38Z</time>
      </trkpt>
      <trkpt lat="44.42929" lon="5.56925">
        <ele>1090.5</ele>
        <time>2023-03-20T10:17:39Z</time>
      </trkpt>
      <trkpt lat="44.42931" lon="5.56926">
        <ele>1090.7</ele>
        <time>2023-03-20T10:17:40Z</time>
      </trkpt>
      <trkpt lat="44.42932" lon="5.56927">
        <ele>1090.8</ele>
        <time>2023-03-20T10:17:41Z</time>
      </trkpt>
      <trkpt lat="44.42933" lon="5.56929">
        <ele>1091</ele>
        <time>2023-03-20T10:17:42Z</time>
      </trkpt>
      <trkpt lat="44.42935" lon="5.5693">
        <ele>1091.2</ele>
        <time>2023-03-20T10:17:43Z</time>
      </trkpt>
      <trkpt lat="44.42936" lon="5.56931">
        <ele>1091.3</ele>
        <time>2023-03-20T10:17:44Z</time>
      </trkpt>
      <trkpt lat="44.42937" lon="5.56932">
        <ele>1091.5</ele>
        <time>2023-03-20T10:17:45Z</time>
      </trkpt>
      <trkpt lat="44.42939" lon="5.56934">
        <ele>1091.6</ele>
        <time>2023-03-20T10:17:46Z</time>
      </trkpt>
      <trkpt lat="44.4294" lon="5.56935">
        <ele>1091.8</ele>
        <time>2023-03-20T10:17:47Z</time>
      </trkpt>
      <trkpt lat="44.42942" lon="5.56936">
        <ele>1092</ele>
        <time>2023-03-20T10:17:48Z</time>
      </trkpt>
      <trkpt lat="44.42944" lon="5.56937">
        <ele>1092.1</ele>
        <time>2023-03-20T10:17:49Z</time>
      </trkpt>
      <trkpt lat="44.42945" lon="5.56938">
        <ele>1092.2</ele>
        <time>2023-03-20T10:17:50Z</time>
      </trkpt>
      <trkpt lat="44.42947" lon="5.56939">
        <ele>1092.4</ele>
        <time>2023-03-20T10:17:51Z</time>
      </trkpt>
      <trkpt lat="44.42948" lon="5.5694">
        <ele>1092.5</ele>
        <time>2023-03-20T10:17:52Z</time>
      </trkpt>
      <trkpt lat="44.42949" lon="5.56941">
        <ele>1092.6</ele>
        <time>2023-03-20T10:17:53Z</time>
      </trkpt>
      <trkpt lat="44.42951" lon="5.56942">
        <ele>1092.7</ele>
        <time>2023-03-20T10:17:54Z</time>
      </trkpt>
      <trkpt lat="44.42953" lon="5.56943">
        <ele>1092.9</ele>
        <time>2023-03-20T10:17:55Z</time>
      </trkpt>
      <trkpt lat="44.42954" lon="5.56944">
        <ele>1093</ele>
        <time>2023-03-20T10:17:56Z</time>
      </trkpt>
      <trkpt lat="44.42956" lon="5.56944">
        <ele>1093.1</ele>
        <time>2023-03-20T10:17:57Z</time>
      </trkpt>
      <trkpt lat="44.42957" lon="5.56945">
        <ele>1093.3</ele>
        <time>2023-03-20T10:17:58Z</time>
      </trkpt>
      <trkpt lat="44.42959" lon="5.56946">
        <ele>1093.4</ele>
        <time>2023-03-20T10:17:59Z</time>
      </trkpt>
      <trkpt lat="44.42961" lon="5.56948">
        <ele>1093.7</ele>
        <time>2023-03-20T10:18:00Z</time>
      </trkpt>
      <trkpt lat="44.42962" lon="5.56948">
        <ele>1093.8</ele>
        <time>2023-03-20T10:18:01Z</time>
      </trkpt>
      <trkpt lat="44.42964" lon="5.5695">
        <ele>1094</ele>
        <time>2023-03-20T10:18:02Z</time>
      </trkpt>
      <trkpt lat="44.42965" lon="5.56951">
        <ele>1094.1</ele>
        <time>2023-03-20T10:18:03Z</time>
      </trkpt>
      <trkpt lat="44.42967" lon="5.56952">
        <ele>1094.3</ele>
        <time>2023-03-20T10:18:04Z</time>
      </trkpt>
      <trkpt lat="44.42968" lon="5.56953">
        <ele>1094.5</ele>
        <time>2023-03-20T10:18:05Z</time>
      </trkpt>
      <trkpt lat="44.4297" lon="5.56953">
        <ele>1094.8</ele>
        <time>2023-03-20T10:18:06Z</time>
      </trkpt>
      <trkpt lat="44.42972" lon="5.56954">
        <ele>1095</ele>
        <time>2023-03-20T10:18:07Z</time>
      </trkpt>
      <trkpt lat="44.42974" lon="5.56955">
        <ele>1095.3</ele>
        <time>2023-03-20T10:18:08Z</time>
      </trkpt>
      <trkpt lat="44.42975" lon="5.56955">
        <ele>1095.4</ele>
        <time>2023-03-20T10:18:09Z</time>
      </trkpt>
      <trkpt lat="44.42977" lon="5.56955">
        <ele>1095.6</ele>
        <time>2023-03-20T10:18:10Z</time>
      </trkpt>
      <trkpt lat="44.42978" lon="5.56956">
        <ele>1095.8</ele>
        <time>2023-03-20T10:18:11Z</time>
      </trkpt>
      <trkpt lat="44.4298" lon="5.56956">
        <ele>1096</ele>
        <time>2023-03-20T10:18:12Z</time>
      </trkpt>
      <trkpt lat="44.42982" lon="5.56957">
        <ele>1096.3</ele>
        <time>2023-03-20T10:18:13Z</time>
      </trkpt>
      <trkpt lat="44.42983" lon="5.56958">
        <ele>1096.4</ele>
        <time>2023-03-20T10:18:14Z</time>
      </trkpt>
      <trkpt lat="44.42984" lon="5.56959">
        <ele>1096.6</ele>
        <time>2023-03-20T10:18:15Z</time>
      </trkpt>
      <trkpt lat="44.42987" lon="5.56959">
        <ele>1096.9</ele>
        <time>2023-03-20T10:18:16Z</time>
      </trkpt>
      <trkpt lat="44.42988" lon="5.56959">
        <ele>1097</ele>
        <time>2023-03-20T10:18:17Z</time>
      </trkpt>
      <trkpt lat="44.42991" lon="5.5696">
        <ele>1097.3</ele>
        <time>2023-03-20T10:18:18Z</time>
      </trkpt>
      <trkpt lat="44.42991" lon="5.5696">
        <ele>1097.4</ele>
        <time>2023-03-20T10:18:19Z</time>
      </trkpt>
      <trkpt lat="44.42993" lon="5.5696">
        <ele>1097.6</ele>
        <time>2023-03-20T10:18:20Z</time>
      </trkpt>
      <trkpt lat="44.42995" lon="5.56959">
        <ele>1097.8</ele>
        <time>2023-03-20T10:18:21Z</time>
      </trkpt>
      <trkpt lat="44.42998" lon="5.56959">
        <ele>1098</ele>
        <time>2023-03-20T10:18:22Z</time>
      </trkpt>
      <trkpt lat="44.42999" lon="5.56959">
        <ele>1098.1</ele>
        <time>2023-03-20T10:18:23Z</time>
      </trkpt>
      <trkpt lat="44.43001" lon="5.5696">
        <ele>1098.3</ele>
        <time>2023-03-20T10:18:24Z</time>
      </trkpt>
      <trkpt lat="44.43002" lon="5.5696">
        <ele>1098.4</ele>
        <time>2023-03-20T10:18:25Z</time>
      </trkpt>
      <trkpt lat="44.43005" lon="5.5696">
        <ele>1098.6</ele>
        <time>2023-03-20T10:18:26Z</time>
      </trkpt>
      <trkpt lat="44.43006" lon="5.56961">
        <ele>1098.6</ele>
        <time>2023-03-20T10:18:27Z</time>
      </trkpt>
      <trkpt lat="44.43008" lon="5.56963">
        <ele>1098.8</ele>
        <time>2023-03-20T10:18:28Z</time>
      </trkpt>
      <trkpt lat="44.43009" lon="5.56964">
        <ele>1098.9</ele>
        <time>2023-03-20T10:18:29Z</time>
      </trkpt>
      <trkpt lat="44.43012" lon="5.56966">
        <ele>1099.1</ele>
        <time>2023-03-20T10:18:30Z</time>
      </trkpt>
      <trkpt lat="44.43012" lon="5.56966">
        <ele>1099.2</ele>
        <time>2023-03-20T10:18:31Z</time>
      </trkpt>
      <trkpt lat="44.43015" lon="5.56968">
        <ele>1099.4</ele>
        <time>2023-03-20T10:18:32Z</time>
      </trkpt>
      <trkpt lat="44.43016" lon="5.56969">
        <ele>1099.5</ele>
        <time>2023-03-20T10:18:33Z</time>
      </trkpt>
      <trkpt lat="44.43019" lon="5.56971">
        <ele>1099.7</ele>
        <time>2023-03-20T10:18:34Z</time>
      </trkpt>
      <trkpt lat="44.4302" lon="5.56972">
        <ele>1099.8</ele>
        <time>2023-03-20T10:18:35Z</time>
      </trkpt>
      <trkpt lat="44.43022" lon="5.56974">
        <ele>1100.1</ele>
        <time>2023-03-20T10:18:36Z</time>
      </trkpt>
      <trkpt lat="44.43023" lon="5.56975">
        <ele>1100.1</ele>
        <time>2023-03-20T10:18:37Z</time>
      </trkpt>
      <trkpt lat="44.43026" lon="5.56977">
        <ele>1100.4</ele>
        <time>2023-03-20T10:18:38Z</time>
      </trkpt>
      <trkpt lat="44.43027" lon="5.56977">
        <ele>1100.4</ele>
        <time>2023-03-20T10:18:39Z</time>
      </trkpt>
      <trkpt lat="44.43029" lon="5.56979">
        <ele>1100.7</ele>
        <time>2023-03-20T10:18:40Z</time>
      </trkpt>
      <trkpt lat="44.4303" lon="5.5698">
        <ele>1100.8</ele>
        <time>2023-03-20T10:18:41Z</time>
      </trkpt>
      <trkpt lat="44.43033" lon="5.56981">
        <ele>1101</ele>
        <time>2023-03-20T10:18:42Z</time>
      </trkpt>
      <trkpt lat="44.43034" lon="5.56981">
        <ele>1101.1</ele>
        <time>2023-03-20T10:18:43Z</time>
      </trkpt>
      <trkpt lat="44.43037" lon="5.56983">
        <ele>1101.4</ele>
        <time>2023-03-20T10:18:44Z</time>
      </trkpt>
      <trkpt lat="44.43038" lon="5.56984">
        <ele>1101.5</ele>
        <time>2023-03-20T10:18:45Z</time>
      </trkpt>
      <trkpt lat="44.43041" lon="5.56986">
        <ele>1101.8</ele>
        <time>2023-03-20T10:18:46Z</time>
      </trkpt>
      <trkpt lat="44.43041" lon="5.56986">
        <ele>1101.9</ele>
        <time>2023-03-20T10:18:47Z</time>
      </trkpt>
      <trkpt lat="44.43043" lon="5.56988">
        <ele>1102</ele>
        <time>2023-03-20T10:18:48Z</time>
      </trkpt>
      <trkpt lat="44.43044" lon="5.56989">
        <ele>1102.2</ele>
        <time>2023-03-20T10:18:49Z</time>
      </trkpt>
      <trkpt lat="44.43047" lon="5.56991">
        <ele>1102.4</ele>
        <time>2023-03-20T10:18:50Z</time>
      </trkpt>
      <trkpt lat="44.43048" lon="5.56992">
        <ele>1102.5</ele>
        <time>2023-03-20T10:18:51Z</time>
      </trkpt>
      <trkpt lat="44.4305" lon="5.56994">
        <ele>1102.8</ele>
        <time>2023-03-20T10:18:52Z</time>
      </trkpt>
      <trkpt lat="44.43051" lon="5.56994">
        <ele>1102.9</ele>
        <time>2023-03-20T10:18:53Z</time>
      </trkpt>
      <trkpt lat="44.43054" lon="5.56996">
        <ele>1103.2</ele>
        <time>2023-03-20T10:18:54Z</time>
      </trkpt>
      <trkpt lat="44.43055" lon="5.56997">
        <ele>1103.3</ele>
        <time>2023-03-20T10:18:55Z</time>
      </trkpt>
      <trkpt lat="44.43058" lon="5.57">
        <ele>1103.7</ele>
        <time>2023-03-20T10:18:57Z</time>
      </trkpt>
      <trkpt lat="44.4306" lon="5.57001">
        <ele>1103.9</ele>
        <time>2023-03-20T10:18:58Z</time>
      </trkpt>
      <trkpt lat="44.43063" lon="5.57003">
        <ele>1104.2</ele>
        <time>2023-03-20T10:18:59Z</time>
      </trkpt>
      <trkpt lat="44.43064" lon="5.57004">
        <ele>1104.3</ele>
        <time>2023-03-20T10:19:00Z</time>
      </trkpt>
      <trkpt lat="44.43067" lon="5.57006">
        <ele>1104.7</ele>
        <time>2023-03-20T10:19:01Z</time>
      </trkpt>
      <trkpt lat="44.43068" lon="5.57007">
        <ele>1104.8</ele>
        <time>2023-03-20T10:19:02Z</time>
      </trkpt>
      <trkpt lat="44.43069" lon="5.57008">
        <ele>1104.9</ele>
        <time>2023-03-20T10:19:03Z</time>
      </trkpt>
      <trkpt lat="44.4307" lon="5.57009">
        <ele>1105.1</ele>
        <time>2023-03-20T10:19:04Z</time>
      </trkpt>
      <trkpt lat="44.43072" lon="5.57011">
        <ele>1105.3</ele>
        <time>2023-03-20T10:19:05Z</time>
      </trkpt>
      <trkpt lat="44.43074" lon="5.57012">
        <ele>1105.5</ele>
        <time>2023-03-20T10:19:06Z</time>
      </trkpt>
      <trkpt lat="44.43076" lon="5.57014">
        <ele>1105.8</ele>
        <time>2023-03-20T10:19:07Z</time>
      </trkpt>
      <trkpt lat="44.43077" lon="5.57014">
        <ele>1105.9</ele>
        <time>2023-03-20T10:19:08Z</time>
      </trkpt>
      <trkpt lat="44.43079" lon="5.57016">
        <ele>1106.2</ele>
        <time>2023-03-20T10:19:09Z</time>
      </trkpt>
      <trkpt lat="44.4308" lon="5.57016">
        <ele>1106.3</ele>
        <time>2023-03-20T10:19:10Z</time>
      </trkpt>
      <trkpt lat="44.43082" lon="5.57017">
        <ele>1106.4</ele>
        <time>2023-03-20T10:19:11Z</time>
      </trkpt>
      <trkpt lat="44.43084" lon="5.57018">
        <ele>1106.6</ele>
        <time>2023-03-20T10:19:12Z</time>
      </trkpt>
      <trkpt lat="44.43085" lon="5.57018">
        <ele>1106.8</ele>
        <time>2023-03-20T10:19:13Z</time>
      </trkpt>
      <trkpt lat="44.43087" lon="5.57019">
        <ele>1106.9</ele>
        <time>2023-03-20T10:19:14Z</time>
      </trkpt>
      <trkpt lat="44.43089" lon="5.57019">
        <ele>1107</ele>
        <time>2023-03-20T10:19:15Z</time>
      </trkpt>
      <trkpt lat="44.4309" lon="5.5702">
        <ele>1107.2</ele>
        <time>2023-03-20T10:19:16Z</time>
      </trkpt>
      <trkpt lat="44.43094" lon="5.57021">
        <ele>1107.4</ele>
        <time>2023-03-20T10:19:17Z</time>
      </trkpt>
      <trkpt lat="44.43095" lon="5.57021">
        <ele>1107.5</ele>
        <time>2023-03-20T10:19:18Z</time>
      </trkpt>
      <trkpt lat="44.43097" lon="5.57022">
        <ele>1107.7</ele>
        <time>2023-03-20T10:19:19Z</time>
      </trkpt>
      <trkpt lat="44.43098" lon="5.57022">
        <ele>1107.8</ele>
        <time>2023-03-20T10:19:20Z</time>
      </trkpt>
      <trkpt lat="44.43102" lon="5.57023">
        <ele>1108</ele>
        <time>2023-03-20T10:19:21Z</time>
      </trkpt>
      <trkpt lat="44.43103" lon="5.57023">
        <ele>1108.1</ele>
        <time>2023-03-20T10:19:22Z</time>
      </trkpt>
      <trkpt lat="44.43106" lon="5.57023">
        <ele>1108.3</ele>
        <time>2023-03-20T10:19:23Z</time>
      </trkpt>
      <trkpt lat="44.43107" lon="5.57023">
        <ele>1108.4</ele>
        <time>2023-03-20T10:19:24Z</time>
      </trkpt>
      <trkpt lat="44.4311" lon="5.57023">
        <ele>1108.7</ele>
        <time>2023-03-20T10:19:25Z</time>
      </trkpt>
      <trkpt lat="44.43111" lon="5.57024">
        <ele>1108.8</ele>
        <time>2023-03-20T10:19:26Z</time>
      </trkpt>
      <trkpt lat="44.43114" lon="5.57024">
        <ele>1109.1</ele>
        <time>2023-03-20T10:19:27Z</time>
      </trkpt>
      <trkpt lat="44.43115" lon="5.57024">
        <ele>1109.2</ele>
        <time>2023-03-20T10:19:28Z</time>
      </trkpt>
      <trkpt lat="44.43118" lon="5.57025">
        <ele>1109.5</ele>
        <time>2023-03-20T10:19:29Z</time>
      </trkpt>
      <trkpt lat="44.43119" lon="5.57025">
        <ele>1109.6</ele>
        <time>2023-03-20T10:19:30Z</time>
      </trkpt>
      <trkpt lat="44.43122" lon="5.57025">
        <ele>1110</ele>
        <time>2023-03-20T10:19:31Z</time>
      </trkpt>
      <trkpt lat="44.43123" lon="5.57025">
        <ele>1110.1</ele>
        <time>2023-03-20T10:19:32Z</time>
      </trkpt>
      <trkpt lat="44.43125" lon="5.57026">
        <ele>1110.4</ele>
        <time>2023-03-20T10:19:33Z</time>
      </trkpt>
      <trkpt lat="44.43126" lon="5.57026">
        <ele>1110.5</ele>
        <time>2023-03-20T10:19:34Z</time>
      </trkpt>
      <trkpt lat="44.43129" lon="5.57026">
        <ele>1110.9</ele>
        <time>2023-03-20T10:19:35Z</time>
      </trkpt>
      <trkpt lat="44.43129" lon="5.57026">
        <ele>1111</ele>
        <time>2023-03-20T10:19:36Z</time>
      </trkpt>
      <trkpt lat="44.4313" lon="5.57026">
        <ele>1111.1</ele>
        <time>2023-03-20T10:19:37Z</time>
      </trkpt>
      <trkpt lat="44.43132" lon="5.57026">
        <ele>1111.4</ele>
        <time>2023-03-20T10:19:38Z</time>
      </trkpt>
      <trkpt lat="44.43134" lon="5.57026">
        <ele>1111.7</ele>
        <time>2023-03-20T10:19:39Z</time>
      </trkpt>
      <trkpt lat="44.43135" lon="5.57027">
        <ele>1111.9</ele>
        <time>2023-03-20T10:19:40Z</time>
      </trkpt>
      <trkpt lat="44.43137" lon="5.57027">
        <ele>1112.2</ele>
        <time>2023-03-20T10:19:41Z</time>
      </trkpt>
      <trkpt lat="44.43139" lon="5.57027">
        <ele>1112.5</ele>
        <time>2023-03-20T10:19:42Z</time>
      </trkpt>
      <trkpt lat="44.4314" lon="5.57028">
        <ele>1112.8</ele>
        <time>2023-03-20T10:19:43Z</time>
      </trkpt>
      <trkpt lat="44.43142" lon="5.57028">
        <ele>1113.1</ele>
        <time>2023-03-20T10:19:44Z</time>
      </trkpt>
      <trkpt lat="44.43144" lon="5.57029">
        <ele>1113.3</ele>
        <time>2023-03-20T10:19:45Z</time>
      </trkpt>
      <trkpt lat="44.43145" lon="5.5703">
        <ele>1113.6</ele>
        <time>2023-03-20T10:19:46Z</time>
      </trkpt>
      <trkpt lat="44.43146" lon="5.5703">
        <ele>1113.8</ele>
        <time>2023-03-20T10:19:47Z</time>
      </trkpt>
      <trkpt lat="44.43148" lon="5.57031">
        <ele>1114</ele>
        <time>2023-03-20T10:19:48Z</time>
      </trkpt>
      <trkpt lat="44.4315" lon="5.57031">
        <ele>1114.2</ele>
        <time>2023-03-20T10:19:49Z</time>
      </trkpt>
      <trkpt lat="44.43151" lon="5.57032">
        <ele>1114.5</ele>
        <time>2023-03-20T10:19:50Z</time>
      </trkpt>
      <trkpt lat="44.43153" lon="5.57033">
        <ele>1114.7</ele>
        <time>2023-03-20T10:19:51Z</time>
      </trkpt>
      <trkpt lat="44.43154" lon="5.57034">
        <ele>1114.9</ele>
        <time>2023-03-20T10:19:52Z</time>
      </trkpt>
      <trkpt lat="44.43155" lon="5.57035">
        <ele>1115.1</ele>
        <time>2023-03-20T10:19:53Z</time>
      </trkpt>
      <trkpt lat="44.43157" lon="5.57036">
        <ele>1115.4</ele>
        <time>2023-03-20T10:19:54Z</time>
      </trkpt>
      <trkpt lat="44.43158" lon="5.57037">
        <ele>1115.6</ele>
        <time>2023-03-20T10:19:55Z</time>
      </trkpt>
      <trkpt lat="44.4316" lon="5.57038">
        <ele>1115.8</ele>
        <time>2023-03-20T10:19:56Z</time>
      </trkpt>
      <trkpt lat="44.43161" lon="5.57039">
        <ele>1116</ele>
        <time>2023-03-20T10:19:57Z</time>
      </trkpt>
      <trkpt lat="44.43163" lon="5.5704">
        <ele>1116.2</ele>
        <time>2023-03-20T10:19:58Z</time>
      </trkpt>
      <trkpt lat="44.43164" lon="5.5704">
        <ele>1116.5</ele>
        <time>2023-03-20T10:19:59Z</time>
      </trkpt>
      <trkpt lat="44.43166" lon="5.57041">
        <ele>1116.7</ele>
        <time>2023-03-20T10:20:00Z</time>
      </trkpt>
      <trkpt lat="44.43167" lon="5.57042">
        <ele>1116.9</ele>
        <time>2023-03-20T10:20:01Z</time>
      </trkpt>
      <trkpt lat="44.43169" lon="5.57043">
        <ele>1117.2</ele>
        <time>2023-03-20T10:20:02Z</time>
      </trkpt>
      <trkpt lat="44.43171" lon="5.57043">
        <ele>1117.5</ele>
        <time>2023-03-20T10:20:03Z</time>
      </trkpt>
      <trkpt lat="44.43173" lon="5.57044">
        <ele>1117.9</ele>
        <time>2023-03-20T10:20:04Z</time>
      </trkpt>
      <trkpt lat="44.43174" lon="5.57045">
        <ele>1118</ele>
        <time>2023-03-20T10:20:05Z</time>
      </trkpt>
      <trkpt lat="44.43175" lon="5.57046">
        <ele>1118.2</ele>
        <time>2023-03-20T10:20:06Z</time>
      </trkpt>
      <trkpt lat="44.43177" lon="5.57047">
        <ele>1118.5</ele>
        <time>2023-03-20T10:20:07Z</time>
      </trkpt>
      <trkpt lat="44.43178" lon="5.57047">
        <ele>1119.8</ele>
        <time>2023-03-20T10:20:08Z</time>
      </trkpt>
      <trkpt lat="44.4318" lon="5.57047">
        <ele>1119.8</ele>
        <time>2023-03-20T10:20:09Z</time>
      </trkpt>
      <trkpt lat="44.43182" lon="5.57047">
        <ele>1119.8</ele>
        <time>2023-03-20T10:20:10Z</time>
      </trkpt>
      <trkpt lat="44.43182" lon="5.57046">
        <ele>1119.8</ele>
        <time>2023-03-20T10:20:11Z</time>
      </trkpt>
      <trkpt lat="44.43183" lon="5.57045">
        <ele>1119.8</ele>
        <time>2023-03-20T10:20:12Z</time>
      </trkpt>
      <trkpt lat="44.43184" lon="5.57043">
        <ele>1119.8</ele>
        <time>2023-03-20T10:20:13Z</time>
      </trkpt>
      <trkpt lat="44.43184" lon="5.57041">
        <ele>1119.8</ele>
        <time>2023-03-20T10:20:14Z</time>
      </trkpt>
      <trkpt lat="44.43183" lon="5.57038">
        <ele>1119.8</ele>
        <time>2023-03-20T10:20:15Z</time>
      </trkpt>
      <trkpt lat="44.43182" lon="5.57037">
        <ele>1119.8</ele>
        <time>2023-03-20T10:20:16Z</time>
      </trkpt>
      <trkpt lat="44.43182" lon="5.57036">
        <ele>1119.8</ele>
        <time>2023-03-20T10:20:17Z</time>
      </trkpt>
      <trkpt lat="44.43183" lon="5.57035">
        <ele>1119.8</ele>
        <time>2023-03-20T10:20:18Z</time>
      </trkpt>
      <trkpt lat="44.43184" lon="5.57035">
        <ele>1119.8</ele>
        <time>2023-03-20T10:20:19Z</time>
      </trkpt>
      <trkpt lat="44.43184" lon="5.57036">
        <ele>1119.8</ele>
        <time>2023-03-20T10:20:20Z</time>
      </trkpt>
      <trkpt lat="44.43184" lon="5.57037">
        <ele>1119.8</ele>
        <time>2023-03-20T10:20:21Z</time>
      </trkpt>
      <trkpt lat="44.43184" lon="5.57037">
        <ele>1119.8</ele>
        <time>2023-03-20T10:20:22Z</time>
      </trkpt>
      <trkpt lat="44.43184" lon="5.57037">
        <ele>1119.8</ele>
        <time>2023-03-20T10:20:23Z</time>
      </trkpt>
      <trkpt lat="44.43183" lon="5.57036">
        <ele>1119.8</ele>
        <time>2023-03-20T10:20:24Z</time>
      </trkpt>
      <trkpt lat="44.43183" lon="5.57036">
        <ele>1119.8</ele>
        <time>2023-03-20T10:20:25Z</time>
      </trkpt>
      <trkpt lat="44.43183" lon="5.57035">
        <ele>1119.8</ele>
        <time>2023-03-20T10:20:26Z</time>
      </trkpt>
      <trkpt lat="44.43184" lon="5.57035">
        <ele>1119.8</ele>
        <time>2023-03-20T10:20:27Z</time>
      </trkpt>
      <trkpt lat="44.43183" lon="5.57035">
        <ele>1119.8</ele>
        <time>2023-03-20T10:20:28Z</time>
      </trkpt>
      <trkpt lat="44.43183" lon="5.57035">
        <ele>1119.8</ele>
        <time>2023-03-20T10:20:29Z</time>
      </trkpt>
      <trkpt lat="44.43183" lon="5.57035">
        <ele>1119.8</ele>
        <time>2023-03-20T10:20:30Z</time>
      </trkpt>
      <trkpt lat="44.43183" lon="5.57035">
        <ele>1119.8</ele>
        <time>2023-03-20T10:20:31Z</time>
      </trkpt>
      <trkpt lat="44.43179" lon="5.57035">
        <ele>1119.8</ele>
        <time>2023-03-20T10:20:55Z</time>
      </trkpt>
      <trkpt lat="44.43178" lon="5.57034">
        <ele>1119.8</ele>
        <time>2023-03-20T10:20:56Z</time>
      </trkpt>
      <trkpt lat="44.43178" lon="5.57034">
        <ele>1119.8</ele>
        <time>2023-03-20T10:20:57Z</time>
      </trkpt>
      <trkpt lat="44.43178" lon="5.57033">
        <ele>1119.8</ele>
        <time>2023-03-20T10:20:58Z</time>
      </trkpt>
      <trkpt lat="44.43178" lon="5.57032">
        <ele>1119.8</ele>
        <time>2023-03-20T10:20:59Z</time>
      </trkpt>
      <trkpt lat="44.43177" lon="5.57031">
        <ele>1119.8</ele>
        <time>2023-03-20T10:21:00Z</time>
      </trkpt>
      <trkpt lat="44.43176" lon="5.5703">
        <ele>1119.8</ele>
        <time>2023-03-20T10:21:01Z</time>
      </trkpt>
      <trkpt lat="44.43176" lon="5.57029">
        <ele>1119.8</ele>
        <time>2023-03-20T10:21:02Z</time>
      </trkpt>
      <trkpt lat="44.43176" lon="5.57029">
        <ele>1119.8</ele>
        <time>2023-03-20T10:21:03Z</time>
      </trkpt>
      <trkpt lat="44.43176" lon="5.57029">
        <ele>1119.8</ele>
        <time>2023-03-20T10:21:04Z</time>
      </trkpt>
      <trkpt lat="44.43176" lon="5.57029">
        <ele>1119.8</ele>
        <time>2023-03-20T10:21:05Z</time>
      </trkpt>
      <trkpt lat="44.43176" lon="5.57029">
        <ele>1119.8</ele>
        <time>2023-03-20T10:21:06Z</time>
      </trkpt>
      <trkpt lat="44.43176" lon="5.57029">
        <ele>1119.8</ele>
        <time>2023-03-20T10:21:07Z</time>
      </trkpt>
      <trkpt lat="44.43176" lon="5.57029">
        <ele>1119.8</ele>
        <time>2023-03-20T10:21:08Z</time>
      </trkpt>
      <trkpt lat="44.43176" lon="5.57029">
        <ele>1119.8</ele>
        <time>2023-03-20T10:21:09Z</time>
      </trkpt>
      <trkpt lat="44.43176" lon="5.57029">
        <ele>1119.8</ele>
        <time>2023-03-20T10:21:10Z</time>
      </trkpt>
      <trkpt lat="44.43176" lon="5.57029">
        <ele>1119.8</ele>
        <time>2023-03-20T10:21:11Z</time>
      </trkpt>
      <trkpt lat="44.43176" lon="5.57029">
        <ele>1119.8</ele>
        <time>2023-03-20T10:21:12Z</time>
      </trkpt>
      <trkpt lat="44.43176" lon="5.57029">
        <ele>1119.8</ele>
        <time>2023-03-20T10:21:13Z</time>
      </trkpt>
      <trkpt lat="44.43179" lon="5.57035">
        <ele>1119.8</ele>
        <time>2023-03-20T10:21:51Z</time>
      </trkpt>
      <trkpt lat="44.43179" lon="5.57036">
        <ele>1119.7</ele>
        <time>2023-03-20T10:21:52Z</time>
      </trkpt>
      <trkpt lat="44.4318" lon="5.57037">
        <ele>1119.7</ele>
        <time>2023-03-20T10:21:53Z</time>
      </trkpt>
      <trkpt lat="44.4318" lon="5.57038">
        <ele>1119.7</ele>
        <time>2023-03-20T10:21:54Z</time>
      </trkpt>
      <trkpt lat="44.4318" lon="5.57039">
        <ele>1119.7</ele>
        <time>2023-03-20T10:21:55Z</time>
      </trkpt>
      <trkpt lat="44.43179" lon="5.57039">
        <ele>1119.7</ele>
        <time>2023-03-20T10:21:56Z</time>
      </trkpt>
      <trkpt lat="44.43179" lon="5.57038">
        <ele>1119.7</ele>
        <time>2023-03-20T10:21:57Z</time>
      </trkpt>
      <trkpt lat="44.43179" lon="5.57039">
        <ele>1119.7</ele>
        <time>2023-03-20T10:21:58Z</time>
      </trkpt>
      <trkpt lat="44.4318" lon="5.57038">
        <ele>1119.7</ele>
        <time>2023-03-20T10:21:59Z</time>
      </trkpt>
      <trkpt lat="44.43181" lon="5.57038">
        <ele>1119.7</ele>
        <time>2023-03-20T10:22:00Z</time>
      </trkpt>
      <trkpt lat="44.43181" lon="5.57038">
        <ele>1119.7</ele>
        <time>2023-03-20T10:22:01Z</time>
      </trkpt>
      <trkpt lat="44.43182" lon="5.57038">
        <ele>1119.7</ele>
        <time>2023-03-20T10:22:02Z</time>
      </trkpt>
      <trkpt lat="44.43182" lon="5.57038">
        <ele>1119.7</ele>
        <time>2023-03-20T10:22:03Z</time>
      </trkpt>
      <trkpt lat="44.43182" lon="5.57038">
        <ele>1119.7</ele>
        <time>2023-03-20T10:22:04Z</time>
      </trkpt>
      <trkpt lat="44.43182" lon="5.57038">
        <ele>1119.7</ele>
        <time>2023-03-20T10:22:05Z</time>
      </trkpt>
      <trkpt lat="44.43183" lon="5.57039">
        <ele>1119.7</ele>
        <time>2023-03-20T10:22:06Z</time>
      </trkpt>
      <trkpt lat="44.43183" lon="5.57039">
        <ele>1119.7</ele>
        <time>2023-03-20T10:22:07Z</time>
      </trkpt>
      <trkpt lat="44.43183" lon="5.57039">
        <ele>1119.7</ele>
        <time>2023-03-20T10:22:08Z</time>
      </trkpt>
      <trkpt lat="44.43182" lon="5.57039">
        <ele>1119.7</ele>
        <time>2023-03-20T10:22:09Z</time>
      </trkpt>
      <trkpt lat="44.43182" lon="5.57039">
        <ele>1119.7</ele>
        <time>2023-03-20T10:22:10Z</time>
      </trkpt>
      <trkpt lat="44.43182" lon="5.57039">
        <ele>1119.7</ele>
        <time>2023-03-20T10:22:11Z</time>
      </trkpt>
      <trkpt lat="44.43182" lon="5.57039">
        <ele>1119.7</ele>
        <time>2023-03-20T10:22:12Z</time>
      </trkpt>
      <trkpt lat="44.43182" lon="5.57039">
        <ele>1119.7</ele>
        <time>2023-03-20T10:22:13Z</time>
      </trkpt>
      <trkpt lat="44.43182" lon="5.57039">
        <ele>1119.7</ele>
        <time>2023-03-20T10:22:14Z</time>
      </trkpt>
      <trkpt lat="44.43182" lon="5.57039">
        <ele>1119.7</ele>
        <time>2023-03-20T10:22:15Z</time>
      </trkpt>
      <trkpt lat="44.43184" lon="5.5704">
        <ele>1119.7</ele>
        <time>2023-03-20T10:22:43Z</time>
      </trkpt>
      <trkpt lat="44.43184" lon="5.5704">
        <ele>1119.7</ele>
        <time>2023-03-20T10:22:44Z</time>
      </trkpt>
      <trkpt lat="44.43185" lon="5.57039">
        <ele>1119.7</ele>
        <time>2023-03-20T10:22:45Z</time>
      </trkpt>
      <trkpt lat="44.43185" lon="5.57039">
        <ele>1119.7</ele>
        <time>2023-03-20T10:22:46Z</time>
      </trkpt>
      <trkpt lat="44.43185" lon="5.5704">
        <ele>1119.7</ele>
        <time>2023-03-20T10:22:47Z</time>
      </trkpt>
      <trkpt lat="44.43185" lon="5.5704">
        <ele>1119.7</ele>
        <time>2023-03-20T10:22:48Z</time>
      </trkpt>
      <trkpt lat="44.43186" lon="5.57041">
        <ele>1119.7</ele>
        <time>2023-03-20T10:22:49Z</time>
      </trkpt>
      <trkpt lat="44.43186" lon="5.57041">
        <ele>1119.7</ele>
        <time>2023-03-20T10:22:50Z</time>
      </trkpt>
      <trkpt lat="44.43187" lon="5.57042">
        <ele>1119.7</ele>
        <time>2023-03-20T10:22:51Z</time>
      </trkpt>
      <trkpt lat="44.43187" lon="5.57043">
        <ele>1119.7</ele>
        <time>2023-03-20T10:22:52Z</time>
      </trkpt>
      <trkpt lat="44.43188" lon="5.57044">
        <ele>1119.7</ele>
        <time>2023-03-20T10:22:53Z</time>
      </trkpt>
      <trkpt lat="44.43188" lon="5.57045">
        <ele>1119.7</ele>
        <time>2023-03-20T10:22:54Z</time>
      </trkpt>
      <trkpt lat="44.43188" lon="5.57045">
        <ele>1119.7</ele>
        <time>2023-03-20T10:22:55Z</time>
      </trkpt>
      <trkpt lat="44.43188" lon="5.57045">
        <ele>1119.7</ele>
        <time>2023-03-20T10:22:56Z</time>
      </trkpt>
      <trkpt lat="44.43188" lon="5.57045">
        <ele>1119.7</ele>
        <time>2023-03-20T10:22:57Z</time>
      </trkpt>
      <trkpt lat="44.43188" lon="5.57045">
        <ele>1119.7</ele>
        <time>2023-03-20T10:22:58Z</time>
      </trkpt>
      <trkpt lat="44.43188" lon="5.57045">
        <ele>1119.7</ele>
        <time>2023-03-20T10:22:59Z</time>
      </trkpt>
      <trkpt lat="44.43188" lon="5.57045">
        <ele>1119.7</ele>
        <time>2023-03-20T10:23:00Z</time>
      </trkpt>
      <trkpt lat="44.43188" lon="5.57045">
        <ele>1119.7</ele>
        <time>2023-03-20T10:23:01Z</time>
      </trkpt>
      <trkpt lat="44.43188" lon="5.57045">
        <ele>1119.7</ele>
        <time>2023-03-20T10:23:02Z</time>
      </trkpt>
      <trkpt lat="44.43188" lon="5.57045">
        <ele>1119.7</ele>
        <time>2023-03-20T10:23:03Z</time>
      </trkpt>
      <trkpt lat="44.43188" lon="5.57045">
        <ele>1119.7</ele>
        <time>2023-03-20T10:23:04Z</time>
      </trkpt>
      <trkpt lat="44.43189" lon="5.57046">
        <ele>1119.8</ele>
        <time>2023-03-20T10:23:05Z</time>
      </trkpt>
      <trkpt lat="44.4319" lon="5.57048">
        <ele>1119.9</ele>
        <time>2023-03-20T10:23:06Z</time>
      </trkpt>
      <trkpt lat="44.43191" lon="5.5705">
        <ele>1120.1</ele>
        <time>2023-03-20T10:23:07Z</time>
      </trkpt>
      <trkpt lat="44.43193" lon="5.57052">
        <ele>1120.3</ele>
        <time>2023-03-20T10:23:08Z</time>
      </trkpt>
      <trkpt lat="44.43194" lon="5.57053">
        <ele>1120.4</ele>
        <time>2023-03-20T10:23:09Z</time>
      </trkpt>
      <trkpt lat="44.43196" lon="5.57056">
        <ele>1120.6</ele>
        <time>2023-03-20T10:23:10Z</time>
      </trkpt>
      <trkpt lat="44.43197" lon="5.57057">
        <ele>1120.7</ele>
        <time>2023-03-20T10:23:11Z</time>
      </trkpt>
      <trkpt lat="44.43198" lon="5.57059">
        <ele>1120.8</ele>
        <time>2023-03-20T10:23:12Z</time>
      </trkpt>
      <trkpt lat="44.43198" lon="5.57062">
        <ele>1120.9</ele>
        <time>2023-03-20T10:23:13Z</time>
      </trkpt>
      <trkpt lat="44.43198" lon="5.57064">
        <ele>1121.1</ele>
        <time>2023-03-20T10:23:14Z</time>
      </trkpt>
      <trkpt lat="44.43198" lon="5.57066">
        <ele>1121.1</ele>
        <time>2023-03-20T10:23:15Z</time>
      </trkpt>
      <trkpt lat="44.43199" lon="5.57068">
        <ele>1121.3</ele>
        <time>2023-03-20T10:23:16Z</time>
      </trkpt>
      <trkpt lat="44.43199" lon="5.5707">
        <ele>1121.4</ele>
        <time>2023-03-20T10:23:17Z</time>
      </trkpt>
      <trkpt lat="44.432" lon="5.57072">
        <ele>1121.5</ele>
        <time>2023-03-20T10:23:18Z</time>
      </trkpt>
      <trkpt lat="44.43201" lon="5.57074">
        <ele>1121.6</ele>
        <time>2023-03-20T10:23:19Z</time>
      </trkpt>
      <trkpt lat="44.43202" lon="5.57076">
        <ele>1121.8</ele>
        <time>2023-03-20T10:23:20Z</time>
      </trkpt>
      <trkpt lat="44.43203" lon="5.57077">
        <ele>1121.9</ele>
        <time>2023-03-20T10:23:21Z</time>
      </trkpt>
      <trkpt lat="44.43204" lon="5.57079">
        <ele>1122</ele>
        <time>2023-03-20T10:23:22Z</time>
      </trkpt>
      <trkpt lat="44.43205" lon="5.57081">
        <ele>1122.1</ele>
        <time>2023-03-20T10:23:23Z</time>
      </trkpt>
      <trkpt lat="44.43207" lon="5.57083">
        <ele>1122.3</ele>
        <time>2023-03-20T10:23:24Z</time>
      </trkpt>
      <trkpt lat="44.43207" lon="5.57084">
        <ele>1122.4</ele>
        <time>2023-03-20T10:23:25Z</time>
      </trkpt>
      <trkpt lat="44.43209" lon="5.57086">
        <ele>1122.5</ele>
        <time>2023-03-20T10:23:26Z</time>
      </trkpt>
      <trkpt lat="44.4321" lon="5.57087">
        <ele>1122.6</ele>
        <time>2023-03-20T10:23:27Z</time>
      </trkpt>
      <trkpt lat="44.43211" lon="5.57089">
        <ele>1122.7</ele>
        <time>2023-03-20T10:23:28Z</time>
      </trkpt>
      <trkpt lat="44.43212" lon="5.57091">
        <ele>1122.9</ele>
        <time>2023-03-20T10:23:29Z</time>
      </trkpt>
      <trkpt lat="44.43214" lon="5.57092">
        <ele>1123</ele>
        <time>2023-03-20T10:23:30Z</time>
      </trkpt>
      <trkpt lat="44.43215" lon="5.57094">
        <ele>1123.1</ele>
        <time>2023-03-20T10:23:31Z</time>
      </trkpt>
      <trkpt lat="44.43216" lon="5.57095">
        <ele>1123.3</ele>
        <time>2023-03-20T10:23:32Z</time>
      </trkpt>
      <trkpt lat="44.43217" lon="5.57097">
        <ele>1123.4</ele>
        <time>2023-03-20T10:23:33Z</time>
      </trkpt>
      <trkpt lat="44.43218" lon="5.57098">
        <ele>1123.5</ele>
        <time>2023-03-20T10:23:34Z</time>
      </trkpt>
      <trkpt lat="44.43219" lon="5.571">
        <ele>1123.6</ele>
        <time>2023-03-20T10:23:35Z</time>
      </trkpt>
      <trkpt lat="44.4322" lon="5.57102">
        <ele>1123.7</ele>
        <time>2023-03-20T10:23:36Z</time>
      </trkpt>
      <trkpt lat="44.43221" lon="5.57104">
        <ele>1123.8</ele>
        <time>2023-03-20T10:23:37Z</time>
      </trkpt>
      <trkpt lat="44.43221" lon="5.57106">
        <ele>1123.9</ele>
        <time>2023-03-20T10:23:38Z</time>
      </trkpt>
      <trkpt lat="44.43222" lon="5.57108">
        <ele>1124.1</ele>
        <time>2023-03-20T10:23:39Z</time>
      </trkpt>
      <trkpt lat="44.43224" lon="5.57111">
        <ele>1124.3</ele>
        <time>2023-03-20T10:23:40Z</time>
      </trkpt>
      <trkpt lat="44.43224" lon="5.57112">
        <ele>1124.3</ele>
        <time>2023-03-20T10:23:41Z</time>
      </trkpt>
      <trkpt lat="44.43226" lon="5.57113">
        <ele>1124.5</ele>
        <time>2023-03-20T10:23:42Z</time>
      </trkpt>
      <trkpt lat="44.43227" lon="5.57115">
        <ele>1124.6</ele>
        <time>2023-03-20T10:23:43Z</time>
      </trkpt>
      <trkpt lat="44.43228" lon="5.57116">
        <ele>1124.7</ele>
        <time>2023-03-20T10:23:44Z</time>
      </trkpt>
      <trkpt lat="44.4323" lon="5.57117">
        <ele>1124.8</ele>
        <time>2023-03-20T10:23:45Z</time>
      </trkpt>
      <trkpt lat="44.43232" lon="5.5712">
        <ele>1125.1</ele>
        <time>2023-03-20T10:23:46Z</time>
      </trkpt>
      <trkpt lat="44.43233" lon="5.5712">
        <ele>1125.1</ele>
        <time>2023-03-20T10:23:47Z</time>
      </trkpt>
      <trkpt lat="44.43234" lon="5.57121">
        <ele>1125.2</ele>
        <time>2023-03-20T10:23:48Z</time>
      </trkpt>
      <trkpt lat="44.43235" lon="5.57122">
        <ele>1125.3</ele>
        <time>2023-03-20T10:23:49Z</time>
      </trkpt>
      <trkpt lat="44.43237" lon="5.57123">
        <ele>1125.4</ele>
        <time>2023-03-20T10:23:50Z</time>
      </trkpt>
      <trkpt lat="44.43238" lon="5.57125">
        <ele>1125.6</ele>
        <time>2023-03-20T10:23:51Z</time>
      </trkpt>
      <trkpt lat="44.4324" lon="5.57127">
        <ele>1125.8</ele>
        <time>2023-03-20T10:23:52Z</time>
      </trkpt>
      <trkpt lat="44.43241" lon="5.57128">
        <ele>1125.8</ele>
        <time>2023-03-20T10:23:53Z</time>
      </trkpt>
      <trkpt lat="44.43242" lon="5.57129">
        <ele>1126</ele>
        <time>2023-03-20T10:23:54Z</time>
      </trkpt>
      <trkpt lat="44.43244" lon="5.5713">
        <ele>1126.1</ele>
        <time>2023-03-20T10:23:55Z</time>
      </trkpt>
      <trkpt lat="44.43246" lon="5.57133">
        <ele>1126.3</ele>
        <time>2023-03-20T10:23:56Z</time>
      </trkpt>
      <trkpt lat="44.43247" lon="5.57134">
        <ele>1126.4</ele>
        <time>2023-03-20T10:23:57Z</time>
      </trkpt>
      <trkpt lat="44.43249" lon="5.57137">
        <ele>1126.7</ele>
        <time>2023-03-20T10:23:58Z</time>
      </trkpt>
      <trkpt lat="44.4325" lon="5.57138">
        <ele>1126.7</ele>
        <time>2023-03-20T10:23:59Z</time>
      </trkpt>
      <trkpt lat="44.43252" lon="5.57141">
        <ele>1127</ele>
        <time>2023-03-20T10:24:00Z</time>
      </trkpt>
      <trkpt lat="44.43253" lon="5.57142">
        <ele>1127</ele>
        <time>2023-03-20T10:24:01Z</time>
      </trkpt>
      <trkpt lat="44.43255" lon="5.57146">
        <ele>1127.3</ele>
        <time>2023-03-20T10:24:02Z</time>
      </trkpt>
      <trkpt lat="44.43256" lon="5.57148">
        <ele>1127.4</ele>
        <time>2023-03-20T10:24:03Z</time>
      </trkpt>
      <trkpt lat="44.43257" lon="5.57151">
        <ele>1127.6</ele>
        <time>2023-03-20T10:24:04Z</time>
      </trkpt>
      <trkpt lat="44.43259" lon="5.57155">
        <ele>1127.9</ele>
        <time>2023-03-20T10:24:05Z</time>
      </trkpt>
      <trkpt lat="44.43261" lon="5.57159">
        <ele>1128.1</ele>
        <time>2023-03-20T10:24:06Z</time>
      </trkpt>
      <trkpt lat="44.43262" lon="5.57162">
        <ele>1128.3</ele>
        <time>2023-03-20T10:24:07Z</time>
      </trkpt>
      <trkpt lat="44.43263" lon="5.57166">
        <ele>1128.5</ele>
        <time>2023-03-20T10:24:08Z</time>
      </trkpt>
      <trkpt lat="44.43265" lon="5.57171">
        <ele>1128.8</ele>
        <time>2023-03-20T10:24:09Z</time>
      </trkpt>
      <trkpt lat="44.43266" lon="5.57172">
        <ele>1128.9</ele>
        <time>2023-03-20T10:24:10Z</time>
      </trkpt>
      <trkpt lat="44.43268" lon="5.57175">
        <ele>1129.2</ele>
        <time>2023-03-20T10:24:11Z</time>
      </trkpt>
      <trkpt lat="44.43271" lon="5.57179">
        <ele>1129.5</ele>
        <time>2023-03-20T10:24:12Z</time>
      </trkpt>
      <trkpt lat="44.43275" lon="5.57184">
        <ele>1129.8</ele>
        <time>2023-03-20T10:24:13Z</time>
      </trkpt>
      <trkpt lat="44.43278" lon="5.5719">
        <ele>1130.2</ele>
        <time>2023-03-20T10:24:14Z</time>
      </trkpt>
      <trkpt lat="44.43282" lon="5.57196">
        <ele>1130.7</ele>
        <time>2023-03-20T10:24:15Z</time>
      </trkpt>
      <trkpt lat="44.43287" lon="5.57203">
        <ele>1131.2</ele>
        <time>2023-03-20T10:24:16Z</time>
      </trkpt>
      <trkpt lat="44.43292" lon="5.57209">
        <ele>1131.7</ele>
        <time>2023-03-20T10:24:17Z</time>
      </trkpt>
      <trkpt lat="44.43297" lon="5.57216">
        <ele>1132.2</ele>
        <time>2023-03-20T10:24:18Z</time>
      </trkpt>
      <trkpt lat="44.43302" lon="5.57224">
        <ele>1132.8</ele>
        <time>2023-03-20T10:24:19Z</time>
      </trkpt>
      <trkpt lat="44.43305" lon="5.57231">
        <ele>1133.2</ele>
        <time>2023-03-20T10:24:20Z</time>
      </trkpt>
      <trkpt lat="44.43308" lon="5.5724">
        <ele>1133.7</ele>
        <time>2023-03-20T10:24:21Z</time>
      </trkpt>
      <trkpt lat="44.4331" lon="5.57246">
        <ele>1134.1</ele>
        <time>2023-03-20T10:24:22Z</time>
      </trkpt>
      <trkpt lat="44.43312" lon="5.57251">
        <ele>1134.4</ele>
        <time>2023-03-20T10:24:23Z</time>
      </trkpt>
      <trkpt lat="44.43314" lon="5.57254">
        <ele>1134.6</ele>
        <time>2023-03-20T10:24:24Z</time>
      </trkpt>
      <trkpt lat="44.43316" lon="5.57257">
        <ele>1134.8</ele>
        <time>2023-03-20T10:24:25Z</time>
      </trkpt>
      <trkpt lat="44.43318" lon="5.57261">
        <ele>1135.1</ele>
        <time>2023-03-20T10:24:26Z</time>
      </trkpt>
      <trkpt lat="44.43319" lon="5.57263">
        <ele>1135.2</ele>
        <time>2023-03-20T10:24:27Z</time>
      </trkpt>
      <trkpt lat="44.43322" lon="5.57266">
        <ele>1135.5</ele>
        <time>2023-03-20T10:24:28Z</time>
      </trkpt>
      <trkpt lat="44.43323" lon="5.57267">
        <ele>1135.6</ele>
        <time>2023-03-20T10:24:29Z</time>
      </trkpt>
      <trkpt lat="44.43326" lon="5.57271">
        <ele>1135.9</ele>
        <time>2023-03-20T10:24:30Z</time>
      </trkpt>
      <trkpt lat="44.43327" lon="5.57272">
        <ele>1136</ele>
        <time>2023-03-20T10:24:31Z</time>
      </trkpt>
      <trkpt lat="44.43329" lon="5.57275">
        <ele>1136.2</ele>
        <time>2023-03-20T10:24:32Z</time>
      </trkpt>
      <trkpt lat="44.43331" lon="5.5728">
        <ele>1136.5</ele>
        <time>2023-03-20T10:24:33Z</time>
      </trkpt>
      <trkpt lat="44.43331" lon="5.57282">
        <ele>1136.6</ele>
        <time>2023-03-20T10:24:34Z</time>
      </trkpt>
      <trkpt lat="44.43333" lon="5.57287">
        <ele>1136.9</ele>
        <time>2023-03-20T10:24:35Z</time>
      </trkpt>
      <trkpt lat="44.43333" lon="5.57288">
        <ele>1137</ele>
        <time>2023-03-20T10:24:36Z</time>
      </trkpt>
      <trkpt lat="44.43334" lon="5.57293">
        <ele>1137.3</ele>
        <time>2023-03-20T10:24:37Z</time>
      </trkpt>
      <trkpt lat="44.43335" lon="5.57295">
        <ele>1137.4</ele>
        <time>2023-03-20T10:24:38Z</time>
      </trkpt>
      <trkpt lat="44.43336" lon="5.573">
        <ele>1137.6</ele>
        <time>2023-03-20T10:24:39Z</time>
      </trkpt>
      <trkpt lat="44.43336" lon="5.57301">
        <ele>1137.7</ele>
        <time>2023-03-20T10:24:40Z</time>
      </trkpt>
      <trkpt lat="44.43338" lon="5.57306">
        <ele>1138</ele>
        <time>2023-03-20T10:24:41Z</time>
      </trkpt>
      <trkpt lat="44.43338" lon="5.57307">
        <ele>1138.1</ele>
        <time>2023-03-20T10:24:42Z</time>
      </trkpt>
      <trkpt lat="44.43339" lon="5.57312">
        <ele>1138.3</ele>
        <time>2023-03-20T10:24:43Z</time>
      </trkpt>
      <trkpt lat="44.43339" lon="5.57313">
        <ele>1138.4</ele>
        <time>2023-03-20T10:24:44Z</time>
      </trkpt>
      <trkpt lat="44.4334" lon="5.57317">
        <ele>1138.6</ele>
        <time>2023-03-20T10:24:45Z</time>
      </trkpt>
      <trkpt lat="44.4334" lon="5.57319">
        <ele>1138.7</ele>
        <time>2023-03-20T10:24:46Z</time>
      </trkpt>
      <trkpt lat="44.43341" lon="5.57324">
        <ele>1139</ele>
        <time>2023-03-20T10:24:47Z</time>
      </trkpt>
      <trkpt lat="44.43341" lon="5.57325">
        <ele>1139.1</ele>
        <time>2023-03-20T10:24:48Z</time>
      </trkpt>
      <trkpt lat="44.43341" lon="5.5733">
        <ele>1139.3</ele>
        <time>2023-03-20T10:24:49Z</time>
      </trkpt>
      <trkpt lat="44.43341" lon="5.57332">
        <ele>1139.4</ele>
        <time>2023-03-20T10:24:50Z</time>
      </trkpt>
      <trkpt lat="44.43341" lon="5.57336">
        <ele>1139.6</ele>
        <time>2023-03-20T10:24:51Z</time>
      </trkpt>
      <trkpt lat="44.43341" lon="5.57338">
        <ele>1139.7</ele>
        <time>2023-03-20T10:24:52Z</time>
      </trkpt>
      <trkpt lat="44.43342" lon="5.57342">
        <ele>1139.9</ele>
        <time>2023-03-20T10:24:53Z</time>
      </trkpt>
      <trkpt lat="44.43342" lon="5.57343">
        <ele>1140</ele>
        <time>2023-03-20T10:24:54Z</time>
      </trkpt>
      <trkpt lat="44.43341" lon="5.57348">
        <ele>1140.2</ele>
        <time>2023-03-20T10:24:55Z</time>
      </trkpt>
      <trkpt lat="44.43341" lon="5.57349">
        <ele>1140.3</ele>
        <time>2023-03-20T10:24:56Z</time>
      </trkpt>
      <trkpt lat="44.43341" lon="5.57353">
        <ele>1140.5</ele>
        <time>2023-03-20T10:24:57Z</time>
      </trkpt>
      <trkpt lat="44.43341" lon="5.57355">
        <ele>1140.6</ele>
        <time>2023-03-20T10:24:58Z</time>
      </trkpt>
      <trkpt lat="44.43341" lon="5.57357">
        <ele>1140.8</ele>
        <time>2023-03-20T10:24:59Z</time>
      </trkpt>
      <trkpt lat="44.43341" lon="5.57359">
        <ele>1140.9</ele>
        <time>2023-03-20T10:25:00Z</time>
      </trkpt>
      <trkpt lat="44.4334" lon="5.57365">
        <ele>1141.2</ele>
        <time>2023-03-20T10:25:01Z</time>
      </trkpt>
      <trkpt lat="44.43341" lon="5.57366">
        <ele>1141.2</ele>
        <time>2023-03-20T10:25:02Z</time>
      </trkpt>
      <trkpt lat="44.4334" lon="5.57371">
        <ele>1141.5</ele>
        <time>2023-03-20T10:25:03Z</time>
      </trkpt>
      <trkpt lat="44.4334" lon="5.57373">
        <ele>1141.6</ele>
        <time>2023-03-20T10:25:04Z</time>
      </trkpt>
      <trkpt lat="44.4334" lon="5.57377">
        <ele>1141.8</ele>
        <time>2023-03-20T10:25:05Z</time>
      </trkpt>
      <trkpt lat="44.43339" lon="5.57378">
        <ele>1141.9</ele>
        <time>2023-03-20T10:25:06Z</time>
      </trkpt>
      <trkpt lat="44.43339" lon="5.57382">
        <ele>1142.1</ele>
        <time>2023-03-20T10:25:07Z</time>
      </trkpt>
      <trkpt lat="44.43339" lon="5.57384">
        <ele>1142.2</ele>
        <time>2023-03-20T10:25:08Z</time>
      </trkpt>
      <trkpt lat="44.4334" lon="5.57388">
        <ele>1142.4</ele>
        <time>2023-03-20T10:25:09Z</time>
      </trkpt>
      <trkpt lat="44.4334" lon="5.5739">
        <ele>1142.5</ele>
        <time>2023-03-20T10:25:10Z</time>
      </trkpt>
      <trkpt lat="44.4334" lon="5.57394">
        <ele>1142.7</ele>
        <time>2023-03-20T10:25:11Z</time>
      </trkpt>
      <trkpt lat="44.4334" lon="5.57395">
        <ele>1142.8</ele>
        <time>2023-03-20T10:25:12Z</time>
      </trkpt>
      <trkpt lat="44.4334" lon="5.57399">
        <ele>1143</ele>
        <time>2023-03-20T10:25:13Z</time>
      </trkpt>
      <trkpt lat="44.4334" lon="5.574">
        <ele>1143.1</ele>
        <time>2023-03-20T10:25:14Z</time>
      </trkpt>
      <trkpt lat="44.43341" lon="5.57405">
        <ele>1143.3</ele>
        <time>2023-03-20T10:25:15Z</time>
      </trkpt>
      <trkpt lat="44.43341" lon="5.57406">
        <ele>1143.4</ele>
        <time>2023-03-20T10:25:16Z</time>
      </trkpt>
      <trkpt lat="44.43341" lon="5.57408">
        <ele>1143.5</ele>
        <time>2023-03-20T10:25:17Z</time>
      </trkpt>
      <trkpt lat="44.43342" lon="5.57411">
        <ele>1143.6</ele>
        <time>2023-03-20T10:25:18Z</time>
      </trkpt>
      <trkpt lat="44.43342" lon="5.57413">
        <ele>1143.7</ele>
        <time>2023-03-20T10:25:19Z</time>
      </trkpt>
      <trkpt lat="44.43342" lon="5.57415">
        <ele>1143.9</ele>
        <time>2023-03-20T10:25:20Z</time>
      </trkpt>
      <trkpt lat="44.43342" lon="5.57417">
        <ele>1144</ele>
        <time>2023-03-20T10:25:21Z</time>
      </trkpt>
      <trkpt lat="44.43343" lon="5.57419">
        <ele>1144.1</ele>
        <time>2023-03-20T10:25:22Z</time>
      </trkpt>
      <trkpt lat="44.43343" lon="5.57421">
        <ele>1144.2</ele>
        <time>2023-03-20T10:25:23Z</time>
      </trkpt>
      <trkpt lat="44.43344" lon="5.57424">
        <ele>1144.4</ele>
        <time>2023-03-20T10:25:24Z</time>
      </trkpt>
      <trkpt lat="44.43344" lon="5.57428">
        <ele>1144.6</ele>
        <time>2023-03-20T10:25:25Z</time>
      </trkpt>
      <trkpt lat="44.43344" lon="5.57429">
        <ele>1144.6</ele>
        <time>2023-03-20T10:25:26Z</time>
      </trkpt>
      <trkpt lat="44.43345" lon="5.57431">
        <ele>1144.8</ele>
        <time>2023-03-20T10:25:27Z</time>
      </trkpt>
      <trkpt lat="44.43345" lon="5.57434">
        <ele>1144.9</ele>
        <time>2023-03-20T10:25:28Z</time>
      </trkpt>
      <trkpt lat="44.43345" lon="5.57436">
        <ele>1145</ele>
        <time>2023-03-20T10:25:29Z</time>
      </trkpt>
      <trkpt lat="44.43346" lon="5.57438">
        <ele>1145.1</ele>
        <time>2023-03-20T10:25:30Z</time>
      </trkpt>
      <trkpt lat="44.43346" lon="5.5744">
        <ele>1145.2</ele>
        <time>2023-03-20T10:25:31Z</time>
      </trkpt>
      <trkpt lat="44.43347" lon="5.57442">
        <ele>1145.4</ele>
        <time>2023-03-20T10:25:32Z</time>
      </trkpt>
      <trkpt lat="44.43348" lon="5.57444">
        <ele>1145.5</ele>
        <time>2023-03-20T10:25:33Z</time>
      </trkpt>
      <trkpt lat="44.43348" lon="5.57446">
        <ele>1145.6</ele>
        <time>2023-03-20T10:25:34Z</time>
      </trkpt>
      <trkpt lat="44.43349" lon="5.57448">
        <ele>1145.7</ele>
        <time>2023-03-20T10:25:35Z</time>
      </trkpt>
      <trkpt lat="44.4335" lon="5.5745">
        <ele>1145.9</ele>
        <time>2023-03-20T10:25:36Z</time>
      </trkpt>
      <trkpt lat="44.4335" lon="5.57452">
        <ele>1146</ele>
        <time>2023-03-20T10:25:37Z</time>
      </trkpt>
      <trkpt lat="44.43351" lon="5.57454">
        <ele>1146.1</ele>
        <time>2023-03-20T10:25:38Z</time>
      </trkpt>
      <trkpt lat="44.43352" lon="5.57456">
        <ele>1146.2</ele>
        <time>2023-03-20T10:25:39Z</time>
      </trkpt>
      <trkpt lat="44.43353" lon="5.57458">
        <ele>1146.3</ele>
        <time>2023-03-20T10:25:40Z</time>
      </trkpt>
      <trkpt lat="44.43353" lon="5.5746">
        <ele>1146.4</ele>
        <time>2023-03-20T10:25:41Z</time>
      </trkpt>
      <trkpt lat="44.43354" lon="5.57462">
        <ele>1146.5</ele>
        <time>2023-03-20T10:25:42Z</time>
      </trkpt>
      <trkpt lat="44.43355" lon="5.57464">
        <ele>1146.7</ele>
        <time>2023-03-20T10:25:43Z</time>
      </trkpt>
      <trkpt lat="44.43356" lon="5.57466">
        <ele>1146.8</ele>
        <time>2023-03-20T10:25:44Z</time>
      </trkpt>
      <trkpt lat="44.43357" lon="5.57468">
        <ele>1146.9</ele>
        <time>2023-03-20T10:25:45Z</time>
      </trkpt>
      <trkpt lat="44.43357" lon="5.5747">
        <ele>1147.1</ele>
        <time>2023-03-20T10:25:46Z</time>
      </trkpt>
      <trkpt lat="44.43358" lon="5.57473">
        <ele>1147.2</ele>
        <time>2023-03-20T10:25:47Z</time>
      </trkpt>
      <trkpt lat="44.43359" lon="5.57475">
        <ele>1147.3</ele>
        <time>2023-03-20T10:25:48Z</time>
      </trkpt>
      <trkpt lat="44.43359" lon="5.57476">
        <ele>1147.4</ele>
        <time>2023-03-20T10:25:49Z</time>
      </trkpt>
      <trkpt lat="44.4336" lon="5.57478">
        <ele>1147.6</ele>
        <time>2023-03-20T10:25:50Z</time>
      </trkpt>
      <trkpt lat="44.43361" lon="5.5748">
        <ele>1147.7</ele>
        <time>2023-03-20T10:25:51Z</time>
      </trkpt>
      <trkpt lat="44.43362" lon="5.57482">
        <ele>1147.8</ele>
        <time>2023-03-20T10:25:52Z</time>
      </trkpt>
      <trkpt lat="44.43363" lon="5.57484">
        <ele>1147.9</ele>
        <time>2023-03-20T10:25:53Z</time>
      </trkpt>
      <trkpt lat="44.43364" lon="5.57487">
        <ele>1148.1</ele>
        <time>2023-03-20T10:25:54Z</time>
      </trkpt>
      <trkpt lat="44.43364" lon="5.57488">
        <ele>1148.2</ele>
        <time>2023-03-20T10:25:55Z</time>
      </trkpt>
      <trkpt lat="44.43365" lon="5.5749">
        <ele>1148.3</ele>
        <time>2023-03-20T10:25:56Z</time>
      </trkpt>
      <trkpt lat="44.43366" lon="5.57492">
        <ele>1148.4</ele>
        <time>2023-03-20T10:25:57Z</time>
      </trkpt>
      <trkpt lat="44.43367" lon="5.57494">
        <ele>1148.5</ele>
        <time>2023-03-20T10:25:58Z</time>
      </trkpt>
      <trkpt lat="44.43367" lon="5.57496">
        <ele>1148.7</ele>
        <time>2023-03-20T10:25:59Z</time>
      </trkpt>
      <trkpt lat="44.43368" lon="5.57498">
        <ele>1148.8</ele>
        <time>2023-03-20T10:26:00Z</time>
      </trkpt>
      <trkpt lat="44.43369" lon="5.57501">
        <ele>1148.9</ele>
        <time>2023-03-20T10:26:01Z</time>
      </trkpt>
      <trkpt lat="44.43369" lon="5.57502">
        <ele>1149</ele>
        <time>2023-03-20T10:26:02Z</time>
      </trkpt>
      <trkpt lat="44.4337" lon="5.57504">
        <ele>1149.1</ele>
        <time>2023-03-20T10:26:03Z</time>
      </trkpt>
      <trkpt lat="44.4337" lon="5.57506">
        <ele>1149.2</ele>
        <time>2023-03-20T10:26:04Z</time>
      </trkpt>
      <trkpt lat="44.4337" lon="5.57508">
        <ele>1149.3</ele>
        <time>2023-03-20T10:26:05Z</time>
      </trkpt>
      <trkpt lat="44.4337" lon="5.5751">
        <ele>1149.4</ele>
        <time>2023-03-20T10:26:06Z</time>
      </trkpt>
      <trkpt lat="44.43371" lon="5.57513">
        <ele>1149.6</ele>
        <time>2023-03-20T10:26:07Z</time>
      </trkpt>
      <trkpt lat="44.43371" lon="5.57515">
        <ele>1149.7</ele>
        <time>2023-03-20T10:26:08Z</time>
      </trkpt>
      <trkpt lat="44.43372" lon="5.57517">
        <ele>1149.9</ele>
        <time>2023-03-20T10:26:09Z</time>
      </trkpt>
      <trkpt lat="44.43373" lon="5.57521">
        <ele>1150.1</ele>
        <time>2023-03-20T10:26:10Z</time>
      </trkpt>
      <trkpt lat="44.43374" lon="5.57523">
        <ele>1150.1</ele>
        <time>2023-03-20T10:26:11Z</time>
      </trkpt>
      <trkpt lat="44.43375" lon="5.57526">
        <ele>1150.4</ele>
        <time>2023-03-20T10:26:12Z</time>
      </trkpt>
      <trkpt lat="44.43375" lon="5.57528">
        <ele>1150.4</ele>
        <time>2023-03-20T10:26:13Z</time>
      </trkpt>
      <trkpt lat="44.43376" lon="5.57531">
        <ele>1150.6</ele>
        <time>2023-03-20T10:26:14Z</time>
      </trkpt>
      <trkpt lat="44.43376" lon="5.57532">
        <ele>1150.7</ele>
        <time>2023-03-20T10:26:15Z</time>
      </trkpt>
      <trkpt lat="44.43377" lon="5.57535">
        <ele>1150.9</ele>
        <time>2023-03-20T10:26:16Z</time>
      </trkpt>
      <trkpt lat="44.43378" lon="5.57537">
        <ele>1151</ele>
        <time>2023-03-20T10:26:17Z</time>
      </trkpt>
      <trkpt lat="44.43379" lon="5.57541">
        <ele>1151.2</ele>
        <time>2023-03-20T10:26:18Z</time>
      </trkpt>
      <trkpt lat="44.43379" lon="5.57542">
        <ele>1151.3</ele>
        <time>2023-03-20T10:26:19Z</time>
      </trkpt>
      <trkpt lat="44.4338" lon="5.57545">
        <ele>1151.5</ele>
        <time>2023-03-20T10:26:20Z</time>
      </trkpt>
      <trkpt lat="44.4338" lon="5.57547">
        <ele>1151.5</ele>
        <time>2023-03-20T10:26:21Z</time>
      </trkpt>
      <trkpt lat="44.43381" lon="5.57549">
        <ele>1151.7</ele>
        <time>2023-03-20T10:26:22Z</time>
      </trkpt>
      <trkpt lat="44.43381" lon="5.57551">
        <ele>1151.8</ele>
        <time>2023-03-20T10:26:23Z</time>
      </trkpt>
      <trkpt lat="44.43382" lon="5.57554">
        <ele>1151.9</ele>
        <time>2023-03-20T10:26:24Z</time>
      </trkpt>
      <trkpt lat="44.43382" lon="5.57556">
        <ele>1152</ele>
        <time>2023-03-20T10:26:25Z</time>
      </trkpt>
      <trkpt lat="44.43383" lon="5.57558">
        <ele>1152.2</ele>
        <time>2023-03-20T10:26:26Z</time>
      </trkpt>
      <trkpt lat="44.43384" lon="5.5756">
        <ele>1152.3</ele>
        <time>2023-03-20T10:26:27Z</time>
      </trkpt>
      <trkpt lat="44.43385" lon="5.57564">
        <ele>1152.5</ele>
        <time>2023-03-20T10:26:28Z</time>
      </trkpt>
      <trkpt lat="44.43385" lon="5.57565">
        <ele>1152.6</ele>
        <time>2023-03-20T10:26:29Z</time>
      </trkpt>
      <trkpt lat="44.43386" lon="5.57569">
        <ele>1152.8</ele>
        <time>2023-03-20T10:26:30Z</time>
      </trkpt>
      <trkpt lat="44.43387" lon="5.5757">
        <ele>1152.9</ele>
        <time>2023-03-20T10:26:31Z</time>
      </trkpt>
      <trkpt lat="44.43387" lon="5.57572">
        <ele>1153</ele>
        <time>2023-03-20T10:26:32Z</time>
      </trkpt>
      <trkpt lat="44.43387" lon="5.57575">
        <ele>1153.1</ele>
        <time>2023-03-20T10:26:33Z</time>
      </trkpt>
      <trkpt lat="44.43388" lon="5.57579">
        <ele>1153.3</ele>
        <time>2023-03-20T10:26:34Z</time>
      </trkpt>
      <trkpt lat="44.43388" lon="5.5758">
        <ele>1153.4</ele>
        <time>2023-03-20T10:26:35Z</time>
      </trkpt>
      <trkpt lat="44.43388" lon="5.57582">
        <ele>1153.5</ele>
        <time>2023-03-20T10:26:36Z</time>
      </trkpt>
      <trkpt lat="44.43389" lon="5.57585">
        <ele>1153.7</ele>
        <time>2023-03-20T10:26:37Z</time>
      </trkpt>
      <trkpt lat="44.4339" lon="5.57589">
        <ele>1153.9</ele>
        <time>2023-03-20T10:26:38Z</time>
      </trkpt>
      <trkpt lat="44.4339" lon="5.5759">
        <ele>1153.9</ele>
        <time>2023-03-20T10:26:39Z</time>
      </trkpt>
      <trkpt lat="44.4339" lon="5.57592">
        <ele>1154.1</ele>
        <time>2023-03-20T10:26:40Z</time>
      </trkpt>
      <trkpt lat="44.4339" lon="5.57595">
        <ele>1154.2</ele>
        <time>2023-03-20T10:26:41Z</time>
      </trkpt>
      <trkpt lat="44.4339" lon="5.57597">
        <ele>1154.3</ele>
        <time>2023-03-20T10:26:42Z</time>
      </trkpt>
      <trkpt lat="44.4339" lon="5.57599">
        <ele>1154.5</ele>
        <time>2023-03-20T10:26:43Z</time>
      </trkpt>
      <trkpt lat="44.43391" lon="5.57604">
        <ele>1154.7</ele>
        <time>2023-03-20T10:26:44Z</time>
      </trkpt>
      <trkpt lat="44.43391" lon="5.57605">
        <ele>1154.8</ele>
        <time>2023-03-20T10:26:45Z</time>
      </trkpt>
      <trkpt lat="44.43391" lon="5.57609">
        <ele>1155</ele>
        <time>2023-03-20T10:26:46Z</time>
      </trkpt>
      <trkpt lat="44.43392" lon="5.5761">
        <ele>1155</ele>
        <time>2023-03-20T10:26:47Z</time>
      </trkpt>
      <trkpt lat="44.43392" lon="5.57612">
        <ele>1155.2</ele>
        <time>2023-03-20T10:26:48Z</time>
      </trkpt>
      <trkpt lat="44.43392" lon="5.57615">
        <ele>1155.3</ele>
        <time>2023-03-20T10:26:49Z</time>
      </trkpt>
      <trkpt lat="44.43392" lon="5.57617">
        <ele>1155.4</ele>
        <time>2023-03-20T10:26:50Z</time>
      </trkpt>
      <trkpt lat="44.43393" lon="5.57619">
        <ele>1155.6</ele>
        <time>2023-03-20T10:26:51Z</time>
      </trkpt>
      <trkpt lat="44.43393" lon="5.57622">
        <ele>1155.7</ele>
        <time>2023-03-20T10:26:52Z</time>
      </trkpt>
      <trkpt lat="44.43393" lon="5.57624">
        <ele>1155.8</ele>
        <time>2023-03-20T10:26:53Z</time>
      </trkpt>
      <trkpt lat="44.43394" lon="5.57626">
        <ele>1155.9</ele>
        <time>2023-03-20T10:26:54Z</time>
      </trkpt>
      <trkpt lat="44.43394" lon="5.57628">
        <ele>1156</ele>
        <time>2023-03-20T10:26:55Z</time>
      </trkpt>
      <trkpt lat="44.43394" lon="5.5763">
        <ele>1156.2</ele>
        <time>2023-03-20T10:26:56Z</time>
      </trkpt>
      <trkpt lat="44.43395" lon="5.57633">
        <ele>1156.3</ele>
        <time>2023-03-20T10:26:57Z</time>
      </trkpt>
      <trkpt lat="44.43395" lon="5.57635">
        <ele>1156.4</ele>
        <time>2023-03-20T10:26:58Z</time>
      </trkpt>
      <trkpt lat="44.43395" lon="5.57637">
        <ele>1156.5</ele>
        <time>2023-03-20T10:26:59Z</time>
      </trkpt>
      <trkpt lat="44.43396" lon="5.57639">
        <ele>1156.6</ele>
        <time>2023-03-20T10:27:00Z</time>
      </trkpt>
      <trkpt lat="44.43396" lon="5.57642">
        <ele>1156.8</ele>
        <time>2023-03-20T10:27:01Z</time>
      </trkpt>
      <trkpt lat="44.43395" lon="5.57646">
        <ele>1157</ele>
        <time>2023-03-20T10:27:02Z</time>
      </trkpt>
      <trkpt lat="44.43395" lon="5.57648">
        <ele>1157.1</ele>
        <time>2023-03-20T10:27:03Z</time>
      </trkpt>
      <trkpt lat="44.43395" lon="5.57652">
        <ele>1157.3</ele>
        <time>2023-03-20T10:27:04Z</time>
      </trkpt>
      <trkpt lat="44.43395" lon="5.57654">
        <ele>1157.4</ele>
        <time>2023-03-20T10:27:05Z</time>
      </trkpt>
      <trkpt lat="44.43395" lon="5.57658">
        <ele>1157.7</ele>
        <time>2023-03-20T10:27:06Z</time>
      </trkpt>
      <trkpt lat="44.43395" lon="5.5766">
        <ele>1157.8</ele>
        <time>2023-03-20T10:27:07Z</time>
      </trkpt>
      <trkpt lat="44.43394" lon="5.57665">
        <ele>1158</ele>
        <time>2023-03-20T10:27:08Z</time>
      </trkpt>
      <trkpt lat="44.43394" lon="5.57666">
        <ele>1158.1</ele>
        <time>2023-03-20T10:27:09Z</time>
      </trkpt>
      <trkpt lat="44.43394" lon="5.5767">
        <ele>1158.3</ele>
        <time>2023-03-20T10:27:10Z</time>
      </trkpt>
      <trkpt lat="44.43393" lon="5.57672">
        <ele>1158.4</ele>
        <time>2023-03-20T10:27:11Z</time>
      </trkpt>
      <trkpt lat="44.43393" lon="5.57676">
        <ele>1158.6</ele>
        <time>2023-03-20T10:27:12Z</time>
      </trkpt>
      <trkpt lat="44.43393" lon="5.57677">
        <ele>1158.7</ele>
        <time>2023-03-20T10:27:13Z</time>
      </trkpt>
      <trkpt lat="44.43393" lon="5.57682">
        <ele>1158.9</ele>
        <time>2023-03-20T10:27:14Z</time>
      </trkpt>
      <trkpt lat="44.43393" lon="5.57683">
        <ele>1159</ele>
        <time>2023-03-20T10:27:15Z</time>
      </trkpt>
      <trkpt lat="44.43392" lon="5.57688">
        <ele>1159.3</ele>
        <time>2023-03-20T10:27:16Z</time>
      </trkpt>
      <trkpt lat="44.43391" lon="5.5769">
        <ele>1159.3</ele>
        <time>2023-03-20T10:27:17Z</time>
      </trkpt>
      <trkpt lat="44.4339" lon="5.57694">
        <ele>1159.6</ele>
        <time>2023-03-20T10:27:18Z</time>
      </trkpt>
      <trkpt lat="44.43389" lon="5.57695">
        <ele>1159.7</ele>
        <time>2023-03-20T10:27:19Z</time>
      </trkpt>
      <trkpt lat="44.43389" lon="5.57699">
        <ele>1159.9</ele>
        <time>2023-03-20T10:27:20Z</time>
      </trkpt>
      <trkpt lat="44.43388" lon="5.577">
        <ele>1160</ele>
        <time>2023-03-20T10:27:21Z</time>
      </trkpt>
      <trkpt lat="44.43388" lon="5.57704">
        <ele>1160.2</ele>
        <time>2023-03-20T10:27:22Z</time>
      </trkpt>
      <trkpt lat="44.43388" lon="5.57706">
        <ele>1160.3</ele>
        <time>2023-03-20T10:27:23Z</time>
      </trkpt>
      <trkpt lat="44.43387" lon="5.57708">
        <ele>1160.4</ele>
        <time>2023-03-20T10:27:24Z</time>
      </trkpt>
      <trkpt lat="44.43387" lon="5.57709">
        <ele>1160.5</ele>
        <time>2023-03-20T10:27:25Z</time>
      </trkpt>
      <trkpt lat="44.43386" lon="5.57713">
        <ele>1160.7</ele>
        <time>2023-03-20T10:27:26Z</time>
      </trkpt>
      <trkpt lat="44.43386" lon="5.57715">
        <ele>1160.8</ele>
        <time>2023-03-20T10:27:27Z</time>
      </trkpt>
      <trkpt lat="44.43385" lon="5.57719">
        <ele>1161</ele>
        <time>2023-03-20T10:27:28Z</time>
      </trkpt>
      <trkpt lat="44.43384" lon="5.57721">
        <ele>1161.1</ele>
        <time>2023-03-20T10:27:29Z</time>
      </trkpt>
      <trkpt lat="44.43383" lon="5.57726">
        <ele>1161.4</ele>
        <time>2023-03-20T10:27:30Z</time>
      </trkpt>
      <trkpt lat="44.43383" lon="5.57728">
        <ele>1161.5</ele>
        <time>2023-03-20T10:27:31Z</time>
      </trkpt>
      <trkpt lat="44.43382" lon="5.57732">
        <ele>1161.7</ele>
        <time>2023-03-20T10:27:32Z</time>
      </trkpt>
      <trkpt lat="44.43382" lon="5.57733">
        <ele>1161.8</ele>
        <time>2023-03-20T10:27:33Z</time>
      </trkpt>
      <trkpt lat="44.43381" lon="5.57738">
        <ele>1162</ele>
        <time>2023-03-20T10:27:34Z</time>
      </trkpt>
      <trkpt lat="44.43381" lon="5.57739">
        <ele>1162.1</ele>
        <time>2023-03-20T10:27:35Z</time>
      </trkpt>
      <trkpt lat="44.4338" lon="5.57744">
        <ele>1162.4</ele>
        <time>2023-03-20T10:27:36Z</time>
      </trkpt>
      <trkpt lat="44.4338" lon="5.57745">
        <ele>1162.5</ele>
        <time>2023-03-20T10:27:37Z</time>
      </trkpt>
      <trkpt lat="44.4338" lon="5.57749">
        <ele>1162.7</ele>
        <time>2023-03-20T10:27:38Z</time>
      </trkpt>
      <trkpt lat="44.4338" lon="5.57751">
        <ele>1162.7</ele>
        <time>2023-03-20T10:27:39Z</time>
      </trkpt>
      <trkpt lat="44.4338" lon="5.57755">
        <ele>1163</ele>
        <time>2023-03-20T10:27:40Z</time>
      </trkpt>
      <trkpt lat="44.43381" lon="5.57757">
        <ele>1163.1</ele>
        <time>2023-03-20T10:27:41Z</time>
      </trkpt>
      <trkpt lat="44.43381" lon="5.57761">
        <ele>1163.3</ele>
        <time>2023-03-20T10:27:42Z</time>
      </trkpt>
      <trkpt lat="44.43381" lon="5.57762">
        <ele>1163.4</ele>
        <time>2023-03-20T10:27:43Z</time>
      </trkpt>
      <trkpt lat="44.43381" lon="5.57766">
        <ele>1163.6</ele>
        <time>2023-03-20T10:27:44Z</time>
      </trkpt>
      <trkpt lat="44.43381" lon="5.57768">
        <ele>1163.6</ele>
        <time>2023-03-20T10:27:45Z</time>
      </trkpt>
      <trkpt lat="44.43381" lon="5.57771">
        <ele>1163.9</ele>
        <time>2023-03-20T10:27:46Z</time>
      </trkpt>
      <trkpt lat="44.43381" lon="5.57773">
        <ele>1163.9</ele>
        <time>2023-03-20T10:27:47Z</time>
      </trkpt>
      <trkpt lat="44.43382" lon="5.57777">
        <ele>1164.2</ele>
        <time>2023-03-20T10:27:48Z</time>
      </trkpt>
      <trkpt lat="44.43382" lon="5.57778">
        <ele>1164.2</ele>
        <time>2023-03-20T10:27:49Z</time>
      </trkpt>
      <trkpt lat="44.43382" lon="5.57783">
        <ele>1164.5</ele>
        <time>2023-03-20T10:27:50Z</time>
      </trkpt>
      <trkpt lat="44.43382" lon="5.57784">
        <ele>1164.5</ele>
        <time>2023-03-20T10:27:51Z</time>
      </trkpt>
      <trkpt lat="44.43382" lon="5.57786">
        <ele>1164.7</ele>
        <time>2023-03-20T10:27:52Z</time>
      </trkpt>
      <trkpt lat="44.43381" lon="5.57789">
        <ele>1164.8</ele>
        <time>2023-03-20T10:27:53Z</time>
      </trkpt>
      <trkpt lat="44.43381" lon="5.57791">
        <ele>1164.9</ele>
        <time>2023-03-20T10:27:54Z</time>
      </trkpt>
      <trkpt lat="44.43381" lon="5.57793">
        <ele>1165</ele>
        <time>2023-03-20T10:27:55Z</time>
      </trkpt>
      <trkpt lat="44.4338" lon="5.57795">
        <ele>1165.1</ele>
        <time>2023-03-20T10:27:56Z</time>
      </trkpt>
      <trkpt lat="44.4338" lon="5.57797">
        <ele>1165.3</ele>
        <time>2023-03-20T10:27:57Z</time>
      </trkpt>
      <trkpt lat="44.4338" lon="5.578">
        <ele>1165.4</ele>
        <time>2023-03-20T10:27:58Z</time>
      </trkpt>
      <trkpt lat="44.4338" lon="5.57802">
        <ele>1165.5</ele>
        <time>2023-03-20T10:27:59Z</time>
      </trkpt>
      <trkpt lat="44.4338" lon="5.57804">
        <ele>1165.6</ele>
        <time>2023-03-20T10:28:00Z</time>
      </trkpt>
      <trkpt lat="44.4338" lon="5.57806">
        <ele>1165.7</ele>
        <time>2023-03-20T10:28:01Z</time>
      </trkpt>
      <trkpt lat="44.4338" lon="5.57808">
        <ele>1165.8</ele>
        <time>2023-03-20T10:28:02Z</time>
      </trkpt>
      <trkpt lat="44.43381" lon="5.57811">
        <ele>1166</ele>
        <time>2023-03-20T10:28:03Z</time>
      </trkpt>
      <trkpt lat="44.43381" lon="5.57814">
        <ele>1166.2</ele>
        <time>2023-03-20T10:28:04Z</time>
      </trkpt>
      <trkpt lat="44.43382" lon="5.57816">
        <ele>1166.2</ele>
        <time>2023-03-20T10:28:05Z</time>
      </trkpt>
      <trkpt lat="44.43381" lon="5.5782">
        <ele>1166.5</ele>
        <time>2023-03-20T10:28:06Z</time>
      </trkpt>
      <trkpt lat="44.43381" lon="5.57821">
        <ele>1166.5</ele>
        <time>2023-03-20T10:28:07Z</time>
      </trkpt>
      <trkpt lat="44.43382" lon="5.57823">
        <ele>1166.7</ele>
        <time>2023-03-20T10:28:08Z</time>
      </trkpt>
      <trkpt lat="44.43382" lon="5.57825">
        <ele>1166.8</ele>
        <time>2023-03-20T10:28:09Z</time>
      </trkpt>
      <trkpt lat="44.43382" lon="5.57828">
        <ele>1166.9</ele>
        <time>2023-03-20T10:28:10Z</time>
      </trkpt>
      <trkpt lat="44.43382" lon="5.5783">
        <ele>1167</ele>
        <time>2023-03-20T10:28:11Z</time>
      </trkpt>
      <trkpt lat="44.43382" lon="5.57833">
        <ele>1167.2</ele>
        <time>2023-03-20T10:28:12Z</time>
      </trkpt>
      <trkpt lat="44.43382" lon="5.57835">
        <ele>1167.3</ele>
        <time>2023-03-20T10:28:13Z</time>
      </trkpt>
      <trkpt lat="44.43382" lon="5.57837">
        <ele>1167.4</ele>
        <time>2023-03-20T10:28:14Z</time>
      </trkpt>
      <trkpt lat="44.43381" lon="5.57839">
        <ele>1167.5</ele>
        <time>2023-03-20T10:28:15Z</time>
      </trkpt>
      <trkpt lat="44.43381" lon="5.57842">
        <ele>1167.6</ele>
        <time>2023-03-20T10:28:16Z</time>
      </trkpt>
      <trkpt lat="44.43381" lon="5.57844">
        <ele>1167.8</ele>
        <time>2023-03-20T10:28:17Z</time>
      </trkpt>
      <trkpt lat="44.43381" lon="5.57846">
        <ele>1167.9</ele>
        <time>2023-03-20T10:28:18Z</time>
      </trkpt>
      <trkpt lat="44.43381" lon="5.57848">
        <ele>1168</ele>
        <time>2023-03-20T10:28:19Z</time>
      </trkpt>
      <trkpt lat="44.4338" lon="5.5785">
        <ele>1168.1</ele>
        <time>2023-03-20T10:28:20Z</time>
      </trkpt>
      <trkpt lat="44.43379" lon="5.57852">
        <ele>1168.2</ele>
        <time>2023-03-20T10:28:21Z</time>
      </trkpt>
      <trkpt lat="44.43379" lon="5.57854">
        <ele>1168.4</ele>
        <time>2023-03-20T10:28:22Z</time>
      </trkpt>
      <trkpt lat="44.43378" lon="5.57856">
        <ele>1168.5</ele>
        <time>2023-03-20T10:28:23Z</time>
      </trkpt>
      <trkpt lat="44.43378" lon="5.57858">
        <ele>1168.6</ele>
        <time>2023-03-20T10:28:24Z</time>
      </trkpt>
      <trkpt lat="44.43378" lon="5.57861">
        <ele>1168.7</ele>
        <time>2023-03-20T10:28:25Z</time>
      </trkpt>
      <trkpt lat="44.43378" lon="5.57863">
        <ele>1168.8</ele>
        <time>2023-03-20T10:28:26Z</time>
      </trkpt>
      <trkpt lat="44.43378" lon="5.57866">
        <ele>1169</ele>
        <time>2023-03-20T10:28:27Z</time>
      </trkpt>
      <trkpt lat="44.43379" lon="5.57868">
        <ele>1169.1</ele>
        <time>2023-03-20T10:28:28Z</time>
      </trkpt>
      <trkpt lat="44.43379" lon="5.5787">
        <ele>1169.2</ele>
        <time>2023-03-20T10:28:29Z</time>
      </trkpt>
      <trkpt lat="44.43379" lon="5.57872">
        <ele>1169.4</ele>
        <time>2023-03-20T10:28:30Z</time>
      </trkpt>
      <trkpt lat="44.4338" lon="5.57875">
        <ele>1169.5</ele>
        <time>2023-03-20T10:28:31Z</time>
      </trkpt>
      <trkpt lat="44.4338" lon="5.57877">
        <ele>1169.6</ele>
        <time>2023-03-20T10:28:32Z</time>
      </trkpt>
      <trkpt lat="44.4338" lon="5.57879">
        <ele>1169.7</ele>
        <time>2023-03-20T10:28:33Z</time>
      </trkpt>
      <trkpt lat="44.4338" lon="5.57882">
        <ele>1169.9</ele>
        <time>2023-03-20T10:28:34Z</time>
      </trkpt>
      <trkpt lat="44.4338" lon="5.57884">
        <ele>1170</ele>
        <time>2023-03-20T10:28:35Z</time>
      </trkpt>
      <trkpt lat="44.4338" lon="5.57886">
        <ele>1170.1</ele>
        <time>2023-03-20T10:28:36Z</time>
      </trkpt>
      <trkpt lat="44.4338" lon="5.57888">
        <ele>1170.2</ele>
        <time>2023-03-20T10:28:37Z</time>
      </trkpt>
      <trkpt lat="44.43381" lon="5.5789">
        <ele>1170.3</ele>
        <time>2023-03-20T10:28:38Z</time>
      </trkpt>
      <trkpt lat="44.43382" lon="5.57892">
        <ele>1170.4</ele>
        <time>2023-03-20T10:28:39Z</time>
      </trkpt>
      <trkpt lat="44.43383" lon="5.57893">
        <ele>1170.5</ele>
        <time>2023-03-20T10:28:40Z</time>
      </trkpt>
      <trkpt lat="44.43383" lon="5.57895">
        <ele>1170.6</ele>
        <time>2023-03-20T10:28:41Z</time>
      </trkpt>
      <trkpt lat="44.43384" lon="5.57897">
        <ele>1170.8</ele>
        <time>2023-03-20T10:28:42Z</time>
      </trkpt>
      <trkpt lat="44.43385" lon="5.57899">
        <ele>1170.9</ele>
        <time>2023-03-20T10:28:43Z</time>
      </trkpt>
      <trkpt lat="44.43386" lon="5.579">
        <ele>1171</ele>
        <time>2023-03-20T10:28:44Z</time>
      </trkpt>
      <trkpt lat="44.43387" lon="5.57902">
        <ele>1171.1</ele>
        <time>2023-03-20T10:28:45Z</time>
      </trkpt>
      <trkpt lat="44.43388" lon="5.57904">
        <ele>1171.2</ele>
        <time>2023-03-20T10:28:46Z</time>
      </trkpt>
      <trkpt lat="44.43389" lon="5.57905">
        <ele>1171.4</ele>
        <time>2023-03-20T10:28:47Z</time>
      </trkpt>
      <trkpt lat="44.43391" lon="5.57906">
        <ele>1171.5</ele>
        <time>2023-03-20T10:28:48Z</time>
      </trkpt>
      <trkpt lat="44.43392" lon="5.57908">
        <ele>1171.6</ele>
        <time>2023-03-20T10:28:49Z</time>
      </trkpt>
      <trkpt lat="44.43393" lon="5.57909">
        <ele>1171.7</ele>
        <time>2023-03-20T10:28:50Z</time>
      </trkpt>
      <trkpt lat="44.43394" lon="5.57911">
        <ele>1171.8</ele>
        <time>2023-03-20T10:28:51Z</time>
      </trkpt>
      <trkpt lat="44.43395" lon="5.57912">
        <ele>1171.9</ele>
        <time>2023-03-20T10:28:52Z</time>
      </trkpt>
      <trkpt lat="44.43396" lon="5.57914">
        <ele>1172</ele>
        <time>2023-03-20T10:28:53Z</time>
      </trkpt>
      <trkpt lat="44.43397" lon="5.57915">
        <ele>1172.1</ele>
        <time>2023-03-20T10:28:54Z</time>
      </trkpt>
      <trkpt lat="44.43399" lon="5.57916">
        <ele>1172.3</ele>
        <time>2023-03-20T10:28:55Z</time>
      </trkpt>
      <trkpt lat="44.434" lon="5.57917">
        <ele>1172.4</ele>
        <time>2023-03-20T10:28:56Z</time>
      </trkpt>
      <trkpt lat="44.43402" lon="5.57918">
        <ele>1172.5</ele>
        <time>2023-03-20T10:28:57Z</time>
      </trkpt>
      <trkpt lat="44.43404" lon="5.57919">
        <ele>1172.7</ele>
        <time>2023-03-20T10:28:58Z</time>
      </trkpt>
      <trkpt lat="44.43405" lon="5.57919">
        <ele>1172.8</ele>
        <time>2023-03-20T10:28:59Z</time>
      </trkpt>
      <trkpt lat="44.43407" lon="5.5792">
        <ele>1172.9</ele>
        <time>2023-03-20T10:29:00Z</time>
      </trkpt>
      <trkpt lat="44.43408" lon="5.5792">
        <ele>1173</ele>
        <time>2023-03-20T10:29:01Z</time>
      </trkpt>
      <trkpt lat="44.43409" lon="5.57919">
        <ele>1173.1</ele>
        <time>2023-03-20T10:29:02Z</time>
      </trkpt>
      <trkpt lat="44.43411" lon="5.57919">
        <ele>1173.2</ele>
        <time>2023-03-20T10:29:03Z</time>
      </trkpt>
      <trkpt lat="44.43414" lon="5.57919">
        <ele>1173.5</ele>
        <time>2023-03-20T10:29:04Z</time>
      </trkpt>
      <trkpt lat="44.43415" lon="5.57919">
        <ele>1173.5</ele>
        <time>2023-03-20T10:29:05Z</time>
      </trkpt>
      <trkpt lat="44.43418" lon="5.57919">
        <ele>1173.8</ele>
        <time>2023-03-20T10:29:06Z</time>
      </trkpt>
      <trkpt lat="44.43419" lon="5.57919">
        <ele>1173.8</ele>
        <time>2023-03-20T10:29:07Z</time>
      </trkpt>
      <trkpt lat="44.43423" lon="5.57918">
        <ele>1174.1</ele>
        <time>2023-03-20T10:29:08Z</time>
      </trkpt>
      <trkpt lat="44.43424" lon="5.57918">
        <ele>1174.2</ele>
        <time>2023-03-20T10:29:09Z</time>
      </trkpt>
      <trkpt lat="44.43427" lon="5.57917">
        <ele>1174.4</ele>
        <time>2023-03-20T10:29:10Z</time>
      </trkpt>
      <trkpt lat="44.43431" lon="5.57917">
        <ele>1174.7</ele>
        <time>2023-03-20T10:29:11Z</time>
      </trkpt>
      <trkpt lat="44.43435" lon="5.57919">
        <ele>1175</ele>
        <time>2023-03-20T10:29:12Z</time>
      </trkpt>
      <trkpt lat="44.43438" lon="5.57922">
        <ele>1175.3</ele>
        <time>2023-03-20T10:29:13Z</time>
      </trkpt>
      <trkpt lat="44.43441" lon="5.57928">
        <ele>1175.7</ele>
        <time>2023-03-20T10:29:14Z</time>
      </trkpt>
      <trkpt lat="44.43443" lon="5.57936">
        <ele>1176.2</ele>
        <time>2023-03-20T10:29:15Z</time>
      </trkpt>
      <trkpt lat="44.43442" lon="5.57945">
        <ele>1176.7</ele>
        <time>2023-03-20T10:29:16Z</time>
      </trkpt>
      <trkpt lat="44.43438" lon="5.57953">
        <ele>1177.2</ele>
        <time>2023-03-20T10:29:17Z</time>
      </trkpt>
      <trkpt lat="44.43433" lon="5.57962">
        <ele>1177.7</ele>
        <time>2023-03-20T10:29:18Z</time>
      </trkpt>
      <trkpt lat="44.43428" lon="5.5797">
        <ele>1178.3</ele>
        <time>2023-03-20T10:29:19Z</time>
      </trkpt>
      <trkpt lat="44.43422" lon="5.57979">
        <ele>1179</ele>
        <time>2023-03-20T10:29:20Z</time>
      </trkpt>
      <trkpt lat="44.43416" lon="5.5799">
        <ele>1179.7</ele>
        <time>2023-03-20T10:29:21Z</time>
      </trkpt>
      <trkpt lat="44.43409" lon="5.58001">
        <ele>1180.5</ele>
        <time>2023-03-20T10:29:22Z</time>
      </trkpt>
      <trkpt lat="44.43403" lon="5.58012">
        <ele>1181.2</ele>
        <time>2023-03-20T10:29:23Z</time>
      </trkpt>
      <trkpt lat="44.43397" lon="5.58022">
        <ele>1181.9</ele>
        <time>2023-03-20T10:29:24Z</time>
      </trkpt>
      <trkpt lat="44.43391" lon="5.58032">
        <ele>1182.7</ele>
        <time>2023-03-20T10:29:25Z</time>
      </trkpt>
      <trkpt lat="44.43384" lon="5.58041">
        <ele>1183.4</ele>
        <time>2023-03-20T10:29:26Z</time>
      </trkpt>
      <trkpt lat="44.43377" lon="5.5805">
        <ele>1184</ele>
        <time>2023-03-20T10:29:27Z</time>
      </trkpt>
      <trkpt lat="44.43371" lon="5.58057">
        <ele>1184.7</ele>
        <time>2023-03-20T10:29:28Z</time>
      </trkpt>
      <trkpt lat="44.43365" lon="5.58063">
        <ele>1185.2</ele>
        <time>2023-03-20T10:29:29Z</time>
      </trkpt>
      <trkpt lat="44.43361" lon="5.58068">
        <ele>1185.6</ele>
        <time>2023-03-20T10:29:30Z</time>
      </trkpt>
      <trkpt lat="44.43357" lon="5.58073">
        <ele>1186</ele>
        <time>2023-03-20T10:29:31Z</time>
      </trkpt>
      <trkpt lat="44.43357" lon="5.5808">
        <ele>1186.4</ele>
        <time>2023-03-20T10:29:32Z</time>
      </trkpt>
      <trkpt lat="44.43359" lon="5.58088">
        <ele>1187</ele>
        <time>2023-03-20T10:29:33Z</time>
      </trkpt>
      <trkpt lat="44.43364" lon="5.58094">
        <ele>1187</ele>
        <time>2023-03-20T10:29:34Z</time>
      </trkpt>
      <trkpt lat="44.43368" lon="5.58098">
        <ele>1186.9</ele>
        <time>2023-03-20T10:29:35Z</time>
      </trkpt>
      <trkpt lat="44.4337" lon="5.58101">
        <ele>1186.9</ele>
        <time>2023-03-20T10:29:36Z</time>
      </trkpt>
      <trkpt lat="44.43373" lon="5.58103">
        <ele>1186.9</ele>
        <time>2023-03-20T10:29:37Z</time>
      </trkpt>
      <trkpt lat="44.43374" lon="5.58103">
        <ele>1186.9</ele>
        <time>2023-03-20T10:29:38Z</time>
      </trkpt>
      <trkpt lat="44.43375" lon="5.58103">
        <ele>1186.9</ele>
        <time>2023-03-20T10:29:39Z</time>
      </trkpt>
      <trkpt lat="44.43377" lon="5.58103">
        <ele>1186.9</ele>
        <time>2023-03-20T10:29:40Z</time>
      </trkpt>
      <trkpt lat="44.43378" lon="5.58103">
        <ele>1186.9</ele>
        <time>2023-03-20T10:29:41Z</time>
      </trkpt>
      <trkpt lat="44.4338" lon="5.58104">
        <ele>1186.9</ele>
        <time>2023-03-20T10:29:42Z</time>
      </trkpt>
      <trkpt lat="44.43383" lon="5.58106">
        <ele>1186.9</ele>
        <time>2023-03-20T10:29:43Z</time>
      </trkpt>
      <trkpt lat="44.43384" lon="5.58107">
        <ele>1186.9</ele>
        <time>2023-03-20T10:29:44Z</time>
      </trkpt>
      <trkpt lat="44.43387" lon="5.58109">
        <ele>1187</ele>
        <time>2023-03-20T10:29:45Z</time>
      </trkpt>
      <trkpt lat="44.43388" lon="5.5811">
        <ele>1187</ele>
        <time>2023-03-20T10:29:46Z</time>
      </trkpt>
      <trkpt lat="44.4339" lon="5.58113">
        <ele>1187</ele>
        <time>2023-03-20T10:29:47Z</time>
      </trkpt>
      <trkpt lat="44.43391" lon="5.58115">
        <ele>1187</ele>
        <time>2023-03-20T10:29:48Z</time>
      </trkpt>
      <trkpt lat="44.43394" lon="5.58119">
        <ele>1187.1</ele>
        <time>2023-03-20T10:29:49Z</time>
      </trkpt>
      <trkpt lat="44.43394" lon="5.5812">
        <ele>1187.1</ele>
        <time>2023-03-20T10:29:50Z</time>
      </trkpt>
      <trkpt lat="44.43396" lon="5.58124">
        <ele>1187.2</ele>
        <time>2023-03-20T10:29:51Z</time>
      </trkpt>
      <trkpt lat="44.43397" lon="5.58125">
        <ele>1187.2</ele>
        <time>2023-03-20T10:29:52Z</time>
      </trkpt>
      <trkpt lat="44.43399" lon="5.58129">
        <ele>1187.3</ele>
        <time>2023-03-20T10:29:53Z</time>
      </trkpt>
      <trkpt lat="44.434" lon="5.5813">
        <ele>1187.3</ele>
        <time>2023-03-20T10:29:54Z</time>
      </trkpt>
      <trkpt lat="44.43402" lon="5.58135">
        <ele>1187.4</ele>
        <time>2023-03-20T10:29:55Z</time>
      </trkpt>
      <trkpt lat="44.43402" lon="5.58136">
        <ele>1187.4</ele>
        <time>2023-03-20T10:29:56Z</time>
      </trkpt>
      <trkpt lat="44.43404" lon="5.5814">
        <ele>1187.4</ele>
        <time>2023-03-20T10:29:57Z</time>
      </trkpt>
      <trkpt lat="44.43404" lon="5.58142">
        <ele>1187.4</ele>
        <time>2023-03-20T10:29:58Z</time>
      </trkpt>
      <trkpt lat="44.43406" lon="5.58145">
        <ele>1187.4</ele>
        <time>2023-03-20T10:29:59Z</time>
      </trkpt>
      <trkpt lat="44.43406" lon="5.58147">
        <ele>1187.4</ele>
        <time>2023-03-20T10:30:00Z</time>
      </trkpt>
      <trkpt lat="44.43408" lon="5.58151">
        <ele>1187.3</ele>
        <time>2023-03-20T10:30:01Z</time>
      </trkpt>
      <trkpt lat="44.43408" lon="5.58153">
        <ele>1187.3</ele>
        <time>2023-03-20T10:30:02Z</time>
      </trkpt>
      <trkpt lat="44.43409" lon="5.58157">
        <ele>1187.3</ele>
        <time>2023-03-20T10:30:03Z</time>
      </trkpt>
      <trkpt lat="44.43409" lon="5.58159">
        <ele>1187.2</ele>
        <time>2023-03-20T10:30:04Z</time>
      </trkpt>
      <trkpt lat="44.43409" lon="5.58163">
        <ele>1187.2</ele>
        <time>2023-03-20T10:30:05Z</time>
      </trkpt>
      <trkpt lat="44.4341" lon="5.58164">
        <ele>1187.2</ele>
        <time>2023-03-20T10:30:06Z</time>
      </trkpt>
      <trkpt lat="44.4341" lon="5.58169">
        <ele>1187.1</ele>
        <time>2023-03-20T10:30:07Z</time>
      </trkpt>
      <trkpt lat="44.4341" lon="5.58171">
        <ele>1187.1</ele>
        <time>2023-03-20T10:30:08Z</time>
      </trkpt>
      <trkpt lat="44.4341" lon="5.58177">
        <ele>1187.1</ele>
        <time>2023-03-20T10:30:09Z</time>
      </trkpt>
      <trkpt lat="44.4341" lon="5.58178">
        <ele>1187.1</ele>
        <time>2023-03-20T10:30:10Z</time>
      </trkpt>
      <trkpt lat="44.43409" lon="5.58184">
        <ele>1187</ele>
        <time>2023-03-20T10:30:11Z</time>
      </trkpt>
      <trkpt lat="44.43409" lon="5.58185">
        <ele>1187</ele>
        <time>2023-03-20T10:30:12Z</time>
      </trkpt>
      <trkpt lat="44.43408" lon="5.5819">
        <ele>1186.9</ele>
        <time>2023-03-20T10:30:13Z</time>
      </trkpt>
      <trkpt lat="44.43408" lon="5.58192">
        <ele>1186.9</ele>
        <time>2023-03-20T10:30:14Z</time>
      </trkpt>
      <trkpt lat="44.43407" lon="5.58197">
        <ele>1186.8</ele>
        <time>2023-03-20T10:30:15Z</time>
      </trkpt>
      <trkpt lat="44.43407" lon="5.58199">
        <ele>1186.8</ele>
        <time>2023-03-20T10:30:16Z</time>
      </trkpt>
      <trkpt lat="44.43405" lon="5.58203">
        <ele>1186.8</ele>
        <time>2023-03-20T10:30:17Z</time>
      </trkpt>
      <trkpt lat="44.43404" lon="5.58207">
        <ele>1186.7</ele>
        <time>2023-03-20T10:30:18Z</time>
      </trkpt>
      <trkpt lat="44.43402" lon="5.58211">
        <ele>1186.6</ele>
        <time>2023-03-20T10:30:19Z</time>
      </trkpt>
      <trkpt lat="44.434" lon="5.58216">
        <ele>1186.6</ele>
        <time>2023-03-20T10:30:20Z</time>
      </trkpt>
      <trkpt lat="44.43399" lon="5.58222">
        <ele>1186.5</ele>
        <time>2023-03-20T10:30:21Z</time>
      </trkpt>
      <trkpt lat="44.43397" lon="5.58229">
        <ele>1186.5</ele>
        <time>2023-03-20T10:30:22Z</time>
      </trkpt>
      <trkpt lat="44.43395" lon="5.58235">
        <ele>1186.4</ele>
        <time>2023-03-20T10:30:23Z</time>
      </trkpt>
      <trkpt lat="44.43392" lon="5.5824">
        <ele>1186.4</ele>
        <time>2023-03-20T10:30:24Z</time>
      </trkpt>
      <trkpt lat="44.43389" lon="5.58246">
        <ele>1186.4</ele>
        <time>2023-03-20T10:30:25Z</time>
      </trkpt>
      <trkpt lat="44.43388" lon="5.5825">
        <ele>1186.3</ele>
        <time>2023-03-20T10:30:26Z</time>
      </trkpt>
      <trkpt lat="44.43386" lon="5.58256">
        <ele>1186.3</ele>
        <time>2023-03-20T10:30:27Z</time>
      </trkpt>
      <trkpt lat="44.43385" lon="5.58261">
        <ele>1186.3</ele>
        <time>2023-03-20T10:30:28Z</time>
      </trkpt>
      <trkpt lat="44.43385" lon="5.58267">
        <ele>1186.2</ele>
        <time>2023-03-20T10:30:29Z</time>
      </trkpt>
      <trkpt lat="44.43384" lon="5.58272">
        <ele>1186.1</ele>
        <time>2023-03-20T10:30:30Z</time>
      </trkpt>
      <trkpt lat="44.43383" lon="5.58277">
        <ele>1186</ele>
        <time>2023-03-20T10:30:31Z</time>
      </trkpt>
      <trkpt lat="44.43382" lon="5.58283">
        <ele>1185.9</ele>
        <time>2023-03-20T10:30:32Z</time>
      </trkpt>
      <trkpt lat="44.4338" lon="5.58287">
        <ele>1185.9</ele>
        <time>2023-03-20T10:30:33Z</time>
      </trkpt>
      <trkpt lat="44.43379" lon="5.58291">
        <ele>1185.8</ele>
        <time>2023-03-20T10:30:34Z</time>
      </trkpt>
      <trkpt lat="44.43377" lon="5.58296">
        <ele>1185.7</ele>
        <time>2023-03-20T10:30:35Z</time>
      </trkpt>
      <trkpt lat="44.43374" lon="5.58301">
        <ele>1185.5</ele>
        <time>2023-03-20T10:30:36Z</time>
      </trkpt>
      <trkpt lat="44.43372" lon="5.58306">
        <ele>1185.4</ele>
        <time>2023-03-20T10:30:37Z</time>
      </trkpt>
      <trkpt lat="44.4337" lon="5.58312">
        <ele>1185.2</ele>
        <time>2023-03-20T10:30:38Z</time>
      </trkpt>
      <trkpt lat="44.43367" lon="5.58317">
        <ele>1185.1</ele>
        <time>2023-03-20T10:30:39Z</time>
      </trkpt>
      <trkpt lat="44.43364" lon="5.58322">
        <ele>1185</ele>
        <time>2023-03-20T10:30:40Z</time>
      </trkpt>
      <trkpt lat="44.4336" lon="5.58328">
        <ele>1184.9</ele>
        <time>2023-03-20T10:30:41Z</time>
      </trkpt>
      <trkpt lat="44.43356" lon="5.58334">
        <ele>1184.8</ele>
        <time>2023-03-20T10:30:42Z</time>
      </trkpt>
      <trkpt lat="44.43351" lon="5.58339">
        <ele>1184.6</ele>
        <time>2023-03-20T10:30:43Z</time>
      </trkpt>
      <trkpt lat="44.43346" lon="5.58344">
        <ele>1184.5</ele>
        <time>2023-03-20T10:30:44Z</time>
      </trkpt>
      <trkpt lat="44.4334" lon="5.5835">
        <ele>1184.3</ele>
        <time>2023-03-20T10:30:45Z</time>
      </trkpt>
      <trkpt lat="44.43334" lon="5.58355">
        <ele>1184.2</ele>
        <time>2023-03-20T10:30:46Z</time>
      </trkpt>
      <trkpt lat="44.43327" lon="5.5836">
        <ele>1184</ele>
        <time>2023-03-20T10:30:47Z</time>
      </trkpt>
      <trkpt lat="44.43319" lon="5.58364">
        <ele>1183.9</ele>
        <time>2023-03-20T10:30:48Z</time>
      </trkpt>
      <trkpt lat="44.43312" lon="5.58367">
        <ele>1183.9</ele>
        <time>2023-03-20T10:30:49Z</time>
      </trkpt>
      <trkpt lat="44.43305" lon="5.58368">
        <ele>1183.7</ele>
        <time>2023-03-20T10:30:50Z</time>
      </trkpt>
      <trkpt lat="44.43298" lon="5.58371">
        <ele>1183.6</ele>
        <time>2023-03-20T10:30:51Z</time>
      </trkpt>
      <trkpt lat="44.43294" lon="5.58374">
        <ele>1183.5</ele>
        <time>2023-03-20T10:30:52Z</time>
      </trkpt>
      <trkpt lat="44.43289" lon="5.58378">
        <ele>1183.3</ele>
        <time>2023-03-20T10:30:53Z</time>
      </trkpt>
      <trkpt lat="44.43284" lon="5.58382">
        <ele>1183</ele>
        <time>2023-03-20T10:30:54Z</time>
      </trkpt>
      <trkpt lat="44.43278" lon="5.58386">
        <ele>1182.8</ele>
        <time>2023-03-20T10:30:55Z</time>
      </trkpt>
      <trkpt lat="44.43273" lon="5.5839">
        <ele>1182.5</ele>
        <time>2023-03-20T10:30:56Z</time>
      </trkpt>
      <trkpt lat="44.43267" lon="5.58395">
        <ele>1182.2</ele>
        <time>2023-03-20T10:30:57Z</time>
      </trkpt>
      <trkpt lat="44.43261" lon="5.584">
        <ele>1182</ele>
        <time>2023-03-20T10:30:58Z</time>
      </trkpt>
      <trkpt lat="44.43255" lon="5.58406">
        <ele>1181.7</ele>
        <time>2023-03-20T10:30:59Z</time>
      </trkpt>
      <trkpt lat="44.43251" lon="5.58413">
        <ele>1181.5</ele>
        <time>2023-03-20T10:31:00Z</time>
      </trkpt>
      <trkpt lat="44.43246" lon="5.58421">
        <ele>1181.4</ele>
        <time>2023-03-20T10:31:01Z</time>
      </trkpt>
      <trkpt lat="44.43242" lon="5.58431">
        <ele>1181.6</ele>
        <time>2023-03-20T10:31:02Z</time>
      </trkpt>
      <trkpt lat="44.43238" lon="5.58442">
        <ele>1182.1</ele>
        <time>2023-03-20T10:31:03Z</time>
      </trkpt>
      <trkpt lat="44.43234" lon="5.58455">
        <ele>1182.9</ele>
        <time>2023-03-20T10:31:04Z</time>
      </trkpt>
      <trkpt lat="44.4323" lon="5.58467">
        <ele>1184.5</ele>
        <time>2023-03-20T10:31:05Z</time>
      </trkpt>
      <trkpt lat="44.43225" lon="5.58479">
        <ele>1186</ele>
        <time>2023-03-20T10:31:06Z</time>
      </trkpt>
      <trkpt lat="44.43222" lon="5.5849">
        <ele>1186.5</ele>
        <time>2023-03-20T10:31:07Z</time>
      </trkpt>
      <trkpt lat="44.43222" lon="5.585">
        <ele>1186.7</ele>
        <time>2023-03-20T10:31:08Z</time>
      </trkpt>
      <trkpt lat="44.43224" lon="5.58509">
        <ele>1186.8</ele>
        <time>2023-03-20T10:31:09Z</time>
      </trkpt>
      <trkpt lat="44.43227" lon="5.58515">
        <ele>1186.9</ele>
        <time>2023-03-20T10:31:10Z</time>
      </trkpt>
      <trkpt lat="44.43228" lon="5.58521">
        <ele>1187.1</ele>
        <time>2023-03-20T10:31:11Z</time>
      </trkpt>
      <trkpt lat="44.4323" lon="5.58527">
        <ele>1187.3</ele>
        <time>2023-03-20T10:31:12Z</time>
      </trkpt>
      <trkpt lat="44.43231" lon="5.58532">
        <ele>1187.5</ele>
        <time>2023-03-20T10:31:13Z</time>
      </trkpt>
      <trkpt lat="44.43231" lon="5.58538">
        <ele>1187.7</ele>
        <time>2023-03-20T10:31:14Z</time>
      </trkpt>
      <trkpt lat="44.43231" lon="5.58542">
        <ele>1187.8</ele>
        <time>2023-03-20T10:31:15Z</time>
      </trkpt>
      <trkpt lat="44.43231" lon="5.58547">
        <ele>1188</ele>
        <time>2023-03-20T10:31:16Z</time>
      </trkpt>
      <trkpt lat="44.4323" lon="5.5855">
        <ele>1188.1</ele>
        <time>2023-03-20T10:31:17Z</time>
      </trkpt>
      <trkpt lat="44.4323" lon="5.58554">
        <ele>1188.2</ele>
        <time>2023-03-20T10:31:18Z</time>
      </trkpt>
      <trkpt lat="44.4323" lon="5.58559">
        <ele>1188.4</ele>
        <time>2023-03-20T10:31:19Z</time>
      </trkpt>
      <trkpt lat="44.43229" lon="5.58561">
        <ele>1188.5</ele>
        <time>2023-03-20T10:31:20Z</time>
      </trkpt>
      <trkpt lat="44.43229" lon="5.58565">
        <ele>1188.6</ele>
        <time>2023-03-20T10:31:21Z</time>
      </trkpt>
      <trkpt lat="44.43229" lon="5.58569">
        <ele>1188.7</ele>
        <time>2023-03-20T10:31:22Z</time>
      </trkpt>
      <trkpt lat="44.43228" lon="5.58574">
        <ele>1189</ele>
        <time>2023-03-20T10:31:23Z</time>
      </trkpt>
      <trkpt lat="44.43228" lon="5.58576">
        <ele>1189</ele>
        <time>2023-03-20T10:31:24Z</time>
      </trkpt>
      <trkpt lat="44.43229" lon="5.5858">
        <ele>1189.2</ele>
        <time>2023-03-20T10:31:25Z</time>
      </trkpt>
      <trkpt lat="44.4323" lon="5.58585">
        <ele>1189.4</ele>
        <time>2023-03-20T10:31:26Z</time>
      </trkpt>
      <trkpt lat="44.43231" lon="5.58589">
        <ele>1189.6</ele>
        <time>2023-03-20T10:31:27Z</time>
      </trkpt>
      <trkpt lat="44.43232" lon="5.58593">
        <ele>1189.9</ele>
        <time>2023-03-20T10:31:28Z</time>
      </trkpt>
      <trkpt lat="44.43233" lon="5.58597">
        <ele>1190.1</ele>
        <time>2023-03-20T10:31:29Z</time>
      </trkpt>
      <trkpt lat="44.43234" lon="5.58601">
        <ele>1190.3</ele>
        <time>2023-03-20T10:31:30Z</time>
      </trkpt>
      <trkpt lat="44.43235" lon="5.58604">
        <ele>1190.6</ele>
        <time>2023-03-20T10:31:31Z</time>
      </trkpt>
      <trkpt lat="44.43236" lon="5.58608">
        <ele>1190.9</ele>
        <time>2023-03-20T10:31:32Z</time>
      </trkpt>
      <trkpt lat="44.43237" lon="5.58612">
        <ele>1191.2</ele>
        <time>2023-03-20T10:31:33Z</time>
      </trkpt>
      <trkpt lat="44.43238" lon="5.58616">
        <ele>1191.5</ele>
        <time>2023-03-20T10:31:34Z</time>
      </trkpt>
      <trkpt lat="44.43238" lon="5.5862">
        <ele>1191.8</ele>
        <time>2023-03-20T10:31:35Z</time>
      </trkpt>
      <trkpt lat="44.43238" lon="5.58624">
        <ele>1192.1</ele>
        <time>2023-03-20T10:31:36Z</time>
      </trkpt>
      <trkpt lat="44.43239" lon="5.58628">
        <ele>1192.5</ele>
        <time>2023-03-20T10:31:37Z</time>
      </trkpt>
      <trkpt lat="44.43239" lon="5.58632">
        <ele>1192.8</ele>
        <time>2023-03-20T10:31:38Z</time>
      </trkpt>
      <trkpt lat="44.4324" lon="5.58636">
        <ele>1193.1</ele>
        <time>2023-03-20T10:31:39Z</time>
      </trkpt>
      <trkpt lat="44.4324" lon="5.58641">
        <ele>1193.5</ele>
        <time>2023-03-20T10:31:40Z</time>
      </trkpt>
      <trkpt lat="44.4324" lon="5.58642">
        <ele>1193.6</ele>
        <time>2023-03-20T10:31:41Z</time>
      </trkpt>
      <trkpt lat="44.43241" lon="5.58647">
        <ele>1194</ele>
        <time>2023-03-20T10:31:42Z</time>
      </trkpt>
      <trkpt lat="44.43241" lon="5.58648">
        <ele>1194.1</ele>
        <time>2023-03-20T10:31:43Z</time>
      </trkpt>
      <trkpt lat="44.43243" lon="5.58653">
        <ele>1194.9</ele>
        <time>2023-03-20T10:31:44Z</time>
      </trkpt>
      <trkpt lat="44.43243" lon="5.58654">
        <ele>1195</ele>
        <time>2023-03-20T10:31:45Z</time>
      </trkpt>
      <trkpt lat="44.43245" lon="5.58658">
        <ele>1195.4</ele>
        <time>2023-03-20T10:31:46Z</time>
      </trkpt>
      <trkpt lat="44.43245" lon="5.5866">
        <ele>1195.5</ele>
        <time>2023-03-20T10:31:47Z</time>
      </trkpt>
      <trkpt lat="44.43248" lon="5.58664">
        <ele>1195.9</ele>
        <time>2023-03-20T10:31:48Z</time>
      </trkpt>
      <trkpt lat="44.43248" lon="5.58665">
        <ele>1196</ele>
        <time>2023-03-20T10:31:49Z</time>
      </trkpt>
      <trkpt lat="44.4325" lon="5.58669">
        <ele>1196.4</ele>
        <time>2023-03-20T10:31:50Z</time>
      </trkpt>
      <trkpt lat="44.43251" lon="5.58671">
        <ele>1196.6</ele>
        <time>2023-03-20T10:31:51Z</time>
      </trkpt>
      <trkpt lat="44.43252" lon="5.58675">
        <ele>1196.9</ele>
        <time>2023-03-20T10:31:52Z</time>
      </trkpt>
      <trkpt lat="44.43253" lon="5.58676">
        <ele>1197.1</ele>
        <time>2023-03-20T10:31:53Z</time>
      </trkpt>
      <trkpt lat="44.43254" lon="5.5868">
        <ele>1197.5</ele>
        <time>2023-03-20T10:31:54Z</time>
      </trkpt>
      <trkpt lat="44.43255" lon="5.58682">
        <ele>1197.6</ele>
        <time>2023-03-20T10:31:55Z</time>
      </trkpt>
      <trkpt lat="44.43257" lon="5.58685">
        <ele>1198</ele>
        <time>2023-03-20T10:31:56Z</time>
      </trkpt>
      <trkpt lat="44.43258" lon="5.58687">
        <ele>1198.1</ele>
        <time>2023-03-20T10:31:57Z</time>
      </trkpt>
      <trkpt lat="44.4326" lon="5.5869">
        <ele>1198.5</ele>
        <time>2023-03-20T10:31:58Z</time>
      </trkpt>
      <trkpt lat="44.4326" lon="5.58692">
        <ele>1198.6</ele>
        <time>2023-03-20T10:31:59Z</time>
      </trkpt>
      <trkpt lat="44.43262" lon="5.58696">
        <ele>1199</ele>
        <time>2023-03-20T10:32:00Z</time>
      </trkpt>
      <trkpt lat="44.43263" lon="5.58697">
        <ele>1199.1</ele>
        <time>2023-03-20T10:32:01Z</time>
      </trkpt>
      <trkpt lat="44.43265" lon="5.58701">
        <ele>1199.5</ele>
        <time>2023-03-20T10:32:02Z</time>
      </trkpt>
      <trkpt lat="44.43265" lon="5.58702">
        <ele>1199.6</ele>
        <time>2023-03-20T10:32:03Z</time>
      </trkpt>
      <trkpt lat="44.43267" lon="5.58706">
        <ele>1200</ele>
        <time>2023-03-20T10:32:04Z</time>
      </trkpt>
      <trkpt lat="44.43268" lon="5.58708">
        <ele>1200.1</ele>
        <time>2023-03-20T10:32:05Z</time>
      </trkpt>
      <trkpt lat="44.4327" lon="5.58711">
        <ele>1200.5</ele>
        <time>2023-03-20T10:32:06Z</time>
      </trkpt>
      <trkpt lat="44.4327" lon="5.58712">
        <ele>1200.6</ele>
        <time>2023-03-20T10:32:07Z</time>
      </trkpt>
      <trkpt lat="44.43273" lon="5.58715">
        <ele>1201</ele>
        <time>2023-03-20T10:32:08Z</time>
      </trkpt>
      <trkpt lat="44.43274" lon="5.58715">
        <ele>1201.1</ele>
        <time>2023-03-20T10:32:09Z</time>
      </trkpt>
      <trkpt lat="44.43275" lon="5.58717">
        <ele>1201.3</ele>
        <time>2023-03-20T10:32:10Z</time>
      </trkpt>
      <trkpt lat="44.43276" lon="5.58718">
        <ele>1201.5</ele>
        <time>2023-03-20T10:32:11Z</time>
      </trkpt>
      <trkpt lat="44.43278" lon="5.58721">
        <ele>1201.7</ele>
        <time>2023-03-20T10:32:12Z</time>
      </trkpt>
      <trkpt lat="44.43278" lon="5.58722">
        <ele>1201.8</ele>
        <time>2023-03-20T10:32:13Z</time>
      </trkpt>
      <trkpt lat="44.43279" lon="5.58723">
        <ele>1201.9</ele>
        <time>2023-03-20T10:32:14Z</time>
      </trkpt>
      <trkpt lat="44.4328" lon="5.58724">
        <ele>1202.1</ele>
        <time>2023-03-20T10:32:15Z</time>
      </trkpt>
      <trkpt lat="44.43281" lon="5.58725">
        <ele>1202.2</ele>
        <time>2023-03-20T10:32:16Z</time>
      </trkpt>
      <trkpt lat="44.43282" lon="5.58726">
        <ele>1202.4</ele>
        <time>2023-03-20T10:32:17Z</time>
      </trkpt>
      <trkpt lat="44.43283" lon="5.58728">
        <ele>1202.6</ele>
        <time>2023-03-20T10:32:18Z</time>
      </trkpt>
      <trkpt lat="44.43285" lon="5.5873">
        <ele>1202.8</ele>
        <time>2023-03-20T10:32:19Z</time>
      </trkpt>
      <trkpt lat="44.43286" lon="5.58731">
        <ele>1202.9</ele>
        <time>2023-03-20T10:32:20Z</time>
      </trkpt>
      <trkpt lat="44.43287" lon="5.58733">
        <ele>1203.1</ele>
        <time>2023-03-20T10:32:21Z</time>
      </trkpt>
      <trkpt lat="44.43288" lon="5.58734">
        <ele>1203.3</ele>
        <time>2023-03-20T10:32:22Z</time>
      </trkpt>
      <trkpt lat="44.4329" lon="5.58736">
        <ele>1203.5</ele>
        <time>2023-03-20T10:32:23Z</time>
      </trkpt>
      <trkpt lat="44.43291" lon="5.58737">
        <ele>1203.7</ele>
        <time>2023-03-20T10:32:24Z</time>
      </trkpt>
      <trkpt lat="44.43292" lon="5.58738">
        <ele>1203.9</ele>
        <time>2023-03-20T10:32:25Z</time>
      </trkpt>
      <trkpt lat="44.43293" lon="5.5874">
        <ele>1204.1</ele>
        <time>2023-03-20T10:32:26Z</time>
      </trkpt>
      <trkpt lat="44.43294" lon="5.58742">
        <ele>1204.3</ele>
        <time>2023-03-20T10:32:27Z</time>
      </trkpt>
      <trkpt lat="44.43295" lon="5.58744">
        <ele>1204.4</ele>
        <time>2023-03-20T10:32:28Z</time>
      </trkpt>
      <trkpt lat="44.43296" lon="5.58745">
        <ele>1204.6</ele>
        <time>2023-03-20T10:32:29Z</time>
      </trkpt>
      <trkpt lat="44.43298" lon="5.58747">
        <ele>1204.8</ele>
        <time>2023-03-20T10:32:30Z</time>
      </trkpt>
      <trkpt lat="44.43299" lon="5.58749">
        <ele>1205</ele>
        <time>2023-03-20T10:32:31Z</time>
      </trkpt>
      <trkpt lat="44.433" lon="5.58751">
        <ele>1205.2</ele>
        <time>2023-03-20T10:32:32Z</time>
      </trkpt>
      <trkpt lat="44.43301" lon="5.58754">
        <ele>1205.5</ele>
        <time>2023-03-20T10:32:33Z</time>
      </trkpt>
      <trkpt lat="44.43302" lon="5.58755">
        <ele>1205.6</ele>
        <time>2023-03-20T10:32:34Z</time>
      </trkpt>
      <trkpt lat="44.43303" lon="5.58758">
        <ele>1206</ele>
        <time>2023-03-20T10:32:35Z</time>
      </trkpt>
      <trkpt lat="44.43304" lon="5.5876">
        <ele>1206.1</ele>
        <time>2023-03-20T10:32:36Z</time>
      </trkpt>
      <trkpt lat="44.43305" lon="5.58763">
        <ele>1206.4</ele>
        <time>2023-03-20T10:32:37Z</time>
      </trkpt>
      <trkpt lat="44.43305" lon="5.58764">
        <ele>1206.5</ele>
        <time>2023-03-20T10:32:38Z</time>
      </trkpt>
      <trkpt lat="44.43306" lon="5.58768">
        <ele>1206.8</ele>
        <time>2023-03-20T10:32:39Z</time>
      </trkpt>
      <trkpt lat="44.43307" lon="5.58769">
        <ele>1206.9</ele>
        <time>2023-03-20T10:32:40Z</time>
      </trkpt>
      <trkpt lat="44.43308" lon="5.58773">
        <ele>1207.3</ele>
        <time>2023-03-20T10:32:41Z</time>
      </trkpt>
      <trkpt lat="44.43309" lon="5.58774">
        <ele>1207.4</ele>
        <time>2023-03-20T10:32:42Z</time>
      </trkpt>
      <trkpt lat="44.4331" lon="5.58778">
        <ele>1207.7</ele>
        <time>2023-03-20T10:32:43Z</time>
      </trkpt>
      <trkpt lat="44.43311" lon="5.58779">
        <ele>1207.8</ele>
        <time>2023-03-20T10:32:44Z</time>
      </trkpt>
      <trkpt lat="44.43312" lon="5.58782">
        <ele>1208.1</ele>
        <time>2023-03-20T10:32:45Z</time>
      </trkpt>
      <trkpt lat="44.43313" lon="5.58784">
        <ele>1208.2</ele>
        <time>2023-03-20T10:32:46Z</time>
      </trkpt>
      <trkpt lat="44.43313" lon="5.58786">
        <ele>1208.4</ele>
        <time>2023-03-20T10:32:47Z</time>
      </trkpt>
      <trkpt lat="44.43314" lon="5.58788">
        <ele>1208.6</ele>
        <time>2023-03-20T10:32:48Z</time>
      </trkpt>
      <trkpt lat="44.43316" lon="5.58791">
        <ele>1209</ele>
        <time>2023-03-20T10:32:49Z</time>
      </trkpt>
      <trkpt lat="44.43317" lon="5.58792">
        <ele>1209.1</ele>
        <time>2023-03-20T10:32:50Z</time>
      </trkpt>
      <trkpt lat="44.43318" lon="5.58796">
        <ele>1209.4</ele>
        <time>2023-03-20T10:32:51Z</time>
      </trkpt>
      <trkpt lat="44.43319" lon="5.58797">
        <ele>1209.5</ele>
        <time>2023-03-20T10:32:52Z</time>
      </trkpt>
      <trkpt lat="44.4332" lon="5.58801">
        <ele>1209.9</ele>
        <time>2023-03-20T10:32:53Z</time>
      </trkpt>
      <trkpt lat="44.4332" lon="5.58802">
        <ele>1210</ele>
        <time>2023-03-20T10:32:54Z</time>
      </trkpt>
      <trkpt lat="44.43321" lon="5.58806">
        <ele>1210.3</ele>
        <time>2023-03-20T10:32:55Z</time>
      </trkpt>
      <trkpt lat="44.43321" lon="5.58808">
        <ele>1210.4</ele>
        <time>2023-03-20T10:32:56Z</time>
      </trkpt>
      <trkpt lat="44.43322" lon="5.58812">
        <ele>1210.8</ele>
        <time>2023-03-20T10:32:57Z</time>
      </trkpt>
      <trkpt lat="44.43323" lon="5.58813">
        <ele>1210.9</ele>
        <time>2023-03-20T10:32:58Z</time>
      </trkpt>
      <trkpt lat="44.43325" lon="5.58816">
        <ele>1211.3</ele>
        <time>2023-03-20T10:32:59Z</time>
      </trkpt>
      <trkpt lat="44.43325" lon="5.58817">
        <ele>1211.4</ele>
        <time>2023-03-20T10:33:00Z</time>
      </trkpt>
      <trkpt lat="44.43327" lon="5.58821">
        <ele>1211.7</ele>
        <time>2023-03-20T10:33:01Z</time>
      </trkpt>
      <trkpt lat="44.43328" lon="5.58822">
        <ele>1211.8</ele>
        <time>2023-03-20T10:33:02Z</time>
      </trkpt>
      <trkpt lat="44.43329" lon="5.58824">
        <ele>1212</ele>
        <time>2023-03-20T10:33:03Z</time>
      </trkpt>
      <trkpt lat="44.4333" lon="5.58825">
        <ele>1212.2</ele>
        <time>2023-03-20T10:33:04Z</time>
      </trkpt>
      <trkpt lat="44.43331" lon="5.58827">
        <ele>1212.4</ele>
        <time>2023-03-20T10:33:05Z</time>
      </trkpt>
      <trkpt lat="44.43332" lon="5.58829">
        <ele>1212.6</ele>
        <time>2023-03-20T10:33:06Z</time>
      </trkpt>
      <trkpt lat="44.43333" lon="5.58831">
        <ele>1212.8</ele>
        <time>2023-03-20T10:33:07Z</time>
      </trkpt>
      <trkpt lat="44.43334" lon="5.58833">
        <ele>1213</ele>
        <time>2023-03-20T10:33:08Z</time>
      </trkpt>
      <trkpt lat="44.43336" lon="5.58834">
        <ele>1213.2</ele>
        <time>2023-03-20T10:33:09Z</time>
      </trkpt>
      <trkpt lat="44.43337" lon="5.58836">
        <ele>1213.4</ele>
        <time>2023-03-20T10:33:10Z</time>
      </trkpt>
      <trkpt lat="44.43338" lon="5.58837">
        <ele>1213.6</ele>
        <time>2023-03-20T10:33:11Z</time>
      </trkpt>
      <trkpt lat="44.43339" lon="5.58839">
        <ele>1213.8</ele>
        <time>2023-03-20T10:33:12Z</time>
      </trkpt>
      <trkpt lat="44.43341" lon="5.58843">
        <ele>1214.1</ele>
        <time>2023-03-20T10:33:13Z</time>
      </trkpt>
      <trkpt lat="44.43341" lon="5.58844">
        <ele>1214.2</ele>
        <time>2023-03-20T10:33:14Z</time>
      </trkpt>
      <trkpt lat="44.43342" lon="5.58845">
        <ele>1214.4</ele>
        <time>2023-03-20T10:33:15Z</time>
      </trkpt>
      <trkpt lat="44.43343" lon="5.58847">
        <ele>1214.6</ele>
        <time>2023-03-20T10:33:16Z</time>
      </trkpt>
      <trkpt lat="44.43345" lon="5.5885">
        <ele>1214.9</ele>
        <time>2023-03-20T10:33:17Z</time>
      </trkpt>
      <trkpt lat="44.43346" lon="5.58851">
        <ele>1215</ele>
        <time>2023-03-20T10:33:18Z</time>
      </trkpt>
      <trkpt lat="44.43347" lon="5.58853">
        <ele>1215.2</ele>
        <time>2023-03-20T10:33:19Z</time>
      </trkpt>
      <trkpt lat="44.43348" lon="5.58855">
        <ele>1215.4</ele>
        <time>2023-03-20T10:33:20Z</time>
      </trkpt>
      <trkpt lat="44.43349" lon="5.58859">
        <ele>1215.7</ele>
        <time>2023-03-20T10:33:21Z</time>
      </trkpt>
      <trkpt lat="44.43349" lon="5.5886">
        <ele>1215.8</ele>
        <time>2023-03-20T10:33:22Z</time>
      </trkpt>
      <trkpt lat="44.43351" lon="5.58864">
        <ele>1216.1</ele>
        <time>2023-03-20T10:33:23Z</time>
      </trkpt>
      <trkpt lat="44.43351" lon="5.58865">
        <ele>1216.3</ele>
        <time>2023-03-20T10:33:24Z</time>
      </trkpt>
      <trkpt lat="44.43353" lon="5.58869">
        <ele>1216.6</ele>
        <time>2023-03-20T10:33:25Z</time>
      </trkpt>
      <trkpt lat="44.43353" lon="5.5887">
        <ele>1216.8</ele>
        <time>2023-03-20T10:33:26Z</time>
      </trkpt>
      <trkpt lat="44.43355" lon="5.58874">
        <ele>1217.1</ele>
        <time>2023-03-20T10:33:27Z</time>
      </trkpt>
      <trkpt lat="44.43355" lon="5.58875">
        <ele>1217.2</ele>
        <time>2023-03-20T10:33:28Z</time>
      </trkpt>
      <trkpt lat="44.43357" lon="5.58879">
        <ele>1217.6</ele>
        <time>2023-03-20T10:33:29Z</time>
      </trkpt>
      <trkpt lat="44.43358" lon="5.5888">
        <ele>1217.7</ele>
        <time>2023-03-20T10:33:30Z</time>
      </trkpt>
      <trkpt lat="44.43359" lon="5.58884">
        <ele>1218.1</ele>
        <time>2023-03-20T10:33:31Z</time>
      </trkpt>
      <trkpt lat="44.4336" lon="5.58885">
        <ele>1218.2</ele>
        <time>2023-03-20T10:33:32Z</time>
      </trkpt>
      <trkpt lat="44.43362" lon="5.58889">
        <ele>1218.5</ele>
        <time>2023-03-20T10:33:33Z</time>
      </trkpt>
      <trkpt lat="44.43362" lon="5.5889">
        <ele>1218.6</ele>
        <time>2023-03-20T10:33:34Z</time>
      </trkpt>
      <trkpt lat="44.43363" lon="5.58894">
        <ele>1219</ele>
        <time>2023-03-20T10:33:35Z</time>
      </trkpt>
      <trkpt lat="44.43363" lon="5.58895">
        <ele>1219.1</ele>
        <time>2023-03-20T10:33:36Z</time>
      </trkpt>
      <trkpt lat="44.43365" lon="5.58899">
        <ele>1219.4</ele>
        <time>2023-03-20T10:33:37Z</time>
      </trkpt>
      <trkpt lat="44.43365" lon="5.589">
        <ele>1219.5</ele>
        <time>2023-03-20T10:33:38Z</time>
      </trkpt>
      <trkpt lat="44.43366" lon="5.58904">
        <ele>1219.8</ele>
        <time>2023-03-20T10:33:39Z</time>
      </trkpt>
      <trkpt lat="44.43367" lon="5.58905">
        <ele>1220</ele>
        <time>2023-03-20T10:33:40Z</time>
      </trkpt>
      <trkpt lat="44.43368" lon="5.58909">
        <ele>1220.3</ele>
        <time>2023-03-20T10:33:41Z</time>
      </trkpt>
      <trkpt lat="44.43368" lon="5.5891">
        <ele>1220.4</ele>
        <time>2023-03-20T10:33:42Z</time>
      </trkpt>
      <trkpt lat="44.4337" lon="5.58914">
        <ele>1220.7</ele>
        <time>2023-03-20T10:33:43Z</time>
      </trkpt>
      <trkpt lat="44.4337" lon="5.58915">
        <ele>1220.8</ele>
        <time>2023-03-20T10:33:44Z</time>
      </trkpt>
      <trkpt lat="44.43371" lon="5.58917">
        <ele>1221</ele>
        <time>2023-03-20T10:33:45Z</time>
      </trkpt>
      <trkpt lat="44.43371" lon="5.58919">
        <ele>1221.2</ele>
        <time>2023-03-20T10:33:46Z</time>
      </trkpt>
      <trkpt lat="44.43372" lon="5.58923">
        <ele>1221.5</ele>
        <time>2023-03-20T10:33:47Z</time>
      </trkpt>
      <trkpt lat="44.43372" lon="5.58924">
        <ele>1221.6</ele>
        <time>2023-03-20T10:33:48Z</time>
      </trkpt>
      <trkpt lat="44.43374" lon="5.58928">
        <ele>1222</ele>
        <time>2023-03-20T10:33:49Z</time>
      </trkpt>
      <trkpt lat="44.43374" lon="5.58929">
        <ele>1222.1</ele>
        <time>2023-03-20T10:33:50Z</time>
      </trkpt>
      <trkpt lat="44.43375" lon="5.58933">
        <ele>1222.4</ele>
        <time>2023-03-20T10:33:51Z</time>
      </trkpt>
      <trkpt lat="44.43375" lon="5.58934">
        <ele>1222.5</ele>
        <time>2023-03-20T10:33:52Z</time>
      </trkpt>
      <trkpt lat="44.43374" lon="5.58937">
        <ele>1222.7</ele>
        <time>2023-03-20T10:33:53Z</time>
      </trkpt>
      <trkpt lat="44.43375" lon="5.58939">
        <ele>1222.9</ele>
        <time>2023-03-20T10:33:54Z</time>
      </trkpt>
      <trkpt lat="44.43375" lon="5.58941">
        <ele>1223.1</ele>
        <time>2023-03-20T10:33:55Z</time>
      </trkpt>
      <trkpt lat="44.43376" lon="5.58943">
        <ele>1223.3</ele>
        <time>2023-03-20T10:33:56Z</time>
      </trkpt>
      <trkpt lat="44.43376" lon="5.58946">
        <ele>1223.5</ele>
        <time>2023-03-20T10:33:57Z</time>
      </trkpt>
      <trkpt lat="44.43377" lon="5.58948">
        <ele>1223.7</ele>
        <time>2023-03-20T10:33:58Z</time>
      </trkpt>
      <trkpt lat="44.43377" lon="5.5895">
        <ele>1223.9</ele>
        <time>2023-03-20T10:33:59Z</time>
      </trkpt>
      <trkpt lat="44.43377" lon="5.58953">
        <ele>1224.1</ele>
        <time>2023-03-20T10:34:00Z</time>
      </trkpt>
      <trkpt lat="44.43377" lon="5.58955">
        <ele>1224.3</ele>
        <time>2023-03-20T10:34:01Z</time>
      </trkpt>
      <trkpt lat="44.43378" lon="5.58957">
        <ele>1224.5</ele>
        <time>2023-03-20T10:34:02Z</time>
      </trkpt>
      <trkpt lat="44.43378" lon="5.5896">
        <ele>1224.7</ele>
        <time>2023-03-20T10:34:03Z</time>
      </trkpt>
      <trkpt lat="44.43379" lon="5.58962">
        <ele>1224.9</ele>
        <time>2023-03-20T10:34:04Z</time>
      </trkpt>
      <trkpt lat="44.43379" lon="5.58965">
        <ele>1225.1</ele>
        <time>2023-03-20T10:34:05Z</time>
      </trkpt>
      <trkpt lat="44.43379" lon="5.58967">
        <ele>1225.2</ele>
        <time>2023-03-20T10:34:06Z</time>
      </trkpt>
      <trkpt lat="44.4338" lon="5.58969">
        <ele>1225.4</ele>
        <time>2023-03-20T10:34:07Z</time>
      </trkpt>
      <trkpt lat="44.4338" lon="5.58972">
        <ele>1225.6</ele>
        <time>2023-03-20T10:34:08Z</time>
      </trkpt>
      <trkpt lat="44.4338" lon="5.58974">
        <ele>1225.8</ele>
        <time>2023-03-20T10:34:09Z</time>
      </trkpt>
      <trkpt lat="44.43381" lon="5.58976">
        <ele>1226</ele>
        <time>2023-03-20T10:34:10Z</time>
      </trkpt>
      <trkpt lat="44.43382" lon="5.58977">
        <ele>1226.2</ele>
        <time>2023-03-20T10:34:11Z</time>
      </trkpt>
      <trkpt lat="44.43382" lon="5.58979">
        <ele>1226.3</ele>
        <time>2023-03-20T10:34:12Z</time>
      </trkpt>
      <trkpt lat="44.43383" lon="5.58982">
        <ele>1226.6</ele>
        <time>2023-03-20T10:34:13Z</time>
      </trkpt>
      <trkpt lat="44.43383" lon="5.58984">
        <ele>1226.7</ele>
        <time>2023-03-20T10:34:14Z</time>
      </trkpt>
      <trkpt lat="44.43383" lon="5.58985">
        <ele>1226.8</ele>
        <time>2023-03-20T10:34:15Z</time>
      </trkpt>
      <trkpt lat="44.43384" lon="5.58987">
        <ele>1226.9</ele>
        <time>2023-03-20T10:34:16Z</time>
      </trkpt>
      <trkpt lat="44.43384" lon="5.58989">
        <ele>1227.1</ele>
        <time>2023-03-20T10:34:17Z</time>
      </trkpt>
      <trkpt lat="44.43385" lon="5.58991">
        <ele>1227.3</ele>
        <time>2023-03-20T10:34:18Z</time>
      </trkpt>
      <trkpt lat="44.43386" lon="5.58993">
        <ele>1227.5</ele>
        <time>2023-03-20T10:34:19Z</time>
      </trkpt>
      <trkpt lat="44.43386" lon="5.58995">
        <ele>1227.7</ele>
        <time>2023-03-20T10:34:20Z</time>
      </trkpt>
      <trkpt lat="44.43387" lon="5.58997">
        <ele>1227.8</ele>
        <time>2023-03-20T10:34:21Z</time>
      </trkpt>
      <trkpt lat="44.43388" lon="5.58998">
        <ele>1228</ele>
        <time>2023-03-20T10:34:22Z</time>
      </trkpt>
      <trkpt lat="44.43389" lon="5.59">
        <ele>1228.2</ele>
        <time>2023-03-20T10:34:23Z</time>
      </trkpt>
      <trkpt lat="44.4339" lon="5.59003">
        <ele>1228.5</ele>
        <time>2023-03-20T10:34:24Z</time>
      </trkpt>
      <trkpt lat="44.4339" lon="5.59004">
        <ele>1228.6</ele>
        <time>2023-03-20T10:34:25Z</time>
      </trkpt>
      <trkpt lat="44.4339" lon="5.59006">
        <ele>1228.7</ele>
        <time>2023-03-20T10:34:26Z</time>
      </trkpt>
      <trkpt lat="44.43391" lon="5.59009">
        <ele>1228.9</ele>
        <time>2023-03-20T10:34:27Z</time>
      </trkpt>
      <trkpt lat="44.43392" lon="5.5901">
        <ele>1229</ele>
        <time>2023-03-20T10:34:28Z</time>
      </trkpt>
      <trkpt lat="44.43393" lon="5.59011">
        <ele>1229.2</ele>
        <time>2023-03-20T10:34:29Z</time>
      </trkpt>
      <trkpt lat="44.43394" lon="5.59013">
        <ele>1229.4</ele>
        <time>2023-03-20T10:34:30Z</time>
      </trkpt>
      <trkpt lat="44.43394" lon="5.59015">
        <ele>1229.5</ele>
        <time>2023-03-20T10:34:31Z</time>
      </trkpt>
      <trkpt lat="44.43394" lon="5.59017">
        <ele>1229.7</ele>
        <time>2023-03-20T10:34:32Z</time>
      </trkpt>
      <trkpt lat="44.43395" lon="5.59019">
        <ele>1229.9</ele>
        <time>2023-03-20T10:34:33Z</time>
      </trkpt>
      <trkpt lat="44.43396" lon="5.59021">
        <ele>1230</ele>
        <time>2023-03-20T10:34:34Z</time>
      </trkpt>
      <trkpt lat="44.43396" lon="5.59023">
        <ele>1230.2</ele>
        <time>2023-03-20T10:34:35Z</time>
      </trkpt>
      <trkpt lat="44.43398" lon="5.59027">
        <ele>1230.6</ele>
        <time>2023-03-20T10:34:36Z</time>
      </trkpt>
      <trkpt lat="44.43398" lon="5.59028">
        <ele>1230.7</ele>
        <time>2023-03-20T10:34:37Z</time>
      </trkpt>
      <trkpt lat="44.43398" lon="5.5903">
        <ele>1230.8</ele>
        <time>2023-03-20T10:34:38Z</time>
      </trkpt>
      <trkpt lat="44.43399" lon="5.59032">
        <ele>1231</ele>
        <time>2023-03-20T10:34:39Z</time>
      </trkpt>
      <trkpt lat="44.434" lon="5.59033">
        <ele>1231.2</ele>
        <time>2023-03-20T10:34:40Z</time>
      </trkpt>
      <trkpt lat="44.43401" lon="5.59035">
        <ele>1231.4</ele>
        <time>2023-03-20T10:34:41Z</time>
      </trkpt>
      <trkpt lat="44.43402" lon="5.59037">
        <ele>1231.5</ele>
        <time>2023-03-20T10:34:42Z</time>
      </trkpt>
      <trkpt lat="44.43402" lon="5.59039">
        <ele>1231.7</ele>
        <time>2023-03-20T10:34:43Z</time>
      </trkpt>
      <trkpt lat="44.43403" lon="5.59041">
        <ele>1231.9</ele>
        <time>2023-03-20T10:34:44Z</time>
      </trkpt>
      <trkpt lat="44.43404" lon="5.59043">
        <ele>1232.1</ele>
        <time>2023-03-20T10:34:45Z</time>
      </trkpt>
      <trkpt lat="44.43404" lon="5.59045">
        <ele>1232.2</ele>
        <time>2023-03-20T10:34:46Z</time>
      </trkpt>
      <trkpt lat="44.43405" lon="5.59047">
        <ele>1232.4</ele>
        <time>2023-03-20T10:34:47Z</time>
      </trkpt>
      <trkpt lat="44.43405" lon="5.59049">
        <ele>1232.6</ele>
        <time>2023-03-20T10:34:48Z</time>
      </trkpt>
      <trkpt lat="44.43406" lon="5.59051">
        <ele>1232.8</ele>
        <time>2023-03-20T10:34:49Z</time>
      </trkpt>
      <trkpt lat="44.43407" lon="5.59053">
        <ele>1233</ele>
        <time>2023-03-20T10:34:50Z</time>
      </trkpt>
      <trkpt lat="44.43408" lon="5.59055">
        <ele>1233.2</ele>
        <time>2023-03-20T10:34:51Z</time>
      </trkpt>
      <trkpt lat="44.43408" lon="5.59058">
        <ele>1233.4</ele>
        <time>2023-03-20T10:34:52Z</time>
      </trkpt>
      <trkpt lat="44.43409" lon="5.59059">
        <ele>1233.5</ele>
        <time>2023-03-20T10:34:53Z</time>
      </trkpt>
      <trkpt lat="44.43409" lon="5.5906">
        <ele>1233.6</ele>
        <time>2023-03-20T10:34:54Z</time>
      </trkpt>
      <trkpt lat="44.43411" lon="5.59062">
        <ele>1233.8</ele>
        <time>2023-03-20T10:34:55Z</time>
      </trkpt>
      <trkpt lat="44.43412" lon="5.59063">
        <ele>1234</ele>
        <time>2023-03-20T10:34:56Z</time>
      </trkpt>
      <trkpt lat="44.43412" lon="5.59064">
        <ele>1234.1</ele>
        <time>2023-03-20T10:34:57Z</time>
      </trkpt>
      <trkpt lat="44.43413" lon="5.59066">
        <ele>1234.2</ele>
        <time>2023-03-20T10:34:58Z</time>
      </trkpt>
      <trkpt lat="44.43414" lon="5.59067">
        <ele>1234.4</ele>
        <time>2023-03-20T10:34:59Z</time>
      </trkpt>
      <trkpt lat="44.43414" lon="5.59069">
        <ele>1234.5</ele>
        <time>2023-03-20T10:35:00Z</time>
      </trkpt>
      <trkpt lat="44.43415" lon="5.59071">
        <ele>1234.7</ele>
        <time>2023-03-20T10:35:01Z</time>
      </trkpt>
      <trkpt lat="44.43415" lon="5.59073">
        <ele>1234.9</ele>
        <time>2023-03-20T10:35:02Z</time>
      </trkpt>
      <trkpt lat="44.43416" lon="5.59076">
        <ele>1235.1</ele>
        <time>2023-03-20T10:35:03Z</time>
      </trkpt>
      <trkpt lat="44.43416" lon="5.59078">
        <ele>1235.3</ele>
        <time>2023-03-20T10:35:04Z</time>
      </trkpt>
      <trkpt lat="44.43417" lon="5.5908">
        <ele>1235.4</ele>
        <time>2023-03-20T10:35:05Z</time>
      </trkpt>
      <trkpt lat="44.43418" lon="5.59082">
        <ele>1235.7</ele>
        <time>2023-03-20T10:35:06Z</time>
      </trkpt>
      <trkpt lat="44.43418" lon="5.59084">
        <ele>1235.8</ele>
        <time>2023-03-20T10:35:07Z</time>
      </trkpt>
      <trkpt lat="44.43419" lon="5.59086">
        <ele>1236</ele>
        <time>2023-03-20T10:35:08Z</time>
      </trkpt>
      <trkpt lat="44.43419" lon="5.59088">
        <ele>1236.2</ele>
        <time>2023-03-20T10:35:09Z</time>
      </trkpt>
      <trkpt lat="44.4342" lon="5.59091">
        <ele>1236.4</ele>
        <time>2023-03-20T10:35:10Z</time>
      </trkpt>
      <trkpt lat="44.4342" lon="5.59092">
        <ele>1236.5</ele>
        <time>2023-03-20T10:35:11Z</time>
      </trkpt>
      <trkpt lat="44.43421" lon="5.59094">
        <ele>1236.6</ele>
        <time>2023-03-20T10:35:12Z</time>
      </trkpt>
      <trkpt lat="44.43422" lon="5.59096">
        <ele>1236.9</ele>
        <time>2023-03-20T10:35:13Z</time>
      </trkpt>
      <trkpt lat="44.43422" lon="5.59097">
        <ele>1237</ele>
        <time>2023-03-20T10:35:14Z</time>
      </trkpt>
      <trkpt lat="44.43423" lon="5.59098">
        <ele>1237.1</ele>
        <time>2023-03-20T10:35:15Z</time>
      </trkpt>
      <trkpt lat="44.43424" lon="5.591">
        <ele>1237.3</ele>
        <time>2023-03-20T10:35:16Z</time>
      </trkpt>
      <trkpt lat="44.43424" lon="5.59102">
        <ele>1237.4</ele>
        <time>2023-03-20T10:35:17Z</time>
      </trkpt>
      <trkpt lat="44.43425" lon="5.59103">
        <ele>1237.5</ele>
        <time>2023-03-20T10:35:18Z</time>
      </trkpt>
      <trkpt lat="44.43425" lon="5.59105">
        <ele>1237.7</ele>
        <time>2023-03-20T10:35:19Z</time>
      </trkpt>
      <trkpt lat="44.43426" lon="5.59107">
        <ele>1237.9</ele>
        <time>2023-03-20T10:35:20Z</time>
      </trkpt>
      <trkpt lat="44.43426" lon="5.59109">
        <ele>1238.1</ele>
        <time>2023-03-20T10:35:21Z</time>
      </trkpt>
      <trkpt lat="44.43427" lon="5.59111">
        <ele>1238.2</ele>
        <time>2023-03-20T10:35:22Z</time>
      </trkpt>
      <trkpt lat="44.43427" lon="5.59113">
        <ele>1238.4</ele>
        <time>2023-03-20T10:35:23Z</time>
      </trkpt>
      <trkpt lat="44.43428" lon="5.59115">
        <ele>1238.6</ele>
        <time>2023-03-20T10:35:24Z</time>
      </trkpt>
      <trkpt lat="44.43428" lon="5.59117">
        <ele>1238.8</ele>
        <time>2023-03-20T10:35:25Z</time>
      </trkpt>
      <trkpt lat="44.43429" lon="5.59119">
        <ele>1238.9</ele>
        <time>2023-03-20T10:35:26Z</time>
      </trkpt>
      <trkpt lat="44.4343" lon="5.59122">
        <ele>1239.2</ele>
        <time>2023-03-20T10:35:27Z</time>
      </trkpt>
      <trkpt lat="44.4343" lon="5.59123">
        <ele>1239.3</ele>
        <time>2023-03-20T10:35:28Z</time>
      </trkpt>
      <trkpt lat="44.4343" lon="5.59125">
        <ele>1239.4</ele>
        <time>2023-03-20T10:35:29Z</time>
      </trkpt>
      <trkpt lat="44.43431" lon="5.59129">
        <ele>1239.8</ele>
        <time>2023-03-20T10:35:31Z</time>
      </trkpt>
      <trkpt lat="44.43431" lon="5.59132">
        <ele>1240</ele>
        <time>2023-03-20T10:35:32Z</time>
      </trkpt>
      <trkpt lat="44.43431" lon="5.59134">
        <ele>1240.1</ele>
        <time>2023-03-20T10:35:33Z</time>
      </trkpt>
      <trkpt lat="44.43431" lon="5.59136">
        <ele>1240.3</ele>
        <time>2023-03-20T10:35:34Z</time>
      </trkpt>
      <trkpt lat="44.43431" lon="5.59138">
        <ele>1240.5</ele>
        <time>2023-03-20T10:35:35Z</time>
      </trkpt>
      <trkpt lat="44.43431" lon="5.59141">
        <ele>1240.7</ele>
        <time>2023-03-20T10:35:36Z</time>
      </trkpt>
      <trkpt lat="44.43432" lon="5.59143">
        <ele>1240.9</ele>
        <time>2023-03-20T10:35:37Z</time>
      </trkpt>
      <trkpt lat="44.43433" lon="5.59144">
        <ele>1241.1</ele>
        <time>2023-03-20T10:35:38Z</time>
      </trkpt>
      <trkpt lat="44.43433" lon="5.59146">
        <ele>1241.2</ele>
        <time>2023-03-20T10:35:39Z</time>
      </trkpt>
      <trkpt lat="44.43434" lon="5.59148">
        <ele>1241.4</ele>
        <time>2023-03-20T10:35:40Z</time>
      </trkpt>
      <trkpt lat="44.43435" lon="5.5915">
        <ele>1241.6</ele>
        <time>2023-03-20T10:35:41Z</time>
      </trkpt>
      <trkpt lat="44.43435" lon="5.59152">
        <ele>1241.7</ele>
        <time>2023-03-20T10:35:42Z</time>
      </trkpt>
      <trkpt lat="44.43436" lon="5.59154">
        <ele>1241.9</ele>
        <time>2023-03-20T10:35:43Z</time>
      </trkpt>
      <trkpt lat="44.43437" lon="5.59156">
        <ele>1242.1</ele>
        <time>2023-03-20T10:35:44Z</time>
      </trkpt>
      <trkpt lat="44.43439" lon="5.59157">
        <ele>1242.3</ele>
        <time>2023-03-20T10:35:45Z</time>
      </trkpt>
      <trkpt lat="44.4344" lon="5.59158">
        <ele>1242.4</ele>
        <time>2023-03-20T10:35:46Z</time>
      </trkpt>
      <trkpt lat="44.4344" lon="5.5916">
        <ele>1242.6</ele>
        <time>2023-03-20T10:35:47Z</time>
      </trkpt>
      <trkpt lat="44.43441" lon="5.59162">
        <ele>1242.8</ele>
        <time>2023-03-20T10:35:48Z</time>
      </trkpt>
      <trkpt lat="44.43442" lon="5.59163">
        <ele>1242.9</ele>
        <time>2023-03-20T10:35:49Z</time>
      </trkpt>
      <trkpt lat="44.43442" lon="5.59164">
        <ele>1243</ele>
        <time>2023-03-20T10:35:50Z</time>
      </trkpt>
      <trkpt lat="44.43443" lon="5.59166">
        <ele>1243.2</ele>
        <time>2023-03-20T10:35:51Z</time>
      </trkpt>
      <trkpt lat="44.43444" lon="5.59167">
        <ele>1243.3</ele>
        <time>2023-03-20T10:35:52Z</time>
      </trkpt>
      <trkpt lat="44.43444" lon="5.59168">
        <ele>1243.4</ele>
        <time>2023-03-20T10:35:53Z</time>
      </trkpt>
      <trkpt lat="44.43445" lon="5.5917">
        <ele>1243.6</ele>
        <time>2023-03-20T10:35:54Z</time>
      </trkpt>
      <trkpt lat="44.43446" lon="5.59171">
        <ele>1243.7</ele>
        <time>2023-03-20T10:35:55Z</time>
      </trkpt>
      <trkpt lat="44.43447" lon="5.59171">
        <ele>1243.8</ele>
        <time>2023-03-20T10:35:56Z</time>
      </trkpt>
      <trkpt lat="44.43448" lon="5.59173">
        <ele>1244</ele>
        <time>2023-03-20T10:35:57Z</time>
      </trkpt>
      <trkpt lat="44.43449" lon="5.59175">
        <ele>1244.2</ele>
        <time>2023-03-20T10:35:58Z</time>
      </trkpt>
      <trkpt lat="44.4345" lon="5.59176">
        <ele>1244.3</ele>
        <time>2023-03-20T10:35:59Z</time>
      </trkpt>
      <trkpt lat="44.43451" lon="5.59178">
        <ele>1244.5</ele>
        <time>2023-03-20T10:36:00Z</time>
      </trkpt>
      <trkpt lat="44.43452" lon="5.59179">
        <ele>1244.6</ele>
        <time>2023-03-20T10:36:01Z</time>
      </trkpt>
      <trkpt lat="44.43452" lon="5.59181">
        <ele>1244.8</ele>
        <time>2023-03-20T10:36:02Z</time>
      </trkpt>
      <trkpt lat="44.43453" lon="5.59182">
        <ele>1245</ele>
        <time>2023-03-20T10:36:03Z</time>
      </trkpt>
      <trkpt lat="44.43454" lon="5.59184">
        <ele>1245.2</ele>
        <time>2023-03-20T10:36:04Z</time>
      </trkpt>
      <trkpt lat="44.43455" lon="5.59186">
        <ele>1245.3</ele>
        <time>2023-03-20T10:36:05Z</time>
      </trkpt>
      <trkpt lat="44.43456" lon="5.59187">
        <ele>1245.5</ele>
        <time>2023-03-20T10:36:06Z</time>
      </trkpt>
      <trkpt lat="44.43457" lon="5.59189">
        <ele>1245.7</ele>
        <time>2023-03-20T10:36:07Z</time>
      </trkpt>
      <trkpt lat="44.43458" lon="5.5919">
        <ele>1245.8</ele>
        <time>2023-03-20T10:36:08Z</time>
      </trkpt>
      <trkpt lat="44.4346" lon="5.59191">
        <ele>1246</ele>
        <time>2023-03-20T10:36:09Z</time>
      </trkpt>
      <trkpt lat="44.43461" lon="5.59193">
        <ele>1246.2</ele>
        <time>2023-03-20T10:36:10Z</time>
      </trkpt>
      <trkpt lat="44.43463" lon="5.59196">
        <ele>1246.5</ele>
        <time>2023-03-20T10:36:11Z</time>
      </trkpt>
      <trkpt lat="44.43463" lon="5.59197">
        <ele>1246.6</ele>
        <time>2023-03-20T10:36:12Z</time>
      </trkpt>
      <trkpt lat="44.43464" lon="5.59199">
        <ele>1246.8</ele>
        <time>2023-03-20T10:36:13Z</time>
      </trkpt>
      <trkpt lat="44.43465" lon="5.59201">
        <ele>1247</ele>
        <time>2023-03-20T10:36:14Z</time>
      </trkpt>
      <trkpt lat="44.43466" lon="5.59202">
        <ele>1247.1</ele>
        <time>2023-03-20T10:36:15Z</time>
      </trkpt>
      <trkpt lat="44.43467" lon="5.59204">
        <ele>1247.3</ele>
        <time>2023-03-20T10:36:16Z</time>
      </trkpt>
      <trkpt lat="44.43469" lon="5.59206">
        <ele>1247.6</ele>
        <time>2023-03-20T10:36:17Z</time>
      </trkpt>
      <trkpt lat="44.4347" lon="5.59207">
        <ele>1247.7</ele>
        <time>2023-03-20T10:36:18Z</time>
      </trkpt>
      <trkpt lat="44.43471" lon="5.59209">
        <ele>1247.9</ele>
        <time>2023-03-20T10:36:19Z</time>
      </trkpt>
      <trkpt lat="44.43472" lon="5.5921">
        <ele>1248.1</ele>
        <time>2023-03-20T10:36:20Z</time>
      </trkpt>
      <trkpt lat="44.43473" lon="5.59212">
        <ele>1248.3</ele>
        <time>2023-03-20T10:36:21Z</time>
      </trkpt>
      <trkpt lat="44.43474" lon="5.59214">
        <ele>1248.5</ele>
        <time>2023-03-20T10:36:22Z</time>
      </trkpt>
      <trkpt lat="44.43475" lon="5.59215">
        <ele>1248.7</ele>
        <time>2023-03-20T10:36:23Z</time>
      </trkpt>
      <trkpt lat="44.43476" lon="5.59217">
        <ele>1248.9</ele>
        <time>2023-03-20T10:36:24Z</time>
      </trkpt>
      <trkpt lat="44.43477" lon="5.59219">
        <ele>1249</ele>
        <time>2023-03-20T10:36:25Z</time>
      </trkpt>
      <trkpt lat="44.43477" lon="5.59221">
        <ele>1249.2</ele>
        <time>2023-03-20T10:36:26Z</time>
      </trkpt>
      <trkpt lat="44.43478" lon="5.59225">
        <ele>1249.5</ele>
        <time>2023-03-20T10:36:27Z</time>
      </trkpt>
      <trkpt lat="44.43478" lon="5.59227">
        <ele>1249.6</ele>
        <time>2023-03-20T10:36:28Z</time>
      </trkpt>
      <trkpt lat="44.43478" lon="5.5923">
        <ele>1250</ele>
        <time>2023-03-20T10:36:29Z</time>
      </trkpt>
      <trkpt lat="44.43478" lon="5.59232">
        <ele>1250.1</ele>
        <time>2023-03-20T10:36:30Z</time>
      </trkpt>
      <trkpt lat="44.43478" lon="5.59234">
        <ele>1250.2</ele>
        <time>2023-03-20T10:36:31Z</time>
      </trkpt>
      <trkpt lat="44.43479" lon="5.59236">
        <ele>1250.4</ele>
        <time>2023-03-20T10:36:32Z</time>
      </trkpt>
      <trkpt lat="44.43479" lon="5.59238">
        <ele>1250.6</ele>
        <time>2023-03-20T10:36:33Z</time>
      </trkpt>
      <trkpt lat="44.4348" lon="5.59241">
        <ele>1250.8</ele>
        <time>2023-03-20T10:36:34Z</time>
      </trkpt>
      <trkpt lat="44.4348" lon="5.59243">
        <ele>1251</ele>
        <time>2023-03-20T10:36:35Z</time>
      </trkpt>
      <trkpt lat="44.43481" lon="5.59245">
        <ele>1251.2</ele>
        <time>2023-03-20T10:36:36Z</time>
      </trkpt>
      <trkpt lat="44.43481" lon="5.59247">
        <ele>1251.4</ele>
        <time>2023-03-20T10:36:37Z</time>
      </trkpt>
      <trkpt lat="44.43482" lon="5.59249">
        <ele>1251.5</ele>
        <time>2023-03-20T10:36:38Z</time>
      </trkpt>
      <trkpt lat="44.43483" lon="5.59251">
        <ele>1251.7</ele>
        <time>2023-03-20T10:36:39Z</time>
      </trkpt>
      <trkpt lat="44.43483" lon="5.59253">
        <ele>1251.9</ele>
        <time>2023-03-20T10:36:40Z</time>
      </trkpt>
      <trkpt lat="44.43483" lon="5.59255">
        <ele>1252.1</ele>
        <time>2023-03-20T10:36:41Z</time>
      </trkpt>
      <trkpt lat="44.43483" lon="5.59257">
        <ele>1252.2</ele>
        <time>2023-03-20T10:36:42Z</time>
      </trkpt>
      <trkpt lat="44.43484" lon="5.5926">
        <ele>1252.4</ele>
        <time>2023-03-20T10:36:43Z</time>
      </trkpt>
      <trkpt lat="44.43484" lon="5.59262">
        <ele>1252.6</ele>
        <time>2023-03-20T10:36:44Z</time>
      </trkpt>
      <trkpt lat="44.43484" lon="5.59264">
        <ele>1252.7</ele>
        <time>2023-03-20T10:36:45Z</time>
      </trkpt>
      <trkpt lat="44.43485" lon="5.59266">
        <ele>1252.9</ele>
        <time>2023-03-20T10:36:46Z</time>
      </trkpt>
      <trkpt lat="44.43486" lon="5.59269">
        <ele>1253.2</ele>
        <time>2023-03-20T10:36:47Z</time>
      </trkpt>
      <trkpt lat="44.43486" lon="5.59271">
        <ele>1253.3</ele>
        <time>2023-03-20T10:36:48Z</time>
      </trkpt>
      <trkpt lat="44.43487" lon="5.59273">
        <ele>1253.6</ele>
        <time>2023-03-20T10:36:49Z</time>
      </trkpt>
      <trkpt lat="44.43488" lon="5.59275">
        <ele>1253.7</ele>
        <time>2023-03-20T10:36:50Z</time>
      </trkpt>
      <trkpt lat="44.43489" lon="5.59277">
        <ele>1253.9</ele>
        <time>2023-03-20T10:36:51Z</time>
      </trkpt>
      <trkpt lat="44.43489" lon="5.59279">
        <ele>1254.1</ele>
        <time>2023-03-20T10:36:52Z</time>
      </trkpt>
      <trkpt lat="44.4349" lon="5.59281">
        <ele>1254.3</ele>
        <time>2023-03-20T10:36:53Z</time>
      </trkpt>
      <trkpt lat="44.4349" lon="5.59282">
        <ele>1254.4</ele>
        <time>2023-03-20T10:36:54Z</time>
      </trkpt>
      <trkpt lat="44.43491" lon="5.59284">
        <ele>1254.5</ele>
        <time>2023-03-20T10:36:55Z</time>
      </trkpt>
      <trkpt lat="44.43492" lon="5.59285">
        <ele>1254.7</ele>
        <time>2023-03-20T10:36:56Z</time>
      </trkpt>
      <trkpt lat="44.43493" lon="5.59287">
        <ele>1254.9</ele>
        <time>2023-03-20T10:36:57Z</time>
      </trkpt>
      <trkpt lat="44.43494" lon="5.59288">
        <ele>1255.1</ele>
        <time>2023-03-20T10:36:58Z</time>
      </trkpt>
      <trkpt lat="44.43494" lon="5.5929">
        <ele>1255.2</ele>
        <time>2023-03-20T10:36:59Z</time>
      </trkpt>
      <trkpt lat="44.43495" lon="5.59292">
        <ele>1255.4</ele>
        <time>2023-03-20T10:37:00Z</time>
      </trkpt>
      <trkpt lat="44.43496" lon="5.59294">
        <ele>1255.6</ele>
        <time>2023-03-20T10:37:01Z</time>
      </trkpt>
      <trkpt lat="44.43496" lon="5.59296">
        <ele>1255.7</ele>
        <time>2023-03-20T10:37:02Z</time>
      </trkpt>
      <trkpt lat="44.43497" lon="5.59298">
        <ele>1255.9</ele>
        <time>2023-03-20T10:37:03Z</time>
      </trkpt>
      <trkpt lat="44.43498" lon="5.593">
        <ele>1256.1</ele>
        <time>2023-03-20T10:37:04Z</time>
      </trkpt>
      <trkpt lat="44.43499" lon="5.59301">
        <ele>1256.2</ele>
        <time>2023-03-20T10:37:05Z</time>
      </trkpt>
      <trkpt lat="44.435" lon="5.59303">
        <ele>1256.4</ele>
        <time>2023-03-20T10:37:06Z</time>
      </trkpt>
      <trkpt lat="44.435" lon="5.59305">
        <ele>1256.6</ele>
        <time>2023-03-20T10:37:07Z</time>
      </trkpt>
      <trkpt lat="44.435" lon="5.59307">
        <ele>1256.8</ele>
        <time>2023-03-20T10:37:08Z</time>
      </trkpt>
      <trkpt lat="44.43501" lon="5.59309">
        <ele>1257</ele>
        <time>2023-03-20T10:37:09Z</time>
      </trkpt>
      <trkpt lat="44.43502" lon="5.59312">
        <ele>1257.2</ele>
        <time>2023-03-20T10:37:10Z</time>
      </trkpt>
      <trkpt lat="44.43502" lon="5.59313">
        <ele>1257.3</ele>
        <time>2023-03-20T10:37:11Z</time>
      </trkpt>
      <trkpt lat="44.43503" lon="5.59314">
        <ele>1257.4</ele>
        <time>2023-03-20T10:37:12Z</time>
      </trkpt>
      <trkpt lat="44.43503" lon="5.59316">
        <ele>1257.6</ele>
        <time>2023-03-20T10:37:13Z</time>
      </trkpt>
      <trkpt lat="44.43503" lon="5.59318">
        <ele>1257.7</ele>
        <time>2023-03-20T10:37:14Z</time>
      </trkpt>
      <trkpt lat="44.43504" lon="5.59321">
        <ele>1258</ele>
        <time>2023-03-20T10:37:15Z</time>
      </trkpt>
      <trkpt lat="44.43504" lon="5.59323">
        <ele>1258.1</ele>
        <time>2023-03-20T10:37:16Z</time>
      </trkpt>
      <trkpt lat="44.43504" lon="5.59324">
        <ele>1258.2</ele>
        <time>2023-03-20T10:37:17Z</time>
      </trkpt>
      <trkpt lat="44.43505" lon="5.59326">
        <ele>1258.4</ele>
        <time>2023-03-20T10:37:18Z</time>
      </trkpt>
      <trkpt lat="44.43505" lon="5.59328">
        <ele>1258.6</ele>
        <time>2023-03-20T10:37:19Z</time>
      </trkpt>
      <trkpt lat="44.43505" lon="5.59331">
        <ele>1258.8</ele>
        <time>2023-03-20T10:37:20Z</time>
      </trkpt>
      <trkpt lat="44.43506" lon="5.59332">
        <ele>1258.9</ele>
        <time>2023-03-20T10:37:21Z</time>
      </trkpt>
      <trkpt lat="44.43506" lon="5.59335">
        <ele>1259.1</ele>
        <time>2023-03-20T10:37:22Z</time>
      </trkpt>
      <trkpt lat="44.43507" lon="5.59337">
        <ele>1259.3</ele>
        <time>2023-03-20T10:37:23Z</time>
      </trkpt>
      <trkpt lat="44.43508" lon="5.5934">
        <ele>1259.5</ele>
        <time>2023-03-20T10:37:24Z</time>
      </trkpt>
      <trkpt lat="44.43508" lon="5.59341">
        <ele>1259.6</ele>
        <time>2023-03-20T10:37:25Z</time>
      </trkpt>
      <trkpt lat="44.43509" lon="5.59342">
        <ele>1259.7</ele>
        <time>2023-03-20T10:37:26Z</time>
      </trkpt>
      <trkpt lat="44.43509" lon="5.59343">
        <ele>1259.8</ele>
        <time>2023-03-20T10:37:27Z</time>
      </trkpt>
      <trkpt lat="44.43509" lon="5.59344">
        <ele>1259.9</ele>
        <time>2023-03-20T10:37:28Z</time>
      </trkpt>
      <trkpt lat="44.4351" lon="5.59346">
        <ele>1260.1</ele>
        <time>2023-03-20T10:37:29Z</time>
      </trkpt>
      <trkpt lat="44.43511" lon="5.59347">
        <ele>1260.2</ele>
        <time>2023-03-20T10:37:30Z</time>
      </trkpt>
      <trkpt lat="44.43511" lon="5.59349">
        <ele>1260.4</ele>
        <time>2023-03-20T10:37:31Z</time>
      </trkpt>
      <trkpt lat="44.43512" lon="5.59352">
        <ele>1260.7</ele>
        <time>2023-03-20T10:37:32Z</time>
      </trkpt>
      <trkpt lat="44.43512" lon="5.59353">
        <ele>1260.8</ele>
        <time>2023-03-20T10:37:33Z</time>
      </trkpt>
      <trkpt lat="44.43513" lon="5.59354">
        <ele>1260.9</ele>
        <time>2023-03-20T10:37:34Z</time>
      </trkpt>
      <trkpt lat="44.43514" lon="5.59357">
        <ele>1261.1</ele>
        <time>2023-03-20T10:37:35Z</time>
      </trkpt>
      <trkpt lat="44.43514" lon="5.59358">
        <ele>1261.2</ele>
        <time>2023-03-20T10:37:36Z</time>
      </trkpt>
      <trkpt lat="44.43514" lon="5.59359">
        <ele>1261.3</ele>
        <time>2023-03-20T10:37:37Z</time>
      </trkpt>
      <trkpt lat="44.43515" lon="5.59361">
        <ele>1261.5</ele>
        <time>2023-03-20T10:37:38Z</time>
      </trkpt>
      <trkpt lat="44.43515" lon="5.59363">
        <ele>1261.6</ele>
        <time>2023-03-20T10:37:39Z</time>
      </trkpt>
      <trkpt lat="44.43516" lon="5.59365">
        <ele>1261.8</ele>
        <time>2023-03-20T10:37:40Z</time>
      </trkpt>
      <trkpt lat="44.43516" lon="5.59367">
        <ele>1262</ele>
        <time>2023-03-20T10:37:41Z</time>
      </trkpt>
      <trkpt lat="44.43516" lon="5.59369">
        <ele>1262.1</ele>
        <time>2023-03-20T10:37:42Z</time>
      </trkpt>
      <trkpt lat="44.43517" lon="5.59371">
        <ele>1262.3</ele>
        <time>2023-03-20T10:37:43Z</time>
      </trkpt>
      <trkpt lat="44.43517" lon="5.59373">
        <ele>1262.5</ele>
        <time>2023-03-20T10:37:44Z</time>
      </trkpt>
      <trkpt lat="44.43518" lon="5.59375">
        <ele>1262.7</ele>
        <time>2023-03-20T10:37:45Z</time>
      </trkpt>
      <trkpt lat="44.43519" lon="5.59377">
        <ele>1262.8</ele>
        <time>2023-03-20T10:37:46Z</time>
      </trkpt>
      <trkpt lat="44.43519" lon="5.5938">
        <ele>1263</ele>
        <time>2023-03-20T10:37:47Z</time>
      </trkpt>
      <trkpt lat="44.4352" lon="5.59382">
        <ele>1263.2</ele>
        <time>2023-03-20T10:37:48Z</time>
      </trkpt>
      <trkpt lat="44.43521" lon="5.59384">
        <ele>1263.4</ele>
        <time>2023-03-20T10:37:49Z</time>
      </trkpt>
      <trkpt lat="44.43522" lon="5.59389">
        <ele>1263.9</ele>
        <time>2023-03-20T10:37:51Z</time>
      </trkpt>
      <trkpt lat="44.43523" lon="5.59391">
        <ele>1264.1</ele>
        <time>2023-03-20T10:37:52Z</time>
      </trkpt>
      <trkpt lat="44.43523" lon="5.59393">
        <ele>1264.3</ele>
        <time>2023-03-20T10:37:53Z</time>
      </trkpt>
      <trkpt lat="44.43524" lon="5.59395">
        <ele>1264.4</ele>
        <time>2023-03-20T10:37:54Z</time>
      </trkpt>
      <trkpt lat="44.43525" lon="5.59397">
        <ele>1264.6</ele>
        <time>2023-03-20T10:37:55Z</time>
      </trkpt>
      <trkpt lat="44.43527" lon="5.59401">
        <ele>1265</ele>
        <time>2023-03-20T10:37:56Z</time>
      </trkpt>
      <trkpt lat="44.43527" lon="5.59402">
        <ele>1265.1</ele>
        <time>2023-03-20T10:37:57Z</time>
      </trkpt>
      <trkpt lat="44.43529" lon="5.59406">
        <ele>1265.5</ele>
        <time>2023-03-20T10:37:58Z</time>
      </trkpt>
      <trkpt lat="44.4353" lon="5.59407">
        <ele>1265.6</ele>
        <time>2023-03-20T10:37:59Z</time>
      </trkpt>
      <trkpt lat="44.4353" lon="5.59409">
        <ele>1265.8</ele>
        <time>2023-03-20T10:38:00Z</time>
      </trkpt>
      <trkpt lat="44.43531" lon="5.59412">
        <ele>1266</ele>
        <time>2023-03-20T10:38:01Z</time>
      </trkpt>
      <trkpt lat="44.43531" lon="5.59414">
        <ele>1266.2</ele>
        <time>2023-03-20T10:38:02Z</time>
      </trkpt>
      <trkpt lat="44.43532" lon="5.59416">
        <ele>1266.4</ele>
        <time>2023-03-20T10:38:03Z</time>
      </trkpt>
      <trkpt lat="44.43533" lon="5.59419">
        <ele>1266.6</ele>
        <time>2023-03-20T10:38:04Z</time>
      </trkpt>
      <trkpt lat="44.43533" lon="5.59421">
        <ele>1266.8</ele>
        <time>2023-03-20T10:38:05Z</time>
      </trkpt>
      <trkpt lat="44.43534" lon="5.59423">
        <ele>1267</ele>
        <time>2023-03-20T10:38:06Z</time>
      </trkpt>
      <trkpt lat="44.43535" lon="5.59426">
        <ele>1267.2</ele>
        <time>2023-03-20T10:38:07Z</time>
      </trkpt>
      <trkpt lat="44.43536" lon="5.59429">
        <ele>1267.5</ele>
        <time>2023-03-20T10:38:08Z</time>
      </trkpt>
      <trkpt lat="44.43536" lon="5.5943">
        <ele>1267.6</ele>
        <time>2023-03-20T10:38:09Z</time>
      </trkpt>
      <trkpt lat="44.43537" lon="5.59432">
        <ele>1267.8</ele>
        <time>2023-03-20T10:38:10Z</time>
      </trkpt>
      <trkpt lat="44.43537" lon="5.59434">
        <ele>1268</ele>
        <time>2023-03-20T10:38:11Z</time>
      </trkpt>
      <trkpt lat="44.43538" lon="5.59436">
        <ele>1268.2</ele>
        <time>2023-03-20T10:38:12Z</time>
      </trkpt>
      <trkpt lat="44.43539" lon="5.59439">
        <ele>1268.4</ele>
        <time>2023-03-20T10:38:13Z</time>
      </trkpt>
      <trkpt lat="44.43539" lon="5.59441">
        <ele>1268.5</ele>
        <time>2023-03-20T10:38:14Z</time>
      </trkpt>
      <trkpt lat="44.4354" lon="5.59443">
        <ele>1268.7</ele>
        <time>2023-03-20T10:38:15Z</time>
      </trkpt>
      <trkpt lat="44.43541" lon="5.59445">
        <ele>1268.9</ele>
        <time>2023-03-20T10:38:16Z</time>
      </trkpt>
      <trkpt lat="44.43542" lon="5.59447">
        <ele>1269.1</ele>
        <time>2023-03-20T10:38:17Z</time>
      </trkpt>
      <trkpt lat="44.43543" lon="5.59449">
        <ele>1269.3</ele>
        <time>2023-03-20T10:38:18Z</time>
      </trkpt>
      <trkpt lat="44.43544" lon="5.5945">
        <ele>1269.5</ele>
        <time>2023-03-20T10:38:19Z</time>
      </trkpt>
      <trkpt lat="44.43546" lon="5.59451">
        <ele>1269.7</ele>
        <time>2023-03-20T10:38:20Z</time>
      </trkpt>
      <trkpt lat="44.43547" lon="5.59451">
        <ele>1268.6</ele>
        <time>2023-03-20T10:38:21Z</time>
      </trkpt>
      <trkpt lat="44.43547" lon="5.59451">
        <ele>1268.5</ele>
        <time>2023-03-20T10:38:22Z</time>
      </trkpt>
      <trkpt lat="44.43549" lon="5.59451">
        <ele>1268.5</ele>
        <time>2023-03-20T10:38:23Z</time>
      </trkpt>
      <trkpt lat="44.4355" lon="5.59452">
        <ele>1268.4</ele>
        <time>2023-03-20T10:38:24Z</time>
      </trkpt>
      <trkpt lat="44.43552" lon="5.59452">
        <ele>1268.4</ele>
        <time>2023-03-20T10:38:25Z</time>
      </trkpt>
      <trkpt lat="44.43553" lon="5.59452">
        <ele>1268.3</ele>
        <time>2023-03-20T10:38:26Z</time>
      </trkpt>
      <trkpt lat="44.43555" lon="5.59452">
        <ele>1268.3</ele>
        <time>2023-03-20T10:38:27Z</time>
      </trkpt>
      <trkpt lat="44.43556" lon="5.59451">
        <ele>1268.3</ele>
        <time>2023-03-20T10:38:28Z</time>
      </trkpt>
      <trkpt lat="44.43559" lon="5.5945">
        <ele>1268.2</ele>
        <time>2023-03-20T10:38:29Z</time>
      </trkpt>
      <trkpt lat="44.4356" lon="5.59449">
        <ele>1268.2</ele>
        <time>2023-03-20T10:38:30Z</time>
      </trkpt>
      <trkpt lat="44.43563" lon="5.59447">
        <ele>1268.2</ele>
        <time>2023-03-20T10:38:31Z</time>
      </trkpt>
      <trkpt lat="44.43565" lon="5.59447">
        <ele>1268.1</ele>
        <time>2023-03-20T10:38:32Z</time>
      </trkpt>
      <trkpt lat="44.43568" lon="5.59446">
        <ele>1268.1</ele>
        <time>2023-03-20T10:38:33Z</time>
      </trkpt>
      <trkpt lat="44.43573" lon="5.59445">
        <ele>1268</ele>
        <time>2023-03-20T10:38:34Z</time>
      </trkpt>
      <trkpt lat="44.43578" lon="5.59444">
        <ele>1268</ele>
        <time>2023-03-20T10:38:35Z</time>
      </trkpt>
      <trkpt lat="44.43584" lon="5.59444">
        <ele>1268</ele>
        <time>2023-03-20T10:38:36Z</time>
      </trkpt>
      <trkpt lat="44.43591" lon="5.59444">
        <ele>1267.9</ele>
        <time>2023-03-20T10:38:37Z</time>
      </trkpt>
      <trkpt lat="44.43598" lon="5.59444">
        <ele>1267.9</ele>
        <time>2023-03-20T10:38:38Z</time>
      </trkpt>
      <trkpt lat="44.43605" lon="5.59444">
        <ele>1267.9</ele>
        <time>2023-03-20T10:38:39Z</time>
      </trkpt>
      <trkpt lat="44.43611" lon="5.59443">
        <ele>1268</ele>
        <time>2023-03-20T10:38:40Z</time>
      </trkpt>
      <trkpt lat="44.43616" lon="5.59442">
        <ele>1268</ele>
        <time>2023-03-20T10:38:41Z</time>
      </trkpt>
      <trkpt lat="44.43621" lon="5.59439">
        <ele>1268.1</ele>
        <time>2023-03-20T10:38:42Z</time>
      </trkpt>
      <trkpt lat="44.43625" lon="5.59436">
        <ele>1268.2</ele>
        <time>2023-03-20T10:38:43Z</time>
      </trkpt>
      <trkpt lat="44.4363" lon="5.59433">
        <ele>1268.3</ele>
        <time>2023-03-20T10:38:44Z</time>
      </trkpt>
      <trkpt lat="44.43634" lon="5.5943">
        <ele>1268.3</ele>
        <time>2023-03-20T10:38:45Z</time>
      </trkpt>
      <trkpt lat="44.43637" lon="5.59429">
        <ele>1268.4</ele>
        <time>2023-03-20T10:38:46Z</time>
      </trkpt>
      <trkpt lat="44.4364" lon="5.59427">
        <ele>1268.4</ele>
        <time>2023-03-20T10:38:47Z</time>
      </trkpt>
      <trkpt lat="44.43643" lon="5.59426">
        <ele>1268.4</ele>
        <time>2023-03-20T10:38:48Z</time>
      </trkpt>
      <trkpt lat="44.43646" lon="5.59424">
        <ele>1268.5</ele>
        <time>2023-03-20T10:38:49Z</time>
      </trkpt>
      <trkpt lat="44.43647" lon="5.59424">
        <ele>1268.5</ele>
        <time>2023-03-20T10:38:50Z</time>
      </trkpt>
      <trkpt lat="44.43651" lon="5.59422">
        <ele>1268.5</ele>
        <time>2023-03-20T10:38:51Z</time>
      </trkpt>
      <trkpt lat="44.43652" lon="5.59422">
        <ele>1268.5</ele>
        <time>2023-03-20T10:38:52Z</time>
      </trkpt>
      <trkpt lat="44.43655" lon="5.5942">
        <ele>1268.6</ele>
        <time>2023-03-20T10:38:53Z</time>
      </trkpt>
      <trkpt lat="44.43656" lon="5.59419">
        <ele>1268.6</ele>
        <time>2023-03-20T10:38:54Z</time>
      </trkpt>
      <trkpt lat="44.43657" lon="5.59418">
        <ele>1268.6</ele>
        <time>2023-03-20T10:38:55Z</time>
      </trkpt>
      <trkpt lat="44.43659" lon="5.59417">
        <ele>1268.6</ele>
        <time>2023-03-20T10:38:56Z</time>
      </trkpt>
      <trkpt lat="44.43661" lon="5.59416">
        <ele>1268.7</ele>
        <time>2023-03-20T10:38:57Z</time>
      </trkpt>
      <trkpt lat="44.43662" lon="5.59415">
        <ele>1268.7</ele>
        <time>2023-03-20T10:38:58Z</time>
      </trkpt>
      <trkpt lat="44.43666" lon="5.59413">
        <ele>1268.7</ele>
        <time>2023-03-20T10:38:59Z</time>
      </trkpt>
      <trkpt lat="44.43667" lon="5.59412">
        <ele>1268.7</ele>
        <time>2023-03-20T10:39:00Z</time>
      </trkpt>
      <trkpt lat="44.4367" lon="5.59409">
        <ele>1268.8</ele>
        <time>2023-03-20T10:39:01Z</time>
      </trkpt>
      <trkpt lat="44.43671" lon="5.59408">
        <ele>1268.8</ele>
        <time>2023-03-20T10:39:02Z</time>
      </trkpt>
      <trkpt lat="44.43675" lon="5.59406">
        <ele>1268.8</ele>
        <time>2023-03-20T10:39:03Z</time>
      </trkpt>
      <trkpt lat="44.43676" lon="5.59405">
        <ele>1268.8</ele>
        <time>2023-03-20T10:39:04Z</time>
      </trkpt>
      <trkpt lat="44.43678" lon="5.59404">
        <ele>1268.8</ele>
        <time>2023-03-20T10:39:05Z</time>
      </trkpt>
      <trkpt lat="44.43681" lon="5.59403">
        <ele>1268.8</ele>
        <time>2023-03-20T10:39:06Z</time>
      </trkpt>
      <trkpt lat="44.43684" lon="5.59402">
        <ele>1268.7</ele>
        <time>2023-03-20T10:39:07Z</time>
      </trkpt>
      <trkpt lat="44.43686" lon="5.59402">
        <ele>1268.7</ele>
        <time>2023-03-20T10:39:08Z</time>
      </trkpt>
      <trkpt lat="44.43689" lon="5.59401">
        <ele>1268.6</ele>
        <time>2023-03-20T10:39:09Z</time>
      </trkpt>
      <trkpt lat="44.43692" lon="5.59399">
        <ele>1268.5</ele>
        <time>2023-03-20T10:39:10Z</time>
      </trkpt>
      <trkpt lat="44.43696" lon="5.59398">
        <ele>1268.4</ele>
        <time>2023-03-20T10:39:11Z</time>
      </trkpt>
      <trkpt lat="44.43697" lon="5.59397">
        <ele>1268.3</ele>
        <time>2023-03-20T10:39:12Z</time>
      </trkpt>
      <trkpt lat="44.43701" lon="5.59396">
        <ele>1268.2</ele>
        <time>2023-03-20T10:39:13Z</time>
      </trkpt>
      <trkpt lat="44.43703" lon="5.59395">
        <ele>1268.1</ele>
        <time>2023-03-20T10:39:14Z</time>
      </trkpt>
      <trkpt lat="44.43706" lon="5.59395">
        <ele>1268</ele>
        <time>2023-03-20T10:39:15Z</time>
      </trkpt>
      <trkpt lat="44.43709" lon="5.59394">
        <ele>1267.9</ele>
        <time>2023-03-20T10:39:16Z</time>
      </trkpt>
      <trkpt lat="44.43713" lon="5.59394">
        <ele>1267.8</ele>
        <time>2023-03-20T10:39:17Z</time>
      </trkpt>
      <trkpt lat="44.43716" lon="5.59394">
        <ele>1267.7</ele>
        <time>2023-03-20T10:39:18Z</time>
      </trkpt>
      <trkpt lat="44.4372" lon="5.59393">
        <ele>1267.6</ele>
        <time>2023-03-20T10:39:19Z</time>
      </trkpt>
      <trkpt lat="44.43724" lon="5.59393">
        <ele>1267.5</ele>
        <time>2023-03-20T10:39:20Z</time>
      </trkpt>
      <trkpt lat="44.43727" lon="5.59392">
        <ele>1267.4</ele>
        <time>2023-03-20T10:39:21Z</time>
      </trkpt>
      <trkpt lat="44.4373" lon="5.59392">
        <ele>1267.3</ele>
        <time>2023-03-20T10:39:22Z</time>
      </trkpt>
      <trkpt lat="44.43733" lon="5.59391">
        <ele>1267.2</ele>
        <time>2023-03-20T10:39:23Z</time>
      </trkpt>
      <trkpt lat="44.43737" lon="5.5939">
        <ele>1267.1</ele>
        <time>2023-03-20T10:39:24Z</time>
      </trkpt>
      <trkpt lat="44.43738" lon="5.5939">
        <ele>1267.1</ele>
        <time>2023-03-20T10:39:25Z</time>
      </trkpt>
      <trkpt lat="44.43741" lon="5.59389">
        <ele>1267</ele>
        <time>2023-03-20T10:39:26Z</time>
      </trkpt>
      <trkpt lat="44.43744" lon="5.59389">
        <ele>1266.9</ele>
        <time>2023-03-20T10:39:27Z</time>
      </trkpt>
      <trkpt lat="44.43747" lon="5.59388">
        <ele>1266.8</ele>
        <time>2023-03-20T10:39:28Z</time>
      </trkpt>
      <trkpt lat="44.43751" lon="5.59387">
        <ele>1266.7</ele>
        <time>2023-03-20T10:39:29Z</time>
      </trkpt>
      <trkpt lat="44.43755" lon="5.59386">
        <ele>1266.7</ele>
        <time>2023-03-20T10:39:30Z</time>
      </trkpt>
      <trkpt lat="44.43759" lon="5.59385">
        <ele>1266.6</ele>
        <time>2023-03-20T10:39:31Z</time>
      </trkpt>
      <trkpt lat="44.43763" lon="5.59385">
        <ele>1266.6</ele>
        <time>2023-03-20T10:39:32Z</time>
      </trkpt>
      <trkpt lat="44.43766" lon="5.59386">
        <ele>1266.5</ele>
        <time>2023-03-20T10:39:33Z</time>
      </trkpt>
      <trkpt lat="44.4377" lon="5.59387">
        <ele>1266.5</ele>
        <time>2023-03-20T10:39:34Z</time>
      </trkpt>
      <trkpt lat="44.43773" lon="5.59387">
        <ele>1266.4</ele>
        <time>2023-03-20T10:39:35Z</time>
      </trkpt>
      <trkpt lat="44.43776" lon="5.59388">
        <ele>1266.4</ele>
        <time>2023-03-20T10:39:36Z</time>
      </trkpt>
      <trkpt lat="44.43779" lon="5.5939">
        <ele>1266.3</ele>
        <time>2023-03-20T10:39:37Z</time>
      </trkpt>
      <trkpt lat="44.43782" lon="5.59392">
        <ele>1266.2</ele>
        <time>2023-03-20T10:39:38Z</time>
      </trkpt>
      <trkpt lat="44.43783" lon="5.59393">
        <ele>1266.2</ele>
        <time>2023-03-20T10:39:39Z</time>
      </trkpt>
      <trkpt lat="44.43786" lon="5.59395">
        <ele>1266.2</ele>
        <time>2023-03-20T10:39:40Z</time>
      </trkpt>
      <trkpt lat="44.43787" lon="5.59395">
        <ele>1266.1</ele>
        <time>2023-03-20T10:39:41Z</time>
      </trkpt>
      <trkpt lat="44.43789" lon="5.59395">
        <ele>1266.1</ele>
        <time>2023-03-20T10:39:42Z</time>
      </trkpt>
      <trkpt lat="44.4379" lon="5.59394">
        <ele>1266</ele>
        <time>2023-03-20T10:39:43Z</time>
      </trkpt>
      <trkpt lat="44.43792" lon="5.5939">
        <ele>1265.9</ele>
        <time>2023-03-20T10:39:44Z</time>
      </trkpt>
      <trkpt lat="44.43793" lon="5.59389">
        <ele>1265.9</ele>
        <time>2023-03-20T10:39:45Z</time>
      </trkpt>
      <trkpt lat="44.43795" lon="5.59386">
        <ele>1265.7</ele>
        <time>2023-03-20T10:39:46Z</time>
      </trkpt>
      <trkpt lat="44.43796" lon="5.59385">
        <ele>1265.7</ele>
        <time>2023-03-20T10:39:47Z</time>
      </trkpt>
      <trkpt lat="44.43798" lon="5.59385">
        <ele>1265.6</ele>
        <time>2023-03-20T10:39:48Z</time>
      </trkpt>
      <trkpt lat="44.43799" lon="5.59386">
        <ele>1265.5</ele>
        <time>2023-03-20T10:39:49Z</time>
      </trkpt>
      <trkpt lat="44.438" lon="5.59386">
        <ele>1265.5</ele>
        <time>2023-03-20T10:39:50Z</time>
      </trkpt>
      <trkpt lat="44.438" lon="5.59386">
        <ele>1265.5</ele>
        <time>2023-03-20T10:39:51Z</time>
      </trkpt>
      <trkpt lat="44.438" lon="5.59385">
        <ele>1265.4</ele>
        <time>2023-03-20T10:39:52Z</time>
      </trkpt>
      <trkpt lat="44.43801" lon="5.59385">
        <ele>1265.4</ele>
        <time>2023-03-20T10:39:53Z</time>
      </trkpt>
      <trkpt lat="44.43801" lon="5.59384">
        <ele>1265.4</ele>
        <time>2023-03-20T10:39:54Z</time>
      </trkpt>
      <trkpt lat="44.43802" lon="5.59383">
        <ele>1265.3</ele>
        <time>2023-03-20T10:39:55Z</time>
      </trkpt>
      <trkpt lat="44.43802" lon="5.59383">
        <ele>1265.3</ele>
        <time>2023-03-20T10:39:56Z</time>
      </trkpt>
      <trkpt lat="44.43803" lon="5.59382">
        <ele>1265.2</ele>
        <time>2023-03-20T10:39:57Z</time>
      </trkpt>
      <trkpt lat="44.43803" lon="5.59382">
        <ele>1265.2</ele>
        <time>2023-03-20T10:39:58Z</time>
      </trkpt>
      <trkpt lat="44.43804" lon="5.59381">
        <ele>1265.1</ele>
        <time>2023-03-20T10:39:59Z</time>
      </trkpt>
      <trkpt lat="44.43804" lon="5.59381">
        <ele>1265.1</ele>
        <time>2023-03-20T10:40:00Z</time>
      </trkpt>
      <trkpt lat="44.43804" lon="5.5938">
        <ele>1265</ele>
        <time>2023-03-20T10:41:32Z</time>
      </trkpt>
      <trkpt lat="44.43805" lon="5.5938">
        <ele>1265</ele>
        <time>2023-03-20T10:41:33Z</time>
      </trkpt>
      <trkpt lat="44.43805" lon="5.59379">
        <ele>1264.9</ele>
        <time>2023-03-20T10:41:34Z</time>
      </trkpt>
      <trkpt lat="44.43809" lon="5.59375">
        <ele>1264.4</ele>
        <time>2023-03-20T10:41:35Z</time>
      </trkpt>
      <trkpt lat="44.43814" lon="5.59372">
        <ele>1263.7</ele>
        <time>2023-03-20T10:41:36Z</time>
      </trkpt>
      <trkpt lat="44.43818" lon="5.59369">
        <ele>1262.9</ele>
        <time>2023-03-20T10:41:37Z</time>
      </trkpt>
      <trkpt lat="44.43823" lon="5.59366">
        <ele>1262.1</ele>
        <time>2023-03-20T10:41:38Z</time>
      </trkpt>
      <trkpt lat="44.43829" lon="5.59364">
        <ele>1261.3</ele>
        <time>2023-03-20T10:41:39Z</time>
      </trkpt>
      <trkpt lat="44.43834" lon="5.59362">
        <ele>1260.6</ele>
        <time>2023-03-20T10:41:40Z</time>
      </trkpt>
      <trkpt lat="44.43839" lon="5.5936">
        <ele>1260.1</ele>
        <time>2023-03-20T10:41:41Z</time>
      </trkpt>
      <trkpt lat="44.43844" lon="5.59358">
        <ele>1259.6</ele>
        <time>2023-03-20T10:41:42Z</time>
      </trkpt>
      <trkpt lat="44.4385" lon="5.59356">
        <ele>1259.1</ele>
        <time>2023-03-20T10:41:43Z</time>
      </trkpt>
      <trkpt lat="44.43856" lon="5.59356">
        <ele>1258.6</ele>
        <time>2023-03-20T10:41:44Z</time>
      </trkpt>
      <trkpt lat="44.43862" lon="5.59357">
        <ele>1258.1</ele>
        <time>2023-03-20T10:41:45Z</time>
      </trkpt>
      <trkpt lat="44.43868" lon="5.59357">
        <ele>1257.6</ele>
        <time>2023-03-20T10:41:46Z</time>
      </trkpt>
      <trkpt lat="44.43875" lon="5.59357">
        <ele>1257.2</ele>
        <time>2023-03-20T10:41:47Z</time>
      </trkpt>
      <trkpt lat="44.43882" lon="5.59357">
        <ele>1256.7</ele>
        <time>2023-03-20T10:41:48Z</time>
      </trkpt>
      <trkpt lat="44.43889" lon="5.59357">
        <ele>1256.1</ele>
        <time>2023-03-20T10:41:49Z</time>
      </trkpt>
      <trkpt lat="44.43897" lon="5.59357">
        <ele>1255.3</ele>
        <time>2023-03-20T10:41:50Z</time>
      </trkpt>
      <trkpt lat="44.43906" lon="5.59359">
        <ele>1254.5</ele>
        <time>2023-03-20T10:41:51Z</time>
      </trkpt>
      <trkpt lat="44.43915" lon="5.59361">
        <ele>1253.7</ele>
        <time>2023-03-20T10:41:52Z</time>
      </trkpt>
      <trkpt lat="44.43923" lon="5.59364">
        <ele>1253.2</ele>
        <time>2023-03-20T10:41:53Z</time>
      </trkpt>
      <trkpt lat="44.43932" lon="5.59368">
        <ele>1252.6</ele>
        <time>2023-03-20T10:41:54Z</time>
      </trkpt>
      <trkpt lat="44.43939" lon="5.59372">
        <ele>1252</ele>
        <time>2023-03-20T10:41:55Z</time>
      </trkpt>
      <trkpt lat="44.43947" lon="5.59376">
        <ele>1251.5</ele>
        <time>2023-03-20T10:41:56Z</time>
      </trkpt>
      <trkpt lat="44.43953" lon="5.59381">
        <ele>1251</ele>
        <time>2023-03-20T10:41:57Z</time>
      </trkpt>
      <trkpt lat="44.4396" lon="5.59387">
        <ele>1250.5</ele>
        <time>2023-03-20T10:41:58Z</time>
      </trkpt>
      <trkpt lat="44.43967" lon="5.59394">
        <ele>1250</ele>
        <time>2023-03-20T10:41:59Z</time>
      </trkpt>
      <trkpt lat="44.43974" lon="5.59397">
        <ele>1249.5</ele>
        <time>2023-03-20T10:42:00Z</time>
      </trkpt>
      <trkpt lat="44.43982" lon="5.59399">
        <ele>1248.9</ele>
        <time>2023-03-20T10:42:01Z</time>
      </trkpt>
      <trkpt lat="44.43991" lon="5.594">
        <ele>1248.2</ele>
        <time>2023-03-20T10:42:02Z</time>
      </trkpt>
      <trkpt lat="44.44" lon="5.59403">
        <ele>1247.4</ele>
        <time>2023-03-20T10:42:03Z</time>
      </trkpt>
      <trkpt lat="44.44009" lon="5.59407">
        <ele>1246.8</ele>
        <time>2023-03-20T10:42:04Z</time>
      </trkpt>
      <trkpt lat="44.44017" lon="5.5941">
        <ele>1246.3</ele>
        <time>2023-03-20T10:42:05Z</time>
      </trkpt>
      <trkpt lat="44.44024" lon="5.59415">
        <ele>1245.8</ele>
        <time>2023-03-20T10:42:06Z</time>
      </trkpt>
      <trkpt lat="44.44031" lon="5.59419">
        <ele>1245.1</ele>
        <time>2023-03-20T10:42:07Z</time>
      </trkpt>
      <trkpt lat="44.44038" lon="5.59424">
        <ele>1244.4</ele>
        <time>2023-03-20T10:42:08Z</time>
      </trkpt>
      <trkpt lat="44.44045" lon="5.59429">
        <ele>1243.7</ele>
        <time>2023-03-20T10:42:09Z</time>
      </trkpt>
      <trkpt lat="44.44051" lon="5.59434">
        <ele>1243</ele>
        <time>2023-03-20T10:42:10Z</time>
      </trkpt>
      <trkpt lat="44.44058" lon="5.59439">
        <ele>1242.3</ele>
        <time>2023-03-20T10:42:11Z</time>
      </trkpt>
      <trkpt lat="44.44065" lon="5.59442">
        <ele>1241.7</ele>
        <time>2023-03-20T10:42:12Z</time>
      </trkpt>
      <trkpt lat="44.44072" lon="5.59444">
        <ele>1241.2</ele>
        <time>2023-03-20T10:42:13Z</time>
      </trkpt>
      <trkpt lat="44.44079" lon="5.59445">
        <ele>1240.8</ele>
        <time>2023-03-20T10:42:14Z</time>
      </trkpt>
      <trkpt lat="44.44087" lon="5.59448">
        <ele>1240.3</ele>
        <time>2023-03-20T10:42:15Z</time>
      </trkpt>
      <trkpt lat="44.44095" lon="5.59451">
        <ele>1239.8</ele>
        <time>2023-03-20T10:42:16Z</time>
      </trkpt>
      <trkpt lat="44.44103" lon="5.59454">
        <ele>1239.4</ele>
        <time>2023-03-20T10:42:17Z</time>
      </trkpt>
      <trkpt lat="44.4411" lon="5.5946">
        <ele>1238.8</ele>
        <time>2023-03-20T10:42:18Z</time>
      </trkpt>
      <trkpt lat="44.44118" lon="5.59469">
        <ele>1238.3</ele>
        <time>2023-03-20T10:42:19Z</time>
      </trkpt>
      <trkpt lat="44.44126" lon="5.59479">
        <ele>1237.9</ele>
        <time>2023-03-20T10:42:20Z</time>
      </trkpt>
      <trkpt lat="44.44131" lon="5.59488">
        <ele>1237.8</ele>
        <time>2023-03-20T10:42:21Z</time>
      </trkpt>
      <trkpt lat="44.44135" lon="5.59499">
        <ele>1237.8</ele>
        <time>2023-03-20T10:42:22Z</time>
      </trkpt>
      <trkpt lat="44.44139" lon="5.59511">
        <ele>1237.6</ele>
        <time>2023-03-20T10:42:23Z</time>
      </trkpt>
      <trkpt lat="44.44143" lon="5.59522">
        <ele>1237.3</ele>
        <time>2023-03-20T10:42:24Z</time>
      </trkpt>
      <trkpt lat="44.44148" lon="5.59533">
        <ele>1236.9</ele>
        <time>2023-03-20T10:42:25Z</time>
      </trkpt>
      <trkpt lat="44.44152" lon="5.59544">
        <ele>1236.6</ele>
        <time>2023-03-20T10:42:26Z</time>
      </trkpt>
      <trkpt lat="44.44156" lon="5.59554">
        <ele>1236.6</ele>
        <time>2023-03-20T10:42:27Z</time>
      </trkpt>
      <trkpt lat="44.4416" lon="5.59564">
        <ele>1236.7</ele>
        <time>2023-03-20T10:42:28Z</time>
      </trkpt>
      <trkpt lat="44.44164" lon="5.59574">
        <ele>1236.9</ele>
        <time>2023-03-20T10:42:29Z</time>
      </trkpt>
      <trkpt lat="44.44167" lon="5.59582">
        <ele>1237.1</ele>
        <time>2023-03-20T10:42:30Z</time>
      </trkpt>
      <trkpt lat="44.4417" lon="5.5959">
        <ele>1237.3</ele>
        <time>2023-03-20T10:42:31Z</time>
      </trkpt>
      <trkpt lat="44.44172" lon="5.59597">
        <ele>1237.6</ele>
        <time>2023-03-20T10:42:32Z</time>
      </trkpt>
      <trkpt lat="44.44174" lon="5.59603">
        <ele>1237.9</ele>
        <time>2023-03-20T10:42:33Z</time>
      </trkpt>
      <trkpt lat="44.44176" lon="5.59609">
        <ele>1238.2</ele>
        <time>2023-03-20T10:42:34Z</time>
      </trkpt>
      <trkpt lat="44.44177" lon="5.59613">
        <ele>1238.4</ele>
        <time>2023-03-20T10:42:35Z</time>
      </trkpt>
      <trkpt lat="44.44178" lon="5.59618">
        <ele>1238.7</ele>
        <time>2023-03-20T10:42:36Z</time>
      </trkpt>
      <trkpt lat="44.44178" lon="5.5962">
        <ele>1238.8</ele>
        <time>2023-03-20T10:42:37Z</time>
      </trkpt>
      <trkpt lat="44.44179" lon="5.59625">
        <ele>1239.1</ele>
        <time>2023-03-20T10:42:38Z</time>
      </trkpt>
      <trkpt lat="44.44179" lon="5.59628">
        <ele>1239.3</ele>
        <time>2023-03-20T10:42:39Z</time>
      </trkpt>
      <trkpt lat="44.4418" lon="5.59632">
        <ele>1239.5</ele>
        <time>2023-03-20T10:42:40Z</time>
      </trkpt>
      <trkpt lat="44.4418" lon="5.59637">
        <ele>1239.8</ele>
        <time>2023-03-20T10:42:41Z</time>
      </trkpt>
      <trkpt lat="44.44181" lon="5.59641">
        <ele>1240.1</ele>
        <time>2023-03-20T10:42:42Z</time>
      </trkpt>
      <trkpt lat="44.44182" lon="5.59645">
        <ele>1240.4</ele>
        <time>2023-03-20T10:42:43Z</time>
      </trkpt>
      <trkpt lat="44.44182" lon="5.59647">
        <ele>1240.5</ele>
        <time>2023-03-20T10:42:44Z</time>
      </trkpt>
      <trkpt lat="44.44183" lon="5.59651">
        <ele>1240.9</ele>
        <time>2023-03-20T10:42:45Z</time>
      </trkpt>
      <trkpt lat="44.44183" lon="5.59655">
        <ele>1241.2</ele>
        <time>2023-03-20T10:42:46Z</time>
      </trkpt>
      <trkpt lat="44.44184" lon="5.5966">
        <ele>1241.6</ele>
        <time>2023-03-20T10:42:47Z</time>
      </trkpt>
      <trkpt lat="44.44184" lon="5.59662">
        <ele>1241.7</ele>
        <time>2023-03-20T10:42:48Z</time>
      </trkpt>
      <trkpt lat="44.44184" lon="5.59667">
        <ele>1242.1</ele>
        <time>2023-03-20T10:42:49Z</time>
      </trkpt>
      <trkpt lat="44.44184" lon="5.59668">
        <ele>1242.3</ele>
        <time>2023-03-20T10:42:50Z</time>
      </trkpt>
      <trkpt lat="44.44184" lon="5.59673">
        <ele>1242.6</ele>
        <time>2023-03-20T10:42:51Z</time>
      </trkpt>
      <trkpt lat="44.44184" lon="5.59674">
        <ele>1242.7</ele>
        <time>2023-03-20T10:42:52Z</time>
      </trkpt>
      <trkpt lat="44.44185" lon="5.59679">
        <ele>1243</ele>
        <time>2023-03-20T10:42:53Z</time>
      </trkpt>
      <trkpt lat="44.44185" lon="5.5968">
        <ele>1243.1</ele>
        <time>2023-03-20T10:42:54Z</time>
      </trkpt>
      <trkpt lat="44.44186" lon="5.59684">
        <ele>1243.4</ele>
        <time>2023-03-20T10:42:55Z</time>
      </trkpt>
      <trkpt lat="44.44186" lon="5.59685">
        <ele>1243.5</ele>
        <time>2023-03-20T10:42:56Z</time>
      </trkpt>
      <trkpt lat="44.44186" lon="5.5969">
        <ele>1243.7</ele>
        <time>2023-03-20T10:42:57Z</time>
      </trkpt>
      <trkpt lat="44.44186" lon="5.59691">
        <ele>1243.8</ele>
        <time>2023-03-20T10:42:58Z</time>
      </trkpt>
      <trkpt lat="44.44185" lon="5.59695">
        <ele>1244</ele>
        <time>2023-03-20T10:42:59Z</time>
      </trkpt>
      <trkpt lat="44.44185" lon="5.59697">
        <ele>1244.1</ele>
        <time>2023-03-20T10:43:00Z</time>
      </trkpt>
      <trkpt lat="44.44185" lon="5.59701">
        <ele>1244.2</ele>
        <time>2023-03-20T10:43:01Z</time>
      </trkpt>
      <trkpt lat="44.44185" lon="5.59702">
        <ele>1244.3</ele>
        <time>2023-03-20T10:43:02Z</time>
      </trkpt>
      <trkpt lat="44.44185" lon="5.59706">
        <ele>1244.4</ele>
        <time>2023-03-20T10:43:03Z</time>
      </trkpt>
      <trkpt lat="44.44185" lon="5.59708">
        <ele>1244.5</ele>
        <time>2023-03-20T10:43:04Z</time>
      </trkpt>
      <trkpt lat="44.44184" lon="5.59711">
        <ele>1244.7</ele>
        <time>2023-03-20T10:43:05Z</time>
      </trkpt>
      <trkpt lat="44.44184" lon="5.59713">
        <ele>1244.7</ele>
        <time>2023-03-20T10:43:06Z</time>
      </trkpt>
      <trkpt lat="44.44184" lon="5.59717">
        <ele>1244.9</ele>
        <time>2023-03-20T10:43:07Z</time>
      </trkpt>
      <trkpt lat="44.44184" lon="5.59719">
        <ele>1245</ele>
        <time>2023-03-20T10:43:08Z</time>
      </trkpt>
      <trkpt lat="44.44184" lon="5.59723">
        <ele>1245.3</ele>
        <time>2023-03-20T10:43:09Z</time>
      </trkpt>
      <trkpt lat="44.44184" lon="5.59725">
        <ele>1245.4</ele>
        <time>2023-03-20T10:43:10Z</time>
      </trkpt>
      <trkpt lat="44.44184" lon="5.59727">
        <ele>1245.5</ele>
        <time>2023-03-20T10:43:11Z</time>
      </trkpt>
      <trkpt lat="44.44184" lon="5.5973">
        <ele>1245.7</ele>
        <time>2023-03-20T10:43:12Z</time>
      </trkpt>
      <trkpt lat="44.44184" lon="5.59734">
        <ele>1246</ele>
        <time>2023-03-20T10:43:13Z</time>
      </trkpt>
      <trkpt lat="44.44184" lon="5.59735">
        <ele>1246.1</ele>
        <time>2023-03-20T10:43:14Z</time>
      </trkpt>
      <trkpt lat="44.44185" lon="5.59738">
        <ele>1246.3</ele>
        <time>2023-03-20T10:43:15Z</time>
      </trkpt>
      <trkpt lat="44.44185" lon="5.5974">
        <ele>1246.5</ele>
        <time>2023-03-20T10:43:16Z</time>
      </trkpt>
      <trkpt lat="44.44186" lon="5.59743">
        <ele>1246.7</ele>
        <time>2023-03-20T10:43:17Z</time>
      </trkpt>
      <trkpt lat="44.44186" lon="5.59745">
        <ele>1246.9</ele>
        <time>2023-03-20T10:43:18Z</time>
      </trkpt>
      <trkpt lat="44.44187" lon="5.59749">
        <ele>1247.2</ele>
        <time>2023-03-20T10:43:19Z</time>
      </trkpt>
      <trkpt lat="44.44187" lon="5.5975">
        <ele>1247.3</ele>
        <time>2023-03-20T10:43:20Z</time>
      </trkpt>
      <trkpt lat="44.44187" lon="5.59754">
        <ele>1247.7</ele>
        <time>2023-03-20T10:43:21Z</time>
      </trkpt>
      <trkpt lat="44.44187" lon="5.59755">
        <ele>1247.8</ele>
        <time>2023-03-20T10:43:22Z</time>
      </trkpt>
      <trkpt lat="44.44187" lon="5.5976">
        <ele>1248.2</ele>
        <time>2023-03-20T10:43:23Z</time>
      </trkpt>
      <trkpt lat="44.44187" lon="5.59761">
        <ele>1248.3</ele>
        <time>2023-03-20T10:43:24Z</time>
      </trkpt>
      <trkpt lat="44.44187" lon="5.59766">
        <ele>1248.7</ele>
        <time>2023-03-20T10:43:25Z</time>
      </trkpt>
      <trkpt lat="44.44187" lon="5.59767">
        <ele>1248.8</ele>
        <time>2023-03-20T10:43:26Z</time>
      </trkpt>
      <trkpt lat="44.44188" lon="5.5977">
        <ele>1249</ele>
        <time>2023-03-20T10:43:27Z</time>
      </trkpt>
      <trkpt lat="44.44188" lon="5.59772">
        <ele>1249.2</ele>
        <time>2023-03-20T10:43:28Z</time>
      </trkpt>
      <trkpt lat="44.44188" lon="5.59774">
        <ele>1249.4</ele>
        <time>2023-03-20T10:43:29Z</time>
      </trkpt>
      <trkpt lat="44.44189" lon="5.59776">
        <ele>1249.6</ele>
        <time>2023-03-20T10:43:30Z</time>
      </trkpt>
      <trkpt lat="44.4419" lon="5.59778">
        <ele>1249.8</ele>
        <time>2023-03-20T10:43:31Z</time>
      </trkpt>
      <trkpt lat="44.44191" lon="5.5978">
        <ele>1250</ele>
        <time>2023-03-20T10:43:32Z</time>
      </trkpt>
      <trkpt lat="44.4419" lon="5.59782">
        <ele>1250.2</ele>
        <time>2023-03-20T10:43:33Z</time>
      </trkpt>
      <trkpt lat="44.4419" lon="5.59784">
        <ele>1250.4</ele>
        <time>2023-03-20T10:43:34Z</time>
      </trkpt>
      <trkpt lat="44.44189" lon="5.59789">
        <ele>1250.8</ele>
        <time>2023-03-20T10:43:35Z</time>
      </trkpt>
      <trkpt lat="44.44189" lon="5.59791">
        <ele>1250.9</ele>
        <time>2023-03-20T10:43:36Z</time>
      </trkpt>
      <trkpt lat="44.44188" lon="5.59795">
        <ele>1251.3</ele>
        <time>2023-03-20T10:43:37Z</time>
      </trkpt>
      <trkpt lat="44.44188" lon="5.598">
        <ele>1251.6</ele>
        <time>2023-03-20T10:43:38Z</time>
      </trkpt>
      <trkpt lat="44.44188" lon="5.59802">
        <ele>1251.8</ele>
        <time>2023-03-20T10:43:39Z</time>
      </trkpt>
      <trkpt lat="44.44188" lon="5.59807">
        <ele>1252.1</ele>
        <time>2023-03-20T10:43:40Z</time>
      </trkpt>
      <trkpt lat="44.44188" lon="5.59808">
        <ele>1252.2</ele>
        <time>2023-03-20T10:43:41Z</time>
      </trkpt>
      <trkpt lat="44.44188" lon="5.59813">
        <ele>1252.4</ele>
        <time>2023-03-20T10:43:42Z</time>
      </trkpt>
      <trkpt lat="44.44188" lon="5.59814">
        <ele>1252.5</ele>
        <time>2023-03-20T10:43:43Z</time>
      </trkpt>
      <trkpt lat="44.44188" lon="5.59818">
        <ele>1252.7</ele>
        <time>2023-03-20T10:43:44Z</time>
      </trkpt>
      <trkpt lat="44.44187" lon="5.5982">
        <ele>1252.7</ele>
        <time>2023-03-20T10:43:45Z</time>
      </trkpt>
      <trkpt lat="44.44187" lon="5.59824">
        <ele>1253</ele>
        <time>2023-03-20T10:43:46Z</time>
      </trkpt>
      <trkpt lat="44.44187" lon="5.59825">
        <ele>1253</ele>
        <time>2023-03-20T10:43:47Z</time>
      </trkpt>
      <trkpt lat="44.44187" lon="5.5983">
        <ele>1253.3</ele>
        <time>2023-03-20T10:43:48Z</time>
      </trkpt>
      <trkpt lat="44.44187" lon="5.59832">
        <ele>1253.3</ele>
        <time>2023-03-20T10:43:49Z</time>
      </trkpt>
      <trkpt lat="44.44186" lon="5.59837">
        <ele>1253.5</ele>
        <time>2023-03-20T10:43:50Z</time>
      </trkpt>
      <trkpt lat="44.44186" lon="5.59838">
        <ele>1253.6</ele>
        <time>2023-03-20T10:43:51Z</time>
      </trkpt>
      <trkpt lat="44.44186" lon="5.59842">
        <ele>1253.8</ele>
        <time>2023-03-20T10:43:52Z</time>
      </trkpt>
      <trkpt lat="44.44186" lon="5.59844">
        <ele>1253.9</ele>
        <time>2023-03-20T10:43:53Z</time>
      </trkpt>
      <trkpt lat="44.44186" lon="5.59849">
        <ele>1254.1</ele>
        <time>2023-03-20T10:43:54Z</time>
      </trkpt>
      <trkpt lat="44.44186" lon="5.59851">
        <ele>1254.2</ele>
        <time>2023-03-20T10:43:55Z</time>
      </trkpt>
      <trkpt lat="44.44186" lon="5.59857">
        <ele>1254.4</ele>
        <time>2023-03-20T10:43:56Z</time>
      </trkpt>
      <trkpt lat="44.44186" lon="5.59859">
        <ele>1254.4</ele>
        <time>2023-03-20T10:43:57Z</time>
      </trkpt>
      <trkpt lat="44.44186" lon="5.59862">
        <ele>1254.6</ele>
        <time>2023-03-20T10:43:58Z</time>
      </trkpt>
      <trkpt lat="44.44186" lon="5.59866">
        <ele>1254.7</ele>
        <time>2023-03-20T10:43:59Z</time>
      </trkpt>
      <trkpt lat="44.44186" lon="5.59871">
        <ele>1254.8</ele>
        <time>2023-03-20T10:44:00Z</time>
      </trkpt>
      <trkpt lat="44.44186" lon="5.59876">
        <ele>1254.9</ele>
        <time>2023-03-20T10:44:01Z</time>
      </trkpt>
      <trkpt lat="44.44185" lon="5.59881">
        <ele>1255</ele>
        <time>2023-03-20T10:44:02Z</time>
      </trkpt>
      <trkpt lat="44.44185" lon="5.59885">
        <ele>1255.1</ele>
        <time>2023-03-20T10:44:03Z</time>
      </trkpt>
      <trkpt lat="44.44184" lon="5.59889">
        <ele>1255.2</ele>
        <time>2023-03-20T10:44:04Z</time>
      </trkpt>
      <trkpt lat="44.44183" lon="5.59893">
        <ele>1255.3</ele>
        <time>2023-03-20T10:44:05Z</time>
      </trkpt>
      <trkpt lat="44.44183" lon="5.59897">
        <ele>1255.3</ele>
        <time>2023-03-20T10:44:06Z</time>
      </trkpt>
      <trkpt lat="44.44182" lon="5.59901">
        <ele>1255.4</ele>
        <time>2023-03-20T10:44:07Z</time>
      </trkpt>
      <trkpt lat="44.44182" lon="5.59906">
        <ele>1255.5</ele>
        <time>2023-03-20T10:44:08Z</time>
      </trkpt>
      <trkpt lat="44.44181" lon="5.59908">
        <ele>1255.6</ele>
        <time>2023-03-20T10:44:09Z</time>
      </trkpt>
      <trkpt lat="44.44181" lon="5.59913">
        <ele>1255.7</ele>
        <time>2023-03-20T10:44:10Z</time>
      </trkpt>
      <trkpt lat="44.4418" lon="5.59917">
        <ele>1255.8</ele>
        <time>2023-03-20T10:44:11Z</time>
      </trkpt>
      <trkpt lat="44.44179" lon="5.59921">
        <ele>1256</ele>
        <time>2023-03-20T10:44:12Z</time>
      </trkpt>
      <trkpt lat="44.44178" lon="5.59925">
        <ele>1256.1</ele>
        <time>2023-03-20T10:44:13Z</time>
      </trkpt>
      <trkpt lat="44.44177" lon="5.59928">
        <ele>1256.3</ele>
        <time>2023-03-20T10:44:14Z</time>
      </trkpt>
      <trkpt lat="44.44176" lon="5.59932">
        <ele>1256.5</ele>
        <time>2023-03-20T10:44:15Z</time>
      </trkpt>
      <trkpt lat="44.44176" lon="5.59936">
        <ele>1256.7</ele>
        <time>2023-03-20T10:44:16Z</time>
      </trkpt>
      <trkpt lat="44.44175" lon="5.59941">
        <ele>1256.9</ele>
        <time>2023-03-20T10:44:17Z</time>
      </trkpt>
      <trkpt lat="44.44175" lon="5.59943">
        <ele>1257</ele>
        <time>2023-03-20T10:44:18Z</time>
      </trkpt>
      <trkpt lat="44.44174" lon="5.59947">
        <ele>1257.2</ele>
        <time>2023-03-20T10:44:19Z</time>
      </trkpt>
      <trkpt lat="44.44173" lon="5.59949">
        <ele>1257.3</ele>
        <time>2023-03-20T10:44:20Z</time>
      </trkpt>
      <trkpt lat="44.44172" lon="5.59953">
        <ele>1257.5</ele>
        <time>2023-03-20T10:44:21Z</time>
      </trkpt>
      <trkpt lat="44.44172" lon="5.59954">
        <ele>1257.6</ele>
        <time>2023-03-20T10:44:22Z</time>
      </trkpt>
      <trkpt lat="44.4417" lon="5.59958">
        <ele>1257.8</ele>
        <time>2023-03-20T10:44:23Z</time>
      </trkpt>
      <trkpt lat="44.4417" lon="5.5996">
        <ele>1257.9</ele>
        <time>2023-03-20T10:44:24Z</time>
      </trkpt>
      <trkpt lat="44.44168" lon="5.59962">
        <ele>1258.1</ele>
        <time>2023-03-20T10:44:25Z</time>
      </trkpt>
      <trkpt lat="44.44167" lon="5.59963">
        <ele>1258.2</ele>
        <time>2023-03-20T10:44:26Z</time>
      </trkpt>
      <trkpt lat="44.44165" lon="5.59967">
        <ele>1258.5</ele>
        <time>2023-03-20T10:44:27Z</time>
      </trkpt>
      <trkpt lat="44.44165" lon="5.59968">
        <ele>1258.6</ele>
        <time>2023-03-20T10:44:28Z</time>
      </trkpt>
      <trkpt lat="44.44163" lon="5.59972">
        <ele>1258.8</ele>
        <time>2023-03-20T10:44:29Z</time>
      </trkpt>
      <trkpt lat="44.44162" lon="5.59973">
        <ele>1258.9</ele>
        <time>2023-03-20T10:44:30Z</time>
      </trkpt>
      <trkpt lat="44.44161" lon="5.59977">
        <ele>1259.2</ele>
        <time>2023-03-20T10:44:31Z</time>
      </trkpt>
      <trkpt lat="44.4416" lon="5.59979">
        <ele>1259.3</ele>
        <time>2023-03-20T10:44:32Z</time>
      </trkpt>
      <trkpt lat="44.44158" lon="5.59983">
        <ele>1259.6</ele>
        <time>2023-03-20T10:44:33Z</time>
      </trkpt>
      <trkpt lat="44.44158" lon="5.59984">
        <ele>1259.7</ele>
        <time>2023-03-20T10:44:34Z</time>
      </trkpt>
      <trkpt lat="44.44157" lon="5.59988">
        <ele>1260</ele>
        <time>2023-03-20T10:44:35Z</time>
      </trkpt>
      <trkpt lat="44.44156" lon="5.59989">
        <ele>1260</ele>
        <time>2023-03-20T10:44:36Z</time>
      </trkpt>
      <trkpt lat="44.44156" lon="5.59991">
        <ele>1260.2</ele>
        <time>2023-03-20T10:44:37Z</time>
      </trkpt>
      <trkpt lat="44.44155" lon="5.59994">
        <ele>1260.3</ele>
        <time>2023-03-20T10:44:38Z</time>
      </trkpt>
      <trkpt lat="44.44154" lon="5.59998">
        <ele>1260.6</ele>
        <time>2023-03-20T10:44:39Z</time>
      </trkpt>
      <trkpt lat="44.44154" lon="5.59999">
        <ele>1260.7</ele>
        <time>2023-03-20T10:44:40Z</time>
      </trkpt>
      <trkpt lat="44.44154" lon="5.60001">
        <ele>1260.8</ele>
        <time>2023-03-20T10:44:41Z</time>
      </trkpt>
      <trkpt lat="44.44154" lon="5.60004">
        <ele>1260.9</ele>
        <time>2023-03-20T10:44:42Z</time>
      </trkpt>
      <trkpt lat="44.44154" lon="5.60008">
        <ele>1261.1</ele>
        <time>2023-03-20T10:44:43Z</time>
      </trkpt>
      <trkpt lat="44.44154" lon="5.60009">
        <ele>1261.2</ele>
        <time>2023-03-20T10:44:44Z</time>
      </trkpt>
      <trkpt lat="44.44154" lon="5.60013">
        <ele>1261.4</ele>
        <time>2023-03-20T10:44:45Z</time>
      </trkpt>
      <trkpt lat="44.44154" lon="5.60014">
        <ele>1261.5</ele>
        <time>2023-03-20T10:44:46Z</time>
      </trkpt>
      <trkpt lat="44.44154" lon="5.60019">
        <ele>1261.8</ele>
        <time>2023-03-20T10:44:47Z</time>
      </trkpt>
      <trkpt lat="44.44154" lon="5.6002">
        <ele>1261.8</ele>
        <time>2023-03-20T10:44:48Z</time>
      </trkpt>
      <trkpt lat="44.44154" lon="5.60025">
        <ele>1262.1</ele>
        <time>2023-03-20T10:44:49Z</time>
      </trkpt>
      <trkpt lat="44.44153" lon="5.60026">
        <ele>1262.2</ele>
        <time>2023-03-20T10:44:50Z</time>
      </trkpt>
      <trkpt lat="44.44153" lon="5.6003">
        <ele>1262.4</ele>
        <time>2023-03-20T10:44:51Z</time>
      </trkpt>
      <trkpt lat="44.44153" lon="5.60032">
        <ele>1262.5</ele>
        <time>2023-03-20T10:44:52Z</time>
      </trkpt>
      <trkpt lat="44.44152" lon="5.60034">
        <ele>1262.7</ele>
        <time>2023-03-20T10:44:53Z</time>
      </trkpt>
      <trkpt lat="44.44152" lon="5.60036">
        <ele>1262.8</ele>
        <time>2023-03-20T10:44:54Z</time>
      </trkpt>
      <trkpt lat="44.44152" lon="5.60039">
        <ele>1263</ele>
        <time>2023-03-20T10:44:55Z</time>
      </trkpt>
      <trkpt lat="44.44152" lon="5.60041">
        <ele>1263.2</ele>
        <time>2023-03-20T10:44:56Z</time>
      </trkpt>
      <trkpt lat="44.44152" lon="5.60045">
        <ele>1263.4</ele>
        <time>2023-03-20T10:44:57Z</time>
      </trkpt>
      <trkpt lat="44.44152" lon="5.60046">
        <ele>1263.6</ele>
        <time>2023-03-20T10:44:58Z</time>
      </trkpt>
      <trkpt lat="44.44152" lon="5.60049">
        <ele>1263.8</ele>
        <time>2023-03-20T10:44:59Z</time>
      </trkpt>
      <trkpt lat="44.44152" lon="5.60051">
        <ele>1263.9</ele>
        <time>2023-03-20T10:45:00Z</time>
      </trkpt>
      <trkpt lat="44.44152" lon="5.60054">
        <ele>1264.1</ele>
        <time>2023-03-20T10:45:01Z</time>
      </trkpt>
      <trkpt lat="44.44152" lon="5.60055">
        <ele>1264.2</ele>
        <time>2023-03-20T10:45:02Z</time>
      </trkpt>
      <trkpt lat="44.44152" lon="5.60057">
        <ele>1264.3</ele>
        <time>2023-03-20T10:45:03Z</time>
      </trkpt>
      <trkpt lat="44.44152" lon="5.60057">
        <ele>1264.3</ele>
        <time>2023-03-20T10:45:04Z</time>
      </trkpt>
      <trkpt lat="44.44152" lon="5.60057">
        <ele>1264.3</ele>
        <time>2023-03-20T10:45:05Z</time>
      </trkpt>
      <trkpt lat="44.44151" lon="5.60061">
        <ele>1264.6</ele>
        <time>2023-03-20T10:45:06Z</time>
      </trkpt>
      <trkpt lat="44.44151" lon="5.60066">
        <ele>1265</ele>
        <time>2023-03-20T10:45:07Z</time>
      </trkpt>
      <trkpt lat="44.44151" lon="5.60067">
        <ele>1265.1</ele>
        <time>2023-03-20T10:45:08Z</time>
      </trkpt>
      <trkpt lat="44.44151" lon="5.60071">
        <ele>1265.4</ele>
        <time>2023-03-20T10:45:09Z</time>
      </trkpt>
      <trkpt lat="44.44151" lon="5.60073">
        <ele>1265.5</ele>
        <time>2023-03-20T10:45:10Z</time>
      </trkpt>
      <trkpt lat="44.44151" lon="5.60077">
        <ele>1265.7</ele>
        <time>2023-03-20T10:45:11Z</time>
      </trkpt>
      <trkpt lat="44.44151" lon="5.60078">
        <ele>1265.8</ele>
        <time>2023-03-20T10:45:12Z</time>
      </trkpt>
      <trkpt lat="44.44151" lon="5.60081">
        <ele>1266</ele>
        <time>2023-03-20T10:45:13Z</time>
      </trkpt>
      <trkpt lat="44.44151" lon="5.60083">
        <ele>1266.2</ele>
        <time>2023-03-20T10:45:14Z</time>
      </trkpt>
      <trkpt lat="44.44151" lon="5.60085">
        <ele>1266.4</ele>
        <time>2023-03-20T10:45:15Z</time>
      </trkpt>
      <trkpt lat="44.44151" lon="5.60088">
        <ele>1266.6</ele>
        <time>2023-03-20T10:45:16Z</time>
      </trkpt>
      <trkpt lat="44.4415" lon="5.6009">
        <ele>1266.8</ele>
        <time>2023-03-20T10:45:17Z</time>
      </trkpt>
      <trkpt lat="44.4415" lon="5.60093">
        <ele>1267</ele>
        <time>2023-03-20T10:45:18Z</time>
      </trkpt>
      <trkpt lat="44.4415" lon="5.60097">
        <ele>1267.3</ele>
        <time>2023-03-20T10:45:19Z</time>
      </trkpt>
      <trkpt lat="44.4415" lon="5.60098">
        <ele>1267.4</ele>
        <time>2023-03-20T10:45:20Z</time>
      </trkpt>
      <trkpt lat="44.44149" lon="5.60102">
        <ele>1267.8</ele>
        <time>2023-03-20T10:45:21Z</time>
      </trkpt>
      <trkpt lat="44.44149" lon="5.60104">
        <ele>1267.9</ele>
        <time>2023-03-20T10:45:22Z</time>
      </trkpt>
      <trkpt lat="44.44147" lon="5.60108">
        <ele>1268.3</ele>
        <time>2023-03-20T10:45:23Z</time>
      </trkpt>
      <trkpt lat="44.44147" lon="5.60109">
        <ele>1268.4</ele>
        <time>2023-03-20T10:45:24Z</time>
      </trkpt>
      <trkpt lat="44.44145" lon="5.60113">
        <ele>1268.8</ele>
        <time>2023-03-20T10:45:25Z</time>
      </trkpt>
      <trkpt lat="44.44145" lon="5.60114">
        <ele>1268.9</ele>
        <time>2023-03-20T10:45:26Z</time>
      </trkpt>
      <trkpt lat="44.44143" lon="5.60119">
        <ele>1269.3</ele>
        <time>2023-03-20T10:45:27Z</time>
      </trkpt>
      <trkpt lat="44.44142" lon="5.6012">
        <ele>1269.5</ele>
        <time>2023-03-20T10:45:28Z</time>
      </trkpt>
      <trkpt lat="44.44141" lon="5.60124">
        <ele>1269.8</ele>
        <time>2023-03-20T10:45:29Z</time>
      </trkpt>
      <trkpt lat="44.44141" lon="5.60125">
        <ele>1269.9</ele>
        <time>2023-03-20T10:45:30Z</time>
      </trkpt>
      <trkpt lat="44.44139" lon="5.60129">
        <ele>1270.3</ele>
        <time>2023-03-20T10:45:31Z</time>
      </trkpt>
      <trkpt lat="44.44139" lon="5.6013">
        <ele>1270.4</ele>
        <time>2023-03-20T10:45:32Z</time>
      </trkpt>
      <trkpt lat="44.44138" lon="5.60134">
        <ele>1270.7</ele>
        <time>2023-03-20T10:45:33Z</time>
      </trkpt>
      <trkpt lat="44.44138" lon="5.60136">
        <ele>1270.8</ele>
        <time>2023-03-20T10:45:34Z</time>
      </trkpt>
      <trkpt lat="44.44138" lon="5.6014">
        <ele>1271.2</ele>
        <time>2023-03-20T10:45:35Z</time>
      </trkpt>
      <trkpt lat="44.44138" lon="5.60141">
        <ele>1271.3</ele>
        <time>2023-03-20T10:45:36Z</time>
      </trkpt>
      <trkpt lat="44.44138" lon="5.60145">
        <ele>1271.6</ele>
        <time>2023-03-20T10:45:37Z</time>
      </trkpt>
      <trkpt lat="44.44137" lon="5.60147">
        <ele>1271.7</ele>
        <time>2023-03-20T10:45:38Z</time>
      </trkpt>
      <trkpt lat="44.44137" lon="5.60151">
        <ele>1272.1</ele>
        <time>2023-03-20T10:45:39Z</time>
      </trkpt>
      <trkpt lat="44.44137" lon="5.60153">
        <ele>1272.2</ele>
        <time>2023-03-20T10:45:40Z</time>
      </trkpt>
      <trkpt lat="44.44138" lon="5.60157">
        <ele>1272.6</ele>
        <time>2023-03-20T10:45:41Z</time>
      </trkpt>
      <trkpt lat="44.44138" lon="5.60158">
        <ele>1272.7</ele>
        <time>2023-03-20T10:45:42Z</time>
      </trkpt>
      <trkpt lat="44.44138" lon="5.60162">
        <ele>1273</ele>
        <time>2023-03-20T10:45:43Z</time>
      </trkpt>
      <trkpt lat="44.44138" lon="5.60163">
        <ele>1273.1</ele>
        <time>2023-03-20T10:45:44Z</time>
      </trkpt>
      <trkpt lat="44.44138" lon="5.60165">
        <ele>1273.3</ele>
        <time>2023-03-20T10:45:45Z</time>
      </trkpt>
      <trkpt lat="44.44139" lon="5.60168">
        <ele>1273.5</ele>
        <time>2023-03-20T10:45:46Z</time>
      </trkpt>
      <trkpt lat="44.44139" lon="5.60172">
        <ele>1273.8</ele>
        <time>2023-03-20T10:45:47Z</time>
      </trkpt>
      <trkpt lat="44.44139" lon="5.60173">
        <ele>1273.9</ele>
        <time>2023-03-20T10:45:48Z</time>
      </trkpt>
      <trkpt lat="44.44139" lon="5.60177">
        <ele>1274.2</ele>
        <time>2023-03-20T10:45:49Z</time>
      </trkpt>
      <trkpt lat="44.44139" lon="5.60179">
        <ele>1274.3</ele>
        <time>2023-03-20T10:45:50Z</time>
      </trkpt>
      <trkpt lat="44.4414" lon="5.60183">
        <ele>1274.6</ele>
        <time>2023-03-20T10:45:51Z</time>
      </trkpt>
      <trkpt lat="44.4414" lon="5.60184">
        <ele>1274.7</ele>
        <time>2023-03-20T10:45:52Z</time>
      </trkpt>
      <trkpt lat="44.44142" lon="5.60188">
        <ele>1275</ele>
        <time>2023-03-20T10:45:53Z</time>
      </trkpt>
      <trkpt lat="44.44142" lon="5.60189">
        <ele>1275.1</ele>
        <time>2023-03-20T10:45:54Z</time>
      </trkpt>
      <trkpt lat="44.44144" lon="5.60192">
        <ele>1275.4</ele>
        <time>2023-03-20T10:45:55Z</time>
      </trkpt>
      <trkpt lat="44.44145" lon="5.60193">
        <ele>1275.5</ele>
        <time>2023-03-20T10:45:56Z</time>
      </trkpt>
      <trkpt lat="44.44146" lon="5.60197">
        <ele>1275.7</ele>
        <time>2023-03-20T10:45:57Z</time>
      </trkpt>
      <trkpt lat="44.44147" lon="5.60198">
        <ele>1275.8</ele>
        <time>2023-03-20T10:45:58Z</time>
      </trkpt>
      <trkpt lat="44.44148" lon="5.602">
        <ele>1275.9</ele>
        <time>2023-03-20T10:45:59Z</time>
      </trkpt>
      <trkpt lat="44.44149" lon="5.60202">
        <ele>1276</ele>
        <time>2023-03-20T10:46:00Z</time>
      </trkpt>
      <trkpt lat="44.44151" lon="5.60206">
        <ele>1276.5</ele>
        <time>2023-03-20T10:46:01Z</time>
      </trkpt>
      <trkpt lat="44.44151" lon="5.60207">
        <ele>1276.6</ele>
        <time>2023-03-20T10:46:02Z</time>
      </trkpt>
      <trkpt lat="44.44153" lon="5.60212">
        <ele>1277.1</ele>
        <time>2023-03-20T10:46:03Z</time>
      </trkpt>
      <trkpt lat="44.44154" lon="5.60213">
        <ele>1277.2</ele>
        <time>2023-03-20T10:46:04Z</time>
      </trkpt>
      <trkpt lat="44.44156" lon="5.60217">
        <ele>1277.6</ele>
        <time>2023-03-20T10:46:05Z</time>
      </trkpt>
      <trkpt lat="44.44156" lon="5.60218">
        <ele>1277.7</ele>
        <time>2023-03-20T10:46:06Z</time>
      </trkpt>
      <trkpt lat="44.44159" lon="5.60222">
        <ele>1278.2</ele>
        <time>2023-03-20T10:46:07Z</time>
      </trkpt>
      <trkpt lat="44.4416" lon="5.60224">
        <ele>1278.3</ele>
        <time>2023-03-20T10:46:08Z</time>
      </trkpt>
      <trkpt lat="44.44161" lon="5.60228">
        <ele>1278.7</ele>
        <time>2023-03-20T10:46:09Z</time>
      </trkpt>
      <trkpt lat="44.44161" lon="5.60229">
        <ele>1278.8</ele>
        <time>2023-03-20T10:46:10Z</time>
      </trkpt>
      <trkpt lat="44.44162" lon="5.60234">
        <ele>1279.2</ele>
        <time>2023-03-20T10:46:11Z</time>
      </trkpt>
      <trkpt lat="44.44163" lon="5.60235">
        <ele>1279.3</ele>
        <time>2023-03-20T10:46:12Z</time>
      </trkpt>
      <trkpt lat="44.44164" lon="5.60239">
        <ele>1279.7</ele>
        <time>2023-03-20T10:46:13Z</time>
      </trkpt>
      <trkpt lat="44.44164" lon="5.6024">
        <ele>1279.8</ele>
        <time>2023-03-20T10:46:14Z</time>
      </trkpt>
      <trkpt lat="44.44165" lon="5.60244">
        <ele>1280.1</ele>
        <time>2023-03-20T10:46:15Z</time>
      </trkpt>
      <trkpt lat="44.44165" lon="5.60245">
        <ele>1280.2</ele>
        <time>2023-03-20T10:46:16Z</time>
      </trkpt>
      <trkpt lat="44.44167" lon="5.6025">
        <ele>1280.6</ele>
        <time>2023-03-20T10:46:17Z</time>
      </trkpt>
      <trkpt lat="44.44167" lon="5.60251">
        <ele>1280.7</ele>
        <time>2023-03-20T10:46:18Z</time>
      </trkpt>
      <trkpt lat="44.44168" lon="5.60255">
        <ele>1281.1</ele>
        <time>2023-03-20T10:46:19Z</time>
      </trkpt>
      <trkpt lat="44.44169" lon="5.60257">
        <ele>1281.2</ele>
        <time>2023-03-20T10:46:20Z</time>
      </trkpt>
      <trkpt lat="44.4417" lon="5.6026">
        <ele>1281.5</ele>
        <time>2023-03-20T10:46:21Z</time>
      </trkpt>
      <trkpt lat="44.4417" lon="5.60261">
        <ele>1281.6</ele>
        <time>2023-03-20T10:46:22Z</time>
      </trkpt>
      <trkpt lat="44.44171" lon="5.60264">
        <ele>1281.9</ele>
        <time>2023-03-20T10:46:23Z</time>
      </trkpt>
      <trkpt lat="44.44171" lon="5.60266">
        <ele>1282</ele>
        <time>2023-03-20T10:46:24Z</time>
      </trkpt>
      <trkpt lat="44.44172" lon="5.60268">
        <ele>1282.2</ele>
        <time>2023-03-20T10:46:25Z</time>
      </trkpt>
      <trkpt lat="44.44172" lon="5.6027">
        <ele>1282.4</ele>
        <time>2023-03-20T10:46:26Z</time>
      </trkpt>
      <trkpt lat="44.44172" lon="5.60272">
        <ele>1282.6</ele>
        <time>2023-03-20T10:46:27Z</time>
      </trkpt>
      <trkpt lat="44.44173" lon="5.60274">
        <ele>1282.7</ele>
        <time>2023-03-20T10:46:28Z</time>
      </trkpt>
      <trkpt lat="44.44173" lon="5.60276">
        <ele>1282.9</ele>
        <time>2023-03-20T10:46:29Z</time>
      </trkpt>
      <trkpt lat="44.44174" lon="5.60278">
        <ele>1283</ele>
        <time>2023-03-20T10:46:30Z</time>
      </trkpt>
      <trkpt lat="44.44175" lon="5.60279">
        <ele>1283.2</ele>
        <time>2023-03-20T10:46:31Z</time>
      </trkpt>
      <trkpt lat="44.44176" lon="5.60281">
        <ele>1283.4</ele>
        <time>2023-03-20T10:46:32Z</time>
      </trkpt>
      <trkpt lat="44.44177" lon="5.60283">
        <ele>1283.6</ele>
        <time>2023-03-20T10:46:33Z</time>
      </trkpt>
      <trkpt lat="44.44178" lon="5.60284">
        <ele>1283.8</ele>
        <time>2023-03-20T10:46:34Z</time>
      </trkpt>
      <trkpt lat="44.44181" lon="5.60287">
        <ele>1284.1</ele>
        <time>2023-03-20T10:46:35Z</time>
      </trkpt>
      <trkpt lat="44.44181" lon="5.60288">
        <ele>1284.2</ele>
        <time>2023-03-20T10:46:36Z</time>
      </trkpt>
      <trkpt lat="44.44182" lon="5.6029">
        <ele>1284.4</ele>
        <time>2023-03-20T10:46:37Z</time>
      </trkpt>
      <trkpt lat="44.44183" lon="5.60292">
        <ele>1284.6</ele>
        <time>2023-03-20T10:46:38Z</time>
      </trkpt>
      <trkpt lat="44.44184" lon="5.60295">
        <ele>1284.9</ele>
        <time>2023-03-20T10:46:39Z</time>
      </trkpt>
      <trkpt lat="44.44185" lon="5.60296">
        <ele>1285</ele>
        <time>2023-03-20T10:46:40Z</time>
      </trkpt>
      <trkpt lat="44.44187" lon="5.603">
        <ele>1285.4</ele>
        <time>2023-03-20T10:46:41Z</time>
      </trkpt>
      <trkpt lat="44.44187" lon="5.60301">
        <ele>1285.5</ele>
        <time>2023-03-20T10:46:42Z</time>
      </trkpt>
      <trkpt lat="44.44189" lon="5.60305">
        <ele>1285.9</ele>
        <time>2023-03-20T10:46:43Z</time>
      </trkpt>
      <trkpt lat="44.4419" lon="5.60306">
        <ele>1286</ele>
        <time>2023-03-20T10:46:44Z</time>
      </trkpt>
      <trkpt lat="44.44191" lon="5.60309">
        <ele>1286.3</ele>
        <time>2023-03-20T10:46:45Z</time>
      </trkpt>
      <trkpt lat="44.44191" lon="5.60311">
        <ele>1286.4</ele>
        <time>2023-03-20T10:46:46Z</time>
      </trkpt>
      <trkpt lat="44.44192" lon="5.60315">
        <ele>1286.8</ele>
        <time>2023-03-20T10:46:47Z</time>
      </trkpt>
      <trkpt lat="44.44192" lon="5.60316">
        <ele>1286.9</ele>
        <time>2023-03-20T10:46:48Z</time>
      </trkpt>
      <trkpt lat="44.44192" lon="5.60321">
        <ele>1287.2</ele>
        <time>2023-03-20T10:46:49Z</time>
      </trkpt>
      <trkpt lat="44.44192" lon="5.60322">
        <ele>1287.3</ele>
        <time>2023-03-20T10:46:50Z</time>
      </trkpt>
      <trkpt lat="44.44192" lon="5.60325">
        <ele>1287.6</ele>
        <time>2023-03-20T10:46:51Z</time>
      </trkpt>
      <trkpt lat="44.44192" lon="5.60327">
        <ele>1287.7</ele>
        <time>2023-03-20T10:46:52Z</time>
      </trkpt>
      <trkpt lat="44.44192" lon="5.60329">
        <ele>1287.9</ele>
        <time>2023-03-20T10:46:53Z</time>
      </trkpt>
      <trkpt lat="44.44193" lon="5.60331">
        <ele>1288.1</ele>
        <time>2023-03-20T10:46:54Z</time>
      </trkpt>
      <trkpt lat="44.44194" lon="5.60335">
        <ele>1288.5</ele>
        <time>2023-03-20T10:46:55Z</time>
      </trkpt>
      <trkpt lat="44.44194" lon="5.60337">
        <ele>1288.6</ele>
        <time>2023-03-20T10:46:56Z</time>
      </trkpt>
      <trkpt lat="44.44195" lon="5.6034">
        <ele>1288.9</ele>
        <time>2023-03-20T10:46:57Z</time>
      </trkpt>
      <trkpt lat="44.44196" lon="5.60342">
        <ele>1289</ele>
        <time>2023-03-20T10:46:58Z</time>
      </trkpt>
      <trkpt lat="44.44197" lon="5.60344">
        <ele>1289.2</ele>
        <time>2023-03-20T10:46:59Z</time>
      </trkpt>
      <trkpt lat="44.44198" lon="5.60346">
        <ele>1289.4</ele>
        <time>2023-03-20T10:47:00Z</time>
      </trkpt>
      <trkpt lat="44.44198" lon="5.60348">
        <ele>1289.6</ele>
        <time>2023-03-20T10:47:01Z</time>
      </trkpt>
      <trkpt lat="44.44198" lon="5.6035">
        <ele>1289.8</ele>
        <time>2023-03-20T10:47:02Z</time>
      </trkpt>
      <trkpt lat="44.44198" lon="5.60352">
        <ele>1290</ele>
        <time>2023-03-20T10:47:03Z</time>
      </trkpt>
      <trkpt lat="44.44198" lon="5.60355">
        <ele>1290.2</ele>
        <time>2023-03-20T10:47:04Z</time>
      </trkpt>
      <trkpt lat="44.44199" lon="5.60357">
        <ele>1290.3</ele>
        <time>2023-03-20T10:47:05Z</time>
      </trkpt>
      <trkpt lat="44.442" lon="5.60358">
        <ele>1290.5</ele>
        <time>2023-03-20T10:47:06Z</time>
      </trkpt>
      <trkpt lat="44.44201" lon="5.6036">
        <ele>1290.7</ele>
        <time>2023-03-20T10:47:07Z</time>
      </trkpt>
      <trkpt lat="44.44202" lon="5.60362">
        <ele>1290.9</ele>
        <time>2023-03-20T10:47:08Z</time>
      </trkpt>
      <trkpt lat="44.44203" lon="5.60365">
        <ele>1291.2</ele>
        <time>2023-03-20T10:47:09Z</time>
      </trkpt>
      <trkpt lat="44.44204" lon="5.60366">
        <ele>1291.3</ele>
        <time>2023-03-20T10:47:10Z</time>
      </trkpt>
      <trkpt lat="44.44205" lon="5.60368">
        <ele>1291.5</ele>
        <time>2023-03-20T10:47:11Z</time>
      </trkpt>
      <trkpt lat="44.44205" lon="5.6037">
        <ele>1291.6</ele>
        <time>2023-03-20T10:47:12Z</time>
      </trkpt>
      <trkpt lat="44.44205" lon="5.60372">
        <ele>1291.8</ele>
        <time>2023-03-20T10:47:13Z</time>
      </trkpt>
      <trkpt lat="44.44206" lon="5.60374">
        <ele>1292</ele>
        <time>2023-03-20T10:47:14Z</time>
      </trkpt>
      <trkpt lat="44.44207" lon="5.60376">
        <ele>1292.2</ele>
        <time>2023-03-20T10:47:15Z</time>
      </trkpt>
      <trkpt lat="44.44208" lon="5.60378">
        <ele>1292.4</ele>
        <time>2023-03-20T10:47:16Z</time>
      </trkpt>
      <trkpt lat="44.44208" lon="5.60381">
        <ele>1292.6</ele>
        <time>2023-03-20T10:47:17Z</time>
      </trkpt>
      <trkpt lat="44.44208" lon="5.60383">
        <ele>1292.8</ele>
        <time>2023-03-20T10:47:18Z</time>
      </trkpt>
      <trkpt lat="44.44209" lon="5.60385">
        <ele>1292.9</ele>
        <time>2023-03-20T10:47:19Z</time>
      </trkpt>
      <trkpt lat="44.4421" lon="5.60387">
        <ele>1293.2</ele>
        <time>2023-03-20T10:47:20Z</time>
      </trkpt>
      <trkpt lat="44.4421" lon="5.60389">
        <ele>1293.4</ele>
        <time>2023-03-20T10:47:21Z</time>
      </trkpt>
      <trkpt lat="44.44211" lon="5.60392">
        <ele>1293.5</ele>
        <time>2023-03-20T10:47:22Z</time>
      </trkpt>
      <trkpt lat="44.44212" lon="5.60394">
        <ele>1293.8</ele>
        <time>2023-03-20T10:47:23Z</time>
      </trkpt>
      <trkpt lat="44.44213" lon="5.60395">
        <ele>1293.9</ele>
        <time>2023-03-20T10:47:24Z</time>
      </trkpt>
      <trkpt lat="44.44213" lon="5.60395">
        <ele>1293.9</ele>
        <time>2023-03-20T10:47:25Z</time>
      </trkpt>
      <trkpt lat="44.44214" lon="5.60396">
        <ele>1294</ele>
        <time>2023-03-20T10:47:26Z</time>
      </trkpt>
      <trkpt lat="44.44215" lon="5.604">
        <ele>1294.4</ele>
        <time>2023-03-20T10:47:27Z</time>
      </trkpt>
      <trkpt lat="44.44215" lon="5.60401">
        <ele>1294.5</ele>
        <time>2023-03-20T10:47:28Z</time>
      </trkpt>
      <trkpt lat="44.44216" lon="5.60403">
        <ele>1294.7</ele>
        <time>2023-03-20T10:47:29Z</time>
      </trkpt>
      <trkpt lat="44.44217" lon="5.60405">
        <ele>1294.8</ele>
        <time>2023-03-20T10:47:30Z</time>
      </trkpt>
      <trkpt lat="44.44217" lon="5.60407">
        <ele>1295</ele>
        <time>2023-03-20T10:47:31Z</time>
      </trkpt>
      <trkpt lat="44.44218" lon="5.60409">
        <ele>1295.2</ele>
        <time>2023-03-20T10:47:32Z</time>
      </trkpt>
      <trkpt lat="44.44219" lon="5.60411">
        <ele>1295.3</ele>
        <time>2023-03-20T10:47:33Z</time>
      </trkpt>
      <trkpt lat="44.44219" lon="5.60413">
        <ele>1295.5</ele>
        <time>2023-03-20T10:47:34Z</time>
      </trkpt>
      <trkpt lat="44.44221" lon="5.60415">
        <ele>1295.8</ele>
        <time>2023-03-20T10:47:35Z</time>
      </trkpt>
      <trkpt lat="44.44221" lon="5.60417">
        <ele>1295.9</ele>
        <time>2023-03-20T10:47:36Z</time>
      </trkpt>
      <trkpt lat="44.44222" lon="5.60418">
        <ele>1296</ele>
        <time>2023-03-20T10:47:37Z</time>
      </trkpt>
      <trkpt lat="44.44222" lon="5.6042">
        <ele>1296.2</ele>
        <time>2023-03-20T10:47:38Z</time>
      </trkpt>
      <trkpt lat="44.44223" lon="5.60421">
        <ele>1296.4</ele>
        <time>2023-03-20T10:47:39Z</time>
      </trkpt>
      <trkpt lat="44.44224" lon="5.60423">
        <ele>1296.5</ele>
        <time>2023-03-20T10:47:40Z</time>
      </trkpt>
      <trkpt lat="44.44225" lon="5.60425">
        <ele>1296.7</ele>
        <time>2023-03-20T10:47:41Z</time>
      </trkpt>
      <trkpt lat="44.44226" lon="5.60427">
        <ele>1296.9</ele>
        <time>2023-03-20T10:47:42Z</time>
      </trkpt>
      <trkpt lat="44.44227" lon="5.60429">
        <ele>1297.1</ele>
        <time>2023-03-20T10:47:43Z</time>
      </trkpt>
      <trkpt lat="44.44228" lon="5.6043">
        <ele>1297.3</ele>
        <time>2023-03-20T10:47:44Z</time>
      </trkpt>
      <trkpt lat="44.4423" lon="5.60432">
        <ele>1297.5</ele>
        <time>2023-03-20T10:47:45Z</time>
      </trkpt>
      <trkpt lat="44.44231" lon="5.60434">
        <ele>1297.7</ele>
        <time>2023-03-20T10:47:46Z</time>
      </trkpt>
      <trkpt lat="44.44232" lon="5.60436">
        <ele>1297.9</ele>
        <time>2023-03-20T10:47:47Z</time>
      </trkpt>
      <trkpt lat="44.44232" lon="5.60437">
        <ele>1298</ele>
        <time>2023-03-20T10:47:48Z</time>
      </trkpt>
      <trkpt lat="44.44233" lon="5.60439">
        <ele>1298.2</ele>
        <time>2023-03-20T10:47:49Z</time>
      </trkpt>
      <trkpt lat="44.44233" lon="5.6044">
        <ele>1298.3</ele>
        <time>2023-03-20T10:47:50Z</time>
      </trkpt>
      <trkpt lat="44.44235" lon="5.60443">
        <ele>1298.5</ele>
        <time>2023-03-20T10:47:51Z</time>
      </trkpt>
      <trkpt lat="44.44235" lon="5.60444">
        <ele>1298.6</ele>
        <time>2023-03-20T10:47:52Z</time>
      </trkpt>
      <trkpt lat="44.44235" lon="5.60445">
        <ele>1298.7</ele>
        <time>2023-03-20T10:47:53Z</time>
      </trkpt>
      <trkpt lat="44.44236" lon="5.60446">
        <ele>1298.9</ele>
        <time>2023-03-20T10:47:54Z</time>
      </trkpt>
      <trkpt lat="44.44237" lon="5.60447">
        <ele>1299.1</ele>
        <time>2023-03-20T10:47:55Z</time>
      </trkpt>
      <trkpt lat="44.44238" lon="5.60449">
        <ele>1299.2</ele>
        <time>2023-03-20T10:47:56Z</time>
      </trkpt>
      <trkpt lat="44.44239" lon="5.6045">
        <ele>1299.4</ele>
        <time>2023-03-20T10:47:57Z</time>
      </trkpt>
      <trkpt lat="44.4424" lon="5.60452">
        <ele>1299.5</ele>
        <time>2023-03-20T10:47:58Z</time>
      </trkpt>
      <trkpt lat="44.44241" lon="5.60454">
        <ele>1299.7</ele>
        <time>2023-03-20T10:47:59Z</time>
      </trkpt>
      <trkpt lat="44.44242" lon="5.60456">
        <ele>1299.9</ele>
        <time>2023-03-20T10:48:00Z</time>
      </trkpt>
      <trkpt lat="44.44243" lon="5.60457">
        <ele>1300.1</ele>
        <time>2023-03-20T10:48:01Z</time>
      </trkpt>
      <trkpt lat="44.44244" lon="5.60459">
        <ele>1300.3</ele>
        <time>2023-03-20T10:48:02Z</time>
      </trkpt>
      <trkpt lat="44.44246" lon="5.6046">
        <ele>1300.5</ele>
        <time>2023-03-20T10:48:03Z</time>
      </trkpt>
      <trkpt lat="44.44248" lon="5.60463">
        <ele>1300.8</ele>
        <time>2023-03-20T10:48:04Z</time>
      </trkpt>
      <trkpt lat="44.44248" lon="5.60465">
        <ele>1301</ele>
        <time>2023-03-20T10:48:05Z</time>
      </trkpt>
      <trkpt lat="44.4425" lon="5.60468">
        <ele>1301.3</ele>
        <time>2023-03-20T10:48:06Z</time>
      </trkpt>
      <trkpt lat="44.44251" lon="5.60469">
        <ele>1301.4</ele>
        <time>2023-03-20T10:48:07Z</time>
      </trkpt>
      <trkpt lat="44.44252" lon="5.60473">
        <ele>1301.8</ele>
        <time>2023-03-20T10:48:08Z</time>
      </trkpt>
      <trkpt lat="44.44253" lon="5.60474">
        <ele>1301.9</ele>
        <time>2023-03-20T10:48:09Z</time>
      </trkpt>
      <trkpt lat="44.44254" lon="5.60478">
        <ele>1302.3</ele>
        <time>2023-03-20T10:48:10Z</time>
      </trkpt>
      <trkpt lat="44.44255" lon="5.6048">
        <ele>1302.4</ele>
        <time>2023-03-20T10:48:11Z</time>
      </trkpt>
      <trkpt lat="44.44256" lon="5.60484">
        <ele>1302.8</ele>
        <time>2023-03-20T10:48:12Z</time>
      </trkpt>
      <trkpt lat="44.44256" lon="5.60485">
        <ele>1302.8</ele>
        <time>2023-03-20T10:48:13Z</time>
      </trkpt>
      <trkpt lat="44.44256" lon="5.60487">
        <ele>1303</ele>
        <time>2023-03-20T10:48:14Z</time>
      </trkpt>
      <trkpt lat="44.44256" lon="5.6049">
        <ele>1303.3</ele>
        <time>2023-03-20T10:48:15Z</time>
      </trkpt>
      <trkpt lat="44.44257" lon="5.60492">
        <ele>1303.5</ele>
        <time>2023-03-20T10:48:16Z</time>
      </trkpt>
      <trkpt lat="44.44257" lon="5.60494">
        <ele>1303.6</ele>
        <time>2023-03-20T10:48:17Z</time>
      </trkpt>
      <trkpt lat="44.44258" lon="5.60497">
        <ele>1303.8</ele>
        <time>2023-03-20T10:48:18Z</time>
      </trkpt>
      <trkpt lat="44.44259" lon="5.60499">
        <ele>1304.1</ele>
        <time>2023-03-20T10:48:19Z</time>
      </trkpt>
      <trkpt lat="44.44261" lon="5.60502">
        <ele>1304.4</ele>
        <time>2023-03-20T10:48:20Z</time>
      </trkpt>
      <trkpt lat="44.44262" lon="5.60503">
        <ele>1304.5</ele>
        <time>2023-03-20T10:48:21Z</time>
      </trkpt>
      <trkpt lat="44.44263" lon="5.60506">
        <ele>1304.8</ele>
        <time>2023-03-20T10:48:22Z</time>
      </trkpt>
      <trkpt lat="44.44264" lon="5.60507">
        <ele>1304.9</ele>
        <time>2023-03-20T10:48:23Z</time>
      </trkpt>
      <trkpt lat="44.44265" lon="5.60509">
        <ele>1305.1</ele>
        <time>2023-03-20T10:48:24Z</time>
      </trkpt>
      <trkpt lat="44.44266" lon="5.60511">
        <ele>1305.3</ele>
        <time>2023-03-20T10:48:25Z</time>
      </trkpt>
      <trkpt lat="44.44267" lon="5.60512">
        <ele>1305.5</ele>
        <time>2023-03-20T10:48:26Z</time>
      </trkpt>
      <trkpt lat="44.44268" lon="5.60514">
        <ele>1305.7</ele>
        <time>2023-03-20T10:48:27Z</time>
      </trkpt>
      <trkpt lat="44.4427" lon="5.60517">
        <ele>1306</ele>
        <time>2023-03-20T10:48:28Z</time>
      </trkpt>
      <trkpt lat="44.44271" lon="5.60518">
        <ele>1306.1</ele>
        <time>2023-03-20T10:48:29Z</time>
      </trkpt>
      <trkpt lat="44.44273" lon="5.60521">
        <ele>1306.5</ele>
        <time>2023-03-20T10:48:30Z</time>
      </trkpt>
      <trkpt lat="44.44274" lon="5.60522">
        <ele>1306.6</ele>
        <time>2023-03-20T10:48:31Z</time>
      </trkpt>
      <trkpt lat="44.44275" lon="5.60524">
        <ele>1306.8</ele>
        <time>2023-03-20T10:48:32Z</time>
      </trkpt>
      <trkpt lat="44.44275" lon="5.60525">
        <ele>1306.9</ele>
        <time>2023-03-20T10:48:33Z</time>
      </trkpt>
      <trkpt lat="44.44277" lon="5.60527">
        <ele>1307.1</ele>
        <time>2023-03-20T10:48:34Z</time>
      </trkpt>
      <trkpt lat="44.44278" lon="5.60528">
        <ele>1307.3</ele>
        <time>2023-03-20T10:48:35Z</time>
      </trkpt>
      <trkpt lat="44.44279" lon="5.6053">
        <ele>1307.5</ele>
        <time>2023-03-20T10:48:36Z</time>
      </trkpt>
      <trkpt lat="44.4428" lon="5.60532">
        <ele>1307.7</ele>
        <time>2023-03-20T10:48:37Z</time>
      </trkpt>
      <trkpt lat="44.44281" lon="5.60535">
        <ele>1308</ele>
        <time>2023-03-20T10:48:38Z</time>
      </trkpt>
      <trkpt lat="44.44281" lon="5.60537">
        <ele>1308.1</ele>
        <time>2023-03-20T10:48:39Z</time>
      </trkpt>
      <trkpt lat="44.44282" lon="5.60541">
        <ele>1308.5</ele>
        <time>2023-03-20T10:48:40Z</time>
      </trkpt>
      <trkpt lat="44.44283" lon="5.60542">
        <ele>1308.6</ele>
        <time>2023-03-20T10:48:41Z</time>
      </trkpt>
      <trkpt lat="44.44285" lon="5.60546">
        <ele>1308.9</ele>
        <time>2023-03-20T10:48:42Z</time>
      </trkpt>
      <trkpt lat="44.44285" lon="5.60547">
        <ele>1309.1</ele>
        <time>2023-03-20T10:48:43Z</time>
      </trkpt>
      <trkpt lat="44.44286" lon="5.6055">
        <ele>1309.4</ele>
        <time>2023-03-20T10:48:44Z</time>
      </trkpt>
      <trkpt lat="44.44287" lon="5.60552">
        <ele>1309.5</ele>
        <time>2023-03-20T10:48:45Z</time>
      </trkpt>
      <trkpt lat="44.44288" lon="5.60555">
        <ele>1309.8</ele>
        <time>2023-03-20T10:48:46Z</time>
      </trkpt>
      <trkpt lat="44.44288" lon="5.60556">
        <ele>1309.9</ele>
        <time>2023-03-20T10:48:47Z</time>
      </trkpt>
      <trkpt lat="44.44289" lon="5.6056">
        <ele>1310.2</ele>
        <time>2023-03-20T10:48:48Z</time>
      </trkpt>
      <trkpt lat="44.4429" lon="5.60561">
        <ele>1310.4</ele>
        <time>2023-03-20T10:48:49Z</time>
      </trkpt>
      <trkpt lat="44.44291" lon="5.60563">
        <ele>1310.6</ele>
        <time>2023-03-20T10:48:50Z</time>
      </trkpt>
      <trkpt lat="44.44292" lon="5.60566">
        <ele>1310.8</ele>
        <time>2023-03-20T10:48:51Z</time>
      </trkpt>
      <trkpt lat="44.44293" lon="5.60569">
        <ele>1311.1</ele>
        <time>2023-03-20T10:48:52Z</time>
      </trkpt>
      <trkpt lat="44.44293" lon="5.6057">
        <ele>1311.2</ele>
        <time>2023-03-20T10:48:53Z</time>
      </trkpt>
      <trkpt lat="44.44295" lon="5.60574">
        <ele>1311.5</ele>
        <time>2023-03-20T10:48:54Z</time>
      </trkpt>
      <trkpt lat="44.44295" lon="5.60575">
        <ele>1311.6</ele>
        <time>2023-03-20T10:48:55Z</time>
      </trkpt>
      <trkpt lat="44.44296" lon="5.60579">
        <ele>1311.9</ele>
        <time>2023-03-20T10:48:56Z</time>
      </trkpt>
      <trkpt lat="44.44297" lon="5.6058">
        <ele>1312.1</ele>
        <time>2023-03-20T10:48:57Z</time>
      </trkpt>
      <trkpt lat="44.44297" lon="5.60582">
        <ele>1312.3</ele>
        <time>2023-03-20T10:48:58Z</time>
      </trkpt>
      <trkpt lat="44.44297" lon="5.60585">
        <ele>1312.5</ele>
        <time>2023-03-20T10:48:59Z</time>
      </trkpt>
      <trkpt lat="44.44297" lon="5.60587">
        <ele>1312.7</ele>
        <time>2023-03-20T10:49:00Z</time>
      </trkpt>
      <trkpt lat="44.44297" lon="5.60589">
        <ele>1312.9</ele>
        <time>2023-03-20T10:49:01Z</time>
      </trkpt>
      <trkpt lat="44.44297" lon="5.60593">
        <ele>1313.2</ele>
        <time>2023-03-20T10:49:02Z</time>
      </trkpt>
      <trkpt lat="44.44297" lon="5.60595">
        <ele>1313.3</ele>
        <time>2023-03-20T10:49:03Z</time>
      </trkpt>
      <trkpt lat="44.44297" lon="5.60598">
        <ele>1313.5</ele>
        <time>2023-03-20T10:49:04Z</time>
      </trkpt>
      <trkpt lat="44.44297" lon="5.60599">
        <ele>1313.6</ele>
        <time>2023-03-20T10:49:05Z</time>
      </trkpt>
      <trkpt lat="44.44298" lon="5.606">
        <ele>1313.7</ele>
        <time>2023-03-20T10:49:06Z</time>
      </trkpt>
      <trkpt lat="44.44298" lon="5.60601">
        <ele>1313.8</ele>
        <time>2023-03-20T10:49:07Z</time>
      </trkpt>
      <trkpt lat="44.44298" lon="5.60603">
        <ele>1314</ele>
        <time>2023-03-20T10:49:08Z</time>
      </trkpt>
      <trkpt lat="44.44298" lon="5.60605">
        <ele>1314.1</ele>
        <time>2023-03-20T10:49:09Z</time>
      </trkpt>
      <trkpt lat="44.44297" lon="5.60606">
        <ele>1314.3</ele>
        <time>2023-03-20T10:49:10Z</time>
      </trkpt>
      <trkpt lat="44.44297" lon="5.60608">
        <ele>1314.5</ele>
        <time>2023-03-20T10:49:11Z</time>
      </trkpt>
      <trkpt lat="44.44296" lon="5.60611">
        <ele>1314.7</ele>
        <time>2023-03-20T10:49:12Z</time>
      </trkpt>
      <trkpt lat="44.44296" lon="5.60612">
        <ele>1314.8</ele>
        <time>2023-03-20T10:49:13Z</time>
      </trkpt>
      <trkpt lat="44.44296" lon="5.60613">
        <ele>1314.9</ele>
        <time>2023-03-20T10:49:14Z</time>
      </trkpt>
      <trkpt lat="44.44295" lon="5.60616">
        <ele>1315.1</ele>
        <time>2023-03-20T10:49:15Z</time>
      </trkpt>
      <trkpt lat="44.44295" lon="5.60618">
        <ele>1315.3</ele>
        <time>2023-03-20T10:49:16Z</time>
      </trkpt>
      <trkpt lat="44.44295" lon="5.6062">
        <ele>1315.5</ele>
        <time>2023-03-20T10:49:17Z</time>
      </trkpt>
      <trkpt lat="44.44296" lon="5.60622">
        <ele>1315.6</ele>
        <time>2023-03-20T10:49:18Z</time>
      </trkpt>
      <trkpt lat="44.44296" lon="5.60624">
        <ele>1315.7</ele>
        <time>2023-03-20T10:49:19Z</time>
      </trkpt>
      <trkpt lat="44.44296" lon="5.60626">
        <ele>1315.9</ele>
        <time>2023-03-20T10:49:20Z</time>
      </trkpt>
      <trkpt lat="44.44296" lon="5.6063">
        <ele>1316.2</ele>
        <time>2023-03-20T10:49:21Z</time>
      </trkpt>
      <trkpt lat="44.44296" lon="5.60631">
        <ele>1316.3</ele>
        <time>2023-03-20T10:49:22Z</time>
      </trkpt>
      <trkpt lat="44.44295" lon="5.60634">
        <ele>1316.5</ele>
        <time>2023-03-20T10:49:23Z</time>
      </trkpt>
      <trkpt lat="44.44295" lon="5.60635">
        <ele>1316.7</ele>
        <time>2023-03-20T10:49:24Z</time>
      </trkpt>
      <trkpt lat="44.44295" lon="5.60637">
        <ele>1316.8</ele>
        <time>2023-03-20T10:49:25Z</time>
      </trkpt>
      <trkpt lat="44.44295" lon="5.60638">
        <ele>1316.9</ele>
        <time>2023-03-20T10:49:26Z</time>
      </trkpt>
      <trkpt lat="44.44295" lon="5.60639">
        <ele>1317</ele>
        <time>2023-03-20T10:49:27Z</time>
      </trkpt>
      <trkpt lat="44.44295" lon="5.60642">
        <ele>1317.3</ele>
        <time>2023-03-20T10:49:28Z</time>
      </trkpt>
      <trkpt lat="44.44295" lon="5.60644">
        <ele>1317.4</ele>
        <time>2023-03-20T10:49:29Z</time>
      </trkpt>
      <trkpt lat="44.44295" lon="5.60645">
        <ele>1317.5</ele>
        <time>2023-03-20T10:49:30Z</time>
      </trkpt>
      <trkpt lat="44.44296" lon="5.60648">
        <ele>1317.7</ele>
        <time>2023-03-20T10:49:31Z</time>
      </trkpt>
      <trkpt lat="44.44296" lon="5.60649">
        <ele>1317.8</ele>
        <time>2023-03-20T10:49:32Z</time>
      </trkpt>
      <trkpt lat="44.44296" lon="5.6065">
        <ele>1317.9</ele>
        <time>2023-03-20T10:49:33Z</time>
      </trkpt>
      <trkpt lat="44.44296" lon="5.60651">
        <ele>1318</ele>
        <time>2023-03-20T10:49:34Z</time>
      </trkpt>
      <trkpt lat="44.44296" lon="5.60652">
        <ele>1318.1</ele>
        <time>2023-03-20T10:49:35Z</time>
      </trkpt>
      <trkpt lat="44.44296" lon="5.60654">
        <ele>1318.2</ele>
        <time>2023-03-20T10:49:36Z</time>
      </trkpt>
      <trkpt lat="44.44295" lon="5.60656">
        <ele>1318.4</ele>
        <time>2023-03-20T10:49:37Z</time>
      </trkpt>
      <trkpt lat="44.44295" lon="5.60658">
        <ele>1318.6</ele>
        <time>2023-03-20T10:49:38Z</time>
      </trkpt>
      <trkpt lat="44.44295" lon="5.6066">
        <ele>1318.7</ele>
        <time>2023-03-20T10:49:39Z</time>
      </trkpt>
      <trkpt lat="44.44295" lon="5.60662">
        <ele>1318.9</ele>
        <time>2023-03-20T10:49:40Z</time>
      </trkpt>
      <trkpt lat="44.44294" lon="5.60665">
        <ele>1319.2</ele>
        <time>2023-03-20T10:49:41Z</time>
      </trkpt>
      <trkpt lat="44.44293" lon="5.60666">
        <ele>1319.3</ele>
        <time>2023-03-20T10:49:42Z</time>
      </trkpt>
      <trkpt lat="44.44293" lon="5.60667">
        <ele>1319.4</ele>
        <time>2023-03-20T10:49:43Z</time>
      </trkpt>
      <trkpt lat="44.44293" lon="5.60669">
        <ele>1319.6</ele>
        <time>2023-03-20T10:49:44Z</time>
      </trkpt>
      <trkpt lat="44.44293" lon="5.60671">
        <ele>1319.7</ele>
        <time>2023-03-20T10:49:45Z</time>
      </trkpt>
      <trkpt lat="44.44292" lon="5.60673">
        <ele>1319.9</ele>
        <time>2023-03-20T10:49:46Z</time>
      </trkpt>
      <trkpt lat="44.44292" lon="5.60675">
        <ele>1320.1</ele>
        <time>2023-03-20T10:49:47Z</time>
      </trkpt>
      <trkpt lat="44.44291" lon="5.60678">
        <ele>1320.3</ele>
        <time>2023-03-20T10:49:48Z</time>
      </trkpt>
      <trkpt lat="44.44291" lon="5.60679">
        <ele>1320.4</ele>
        <time>2023-03-20T10:49:49Z</time>
      </trkpt>
      <trkpt lat="44.44291" lon="5.60681">
        <ele>1320.5</ele>
        <time>2023-03-20T10:49:50Z</time>
      </trkpt>
      <trkpt lat="44.44291" lon="5.60683">
        <ele>1320.7</ele>
        <time>2023-03-20T10:49:51Z</time>
      </trkpt>
      <trkpt lat="44.44291" lon="5.60686">
        <ele>1320.9</ele>
        <time>2023-03-20T10:49:52Z</time>
      </trkpt>
      <trkpt lat="44.44291" lon="5.60688">
        <ele>1321.1</ele>
        <time>2023-03-20T10:49:53Z</time>
      </trkpt>
      <trkpt lat="44.44291" lon="5.6069">
        <ele>1321.3</ele>
        <time>2023-03-20T10:49:54Z</time>
      </trkpt>
      <trkpt lat="44.44291" lon="5.60692">
        <ele>1321.5</ele>
        <time>2023-03-20T10:49:55Z</time>
      </trkpt>
      <trkpt lat="44.44291" lon="5.60694">
        <ele>1321.7</ele>
        <time>2023-03-20T10:49:56Z</time>
      </trkpt>
      <trkpt lat="44.44291" lon="5.60697">
        <ele>1321.8</ele>
        <time>2023-03-20T10:49:57Z</time>
      </trkpt>
      <trkpt lat="44.44291" lon="5.60699">
        <ele>1322</ele>
        <time>2023-03-20T10:49:58Z</time>
      </trkpt>
      <trkpt lat="44.44292" lon="5.60701">
        <ele>1322.2</ele>
        <time>2023-03-20T10:49:59Z</time>
      </trkpt>
      <trkpt lat="44.44292" lon="5.60703">
        <ele>1322.4</ele>
        <time>2023-03-20T10:50:00Z</time>
      </trkpt>
      <trkpt lat="44.44292" lon="5.60705">
        <ele>1322.6</ele>
        <time>2023-03-20T10:50:01Z</time>
      </trkpt>
      <trkpt lat="44.44292" lon="5.60707">
        <ele>1322.7</ele>
        <time>2023-03-20T10:50:02Z</time>
      </trkpt>
      <trkpt lat="44.44293" lon="5.60709">
        <ele>1322.9</ele>
        <time>2023-03-20T10:50:03Z</time>
      </trkpt>
      <trkpt lat="44.44293" lon="5.60711">
        <ele>1323.1</ele>
        <time>2023-03-20T10:50:04Z</time>
      </trkpt>
      <trkpt lat="44.44293" lon="5.60713">
        <ele>1323.2</ele>
        <time>2023-03-20T10:50:05Z</time>
      </trkpt>
      <trkpt lat="44.44294" lon="5.60716">
        <ele>1323.4</ele>
        <time>2023-03-20T10:50:06Z</time>
      </trkpt>
      <trkpt lat="44.44295" lon="5.60718">
        <ele>1323.6</ele>
        <time>2023-03-20T10:50:07Z</time>
      </trkpt>
      <trkpt lat="44.44295" lon="5.6072">
        <ele>1323.8</ele>
        <time>2023-03-20T10:50:08Z</time>
      </trkpt>
      <trkpt lat="44.44295" lon="5.60722">
        <ele>1324</ele>
        <time>2023-03-20T10:50:09Z</time>
      </trkpt>
      <trkpt lat="44.44296" lon="5.60725">
        <ele>1324.2</ele>
        <time>2023-03-20T10:50:10Z</time>
      </trkpt>
      <trkpt lat="44.44296" lon="5.60727">
        <ele>1324.4</ele>
        <time>2023-03-20T10:50:11Z</time>
      </trkpt>
      <trkpt lat="44.44297" lon="5.60729">
        <ele>1324.6</ele>
        <time>2023-03-20T10:50:12Z</time>
      </trkpt>
      <trkpt lat="44.44297" lon="5.60731">
        <ele>1324.8</ele>
        <time>2023-03-20T10:50:13Z</time>
      </trkpt>
      <trkpt lat="44.44298" lon="5.60734">
        <ele>1325</ele>
        <time>2023-03-20T10:50:14Z</time>
      </trkpt>
      <trkpt lat="44.44298" lon="5.60736">
        <ele>1325.2</ele>
        <time>2023-03-20T10:50:15Z</time>
      </trkpt>
      <trkpt lat="44.44298" lon="5.60738">
        <ele>1325.4</ele>
        <time>2023-03-20T10:50:16Z</time>
      </trkpt>
      <trkpt lat="44.44298" lon="5.60742">
        <ele>1325.7</ele>
        <time>2023-03-20T10:50:17Z</time>
      </trkpt>
      <trkpt lat="44.44298" lon="5.60744">
        <ele>1325.8</ele>
        <time>2023-03-20T10:50:18Z</time>
      </trkpt>
      <trkpt lat="44.44298" lon="5.60746">
        <ele>1326</ele>
        <time>2023-03-20T10:50:19Z</time>
      </trkpt>
      <trkpt lat="44.44298" lon="5.60748">
        <ele>1326.2</ele>
        <time>2023-03-20T10:50:20Z</time>
      </trkpt>
      <trkpt lat="44.44298" lon="5.6075">
        <ele>1326.3</ele>
        <time>2023-03-20T10:50:21Z</time>
      </trkpt>
      <trkpt lat="44.44299" lon="5.60752">
        <ele>1326.5</ele>
        <time>2023-03-20T10:50:22Z</time>
      </trkpt>
      <trkpt lat="44.443" lon="5.60755">
        <ele>1326.7</ele>
        <time>2023-03-20T10:50:23Z</time>
      </trkpt>
      <trkpt lat="44.443" lon="5.60756">
        <ele>1326.8</ele>
        <time>2023-03-20T10:50:24Z</time>
      </trkpt>
      <trkpt lat="44.443" lon="5.60757">
        <ele>1326.9</ele>
        <time>2023-03-20T10:50:25Z</time>
      </trkpt>
      <trkpt lat="44.44301" lon="5.60758">
        <ele>1327.1</ele>
        <time>2023-03-20T10:50:26Z</time>
      </trkpt>
      <trkpt lat="44.44303" lon="5.60759">
        <ele>1327.1</ele>
        <time>2023-03-20T10:50:27Z</time>
      </trkpt>
      <trkpt lat="44.44304" lon="5.60761">
        <ele>1326.1</ele>
        <time>2023-03-20T10:50:28Z</time>
      </trkpt>
      <trkpt lat="44.44305" lon="5.60762">
        <ele>1326.5</ele>
        <time>2023-03-20T10:50:29Z</time>
      </trkpt>
      <trkpt lat="44.44306" lon="5.60763">
        <ele>1326.5</ele>
        <time>2023-03-20T10:50:30Z</time>
      </trkpt>
      <trkpt lat="44.44308" lon="5.60764">
        <ele>1325.6</ele>
        <time>2023-03-20T10:50:31Z</time>
      </trkpt>
      <trkpt lat="44.44309" lon="5.60765">
        <ele>1325.6</ele>
        <time>2023-03-20T10:50:32Z</time>
      </trkpt>
      <trkpt lat="44.4431" lon="5.60766">
        <ele>1324.7</ele>
        <time>2023-03-20T10:50:33Z</time>
      </trkpt>
      <trkpt lat="44.44312" lon="5.60767">
        <ele>1325.1</ele>
        <time>2023-03-20T10:50:34Z</time>
      </trkpt>
      <trkpt lat="44.44313" lon="5.60767">
        <ele>1324.3</ele>
        <time>2023-03-20T10:50:35Z</time>
      </trkpt>
      <trkpt lat="44.44315" lon="5.60768">
        <ele>1324.3</ele>
        <time>2023-03-20T10:50:36Z</time>
      </trkpt>
      <trkpt lat="44.44316" lon="5.60769">
        <ele>1323.7</ele>
        <time>2023-03-20T10:50:37Z</time>
      </trkpt>
      <trkpt lat="44.44317" lon="5.60769">
        <ele>1323.7</ele>
        <time>2023-03-20T10:50:38Z</time>
      </trkpt>
      <trkpt lat="44.44319" lon="5.6077">
        <ele>1323.1</ele>
        <time>2023-03-20T10:50:39Z</time>
      </trkpt>
      <trkpt lat="44.4432" lon="5.60771">
        <ele>1323.6</ele>
        <time>2023-03-20T10:50:40Z</time>
      </trkpt>
      <trkpt lat="44.4432" lon="5.60771">
        <ele>1323.6</ele>
        <time>2023-03-20T10:50:41Z</time>
      </trkpt>
      <trkpt lat="44.44321" lon="5.60772">
        <ele>1323.6</ele>
        <time>2023-03-20T10:50:42Z</time>
      </trkpt>
      <trkpt lat="44.44323" lon="5.60773">
        <ele>1323.1</ele>
        <time>2023-03-20T10:50:43Z</time>
      </trkpt>
      <trkpt lat="44.44324" lon="5.60773">
        <ele>1323.1</ele>
        <time>2023-03-20T10:50:44Z</time>
      </trkpt>
      <trkpt lat="44.44326" lon="5.60775">
        <ele>1322.6</ele>
        <time>2023-03-20T10:50:45Z</time>
      </trkpt>
      <trkpt lat="44.44327" lon="5.60776">
        <ele>1323.1</ele>
        <time>2023-03-20T10:50:46Z</time>
      </trkpt>
      <trkpt lat="44.44328" lon="5.60778">
        <ele>1322.6</ele>
        <time>2023-03-20T10:50:47Z</time>
      </trkpt>
      <trkpt lat="44.44329" lon="5.60779">
        <ele>1323.2</ele>
        <time>2023-03-20T10:50:48Z</time>
      </trkpt>
      <trkpt lat="44.44331" lon="5.60781">
        <ele>1323.2</ele>
        <time>2023-03-20T10:50:49Z</time>
      </trkpt>
      <trkpt lat="44.44333" lon="5.60783">
        <ele>1322.7</ele>
        <time>2023-03-20T10:50:50Z</time>
      </trkpt>
      <trkpt lat="44.44334" lon="5.60783">
        <ele>1322.1</ele>
        <time>2023-03-20T10:50:51Z</time>
      </trkpt>
      <trkpt lat="44.44337" lon="5.60785">
        <ele>1322.3</ele>
        <time>2023-03-20T10:50:52Z</time>
      </trkpt>
      <trkpt lat="44.44338" lon="5.60786">
        <ele>1322.3</ele>
        <time>2023-03-20T10:50:53Z</time>
      </trkpt>
      <trkpt lat="44.44341" lon="5.60788">
        <ele>1321.9</ele>
        <time>2023-03-20T10:50:54Z</time>
      </trkpt>
      <trkpt lat="44.44342" lon="5.60788">
        <ele>1322.6</ele>
        <time>2023-03-20T10:50:55Z</time>
      </trkpt>
      <trkpt lat="44.44345" lon="5.60791">
        <ele>1322.3</ele>
        <time>2023-03-20T10:50:56Z</time>
      </trkpt>
      <trkpt lat="44.44345" lon="5.60792">
        <ele>1322.3</ele>
        <time>2023-03-20T10:50:57Z</time>
      </trkpt>
      <trkpt lat="44.44347" lon="5.60795">
        <ele>1322.8</ele>
        <time>2023-03-20T10:50:58Z</time>
      </trkpt>
      <trkpt lat="44.44348" lon="5.60796">
        <ele>1322.8</ele>
        <time>2023-03-20T10:50:59Z</time>
      </trkpt>
      <trkpt lat="44.44348" lon="5.60799">
        <ele>1323.5</ele>
        <time>2023-03-20T10:51:00Z</time>
      </trkpt>
      <trkpt lat="44.44348" lon="5.60801">
        <ele>1324.3</ele>
        <time>2023-03-20T10:51:01Z</time>
      </trkpt>
      <trkpt lat="44.44349" lon="5.60803">
        <ele>1324.3</ele>
        <time>2023-03-20T10:51:02Z</time>
      </trkpt>
      <trkpt lat="44.44349" lon="5.60806">
        <ele>1325</ele>
        <time>2023-03-20T10:51:03Z</time>
      </trkpt>
      <trkpt lat="44.4435" lon="5.6081">
        <ele>1325.5</ele>
        <time>2023-03-20T10:51:04Z</time>
      </trkpt>
      <trkpt lat="44.4435" lon="5.60811">
        <ele>1325.6</ele>
        <time>2023-03-20T10:51:05Z</time>
      </trkpt>
      <trkpt lat="44.4435" lon="5.60815">
        <ele>1326.3</ele>
        <time>2023-03-20T10:51:06Z</time>
      </trkpt>
      <trkpt lat="44.44349" lon="5.60816">
        <ele>1326.3</ele>
        <time>2023-03-20T10:51:07Z</time>
      </trkpt>
      <trkpt lat="44.44349" lon="5.6082">
        <ele>1327.1</ele>
        <time>2023-03-20T10:51:08Z</time>
      </trkpt>
      <trkpt lat="44.44349" lon="5.60821">
        <ele>1327.2</ele>
        <time>2023-03-20T10:51:09Z</time>
      </trkpt>
      <trkpt lat="44.4435" lon="5.60825">
        <ele>1327.9</ele>
        <time>2023-03-20T10:51:10Z</time>
      </trkpt>
      <trkpt lat="44.4435" lon="5.60827">
        <ele>1328.7</ele>
        <time>2023-03-20T10:51:11Z</time>
      </trkpt>
      <trkpt lat="44.44351" lon="5.60831">
        <ele>1328.7</ele>
        <time>2023-03-20T10:51:12Z</time>
      </trkpt>
      <trkpt lat="44.44351" lon="5.60832">
        <ele>1329.7</ele>
        <time>2023-03-20T10:51:13Z</time>
      </trkpt>
      <trkpt lat="44.44352" lon="5.60836">
        <ele>1330.7</ele>
        <time>2023-03-20T10:51:14Z</time>
      </trkpt>
      <trkpt lat="44.44352" lon="5.60837">
        <ele>1330.7</ele>
        <time>2023-03-20T10:51:15Z</time>
      </trkpt>
      <trkpt lat="44.44352" lon="5.60842">
        <ele>1331.7</ele>
        <time>2023-03-20T10:51:16Z</time>
      </trkpt>
      <trkpt lat="44.44352" lon="5.60843">
        <ele>1331.7</ele>
        <time>2023-03-20T10:51:17Z</time>
      </trkpt>
      <trkpt lat="44.44353" lon="5.60847">
        <ele>1332.6</ele>
        <time>2023-03-20T10:51:18Z</time>
      </trkpt>
      <trkpt lat="44.44353" lon="5.60848">
        <ele>1332.6</ele>
        <time>2023-03-20T10:51:19Z</time>
      </trkpt>
      <trkpt lat="44.44354" lon="5.6085">
        <ele>1333.6</ele>
        <time>2023-03-20T10:51:20Z</time>
      </trkpt>
      <trkpt lat="44.44355" lon="5.60852">
        <ele>1334.5</ele>
        <time>2023-03-20T10:51:21Z</time>
      </trkpt>
      <trkpt lat="44.44355" lon="5.60857">
        <ele>1335.3</ele>
        <time>2023-03-20T10:51:22Z</time>
      </trkpt>
      <trkpt lat="44.44356" lon="5.60858">
        <ele>1335.4</ele>
        <time>2023-03-20T10:51:23Z</time>
      </trkpt>
      <trkpt lat="44.44357" lon="5.60863">
        <ele>1336.2</ele>
        <time>2023-03-20T10:51:24Z</time>
      </trkpt>
      <trkpt lat="44.44358" lon="5.60864">
        <ele>1336.3</ele>
        <time>2023-03-20T10:51:25Z</time>
      </trkpt>
      <trkpt lat="44.44359" lon="5.60868">
        <ele>1337.1</ele>
        <time>2023-03-20T10:51:26Z</time>
      </trkpt>
      <trkpt lat="44.44359" lon="5.6087">
        <ele>1338.1</ele>
        <time>2023-03-20T10:51:27Z</time>
      </trkpt>
      <trkpt lat="44.4436" lon="5.60874">
        <ele>1339</ele>
        <time>2023-03-20T10:51:28Z</time>
      </trkpt>
      <trkpt lat="44.44361" lon="5.60875">
        <ele>1339</ele>
        <time>2023-03-20T10:51:29Z</time>
      </trkpt>
      <trkpt lat="44.44363" lon="5.60879">
        <ele>1340</ele>
        <time>2023-03-20T10:51:30Z</time>
      </trkpt>
      <trkpt lat="44.44363" lon="5.6088">
        <ele>1340</ele>
        <time>2023-03-20T10:51:31Z</time>
      </trkpt>
      <trkpt lat="44.44365" lon="5.60883">
        <ele>1341</ele>
        <time>2023-03-20T10:51:32Z</time>
      </trkpt>
      <trkpt lat="44.44366" lon="5.60884">
        <ele>1341</ele>
        <time>2023-03-20T10:51:33Z</time>
      </trkpt>
      <trkpt lat="44.44368" lon="5.60887">
        <ele>1342</ele>
        <time>2023-03-20T10:51:34Z</time>
      </trkpt>
      <trkpt lat="44.44368" lon="5.60888">
        <ele>1341.9</ele>
        <time>2023-03-20T10:51:35Z</time>
      </trkpt>
      <trkpt lat="44.4437" lon="5.60891">
        <ele>1342.9</ele>
        <time>2023-03-20T10:51:36Z</time>
      </trkpt>
      <trkpt lat="44.44371" lon="5.60893">
        <ele>1342.9</ele>
        <time>2023-03-20T10:51:37Z</time>
      </trkpt>
      <trkpt lat="44.44372" lon="5.60896">
        <ele>1343.8</ele>
        <time>2023-03-20T10:51:38Z</time>
      </trkpt>
      <trkpt lat="44.44372" lon="5.60898">
        <ele>1343.8</ele>
        <time>2023-03-20T10:51:39Z</time>
      </trkpt>
      <trkpt lat="44.44374" lon="5.60902">
        <ele>1344.6</ele>
        <time>2023-03-20T10:51:40Z</time>
      </trkpt>
      <trkpt lat="44.44374" lon="5.60903">
        <ele>1344.6</ele>
        <time>2023-03-20T10:51:41Z</time>
      </trkpt>
      <trkpt lat="44.44374" lon="5.60905">
        <ele>1345.6</ele>
        <time>2023-03-20T10:51:42Z</time>
      </trkpt>
      <trkpt lat="44.44373" lon="5.60906">
        <ele>1345.6</ele>
        <time>2023-03-20T10:51:43Z</time>
      </trkpt>
      <trkpt lat="44.44371" lon="5.60908">
        <ele>1345.6</ele>
        <time>2023-03-20T10:51:44Z</time>
      </trkpt>
      <trkpt lat="44.4437" lon="5.60908">
        <ele>1346.7</ele>
        <time>2023-03-20T10:51:45Z</time>
      </trkpt>
      <trkpt lat="44.44368" lon="5.60909">
        <ele>1346.7</ele>
        <time>2023-03-20T10:51:46Z</time>
      </trkpt>
      <trkpt lat="44.44367" lon="5.60909">
        <ele>1346.8</ele>
        <time>2023-03-20T10:51:47Z</time>
      </trkpt>
      <trkpt lat="44.44365" lon="5.6091">
        <ele>1346.8</ele>
        <time>2023-03-20T10:51:48Z</time>
      </trkpt>
      <trkpt lat="44.44365" lon="5.6091">
        <ele>1346.9</ele>
        <time>2023-03-20T10:51:49Z</time>
      </trkpt>
      <trkpt lat="44.44363" lon="5.6091">
        <ele>1347</ele>
        <time>2023-03-20T10:51:50Z</time>
      </trkpt>
      <trkpt lat="44.44362" lon="5.60909">
        <ele>1347</ele>
        <time>2023-03-20T10:51:51Z</time>
      </trkpt>
      <trkpt lat="44.44361" lon="5.60909">
        <ele>1347.1</ele>
        <time>2023-03-20T10:51:52Z</time>
      </trkpt>
      <trkpt lat="44.44361" lon="5.60908">
        <ele>1347.2</ele>
        <time>2023-03-20T10:51:53Z</time>
      </trkpt>
      <trkpt lat="44.4436" lon="5.60908">
        <ele>1346.2</ele>
        <time>2023-03-20T10:51:54Z</time>
      </trkpt>
      <trkpt lat="44.44359" lon="5.60907">
        <ele>1346.2</ele>
        <time>2023-03-20T10:51:55Z</time>
      </trkpt>
      <trkpt lat="44.44359" lon="5.60907">
        <ele>1346.2</ele>
        <time>2023-03-20T10:51:56Z</time>
      </trkpt>
      <trkpt lat="44.44358" lon="5.60906">
        <ele>1346.4</ele>
        <time>2023-03-20T10:51:57Z</time>
      </trkpt>
      <trkpt lat="44.44357" lon="5.60906">
        <ele>1346.4</ele>
        <time>2023-03-20T10:51:58Z</time>
      </trkpt>
      <trkpt lat="44.44356" lon="5.60906">
        <ele>1346.4</ele>
        <time>2023-03-20T10:51:59Z</time>
      </trkpt>
      <trkpt lat="44.44354" lon="5.60905">
        <ele>1346.5</ele>
        <time>2023-03-20T10:52:00Z</time>
      </trkpt>
      <trkpt lat="44.44353" lon="5.60904">
        <ele>1346.5</ele>
        <time>2023-03-20T10:52:01Z</time>
      </trkpt>
      <trkpt lat="44.44351" lon="5.60903">
        <ele>1345.6</ele>
        <time>2023-03-20T10:52:02Z</time>
      </trkpt>
      <trkpt lat="44.4435" lon="5.60903">
        <ele>1345.6</ele>
        <time>2023-03-20T10:52:03Z</time>
      </trkpt>
      <trkpt lat="44.44349" lon="5.60903">
        <ele>1345.6</ele>
        <time>2023-03-20T10:52:04Z</time>
      </trkpt>
      <trkpt lat="44.44348" lon="5.60904">
        <ele>1346.5</ele>
        <time>2023-03-20T10:52:05Z</time>
      </trkpt>
      <trkpt lat="44.44346" lon="5.60905">
        <ele>1346.5</ele>
        <time>2023-03-20T10:52:06Z</time>
      </trkpt>
      <trkpt lat="44.44345" lon="5.60905">
        <ele>1346.5</ele>
        <time>2023-03-20T10:52:07Z</time>
      </trkpt>
      <trkpt lat="44.44344" lon="5.60906">
        <ele>1346.6</ele>
        <time>2023-03-20T10:52:08Z</time>
      </trkpt>
      <trkpt lat="44.44343" lon="5.60907">
        <ele>1346.5</ele>
        <time>2023-03-20T10:52:09Z</time>
      </trkpt>
      <trkpt lat="44.44342" lon="5.60907">
        <ele>1346.5</ele>
        <time>2023-03-20T10:52:10Z</time>
      </trkpt>
      <trkpt lat="44.44342" lon="5.60908">
        <ele>1346.6</ele>
        <time>2023-03-20T10:52:11Z</time>
      </trkpt>
      <trkpt lat="44.44341" lon="5.60908">
        <ele>1347.5</ele>
        <time>2023-03-20T10:52:12Z</time>
      </trkpt>
      <trkpt lat="44.4434" lon="5.60909">
        <ele>1347.5</ele>
        <time>2023-03-20T10:52:13Z</time>
      </trkpt>
      <trkpt lat="44.44338" lon="5.6091">
        <ele>1347.5</ele>
        <time>2023-03-20T10:52:14Z</time>
      </trkpt>
      <trkpt lat="44.44337" lon="5.60912">
        <ele>1347.6</ele>
        <time>2023-03-20T10:52:15Z</time>
      </trkpt>
      <trkpt lat="44.44336" lon="5.60913">
        <ele>1348.6</ele>
        <time>2023-03-20T10:52:16Z</time>
      </trkpt>
      <trkpt lat="44.44335" lon="5.60914">
        <ele>1348.6</ele>
        <time>2023-03-20T10:52:17Z</time>
      </trkpt>
      <trkpt lat="44.44334" lon="5.60915">
        <ele>1348.6</ele>
        <time>2023-03-20T10:52:18Z</time>
      </trkpt>
      <trkpt lat="44.44332" lon="5.60916">
        <ele>1348.6</ele>
        <time>2023-03-20T10:52:19Z</time>
      </trkpt>
      <trkpt lat="44.44331" lon="5.60917">
        <ele>1349.7</ele>
        <time>2023-03-20T10:52:20Z</time>
      </trkpt>
      <trkpt lat="44.44329" lon="5.60917">
        <ele>1349.7</ele>
        <time>2023-03-20T10:52:21Z</time>
      </trkpt>
      <trkpt lat="44.44328" lon="5.60918">
        <ele>1349.7</ele>
        <time>2023-03-20T10:52:22Z</time>
      </trkpt>
      <trkpt lat="44.44327" lon="5.60919">
        <ele>1349.7</ele>
        <time>2023-03-20T10:52:23Z</time>
      </trkpt>
      <trkpt lat="44.44325" lon="5.6092">
        <ele>1349.7</ele>
        <time>2023-03-20T10:52:24Z</time>
      </trkpt>
      <trkpt lat="44.44324" lon="5.60921">
        <ele>1350.8</ele>
        <time>2023-03-20T10:52:25Z</time>
      </trkpt>
      <trkpt lat="44.44322" lon="5.60922">
        <ele>1350.8</ele>
        <time>2023-03-20T10:52:26Z</time>
      </trkpt>
      <trkpt lat="44.44321" lon="5.60923">
        <ele>1350.8</ele>
        <time>2023-03-20T10:52:27Z</time>
      </trkpt>
      <trkpt lat="44.44319" lon="5.60924">
        <ele>1350.9</ele>
        <time>2023-03-20T10:52:28Z</time>
      </trkpt>
      <trkpt lat="44.44317" lon="5.60925">
        <ele>1350.9</ele>
        <time>2023-03-20T10:52:29Z</time>
      </trkpt>
      <trkpt lat="44.44316" lon="5.60925">
        <ele>1352</ele>
        <time>2023-03-20T10:52:30Z</time>
      </trkpt>
      <trkpt lat="44.44313" lon="5.60926">
        <ele>1352.1</ele>
        <time>2023-03-20T10:52:31Z</time>
      </trkpt>
      <trkpt lat="44.44312" lon="5.60926">
        <ele>1352.3</ele>
        <time>2023-03-20T10:52:32Z</time>
      </trkpt>
      <trkpt lat="44.44309" lon="5.60928">
        <ele>1352.6</ele>
        <time>2023-03-20T10:52:33Z</time>
      </trkpt>
      <trkpt lat="44.44309" lon="5.60929">
        <ele>1352.6</ele>
        <time>2023-03-20T10:52:34Z</time>
      </trkpt>
      <trkpt lat="44.44307" lon="5.60931">
        <ele>1353.6</ele>
        <time>2023-03-20T10:52:35Z</time>
      </trkpt>
      <trkpt lat="44.44306" lon="5.60932">
        <ele>1353.9</ele>
        <time>2023-03-20T10:52:36Z</time>
      </trkpt>
      <trkpt lat="44.44304" lon="5.60933">
        <ele>1353.9</ele>
        <time>2023-03-20T10:52:37Z</time>
      </trkpt>
      <trkpt lat="44.44303" lon="5.60934">
        <ele>1355.2</ele>
        <time>2023-03-20T10:52:38Z</time>
      </trkpt>
      <trkpt lat="44.44302" lon="5.60936">
        <ele>1355.3</ele>
        <time>2023-03-20T10:52:39Z</time>
      </trkpt>
      <trkpt lat="44.44301" lon="5.60937">
        <ele>1355.3</ele>
        <time>2023-03-20T10:52:40Z</time>
      </trkpt>
      <trkpt lat="44.443" lon="5.60939">
        <ele>1356.6</ele>
        <time>2023-03-20T10:52:41Z</time>
      </trkpt>
      <trkpt lat="44.44299" lon="5.6094">
        <ele>1356.6</ele>
        <time>2023-03-20T10:52:42Z</time>
      </trkpt>
      <trkpt lat="44.44298" lon="5.60942">
        <ele>1356.6</ele>
        <time>2023-03-20T10:52:43Z</time>
      </trkpt>
      <trkpt lat="44.44297" lon="5.60946">
        <ele>1357.8</ele>
        <time>2023-03-20T10:52:44Z</time>
      </trkpt>
      <trkpt lat="44.44297" lon="5.60947">
        <ele>1358.8</ele>
        <time>2023-03-20T10:52:45Z</time>
      </trkpt>
      <trkpt lat="44.44296" lon="5.60949">
        <ele>1358.8</ele>
        <time>2023-03-20T10:52:46Z</time>
      </trkpt>
      <trkpt lat="44.44295" lon="5.60951">
        <ele>1358.8</ele>
        <time>2023-03-20T10:52:47Z</time>
      </trkpt>
      <trkpt lat="44.44292" lon="5.60953">
        <ele>1359.9</ele>
        <time>2023-03-20T10:52:48Z</time>
      </trkpt>
      <trkpt lat="44.44292" lon="5.60954">
        <ele>1360</ele>
        <time>2023-03-20T10:52:49Z</time>
      </trkpt>
      <trkpt lat="44.44289" lon="5.60956">
        <ele>1361.1</ele>
        <time>2023-03-20T10:52:50Z</time>
      </trkpt>
      <trkpt lat="44.44288" lon="5.60957">
        <ele>1361.1</ele>
        <time>2023-03-20T10:52:51Z</time>
      </trkpt>
      <trkpt lat="44.44285" lon="5.60958">
        <ele>1361.5</ele>
        <time>2023-03-20T10:52:52Z</time>
      </trkpt>
      <trkpt lat="44.44284" lon="5.60959">
        <ele>1361.9</ele>
        <time>2023-03-20T10:52:53Z</time>
      </trkpt>
      <trkpt lat="44.44282" lon="5.60961">
        <ele>1362.8</ele>
        <time>2023-03-20T10:52:54Z</time>
      </trkpt>
      <trkpt lat="44.44281" lon="5.60962">
        <ele>1363.2</ele>
        <time>2023-03-20T10:52:55Z</time>
      </trkpt>
      <trkpt lat="44.44279" lon="5.60965">
        <ele>1364.1</ele>
        <time>2023-03-20T10:52:56Z</time>
      </trkpt>
      <trkpt lat="44.44279" lon="5.60966">
        <ele>1364.7</ele>
        <time>2023-03-20T10:52:57Z</time>
      </trkpt>
      <trkpt lat="44.44278" lon="5.6097">
        <ele>1365.6</ele>
        <time>2023-03-20T10:52:58Z</time>
      </trkpt>
      <trkpt lat="44.44277" lon="5.60971">
        <ele>1365.6</ele>
        <time>2023-03-20T10:52:59Z</time>
      </trkpt>
      <trkpt lat="44.44277" lon="5.60976">
        <ele>1366.6</ele>
        <time>2023-03-20T10:53:00Z</time>
      </trkpt>
      <trkpt lat="44.44277" lon="5.60977">
        <ele>1367.6</ele>
        <time>2023-03-20T10:53:01Z</time>
      </trkpt>
      <trkpt lat="44.44278" lon="5.60981">
        <ele>1368.5</ele>
        <time>2023-03-20T10:53:02Z</time>
      </trkpt>
      <trkpt lat="44.44278" lon="5.60982">
        <ele>1368.5</ele>
        <time>2023-03-20T10:53:03Z</time>
      </trkpt>
      <trkpt lat="44.44279" lon="5.60984">
        <ele>1368</ele>
        <time>2023-03-20T10:53:04Z</time>
      </trkpt>
      <trkpt lat="44.44281" lon="5.60985">
        <ele>1368</ele>
        <time>2023-03-20T10:53:05Z</time>
      </trkpt>
      <trkpt lat="44.44283" lon="5.60986">
        <ele>1368.5</ele>
        <time>2023-03-20T10:53:06Z</time>
      </trkpt>
      <trkpt lat="44.44283" lon="5.60986">
        <ele>1368.5</ele>
        <time>2023-03-20T10:53:07Z</time>
      </trkpt>
      <trkpt lat="44.44284" lon="5.60986">
        <ele>1368.5</ele>
        <time>2023-03-20T10:53:08Z</time>
      </trkpt>
      <trkpt lat="44.44286" lon="5.60986">
        <ele>1368.2</ele>
        <time>2023-03-20T10:53:09Z</time>
      </trkpt>
      <trkpt lat="44.44287" lon="5.60986">
        <ele>1368.2</ele>
        <time>2023-03-20T10:53:10Z</time>
      </trkpt>
      <trkpt lat="44.44288" lon="5.60986">
        <ele>1368.2</ele>
        <time>2023-03-20T10:53:11Z</time>
      </trkpt>
      <trkpt lat="44.44289" lon="5.60985">
        <ele>1367.9</ele>
        <time>2023-03-20T10:53:12Z</time>
      </trkpt>
      <trkpt lat="44.44291" lon="5.60985">
        <ele>1367.9</ele>
        <time>2023-03-20T10:53:13Z</time>
      </trkpt>
      <trkpt lat="44.44293" lon="5.60985">
        <ele>1366.7</ele>
        <time>2023-03-20T10:53:14Z</time>
      </trkpt>
      <trkpt lat="44.44294" lon="5.60985">
        <ele>1366.7</ele>
        <time>2023-03-20T10:53:15Z</time>
      </trkpt>
      <trkpt lat="44.44295" lon="5.60985">
        <ele>1366.5</ele>
        <time>2023-03-20T10:53:16Z</time>
      </trkpt>
      <trkpt lat="44.44296" lon="5.60984">
        <ele>1366.5</ele>
        <time>2023-03-20T10:53:17Z</time>
      </trkpt>
      <trkpt lat="44.44298" lon="5.60985">
        <ele>1366.4</ele>
        <time>2023-03-20T10:53:18Z</time>
      </trkpt>
      <trkpt lat="44.44299" lon="5.60985">
        <ele>1366.4</ele>
        <time>2023-03-20T10:53:19Z</time>
      </trkpt>
      <trkpt lat="44.44301" lon="5.60985">
        <ele>1366.2</ele>
        <time>2023-03-20T10:53:20Z</time>
      </trkpt>
      <trkpt lat="44.44302" lon="5.60985">
        <ele>1367.2</ele>
        <time>2023-03-20T10:53:21Z</time>
      </trkpt>
      <trkpt lat="44.44303" lon="5.60986">
        <ele>1367</ele>
        <time>2023-03-20T10:53:22Z</time>
      </trkpt>
      <trkpt lat="44.44305" lon="5.60987">
        <ele>1367.1</ele>
        <time>2023-03-20T10:53:23Z</time>
      </trkpt>
      <trkpt lat="44.44307" lon="5.60988">
        <ele>1367</ele>
        <time>2023-03-20T10:53:24Z</time>
      </trkpt>
      <trkpt lat="44.44308" lon="5.60989">
        <ele>1367</ele>
        <time>2023-03-20T10:53:25Z</time>
      </trkpt>
      <trkpt lat="44.44309" lon="5.6099">
        <ele>1367.9</ele>
        <time>2023-03-20T10:53:26Z</time>
      </trkpt>
      <trkpt lat="44.44311" lon="5.60991">
        <ele>1367.8</ele>
        <time>2023-03-20T10:53:27Z</time>
      </trkpt>
      <trkpt lat="44.44312" lon="5.60992">
        <ele>1367.8</ele>
        <time>2023-03-20T10:53:28Z</time>
      </trkpt>
      <trkpt lat="44.44314" lon="5.60992">
        <ele>1367.8</ele>
        <time>2023-03-20T10:53:29Z</time>
      </trkpt>
      <trkpt lat="44.44315" lon="5.60992">
        <ele>1367.8</ele>
        <time>2023-03-20T10:53:30Z</time>
      </trkpt>
      <trkpt lat="44.44316" lon="5.60993">
        <ele>1367.8</ele>
        <time>2023-03-20T10:53:31Z</time>
      </trkpt>
      <trkpt lat="44.44317" lon="5.60993">
        <ele>1367.8</ele>
        <time>2023-03-20T10:53:32Z</time>
      </trkpt>
      <trkpt lat="44.44319" lon="5.60993">
        <ele>1367.8</ele>
        <time>2023-03-20T10:53:33Z</time>
      </trkpt>
      <trkpt lat="44.44322" lon="5.60994">
        <ele>1368.8</ele>
        <time>2023-03-20T10:53:34Z</time>
      </trkpt>
      <trkpt lat="44.44323" lon="5.60994">
        <ele>1368.8</ele>
        <time>2023-03-20T10:53:35Z</time>
      </trkpt>
      <trkpt lat="44.44327" lon="5.60996">
        <ele>1368.8</ele>
        <time>2023-03-20T10:53:36Z</time>
      </trkpt>
      <trkpt lat="44.44328" lon="5.60996">
        <ele>1368.8</ele>
        <time>2023-03-20T10:53:37Z</time>
      </trkpt>
      <trkpt lat="44.4433" lon="5.61">
        <ele>1369.7</ele>
        <time>2023-03-20T10:53:38Z</time>
      </trkpt>
      <trkpt lat="44.44331" lon="5.61001">
        <ele>1369.7</ele>
        <time>2023-03-20T10:53:39Z</time>
      </trkpt>
      <trkpt lat="44.44333" lon="5.61004">
        <ele>1370.7</ele>
        <time>2023-03-20T10:53:40Z</time>
      </trkpt>
      <trkpt lat="44.44333" lon="5.61006">
        <ele>1370.7</ele>
        <time>2023-03-20T10:53:41Z</time>
      </trkpt>
      <trkpt lat="44.44334" lon="5.61011">
        <ele>1371.7</ele>
        <time>2023-03-20T10:53:42Z</time>
      </trkpt>
      <trkpt lat="44.44334" lon="5.61013">
        <ele>1372.7</ele>
        <time>2023-03-20T10:53:43Z</time>
      </trkpt>
      <trkpt lat="44.44336" lon="5.61017">
        <ele>1373.7</ele>
        <time>2023-03-20T10:53:44Z</time>
      </trkpt>
      <trkpt lat="44.44336" lon="5.61019">
        <ele>1373.7</ele>
        <time>2023-03-20T10:53:45Z</time>
      </trkpt>
      <trkpt lat="44.44337" lon="5.61023">
        <ele>1374.8</ele>
        <time>2023-03-20T10:53:46Z</time>
      </trkpt>
      <trkpt lat="44.44338" lon="5.61025">
        <ele>1375.9</ele>
        <time>2023-03-20T10:53:47Z</time>
      </trkpt>
      <trkpt lat="44.44339" lon="5.61029">
        <ele>1376.9</ele>
        <time>2023-03-20T10:53:48Z</time>
      </trkpt>
      <trkpt lat="44.44339" lon="5.6103">
        <ele>1377</ele>
        <time>2023-03-20T10:53:49Z</time>
      </trkpt>
      <trkpt lat="44.44341" lon="5.61034">
        <ele>1378</ele>
        <time>2023-03-20T10:53:50Z</time>
      </trkpt>
      <trkpt lat="44.44342" lon="5.61035">
        <ele>1378</ele>
        <time>2023-03-20T10:53:51Z</time>
      </trkpt>
      <trkpt lat="44.44344" lon="5.61038">
        <ele>1379</ele>
        <time>2023-03-20T10:53:52Z</time>
      </trkpt>
      <trkpt lat="44.44345" lon="5.6104">
        <ele>1379</ele>
        <time>2023-03-20T10:53:53Z</time>
      </trkpt>
      <trkpt lat="44.44347" lon="5.61043">
        <ele>1380</ele>
        <time>2023-03-20T10:53:54Z</time>
      </trkpt>
      <trkpt lat="44.44348" lon="5.61044">
        <ele>1380</ele>
        <time>2023-03-20T10:53:55Z</time>
      </trkpt>
      <trkpt lat="44.44351" lon="5.61047">
        <ele>1380.9</ele>
        <time>2023-03-20T10:53:56Z</time>
      </trkpt>
      <trkpt lat="44.44352" lon="5.61047">
        <ele>1381</ele>
        <time>2023-03-20T10:53:57Z</time>
      </trkpt>
      <trkpt lat="44.44354" lon="5.6105">
        <ele>1381.4</ele>
        <time>2023-03-20T10:53:58Z</time>
      </trkpt>
      <trkpt lat="44.44355" lon="5.6105">
        <ele>1381.5</ele>
        <time>2023-03-20T10:53:59Z</time>
      </trkpt>
      <trkpt lat="44.44358" lon="5.61052">
        <ele>1381.9</ele>
        <time>2023-03-20T10:54:00Z</time>
      </trkpt>
      <trkpt lat="44.44359" lon="5.61053">
        <ele>1382</ele>
        <time>2023-03-20T10:54:01Z</time>
      </trkpt>
      <trkpt lat="44.44362" lon="5.61053">
        <ele>1382.5</ele>
        <time>2023-03-20T10:54:02Z</time>
      </trkpt>
      <trkpt lat="44.44363" lon="5.61053">
        <ele>1382.6</ele>
        <time>2023-03-20T10:54:03Z</time>
      </trkpt>
      <trkpt lat="44.44366" lon="5.61054">
        <ele>1383</ele>
        <time>2023-03-20T10:54:04Z</time>
      </trkpt>
      <trkpt lat="44.44367" lon="5.61054">
        <ele>1383.2</ele>
        <time>2023-03-20T10:54:05Z</time>
      </trkpt>
      <trkpt lat="44.4437" lon="5.61054">
        <ele>1383.5</ele>
        <time>2023-03-20T10:54:06Z</time>
      </trkpt>
      <trkpt lat="44.44371" lon="5.61054">
        <ele>1383.6</ele>
        <time>2023-03-20T10:54:07Z</time>
      </trkpt>
      <trkpt lat="44.44374" lon="5.61055">
        <ele>1384</ele>
        <time>2023-03-20T10:54:08Z</time>
      </trkpt>
      <trkpt lat="44.44375" lon="5.61055">
        <ele>1384.1</ele>
        <time>2023-03-20T10:54:09Z</time>
      </trkpt>
      <trkpt lat="44.44377" lon="5.61055">
        <ele>1384.5</ele>
        <time>2023-03-20T10:54:10Z</time>
      </trkpt>
      <trkpt lat="44.44379" lon="5.61055">
        <ele>1384.6</ele>
        <time>2023-03-20T10:54:11Z</time>
      </trkpt>
      <trkpt lat="44.44382" lon="5.61055">
        <ele>1385</ele>
        <time>2023-03-20T10:54:12Z</time>
      </trkpt>
      <trkpt lat="44.44383" lon="5.61056">
        <ele>1385.2</ele>
        <time>2023-03-20T10:54:13Z</time>
      </trkpt>
      <trkpt lat="44.44386" lon="5.61056">
        <ele>1385.5</ele>
        <time>2023-03-20T10:54:14Z</time>
      </trkpt>
      <trkpt lat="44.44389" lon="5.61056">
        <ele>1386</ele>
        <time>2023-03-20T10:54:15Z</time>
      </trkpt>
      <trkpt lat="44.4439" lon="5.61056">
        <ele>1386.2</ele>
        <time>2023-03-20T10:54:16Z</time>
      </trkpt>
      <trkpt lat="44.44394" lon="5.61057">
        <ele>1386.6</ele>
        <time>2023-03-20T10:54:17Z</time>
      </trkpt>
      <trkpt lat="44.44395" lon="5.61057">
        <ele>1386.7</ele>
        <time>2023-03-20T10:54:18Z</time>
      </trkpt>
      <trkpt lat="44.44398" lon="5.61059">
        <ele>1387.1</ele>
        <time>2023-03-20T10:54:19Z</time>
      </trkpt>
      <trkpt lat="44.44398" lon="5.61059">
        <ele>1387.3</ele>
        <time>2023-03-20T10:54:20Z</time>
      </trkpt>
      <trkpt lat="44.444" lon="5.6106">
        <ele>1387.5</ele>
        <time>2023-03-20T10:54:21Z</time>
      </trkpt>
      <trkpt lat="44.44402" lon="5.61061">
        <ele>1387.7</ele>
        <time>2023-03-20T10:54:22Z</time>
      </trkpt>
      <trkpt lat="44.44403" lon="5.61062">
        <ele>1387.9</ele>
        <time>2023-03-20T10:54:23Z</time>
      </trkpt>
      <trkpt lat="44.44405" lon="5.61063">
        <ele>1388.2</ele>
        <time>2023-03-20T10:54:24Z</time>
      </trkpt>
      <trkpt lat="44.44407" lon="5.61063">
        <ele>1388.4</ele>
        <time>2023-03-20T10:54:25Z</time>
      </trkpt>
      <trkpt lat="44.44408" lon="5.61064">
        <ele>1388.6</ele>
        <time>2023-03-20T10:54:26Z</time>
      </trkpt>
      <trkpt lat="44.44411" lon="5.61065">
        <ele>1389</ele>
        <time>2023-03-20T10:54:27Z</time>
      </trkpt>
      <trkpt lat="44.44412" lon="5.61065">
        <ele>1389.1</ele>
        <time>2023-03-20T10:54:28Z</time>
      </trkpt>
      <trkpt lat="44.44414" lon="5.61066">
        <ele>1389.3</ele>
        <time>2023-03-20T10:54:29Z</time>
      </trkpt>
      <trkpt lat="44.44415" lon="5.61066">
        <ele>1389.5</ele>
        <time>2023-03-20T10:54:30Z</time>
      </trkpt>
      <trkpt lat="44.44417" lon="5.61066">
        <ele>1389.7</ele>
        <time>2023-03-20T10:54:31Z</time>
      </trkpt>
      <trkpt lat="44.44418" lon="5.61066">
        <ele>1389.9</ele>
        <time>2023-03-20T10:54:32Z</time>
      </trkpt>
      <trkpt lat="44.44419" lon="5.61065">
        <ele>1390.1</ele>
        <time>2023-03-20T10:54:33Z</time>
      </trkpt>
      <trkpt lat="44.44421" lon="5.61065">
        <ele>1390.3</ele>
        <time>2023-03-20T10:54:34Z</time>
      </trkpt>
      <trkpt lat="44.44423" lon="5.61066">
        <ele>1390.6</ele>
        <time>2023-03-20T10:54:35Z</time>
      </trkpt>
      <trkpt lat="44.44424" lon="5.61066">
        <ele>1390.7</ele>
        <time>2023-03-20T10:54:36Z</time>
      </trkpt>
      <trkpt lat="44.44425" lon="5.61066">
        <ele>1390.8</ele>
        <time>2023-03-20T10:54:37Z</time>
      </trkpt>
      <trkpt lat="44.44427" lon="5.61066">
        <ele>1391.1</ele>
        <time>2023-03-20T10:54:38Z</time>
      </trkpt>
      <trkpt lat="44.44428" lon="5.61066">
        <ele>1391.2</ele>
        <time>2023-03-20T10:54:39Z</time>
      </trkpt>
      <trkpt lat="44.44429" lon="5.61066">
        <ele>1391.3</ele>
        <time>2023-03-20T10:54:40Z</time>
      </trkpt>
      <trkpt lat="44.44432" lon="5.61067">
        <ele>1391.7</ele>
        <time>2023-03-20T10:54:41Z</time>
      </trkpt>
      <trkpt lat="44.44432" lon="5.61068">
        <ele>1391.8</ele>
        <time>2023-03-20T10:54:42Z</time>
      </trkpt>
      <trkpt lat="44.44435" lon="5.6107">
        <ele>1392.3</ele>
        <time>2023-03-20T10:54:43Z</time>
      </trkpt>
      <trkpt lat="44.44436" lon="5.61071">
        <ele>1392.4</ele>
        <time>2023-03-20T10:54:44Z</time>
      </trkpt>
      <trkpt lat="44.44439" lon="5.61073">
        <ele>1392.8</ele>
        <time>2023-03-20T10:54:45Z</time>
      </trkpt>
      <trkpt lat="44.4444" lon="5.61074">
        <ele>1392.9</ele>
        <time>2023-03-20T10:54:46Z</time>
      </trkpt>
      <trkpt lat="44.44442" lon="5.61076">
        <ele>1393.3</ele>
        <time>2023-03-20T10:54:47Z</time>
      </trkpt>
      <trkpt lat="44.44443" lon="5.61076">
        <ele>1393.4</ele>
        <time>2023-03-20T10:54:48Z</time>
      </trkpt>
      <trkpt lat="44.44446" lon="5.61078">
        <ele>1393.9</ele>
        <time>2023-03-20T10:54:49Z</time>
      </trkpt>
      <trkpt lat="44.44447" lon="5.61079">
        <ele>1394</ele>
        <time>2023-03-20T10:54:50Z</time>
      </trkpt>
      <trkpt lat="44.4445" lon="5.61082">
        <ele>1394.5</ele>
        <time>2023-03-20T10:54:51Z</time>
      </trkpt>
      <trkpt lat="44.44451" lon="5.61083">
        <ele>1394.6</ele>
        <time>2023-03-20T10:54:52Z</time>
      </trkpt>
      <trkpt lat="44.44454" lon="5.61086">
        <ele>1395.1</ele>
        <time>2023-03-20T10:54:53Z</time>
      </trkpt>
      <trkpt lat="44.44455" lon="5.61086">
        <ele>1395.3</ele>
        <time>2023-03-20T10:54:54Z</time>
      </trkpt>
      <trkpt lat="44.44458" lon="5.61089">
        <ele>1395.7</ele>
        <time>2023-03-20T10:54:55Z</time>
      </trkpt>
      <trkpt lat="44.44459" lon="5.6109">
        <ele>1395.9</ele>
        <time>2023-03-20T10:54:56Z</time>
      </trkpt>
      <trkpt lat="44.44462" lon="5.61092">
        <ele>1396.2</ele>
        <time>2023-03-20T10:54:57Z</time>
      </trkpt>
      <trkpt lat="44.44462" lon="5.61092">
        <ele>1396.3</ele>
        <time>2023-03-20T10:54:58Z</time>
      </trkpt>
      <trkpt lat="44.44465" lon="5.61095">
        <ele>1396.7</ele>
        <time>2023-03-20T10:54:59Z</time>
      </trkpt>
      <trkpt lat="44.44466" lon="5.61096">
        <ele>1396.9</ele>
        <time>2023-03-20T10:55:00Z</time>
      </trkpt>
      <trkpt lat="44.44468" lon="5.61098">
        <ele>1397.2</ele>
        <time>2023-03-20T10:55:01Z</time>
      </trkpt>
      <trkpt lat="44.44469" lon="5.61098">
        <ele>1397.4</ele>
        <time>2023-03-20T10:55:02Z</time>
      </trkpt>
      <trkpt lat="44.44472" lon="5.61099">
        <ele>1397.8</ele>
        <time>2023-03-20T10:55:03Z</time>
      </trkpt>
      <trkpt lat="44.44473" lon="5.611">
        <ele>1397.9</ele>
        <time>2023-03-20T10:55:04Z</time>
      </trkpt>
      <trkpt lat="44.44476" lon="5.61102">
        <ele>1398.4</ele>
        <time>2023-03-20T10:55:05Z</time>
      </trkpt>
      <trkpt lat="44.44477" lon="5.61103">
        <ele>1398.5</ele>
        <time>2023-03-20T10:55:06Z</time>
      </trkpt>
      <trkpt lat="44.44481" lon="5.61105">
        <ele>1399</ele>
        <time>2023-03-20T10:55:07Z</time>
      </trkpt>
      <trkpt lat="44.44482" lon="5.61106">
        <ele>1399.2</ele>
        <time>2023-03-20T10:55:08Z</time>
      </trkpt>
      <trkpt lat="44.44485" lon="5.61107">
        <ele>1399.6</ele>
        <time>2023-03-20T10:55:09Z</time>
      </trkpt>
      <trkpt lat="44.44486" lon="5.61107">
        <ele>1399.8</ele>
        <time>2023-03-20T10:55:10Z</time>
      </trkpt>
      <trkpt lat="44.44489" lon="5.61107">
        <ele>1400.2</ele>
        <time>2023-03-20T10:55:11Z</time>
      </trkpt>
      <trkpt lat="44.4449" lon="5.61107">
        <ele>1400.3</ele>
        <time>2023-03-20T10:55:12Z</time>
      </trkpt>
      <trkpt lat="44.44492" lon="5.61107">
        <ele>1400.5</ele>
        <time>2023-03-20T10:55:13Z</time>
      </trkpt>
      <trkpt lat="44.44493" lon="5.61107">
        <ele>1400.7</ele>
        <time>2023-03-20T10:55:14Z</time>
      </trkpt>
      <trkpt lat="44.44497" lon="5.61108">
        <ele>1401.1</ele>
        <time>2023-03-20T10:55:15Z</time>
      </trkpt>
      <trkpt lat="44.44498" lon="5.61108">
        <ele>1401.3</ele>
        <time>2023-03-20T10:55:16Z</time>
      </trkpt>
      <trkpt lat="44.445" lon="5.61109">
        <ele>1401.7</ele>
        <time>2023-03-20T10:55:17Z</time>
      </trkpt>
      <trkpt lat="44.44501" lon="5.6111">
        <ele>1401.8</ele>
        <time>2023-03-20T10:55:18Z</time>
      </trkpt>
      <trkpt lat="44.44504" lon="5.61111">
        <ele>1402.1</ele>
        <time>2023-03-20T10:55:19Z</time>
      </trkpt>
      <trkpt lat="44.44505" lon="5.61112">
        <ele>1402.3</ele>
        <time>2023-03-20T10:55:20Z</time>
      </trkpt>
      <trkpt lat="44.44506" lon="5.61112">
        <ele>1402.5</ele>
        <time>2023-03-20T10:55:21Z</time>
      </trkpt>
      <trkpt lat="44.44508" lon="5.61113">
        <ele>1402.7</ele>
        <time>2023-03-20T10:55:22Z</time>
      </trkpt>
      <trkpt lat="44.44509" lon="5.61114">
        <ele>1402.9</ele>
        <time>2023-03-20T10:55:23Z</time>
      </trkpt>
      <trkpt lat="44.44511" lon="5.61115">
        <ele>1403.1</ele>
        <time>2023-03-20T10:55:24Z</time>
      </trkpt>
      <trkpt lat="44.44512" lon="5.61115">
        <ele>1403.3</ele>
        <time>2023-03-20T10:55:25Z</time>
      </trkpt>
      <trkpt lat="44.44514" lon="5.61116">
        <ele>1403.6</ele>
        <time>2023-03-20T10:55:26Z</time>
      </trkpt>
      <trkpt lat="44.44517" lon="5.61118">
        <ele>1403.9</ele>
        <time>2023-03-20T10:55:27Z</time>
      </trkpt>
      <trkpt lat="44.44517" lon="5.61118">
        <ele>1404</ele>
        <time>2023-03-20T10:55:28Z</time>
      </trkpt>
      <trkpt lat="44.4452" lon="5.6112">
        <ele>1404.4</ele>
        <time>2023-03-20T10:55:29Z</time>
      </trkpt>
      <trkpt lat="44.44521" lon="5.61121">
        <ele>1404.5</ele>
        <time>2023-03-20T10:55:30Z</time>
      </trkpt>
      <trkpt lat="44.44524" lon="5.61123">
        <ele>1405</ele>
        <time>2023-03-20T10:55:31Z</time>
      </trkpt>
      <trkpt lat="44.44524" lon="5.61124">
        <ele>1405.1</ele>
        <time>2023-03-20T10:55:32Z</time>
      </trkpt>
      <trkpt lat="44.44527" lon="5.61127">
        <ele>1405.6</ele>
        <time>2023-03-20T10:55:33Z</time>
      </trkpt>
      <trkpt lat="44.44528" lon="5.61128">
        <ele>1405.7</ele>
        <time>2023-03-20T10:55:34Z</time>
      </trkpt>
      <trkpt lat="44.44529" lon="5.61129">
        <ele>1405.9</ele>
        <time>2023-03-20T10:55:35Z</time>
      </trkpt>
      <trkpt lat="44.4453" lon="5.6113">
        <ele>1406</ele>
        <time>2023-03-20T10:55:36Z</time>
      </trkpt>
      <trkpt lat="44.44532" lon="5.61133">
        <ele>1406.4</ele>
        <time>2023-03-20T10:55:37Z</time>
      </trkpt>
      <trkpt lat="44.44533" lon="5.61134">
        <ele>1406.5</ele>
        <time>2023-03-20T10:55:38Z</time>
      </trkpt>
      <trkpt lat="44.44535" lon="5.61136">
        <ele>1406.9</ele>
        <time>2023-03-20T10:55:39Z</time>
      </trkpt>
      <trkpt lat="44.44536" lon="5.61137">
        <ele>1407</ele>
        <time>2023-03-20T10:55:40Z</time>
      </trkpt>
      <trkpt lat="44.44538" lon="5.61139">
        <ele>1407.4</ele>
        <time>2023-03-20T10:55:41Z</time>
      </trkpt>
      <trkpt lat="44.44539" lon="5.6114">
        <ele>1407.5</ele>
        <time>2023-03-20T10:55:42Z</time>
      </trkpt>
      <trkpt lat="44.4454" lon="5.61141">
        <ele>1407.7</ele>
        <time>2023-03-20T10:55:43Z</time>
      </trkpt>
      <trkpt lat="44.44542" lon="5.61142">
        <ele>1407.9</ele>
        <time>2023-03-20T10:55:44Z</time>
      </trkpt>
      <trkpt lat="44.44543" lon="5.61143">
        <ele>1408.1</ele>
        <time>2023-03-20T10:55:45Z</time>
      </trkpt>
      <trkpt lat="44.44544" lon="5.61144">
        <ele>1408.3</ele>
        <time>2023-03-20T10:55:46Z</time>
      </trkpt>
      <trkpt lat="44.44547" lon="5.61146">
        <ele>1408.7</ele>
        <time>2023-03-20T10:55:47Z</time>
      </trkpt>
      <trkpt lat="44.44548" lon="5.61147">
        <ele>1408.9</ele>
        <time>2023-03-20T10:55:48Z</time>
      </trkpt>
      <trkpt lat="44.4455" lon="5.6115">
        <ele>1409.2</ele>
        <time>2023-03-20T10:55:49Z</time>
      </trkpt>
      <trkpt lat="44.44551" lon="5.61151">
        <ele>1409.4</ele>
        <time>2023-03-20T10:55:50Z</time>
      </trkpt>
      <trkpt lat="44.44553" lon="5.61154">
        <ele>1409.7</ele>
        <time>2023-03-20T10:55:51Z</time>
      </trkpt>
      <trkpt lat="44.44553" lon="5.61155">
        <ele>1409.9</ele>
        <time>2023-03-20T10:55:52Z</time>
      </trkpt>
      <trkpt lat="44.44555" lon="5.61158">
        <ele>1410.2</ele>
        <time>2023-03-20T10:55:53Z</time>
      </trkpt>
      <trkpt lat="44.44556" lon="5.61159">
        <ele>1410.4</ele>
        <time>2023-03-20T10:55:54Z</time>
      </trkpt>
      <trkpt lat="44.44557" lon="5.61161">
        <ele>1410.6</ele>
        <time>2023-03-20T10:55:55Z</time>
      </trkpt>
      <trkpt lat="44.44558" lon="5.61162">
        <ele>1410.8</ele>
        <time>2023-03-20T10:55:56Z</time>
      </trkpt>
      <trkpt lat="44.4456" lon="5.61165">
        <ele>1411.2</ele>
        <time>2023-03-20T10:55:57Z</time>
      </trkpt>
      <trkpt lat="44.44561" lon="5.61166">
        <ele>1411.3</ele>
        <time>2023-03-20T10:55:58Z</time>
      </trkpt>
      <trkpt lat="44.44563" lon="5.61171">
        <ele>1411.8</ele>
        <time>2023-03-20T10:55:59Z</time>
      </trkpt>
      <trkpt lat="44.44564" lon="5.61172">
        <ele>1412</ele>
        <time>2023-03-20T10:56:00Z</time>
      </trkpt>
      <trkpt lat="44.44565" lon="5.61174">
        <ele>1412.2</ele>
        <time>2023-03-20T10:56:01Z</time>
      </trkpt>
      <trkpt lat="44.44566" lon="5.61176">
        <ele>1412.4</ele>
        <time>2023-03-20T10:56:02Z</time>
      </trkpt>
      <trkpt lat="44.44567" lon="5.61178">
        <ele>1412.7</ele>
        <time>2023-03-20T10:56:03Z</time>
      </trkpt>
      <trkpt lat="44.44568" lon="5.6118">
        <ele>1412.9</ele>
        <time>2023-03-20T10:56:04Z</time>
      </trkpt>
      <trkpt lat="44.44571" lon="5.61181">
        <ele>1413.3</ele>
        <time>2023-03-20T10:56:05Z</time>
      </trkpt>
      <trkpt lat="44.44573" lon="5.61181">
        <ele>1413.5</ele>
        <time>2023-03-20T10:56:06Z</time>
      </trkpt>
      <trkpt lat="44.44575" lon="5.61183">
        <ele>1413.9</ele>
        <time>2023-03-20T10:56:07Z</time>
      </trkpt>
      <trkpt lat="44.44576" lon="5.61184">
        <ele>1414</ele>
        <time>2023-03-20T10:56:08Z</time>
      </trkpt>
      <trkpt lat="44.44577" lon="5.61185">
        <ele>1414.2</ele>
        <time>2023-03-20T10:56:09Z</time>
      </trkpt>
      <trkpt lat="44.44579" lon="5.61187">
        <ele>1414.4</ele>
        <time>2023-03-20T10:56:10Z</time>
      </trkpt>
      <trkpt lat="44.44581" lon="5.6119">
        <ele>1414.8</ele>
        <time>2023-03-20T10:56:11Z</time>
      </trkpt>
      <trkpt lat="44.44581" lon="5.61191">
        <ele>1415</ele>
        <time>2023-03-20T10:56:12Z</time>
      </trkpt>
      <trkpt lat="44.44583" lon="5.61194">
        <ele>1415.4</ele>
        <time>2023-03-20T10:56:13Z</time>
      </trkpt>
      <trkpt lat="44.44584" lon="5.61195">
        <ele>1415.5</ele>
        <time>2023-03-20T10:56:14Z</time>
      </trkpt>
      <trkpt lat="44.44586" lon="5.61197">
        <ele>1415.8</ele>
        <time>2023-03-20T10:56:15Z</time>
      </trkpt>
      <trkpt lat="44.44587" lon="5.61198">
        <ele>1416</ele>
        <time>2023-03-20T10:56:16Z</time>
      </trkpt>
      <trkpt lat="44.44589" lon="5.61201">
        <ele>1416.3</ele>
        <time>2023-03-20T10:56:17Z</time>
      </trkpt>
      <trkpt lat="44.4459" lon="5.61202">
        <ele>1416.5</ele>
        <time>2023-03-20T10:56:18Z</time>
      </trkpt>
      <trkpt lat="44.44592" lon="5.61205">
        <ele>1416.9</ele>
        <time>2023-03-20T10:56:19Z</time>
      </trkpt>
      <trkpt lat="44.44593" lon="5.61206">
        <ele>1417</ele>
        <time>2023-03-20T10:56:20Z</time>
      </trkpt>
      <trkpt lat="44.44596" lon="5.61209">
        <ele>1417.5</ele>
        <time>2023-03-20T10:56:21Z</time>
      </trkpt>
      <trkpt lat="44.44597" lon="5.6121">
        <ele>1417.6</ele>
        <time>2023-03-20T10:56:22Z</time>
      </trkpt>
      <trkpt lat="44.44599" lon="5.61213">
        <ele>1418.1</ele>
        <time>2023-03-20T10:56:23Z</time>
      </trkpt>
      <trkpt lat="44.446" lon="5.61214">
        <ele>1418.2</ele>
        <time>2023-03-20T10:56:24Z</time>
      </trkpt>
      <trkpt lat="44.44601" lon="5.61218">
        <ele>1418.6</ele>
        <time>2023-03-20T10:56:25Z</time>
      </trkpt>
      <trkpt lat="44.44602" lon="5.61219">
        <ele>1418.7</ele>
        <time>2023-03-20T10:56:26Z</time>
      </trkpt>
      <trkpt lat="44.44604" lon="5.61222">
        <ele>1419.1</ele>
        <time>2023-03-20T10:56:27Z</time>
      </trkpt>
      <trkpt lat="44.44605" lon="5.61223">
        <ele>1419.3</ele>
        <time>2023-03-20T10:56:28Z</time>
      </trkpt>
      <trkpt lat="44.44607" lon="5.61227">
        <ele>1419.8</ele>
        <time>2023-03-20T10:56:29Z</time>
      </trkpt>
      <trkpt lat="44.44608" lon="5.61228">
        <ele>1419.9</ele>
        <time>2023-03-20T10:56:30Z</time>
      </trkpt>
      <trkpt lat="44.44611" lon="5.61231">
        <ele>1420.4</ele>
        <time>2023-03-20T10:56:31Z</time>
      </trkpt>
      <trkpt lat="44.44611" lon="5.61232">
        <ele>1420.5</ele>
        <time>2023-03-20T10:56:32Z</time>
      </trkpt>
      <trkpt lat="44.44612" lon="5.61234">
        <ele>1420.7</ele>
        <time>2023-03-20T10:56:33Z</time>
      </trkpt>
      <trkpt lat="44.44613" lon="5.61236">
        <ele>1420.9</ele>
        <time>2023-03-20T10:56:34Z</time>
      </trkpt>
      <trkpt lat="44.44615" lon="5.61239">
        <ele>1421.3</ele>
        <time>2023-03-20T10:56:35Z</time>
      </trkpt>
      <trkpt lat="44.44616" lon="5.61241">
        <ele>1421.4</ele>
        <time>2023-03-20T10:56:36Z</time>
      </trkpt>
      <trkpt lat="44.44618" lon="5.61244">
        <ele>1421.8</ele>
        <time>2023-03-20T10:56:37Z</time>
      </trkpt>
      <trkpt lat="44.44618" lon="5.61245">
        <ele>1422</ele>
        <time>2023-03-20T10:56:38Z</time>
      </trkpt>
      <trkpt lat="44.4462" lon="5.61246">
        <ele>1422.2</ele>
        <time>2023-03-20T10:56:39Z</time>
      </trkpt>
      <trkpt lat="44.44621" lon="5.61248">
        <ele>1422.4</ele>
        <time>2023-03-20T10:56:40Z</time>
      </trkpt>
      <trkpt lat="44.44622" lon="5.61249">
        <ele>1422.6</ele>
        <time>2023-03-20T10:56:41Z</time>
      </trkpt>
      <trkpt lat="44.44624" lon="5.61251">
        <ele>1422.9</ele>
        <time>2023-03-20T10:56:42Z</time>
      </trkpt>
      <trkpt lat="44.44625" lon="5.61252">
        <ele>1423.1</ele>
        <time>2023-03-20T10:56:43Z</time>
      </trkpt>
      <trkpt lat="44.44627" lon="5.61253">
        <ele>1423.3</ele>
        <time>2023-03-20T10:56:44Z</time>
      </trkpt>
      <trkpt lat="44.44628" lon="5.61254">
        <ele>1423.5</ele>
        <time>2023-03-20T10:56:45Z</time>
      </trkpt>
      <trkpt lat="44.44629" lon="5.61256">
        <ele>1423.7</ele>
        <time>2023-03-20T10:56:46Z</time>
      </trkpt>
      <trkpt lat="44.44631" lon="5.61259">
        <ele>1424.1</ele>
        <time>2023-03-20T10:56:47Z</time>
      </trkpt>
      <trkpt lat="44.44632" lon="5.6126">
        <ele>1424.2</ele>
        <time>2023-03-20T10:56:48Z</time>
      </trkpt>
      <trkpt lat="44.44634" lon="5.61263">
        <ele>1424.6</ele>
        <time>2023-03-20T10:56:49Z</time>
      </trkpt>
      <trkpt lat="44.44634" lon="5.61264">
        <ele>1424.8</ele>
        <time>2023-03-20T10:56:50Z</time>
      </trkpt>
      <trkpt lat="44.44636" lon="5.61268">
        <ele>1425.2</ele>
        <time>2023-03-20T10:56:51Z</time>
      </trkpt>
      <trkpt lat="44.44636" lon="5.61269">
        <ele>1425.3</ele>
        <time>2023-03-20T10:56:52Z</time>
      </trkpt>
      <trkpt lat="44.44638" lon="5.61273">
        <ele>1425.7</ele>
        <time>2023-03-20T10:56:53Z</time>
      </trkpt>
      <trkpt lat="44.44638" lon="5.61274">
        <ele>1425.8</ele>
        <time>2023-03-20T10:56:54Z</time>
      </trkpt>
      <trkpt lat="44.44641" lon="5.61278">
        <ele>1426.3</ele>
        <time>2023-03-20T10:56:55Z</time>
      </trkpt>
      <trkpt lat="44.44642" lon="5.61279">
        <ele>1426.4</ele>
        <time>2023-03-20T10:56:56Z</time>
      </trkpt>
      <trkpt lat="44.44644" lon="5.61282">
        <ele>1426.8</ele>
        <time>2023-03-20T10:56:57Z</time>
      </trkpt>
      <trkpt lat="44.44646" lon="5.61285">
        <ele>1427.2</ele>
        <time>2023-03-20T10:56:58Z</time>
      </trkpt>
      <trkpt lat="44.44646" lon="5.61285">
        <ele>1427.3</ele>
        <time>2023-03-20T10:56:59Z</time>
      </trkpt>
      <trkpt lat="44.44648" lon="5.61288">
        <ele>1427.6</ele>
        <time>2023-03-20T10:57:00Z</time>
      </trkpt>
      <trkpt lat="44.44649" lon="5.61289">
        <ele>1427.8</ele>
        <time>2023-03-20T10:57:01Z</time>
      </trkpt>
      <trkpt lat="44.44651" lon="5.61292">
        <ele>1428.2</ele>
        <time>2023-03-20T10:57:02Z</time>
      </trkpt>
      <trkpt lat="44.44652" lon="5.61293">
        <ele>1428.3</ele>
        <time>2023-03-20T10:57:03Z</time>
      </trkpt>
      <trkpt lat="44.44655" lon="5.61296">
        <ele>1428.8</ele>
        <time>2023-03-20T10:57:04Z</time>
      </trkpt>
      <trkpt lat="44.44655" lon="5.61297">
        <ele>1428.9</ele>
        <time>2023-03-20T10:57:05Z</time>
      </trkpt>
      <trkpt lat="44.44657" lon="5.61302">
        <ele>1429.4</ele>
        <time>2023-03-20T10:57:06Z</time>
      </trkpt>
      <trkpt lat="44.44657" lon="5.61303">
        <ele>1429.5</ele>
        <time>2023-03-20T10:57:07Z</time>
      </trkpt>
      <trkpt lat="44.44659" lon="5.61306">
        <ele>1429.9</ele>
        <time>2023-03-20T10:57:08Z</time>
      </trkpt>
      <trkpt lat="44.4466" lon="5.61307">
        <ele>1430</ele>
        <time>2023-03-20T10:57:09Z</time>
      </trkpt>
      <trkpt lat="44.44661" lon="5.61311">
        <ele>1430.4</ele>
        <time>2023-03-20T10:57:10Z</time>
      </trkpt>
      <trkpt lat="44.44662" lon="5.61313">
        <ele>1430.6</ele>
        <time>2023-03-20T10:57:11Z</time>
      </trkpt>
      <trkpt lat="44.44664" lon="5.61316">
        <ele>1431</ele>
        <time>2023-03-20T10:57:12Z</time>
      </trkpt>
      <trkpt lat="44.44665" lon="5.61317">
        <ele>1431.2</ele>
        <time>2023-03-20T10:57:13Z</time>
      </trkpt>
      <trkpt lat="44.44667" lon="5.6132">
        <ele>1431.6</ele>
        <time>2023-03-20T10:57:14Z</time>
      </trkpt>
      <trkpt lat="44.44668" lon="5.61322">
        <ele>1431.8</ele>
        <time>2023-03-20T10:57:15Z</time>
      </trkpt>
      <trkpt lat="44.44671" lon="5.61324">
        <ele>1432.2</ele>
        <time>2023-03-20T10:57:16Z</time>
      </trkpt>
      <trkpt lat="44.44672" lon="5.61325">
        <ele>1432.3</ele>
        <time>2023-03-20T10:57:17Z</time>
      </trkpt>
      <trkpt lat="44.44674" lon="5.61329">
        <ele>1432.8</ele>
        <time>2023-03-20T10:57:18Z</time>
      </trkpt>
      <trkpt lat="44.44675" lon="5.6133">
        <ele>1432.9</ele>
        <time>2023-03-20T10:57:19Z</time>
      </trkpt>
      <trkpt lat="44.44676" lon="5.61331">
        <ele>1433.1</ele>
        <time>2023-03-20T10:57:20Z</time>
      </trkpt>
      <trkpt lat="44.44677" lon="5.61332">
        <ele>1433.4</ele>
        <time>2023-03-20T10:57:21Z</time>
      </trkpt>
      <trkpt lat="44.44679" lon="5.61333">
        <ele>1433.6</ele>
        <time>2023-03-20T10:57:22Z</time>
      </trkpt>
      <trkpt lat="44.44681" lon="5.61334">
        <ele>1433.8</ele>
        <time>2023-03-20T10:57:23Z</time>
      </trkpt>
      <trkpt lat="44.44682" lon="5.61335">
        <ele>1434</ele>
        <time>2023-03-20T10:57:24Z</time>
      </trkpt>
      <trkpt lat="44.44683" lon="5.61335">
        <ele>1434.2</ele>
        <time>2023-03-20T10:57:25Z</time>
      </trkpt>
      <trkpt lat="44.44684" lon="5.61335">
        <ele>1434.1</ele>
        <time>2023-03-20T10:57:26Z</time>
      </trkpt>
      <trkpt lat="44.44685" lon="5.61335">
        <ele>1434</ele>
        <time>2023-03-20T10:57:27Z</time>
      </trkpt>
      <trkpt lat="44.44686" lon="5.61334">
        <ele>1434</ele>
        <time>2023-03-20T10:57:28Z</time>
      </trkpt>
      <trkpt lat="44.44687" lon="5.61333">
        <ele>1434.3</ele>
        <time>2023-03-20T10:57:29Z</time>
      </trkpt>
      <trkpt lat="44.44688" lon="5.61332">
        <ele>1433.9</ele>
        <time>2023-03-20T10:57:30Z</time>
      </trkpt>
      <trkpt lat="44.44689" lon="5.61331">
        <ele>1433.8</ele>
        <time>2023-03-20T10:57:31Z</time>
      </trkpt>
      <trkpt lat="44.4469" lon="5.61329">
        <ele>1434.2</ele>
        <time>2023-03-20T10:57:32Z</time>
      </trkpt>
      <trkpt lat="44.44691" lon="5.61328">
        <ele>1433.8</ele>
        <time>2023-03-20T10:57:33Z</time>
      </trkpt>
      <trkpt lat="44.44692" lon="5.61326">
        <ele>1433.7</ele>
        <time>2023-03-20T10:57:34Z</time>
      </trkpt>
      <trkpt lat="44.44693" lon="5.61324">
        <ele>1433.8</ele>
        <time>2023-03-20T10:57:35Z</time>
      </trkpt>
      <trkpt lat="44.44695" lon="5.61322">
        <ele>1433.8</ele>
        <time>2023-03-20T10:57:36Z</time>
      </trkpt>
      <trkpt lat="44.44696" lon="5.61321">
        <ele>1434.3</ele>
        <time>2023-03-20T10:57:37Z</time>
      </trkpt>
      <trkpt lat="44.44697" lon="5.6132">
        <ele>1433.9</ele>
        <time>2023-03-20T10:57:38Z</time>
      </trkpt>
      <trkpt lat="44.447" lon="5.61319">
        <ele>1434.6</ele>
        <time>2023-03-20T10:57:39Z</time>
      </trkpt>
      <trkpt lat="44.44701" lon="5.61319">
        <ele>1434.5</ele>
        <time>2023-03-20T10:57:40Z</time>
      </trkpt>
      <trkpt lat="44.44704" lon="5.61319">
        <ele>1435.2</ele>
        <time>2023-03-20T10:57:41Z</time>
      </trkpt>
      <trkpt lat="44.44705" lon="5.6132">
        <ele>1435.1</ele>
        <time>2023-03-20T10:57:42Z</time>
      </trkpt>
      <trkpt lat="44.44706" lon="5.61319">
        <ele>1435.8</ele>
        <time>2023-03-20T10:57:43Z</time>
      </trkpt>
      <trkpt lat="44.44708" lon="5.61319">
        <ele>1436.6</ele>
        <time>2023-03-20T10:57:44Z</time>
      </trkpt>
      <trkpt lat="44.44711" lon="5.61319">
        <ele>1436.5</ele>
        <time>2023-03-20T10:57:45Z</time>
      </trkpt>
      <trkpt lat="44.44712" lon="5.61319">
        <ele>1437.4</ele>
        <time>2023-03-20T10:57:46Z</time>
      </trkpt>
      <trkpt lat="44.44713" lon="5.61319">
        <ele>1437.3</ele>
        <time>2023-03-20T10:57:47Z</time>
      </trkpt>
      <trkpt lat="44.44715" lon="5.61318">
        <ele>1438.2</ele>
        <time>2023-03-20T10:57:48Z</time>
      </trkpt>
      <trkpt lat="44.44716" lon="5.61317">
        <ele>1438.1</ele>
        <time>2023-03-20T10:57:49Z</time>
      </trkpt>
      <trkpt lat="44.44718" lon="5.61316">
        <ele>1438.9</ele>
        <time>2023-03-20T10:57:50Z</time>
      </trkpt>
      <trkpt lat="44.44719" lon="5.61314">
        <ele>1438.9</ele>
        <time>2023-03-20T10:57:51Z</time>
      </trkpt>
      <trkpt lat="44.4472" lon="5.61311">
        <ele>1438.8</ele>
        <time>2023-03-20T10:57:52Z</time>
      </trkpt>
      <trkpt lat="44.44721" lon="5.61309">
        <ele>1439.7</ele>
        <time>2023-03-20T10:57:53Z</time>
      </trkpt>
      <trkpt lat="44.44722" lon="5.61308">
        <ele>1439.7</ele>
        <time>2023-03-20T10:57:54Z</time>
      </trkpt>
      <trkpt lat="44.44723" lon="5.61306">
        <ele>1440.7</ele>
        <time>2023-03-20T10:57:55Z</time>
      </trkpt>
      <trkpt lat="44.44725" lon="5.61304">
        <ele>1440.7</ele>
        <time>2023-03-20T10:57:56Z</time>
      </trkpt>
      <trkpt lat="44.44727" lon="5.61301">
        <ele>1441.8</ele>
        <time>2023-03-20T10:57:57Z</time>
      </trkpt>
      <trkpt lat="44.44727" lon="5.613">
        <ele>1441.7</ele>
        <time>2023-03-20T10:57:58Z</time>
      </trkpt>
      <trkpt lat="44.4473" lon="5.61298">
        <ele>1442.8</ele>
        <time>2023-03-20T10:57:59Z</time>
      </trkpt>
      <trkpt lat="44.4473" lon="5.61297">
        <ele>1442.8</ele>
        <time>2023-03-20T10:58:00Z</time>
      </trkpt>
      <trkpt lat="44.44732" lon="5.61294">
        <ele>1442.6</ele>
        <time>2023-03-20T10:58:01Z</time>
      </trkpt>
      <trkpt lat="44.44733" lon="5.61293">
        <ele>1443.8</ele>
        <time>2023-03-20T10:58:02Z</time>
      </trkpt>
      <trkpt lat="44.44734" lon="5.61289">
        <ele>1443.6</ele>
        <time>2023-03-20T10:58:03Z</time>
      </trkpt>
      <trkpt lat="44.44735" lon="5.61288">
        <ele>1443.6</ele>
        <time>2023-03-20T10:58:04Z</time>
      </trkpt>
      <trkpt lat="44.44737" lon="5.61286">
        <ele>1444.8</ele>
        <time>2023-03-20T10:58:05Z</time>
      </trkpt>
      <trkpt lat="44.44738" lon="5.61285">
        <ele>1444.6</ele>
        <time>2023-03-20T10:58:06Z</time>
      </trkpt>
      <trkpt lat="44.4474" lon="5.61284">
        <ele>1445.8</ele>
        <time>2023-03-20T10:58:07Z</time>
      </trkpt>
      <trkpt lat="44.44741" lon="5.61283">
        <ele>1445.7</ele>
        <time>2023-03-20T10:58:08Z</time>
      </trkpt>
      <trkpt lat="44.44744" lon="5.61283">
        <ele>1447</ele>
        <time>2023-03-20T10:58:09Z</time>
      </trkpt>
      <trkpt lat="44.44745" lon="5.61284">
        <ele>1448.4</ele>
        <time>2023-03-20T10:58:10Z</time>
      </trkpt>
      <trkpt lat="44.44748" lon="5.61285">
        <ele>1449.9</ele>
        <time>2023-03-20T10:58:11Z</time>
      </trkpt>
      <trkpt lat="44.44749" lon="5.61286">
        <ele>1449.9</ele>
        <time>2023-03-20T10:58:12Z</time>
      </trkpt>
      <trkpt lat="44.44752" lon="5.61288">
        <ele>1451.4</ele>
        <time>2023-03-20T10:58:13Z</time>
      </trkpt>
      <trkpt lat="44.44753" lon="5.61289">
        <ele>1451.3</ele>
        <time>2023-03-20T10:58:14Z</time>
      </trkpt>
      <trkpt lat="44.44755" lon="5.61293">
        <ele>1452.7</ele>
        <time>2023-03-20T10:58:15Z</time>
      </trkpt>
      <trkpt lat="44.44755" lon="5.61294">
        <ele>1452.6</ele>
        <time>2023-03-20T10:58:16Z</time>
      </trkpt>
      <trkpt lat="44.44756" lon="5.61298">
        <ele>1452.5</ele>
        <time>2023-03-20T10:58:17Z</time>
      </trkpt>
      <trkpt lat="44.44757" lon="5.61299">
        <ele>1452.4</ele>
        <time>2023-03-20T10:58:18Z</time>
      </trkpt>
      <trkpt lat="44.44757" lon="5.61303">
        <ele>1453.5</ele>
        <time>2023-03-20T10:58:19Z</time>
      </trkpt>
      <trkpt lat="44.44758" lon="5.61304">
        <ele>1453.5</ele>
        <time>2023-03-20T10:58:20Z</time>
      </trkpt>
      <trkpt lat="44.44758" lon="5.61309">
        <ele>1453.2</ele>
        <time>2023-03-20T10:58:21Z</time>
      </trkpt>
      <trkpt lat="44.44759" lon="5.61311">
        <ele>1453.1</ele>
        <time>2023-03-20T10:58:22Z</time>
      </trkpt>
      <trkpt lat="44.44759" lon="5.61313">
        <ele>1452.9</ele>
        <time>2023-03-20T10:58:23Z</time>
      </trkpt>
      <trkpt lat="44.44759" lon="5.61315">
        <ele>1452.8</ele>
        <time>2023-03-20T10:58:24Z</time>
      </trkpt>
      <trkpt lat="44.4476" lon="5.61317">
        <ele>1452.5</ele>
        <time>2023-03-20T10:58:25Z</time>
      </trkpt>
      <trkpt lat="44.4476" lon="5.61319">
        <ele>1453.6</ele>
        <time>2023-03-20T10:58:26Z</time>
      </trkpt>
      <trkpt lat="44.44761" lon="5.61324">
        <ele>1453.3</ele>
        <time>2023-03-20T10:58:27Z</time>
      </trkpt>
      <trkpt lat="44.44761" lon="5.61325">
        <ele>1453</ele>
        <time>2023-03-20T10:58:28Z</time>
      </trkpt>
      <trkpt lat="44.44762" lon="5.6133">
        <ele>1452.8</ele>
        <time>2023-03-20T10:58:29Z</time>
      </trkpt>
      <trkpt lat="44.44762" lon="5.61332">
        <ele>1452.9</ele>
        <time>2023-03-20T10:58:30Z</time>
      </trkpt>
      <trkpt lat="44.44763" lon="5.61336">
        <ele>1453.3</ele>
        <time>2023-03-20T10:58:31Z</time>
      </trkpt>
      <trkpt lat="44.44764" lon="5.61337">
        <ele>1453.4</ele>
        <time>2023-03-20T10:58:32Z</time>
      </trkpt>
      <trkpt lat="44.44765" lon="5.61341">
        <ele>1453.7</ele>
        <time>2023-03-20T10:58:33Z</time>
      </trkpt>
      <trkpt lat="44.44765" lon="5.61342">
        <ele>1453.8</ele>
        <time>2023-03-20T10:58:34Z</time>
      </trkpt>
      <trkpt lat="44.44766" lon="5.61346">
        <ele>1454.1</ele>
        <time>2023-03-20T10:58:35Z</time>
      </trkpt>
      <trkpt lat="44.44766" lon="5.61347">
        <ele>1454.3</ele>
        <time>2023-03-20T10:58:36Z</time>
      </trkpt>
      <trkpt lat="44.44766" lon="5.61351">
        <ele>1454.6</ele>
        <time>2023-03-20T10:58:37Z</time>
      </trkpt>
      <trkpt lat="44.44766" lon="5.61353">
        <ele>1454.7</ele>
        <time>2023-03-20T10:58:38Z</time>
      </trkpt>
      <trkpt lat="44.44766" lon="5.61357">
        <ele>1455</ele>
        <time>2023-03-20T10:58:39Z</time>
      </trkpt>
      <trkpt lat="44.44766" lon="5.61358">
        <ele>1455.1</ele>
        <time>2023-03-20T10:58:40Z</time>
      </trkpt>
      <trkpt lat="44.44767" lon="5.61362">
        <ele>1455.4</ele>
        <time>2023-03-20T10:58:41Z</time>
      </trkpt>
      <trkpt lat="44.44767" lon="5.61363">
        <ele>1455.6</ele>
        <time>2023-03-20T10:58:42Z</time>
      </trkpt>
      <trkpt lat="44.44767" lon="5.61368">
        <ele>1455.9</ele>
        <time>2023-03-20T10:58:43Z</time>
      </trkpt>
      <trkpt lat="44.44767" lon="5.61369">
        <ele>1456</ele>
        <time>2023-03-20T10:58:44Z</time>
      </trkpt>
      <trkpt lat="44.44768" lon="5.61372">
        <ele>1456.3</ele>
        <time>2023-03-20T10:58:45Z</time>
      </trkpt>
      <trkpt lat="44.44768" lon="5.61374">
        <ele>1456.5</ele>
        <time>2023-03-20T10:58:46Z</time>
      </trkpt>
      <trkpt lat="44.44768" lon="5.61376">
        <ele>1456.7</ele>
        <time>2023-03-20T10:58:47Z</time>
      </trkpt>
      <trkpt lat="44.44768" lon="5.61378">
        <ele>1456.8</ele>
        <time>2023-03-20T10:58:48Z</time>
      </trkpt>
      <trkpt lat="44.44768" lon="5.61382">
        <ele>1457.1</ele>
        <time>2023-03-20T10:58:49Z</time>
      </trkpt>
      <trkpt lat="44.44768" lon="5.61383">
        <ele>1457.3</ele>
        <time>2023-03-20T10:58:50Z</time>
      </trkpt>
      <trkpt lat="44.44768" lon="5.61386">
        <ele>1457.5</ele>
        <time>2023-03-20T10:58:51Z</time>
      </trkpt>
      <trkpt lat="44.44768" lon="5.61388">
        <ele>1457.7</ele>
        <time>2023-03-20T10:58:52Z</time>
      </trkpt>
      <trkpt lat="44.44769" lon="5.6139">
        <ele>1457.8</ele>
        <time>2023-03-20T10:58:53Z</time>
      </trkpt>
      <trkpt lat="44.44768" lon="5.61393">
        <ele>1458.1</ele>
        <time>2023-03-20T10:58:54Z</time>
      </trkpt>
      <trkpt lat="44.44768" lon="5.61397">
        <ele>1458.4</ele>
        <time>2023-03-20T10:58:55Z</time>
      </trkpt>
      <trkpt lat="44.44768" lon="5.61398">
        <ele>1458.5</ele>
        <time>2023-03-20T10:58:56Z</time>
      </trkpt>
      <trkpt lat="44.44767" lon="5.61402">
        <ele>1458.8</ele>
        <time>2023-03-20T10:58:57Z</time>
      </trkpt>
      <trkpt lat="44.44767" lon="5.61403">
        <ele>1458.9</ele>
        <time>2023-03-20T10:58:58Z</time>
      </trkpt>
      <trkpt lat="44.44767" lon="5.61405">
        <ele>1459.2</ele>
        <time>2023-03-20T10:58:59Z</time>
      </trkpt>
      <trkpt lat="44.44766" lon="5.61407">
        <ele>1459.4</ele>
        <time>2023-03-20T10:59:00Z</time>
      </trkpt>
      <trkpt lat="44.44765" lon="5.61411">
        <ele>1459.7</ele>
        <time>2023-03-20T10:59:01Z</time>
      </trkpt>
      <trkpt lat="44.44765" lon="5.61412">
        <ele>1459.8</ele>
        <time>2023-03-20T10:59:02Z</time>
      </trkpt>
      <trkpt lat="44.44764" lon="5.61415">
        <ele>1460</ele>
        <time>2023-03-20T10:59:03Z</time>
      </trkpt>
      <trkpt lat="44.44763" lon="5.61416">
        <ele>1460.2</ele>
        <time>2023-03-20T10:59:04Z</time>
      </trkpt>
      <trkpt lat="44.44762" lon="5.6142">
        <ele>1460.6</ele>
        <time>2023-03-20T10:59:05Z</time>
      </trkpt>
      <trkpt lat="44.44761" lon="5.61421">
        <ele>1460.7</ele>
        <time>2023-03-20T10:59:06Z</time>
      </trkpt>
      <trkpt lat="44.44759" lon="5.61424">
        <ele>1461</ele>
        <time>2023-03-20T10:59:07Z</time>
      </trkpt>
      <trkpt lat="44.44759" lon="5.61425">
        <ele>1461.1</ele>
        <time>2023-03-20T10:59:08Z</time>
      </trkpt>
      <trkpt lat="44.44758" lon="5.61426">
        <ele>1461.3</ele>
        <time>2023-03-20T10:59:09Z</time>
      </trkpt>
      <trkpt lat="44.44756" lon="5.61428">
        <ele>1461.5</ele>
        <time>2023-03-20T10:59:10Z</time>
      </trkpt>
      <trkpt lat="44.44755" lon="5.61431">
        <ele>1461.8</ele>
        <time>2023-03-20T10:59:11Z</time>
      </trkpt>
      <trkpt lat="44.44755" lon="5.61433">
        <ele>1462</ele>
        <time>2023-03-20T10:59:12Z</time>
      </trkpt>
      <trkpt lat="44.44754" lon="5.61435">
        <ele>1462.2</ele>
        <time>2023-03-20T10:59:13Z</time>
      </trkpt>
      <trkpt lat="44.44753" lon="5.61437">
        <ele>1462.4</ele>
        <time>2023-03-20T10:59:14Z</time>
      </trkpt>
      <trkpt lat="44.44753" lon="5.61441">
        <ele>1462.7</ele>
        <time>2023-03-20T10:59:15Z</time>
      </trkpt>
      <trkpt lat="44.44752" lon="5.61442">
        <ele>1462.8</ele>
        <time>2023-03-20T10:59:16Z</time>
      </trkpt>
      <trkpt lat="44.44753" lon="5.61446">
        <ele>1463.2</ele>
        <time>2023-03-20T10:59:17Z</time>
      </trkpt>
      <trkpt lat="44.44754" lon="5.61447">
        <ele>1463.4</ele>
        <time>2023-03-20T10:59:18Z</time>
      </trkpt>
      <trkpt lat="44.44756" lon="5.61449">
        <ele>1463.6</ele>
        <time>2023-03-20T10:59:19Z</time>
      </trkpt>
      <trkpt lat="44.44756" lon="5.61449">
        <ele>1463.7</ele>
        <time>2023-03-20T10:59:20Z</time>
      </trkpt>
      <trkpt lat="44.44757" lon="5.61449">
        <ele>1463.7</ele>
        <time>2023-03-20T10:59:21Z</time>
      </trkpt>
      <trkpt lat="44.44758" lon="5.61447">
        <ele>1464</ele>
        <time>2023-03-20T10:59:22Z</time>
      </trkpt>
      <trkpt lat="44.44759" lon="5.61446">
        <ele>1464.1</ele>
        <time>2023-03-20T10:59:23Z</time>
      </trkpt>
      <trkpt lat="44.4476" lon="5.61445">
        <ele>1464.3</ele>
        <time>2023-03-20T10:59:24Z</time>
      </trkpt>
      <trkpt lat="44.4476" lon="5.61443">
        <ele>1464.5</ele>
        <time>2023-03-20T10:59:25Z</time>
      </trkpt>
      <trkpt lat="44.44761" lon="5.61442">
        <ele>1464.6</ele>
        <time>2023-03-20T10:59:26Z</time>
      </trkpt>
      <trkpt lat="44.44762" lon="5.6144">
        <ele>1464.8</ele>
        <time>2023-03-20T10:59:27Z</time>
      </trkpt>
      <trkpt lat="44.44764" lon="5.61438">
        <ele>1465.1</ele>
        <time>2023-03-20T10:59:28Z</time>
      </trkpt>
      <trkpt lat="44.44766" lon="5.61435">
        <ele>1465.4</ele>
        <time>2023-03-20T10:59:29Z</time>
      </trkpt>
      <trkpt lat="44.44766" lon="5.61434">
        <ele>1465.5</ele>
        <time>2023-03-20T10:59:30Z</time>
      </trkpt>
      <trkpt lat="44.44768" lon="5.61433">
        <ele>1465.7</ele>
        <time>2023-03-20T10:59:31Z</time>
      </trkpt>
      <trkpt lat="44.44769" lon="5.61432">
        <ele>1465.9</ele>
        <time>2023-03-20T10:59:32Z</time>
      </trkpt>
      <trkpt lat="44.4477" lon="5.61431">
        <ele>1466.1</ele>
        <time>2023-03-20T10:59:33Z</time>
      </trkpt>
      <trkpt lat="44.44771" lon="5.6143">
        <ele>1466.3</ele>
        <time>2023-03-20T10:59:34Z</time>
      </trkpt>
      <trkpt lat="44.44772" lon="5.61428">
        <ele>1466.5</ele>
        <time>2023-03-20T10:59:35Z</time>
      </trkpt>
      <trkpt lat="44.44773" lon="5.61426">
        <ele>1466.7</ele>
        <time>2023-03-20T10:59:36Z</time>
      </trkpt>
      <trkpt lat="44.44774" lon="5.61424">
        <ele>1466.9</ele>
        <time>2023-03-20T10:59:37Z</time>
      </trkpt>
      <trkpt lat="44.44775" lon="5.61423">
        <ele>1467.1</ele>
        <time>2023-03-20T10:59:38Z</time>
      </trkpt>
      <trkpt lat="44.44777" lon="5.61421">
        <ele>1467.4</ele>
        <time>2023-03-20T10:59:39Z</time>
      </trkpt>
      <trkpt lat="44.44778" lon="5.6142">
        <ele>1467.5</ele>
        <time>2023-03-20T10:59:40Z</time>
      </trkpt>
      <trkpt lat="44.4478" lon="5.61418">
        <ele>1467.8</ele>
        <time>2023-03-20T10:59:41Z</time>
      </trkpt>
      <trkpt lat="44.44781" lon="5.61417">
        <ele>1468</ele>
        <time>2023-03-20T10:59:42Z</time>
      </trkpt>
      <trkpt lat="44.44782" lon="5.61416">
        <ele>1468.2</ele>
        <time>2023-03-20T10:59:43Z</time>
      </trkpt>
      <trkpt lat="44.44784" lon="5.61415">
        <ele>1468.5</ele>
        <time>2023-03-20T10:59:44Z</time>
      </trkpt>
      <trkpt lat="44.44787" lon="5.61413">
        <ele>1468.8</ele>
        <time>2023-03-20T10:59:45Z</time>
      </trkpt>
      <trkpt lat="44.44788" lon="5.61413">
        <ele>1469</ele>
        <time>2023-03-20T10:59:46Z</time>
      </trkpt>
      <trkpt lat="44.44789" lon="5.61411">
        <ele>1469.2</ele>
        <time>2023-03-20T10:59:47Z</time>
      </trkpt>
      <trkpt lat="44.4479" lon="5.61409">
        <ele>1469.4</ele>
        <time>2023-03-20T10:59:48Z</time>
      </trkpt>
      <trkpt lat="44.44792" lon="5.61406">
        <ele>1469.8</ele>
        <time>2023-03-20T10:59:49Z</time>
      </trkpt>
      <trkpt lat="44.44793" lon="5.61406">
        <ele>1469.9</ele>
        <time>2023-03-20T10:59:50Z</time>
      </trkpt>
      <trkpt lat="44.44795" lon="5.61403">
        <ele>1470.2</ele>
        <time>2023-03-20T10:59:51Z</time>
      </trkpt>
      <trkpt lat="44.44796" lon="5.61402">
        <ele>1470.4</ele>
        <time>2023-03-20T10:59:52Z</time>
      </trkpt>
      <trkpt lat="44.44797" lon="5.61401">
        <ele>1470.6</ele>
        <time>2023-03-20T10:59:53Z</time>
      </trkpt>
      <trkpt lat="44.44799" lon="5.614">
        <ele>1470.9</ele>
        <time>2023-03-20T10:59:54Z</time>
      </trkpt>
      <trkpt lat="44.44801" lon="5.61399">
        <ele>1471.1</ele>
        <time>2023-03-20T10:59:55Z</time>
      </trkpt>
      <trkpt lat="44.44802" lon="5.61398">
        <ele>1471.3</ele>
        <time>2023-03-20T10:59:56Z</time>
      </trkpt>
      <trkpt lat="44.44803" lon="5.61398">
        <ele>1471.4</ele>
        <time>2023-03-20T10:59:57Z</time>
      </trkpt>
      <trkpt lat="44.44805" lon="5.61398">
        <ele>1471.6</ele>
        <time>2023-03-20T10:59:58Z</time>
      </trkpt>
      <trkpt lat="44.44806" lon="5.61398">
        <ele>1472</ele>
        <time>2023-03-20T10:59:59Z</time>
      </trkpt>
      <trkpt lat="44.44808" lon="5.61397">
        <ele>1472.1</ele>
        <time>2023-03-20T11:00:00Z</time>
      </trkpt>
      <trkpt lat="44.44808" lon="5.61397">
        <ele>1472.2</ele>
        <time>2023-03-20T11:00:01Z</time>
      </trkpt>
      <trkpt lat="44.44808" lon="5.61397">
        <ele>1472.2</ele>
        <time>2023-03-20T11:00:02Z</time>
      </trkpt>
      <trkpt lat="44.44808" lon="5.61397">
        <ele>1472.2</ele>
        <time>2023-03-20T11:00:03Z</time>
      </trkpt>
      <trkpt lat="44.44808" lon="5.61396">
        <ele>1472.3</ele>
        <time>2023-03-20T11:00:04Z</time>
      </trkpt>
      <trkpt lat="44.44808" lon="5.61395">
        <ele>1472.5</ele>
        <time>2023-03-20T11:00:05Z</time>
      </trkpt>
      <trkpt lat="44.44809" lon="5.61395">
        <ele>1472.5</ele>
        <time>2023-03-20T11:00:06Z</time>
      </trkpt>
      <trkpt lat="44.44809" lon="5.61395">
        <ele>1472.6</ele>
        <time>2023-03-20T11:00:07Z</time>
      </trkpt>
      <trkpt lat="44.44809" lon="5.61395">
        <ele>1472.7</ele>
        <time>2023-03-20T11:00:08Z</time>
      </trkpt>
      <trkpt lat="44.4481" lon="5.61395">
        <ele>1472.7</ele>
        <time>2023-03-20T11:00:09Z</time>
      </trkpt>
      <trkpt lat="44.4481" lon="5.61395">
        <ele>1472.8</ele>
        <time>2023-03-20T11:00:10Z</time>
      </trkpt>
      <trkpt lat="44.4481" lon="5.61394">
        <ele>1472.8</ele>
        <time>2023-03-20T11:00:11Z</time>
      </trkpt>
      <trkpt lat="44.4481" lon="5.61394">
        <ele>1472.8</ele>
        <time>2023-03-20T11:00:12Z</time>
      </trkpt>
      <trkpt lat="44.4481" lon="5.61394">
        <ele>1472.8</ele>
        <time>2023-03-20T11:00:13Z</time>
      </trkpt>
      <trkpt lat="44.4481" lon="5.61394">
        <ele>1472.8</ele>
        <time>2023-03-20T11:00:14Z</time>
      </trkpt>
      <trkpt lat="44.4481" lon="5.61394">
        <ele>1472.8</ele>
        <time>2023-03-20T11:00:15Z</time>
      </trkpt>
      <trkpt lat="44.4481" lon="5.61394">
        <ele>1472.8</ele>
        <time>2023-03-20T11:00:16Z</time>
      </trkpt>
      <trkpt lat="44.4481" lon="5.61394">
        <ele>1472.8</ele>
        <time>2023-03-20T11:00:17Z</time>
      </trkpt>
      <trkpt lat="44.4481" lon="5.61394">
        <ele>1472.8</ele>
        <time>2023-03-20T11:00:18Z</time>
      </trkpt>
      <trkpt lat="44.4481" lon="5.61394">
        <ele>1472.8</ele>
        <time>2023-03-20T11:00:19Z</time>
      </trkpt>
      <trkpt lat="44.44809" lon="5.6139">
        <ele>1473.2</ele>
        <time>2023-03-20T11:00:30Z</time>
      </trkpt>
      <trkpt lat="44.44809" lon="5.61389">
        <ele>1473.3</ele>
        <time>2023-03-20T11:00:31Z</time>
      </trkpt>
      <trkpt lat="44.44808" lon="5.61388">
        <ele>1473.3</ele>
        <time>2023-03-20T11:00:32Z</time>
      </trkpt>
      <trkpt lat="44.44808" lon="5.61388">
        <ele>1473.4</ele>
        <time>2023-03-20T11:00:33Z</time>
      </trkpt>
      <trkpt lat="44.44808" lon="5.61387">
        <ele>1473.5</ele>
        <time>2023-03-20T11:00:34Z</time>
      </trkpt>
      <trkpt lat="44.44807" lon="5.61385">
        <ele>1473.7</ele>
        <time>2023-03-20T11:00:35Z</time>
      </trkpt>
      <trkpt lat="44.44807" lon="5.61384">
        <ele>1473.7</ele>
        <time>2023-03-20T11:00:36Z</time>
      </trkpt>
      <trkpt lat="44.44807" lon="5.61384">
        <ele>1473.8</ele>
        <time>2023-03-20T11:00:37Z</time>
      </trkpt>
      <trkpt lat="44.44807" lon="5.61385">
        <ele>1473.8</ele>
        <time>2023-03-20T11:00:38Z</time>
      </trkpt>
      <trkpt lat="44.44807" lon="5.61385">
        <ele>1473.8</ele>
        <time>2023-03-20T11:00:39Z</time>
      </trkpt>
      <trkpt lat="44.44807" lon="5.61385">
        <ele>1473.8</ele>
        <time>2023-03-20T11:00:40Z</time>
      </trkpt>
      <trkpt lat="44.44807" lon="5.61385">
        <ele>1473.8</ele>
        <time>2023-03-20T11:00:41Z</time>
      </trkpt>
      <trkpt lat="44.44807" lon="5.61385">
        <ele>1473.8</ele>
        <time>2023-03-20T11:00:42Z</time>
      </trkpt>
      <trkpt lat="44.44807" lon="5.61385">
        <ele>1473.8</ele>
        <time>2023-03-20T11:00:43Z</time>
      </trkpt>
      <trkpt lat="44.44807" lon="5.61385">
        <ele>1473.8</ele>
        <time>2023-03-20T11:00:44Z</time>
      </trkpt>
      <trkpt lat="44.44808" lon="5.61386">
        <ele>1473.9</ele>
        <time>2023-03-20T11:00:45Z</time>
      </trkpt>
      <trkpt lat="44.44808" lon="5.61386">
        <ele>1474</ele>
        <time>2023-03-20T11:00:46Z</time>
      </trkpt>
      <trkpt lat="44.44808" lon="5.61386">
        <ele>1474</ele>
        <time>2023-03-20T11:00:47Z</time>
      </trkpt>
      <trkpt lat="44.44808" lon="5.61386">
        <ele>1474</ele>
        <time>2023-03-20T11:00:48Z</time>
      </trkpt>
      <trkpt lat="44.44808" lon="5.61386">
        <ele>1474</ele>
        <time>2023-03-20T11:00:49Z</time>
      </trkpt>
      <trkpt lat="44.44808" lon="5.61386">
        <ele>1474</ele>
        <time>2023-03-20T11:00:50Z</time>
      </trkpt>
      <trkpt lat="44.44808" lon="5.61386">
        <ele>1474</ele>
        <time>2023-03-20T11:00:51Z</time>
      </trkpt>
      <trkpt lat="44.44808" lon="5.61386">
        <ele>1474</ele>
        <time>2023-03-20T11:00:52Z</time>
      </trkpt>
      <trkpt lat="44.44808" lon="5.61386">
        <ele>1474</ele>
        <time>2023-03-20T11:00:53Z</time>
      </trkpt>
      <trkpt lat="44.44808" lon="5.61386">
        <ele>1474</ele>
        <time>2023-03-20T11:00:54Z</time>
      </trkpt>
      <trkpt lat="44.44808" lon="5.61386">
        <ele>1474</ele>
        <time>2023-03-20T11:00:55Z</time>
      </trkpt>
      <trkpt lat="44.44805" lon="5.61392">
        <ele>1474.6</ele>
        <time>2023-03-20T11:04:39Z</time>
      </trkpt>
      <trkpt lat="44.44805" lon="5.61392">
        <ele>1474.7</ele>
        <time>2023-03-20T11:04:40Z</time>
      </trkpt>
      <trkpt lat="44.44805" lon="5.61392">
        <ele>1474.7</ele>
        <time>2023-03-20T11:04:41Z</time>
      </trkpt>
      <trkpt lat="44.44805" lon="5.61392">
        <ele>1474.7</ele>
        <time>2023-03-20T11:04:42Z</time>
      </trkpt>
      <trkpt lat="44.44805" lon="5.61392">
        <ele>1474.7</ele>
        <time>2023-03-20T11:04:43Z</time>
      </trkpt>
      <trkpt lat="44.44805" lon="5.61392">
        <ele>1474.7</ele>
        <time>2023-03-20T11:04:44Z</time>
      </trkpt>
      <trkpt lat="44.44805" lon="5.61392">
        <ele>1474.7</ele>
        <time>2023-03-20T11:04:45Z</time>
      </trkpt>
      <trkpt lat="44.44803" lon="5.61392">
        <ele>1474.9</ele>
        <time>2023-03-20T11:04:46Z</time>
      </trkpt>
      <trkpt lat="44.44802" lon="5.61391">
        <ele>1475</ele>
        <time>2023-03-20T11:04:47Z</time>
      </trkpt>
      <trkpt lat="44.44802" lon="5.61393">
        <ele>1475.1</ele>
        <time>2023-03-20T11:04:48Z</time>
      </trkpt>
      <trkpt lat="44.44802" lon="5.61395">
        <ele>1475.4</ele>
        <time>2023-03-20T11:04:49Z</time>
      </trkpt>
      <trkpt lat="44.44802" lon="5.61396">
        <ele>1475.4</ele>
        <time>2023-03-20T11:04:50Z</time>
      </trkpt>
      <trkpt lat="44.44802" lon="5.61396">
        <ele>1475.5</ele>
        <time>2023-03-20T11:04:51Z</time>
      </trkpt>
      <trkpt lat="44.44802" lon="5.61396">
        <ele>1475.5</ele>
        <time>2023-03-20T11:04:52Z</time>
      </trkpt>
      <trkpt lat="44.44802" lon="5.61396">
        <ele>1475.5</ele>
        <time>2023-03-20T11:04:53Z</time>
      </trkpt>
      <trkpt lat="44.44802" lon="5.61396">
        <ele>1475.5</ele>
        <time>2023-03-20T11:04:54Z</time>
      </trkpt>
      <trkpt lat="44.44802" lon="5.61396">
        <ele>1475.5</ele>
        <time>2023-03-20T11:04:55Z</time>
      </trkpt>
      <trkpt lat="44.44802" lon="5.61396">
        <ele>1475.5</ele>
        <time>2023-03-20T11:04:56Z</time>
      </trkpt>
      <trkpt lat="44.44802" lon="5.61396">
        <ele>1475.5</ele>
        <time>2023-03-20T11:04:57Z</time>
      </trkpt>
      <trkpt lat="44.44803" lon="5.61396">
        <ele>1475.6</ele>
        <time>2023-03-20T11:04:58Z</time>
      </trkpt>
      <trkpt lat="44.44804" lon="5.61396">
        <ele>1475.7</ele>
        <time>2023-03-20T11:04:59Z</time>
      </trkpt>
      <trkpt lat="44.44805" lon="5.61396">
        <ele>1475.8</ele>
        <time>2023-03-20T11:05:00Z</time>
      </trkpt>
      <trkpt lat="44.44805" lon="5.61396">
        <ele>1475.8</ele>
        <time>2023-03-20T11:05:01Z</time>
      </trkpt>
      <trkpt lat="44.44805" lon="5.61396">
        <ele>1475.8</ele>
        <time>2023-03-20T11:05:02Z</time>
      </trkpt>
      <trkpt lat="44.44805" lon="5.61396">
        <ele>1475.8</ele>
        <time>2023-03-20T11:05:03Z</time>
      </trkpt>
      <trkpt lat="44.44805" lon="5.61396">
        <ele>1475.8</ele>
        <time>2023-03-20T11:05:04Z</time>
      </trkpt>
      <trkpt lat="44.44805" lon="5.61396">
        <ele>1475.8</ele>
        <time>2023-03-20T11:05:05Z</time>
      </trkpt>
      <trkpt lat="44.44805" lon="5.61396">
        <ele>1475.9</ele>
        <time>2023-03-20T11:05:06Z</time>
      </trkpt>
      <trkpt lat="44.44805" lon="5.61397">
        <ele>1476</ele>
        <time>2023-03-20T11:05:07Z</time>
      </trkpt>
      <trkpt lat="44.44805" lon="5.61397">
        <ele>1476</ele>
        <time>2023-03-20T11:05:08Z</time>
      </trkpt>
      <trkpt lat="44.44806" lon="5.61397">
        <ele>1476</ele>
        <time>2023-03-20T11:05:09Z</time>
      </trkpt>
      <trkpt lat="44.44806" lon="5.61397">
        <ele>1476.1</ele>
        <time>2023-03-20T11:05:10Z</time>
      </trkpt>
      <trkpt lat="44.44806" lon="5.61397">
        <ele>1476.1</ele>
        <time>2023-03-20T11:05:11Z</time>
      </trkpt>
      <trkpt lat="44.44807" lon="5.61397">
        <ele>1476.3</ele>
        <time>2023-03-20T11:05:14Z</time>
      </trkpt>
      <trkpt lat="44.44808" lon="5.61397">
        <ele>1476.3</ele>
        <time>2023-03-20T11:05:15Z</time>
      </trkpt>
      <trkpt lat="44.44808" lon="5.61397">
        <ele>1476.3</ele>
        <time>2023-03-20T11:05:16Z</time>
      </trkpt>
      <trkpt lat="44.44808" lon="5.61397">
        <ele>1476.4</ele>
        <time>2023-03-20T11:05:17Z</time>
      </trkpt>
      <trkpt lat="44.44808" lon="5.61397">
        <ele>1476.4</ele>
        <time>2023-03-20T11:05:18Z</time>
      </trkpt>
      <trkpt lat="44.44808" lon="5.61397">
        <ele>1476.4</ele>
        <time>2023-03-20T11:05:19Z</time>
      </trkpt>
      <trkpt lat="44.44809" lon="5.61396">
        <ele>1476.4</ele>
        <time>2023-03-20T11:05:20Z</time>
      </trkpt>
      <trkpt lat="44.44809" lon="5.61396">
        <ele>1476.6</ele>
        <time>2023-03-20T11:05:21Z</time>
      </trkpt>
      <trkpt lat="44.4481" lon="5.61395">
        <ele>1476.7</ele>
        <time>2023-03-20T11:05:22Z</time>
      </trkpt>
      <trkpt lat="44.44811" lon="5.61394">
        <ele>1476.9</ele>
        <time>2023-03-20T11:05:23Z</time>
      </trkpt>
      <trkpt lat="44.44812" lon="5.61392">
        <ele>1477.1</ele>
        <time>2023-03-20T11:05:24Z</time>
      </trkpt>
      <trkpt lat="44.44813" lon="5.6139">
        <ele>1477.3</ele>
        <time>2023-03-20T11:05:25Z</time>
      </trkpt>
      <trkpt lat="44.44814" lon="5.61389">
        <ele>1477.4</ele>
        <time>2023-03-20T11:05:26Z</time>
      </trkpt>
      <trkpt lat="44.44815" lon="5.6139">
        <ele>1477.6</ele>
        <time>2023-03-20T11:05:27Z</time>
      </trkpt>
      <trkpt lat="44.44816" lon="5.61391">
        <ele>1477.7</ele>
        <time>2023-03-20T11:05:28Z</time>
      </trkpt>
      <trkpt lat="44.44816" lon="5.61392">
        <ele>1477.8</ele>
        <time>2023-03-20T11:05:29Z</time>
      </trkpt>
      <trkpt lat="44.44817" lon="5.61393">
        <ele>1477.9</ele>
        <time>2023-03-20T11:05:30Z</time>
      </trkpt>
      <trkpt lat="44.44818" lon="5.61396">
        <ele>1478.2</ele>
        <time>2023-03-20T11:05:31Z</time>
      </trkpt>
      <trkpt lat="44.44818" lon="5.61397">
        <ele>1478.3</ele>
        <time>2023-03-20T11:05:32Z</time>
      </trkpt>
      <trkpt lat="44.44819" lon="5.61398">
        <ele>1478.4</ele>
        <time>2023-03-20T11:05:33Z</time>
      </trkpt>
      <trkpt lat="44.44821" lon="5.614">
        <ele>1478.8</ele>
        <time>2023-03-20T11:05:34Z</time>
      </trkpt>
      <trkpt lat="44.44822" lon="5.61401">
        <ele>1478.9</ele>
        <time>2023-03-20T11:05:35Z</time>
      </trkpt>
      <trkpt lat="44.44822" lon="5.61402">
        <ele>1479</ele>
        <time>2023-03-20T11:05:36Z</time>
      </trkpt>
      <trkpt lat="44.44822" lon="5.61404">
        <ele>1479.1</ele>
        <time>2023-03-20T11:05:37Z</time>
      </trkpt>
      <trkpt lat="44.44821" lon="5.61405">
        <ele>1479.3</ele>
        <time>2023-03-20T11:05:38Z</time>
      </trkpt>
      <trkpt lat="44.44821" lon="5.61407">
        <ele>1479.4</ele>
        <time>2023-03-20T11:05:39Z</time>
      </trkpt>
      <trkpt lat="44.44821" lon="5.61408">
        <ele>1479.5</ele>
        <time>2023-03-20T11:05:40Z</time>
      </trkpt>
      <trkpt lat="44.44822" lon="5.61408">
        <ele>1479.6</ele>
        <time>2023-03-20T11:05:41Z</time>
      </trkpt>
      <trkpt lat="44.44823" lon="5.61408">
        <ele>1479.7</ele>
        <time>2023-03-20T11:05:43Z</time>
      </trkpt>
      <trkpt lat="44.44822" lon="5.61409">
        <ele>1479.7</ele>
        <time>2023-03-20T11:05:44Z</time>
      </trkpt>
      <trkpt lat="44.44822" lon="5.61409">
        <ele>1479.8</ele>
        <time>2023-03-20T11:05:45Z</time>
      </trkpt>
      <trkpt lat="44.44821" lon="5.61409">
        <ele>1479.9</ele>
        <time>2023-03-20T11:05:46Z</time>
      </trkpt>
      <trkpt lat="44.4482" lon="5.61411">
        <ele>1480.1</ele>
        <time>2023-03-20T11:05:47Z</time>
      </trkpt>
      <trkpt lat="44.44819" lon="5.61412">
        <ele>1480.2</ele>
        <time>2023-03-20T11:05:48Z</time>
      </trkpt>
      <trkpt lat="44.44819" lon="5.61412">
        <ele>1480.3</ele>
        <time>2023-03-20T11:05:49Z</time>
      </trkpt>
      <trkpt lat="44.44819" lon="5.61412">
        <ele>1480.3</ele>
        <time>2023-03-20T11:05:50Z</time>
      </trkpt>
      <trkpt lat="44.44819" lon="5.61412">
        <ele>1480.3</ele>
        <time>2023-03-20T11:05:51Z</time>
      </trkpt>
      <trkpt lat="44.44819" lon="5.61412">
        <ele>1480.3</ele>
        <time>2023-03-20T11:05:52Z</time>
      </trkpt>
      <trkpt lat="44.44818" lon="5.61412">
        <ele>1480.5</ele>
        <time>2023-03-20T11:05:53Z</time>
      </trkpt>
      <trkpt lat="44.44817" lon="5.61412">
        <ele>1480.6</ele>
        <time>2023-03-20T11:05:54Z</time>
      </trkpt>
      <trkpt lat="44.44816" lon="5.61413">
        <ele>1480.7</ele>
        <time>2023-03-20T11:05:55Z</time>
      </trkpt>
      <trkpt lat="44.44815" lon="5.61416">
        <ele>1481</ele>
        <time>2023-03-20T11:05:56Z</time>
      </trkpt>
      <trkpt lat="44.44813" lon="5.61419">
        <ele>1481.3</ele>
        <time>2023-03-20T11:05:57Z</time>
      </trkpt>
      <trkpt lat="44.44812" lon="5.6142">
        <ele>1481.4</ele>
        <time>2023-03-20T11:05:58Z</time>
      </trkpt>
      <trkpt lat="44.44811" lon="5.61421">
        <ele>1481.7</ele>
        <time>2023-03-20T11:05:59Z</time>
      </trkpt>
      <trkpt lat="44.4481" lon="5.61423">
        <ele>1481.8</ele>
        <time>2023-03-20T11:06:00Z</time>
      </trkpt>
      <trkpt lat="44.44809" lon="5.61424">
        <ele>1482</ele>
        <time>2023-03-20T11:06:01Z</time>
      </trkpt>
      <trkpt lat="44.44808" lon="5.61426">
        <ele>1482.2</ele>
        <time>2023-03-20T11:06:02Z</time>
      </trkpt>
      <trkpt lat="44.44806" lon="5.61429">
        <ele>1482.6</ele>
        <time>2023-03-20T11:06:03Z</time>
      </trkpt>
      <trkpt lat="44.44806" lon="5.6143">
        <ele>1482.7</ele>
        <time>2023-03-20T11:06:04Z</time>
      </trkpt>
      <trkpt lat="44.44804" lon="5.61431">
        <ele>1482.9</ele>
        <time>2023-03-20T11:06:05Z</time>
      </trkpt>
      <trkpt lat="44.44803" lon="5.61433">
        <ele>1483.1</ele>
        <time>2023-03-20T11:06:06Z</time>
      </trkpt>
      <trkpt lat="44.44802" lon="5.61434">
        <ele>1483.3</ele>
        <time>2023-03-20T11:06:07Z</time>
      </trkpt>
      <trkpt lat="44.44802" lon="5.61437">
        <ele>1483.5</ele>
        <time>2023-03-20T11:06:08Z</time>
      </trkpt>
      <trkpt lat="44.44801" lon="5.61439">
        <ele>1483.7</ele>
        <time>2023-03-20T11:06:09Z</time>
      </trkpt>
      <trkpt lat="44.44801" lon="5.6144">
        <ele>1483.8</ele>
        <time>2023-03-20T11:06:10Z</time>
      </trkpt>
      <trkpt lat="44.448" lon="5.61443">
        <ele>1484.1</ele>
        <time>2023-03-20T11:06:11Z</time>
      </trkpt>
      <trkpt lat="44.448" lon="5.61444">
        <ele>1484.2</ele>
        <time>2023-03-20T11:06:12Z</time>
      </trkpt>
      <trkpt lat="44.44799" lon="5.61445">
        <ele>1484.3</ele>
        <time>2023-03-20T11:06:13Z</time>
      </trkpt>
      <trkpt lat="44.44799" lon="5.61447">
        <ele>1484.4</ele>
        <time>2023-03-20T11:06:14Z</time>
      </trkpt>
      <trkpt lat="44.44799" lon="5.61448">
        <ele>1484.6</ele>
        <time>2023-03-20T11:06:15Z</time>
      </trkpt>
      <trkpt lat="44.44799" lon="5.61448">
        <ele>1484.6</ele>
        <time>2023-03-20T11:06:16Z</time>
      </trkpt>
      <trkpt lat="44.44798" lon="5.61449">
        <ele>1484.7</ele>
        <time>2023-03-20T11:06:17Z</time>
      </trkpt>
      <trkpt lat="44.44798" lon="5.61451">
        <ele>1484.9</ele>
        <time>2023-03-20T11:06:18Z</time>
      </trkpt>
      <trkpt lat="44.44797" lon="5.61453">
        <ele>1485.1</ele>
        <time>2023-03-20T11:06:19Z</time>
      </trkpt>
      <trkpt lat="44.44796" lon="5.61457">
        <ele>1485.5</ele>
        <time>2023-03-20T11:06:20Z</time>
      </trkpt>
      <trkpt lat="44.44796" lon="5.61459">
        <ele>1485.6</ele>
        <time>2023-03-20T11:06:21Z</time>
      </trkpt>
      <trkpt lat="44.44796" lon="5.61464">
        <ele>1486</ele>
        <time>2023-03-20T11:06:22Z</time>
      </trkpt>
      <trkpt lat="44.44796" lon="5.61465">
        <ele>1486.2</ele>
        <time>2023-03-20T11:06:23Z</time>
      </trkpt>
      <trkpt lat="44.44796" lon="5.61469">
        <ele>1486.5</ele>
        <time>2023-03-20T11:06:24Z</time>
      </trkpt>
      <trkpt lat="44.44796" lon="5.6147">
        <ele>1486.6</ele>
        <time>2023-03-20T11:06:25Z</time>
      </trkpt>
      <trkpt lat="44.44796" lon="5.61473">
        <ele>1486.8</ele>
        <time>2023-03-20T11:06:26Z</time>
      </trkpt>
      <trkpt lat="44.44796" lon="5.61475">
        <ele>1487</ele>
        <time>2023-03-20T11:06:27Z</time>
      </trkpt>
      <trkpt lat="44.44796" lon="5.61477">
        <ele>1487.2</ele>
        <time>2023-03-20T11:06:28Z</time>
      </trkpt>
      <trkpt lat="44.44795" lon="5.61479">
        <ele>1487.4</ele>
        <time>2023-03-20T11:06:29Z</time>
      </trkpt>
      <trkpt lat="44.44795" lon="5.61481">
        <ele>1487.5</ele>
        <time>2023-03-20T11:06:30Z</time>
      </trkpt>
      <trkpt lat="44.44795" lon="5.61483">
        <ele>1487.7</ele>
        <time>2023-03-20T11:06:31Z</time>
      </trkpt>
      <trkpt lat="44.44795" lon="5.61485">
        <ele>1487.9</ele>
        <time>2023-03-20T11:06:32Z</time>
      </trkpt>
      <trkpt lat="44.44795" lon="5.61486">
        <ele>1488</ele>
        <time>2023-03-20T11:06:33Z</time>
      </trkpt>
      <trkpt lat="44.44795" lon="5.61487">
        <ele>1488.1</ele>
        <time>2023-03-20T11:06:34Z</time>
      </trkpt>
      <trkpt lat="44.44796" lon="5.61488">
        <ele>1488.2</ele>
        <time>2023-03-20T11:06:35Z</time>
      </trkpt>
      <trkpt lat="44.44796" lon="5.6149">
        <ele>1488.4</ele>
        <time>2023-03-20T11:06:36Z</time>
      </trkpt>
      <trkpt lat="44.44796" lon="5.61492">
        <ele>1488.5</ele>
        <time>2023-03-20T11:06:37Z</time>
      </trkpt>
      <trkpt lat="44.44796" lon="5.61495">
        <ele>1488.8</ele>
        <time>2023-03-20T11:06:38Z</time>
      </trkpt>
      <trkpt lat="44.44795" lon="5.61496">
        <ele>1488.9</ele>
        <time>2023-03-20T11:06:39Z</time>
      </trkpt>
      <trkpt lat="44.44795" lon="5.61497">
        <ele>1489</ele>
        <time>2023-03-20T11:06:40Z</time>
      </trkpt>
      <trkpt lat="44.44795" lon="5.615">
        <ele>1489.3</ele>
        <time>2023-03-20T11:06:41Z</time>
      </trkpt>
      <trkpt lat="44.44795" lon="5.61501">
        <ele>1489.4</ele>
        <time>2023-03-20T11:06:42Z</time>
      </trkpt>
      <trkpt lat="44.44795" lon="5.61502">
        <ele>1489.5</ele>
        <time>2023-03-20T11:06:43Z</time>
      </trkpt>
      <trkpt lat="44.44795" lon="5.61505">
        <ele>1489.7</ele>
        <time>2023-03-20T11:06:44Z</time>
      </trkpt>
      <trkpt lat="44.44795" lon="5.61506">
        <ele>1489.8</ele>
        <time>2023-03-20T11:06:45Z</time>
      </trkpt>
      <trkpt lat="44.44795" lon="5.61507">
        <ele>1489.9</ele>
        <time>2023-03-20T11:06:46Z</time>
      </trkpt>
      <trkpt lat="44.44794" lon="5.61509">
        <ele>1490</ele>
        <time>2023-03-20T11:06:47Z</time>
      </trkpt>
      <trkpt lat="44.44794" lon="5.6151">
        <ele>1490.2</ele>
        <time>2023-03-20T11:06:48Z</time>
      </trkpt>
      <trkpt lat="44.44794" lon="5.61512">
        <ele>1490.3</ele>
        <time>2023-03-20T11:06:49Z</time>
      </trkpt>
      <trkpt lat="44.44793" lon="5.61512">
        <ele>1490.4</ele>
        <time>2023-03-20T11:06:50Z</time>
      </trkpt>
      <trkpt lat="44.44793" lon="5.61513">
        <ele>1490.5</ele>
        <time>2023-03-20T11:06:51Z</time>
      </trkpt>
      <trkpt lat="44.44792" lon="5.61515">
        <ele>1490.7</ele>
        <time>2023-03-20T11:06:52Z</time>
      </trkpt>
      <trkpt lat="44.44791" lon="5.61516">
        <ele>1490.8</ele>
        <time>2023-03-20T11:06:53Z</time>
      </trkpt>
      <trkpt lat="44.44791" lon="5.61517">
        <ele>1490.9</ele>
        <time>2023-03-20T11:06:54Z</time>
      </trkpt>
      <trkpt lat="44.44791" lon="5.61518">
        <ele>1491</ele>
        <time>2023-03-20T11:06:55Z</time>
      </trkpt>
      <trkpt lat="44.44791" lon="5.61519">
        <ele>1491.1</ele>
        <time>2023-03-20T11:06:56Z</time>
      </trkpt>
      <trkpt lat="44.4479" lon="5.61521">
        <ele>1491.2</ele>
        <time>2023-03-20T11:06:57Z</time>
      </trkpt>
      <trkpt lat="44.4479" lon="5.61522">
        <ele>1491.4</ele>
        <time>2023-03-20T11:06:58Z</time>
      </trkpt>
      <trkpt lat="44.44789" lon="5.61525">
        <ele>1491.6</ele>
        <time>2023-03-20T11:06:59Z</time>
      </trkpt>
      <trkpt lat="44.44789" lon="5.61526">
        <ele>1491.7</ele>
        <time>2023-03-20T11:07:00Z</time>
      </trkpt>
      <trkpt lat="44.44788" lon="5.61527">
        <ele>1491.9</ele>
        <time>2023-03-20T11:07:01Z</time>
      </trkpt>
      <trkpt lat="44.44787" lon="5.61528">
        <ele>1492</ele>
        <time>2023-03-20T11:07:02Z</time>
      </trkpt>
      <trkpt lat="44.44787" lon="5.61529">
        <ele>1492.1</ele>
        <time>2023-03-20T11:07:03Z</time>
      </trkpt>
      <trkpt lat="44.44786" lon="5.6153">
        <ele>1492.3</ele>
        <time>2023-03-20T11:07:04Z</time>
      </trkpt>
      <trkpt lat="44.44785" lon="5.61532">
        <ele>1492.4</ele>
        <time>2023-03-20T11:07:05Z</time>
      </trkpt>
      <trkpt lat="44.44785" lon="5.61534">
        <ele>1492.6</ele>
        <time>2023-03-20T11:07:06Z</time>
      </trkpt>
      <trkpt lat="44.44784" lon="5.61537">
        <ele>1492.9</ele>
        <time>2023-03-20T11:07:07Z</time>
      </trkpt>
      <trkpt lat="44.44784" lon="5.61538">
        <ele>1493</ele>
        <time>2023-03-20T11:07:08Z</time>
      </trkpt>
      <trkpt lat="44.44784" lon="5.61539">
        <ele>1493.1</ele>
        <time>2023-03-20T11:07:09Z</time>
      </trkpt>
      <trkpt lat="44.44784" lon="5.61541">
        <ele>1493.3</ele>
        <time>2023-03-20T11:07:10Z</time>
      </trkpt>
      <trkpt lat="44.44783" lon="5.61543">
        <ele>1493.4</ele>
        <time>2023-03-20T11:07:11Z</time>
      </trkpt>
      <trkpt lat="44.44783" lon="5.61545">
        <ele>1493.6</ele>
        <time>2023-03-20T11:07:12Z</time>
      </trkpt>
      <trkpt lat="44.44782" lon="5.61547">
        <ele>1493.8</ele>
        <time>2023-03-20T11:07:13Z</time>
      </trkpt>
      <trkpt lat="44.44782" lon="5.61549">
        <ele>1494</ele>
        <time>2023-03-20T11:07:14Z</time>
      </trkpt>
      <trkpt lat="44.44781" lon="5.61551">
        <ele>1494.2</ele>
        <time>2023-03-20T11:07:15Z</time>
      </trkpt>
      <trkpt lat="44.4478" lon="5.61555">
        <ele>1494.6</ele>
        <time>2023-03-20T11:07:16Z</time>
      </trkpt>
      <trkpt lat="44.44779" lon="5.61556">
        <ele>1494.7</ele>
        <time>2023-03-20T11:07:17Z</time>
      </trkpt>
      <trkpt lat="44.44778" lon="5.61558">
        <ele>1494.9</ele>
        <time>2023-03-20T11:07:18Z</time>
      </trkpt>
      <trkpt lat="44.44778" lon="5.6156">
        <ele>1495.1</ele>
        <time>2023-03-20T11:07:19Z</time>
      </trkpt>
      <trkpt lat="44.44777" lon="5.61562">
        <ele>1495.3</ele>
        <time>2023-03-20T11:07:20Z</time>
      </trkpt>
      <trkpt lat="44.44776" lon="5.61564">
        <ele>1495.5</ele>
        <time>2023-03-20T11:07:21Z</time>
      </trkpt>
      <trkpt lat="44.44775" lon="5.61566">
        <ele>1495.8</ele>
        <time>2023-03-20T11:07:22Z</time>
      </trkpt>
      <trkpt lat="44.44774" lon="5.61568">
        <ele>1496</ele>
        <time>2023-03-20T11:07:23Z</time>
      </trkpt>
      <trkpt lat="44.44773" lon="5.61571">
        <ele>1496.2</ele>
        <time>2023-03-20T11:07:24Z</time>
      </trkpt>
      <trkpt lat="44.44772" lon="5.61575">
        <ele>1496.7</ele>
        <time>2023-03-20T11:07:26Z</time>
      </trkpt>
      <trkpt lat="44.44771" lon="5.61577">
        <ele>1496.9</ele>
        <time>2023-03-20T11:07:27Z</time>
      </trkpt>
      <trkpt lat="44.4477" lon="5.61579">
        <ele>1497.1</ele>
        <time>2023-03-20T11:07:28Z</time>
      </trkpt>
      <trkpt lat="44.4477" lon="5.61582">
        <ele>1497.3</ele>
        <time>2023-03-20T11:07:29Z</time>
      </trkpt>
      <trkpt lat="44.4477" lon="5.61584">
        <ele>1497.5</ele>
        <time>2023-03-20T11:07:30Z</time>
      </trkpt>
      <trkpt lat="44.4477" lon="5.61586">
        <ele>1497.7</ele>
        <time>2023-03-20T11:07:31Z</time>
      </trkpt>
      <trkpt lat="44.4477" lon="5.61588">
        <ele>1497.8</ele>
        <time>2023-03-20T11:07:32Z</time>
      </trkpt>
      <trkpt lat="44.4477" lon="5.6159">
        <ele>1498</ele>
        <time>2023-03-20T11:07:33Z</time>
      </trkpt>
      <trkpt lat="44.4477" lon="5.61592">
        <ele>1498.2</ele>
        <time>2023-03-20T11:07:34Z</time>
      </trkpt>
      <trkpt lat="44.4477" lon="5.61595">
        <ele>1498.4</ele>
        <time>2023-03-20T11:07:35Z</time>
      </trkpt>
      <trkpt lat="44.4477" lon="5.61597">
        <ele>1498.6</ele>
        <time>2023-03-20T11:07:36Z</time>
      </trkpt>
      <trkpt lat="44.4477" lon="5.61599">
        <ele>1498.8</ele>
        <time>2023-03-20T11:07:37Z</time>
      </trkpt>
      <trkpt lat="44.4477" lon="5.61601">
        <ele>1499</ele>
        <time>2023-03-20T11:07:38Z</time>
      </trkpt>
      <trkpt lat="44.4477" lon="5.61604">
        <ele>1499.2</ele>
        <time>2023-03-20T11:07:39Z</time>
      </trkpt>
      <trkpt lat="44.44769" lon="5.61605">
        <ele>1499.3</ele>
        <time>2023-03-20T11:07:40Z</time>
      </trkpt>
      <trkpt lat="44.44769" lon="5.61606">
        <ele>1499.5</ele>
        <time>2023-03-20T11:07:41Z</time>
      </trkpt>
      <trkpt lat="44.44769" lon="5.61608">
        <ele>1499.6</ele>
        <time>2023-03-20T11:07:42Z</time>
      </trkpt>
      <trkpt lat="44.44769" lon="5.61609">
        <ele>1499.7</ele>
        <time>2023-03-20T11:07:43Z</time>
      </trkpt>
      <trkpt lat="44.44768" lon="5.61611">
        <ele>1499.9</ele>
        <time>2023-03-20T11:07:44Z</time>
      </trkpt>
      <trkpt lat="44.44767" lon="5.61612">
        <ele>1500.1</ele>
        <time>2023-03-20T11:07:45Z</time>
      </trkpt>
      <trkpt lat="44.44766" lon="5.61614">
        <ele>1500.3</ele>
        <time>2023-03-20T11:07:46Z</time>
      </trkpt>
      <trkpt lat="44.44763" lon="5.61615">
        <ele>1500.4</ele>
        <time>2023-03-20T11:07:47Z</time>
      </trkpt>
      <trkpt lat="44.44762" lon="5.61615">
        <ele>1500.4</ele>
        <time>2023-03-20T11:07:48Z</time>
      </trkpt>
      <trkpt lat="44.4476" lon="5.61617">
        <ele>1500.4</ele>
        <time>2023-03-20T11:07:49Z</time>
      </trkpt>
      <trkpt lat="44.4476" lon="5.61619">
        <ele>1500.4</ele>
        <time>2023-03-20T11:07:50Z</time>
      </trkpt>
      <trkpt lat="44.4476" lon="5.61621">
        <ele>1500.4</ele>
        <time>2023-03-20T11:07:51Z</time>
      </trkpt>
      <trkpt lat="44.4476" lon="5.61622">
        <ele>1500.5</ele>
        <time>2023-03-20T11:07:52Z</time>
      </trkpt>
      <trkpt lat="44.4476" lon="5.61623">
        <ele>1500.5</ele>
        <time>2023-03-20T11:07:53Z</time>
      </trkpt>
      <trkpt lat="44.4476" lon="5.61623">
        <ele>1500.5</ele>
        <time>2023-03-20T11:07:54Z</time>
      </trkpt>
      <trkpt lat="44.4476" lon="5.61623">
        <ele>1500.5</ele>
        <time>2023-03-20T11:07:55Z</time>
      </trkpt>
      <trkpt lat="44.4476" lon="5.61623">
        <ele>1500.5</ele>
        <time>2023-03-20T11:07:56Z</time>
      </trkpt>
      <trkpt lat="44.4476" lon="5.61623">
        <ele>1500.5</ele>
        <time>2023-03-20T11:07:57Z</time>
      </trkpt>
      <trkpt lat="44.4476" lon="5.61623">
        <ele>1500.5</ele>
        <time>2023-03-20T11:07:58Z</time>
      </trkpt>
      <trkpt lat="44.4476" lon="5.61623">
        <ele>1500.5</ele>
        <time>2023-03-20T11:07:59Z</time>
      </trkpt>
      <trkpt lat="44.4476" lon="5.61623">
        <ele>1500.5</ele>
        <time>2023-03-20T11:08:00Z</time>
      </trkpt>
      <trkpt lat="44.4476" lon="5.61624">
        <ele>1500.5</ele>
        <time>2023-03-20T11:08:01Z</time>
      </trkpt>
      <trkpt lat="44.4476" lon="5.61625">
        <ele>1500.5</ele>
        <time>2023-03-20T11:08:02Z</time>
      </trkpt>
      <trkpt lat="44.4476" lon="5.61626">
        <ele>1500.5</ele>
        <time>2023-03-20T11:08:03Z</time>
      </trkpt>
      <trkpt lat="44.44755" lon="5.61626">
        <ele>1500.5</ele>
        <time>2023-03-20T11:09:19Z</time>
      </trkpt>
      <trkpt lat="44.44754" lon="5.61627">
        <ele>1500.5</ele>
        <time>2023-03-20T11:09:20Z</time>
      </trkpt>
      <trkpt lat="44.44754" lon="5.61628">
        <ele>1500.5</ele>
        <time>2023-03-20T11:09:21Z</time>
      </trkpt>
      <trkpt lat="44.44753" lon="5.61628">
        <ele>1500.5</ele>
        <time>2023-03-20T11:09:22Z</time>
      </trkpt>
      <trkpt lat="44.44753" lon="5.61628">
        <ele>1500.5</ele>
        <time>2023-03-20T11:09:23Z</time>
      </trkpt>
      <trkpt lat="44.44753" lon="5.61628">
        <ele>1500.5</ele>
        <time>2023-03-20T11:09:24Z</time>
      </trkpt>
      <trkpt lat="44.44753" lon="5.61628">
        <ele>1500.5</ele>
        <time>2023-03-20T11:09:25Z</time>
      </trkpt>
      <trkpt lat="44.44753" lon="5.61628">
        <ele>1500.5</ele>
        <time>2023-03-20T11:09:26Z</time>
      </trkpt>
      <trkpt lat="44.44753" lon="5.61628">
        <ele>1500.5</ele>
        <time>2023-03-20T11:09:27Z</time>
      </trkpt>
      <trkpt lat="44.44753" lon="5.61628">
        <ele>1500.5</ele>
        <time>2023-03-20T11:09:28Z</time>
      </trkpt>
      <trkpt lat="44.44753" lon="5.61628">
        <ele>1500.5</ele>
        <time>2023-03-20T11:09:30Z</time>
      </trkpt>
      <trkpt lat="44.44753" lon="5.61628">
        <ele>1500.5</ele>
        <time>2023-03-20T11:09:32Z</time>
      </trkpt>
      <trkpt lat="44.44753" lon="5.61633">
        <ele>1500.5</ele>
        <time>2023-03-20T11:09:38Z</time>
      </trkpt>
      <trkpt lat="44.44753" lon="5.61634">
        <ele>1500.5</ele>
        <time>2023-03-20T11:09:39Z</time>
      </trkpt>
      <trkpt lat="44.44753" lon="5.61635">
        <ele>1500.5</ele>
        <time>2023-03-20T11:09:40Z</time>
      </trkpt>
      <trkpt lat="44.44752" lon="5.61636">
        <ele>1500.5</ele>
        <time>2023-03-20T11:09:41Z</time>
      </trkpt>
      <trkpt lat="44.44752" lon="5.61636">
        <ele>1500.5</ele>
        <time>2023-03-20T11:09:42Z</time>
      </trkpt>
      <trkpt lat="44.44752" lon="5.61637">
        <ele>1500.5</ele>
        <time>2023-03-20T11:09:43Z</time>
      </trkpt>
      <trkpt lat="44.44752" lon="5.61638">
        <ele>1500.5</ele>
        <time>2023-03-20T11:09:44Z</time>
      </trkpt>
      <trkpt lat="44.44752" lon="5.61638">
        <ele>1500.5</ele>
        <time>2023-03-20T11:09:45Z</time>
      </trkpt>
      <trkpt lat="44.44752" lon="5.61638">
        <ele>1500.5</ele>
        <time>2023-03-20T11:09:46Z</time>
      </trkpt>
      <trkpt lat="44.44752" lon="5.61638">
        <ele>1500.5</ele>
        <time>2023-03-20T11:09:47Z</time>
      </trkpt>
      <trkpt lat="44.44752" lon="5.61638">
        <ele>1500.5</ele>
        <time>2023-03-20T11:09:48Z</time>
      </trkpt>
      <trkpt lat="44.44752" lon="5.61638">
        <ele>1500.5</ele>
        <time>2023-03-20T11:09:49Z</time>
      </trkpt>
      <trkpt lat="44.44752" lon="5.61638">
        <ele>1500.5</ele>
        <time>2023-03-20T11:09:50Z</time>
      </trkpt>
      <trkpt lat="44.44752" lon="5.61638">
        <ele>1500.5</ele>
        <time>2023-03-20T11:09:51Z</time>
      </trkpt>
      <trkpt lat="44.4475" lon="5.6164">
        <ele>1500.6</ele>
        <time>2023-03-20T11:10:10Z</time>
      </trkpt>
      <trkpt lat="44.4475" lon="5.6164">
        <ele>1500.6</ele>
        <time>2023-03-20T11:10:11Z</time>
      </trkpt>
      <trkpt lat="44.4475" lon="5.61641">
        <ele>1500.6</ele>
        <time>2023-03-20T11:10:12Z</time>
      </trkpt>
      <trkpt lat="44.4475" lon="5.61641">
        <ele>1500.6</ele>
        <time>2023-03-20T11:10:13Z</time>
      </trkpt>
      <trkpt lat="44.4475" lon="5.61641">
        <ele>1500.6</ele>
        <time>2023-03-20T11:10:14Z</time>
      </trkpt>
      <trkpt lat="44.4475" lon="5.61641">
        <ele>1500.6</ele>
        <time>2023-03-20T11:10:15Z</time>
      </trkpt>
      <trkpt lat="44.4475" lon="5.61643">
        <ele>1500.6</ele>
        <time>2023-03-20T11:10:16Z</time>
      </trkpt>
      <trkpt lat="44.44749" lon="5.61644">
        <ele>1500.6</ele>
        <time>2023-03-20T11:10:17Z</time>
      </trkpt>
      <trkpt lat="44.44749" lon="5.61646">
        <ele>1500.6</ele>
        <time>2023-03-20T11:10:18Z</time>
      </trkpt>
      <trkpt lat="44.4475" lon="5.61647">
        <ele>1500.6</ele>
        <time>2023-03-20T11:10:19Z</time>
      </trkpt>
      <trkpt lat="44.4475" lon="5.61647">
        <ele>1500.6</ele>
        <time>2023-03-20T11:10:20Z</time>
      </trkpt>
      <trkpt lat="44.44752" lon="5.61647">
        <ele>1500.6</ele>
        <time>2023-03-20T11:10:21Z</time>
      </trkpt>
      <trkpt lat="44.44753" lon="5.61643">
        <ele>1500.6</ele>
        <time>2023-03-20T11:10:22Z</time>
      </trkpt>
      <trkpt lat="44.44754" lon="5.61641">
        <ele>1500.6</ele>
        <time>2023-03-20T11:10:23Z</time>
      </trkpt>
      <trkpt lat="44.44755" lon="5.61637">
        <ele>1500.7</ele>
        <time>2023-03-20T11:10:24Z</time>
      </trkpt>
      <trkpt lat="44.44756" lon="5.61634">
        <ele>1500.6</ele>
        <time>2023-03-20T11:10:25Z</time>
      </trkpt>
      <trkpt lat="44.44758" lon="5.6163">
        <ele>1500.8</ele>
        <time>2023-03-20T11:10:26Z</time>
      </trkpt>
      <trkpt lat="44.4476" lon="5.61626">
        <ele>1501</ele>
        <time>2023-03-20T11:10:27Z</time>
      </trkpt>
      <trkpt lat="44.44763" lon="5.61621">
        <ele>1501.1</ele>
        <time>2023-03-20T11:10:30Z</time>
      </trkpt>
      <trkpt lat="44.44765" lon="5.61618">
        <ele>1501.2</ele>
        <time>2023-03-20T11:10:31Z</time>
      </trkpt>
      <trkpt lat="44.44765" lon="5.61618">
        <ele>1501.2</ele>
        <time>2023-03-20T11:10:32Z</time>
      </trkpt>
      <trkpt lat="44.44765" lon="5.61617">
        <ele>1501.2</ele>
        <time>2023-03-20T11:10:33Z</time>
      </trkpt>
      <trkpt lat="44.44766" lon="5.61616">
        <ele>1501.2</ele>
        <time>2023-03-20T11:10:34Z</time>
      </trkpt>
      <trkpt lat="44.44767" lon="5.61615">
        <ele>1501.2</ele>
        <time>2023-03-20T11:10:35Z</time>
      </trkpt>
      <trkpt lat="44.44769" lon="5.61612">
        <ele>1501.2</ele>
        <time>2023-03-20T11:10:36Z</time>
      </trkpt>
      <trkpt lat="44.44771" lon="5.61609">
        <ele>1501.2</ele>
        <time>2023-03-20T11:10:37Z</time>
      </trkpt>
      <trkpt lat="44.44772" lon="5.61608">
        <ele>1501.2</ele>
        <time>2023-03-20T11:10:38Z</time>
      </trkpt>
      <trkpt lat="44.44775" lon="5.61604">
        <ele>1501.2</ele>
        <time>2023-03-20T11:10:39Z</time>
      </trkpt>
      <trkpt lat="44.44776" lon="5.61603">
        <ele>1501.1</ele>
        <time>2023-03-20T11:10:40Z</time>
      </trkpt>
      <trkpt lat="44.44779" lon="5.616">
        <ele>1501.1</ele>
        <time>2023-03-20T11:10:41Z</time>
      </trkpt>
      <trkpt lat="44.4478" lon="5.61599">
        <ele>1501.1</ele>
        <time>2023-03-20T11:10:42Z</time>
      </trkpt>
      <trkpt lat="44.44783" lon="5.61597">
        <ele>1501</ele>
        <time>2023-03-20T11:10:43Z</time>
      </trkpt>
      <trkpt lat="44.44783" lon="5.61596">
        <ele>1501</ele>
        <time>2023-03-20T11:10:44Z</time>
      </trkpt>
      <trkpt lat="44.44785" lon="5.61593">
        <ele>1501</ele>
        <time>2023-03-20T11:10:46Z</time>
      </trkpt>
      <trkpt lat="44.44786" lon="5.61592">
        <ele>1501</ele>
        <time>2023-03-20T11:10:47Z</time>
      </trkpt>
      <trkpt lat="44.44787" lon="5.61592">
        <ele>1500.9</ele>
        <time>2023-03-20T11:10:48Z</time>
      </trkpt>
      <trkpt lat="44.44787" lon="5.61592">
        <ele>1500.9</ele>
        <time>2023-03-20T11:10:49Z</time>
      </trkpt>
      <trkpt lat="44.44788" lon="5.61592">
        <ele>1500.9</ele>
        <time>2023-03-20T11:10:50Z</time>
      </trkpt>
      <trkpt lat="44.44788" lon="5.61591">
        <ele>1500.9</ele>
        <time>2023-03-20T11:10:52Z</time>
      </trkpt>
      <trkpt lat="44.44789" lon="5.6159">
        <ele>1500.9</ele>
        <time>2023-03-20T11:10:53Z</time>
      </trkpt>
      <trkpt lat="44.44789" lon="5.6159">
        <ele>1500.9</ele>
        <time>2023-03-20T11:10:54Z</time>
      </trkpt>
      <trkpt lat="44.44789" lon="5.61589">
        <ele>1500.9</ele>
        <time>2023-03-20T11:10:55Z</time>
      </trkpt>
      <trkpt lat="44.4479" lon="5.61588">
        <ele>1500.9</ele>
        <time>2023-03-20T11:10:56Z</time>
      </trkpt>
      <trkpt lat="44.4479" lon="5.61587">
        <ele>1500.8</ele>
        <time>2023-03-20T11:10:57Z</time>
      </trkpt>
      <trkpt lat="44.4479" lon="5.61586">
        <ele>1500.8</ele>
        <time>2023-03-20T11:10:58Z</time>
      </trkpt>
      <trkpt lat="44.44791" lon="5.61585">
        <ele>1500.8</ele>
        <time>2023-03-20T11:10:59Z</time>
      </trkpt>
      <trkpt lat="44.44791" lon="5.61585">
        <ele>1500.8</ele>
        <time>2023-03-20T11:11:00Z</time>
      </trkpt>
      <trkpt lat="44.44791" lon="5.61584">
        <ele>1500.8</ele>
        <time>2023-03-20T11:11:08Z</time>
      </trkpt>
      <trkpt lat="44.44792" lon="5.61583">
        <ele>1500.8</ele>
        <time>2023-03-20T11:11:09Z</time>
      </trkpt>
      <trkpt lat="44.44792" lon="5.61582">
        <ele>1500.7</ele>
        <time>2023-03-20T11:11:10Z</time>
      </trkpt>
      <trkpt lat="44.44793" lon="5.61581">
        <ele>1500.7</ele>
        <time>2023-03-20T11:11:11Z</time>
      </trkpt>
      <trkpt lat="44.44793" lon="5.6158">
        <ele>1500.7</ele>
        <time>2023-03-20T11:11:12Z</time>
      </trkpt>
      <trkpt lat="44.44794" lon="5.61579">
        <ele>1500.7</ele>
        <time>2023-03-20T11:11:13Z</time>
      </trkpt>
      <trkpt lat="44.44795" lon="5.61578">
        <ele>1500.6</ele>
        <time>2023-03-20T11:11:14Z</time>
      </trkpt>
      <trkpt lat="44.44796" lon="5.61577">
        <ele>1500.6</ele>
        <time>2023-03-20T11:11:15Z</time>
      </trkpt>
      <trkpt lat="44.44799" lon="5.61573">
        <ele>1500.5</ele>
        <time>2023-03-20T11:11:16Z</time>
      </trkpt>
      <trkpt lat="44.448" lon="5.61572">
        <ele>1500.5</ele>
        <time>2023-03-20T11:11:17Z</time>
      </trkpt>
      <trkpt lat="44.44802" lon="5.61569">
        <ele>1500.5</ele>
        <time>2023-03-20T11:11:18Z</time>
      </trkpt>
      <trkpt lat="44.44804" lon="5.61567">
        <ele>1500.5</ele>
        <time>2023-03-20T11:11:19Z</time>
      </trkpt>
      <trkpt lat="44.44806" lon="5.61563">
        <ele>1500.5</ele>
        <time>2023-03-20T11:11:20Z</time>
      </trkpt>
      <trkpt lat="44.44807" lon="5.61562">
        <ele>1500.5</ele>
        <time>2023-03-20T11:11:21Z</time>
      </trkpt>
      <trkpt lat="44.4481" lon="5.61558">
        <ele>1500.5</ele>
        <time>2023-03-20T11:11:22Z</time>
      </trkpt>
      <trkpt lat="44.4481" lon="5.61557">
        <ele>1500.5</ele>
        <time>2023-03-20T11:11:23Z</time>
      </trkpt>
      <trkpt lat="44.44813" lon="5.61552">
        <ele>1500.7</ele>
        <time>2023-03-20T11:11:24Z</time>
      </trkpt>
      <trkpt lat="44.44813" lon="5.61551">
        <ele>1500.7</ele>
        <time>2023-03-20T11:11:25Z</time>
      </trkpt>
      <trkpt lat="44.44815" lon="5.61547">
        <ele>1500.9</ele>
        <time>2023-03-20T11:11:26Z</time>
      </trkpt>
      <trkpt lat="44.44816" lon="5.61546">
        <ele>1501</ele>
        <time>2023-03-20T11:11:27Z</time>
      </trkpt>
      <trkpt lat="44.44817" lon="5.61542">
        <ele>1501.1</ele>
        <time>2023-03-20T11:11:28Z</time>
      </trkpt>
      <trkpt lat="44.44817" lon="5.61541">
        <ele>1501.2</ele>
        <time>2023-03-20T11:11:29Z</time>
      </trkpt>
      <trkpt lat="44.44819" lon="5.61537">
        <ele>1501.4</ele>
        <time>2023-03-20T11:11:30Z</time>
      </trkpt>
      <trkpt lat="44.4482" lon="5.61536">
        <ele>1501.4</ele>
        <time>2023-03-20T11:11:31Z</time>
      </trkpt>
      <trkpt lat="44.44822" lon="5.61532">
        <ele>1501.6</ele>
        <time>2023-03-20T11:11:32Z</time>
      </trkpt>
      <trkpt lat="44.44823" lon="5.61531">
        <ele>1501.7</ele>
        <time>2023-03-20T11:11:33Z</time>
      </trkpt>
      <trkpt lat="44.44825" lon="5.61527">
        <ele>1501.9</ele>
        <time>2023-03-20T11:11:34Z</time>
      </trkpt>
      <trkpt lat="44.44826" lon="5.61525">
        <ele>1501.9</ele>
        <time>2023-03-20T11:11:35Z</time>
      </trkpt>
      <trkpt lat="44.44827" lon="5.6152">
        <ele>1502.1</ele>
        <time>2023-03-20T11:11:36Z</time>
      </trkpt>
      <trkpt lat="44.44828" lon="5.61518">
        <ele>1502.2</ele>
        <time>2023-03-20T11:11:37Z</time>
      </trkpt>
      <trkpt lat="44.44829" lon="5.61515">
        <ele>1502.2</ele>
        <time>2023-03-20T11:11:38Z</time>
      </trkpt>
      <trkpt lat="44.4483" lon="5.61509">
        <ele>1502.3</ele>
        <time>2023-03-20T11:11:39Z</time>
      </trkpt>
      <trkpt lat="44.4483" lon="5.61508">
        <ele>1502.4</ele>
        <time>2023-03-20T11:11:40Z</time>
      </trkpt>
      <trkpt lat="44.44831" lon="5.61502">
        <ele>1502.4</ele>
        <time>2023-03-20T11:11:41Z</time>
      </trkpt>
      <trkpt lat="44.44831" lon="5.615">
        <ele>1502.4</ele>
        <time>2023-03-20T11:11:42Z</time>
      </trkpt>
      <trkpt lat="44.44832" lon="5.61495">
        <ele>1502.4</ele>
        <time>2023-03-20T11:11:43Z</time>
      </trkpt>
      <trkpt lat="44.44833" lon="5.61493">
        <ele>1502.4</ele>
        <time>2023-03-20T11:11:44Z</time>
      </trkpt>
      <trkpt lat="44.44833" lon="5.61489">
        <ele>1502.4</ele>
        <time>2023-03-20T11:11:45Z</time>
      </trkpt>
      <trkpt lat="44.44835" lon="5.61485">
        <ele>1502.3</ele>
        <time>2023-03-20T11:11:46Z</time>
      </trkpt>
      <trkpt lat="44.44836" lon="5.61481">
        <ele>1502.2</ele>
        <time>2023-03-20T11:11:47Z</time>
      </trkpt>
      <trkpt lat="44.44838" lon="5.61477">
        <ele>1502.1</ele>
        <time>2023-03-20T11:11:48Z</time>
      </trkpt>
      <trkpt lat="44.44839" lon="5.61472">
        <ele>1502</ele>
        <time>2023-03-20T11:11:49Z</time>
      </trkpt>
      <trkpt lat="44.44841" lon="5.61467">
        <ele>1501.8</ele>
        <time>2023-03-20T11:11:50Z</time>
      </trkpt>
      <trkpt lat="44.44842" lon="5.61463">
        <ele>1501.7</ele>
        <time>2023-03-20T11:11:51Z</time>
      </trkpt>
      <trkpt lat="44.44844" lon="5.61459">
        <ele>1501.5</ele>
        <time>2023-03-20T11:11:52Z</time>
      </trkpt>
      <trkpt lat="44.44846" lon="5.61455">
        <ele>1501.4</ele>
        <time>2023-03-20T11:11:53Z</time>
      </trkpt>
      <trkpt lat="44.44848" lon="5.61452">
        <ele>1501.4</ele>
        <time>2023-03-20T11:11:54Z</time>
      </trkpt>
      <trkpt lat="44.4485" lon="5.61449">
        <ele>1501.3</ele>
        <time>2023-03-20T11:11:55Z</time>
      </trkpt>
      <trkpt lat="44.44853" lon="5.61445">
        <ele>1501.3</ele>
        <time>2023-03-20T11:11:56Z</time>
      </trkpt>
      <trkpt lat="44.44855" lon="5.61442">
        <ele>1501.3</ele>
        <time>2023-03-20T11:11:57Z</time>
      </trkpt>
      <trkpt lat="44.44858" lon="5.61438">
        <ele>1501.3</ele>
        <time>2023-03-20T11:11:58Z</time>
      </trkpt>
      <trkpt lat="44.4486" lon="5.61435">
        <ele>1501.4</ele>
        <time>2023-03-20T11:11:59Z</time>
      </trkpt>
      <trkpt lat="44.44861" lon="5.6143">
        <ele>1501.4</ele>
        <time>2023-03-20T11:12:00Z</time>
      </trkpt>
      <trkpt lat="44.44863" lon="5.61426">
        <ele>1501.4</ele>
        <time>2023-03-20T11:12:01Z</time>
      </trkpt>
      <trkpt lat="44.44865" lon="5.61422">
        <ele>1501.5</ele>
        <time>2023-03-20T11:12:02Z</time>
      </trkpt>
      <trkpt lat="44.44867" lon="5.61417">
        <ele>1501.5</ele>
        <time>2023-03-20T11:12:03Z</time>
      </trkpt>
      <trkpt lat="44.44869" lon="5.61412">
        <ele>1501.6</ele>
        <time>2023-03-20T11:12:04Z</time>
      </trkpt>
      <trkpt lat="44.4487" lon="5.61407">
        <ele>1501.6</ele>
        <time>2023-03-20T11:12:05Z</time>
      </trkpt>
      <trkpt lat="44.44872" lon="5.61402">
        <ele>1501.7</ele>
        <time>2023-03-20T11:12:06Z</time>
      </trkpt>
      <trkpt lat="44.44874" lon="5.61398">
        <ele>1501.7</ele>
        <time>2023-03-20T11:12:07Z</time>
      </trkpt>
      <trkpt lat="44.44876" lon="5.61394">
        <ele>1501.6</ele>
        <time>2023-03-20T11:12:08Z</time>
      </trkpt>
      <trkpt lat="44.44877" lon="5.6139">
        <ele>1501.5</ele>
        <time>2023-03-20T11:12:09Z</time>
      </trkpt>
      <trkpt lat="44.44879" lon="5.61385">
        <ele>1501.3</ele>
        <time>2023-03-20T11:12:10Z</time>
      </trkpt>
      <trkpt lat="44.44881" lon="5.61381">
        <ele>1501.1</ele>
        <time>2023-03-20T11:12:11Z</time>
      </trkpt>
      <trkpt lat="44.44883" lon="5.61376">
        <ele>1500.9</ele>
        <time>2023-03-20T11:12:12Z</time>
      </trkpt>
      <trkpt lat="44.44885" lon="5.61371">
        <ele>1500.7</ele>
        <time>2023-03-20T11:12:13Z</time>
      </trkpt>
      <trkpt lat="44.44886" lon="5.61367">
        <ele>1500.5</ele>
        <time>2023-03-20T11:12:14Z</time>
      </trkpt>
      <trkpt lat="44.44887" lon="5.61362">
        <ele>1500.4</ele>
        <time>2023-03-20T11:12:15Z</time>
      </trkpt>
      <trkpt lat="44.44888" lon="5.61358">
        <ele>1500.2</ele>
        <time>2023-03-20T11:12:16Z</time>
      </trkpt>
      <trkpt lat="44.44889" lon="5.61354">
        <ele>1500.1</ele>
        <time>2023-03-20T11:12:17Z</time>
      </trkpt>
      <trkpt lat="44.4489" lon="5.61349">
        <ele>1499.9</ele>
        <time>2023-03-20T11:12:18Z</time>
      </trkpt>
      <trkpt lat="44.44891" lon="5.61345">
        <ele>1499.7</ele>
        <time>2023-03-20T11:12:19Z</time>
      </trkpt>
      <trkpt lat="44.44893" lon="5.61341">
        <ele>1499.5</ele>
        <time>2023-03-20T11:12:20Z</time>
      </trkpt>
      <trkpt lat="44.44895" lon="5.61336">
        <ele>1499.2</ele>
        <time>2023-03-20T11:12:21Z</time>
      </trkpt>
      <trkpt lat="44.44897" lon="5.61332">
        <ele>1498.9</ele>
        <time>2023-03-20T11:12:22Z</time>
      </trkpt>
      <trkpt lat="44.44899" lon="5.61328">
        <ele>1498.6</ele>
        <time>2023-03-20T11:12:23Z</time>
      </trkpt>
      <trkpt lat="44.44901" lon="5.61324">
        <ele>1498.4</ele>
        <time>2023-03-20T11:12:24Z</time>
      </trkpt>
      <trkpt lat="44.44903" lon="5.6132">
        <ele>1498.1</ele>
        <time>2023-03-20T11:12:25Z</time>
      </trkpt>
      <trkpt lat="44.44905" lon="5.61317">
        <ele>1497.9</ele>
        <time>2023-03-20T11:12:26Z</time>
      </trkpt>
      <trkpt lat="44.44908" lon="5.61314">
        <ele>1497.6</ele>
        <time>2023-03-20T11:12:27Z</time>
      </trkpt>
      <trkpt lat="44.4491" lon="5.61312">
        <ele>1497.3</ele>
        <time>2023-03-20T11:12:28Z</time>
      </trkpt>
      <trkpt lat="44.44913" lon="5.6131">
        <ele>1497.1</ele>
        <time>2023-03-20T11:12:29Z</time>
      </trkpt>
      <trkpt lat="44.44916" lon="5.61308">
        <ele>1496.8</ele>
        <time>2023-03-20T11:12:30Z</time>
      </trkpt>
      <trkpt lat="44.44918" lon="5.61307">
        <ele>1496.7</ele>
        <time>2023-03-20T11:12:31Z</time>
      </trkpt>
      <trkpt lat="44.44921" lon="5.61306">
        <ele>1496.1</ele>
        <time>2023-03-20T11:12:32Z</time>
      </trkpt>
      <trkpt lat="44.44922" lon="5.61305">
        <ele>1496</ele>
        <time>2023-03-20T11:12:33Z</time>
      </trkpt>
      <trkpt lat="44.44926" lon="5.61305">
        <ele>1495.6</ele>
        <time>2023-03-20T11:12:34Z</time>
      </trkpt>
      <trkpt lat="44.44927" lon="5.61304">
        <ele>1495.5</ele>
        <time>2023-03-20T11:12:35Z</time>
      </trkpt>
      <trkpt lat="44.44931" lon="5.61305">
        <ele>1495.1</ele>
        <time>2023-03-20T11:12:36Z</time>
      </trkpt>
      <trkpt lat="44.44932" lon="5.61306">
        <ele>1495</ele>
        <time>2023-03-20T11:12:37Z</time>
      </trkpt>
      <trkpt lat="44.44935" lon="5.61307">
        <ele>1494.6</ele>
        <time>2023-03-20T11:12:38Z</time>
      </trkpt>
      <trkpt lat="44.44936" lon="5.61307">
        <ele>1494.5</ele>
        <time>2023-03-20T11:12:39Z</time>
      </trkpt>
      <trkpt lat="44.44939" lon="5.61308">
        <ele>1494.1</ele>
        <time>2023-03-20T11:12:40Z</time>
      </trkpt>
      <trkpt lat="44.4494" lon="5.61308">
        <ele>1494</ele>
        <time>2023-03-20T11:12:41Z</time>
      </trkpt>
      <trkpt lat="44.44941" lon="5.61309">
        <ele>1493.9</ele>
        <time>2023-03-20T11:12:42Z</time>
      </trkpt>
      <trkpt lat="44.44941" lon="5.61309">
        <ele>1493.9</ele>
        <time>2023-03-20T11:12:43Z</time>
      </trkpt>
      <trkpt lat="44.44941" lon="5.61308">
        <ele>1493.8</ele>
        <time>2023-03-20T11:12:44Z</time>
      </trkpt>
      <trkpt lat="44.44942" lon="5.61308">
        <ele>1493.8</ele>
        <time>2023-03-20T11:12:45Z</time>
      </trkpt>
      <trkpt lat="44.44942" lon="5.61308">
        <ele>1493.8</ele>
        <time>2023-03-20T11:12:46Z</time>
      </trkpt>
      <trkpt lat="44.44942" lon="5.61308">
        <ele>1493.8</ele>
        <time>2023-03-20T11:12:47Z</time>
      </trkpt>
      <trkpt lat="44.44942" lon="5.61308">
        <ele>1493.7</ele>
        <time>2023-03-20T11:12:48Z</time>
      </trkpt>
      <trkpt lat="44.44942" lon="5.61308">
        <ele>1493.7</ele>
        <time>2023-03-20T11:12:49Z</time>
      </trkpt>
      <trkpt lat="44.44943" lon="5.61308">
        <ele>1493.7</ele>
        <time>2023-03-20T11:12:50Z</time>
      </trkpt>
      <trkpt lat="44.44943" lon="5.61308">
        <ele>1493.7</ele>
        <time>2023-03-20T11:12:51Z</time>
      </trkpt>
      <trkpt lat="44.44943" lon="5.61308">
        <ele>1493.6</ele>
        <time>2023-03-20T11:12:52Z</time>
      </trkpt>
      <trkpt lat="44.44943" lon="5.61308">
        <ele>1493.6</ele>
        <time>2023-03-20T11:12:53Z</time>
      </trkpt>
      <trkpt lat="44.44943" lon="5.61307">
        <ele>1493.6</ele>
        <time>2023-03-20T11:12:54Z</time>
      </trkpt>
      <trkpt lat="44.44943" lon="5.61307">
        <ele>1493.6</ele>
        <time>2023-03-20T11:12:55Z</time>
      </trkpt>
      <trkpt lat="44.44944" lon="5.61307">
        <ele>1493.5</ele>
        <time>2023-03-20T11:12:56Z</time>
      </trkpt>
      <trkpt lat="44.44944" lon="5.61307">
        <ele>1493.5</ele>
        <time>2023-03-20T11:12:57Z</time>
      </trkpt>
      <trkpt lat="44.44944" lon="5.61307">
        <ele>1493.5</ele>
        <time>2023-03-20T11:13:39Z</time>
      </trkpt>
      <trkpt lat="44.44944" lon="5.61307">
        <ele>1493.5</ele>
        <time>2023-03-20T11:13:40Z</time>
      </trkpt>
      <trkpt lat="44.44944" lon="5.61307">
        <ele>1493.5</ele>
        <time>2023-03-20T11:13:41Z</time>
      </trkpt>
      <trkpt lat="44.44945" lon="5.61307">
        <ele>1493.4</ele>
        <time>2023-03-20T11:13:42Z</time>
      </trkpt>
      <trkpt lat="44.44945" lon="5.61307">
        <ele>1493.4</ele>
        <time>2023-03-20T11:13:43Z</time>
      </trkpt>
      <trkpt lat="44.44945" lon="5.61306">
        <ele>1493.4</ele>
        <time>2023-03-20T11:13:44Z</time>
      </trkpt>
      <trkpt lat="44.44945" lon="5.61306">
        <ele>1493.3</ele>
        <time>2023-03-20T11:13:45Z</time>
      </trkpt>
      <trkpt lat="44.44945" lon="5.61306">
        <ele>1493.3</ele>
        <time>2023-03-20T11:13:46Z</time>
      </trkpt>
      <trkpt lat="44.44945" lon="5.61306">
        <ele>1493.3</ele>
        <time>2023-03-20T11:13:47Z</time>
      </trkpt>
      <trkpt lat="44.44946" lon="5.61306">
        <ele>1493.3</ele>
        <time>2023-03-20T11:13:48Z</time>
      </trkpt>
      <trkpt lat="44.44946" lon="5.61306">
        <ele>1493.3</ele>
        <time>2023-03-20T11:13:49Z</time>
      </trkpt>
      <trkpt lat="44.44948" lon="5.61302">
        <ele>1492.9</ele>
        <time>2023-03-20T11:13:50Z</time>
      </trkpt>
      <trkpt lat="44.44949" lon="5.61299">
        <ele>1492.5</ele>
        <time>2023-03-20T11:13:51Z</time>
      </trkpt>
      <trkpt lat="44.44951" lon="5.61294">
        <ele>1492.1</ele>
        <time>2023-03-20T11:13:52Z</time>
      </trkpt>
      <trkpt lat="44.44951" lon="5.61293">
        <ele>1492</ele>
        <time>2023-03-20T11:13:53Z</time>
      </trkpt>
      <trkpt lat="44.44954" lon="5.61291">
        <ele>1491.6</ele>
        <time>2023-03-20T11:13:54Z</time>
      </trkpt>
      <trkpt lat="44.44955" lon="5.6129">
        <ele>1491.5</ele>
        <time>2023-03-20T11:13:55Z</time>
      </trkpt>
      <trkpt lat="44.44958" lon="5.61287">
        <ele>1490.9</ele>
        <time>2023-03-20T11:13:56Z</time>
      </trkpt>
      <trkpt lat="44.44959" lon="5.61285">
        <ele>1490.7</ele>
        <time>2023-03-20T11:13:57Z</time>
      </trkpt>
      <trkpt lat="44.44962" lon="5.61283">
        <ele>1490.3</ele>
        <time>2023-03-20T11:13:58Z</time>
      </trkpt>
      <trkpt lat="44.44965" lon="5.61281">
        <ele>1489.8</ele>
        <time>2023-03-20T11:13:59Z</time>
      </trkpt>
      <trkpt lat="44.44965" lon="5.61281">
        <ele>1489.7</ele>
        <time>2023-03-20T11:14:00Z</time>
      </trkpt>
      <trkpt lat="44.44968" lon="5.61279">
        <ele>1489.3</ele>
        <time>2023-03-20T11:14:01Z</time>
      </trkpt>
      <trkpt lat="44.44971" lon="5.61276">
        <ele>1488.8</ele>
        <time>2023-03-20T11:14:02Z</time>
      </trkpt>
      <trkpt lat="44.44973" lon="5.61273">
        <ele>1488.3</ele>
        <time>2023-03-20T11:14:03Z</time>
      </trkpt>
      <trkpt lat="44.44976" lon="5.61271">
        <ele>1487.8</ele>
        <time>2023-03-20T11:14:04Z</time>
      </trkpt>
      <trkpt lat="44.44979" lon="5.6127">
        <ele>1487.4</ele>
        <time>2023-03-20T11:14:05Z</time>
      </trkpt>
      <trkpt lat="44.44983" lon="5.61269">
        <ele>1486.8</ele>
        <time>2023-03-20T11:14:06Z</time>
      </trkpt>
      <trkpt lat="44.44984" lon="5.61268">
        <ele>1486.5</ele>
        <time>2023-03-20T11:14:07Z</time>
      </trkpt>
      <trkpt lat="44.4499" lon="5.61266">
        <ele>1485.7</ele>
        <time>2023-03-20T11:14:08Z</time>
      </trkpt>
      <trkpt lat="44.44995" lon="5.61263">
        <ele>1484.9</ele>
        <time>2023-03-20T11:14:09Z</time>
      </trkpt>
      <trkpt lat="44.45" lon="5.61259">
        <ele>1484.1</ele>
        <time>2023-03-20T11:14:10Z</time>
      </trkpt>
      <trkpt lat="44.45003" lon="5.61255">
        <ele>1483.4</ele>
        <time>2023-03-20T11:14:11Z</time>
      </trkpt>
      <trkpt lat="44.45004" lon="5.6125">
        <ele>1482.9</ele>
        <time>2023-03-20T11:14:12Z</time>
      </trkpt>
      <trkpt lat="44.45004" lon="5.61245">
        <ele>1482.4</ele>
        <time>2023-03-20T11:14:13Z</time>
      </trkpt>
      <trkpt lat="44.45005" lon="5.61241">
        <ele>1481.9</ele>
        <time>2023-03-20T11:14:14Z</time>
      </trkpt>
      <trkpt lat="44.45006" lon="5.61237">
        <ele>1481.4</ele>
        <time>2023-03-20T11:14:15Z</time>
      </trkpt>
      <trkpt lat="44.45007" lon="5.61236">
        <ele>1481.2</ele>
        <time>2023-03-20T11:14:16Z</time>
      </trkpt>
      <trkpt lat="44.45009" lon="5.61236">
        <ele>1481</ele>
        <time>2023-03-20T11:14:17Z</time>
      </trkpt>
      <trkpt lat="44.45011" lon="5.61237">
        <ele>1480.6</ele>
        <time>2023-03-20T11:14:18Z</time>
      </trkpt>
      <trkpt lat="44.45014" lon="5.61237">
        <ele>1480.1</ele>
        <time>2023-03-20T11:14:19Z</time>
      </trkpt>
      <trkpt lat="44.45015" lon="5.61237">
        <ele>1479.9</ele>
        <time>2023-03-20T11:14:20Z</time>
      </trkpt>
      <trkpt lat="44.45018" lon="5.61237">
        <ele>1479.5</ele>
        <time>2023-03-20T11:14:21Z</time>
      </trkpt>
      <trkpt lat="44.45021" lon="5.61235">
        <ele>1479</ele>
        <time>2023-03-20T11:14:22Z</time>
      </trkpt>
      <trkpt lat="44.45024" lon="5.61231">
        <ele>1478.4</ele>
        <time>2023-03-20T11:14:23Z</time>
      </trkpt>
      <trkpt lat="44.45027" lon="5.61227">
        <ele>1477.6</ele>
        <time>2023-03-20T11:14:24Z</time>
      </trkpt>
      <trkpt lat="44.4503" lon="5.61222">
        <ele>1476.9</ele>
        <time>2023-03-20T11:14:25Z</time>
      </trkpt>
      <trkpt lat="44.45035" lon="5.61217">
        <ele>1476</ele>
        <time>2023-03-20T11:14:26Z</time>
      </trkpt>
      <trkpt lat="44.45041" lon="5.61211">
        <ele>1475</ele>
        <time>2023-03-20T11:14:27Z</time>
      </trkpt>
      <trkpt lat="44.45045" lon="5.61205">
        <ele>1474</ele>
        <time>2023-03-20T11:14:28Z</time>
      </trkpt>
      <trkpt lat="44.45049" lon="5.612">
        <ele>1473.2</ele>
        <time>2023-03-20T11:14:29Z</time>
      </trkpt>
      <trkpt lat="44.45052" lon="5.61196">
        <ele>1472.6</ele>
        <time>2023-03-20T11:14:30Z</time>
      </trkpt>
      <trkpt lat="44.45057" lon="5.61194">
        <ele>1471.9</ele>
        <time>2023-03-20T11:14:31Z</time>
      </trkpt>
      <trkpt lat="44.45062" lon="5.61191">
        <ele>1471.4</ele>
        <time>2023-03-20T11:14:32Z</time>
      </trkpt>
      <trkpt lat="44.45067" lon="5.61189">
        <ele>1470.9</ele>
        <time>2023-03-20T11:14:33Z</time>
      </trkpt>
      <trkpt lat="44.45071" lon="5.61185">
        <ele>1470.4</ele>
        <time>2023-03-20T11:14:34Z</time>
      </trkpt>
      <trkpt lat="44.45075" lon="5.6118">
        <ele>1470</ele>
        <time>2023-03-20T11:14:35Z</time>
      </trkpt>
      <trkpt lat="44.4508" lon="5.61175">
        <ele>1469.7</ele>
        <time>2023-03-20T11:14:36Z</time>
      </trkpt>
      <trkpt lat="44.45084" lon="5.61169">
        <ele>1469.4</ele>
        <time>2023-03-20T11:14:37Z</time>
      </trkpt>
      <trkpt lat="44.45088" lon="5.61164">
        <ele>1469.3</ele>
        <time>2023-03-20T11:14:38Z</time>
      </trkpt>
      <trkpt lat="44.45093" lon="5.6116">
        <ele>1469.3</ele>
        <time>2023-03-20T11:14:39Z</time>
      </trkpt>
      <trkpt lat="44.45098" lon="5.61158">
        <ele>1469.2</ele>
        <time>2023-03-20T11:14:40Z</time>
      </trkpt>
      <trkpt lat="44.45102" lon="5.61157">
        <ele>1469.2</ele>
        <time>2023-03-20T11:14:41Z</time>
      </trkpt>
      <trkpt lat="44.45107" lon="5.61154">
        <ele>1469.1</ele>
        <time>2023-03-20T11:14:42Z</time>
      </trkpt>
      <trkpt lat="44.4511" lon="5.61151">
        <ele>1469.1</ele>
        <time>2023-03-20T11:14:43Z</time>
      </trkpt>
      <trkpt lat="44.45113" lon="5.61145">
        <ele>1469.1</ele>
        <time>2023-03-20T11:14:44Z</time>
      </trkpt>
      <trkpt lat="44.45115" lon="5.6114">
        <ele>1469.1</ele>
        <time>2023-03-20T11:14:45Z</time>
      </trkpt>
      <trkpt lat="44.45118" lon="5.61134">
        <ele>1469.1</ele>
        <time>2023-03-20T11:14:46Z</time>
      </trkpt>
      <trkpt lat="44.45119" lon="5.61129">
        <ele>1469.1</ele>
        <time>2023-03-20T11:14:47Z</time>
      </trkpt>
      <trkpt lat="44.4512" lon="5.61123">
        <ele>1469</ele>
        <time>2023-03-20T11:14:48Z</time>
      </trkpt>
      <trkpt lat="44.4512" lon="5.61117">
        <ele>1469</ele>
        <time>2023-03-20T11:14:49Z</time>
      </trkpt>
      <trkpt lat="44.4512" lon="5.61112">
        <ele>1468.9</ele>
        <time>2023-03-20T11:14:50Z</time>
      </trkpt>
      <trkpt lat="44.45121" lon="5.61107">
        <ele>1468.9</ele>
        <time>2023-03-20T11:14:51Z</time>
      </trkpt>
      <trkpt lat="44.45122" lon="5.61097">
        <ele>1468.8</ele>
        <time>2023-03-20T11:14:53Z</time>
      </trkpt>
      <trkpt lat="44.45123" lon="5.61091">
        <ele>1468.7</ele>
        <time>2023-03-20T11:14:54Z</time>
      </trkpt>
      <trkpt lat="44.45124" lon="5.61086">
        <ele>1468.7</ele>
        <time>2023-03-20T11:14:55Z</time>
      </trkpt>
      <trkpt lat="44.45125" lon="5.61081">
        <ele>1468.7</ele>
        <time>2023-03-20T11:14:56Z</time>
      </trkpt>
      <trkpt lat="44.45126" lon="5.61077">
        <ele>1468.7</ele>
        <time>2023-03-20T11:14:57Z</time>
      </trkpt>
      <trkpt lat="44.45127" lon="5.61073">
        <ele>1468.7</ele>
        <time>2023-03-20T11:14:58Z</time>
      </trkpt>
      <trkpt lat="44.45128" lon="5.61069">
        <ele>1468.8</ele>
        <time>2023-03-20T11:14:59Z</time>
      </trkpt>
      <trkpt lat="44.45129" lon="5.61065">
        <ele>1468.8</ele>
        <time>2023-03-20T11:15:00Z</time>
      </trkpt>
      <trkpt lat="44.45131" lon="5.6106">
        <ele>1468.8</ele>
        <time>2023-03-20T11:15:01Z</time>
      </trkpt>
      <trkpt lat="44.45132" lon="5.61056">
        <ele>1468.9</ele>
        <time>2023-03-20T11:15:02Z</time>
      </trkpt>
      <trkpt lat="44.45133" lon="5.61051">
        <ele>1469</ele>
        <time>2023-03-20T11:15:03Z</time>
      </trkpt>
      <trkpt lat="44.45135" lon="5.61046">
        <ele>1469.1</ele>
        <time>2023-03-20T11:15:04Z</time>
      </trkpt>
      <trkpt lat="44.45136" lon="5.61042">
        <ele>1469.2</ele>
        <time>2023-03-20T11:15:05Z</time>
      </trkpt>
      <trkpt lat="44.45139" lon="5.61038">
        <ele>1469.3</ele>
        <time>2023-03-20T11:15:06Z</time>
      </trkpt>
      <trkpt lat="44.45141" lon="5.61033">
        <ele>1469.4</ele>
        <time>2023-03-20T11:15:07Z</time>
      </trkpt>
      <trkpt lat="44.45143" lon="5.61029">
        <ele>1469.6</ele>
        <time>2023-03-20T11:15:08Z</time>
      </trkpt>
      <trkpt lat="44.45145" lon="5.61024">
        <ele>1469.7</ele>
        <time>2023-03-20T11:15:09Z</time>
      </trkpt>
      <trkpt lat="44.45147" lon="5.6102">
        <ele>1469.8</ele>
        <time>2023-03-20T11:15:10Z</time>
      </trkpt>
      <trkpt lat="44.45148" lon="5.61014">
        <ele>1469.9</ele>
        <time>2023-03-20T11:15:11Z</time>
      </trkpt>
      <trkpt lat="44.45149" lon="5.61009">
        <ele>1469.9</ele>
        <time>2023-03-20T11:15:12Z</time>
      </trkpt>
      <trkpt lat="44.4515" lon="5.61005">
        <ele>1469.9</ele>
        <time>2023-03-20T11:15:13Z</time>
      </trkpt>
      <trkpt lat="44.45151" lon="5.61">
        <ele>1470</ele>
        <time>2023-03-20T11:15:14Z</time>
      </trkpt>
      <trkpt lat="44.45152" lon="5.60996">
        <ele>1470</ele>
        <time>2023-03-20T11:15:15Z</time>
      </trkpt>
      <trkpt lat="44.45155" lon="5.60993">
        <ele>1470</ele>
        <time>2023-03-20T11:15:16Z</time>
      </trkpt>
      <trkpt lat="44.45157" lon="5.60988">
        <ele>1470</ele>
        <time>2023-03-20T11:15:17Z</time>
      </trkpt>
      <trkpt lat="44.4516" lon="5.60985">
        <ele>1470</ele>
        <time>2023-03-20T11:15:18Z</time>
      </trkpt>
      <trkpt lat="44.45163" lon="5.60981">
        <ele>1470</ele>
        <time>2023-03-20T11:15:19Z</time>
      </trkpt>
      <trkpt lat="44.45164" lon="5.60976">
        <ele>1470</ele>
        <time>2023-03-20T11:15:20Z</time>
      </trkpt>
      <trkpt lat="44.45166" lon="5.60971">
        <ele>1470</ele>
        <time>2023-03-20T11:15:21Z</time>
      </trkpt>
      <trkpt lat="44.45167" lon="5.60966">
        <ele>1470</ele>
        <time>2023-03-20T11:15:22Z</time>
      </trkpt>
      <trkpt lat="44.45169" lon="5.60961">
        <ele>1470</ele>
        <time>2023-03-20T11:15:23Z</time>
      </trkpt>
      <trkpt lat="44.4517" lon="5.60957">
        <ele>1469.9</ele>
        <time>2023-03-20T11:15:24Z</time>
      </trkpt>
      <trkpt lat="44.45172" lon="5.60954">
        <ele>1469.9</ele>
        <time>2023-03-20T11:15:25Z</time>
      </trkpt>
      <trkpt lat="44.45173" lon="5.6095">
        <ele>1469.8</ele>
        <time>2023-03-20T11:15:26Z</time>
      </trkpt>
      <trkpt lat="44.45175" lon="5.60947">
        <ele>1469.8</ele>
        <time>2023-03-20T11:15:27Z</time>
      </trkpt>
      <trkpt lat="44.45177" lon="5.60942">
        <ele>1469.7</ele>
        <time>2023-03-20T11:15:28Z</time>
      </trkpt>
      <trkpt lat="44.45178" lon="5.60941">
        <ele>1469.6</ele>
        <time>2023-03-20T11:15:29Z</time>
      </trkpt>
      <trkpt lat="44.45181" lon="5.60937">
        <ele>1469.5</ele>
        <time>2023-03-20T11:15:30Z</time>
      </trkpt>
      <trkpt lat="44.45183" lon="5.60936">
        <ele>1469.4</ele>
        <time>2023-03-20T11:15:31Z</time>
      </trkpt>
      <trkpt lat="44.45185" lon="5.60933">
        <ele>1469.4</ele>
        <time>2023-03-20T11:15:32Z</time>
      </trkpt>
      <trkpt lat="44.45187" lon="5.6093">
        <ele>1469.3</ele>
        <time>2023-03-20T11:15:33Z</time>
      </trkpt>
      <trkpt lat="44.45188" lon="5.60926">
        <ele>1469.2</ele>
        <time>2023-03-20T11:15:34Z</time>
      </trkpt>
      <trkpt lat="44.45191" lon="5.60923">
        <ele>1469.1</ele>
        <time>2023-03-20T11:15:35Z</time>
      </trkpt>
      <trkpt lat="44.45192" lon="5.60923">
        <ele>1469.1</ele>
        <time>2023-03-20T11:15:36Z</time>
      </trkpt>
      <trkpt lat="44.45196" lon="5.60922">
        <ele>1469</ele>
        <time>2023-03-20T11:15:37Z</time>
      </trkpt>
      <trkpt lat="44.45198" lon="5.60921">
        <ele>1469</ele>
        <time>2023-03-20T11:15:38Z</time>
      </trkpt>
      <trkpt lat="44.45201" lon="5.6092">
        <ele>1468.9</ele>
        <time>2023-03-20T11:15:39Z</time>
      </trkpt>
      <trkpt lat="44.45206" lon="5.60919">
        <ele>1468.9</ele>
        <time>2023-03-20T11:15:40Z</time>
      </trkpt>
      <trkpt lat="44.45211" lon="5.60917">
        <ele>1468.9</ele>
        <time>2023-03-20T11:15:41Z</time>
      </trkpt>
      <trkpt lat="44.45215" lon="5.60914">
        <ele>1468.9</ele>
        <time>2023-03-20T11:15:42Z</time>
      </trkpt>
      <trkpt lat="44.45219" lon="5.6091">
        <ele>1468.9</ele>
        <time>2023-03-20T11:15:43Z</time>
      </trkpt>
      <trkpt lat="44.45221" lon="5.60907">
        <ele>1468.9</ele>
        <time>2023-03-20T11:15:44Z</time>
      </trkpt>
      <trkpt lat="44.45225" lon="5.60904">
        <ele>1468.9</ele>
        <time>2023-03-20T11:15:45Z</time>
      </trkpt>
      <trkpt lat="44.45225" lon="5.60904">
        <ele>1468.9</ele>
        <time>2023-03-20T11:15:46Z</time>
      </trkpt>
      <trkpt lat="44.45227" lon="5.609">
        <ele>1468.9</ele>
        <time>2023-03-20T11:15:47Z</time>
      </trkpt>
      <trkpt lat="44.45227" lon="5.60898">
        <ele>1468.9</ele>
        <time>2023-03-20T11:15:48Z</time>
      </trkpt>
      <trkpt lat="44.45229" lon="5.60894">
        <ele>1468.9</ele>
        <time>2023-03-20T11:15:49Z</time>
      </trkpt>
      <trkpt lat="44.4523" lon="5.60891">
        <ele>1468.9</ele>
        <time>2023-03-20T11:15:50Z</time>
      </trkpt>
      <trkpt lat="44.4523" lon="5.60887">
        <ele>1468.9</ele>
        <time>2023-03-20T11:15:51Z</time>
      </trkpt>
      <trkpt lat="44.4523" lon="5.60881">
        <ele>1468.8</ele>
        <time>2023-03-20T11:15:52Z</time>
      </trkpt>
      <trkpt lat="44.4523" lon="5.60879">
        <ele>1468.8</ele>
        <time>2023-03-20T11:15:53Z</time>
      </trkpt>
      <trkpt lat="44.45232" lon="5.60875">
        <ele>1468.8</ele>
        <time>2023-03-20T11:15:54Z</time>
      </trkpt>
      <trkpt lat="44.45235" lon="5.60872">
        <ele>1468.7</ele>
        <time>2023-03-20T11:15:55Z</time>
      </trkpt>
      <trkpt lat="44.45238" lon="5.60868">
        <ele>1468.6</ele>
        <time>2023-03-20T11:15:56Z</time>
      </trkpt>
      <trkpt lat="44.4524" lon="5.60864">
        <ele>1468.4</ele>
        <time>2023-03-20T11:15:57Z</time>
      </trkpt>
      <trkpt lat="44.45243" lon="5.6086">
        <ele>1468.3</ele>
        <time>2023-03-20T11:15:58Z</time>
      </trkpt>
      <trkpt lat="44.45246" lon="5.60858">
        <ele>1468.2</ele>
        <time>2023-03-20T11:15:59Z</time>
      </trkpt>
      <trkpt lat="44.45249" lon="5.60855">
        <ele>1468.1</ele>
        <time>2023-03-20T11:16:00Z</time>
      </trkpt>
      <trkpt lat="44.45252" lon="5.60853">
        <ele>1468</ele>
        <time>2023-03-20T11:16:01Z</time>
      </trkpt>
      <trkpt lat="44.45255" lon="5.6085">
        <ele>1467.8</ele>
        <time>2023-03-20T11:16:02Z</time>
      </trkpt>
      <trkpt lat="44.45258" lon="5.60847">
        <ele>1467.7</ele>
        <time>2023-03-20T11:16:03Z</time>
      </trkpt>
      <trkpt lat="44.45261" lon="5.60844">
        <ele>1467.6</ele>
        <time>2023-03-20T11:16:04Z</time>
      </trkpt>
      <trkpt lat="44.45263" lon="5.6084">
        <ele>1467.4</ele>
        <time>2023-03-20T11:16:05Z</time>
      </trkpt>
      <trkpt lat="44.45266" lon="5.60839">
        <ele>1467.3</ele>
        <time>2023-03-20T11:16:06Z</time>
      </trkpt>
      <trkpt lat="44.45269" lon="5.60838">
        <ele>1467.2</ele>
        <time>2023-03-20T11:16:07Z</time>
      </trkpt>
      <trkpt lat="44.45272" lon="5.60838">
        <ele>1467.1</ele>
        <time>2023-03-20T11:16:08Z</time>
      </trkpt>
      <trkpt lat="44.45275" lon="5.60839">
        <ele>1466.9</ele>
        <time>2023-03-20T11:16:09Z</time>
      </trkpt>
      <trkpt lat="44.45278" lon="5.6084">
        <ele>1466.8</ele>
        <time>2023-03-20T11:16:10Z</time>
      </trkpt>
      <trkpt lat="44.45282" lon="5.6084">
        <ele>1466.7</ele>
        <time>2023-03-20T11:16:11Z</time>
      </trkpt>
      <trkpt lat="44.45284" lon="5.60841">
        <ele>1466.6</ele>
        <time>2023-03-20T11:16:12Z</time>
      </trkpt>
      <trkpt lat="44.45288" lon="5.6084">
        <ele>1466.4</ele>
        <time>2023-03-20T11:16:13Z</time>
      </trkpt>
      <trkpt lat="44.45292" lon="5.60838">
        <ele>1466.2</ele>
        <time>2023-03-20T11:16:14Z</time>
      </trkpt>
      <trkpt lat="44.45296" lon="5.60836">
        <ele>1466.1</ele>
        <time>2023-03-20T11:16:15Z</time>
      </trkpt>
      <trkpt lat="44.45301" lon="5.60835">
        <ele>1465.8</ele>
        <time>2023-03-20T11:16:16Z</time>
      </trkpt>
      <trkpt lat="44.45306" lon="5.60835">
        <ele>1465.6</ele>
        <time>2023-03-20T11:16:17Z</time>
      </trkpt>
      <trkpt lat="44.45309" lon="5.60833">
        <ele>1465.5</ele>
        <time>2023-03-20T11:16:18Z</time>
      </trkpt>
      <trkpt lat="44.45314" lon="5.6083">
        <ele>1465.2</ele>
        <time>2023-03-20T11:16:19Z</time>
      </trkpt>
      <trkpt lat="44.45317" lon="5.60828">
        <ele>1465</ele>
        <time>2023-03-20T11:16:20Z</time>
      </trkpt>
      <trkpt lat="44.45321" lon="5.60825">
        <ele>1464.8</ele>
        <time>2023-03-20T11:16:21Z</time>
      </trkpt>
      <trkpt lat="44.45325" lon="5.60823">
        <ele>1464.6</ele>
        <time>2023-03-20T11:16:22Z</time>
      </trkpt>
      <trkpt lat="44.45329" lon="5.60821">
        <ele>1464.3</ele>
        <time>2023-03-20T11:16:23Z</time>
      </trkpt>
      <trkpt lat="44.45333" lon="5.6082">
        <ele>1464.1</ele>
        <time>2023-03-20T11:16:24Z</time>
      </trkpt>
      <trkpt lat="44.45339" lon="5.60819">
        <ele>1463.8</ele>
        <time>2023-03-20T11:16:25Z</time>
      </trkpt>
      <trkpt lat="44.45344" lon="5.60818">
        <ele>1463.4</ele>
        <time>2023-03-20T11:16:26Z</time>
      </trkpt>
      <trkpt lat="44.45349" lon="5.60819">
        <ele>1463.1</ele>
        <time>2023-03-20T11:16:27Z</time>
      </trkpt>
      <trkpt lat="44.45353" lon="5.60822">
        <ele>1462.7</ele>
        <time>2023-03-20T11:16:28Z</time>
      </trkpt>
      <trkpt lat="44.45358" lon="5.60825">
        <ele>1462.3</ele>
        <time>2023-03-20T11:16:29Z</time>
      </trkpt>
      <trkpt lat="44.45362" lon="5.60828">
        <ele>1461.8</ele>
        <time>2023-03-20T11:16:30Z</time>
      </trkpt>
      <trkpt lat="44.45365" lon="5.60829">
        <ele>1461.5</ele>
        <time>2023-03-20T11:16:31Z</time>
      </trkpt>
      <trkpt lat="44.45369" lon="5.60829">
        <ele>1461.2</ele>
        <time>2023-03-20T11:16:32Z</time>
      </trkpt>
      <trkpt lat="44.45372" lon="5.60828">
        <ele>1461.1</ele>
        <time>2023-03-20T11:16:33Z</time>
      </trkpt>
      <trkpt lat="44.45375" lon="5.60825">
        <ele>1460.9</ele>
        <time>2023-03-20T11:16:34Z</time>
      </trkpt>
      <trkpt lat="44.45379" lon="5.60823">
        <ele>1460.8</ele>
        <time>2023-03-20T11:16:35Z</time>
      </trkpt>
      <trkpt lat="44.45383" lon="5.60821">
        <ele>1460.6</ele>
        <time>2023-03-20T11:16:36Z</time>
      </trkpt>
      <trkpt lat="44.45388" lon="5.6082">
        <ele>1460.4</ele>
        <time>2023-03-20T11:16:37Z</time>
      </trkpt>
      <trkpt lat="44.45393" lon="5.60821">
        <ele>1460.1</ele>
        <time>2023-03-20T11:16:38Z</time>
      </trkpt>
      <trkpt lat="44.45397" lon="5.60822">
        <ele>1459.9</ele>
        <time>2023-03-20T11:16:39Z</time>
      </trkpt>
      <trkpt lat="44.454" lon="5.60825">
        <ele>1459.7</ele>
        <time>2023-03-20T11:16:40Z</time>
      </trkpt>
      <trkpt lat="44.45403" lon="5.60828">
        <ele>1459.6</ele>
        <time>2023-03-20T11:16:41Z</time>
      </trkpt>
      <trkpt lat="44.45406" lon="5.60829">
        <ele>1459.4</ele>
        <time>2023-03-20T11:16:42Z</time>
      </trkpt>
      <trkpt lat="44.45409" lon="5.6083">
        <ele>1459.3</ele>
        <time>2023-03-20T11:16:43Z</time>
      </trkpt>
      <trkpt lat="44.45412" lon="5.6083">
        <ele>1459.2</ele>
        <time>2023-03-20T11:16:44Z</time>
      </trkpt>
      <trkpt lat="44.45416" lon="5.60831">
        <ele>1459.1</ele>
        <time>2023-03-20T11:16:45Z</time>
      </trkpt>
      <trkpt lat="44.45417" lon="5.60832">
        <ele>1459.1</ele>
        <time>2023-03-20T11:16:46Z</time>
      </trkpt>
      <trkpt lat="44.45421" lon="5.60829">
        <ele>1458.9</ele>
        <time>2023-03-20T11:16:47Z</time>
      </trkpt>
      <trkpt lat="44.45422" lon="5.60828">
        <ele>1458.9</ele>
        <time>2023-03-20T11:16:48Z</time>
      </trkpt>
      <trkpt lat="44.45425" lon="5.60825">
        <ele>1458.8</ele>
        <time>2023-03-20T11:16:49Z</time>
      </trkpt>
      <trkpt lat="44.45427" lon="5.60823">
        <ele>1458.7</ele>
        <time>2023-03-20T11:16:50Z</time>
      </trkpt>
      <trkpt lat="44.4543" lon="5.6082">
        <ele>1458.6</ele>
        <time>2023-03-20T11:16:51Z</time>
      </trkpt>
      <trkpt lat="44.45433" lon="5.60819">
        <ele>1458.5</ele>
        <time>2023-03-20T11:16:52Z</time>
      </trkpt>
      <trkpt lat="44.45436" lon="5.60816">
        <ele>1458.4</ele>
        <time>2023-03-20T11:16:53Z</time>
      </trkpt>
      <trkpt lat="44.45437" lon="5.60816">
        <ele>1458.3</ele>
        <time>2023-03-20T11:16:54Z</time>
      </trkpt>
      <trkpt lat="44.45439" lon="5.60815">
        <ele>1458.2</ele>
        <time>2023-03-20T11:16:55Z</time>
      </trkpt>
      <trkpt lat="44.4544" lon="5.60814">
        <ele>1458.2</ele>
        <time>2023-03-20T11:16:56Z</time>
      </trkpt>
      <trkpt lat="44.45441" lon="5.60813">
        <ele>1458.1</ele>
        <time>2023-03-20T11:16:57Z</time>
      </trkpt>
      <trkpt lat="44.45443" lon="5.60811">
        <ele>1458</ele>
        <time>2023-03-20T11:16:58Z</time>
      </trkpt>
      <trkpt lat="44.45444" lon="5.60809">
        <ele>1457.9</ele>
        <time>2023-03-20T11:16:59Z</time>
      </trkpt>
      <trkpt lat="44.45445" lon="5.60807">
        <ele>1457.9</ele>
        <time>2023-03-20T11:17:00Z</time>
      </trkpt>
      <trkpt lat="44.45445" lon="5.60806">
        <ele>1457.9</ele>
        <time>2023-03-20T11:17:01Z</time>
      </trkpt>
      <trkpt lat="44.45447" lon="5.60805">
        <ele>1457.8</ele>
        <time>2023-03-20T11:17:02Z</time>
      </trkpt>
      <trkpt lat="44.45449" lon="5.60806">
        <ele>1457.7</ele>
        <time>2023-03-20T11:17:04Z</time>
      </trkpt>
      <trkpt lat="44.4545" lon="5.60806">
        <ele>1457.7</ele>
        <time>2023-03-20T11:17:06Z</time>
      </trkpt>
      <trkpt lat="44.45451" lon="5.60807">
        <ele>1457.6</ele>
        <time>2023-03-20T11:17:07Z</time>
      </trkpt>
      <trkpt lat="44.45453" lon="5.60809">
        <ele>1457.5</ele>
        <time>2023-03-20T11:17:08Z</time>
      </trkpt>
      <trkpt lat="44.45454" lon="5.60809">
        <ele>1457.5</ele>
        <time>2023-03-20T11:17:09Z</time>
      </trkpt>
      <trkpt lat="44.45455" lon="5.6081">
        <ele>1457.5</ele>
        <time>2023-03-20T11:17:10Z</time>
      </trkpt>
      <trkpt lat="44.45454" lon="5.6081">
        <ele>1457.4</ele>
        <time>2023-03-20T11:17:11Z</time>
      </trkpt>
      <trkpt lat="44.45454" lon="5.6081">
        <ele>1457.4</ele>
        <time>2023-03-20T11:17:12Z</time>
      </trkpt>
      <trkpt lat="44.45454" lon="5.6081">
        <ele>1457.4</ele>
        <time>2023-03-20T11:17:13Z</time>
      </trkpt>
      <trkpt lat="44.45454" lon="5.6081">
        <ele>1457.4</ele>
        <time>2023-03-20T11:17:14Z</time>
      </trkpt>
      <trkpt lat="44.45454" lon="5.6081">
        <ele>1457.4</ele>
        <time>2023-03-20T11:17:15Z</time>
      </trkpt>
      <trkpt lat="44.45454" lon="5.6081">
        <ele>1457.4</ele>
        <time>2023-03-20T11:17:16Z</time>
      </trkpt>
      <trkpt lat="44.45454" lon="5.6081">
        <ele>1457.4</ele>
        <time>2023-03-20T11:17:17Z</time>
      </trkpt>
      <trkpt lat="44.45454" lon="5.6081">
        <ele>1457.4</ele>
        <time>2023-03-20T11:17:18Z</time>
      </trkpt>
      <trkpt lat="44.45454" lon="5.6081">
        <ele>1457.4</ele>
        <time>2023-03-20T11:17:19Z</time>
      </trkpt>
      <trkpt lat="44.45454" lon="5.6081">
        <ele>1457.4</ele>
        <time>2023-03-20T11:17:20Z</time>
      </trkpt>
      <trkpt lat="44.45457" lon="5.60812">
        <ele>1457.3</ele>
        <time>2023-03-20T11:17:26Z</time>
      </trkpt>
      <trkpt lat="44.45458" lon="5.60813">
        <ele>1457.3</ele>
        <time>2023-03-20T11:17:27Z</time>
      </trkpt>
      <trkpt lat="44.45458" lon="5.60814">
        <ele>1457.2</ele>
        <time>2023-03-20T11:17:28Z</time>
      </trkpt>
      <trkpt lat="44.45459" lon="5.60815">
        <ele>1457.2</ele>
        <time>2023-03-20T11:17:29Z</time>
      </trkpt>
      <trkpt lat="44.45459" lon="5.60815">
        <ele>1457.2</ele>
        <time>2023-03-20T11:17:30Z</time>
      </trkpt>
      <trkpt lat="44.45459" lon="5.60816">
        <ele>1457.2</ele>
        <time>2023-03-20T11:17:31Z</time>
      </trkpt>
      <trkpt lat="44.45459" lon="5.60816">
        <ele>1457.2</ele>
        <time>2023-03-20T11:17:32Z</time>
      </trkpt>
      <trkpt lat="44.45459" lon="5.60817">
        <ele>1457.2</ele>
        <time>2023-03-20T11:17:33Z</time>
      </trkpt>
      <trkpt lat="44.4546" lon="5.60818">
        <ele>1457.1</ele>
        <time>2023-03-20T11:17:34Z</time>
      </trkpt>
      <trkpt lat="44.45459" lon="5.60819">
        <ele>1457.1</ele>
        <time>2023-03-20T11:17:35Z</time>
      </trkpt>
      <trkpt lat="44.4546" lon="5.6082">
        <ele>1457.1</ele>
        <time>2023-03-20T11:17:36Z</time>
      </trkpt>
      <trkpt lat="44.4546" lon="5.60821">
        <ele>1457.1</ele>
        <time>2023-03-20T11:17:37Z</time>
      </trkpt>
      <trkpt lat="44.45461" lon="5.60822">
        <ele>1457</ele>
        <time>2023-03-20T11:17:38Z</time>
      </trkpt>
      <trkpt lat="44.45462" lon="5.60823">
        <ele>1457</ele>
        <time>2023-03-20T11:17:39Z</time>
      </trkpt>
      <trkpt lat="44.45462" lon="5.60824">
        <ele>1456.9</ele>
        <time>2023-03-20T11:17:40Z</time>
      </trkpt>
      <trkpt lat="44.45463" lon="5.60825">
        <ele>1456.9</ele>
        <time>2023-03-20T11:17:41Z</time>
      </trkpt>
      <trkpt lat="44.45463" lon="5.60826">
        <ele>1456.9</ele>
        <time>2023-03-20T11:17:42Z</time>
      </trkpt>
      <trkpt lat="44.45463" lon="5.60826">
        <ele>1456.9</ele>
        <time>2023-03-20T11:17:43Z</time>
      </trkpt>
      <trkpt lat="44.45463" lon="5.60827">
        <ele>1456.9</ele>
        <time>2023-03-20T11:17:44Z</time>
      </trkpt>
      <trkpt lat="44.45464" lon="5.60828">
        <ele>1456.8</ele>
        <time>2023-03-20T11:17:45Z</time>
      </trkpt>
      <trkpt lat="44.45465" lon="5.60828">
        <ele>1456.8</ele>
        <time>2023-03-20T11:17:46Z</time>
      </trkpt>
      <trkpt lat="44.45466" lon="5.60828">
        <ele>1456.8</ele>
        <time>2023-03-20T11:17:47Z</time>
      </trkpt>
      <trkpt lat="44.45466" lon="5.60828">
        <ele>1456.8</ele>
        <time>2023-03-20T11:17:48Z</time>
      </trkpt>
      <trkpt lat="44.45466" lon="5.60828">
        <ele>1456.8</ele>
        <time>2023-03-20T11:17:49Z</time>
      </trkpt>
      <trkpt lat="44.45467" lon="5.60828">
        <ele>1456.8</ele>
        <time>2023-03-20T11:17:50Z</time>
      </trkpt>
      <trkpt lat="44.45468" lon="5.60827">
        <ele>1456.8</ele>
        <time>2023-03-20T11:17:51Z</time>
      </trkpt>
      <trkpt lat="44.45469" lon="5.60827">
        <ele>1456.8</ele>
        <time>2023-03-20T11:17:52Z</time>
      </trkpt>
      <trkpt lat="44.45471" lon="5.60825">
        <ele>1456.8</ele>
        <time>2023-03-20T11:17:53Z</time>
      </trkpt>
      <trkpt lat="44.45471" lon="5.60825">
        <ele>1456.7</ele>
        <time>2023-03-20T11:17:54Z</time>
      </trkpt>
      <trkpt lat="44.45472" lon="5.60824">
        <ele>1456.7</ele>
        <time>2023-03-20T11:17:55Z</time>
      </trkpt>
      <trkpt lat="44.45475" lon="5.60821">
        <ele>1456.7</ele>
        <time>2023-03-20T11:17:56Z</time>
      </trkpt>
      <trkpt lat="44.45476" lon="5.6082">
        <ele>1456.7</ele>
        <time>2023-03-20T11:17:57Z</time>
      </trkpt>
      <trkpt lat="44.45478" lon="5.60817">
        <ele>1456.7</ele>
        <time>2023-03-20T11:17:58Z</time>
      </trkpt>
      <trkpt lat="44.4548" lon="5.60814">
        <ele>1456.6</ele>
        <time>2023-03-20T11:17:59Z</time>
      </trkpt>
      <trkpt lat="44.45482" lon="5.60811">
        <ele>1456.6</ele>
        <time>2023-03-20T11:18:00Z</time>
      </trkpt>
      <trkpt lat="44.45484" lon="5.60806">
        <ele>1456.4</ele>
        <time>2023-03-20T11:18:01Z</time>
      </trkpt>
      <trkpt lat="44.45487" lon="5.60801">
        <ele>1456.3</ele>
        <time>2023-03-20T11:18:02Z</time>
      </trkpt>
      <trkpt lat="44.4549" lon="5.60797">
        <ele>1456.1</ele>
        <time>2023-03-20T11:18:03Z</time>
      </trkpt>
      <trkpt lat="44.45492" lon="5.60794">
        <ele>1456</ele>
        <time>2023-03-20T11:18:04Z</time>
      </trkpt>
      <trkpt lat="44.45495" lon="5.60792">
        <ele>1455.9</ele>
        <time>2023-03-20T11:18:05Z</time>
      </trkpt>
      <trkpt lat="44.45496" lon="5.60792">
        <ele>1455.9</ele>
        <time>2023-03-20T11:18:06Z</time>
      </trkpt>
      <trkpt lat="44.45499" lon="5.60792">
        <ele>1455.8</ele>
        <time>2023-03-20T11:18:07Z</time>
      </trkpt>
      <trkpt lat="44.455" lon="5.60792">
        <ele>1455.8</ele>
        <time>2023-03-20T11:18:08Z</time>
      </trkpt>
      <trkpt lat="44.45504" lon="5.60793">
        <ele>1455.7</ele>
        <time>2023-03-20T11:18:09Z</time>
      </trkpt>
      <trkpt lat="44.45508" lon="5.60794">
        <ele>1455.6</ele>
        <time>2023-03-20T11:18:10Z</time>
      </trkpt>
      <trkpt lat="44.4551" lon="5.60794">
        <ele>1455.5</ele>
        <time>2023-03-20T11:18:11Z</time>
      </trkpt>
      <trkpt lat="44.45513" lon="5.60796">
        <ele>1455.4</ele>
        <time>2023-03-20T11:18:12Z</time>
      </trkpt>
      <trkpt lat="44.45517" lon="5.60796">
        <ele>1455.3</ele>
        <time>2023-03-20T11:18:13Z</time>
      </trkpt>
      <trkpt lat="44.45521" lon="5.60794">
        <ele>1455.2</ele>
        <time>2023-03-20T11:18:14Z</time>
      </trkpt>
      <trkpt lat="44.45527" lon="5.60792">
        <ele>1455</ele>
        <time>2023-03-20T11:18:15Z</time>
      </trkpt>
      <trkpt lat="44.45532" lon="5.60788">
        <ele>1454.8</ele>
        <time>2023-03-20T11:18:16Z</time>
      </trkpt>
      <trkpt lat="44.45537" lon="5.60785">
        <ele>1454.7</ele>
        <time>2023-03-20T11:18:17Z</time>
      </trkpt>
      <trkpt lat="44.4554" lon="5.60783">
        <ele>1454.7</ele>
        <time>2023-03-20T11:18:18Z</time>
      </trkpt>
      <trkpt lat="44.45543" lon="5.60782">
        <ele>1454.6</ele>
        <time>2023-03-20T11:18:19Z</time>
      </trkpt>
      <trkpt lat="44.45546" lon="5.60783">
        <ele>1454.6</ele>
        <time>2023-03-20T11:18:20Z</time>
      </trkpt>
      <trkpt lat="44.4555" lon="5.60784">
        <ele>1454.6</ele>
        <time>2023-03-20T11:18:21Z</time>
      </trkpt>
      <trkpt lat="44.45553" lon="5.60784">
        <ele>1454.6</ele>
        <time>2023-03-20T11:18:22Z</time>
      </trkpt>
      <trkpt lat="44.45556" lon="5.60783">
        <ele>1454.6</ele>
        <time>2023-03-20T11:18:23Z</time>
      </trkpt>
      <trkpt lat="44.45559" lon="5.60781">
        <ele>1454.6</ele>
        <time>2023-03-20T11:18:24Z</time>
      </trkpt>
      <trkpt lat="44.45561" lon="5.6078">
        <ele>1454.6</ele>
        <time>2023-03-20T11:18:25Z</time>
      </trkpt>
      <trkpt lat="44.45563" lon="5.60779">
        <ele>1454.6</ele>
        <time>2023-03-20T11:18:26Z</time>
      </trkpt>
      <trkpt lat="44.45566" lon="5.60778">
        <ele>1454.6</ele>
        <time>2023-03-20T11:18:27Z</time>
      </trkpt>
      <trkpt lat="44.4557" lon="5.60778">
        <ele>1454.6</ele>
        <time>2023-03-20T11:18:28Z</time>
      </trkpt>
      <trkpt lat="44.45575" lon="5.60778">
        <ele>1454.5</ele>
        <time>2023-03-20T11:18:29Z</time>
      </trkpt>
      <trkpt lat="44.45579" lon="5.60779">
        <ele>1454.5</ele>
        <time>2023-03-20T11:18:30Z</time>
      </trkpt>
      <trkpt lat="44.45583" lon="5.6078">
        <ele>1454.5</ele>
        <time>2023-03-20T11:18:31Z</time>
      </trkpt>
      <trkpt lat="44.45587" lon="5.60781">
        <ele>1454.4</ele>
        <time>2023-03-20T11:18:32Z</time>
      </trkpt>
      <trkpt lat="44.4559" lon="5.6078">
        <ele>1454.4</ele>
        <time>2023-03-20T11:18:33Z</time>
      </trkpt>
      <trkpt lat="44.45592" lon="5.60775">
        <ele>1454.4</ele>
        <time>2023-03-20T11:18:34Z</time>
      </trkpt>
      <trkpt lat="44.45593" lon="5.60773">
        <ele>1454.5</ele>
        <time>2023-03-20T11:18:35Z</time>
      </trkpt>
      <trkpt lat="44.45595" lon="5.60767">
        <ele>1454.5</ele>
        <time>2023-03-20T11:18:36Z</time>
      </trkpt>
      <trkpt lat="44.45598" lon="5.60763">
        <ele>1454.5</ele>
        <time>2023-03-20T11:18:37Z</time>
      </trkpt>
      <trkpt lat="44.45601" lon="5.60761">
        <ele>1454.5</ele>
        <time>2023-03-20T11:18:38Z</time>
      </trkpt>
      <trkpt lat="44.45603" lon="5.60758">
        <ele>1454.5</ele>
        <time>2023-03-20T11:18:39Z</time>
      </trkpt>
      <trkpt lat="44.45606" lon="5.60756">
        <ele>1454.6</ele>
        <time>2023-03-20T11:18:40Z</time>
      </trkpt>
      <trkpt lat="44.45607" lon="5.60756">
        <ele>1454.6</ele>
        <time>2023-03-20T11:18:41Z</time>
      </trkpt>
      <trkpt lat="44.4561" lon="5.60755">
        <ele>1454.7</ele>
        <time>2023-03-20T11:18:42Z</time>
      </trkpt>
      <trkpt lat="44.45611" lon="5.60754">
        <ele>1454.7</ele>
        <time>2023-03-20T11:18:43Z</time>
      </trkpt>
      <trkpt lat="44.45613" lon="5.60753">
        <ele>1454.7</ele>
        <time>2023-03-20T11:18:44Z</time>
      </trkpt>
      <trkpt lat="44.45614" lon="5.60753">
        <ele>1454.8</ele>
        <time>2023-03-20T11:18:45Z</time>
      </trkpt>
      <trkpt lat="44.45617" lon="5.6075">
        <ele>1454.9</ele>
        <time>2023-03-20T11:18:46Z</time>
      </trkpt>
      <trkpt lat="44.45619" lon="5.60749">
        <ele>1454.9</ele>
        <time>2023-03-20T11:18:47Z</time>
      </trkpt>
      <trkpt lat="44.4562" lon="5.60749">
        <ele>1454.9</ele>
        <time>2023-03-20T11:18:48Z</time>
      </trkpt>
      <trkpt lat="44.4562" lon="5.60749">
        <ele>1454.9</ele>
        <time>2023-03-20T11:18:49Z</time>
      </trkpt>
      <trkpt lat="44.45619" lon="5.60749">
        <ele>1454.9</ele>
        <time>2023-03-20T11:18:50Z</time>
      </trkpt>
      <trkpt lat="44.4562" lon="5.60748">
        <ele>1455</ele>
        <time>2023-03-20T11:18:51Z</time>
      </trkpt>
      <trkpt lat="44.45621" lon="5.60747">
        <ele>1455</ele>
        <time>2023-03-20T11:18:52Z</time>
      </trkpt>
      <trkpt lat="44.45621" lon="5.60746">
        <ele>1455</ele>
        <time>2023-03-20T11:18:53Z</time>
      </trkpt>
      <trkpt lat="44.45621" lon="5.60742">
        <ele>1455.1</ele>
        <time>2023-03-20T11:18:54Z</time>
      </trkpt>
      <trkpt lat="44.45621" lon="5.6074">
        <ele>1455.1</ele>
        <time>2023-03-20T11:18:55Z</time>
      </trkpt>
      <trkpt lat="44.45622" lon="5.60737">
        <ele>1455.1</ele>
        <time>2023-03-20T11:18:56Z</time>
      </trkpt>
      <trkpt lat="44.45622" lon="5.60735">
        <ele>1455.2</ele>
        <time>2023-03-20T11:18:57Z</time>
      </trkpt>
      <trkpt lat="44.45623" lon="5.60734">
        <ele>1455.2</ele>
        <time>2023-03-20T11:18:58Z</time>
      </trkpt>
      <trkpt lat="44.45624" lon="5.60734">
        <ele>1455.2</ele>
        <time>2023-03-20T11:18:59Z</time>
      </trkpt>
      <trkpt lat="44.45624" lon="5.60734">
        <ele>1455.2</ele>
        <time>2023-03-20T11:19:00Z</time>
      </trkpt>
      <trkpt lat="44.45625" lon="5.60734">
        <ele>1455.2</ele>
        <time>2023-03-20T11:19:01Z</time>
      </trkpt>
      <trkpt lat="44.45625" lon="5.60734">
        <ele>1455.3</ele>
        <time>2023-03-20T11:19:02Z</time>
      </trkpt>
      <trkpt lat="44.45625" lon="5.60734">
        <ele>1455.3</ele>
        <time>2023-03-20T11:19:03Z</time>
      </trkpt>
      <trkpt lat="44.45626" lon="5.60734">
        <ele>1455.3</ele>
        <time>2023-03-20T11:19:04Z</time>
      </trkpt>
      <trkpt lat="44.45626" lon="5.60735">
        <ele>1455.3</ele>
        <time>2023-03-20T11:19:05Z</time>
      </trkpt>
      <trkpt lat="44.45627" lon="5.60735">
        <ele>1455.3</ele>
        <time>2023-03-20T11:19:06Z</time>
      </trkpt>
      <trkpt lat="44.45627" lon="5.60735">
        <ele>1455.3</ele>
        <time>2023-03-20T11:19:07Z</time>
      </trkpt>
      <trkpt lat="44.45628" lon="5.60735">
        <ele>1455.3</ele>
        <time>2023-03-20T11:19:08Z</time>
      </trkpt>
      <trkpt lat="44.45628" lon="5.60735">
        <ele>1455.3</ele>
        <time>2023-03-20T11:19:09Z</time>
      </trkpt>
      <trkpt lat="44.45628" lon="5.60735">
        <ele>1455.3</ele>
        <time>2023-03-20T11:19:10Z</time>
      </trkpt>
      <trkpt lat="44.45629" lon="5.60735">
        <ele>1455.3</ele>
        <time>2023-03-20T11:19:15Z</time>
      </trkpt>
      <trkpt lat="44.45629" lon="5.60735">
        <ele>1455.4</ele>
        <time>2023-03-20T11:19:16Z</time>
      </trkpt>
      <trkpt lat="44.4563" lon="5.60735">
        <ele>1455.4</ele>
        <time>2023-03-20T11:19:17Z</time>
      </trkpt>
      <trkpt lat="44.45632" lon="5.60736">
        <ele>1455.4</ele>
        <time>2023-03-20T11:19:18Z</time>
      </trkpt>
      <trkpt lat="44.45635" lon="5.60737">
        <ele>1455.5</ele>
        <time>2023-03-20T11:19:19Z</time>
      </trkpt>
      <trkpt lat="44.45638" lon="5.60736">
        <ele>1455.5</ele>
        <time>2023-03-20T11:19:20Z</time>
      </trkpt>
      <trkpt lat="44.45641" lon="5.60736">
        <ele>1455.6</ele>
        <time>2023-03-20T11:19:21Z</time>
      </trkpt>
      <trkpt lat="44.45644" lon="5.60736">
        <ele>1455.6</ele>
        <time>2023-03-20T11:19:22Z</time>
      </trkpt>
      <trkpt lat="44.45647" lon="5.60735">
        <ele>1455.7</ele>
        <time>2023-03-20T11:19:23Z</time>
      </trkpt>
      <trkpt lat="44.45648" lon="5.60734">
        <ele>1455.7</ele>
        <time>2023-03-20T11:19:24Z</time>
      </trkpt>
      <trkpt lat="44.45651" lon="5.60732">
        <ele>1455.8</ele>
        <time>2023-03-20T11:19:25Z</time>
      </trkpt>
      <trkpt lat="44.45652" lon="5.60731">
        <ele>1455.8</ele>
        <time>2023-03-20T11:19:26Z</time>
      </trkpt>
      <trkpt lat="44.45655" lon="5.60729">
        <ele>1455.8</ele>
        <time>2023-03-20T11:19:27Z</time>
      </trkpt>
      <trkpt lat="44.45655" lon="5.60728">
        <ele>1455.9</ele>
        <time>2023-03-20T11:19:28Z</time>
      </trkpt>
      <trkpt lat="44.45658" lon="5.60725">
        <ele>1455.9</ele>
        <time>2023-03-20T11:19:29Z</time>
      </trkpt>
      <trkpt lat="44.45658" lon="5.60724">
        <ele>1455.9</ele>
        <time>2023-03-20T11:19:30Z</time>
      </trkpt>
      <trkpt lat="44.45661" lon="5.6072">
        <ele>1456</ele>
        <time>2023-03-20T11:19:31Z</time>
      </trkpt>
      <trkpt lat="44.45662" lon="5.60719">
        <ele>1456</ele>
        <time>2023-03-20T11:19:32Z</time>
      </trkpt>
      <trkpt lat="44.45665" lon="5.60716">
        <ele>1456.1</ele>
        <time>2023-03-20T11:19:33Z</time>
      </trkpt>
      <trkpt lat="44.45666" lon="5.60715">
        <ele>1456.2</ele>
        <time>2023-03-20T11:19:34Z</time>
      </trkpt>
      <trkpt lat="44.45668" lon="5.60713">
        <ele>1456.3</ele>
        <time>2023-03-20T11:19:35Z</time>
      </trkpt>
      <trkpt lat="44.45671" lon="5.6071">
        <ele>1456.4</ele>
        <time>2023-03-20T11:19:36Z</time>
      </trkpt>
      <trkpt lat="44.45672" lon="5.60709">
        <ele>1456.5</ele>
        <time>2023-03-20T11:19:37Z</time>
      </trkpt>
      <trkpt lat="44.45673" lon="5.60707">
        <ele>1456.6</ele>
        <time>2023-03-20T11:19:38Z</time>
      </trkpt>
      <trkpt lat="44.45675" lon="5.60706">
        <ele>1456.6</ele>
        <time>2023-03-20T11:19:39Z</time>
      </trkpt>
      <trkpt lat="44.45676" lon="5.60706">
        <ele>1456.7</ele>
        <time>2023-03-20T11:19:40Z</time>
      </trkpt>
      <trkpt lat="44.45678" lon="5.60706">
        <ele>1456.7</ele>
        <time>2023-03-20T11:19:41Z</time>
      </trkpt>
      <trkpt lat="44.45678" lon="5.60705">
        <ele>1456.8</ele>
        <time>2023-03-20T11:19:42Z</time>
      </trkpt>
      <trkpt lat="44.45679" lon="5.60705">
        <ele>1456.8</ele>
        <time>2023-03-20T11:19:43Z</time>
      </trkpt>
      <trkpt lat="44.45679" lon="5.60705">
        <ele>1456.8</ele>
        <time>2023-03-20T11:19:44Z</time>
      </trkpt>
      <trkpt lat="44.45679" lon="5.60705">
        <ele>1456.8</ele>
        <time>2023-03-20T11:19:45Z</time>
      </trkpt>
      <trkpt lat="44.4568" lon="5.60704">
        <ele>1456.8</ele>
        <time>2023-03-20T11:19:46Z</time>
      </trkpt>
      <trkpt lat="44.45681" lon="5.60704">
        <ele>1456.9</ele>
        <time>2023-03-20T11:19:47Z</time>
      </trkpt>
      <trkpt lat="44.45681" lon="5.60704">
        <ele>1456.9</ele>
        <time>2023-03-20T11:19:48Z</time>
      </trkpt>
      <trkpt lat="44.45682" lon="5.60704">
        <ele>1456.9</ele>
        <time>2023-03-20T11:19:49Z</time>
      </trkpt>
      <trkpt lat="44.45682" lon="5.60703">
        <ele>1456.9</ele>
        <time>2023-03-20T11:19:50Z</time>
      </trkpt>
      <trkpt lat="44.45682" lon="5.60703">
        <ele>1456.9</ele>
        <time>2023-03-20T11:19:51Z</time>
      </trkpt>
      <trkpt lat="44.45682" lon="5.60703">
        <ele>1456.9</ele>
        <time>2023-03-20T11:19:52Z</time>
      </trkpt>
      <trkpt lat="44.45681" lon="5.60703">
        <ele>1456.9</ele>
        <time>2023-03-20T11:19:53Z</time>
      </trkpt>
      <trkpt lat="44.45681" lon="5.60703">
        <ele>1456.9</ele>
        <time>2023-03-20T11:19:54Z</time>
      </trkpt>
      <trkpt lat="44.45682" lon="5.60704">
        <ele>1456.9</ele>
        <time>2023-03-20T11:19:55Z</time>
      </trkpt>
      <trkpt lat="44.45682" lon="5.60704">
        <ele>1457</ele>
        <time>2023-03-20T11:19:56Z</time>
      </trkpt>
      <trkpt lat="44.45683" lon="5.60704">
        <ele>1457</ele>
        <time>2023-03-20T11:19:57Z</time>
      </trkpt>
      <trkpt lat="44.45683" lon="5.60703">
        <ele>1457</ele>
        <time>2023-03-20T11:19:58Z</time>
      </trkpt>
      <trkpt lat="44.45683" lon="5.60703">
        <ele>1457</ele>
        <time>2023-03-20T11:19:59Z</time>
      </trkpt>
      <trkpt lat="44.45683" lon="5.60703">
        <ele>1457</ele>
        <time>2023-03-20T11:20:00Z</time>
      </trkpt>
      <trkpt lat="44.45683" lon="5.60703">
        <ele>1457</ele>
        <time>2023-03-20T11:20:01Z</time>
      </trkpt>
      <trkpt lat="44.45683" lon="5.60703">
        <ele>1457</ele>
        <time>2023-03-20T11:20:02Z</time>
      </trkpt>
      <trkpt lat="44.45683" lon="5.60703">
        <ele>1457</ele>
        <time>2023-03-20T11:20:03Z</time>
      </trkpt>
      <trkpt lat="44.45683" lon="5.60703">
        <ele>1457</ele>
        <time>2023-03-20T11:20:04Z</time>
      </trkpt>
      <trkpt lat="44.45683" lon="5.60703">
        <ele>1457</ele>
        <time>2023-03-20T11:20:05Z</time>
      </trkpt>
      <trkpt lat="44.45683" lon="5.60703">
        <ele>1457</ele>
        <time>2023-03-20T11:20:06Z</time>
      </trkpt>
      <trkpt lat="44.45683" lon="5.60703">
        <ele>1457</ele>
        <time>2023-03-20T11:20:07Z</time>
      </trkpt>
      <trkpt lat="44.45683" lon="5.60703">
        <ele>1457</ele>
        <time>2023-03-20T11:20:08Z</time>
      </trkpt>
      <trkpt lat="44.45686" lon="5.60707">
        <ele>1457.1</ele>
        <time>2023-03-20T11:21:26Z</time>
      </trkpt>
      <trkpt lat="44.45687" lon="5.60707">
        <ele>1457.1</ele>
        <time>2023-03-20T11:21:27Z</time>
      </trkpt>
      <trkpt lat="44.45688" lon="5.60707">
        <ele>1457.3</ele>
        <time>2023-03-20T11:21:29Z</time>
      </trkpt>
      <trkpt lat="44.45689" lon="5.60706">
        <ele>1457.3</ele>
        <time>2023-03-20T11:21:30Z</time>
      </trkpt>
      <trkpt lat="44.45688" lon="5.60705">
        <ele>1457.3</ele>
        <time>2023-03-20T11:21:31Z</time>
      </trkpt>
      <trkpt lat="44.45688" lon="5.60704">
        <ele>1457.3</ele>
        <time>2023-03-20T11:21:32Z</time>
      </trkpt>
      <trkpt lat="44.45688" lon="5.60703">
        <ele>1457.3</ele>
        <time>2023-03-20T11:21:33Z</time>
      </trkpt>
      <trkpt lat="44.45687" lon="5.60702">
        <ele>1457.3</ele>
        <time>2023-03-20T11:21:34Z</time>
      </trkpt>
      <trkpt lat="44.45687" lon="5.60701">
        <ele>1457.3</ele>
        <time>2023-03-20T11:21:35Z</time>
      </trkpt>
      <trkpt lat="44.45687" lon="5.607">
        <ele>1457.3</ele>
        <time>2023-03-20T11:21:36Z</time>
      </trkpt>
      <trkpt lat="44.45686" lon="5.60699">
        <ele>1457.3</ele>
        <time>2023-03-20T11:21:37Z</time>
      </trkpt>
      <trkpt lat="44.45686" lon="5.60697">
        <ele>1457.3</ele>
        <time>2023-03-20T11:21:38Z</time>
      </trkpt>
      <trkpt lat="44.45685" lon="5.60695">
        <ele>1457.3</ele>
        <time>2023-03-20T11:21:39Z</time>
      </trkpt>
      <trkpt lat="44.45685" lon="5.60693">
        <ele>1456.2</ele>
        <time>2023-03-20T11:21:40Z</time>
      </trkpt>
      <trkpt lat="44.45685" lon="5.60689">
        <ele>1456</ele>
        <time>2023-03-20T11:21:41Z</time>
      </trkpt>
      <trkpt lat="44.45684" lon="5.60684">
        <ele>1455.9</ele>
        <time>2023-03-20T11:21:42Z</time>
      </trkpt>
      <trkpt lat="44.45684" lon="5.6068">
        <ele>1455.7</ele>
        <time>2023-03-20T11:21:43Z</time>
      </trkpt>
      <trkpt lat="44.45683" lon="5.60676">
        <ele>1455.5</ele>
        <time>2023-03-20T11:21:44Z</time>
      </trkpt>
      <trkpt lat="44.45681" lon="5.60672">
        <ele>1455.4</ele>
        <time>2023-03-20T11:21:45Z</time>
      </trkpt>
      <trkpt lat="44.4568" lon="5.60668">
        <ele>1455.3</ele>
        <time>2023-03-20T11:21:46Z</time>
      </trkpt>
      <trkpt lat="44.45678" lon="5.60664">
        <ele>1455.2</ele>
        <time>2023-03-20T11:21:47Z</time>
      </trkpt>
      <trkpt lat="44.45676" lon="5.6066">
        <ele>1455.1</ele>
        <time>2023-03-20T11:21:48Z</time>
      </trkpt>
      <trkpt lat="44.45674" lon="5.60656">
        <ele>1455</ele>
        <time>2023-03-20T11:21:49Z</time>
      </trkpt>
      <trkpt lat="44.45672" lon="5.60653">
        <ele>1455</ele>
        <time>2023-03-20T11:21:50Z</time>
      </trkpt>
      <trkpt lat="44.4567" lon="5.6065">
        <ele>1455</ele>
        <time>2023-03-20T11:21:51Z</time>
      </trkpt>
      <trkpt lat="44.45667" lon="5.60646">
        <ele>1455</ele>
        <time>2023-03-20T11:21:52Z</time>
      </trkpt>
      <trkpt lat="44.45665" lon="5.60642">
        <ele>1455</ele>
        <time>2023-03-20T11:21:53Z</time>
      </trkpt>
      <trkpt lat="44.45664" lon="5.60638">
        <ele>1455</ele>
        <time>2023-03-20T11:21:54Z</time>
      </trkpt>
      <trkpt lat="44.45663" lon="5.60634">
        <ele>1455</ele>
        <time>2023-03-20T11:21:55Z</time>
      </trkpt>
      <trkpt lat="44.45662" lon="5.6063">
        <ele>1455</ele>
        <time>2023-03-20T11:21:56Z</time>
      </trkpt>
      <trkpt lat="44.45661" lon="5.60626">
        <ele>1455.1</ele>
        <time>2023-03-20T11:21:57Z</time>
      </trkpt>
      <trkpt lat="44.4566" lon="5.60622">
        <ele>1455.1</ele>
        <time>2023-03-20T11:21:58Z</time>
      </trkpt>
      <trkpt lat="44.45659" lon="5.60617">
        <ele>1455.2</ele>
        <time>2023-03-20T11:21:59Z</time>
      </trkpt>
      <trkpt lat="44.45658" lon="5.60615">
        <ele>1455.2</ele>
        <time>2023-03-20T11:22:00Z</time>
      </trkpt>
      <trkpt lat="44.45657" lon="5.60611">
        <ele>1455.3</ele>
        <time>2023-03-20T11:22:01Z</time>
      </trkpt>
      <trkpt lat="44.45657" lon="5.60607">
        <ele>1455.3</ele>
        <time>2023-03-20T11:22:02Z</time>
      </trkpt>
      <trkpt lat="44.45656" lon="5.60602">
        <ele>1455.4</ele>
        <time>2023-03-20T11:22:03Z</time>
      </trkpt>
      <trkpt lat="44.45656" lon="5.606">
        <ele>1455.4</ele>
        <time>2023-03-20T11:22:04Z</time>
      </trkpt>
      <trkpt lat="44.45655" lon="5.60596">
        <ele>1455.5</ele>
        <time>2023-03-20T11:22:05Z</time>
      </trkpt>
      <trkpt lat="44.45654" lon="5.60592">
        <ele>1455.6</ele>
        <time>2023-03-20T11:22:06Z</time>
      </trkpt>
      <trkpt lat="44.45653" lon="5.60588">
        <ele>1455.6</ele>
        <time>2023-03-20T11:22:07Z</time>
      </trkpt>
      <trkpt lat="44.45652" lon="5.60584">
        <ele>1455.7</ele>
        <time>2023-03-20T11:22:08Z</time>
      </trkpt>
      <trkpt lat="44.45651" lon="5.6058">
        <ele>1455.8</ele>
        <time>2023-03-20T11:22:09Z</time>
      </trkpt>
      <trkpt lat="44.45651" lon="5.60575">
        <ele>1455.8</ele>
        <time>2023-03-20T11:22:10Z</time>
      </trkpt>
      <trkpt lat="44.4565" lon="5.60571">
        <ele>1455.9</ele>
        <time>2023-03-20T11:22:11Z</time>
      </trkpt>
      <trkpt lat="44.4565" lon="5.60567">
        <ele>1455.9</ele>
        <time>2023-03-20T11:22:12Z</time>
      </trkpt>
      <trkpt lat="44.45651" lon="5.60562">
        <ele>1455.9</ele>
        <time>2023-03-20T11:22:13Z</time>
      </trkpt>
      <trkpt lat="44.45651" lon="5.60557">
        <ele>1455.9</ele>
        <time>2023-03-20T11:22:14Z</time>
      </trkpt>
      <trkpt lat="44.45651" lon="5.60553">
        <ele>1455.9</ele>
        <time>2023-03-20T11:22:15Z</time>
      </trkpt>
      <trkpt lat="44.45651" lon="5.60548">
        <ele>1455.9</ele>
        <time>2023-03-20T11:22:16Z</time>
      </trkpt>
      <trkpt lat="44.45651" lon="5.60544">
        <ele>1455.8</ele>
        <time>2023-03-20T11:22:17Z</time>
      </trkpt>
      <trkpt lat="44.4565" lon="5.6054">
        <ele>1455.8</ele>
        <time>2023-03-20T11:22:18Z</time>
      </trkpt>
      <trkpt lat="44.45651" lon="5.60536">
        <ele>1455.7</ele>
        <time>2023-03-20T11:22:19Z</time>
      </trkpt>
      <trkpt lat="44.45651" lon="5.60531">
        <ele>1455.6</ele>
        <time>2023-03-20T11:22:20Z</time>
      </trkpt>
      <trkpt lat="44.45651" lon="5.60527">
        <ele>1455.5</ele>
        <time>2023-03-20T11:22:21Z</time>
      </trkpt>
      <trkpt lat="44.45652" lon="5.60522">
        <ele>1455.4</ele>
        <time>2023-03-20T11:22:22Z</time>
      </trkpt>
      <trkpt lat="44.45653" lon="5.60516">
        <ele>1455.2</ele>
        <time>2023-03-20T11:22:23Z</time>
      </trkpt>
      <trkpt lat="44.45655" lon="5.60511">
        <ele>1455</ele>
        <time>2023-03-20T11:22:24Z</time>
      </trkpt>
      <trkpt lat="44.45657" lon="5.60507">
        <ele>1454.8</ele>
        <time>2023-03-20T11:22:25Z</time>
      </trkpt>
      <trkpt lat="44.45659" lon="5.60503">
        <ele>1454.5</ele>
        <time>2023-03-20T11:22:26Z</time>
      </trkpt>
      <trkpt lat="44.45661" lon="5.60499">
        <ele>1454.3</ele>
        <time>2023-03-20T11:22:27Z</time>
      </trkpt>
      <trkpt lat="44.45664" lon="5.60494">
        <ele>1454</ele>
        <time>2023-03-20T11:22:28Z</time>
      </trkpt>
      <trkpt lat="44.45666" lon="5.6049">
        <ele>1453.7</ele>
        <time>2023-03-20T11:22:29Z</time>
      </trkpt>
      <trkpt lat="44.45669" lon="5.60485">
        <ele>1453.4</ele>
        <time>2023-03-20T11:22:30Z</time>
      </trkpt>
      <trkpt lat="44.45671" lon="5.6048">
        <ele>1453.1</ele>
        <time>2023-03-20T11:22:31Z</time>
      </trkpt>
      <trkpt lat="44.45673" lon="5.60474">
        <ele>1452.7</ele>
        <time>2023-03-20T11:22:32Z</time>
      </trkpt>
      <trkpt lat="44.45676" lon="5.60469">
        <ele>1452.5</ele>
        <time>2023-03-20T11:22:33Z</time>
      </trkpt>
      <trkpt lat="44.45679" lon="5.60466">
        <ele>1452.3</ele>
        <time>2023-03-20T11:22:34Z</time>
      </trkpt>
      <trkpt lat="44.45682" lon="5.60464">
        <ele>1452.1</ele>
        <time>2023-03-20T11:22:35Z</time>
      </trkpt>
      <trkpt lat="44.45685" lon="5.60462">
        <ele>1452</ele>
        <time>2023-03-20T11:22:36Z</time>
      </trkpt>
      <trkpt lat="44.45687" lon="5.60458">
        <ele>1451.9</ele>
        <time>2023-03-20T11:22:37Z</time>
      </trkpt>
      <trkpt lat="44.4569" lon="5.60454">
        <ele>1451.8</ele>
        <time>2023-03-20T11:22:38Z</time>
      </trkpt>
      <trkpt lat="44.45692" lon="5.60448">
        <ele>1451.8</ele>
        <time>2023-03-20T11:22:39Z</time>
      </trkpt>
      <trkpt lat="44.45695" lon="5.60444">
        <ele>1451.7</ele>
        <time>2023-03-20T11:22:40Z</time>
      </trkpt>
      <trkpt lat="44.45699" lon="5.6044">
        <ele>1451.8</ele>
        <time>2023-03-20T11:22:41Z</time>
      </trkpt>
      <trkpt lat="44.45702" lon="5.60436">
        <ele>1451.8</ele>
        <time>2023-03-20T11:22:42Z</time>
      </trkpt>
      <trkpt lat="44.45705" lon="5.60433">
        <ele>1451.9</ele>
        <time>2023-03-20T11:22:43Z</time>
      </trkpt>
      <trkpt lat="44.45708" lon="5.6043">
        <ele>1451.9</ele>
        <time>2023-03-20T11:22:44Z</time>
      </trkpt>
      <trkpt lat="44.4571" lon="5.60428">
        <ele>1452</ele>
        <time>2023-03-20T11:22:45Z</time>
      </trkpt>
      <trkpt lat="44.45714" lon="5.60426">
        <ele>1452</ele>
        <time>2023-03-20T11:22:46Z</time>
      </trkpt>
      <trkpt lat="44.45714" lon="5.60425">
        <ele>1452.1</ele>
        <time>2023-03-20T11:22:47Z</time>
      </trkpt>
      <trkpt lat="44.45717" lon="5.60423">
        <ele>1452.1</ele>
        <time>2023-03-20T11:22:48Z</time>
      </trkpt>
      <trkpt lat="44.45718" lon="5.60422">
        <ele>1452.2</ele>
        <time>2023-03-20T11:22:49Z</time>
      </trkpt>
      <trkpt lat="44.45721" lon="5.6042">
        <ele>1452.2</ele>
        <time>2023-03-20T11:22:50Z</time>
      </trkpt>
      <trkpt lat="44.45723" lon="5.60419">
        <ele>1452.3</ele>
        <time>2023-03-20T11:22:51Z</time>
      </trkpt>
      <trkpt lat="44.45726" lon="5.60418">
        <ele>1452.4</ele>
        <time>2023-03-20T11:22:52Z</time>
      </trkpt>
      <trkpt lat="44.45729" lon="5.60417">
        <ele>1452.4</ele>
        <time>2023-03-20T11:22:53Z</time>
      </trkpt>
      <trkpt lat="44.45732" lon="5.60415">
        <ele>1452.5</ele>
        <time>2023-03-20T11:22:54Z</time>
      </trkpt>
      <trkpt lat="44.45734" lon="5.60412">
        <ele>1452.6</ele>
        <time>2023-03-20T11:22:55Z</time>
      </trkpt>
      <trkpt lat="44.45736" lon="5.60408">
        <ele>1452.8</ele>
        <time>2023-03-20T11:22:56Z</time>
      </trkpt>
      <trkpt lat="44.45737" lon="5.60407">
        <ele>1452.8</ele>
        <time>2023-03-20T11:22:57Z</time>
      </trkpt>
      <trkpt lat="44.45739" lon="5.60407">
        <ele>1452.8</ele>
        <time>2023-03-20T11:22:58Z</time>
      </trkpt>
      <trkpt lat="44.4574" lon="5.60407">
        <ele>1452.9</ele>
        <time>2023-03-20T11:22:59Z</time>
      </trkpt>
      <trkpt lat="44.4574" lon="5.60407">
        <ele>1452.9</ele>
        <time>2023-03-20T11:23:00Z</time>
      </trkpt>
      <trkpt lat="44.4574" lon="5.60407">
        <ele>1452.9</ele>
        <time>2023-03-20T11:23:01Z</time>
      </trkpt>
      <trkpt lat="44.4574" lon="5.60407">
        <ele>1452.9</ele>
        <time>2023-03-20T11:23:02Z</time>
      </trkpt>
      <trkpt lat="44.4574" lon="5.60406">
        <ele>1453</ele>
        <time>2023-03-20T11:23:03Z</time>
      </trkpt>
      <trkpt lat="44.45741" lon="5.60405">
        <ele>1453.1</ele>
        <time>2023-03-20T11:23:04Z</time>
      </trkpt>
      <trkpt lat="44.45743" lon="5.60404">
        <ele>1453.1</ele>
        <time>2023-03-20T11:23:05Z</time>
      </trkpt>
      <trkpt lat="44.45746" lon="5.60405">
        <ele>1453.4</ele>
        <time>2023-03-20T11:23:06Z</time>
      </trkpt>
      <trkpt lat="44.45747" lon="5.60405">
        <ele>1453.5</ele>
        <time>2023-03-20T11:23:07Z</time>
      </trkpt>
      <trkpt lat="44.4575" lon="5.60404">
        <ele>1453.7</ele>
        <time>2023-03-20T11:23:08Z</time>
      </trkpt>
      <trkpt lat="44.45751" lon="5.60403">
        <ele>1453.8</ele>
        <time>2023-03-20T11:23:09Z</time>
      </trkpt>
      <trkpt lat="44.45754" lon="5.60399">
        <ele>1454.2</ele>
        <time>2023-03-20T11:23:10Z</time>
      </trkpt>
      <trkpt lat="44.45755" lon="5.60398">
        <ele>1454.3</ele>
        <time>2023-03-20T11:23:11Z</time>
      </trkpt>
      <trkpt lat="44.45758" lon="5.60394">
        <ele>1454.5</ele>
        <time>2023-03-20T11:23:12Z</time>
      </trkpt>
      <trkpt lat="44.45758" lon="5.60393">
        <ele>1454.6</ele>
        <time>2023-03-20T11:23:13Z</time>
      </trkpt>
      <trkpt lat="44.4576" lon="5.60391">
        <ele>1454.7</ele>
        <time>2023-03-20T11:23:14Z</time>
      </trkpt>
      <trkpt lat="44.45762" lon="5.60387">
        <ele>1454.8</ele>
        <time>2023-03-20T11:23:15Z</time>
      </trkpt>
      <trkpt lat="44.45764" lon="5.60384">
        <ele>1454.9</ele>
        <time>2023-03-20T11:23:16Z</time>
      </trkpt>
      <trkpt lat="44.45766" lon="5.6038">
        <ele>1455</ele>
        <time>2023-03-20T11:23:17Z</time>
      </trkpt>
      <trkpt lat="44.45768" lon="5.60377">
        <ele>1455</ele>
        <time>2023-03-20T11:23:18Z</time>
      </trkpt>
      <trkpt lat="44.45771" lon="5.60372">
        <ele>1455</ele>
        <time>2023-03-20T11:23:19Z</time>
      </trkpt>
      <trkpt lat="44.45774" lon="5.60368">
        <ele>1455</ele>
        <time>2023-03-20T11:23:20Z</time>
      </trkpt>
      <trkpt lat="44.45776" lon="5.60363">
        <ele>1455</ele>
        <time>2023-03-20T11:23:21Z</time>
      </trkpt>
      <trkpt lat="44.45779" lon="5.60359">
        <ele>1455.1</ele>
        <time>2023-03-20T11:23:22Z</time>
      </trkpt>
      <trkpt lat="44.45781" lon="5.60355">
        <ele>1455.2</ele>
        <time>2023-03-20T11:23:23Z</time>
      </trkpt>
      <trkpt lat="44.45783" lon="5.6035">
        <ele>1455.3</ele>
        <time>2023-03-20T11:23:24Z</time>
      </trkpt>
      <trkpt lat="44.45785" lon="5.60346">
        <ele>1455.4</ele>
        <time>2023-03-20T11:23:25Z</time>
      </trkpt>
      <trkpt lat="44.45787" lon="5.60341">
        <ele>1455.4</ele>
        <time>2023-03-20T11:23:26Z</time>
      </trkpt>
      <trkpt lat="44.4579" lon="5.60337">
        <ele>1455.4</ele>
        <time>2023-03-20T11:23:27Z</time>
      </trkpt>
      <trkpt lat="44.45792" lon="5.60332">
        <ele>1455.5</ele>
        <time>2023-03-20T11:23:28Z</time>
      </trkpt>
      <trkpt lat="44.45793" lon="5.60328">
        <ele>1455.5</ele>
        <time>2023-03-20T11:23:29Z</time>
      </trkpt>
      <trkpt lat="44.45796" lon="5.60324">
        <ele>1455.5</ele>
        <time>2023-03-20T11:23:30Z</time>
      </trkpt>
      <trkpt lat="44.45798" lon="5.60319">
        <ele>1455.5</ele>
        <time>2023-03-20T11:23:31Z</time>
      </trkpt>
      <trkpt lat="44.45801" lon="5.60315">
        <ele>1455.5</ele>
        <time>2023-03-20T11:23:32Z</time>
      </trkpt>
      <trkpt lat="44.45804" lon="5.60311">
        <ele>1455.4</ele>
        <time>2023-03-20T11:23:33Z</time>
      </trkpt>
      <trkpt lat="44.45806" lon="5.60306">
        <ele>1455.4</ele>
        <time>2023-03-20T11:23:34Z</time>
      </trkpt>
      <trkpt lat="44.45808" lon="5.60301">
        <ele>1455.5</ele>
        <time>2023-03-20T11:23:35Z</time>
      </trkpt>
      <trkpt lat="44.4581" lon="5.60297">
        <ele>1455.5</ele>
        <time>2023-03-20T11:23:36Z</time>
      </trkpt>
      <trkpt lat="44.45813" lon="5.60293">
        <ele>1455.5</ele>
        <time>2023-03-20T11:23:37Z</time>
      </trkpt>
      <trkpt lat="44.45815" lon="5.60289">
        <ele>1455.6</ele>
        <time>2023-03-20T11:23:38Z</time>
      </trkpt>
      <trkpt lat="44.45817" lon="5.60286">
        <ele>1455.7</ele>
        <time>2023-03-20T11:23:39Z</time>
      </trkpt>
      <trkpt lat="44.45819" lon="5.60283">
        <ele>1455.8</ele>
        <time>2023-03-20T11:23:40Z</time>
      </trkpt>
      <trkpt lat="44.4582" lon="5.60279">
        <ele>1455.9</ele>
        <time>2023-03-20T11:23:41Z</time>
      </trkpt>
      <trkpt lat="44.45822" lon="5.60275">
        <ele>1456</ele>
        <time>2023-03-20T11:23:42Z</time>
      </trkpt>
      <trkpt lat="44.45825" lon="5.60272">
        <ele>1456.1</ele>
        <time>2023-03-20T11:23:43Z</time>
      </trkpt>
      <trkpt lat="44.45827" lon="5.60269">
        <ele>1456.1</ele>
        <time>2023-03-20T11:23:44Z</time>
      </trkpt>
      <trkpt lat="44.45829" lon="5.60266">
        <ele>1456.1</ele>
        <time>2023-03-20T11:23:45Z</time>
      </trkpt>
      <trkpt lat="44.45829" lon="5.60265">
        <ele>1456</ele>
        <time>2023-03-20T11:23:46Z</time>
      </trkpt>
      <trkpt lat="44.45831" lon="5.60262">
        <ele>1456</ele>
        <time>2023-03-20T11:23:47Z</time>
      </trkpt>
      <trkpt lat="44.45834" lon="5.60259">
        <ele>1456</ele>
        <time>2023-03-20T11:23:48Z</time>
      </trkpt>
      <trkpt lat="44.45836" lon="5.60256">
        <ele>1455.9</ele>
        <time>2023-03-20T11:23:49Z</time>
      </trkpt>
      <trkpt lat="44.45836" lon="5.60255">
        <ele>1455.9</ele>
        <time>2023-03-20T11:23:50Z</time>
      </trkpt>
      <trkpt lat="44.45839" lon="5.60253">
        <ele>1455.9</ele>
        <time>2023-03-20T11:23:51Z</time>
      </trkpt>
      <trkpt lat="44.4584" lon="5.60253">
        <ele>1455.9</ele>
        <time>2023-03-20T11:23:52Z</time>
      </trkpt>
      <trkpt lat="44.45842" lon="5.60253">
        <ele>1456</ele>
        <time>2023-03-20T11:23:53Z</time>
      </trkpt>
      <trkpt lat="44.45843" lon="5.60253">
        <ele>1456</ele>
        <time>2023-03-20T11:23:54Z</time>
      </trkpt>
      <trkpt lat="44.45843" lon="5.60253">
        <ele>1456</ele>
        <time>2023-03-20T11:23:55Z</time>
      </trkpt>
      <trkpt lat="44.45843" lon="5.60253">
        <ele>1456</ele>
        <time>2023-03-20T11:23:56Z</time>
      </trkpt>
      <trkpt lat="44.45843" lon="5.60253">
        <ele>1456</ele>
        <time>2023-03-20T11:23:57Z</time>
      </trkpt>
      <trkpt lat="44.45843" lon="5.60253">
        <ele>1456</ele>
        <time>2023-03-20T11:23:58Z</time>
      </trkpt>
      <trkpt lat="44.45843" lon="5.60253">
        <ele>1456</ele>
        <time>2023-03-20T11:23:59Z</time>
      </trkpt>
      <trkpt lat="44.45843" lon="5.60253">
        <ele>1456</ele>
        <time>2023-03-20T11:24:00Z</time>
      </trkpt>
      <trkpt lat="44.45843" lon="5.60253">
        <ele>1456</ele>
        <time>2023-03-20T11:24:01Z</time>
      </trkpt>
      <trkpt lat="44.45843" lon="5.60253">
        <ele>1456</ele>
        <time>2023-03-20T11:24:02Z</time>
      </trkpt>
      <trkpt lat="44.45843" lon="5.60253">
        <ele>1456</ele>
        <time>2023-03-20T11:24:03Z</time>
      </trkpt>
      <trkpt lat="44.45845" lon="5.60252">
        <ele>1456</ele>
        <time>2023-03-20T11:24:04Z</time>
      </trkpt>
      <trkpt lat="44.45846" lon="5.60252">
        <ele>1456.1</ele>
        <time>2023-03-20T11:24:05Z</time>
      </trkpt>
      <trkpt lat="44.45848" lon="5.60252">
        <ele>1456.2</ele>
        <time>2023-03-20T11:24:06Z</time>
      </trkpt>
      <trkpt lat="44.45849" lon="5.6025">
        <ele>1456.2</ele>
        <time>2023-03-20T11:24:07Z</time>
      </trkpt>
      <trkpt lat="44.45849" lon="5.60246">
        <ele>1456.3</ele>
        <time>2023-03-20T11:24:08Z</time>
      </trkpt>
      <trkpt lat="44.45849" lon="5.60244">
        <ele>1456.4</ele>
        <time>2023-03-20T11:24:09Z</time>
      </trkpt>
      <trkpt lat="44.45849" lon="5.6024">
        <ele>1456.4</ele>
        <time>2023-03-20T11:24:10Z</time>
      </trkpt>
      <trkpt lat="44.4585" lon="5.60235">
        <ele>1456.5</ele>
        <time>2023-03-20T11:24:11Z</time>
      </trkpt>
      <trkpt lat="44.4585" lon="5.60233">
        <ele>1456.5</ele>
        <time>2023-03-20T11:24:12Z</time>
      </trkpt>
      <trkpt lat="44.45852" lon="5.60229">
        <ele>1456.6</ele>
        <time>2023-03-20T11:24:13Z</time>
      </trkpt>
      <trkpt lat="44.45852" lon="5.60227">
        <ele>1456.6</ele>
        <time>2023-03-20T11:24:14Z</time>
      </trkpt>
      <trkpt lat="44.45853" lon="5.60223">
        <ele>1456.6</ele>
        <time>2023-03-20T11:24:15Z</time>
      </trkpt>
      <trkpt lat="44.45854" lon="5.60218">
        <ele>1456.6</ele>
        <time>2023-03-20T11:24:16Z</time>
      </trkpt>
      <trkpt lat="44.45854" lon="5.60217">
        <ele>1456.6</ele>
        <time>2023-03-20T11:24:17Z</time>
      </trkpt>
      <trkpt lat="44.45855" lon="5.60212">
        <ele>1456.6</ele>
        <time>2023-03-20T11:24:18Z</time>
      </trkpt>
      <trkpt lat="44.45856" lon="5.6021">
        <ele>1456.6</ele>
        <time>2023-03-20T11:24:19Z</time>
      </trkpt>
      <trkpt lat="44.45857" lon="5.60207">
        <ele>1456.6</ele>
        <time>2023-03-20T11:24:20Z</time>
      </trkpt>
      <trkpt lat="44.4586" lon="5.602">
        <ele>1456.6</ele>
        <time>2023-03-20T11:24:22Z</time>
      </trkpt>
      <trkpt lat="44.45862" lon="5.60196">
        <ele>1456.6</ele>
        <time>2023-03-20T11:24:23Z</time>
      </trkpt>
      <trkpt lat="44.45864" lon="5.60192">
        <ele>1456.6</ele>
        <time>2023-03-20T11:24:24Z</time>
      </trkpt>
      <trkpt lat="44.45867" lon="5.60187">
        <ele>1456.6</ele>
        <time>2023-03-20T11:24:25Z</time>
      </trkpt>
      <trkpt lat="44.45869" lon="5.60183">
        <ele>1456.7</ele>
        <time>2023-03-20T11:24:26Z</time>
      </trkpt>
      <trkpt lat="44.45871" lon="5.60179">
        <ele>1456.7</ele>
        <time>2023-03-20T11:24:27Z</time>
      </trkpt>
      <trkpt lat="44.45874" lon="5.60174">
        <ele>1456.8</ele>
        <time>2023-03-20T11:24:28Z</time>
      </trkpt>
      <trkpt lat="44.45876" lon="5.6017">
        <ele>1456.9</ele>
        <time>2023-03-20T11:24:29Z</time>
      </trkpt>
      <trkpt lat="44.45878" lon="5.60166">
        <ele>1456.9</ele>
        <time>2023-03-20T11:24:30Z</time>
      </trkpt>
      <trkpt lat="44.4588" lon="5.60161">
        <ele>1457</ele>
        <time>2023-03-20T11:24:31Z</time>
      </trkpt>
      <trkpt lat="44.45882" lon="5.60157">
        <ele>1457</ele>
        <time>2023-03-20T11:24:32Z</time>
      </trkpt>
      <trkpt lat="44.45885" lon="5.60153">
        <ele>1457</ele>
        <time>2023-03-20T11:24:33Z</time>
      </trkpt>
      <trkpt lat="44.45887" lon="5.60149">
        <ele>1457</ele>
        <time>2023-03-20T11:24:34Z</time>
      </trkpt>
      <trkpt lat="44.45889" lon="5.60145">
        <ele>1456.9</ele>
        <time>2023-03-20T11:24:35Z</time>
      </trkpt>
      <trkpt lat="44.45892" lon="5.60141">
        <ele>1456.9</ele>
        <time>2023-03-20T11:24:36Z</time>
      </trkpt>
      <trkpt lat="44.45894" lon="5.60137">
        <ele>1457</ele>
        <time>2023-03-20T11:24:37Z</time>
      </trkpt>
      <trkpt lat="44.45896" lon="5.60133">
        <ele>1457</ele>
        <time>2023-03-20T11:24:38Z</time>
      </trkpt>
      <trkpt lat="44.45898" lon="5.60129">
        <ele>1457</ele>
        <time>2023-03-20T11:24:39Z</time>
      </trkpt>
      <trkpt lat="44.45898" lon="5.60125">
        <ele>1457</ele>
        <time>2023-03-20T11:24:40Z</time>
      </trkpt>
      <trkpt lat="44.45898" lon="5.6012">
        <ele>1457</ele>
        <time>2023-03-20T11:24:41Z</time>
      </trkpt>
      <trkpt lat="44.45898" lon="5.60118">
        <ele>1457</ele>
        <time>2023-03-20T11:24:42Z</time>
      </trkpt>
      <trkpt lat="44.45898" lon="5.60114">
        <ele>1457</ele>
        <time>2023-03-20T11:24:43Z</time>
      </trkpt>
      <trkpt lat="44.45897" lon="5.60109">
        <ele>1457</ele>
        <time>2023-03-20T11:24:44Z</time>
      </trkpt>
      <trkpt lat="44.45898" lon="5.60104">
        <ele>1457</ele>
        <time>2023-03-20T11:24:45Z</time>
      </trkpt>
      <trkpt lat="44.45898" lon="5.601">
        <ele>1457</ele>
        <time>2023-03-20T11:24:46Z</time>
      </trkpt>
      <trkpt lat="44.45898" lon="5.60096">
        <ele>1457</ele>
        <time>2023-03-20T11:24:47Z</time>
      </trkpt>
      <trkpt lat="44.45898" lon="5.60092">
        <ele>1457</ele>
        <time>2023-03-20T11:24:48Z</time>
      </trkpt>
      <trkpt lat="44.45899" lon="5.60086">
        <ele>1457.1</ele>
        <time>2023-03-20T11:24:49Z</time>
      </trkpt>
      <trkpt lat="44.45899" lon="5.60084">
        <ele>1457.1</ele>
        <time>2023-03-20T11:24:50Z</time>
      </trkpt>
      <trkpt lat="44.459" lon="5.60079">
        <ele>1457.1</ele>
        <time>2023-03-20T11:24:51Z</time>
      </trkpt>
      <trkpt lat="44.459" lon="5.60077">
        <ele>1457.1</ele>
        <time>2023-03-20T11:24:52Z</time>
      </trkpt>
      <trkpt lat="44.45901" lon="5.60073">
        <ele>1457.1</ele>
        <time>2023-03-20T11:24:53Z</time>
      </trkpt>
      <trkpt lat="44.45901" lon="5.60068">
        <ele>1457</ele>
        <time>2023-03-20T11:24:54Z</time>
      </trkpt>
      <trkpt lat="44.45902" lon="5.60064">
        <ele>1457</ele>
        <time>2023-03-20T11:24:55Z</time>
      </trkpt>
      <trkpt lat="44.45904" lon="5.60059">
        <ele>1456.9</ele>
        <time>2023-03-20T11:24:56Z</time>
      </trkpt>
      <trkpt lat="44.45905" lon="5.60054">
        <ele>1457</ele>
        <time>2023-03-20T11:24:57Z</time>
      </trkpt>
      <trkpt lat="44.45907" lon="5.60049">
        <ele>1457.1</ele>
        <time>2023-03-20T11:24:58Z</time>
      </trkpt>
      <trkpt lat="44.45908" lon="5.60044">
        <ele>1457.3</ele>
        <time>2023-03-20T11:24:59Z</time>
      </trkpt>
      <trkpt lat="44.45909" lon="5.6004">
        <ele>1457.5</ele>
        <time>2023-03-20T11:25:00Z</time>
      </trkpt>
      <trkpt lat="44.45911" lon="5.60036">
        <ele>1457.7</ele>
        <time>2023-03-20T11:25:01Z</time>
      </trkpt>
      <trkpt lat="44.45912" lon="5.60032">
        <ele>1457.9</ele>
        <time>2023-03-20T11:25:02Z</time>
      </trkpt>
      <trkpt lat="44.45914" lon="5.60028">
        <ele>1458.1</ele>
        <time>2023-03-20T11:25:03Z</time>
      </trkpt>
      <trkpt lat="44.45916" lon="5.60025">
        <ele>1458.3</ele>
        <time>2023-03-20T11:25:04Z</time>
      </trkpt>
      <trkpt lat="44.45917" lon="5.60021">
        <ele>1458.4</ele>
        <time>2023-03-20T11:25:05Z</time>
      </trkpt>
      <trkpt lat="44.45919" lon="5.60018">
        <ele>1458.5</ele>
        <time>2023-03-20T11:25:06Z</time>
      </trkpt>
      <trkpt lat="44.4592" lon="5.60014">
        <ele>1458.6</ele>
        <time>2023-03-20T11:25:07Z</time>
      </trkpt>
      <trkpt lat="44.45922" lon="5.60011">
        <ele>1458.7</ele>
        <time>2023-03-20T11:25:08Z</time>
      </trkpt>
      <trkpt lat="44.45924" lon="5.60008">
        <ele>1458.7</ele>
        <time>2023-03-20T11:25:09Z</time>
      </trkpt>
      <trkpt lat="44.45926" lon="5.60005">
        <ele>1458.7</ele>
        <time>2023-03-20T11:25:10Z</time>
      </trkpt>
      <trkpt lat="44.45928" lon="5.6">
        <ele>1458.7</ele>
        <time>2023-03-20T11:25:11Z</time>
      </trkpt>
      <trkpt lat="44.4593" lon="5.59995">
        <ele>1458.8</ele>
        <time>2023-03-20T11:25:12Z</time>
      </trkpt>
      <trkpt lat="44.45933" lon="5.5999">
        <ele>1458.8</ele>
        <time>2023-03-20T11:25:13Z</time>
      </trkpt>
      <trkpt lat="44.45935" lon="5.59985">
        <ele>1458.8</ele>
        <time>2023-03-20T11:25:14Z</time>
      </trkpt>
      <trkpt lat="44.45938" lon="5.5998">
        <ele>1458.8</ele>
        <time>2023-03-20T11:25:15Z</time>
      </trkpt>
      <trkpt lat="44.45939" lon="5.59975">
        <ele>1458.8</ele>
        <time>2023-03-20T11:25:16Z</time>
      </trkpt>
      <trkpt lat="44.45941" lon="5.59971">
        <ele>1458.8</ele>
        <time>2023-03-20T11:25:17Z</time>
      </trkpt>
      <trkpt lat="44.45942" lon="5.59967">
        <ele>1458.8</ele>
        <time>2023-03-20T11:25:18Z</time>
      </trkpt>
      <trkpt lat="44.45944" lon="5.59964">
        <ele>1458.8</ele>
        <time>2023-03-20T11:25:19Z</time>
      </trkpt>
      <trkpt lat="44.45945" lon="5.59959">
        <ele>1458.8</ele>
        <time>2023-03-20T11:25:20Z</time>
      </trkpt>
      <trkpt lat="44.45946" lon="5.59958">
        <ele>1458.8</ele>
        <time>2023-03-20T11:25:21Z</time>
      </trkpt>
      <trkpt lat="44.45947" lon="5.59956">
        <ele>1458.8</ele>
        <time>2023-03-20T11:25:22Z</time>
      </trkpt>
      <trkpt lat="44.45948" lon="5.59954">
        <ele>1458.8</ele>
        <time>2023-03-20T11:25:23Z</time>
      </trkpt>
      <trkpt lat="44.4595" lon="5.59952">
        <ele>1458.9</ele>
        <time>2023-03-20T11:25:24Z</time>
      </trkpt>
      <trkpt lat="44.45951" lon="5.59951">
        <ele>1458.9</ele>
        <time>2023-03-20T11:25:25Z</time>
      </trkpt>
      <trkpt lat="44.45952" lon="5.59948">
        <ele>1459</ele>
        <time>2023-03-20T11:25:26Z</time>
      </trkpt>
      <trkpt lat="44.45951" lon="5.59946">
        <ele>1459</ele>
        <time>2023-03-20T11:25:27Z</time>
      </trkpt>
      <trkpt lat="44.45951" lon="5.59944">
        <ele>1459.1</ele>
        <time>2023-03-20T11:25:28Z</time>
      </trkpt>
      <trkpt lat="44.45951" lon="5.59939">
        <ele>1459.1</ele>
        <time>2023-03-20T11:25:29Z</time>
      </trkpt>
      <trkpt lat="44.45951" lon="5.59937">
        <ele>1459.1</ele>
        <time>2023-03-20T11:25:30Z</time>
      </trkpt>
      <trkpt lat="44.45952" lon="5.59933">
        <ele>1459.2</ele>
        <time>2023-03-20T11:25:31Z</time>
      </trkpt>
      <trkpt lat="44.45952" lon="5.59932">
        <ele>1459.2</ele>
        <time>2023-03-20T11:25:32Z</time>
      </trkpt>
      <trkpt lat="44.45952" lon="5.59928">
        <ele>1459.2</ele>
        <time>2023-03-20T11:25:33Z</time>
      </trkpt>
      <trkpt lat="44.45953" lon="5.59926">
        <ele>1459.2</ele>
        <time>2023-03-20T11:25:34Z</time>
      </trkpt>
      <trkpt lat="44.45953" lon="5.59922">
        <ele>1459.3</ele>
        <time>2023-03-20T11:25:35Z</time>
      </trkpt>
      <trkpt lat="44.45954" lon="5.5992">
        <ele>1459.3</ele>
        <time>2023-03-20T11:25:36Z</time>
      </trkpt>
      <trkpt lat="44.45954" lon="5.59919">
        <ele>1459.3</ele>
        <time>2023-03-20T11:25:37Z</time>
      </trkpt>
      <trkpt lat="44.45955" lon="5.59918">
        <ele>1459.4</ele>
        <time>2023-03-20T11:25:38Z</time>
      </trkpt>
      <trkpt lat="44.45955" lon="5.59915">
        <ele>1459.4</ele>
        <time>2023-03-20T11:25:39Z</time>
      </trkpt>
      <trkpt lat="44.45956" lon="5.59913">
        <ele>1459.4</ele>
        <time>2023-03-20T11:25:40Z</time>
      </trkpt>
      <trkpt lat="44.45956" lon="5.59912">
        <ele>1459.5</ele>
        <time>2023-03-20T11:25:41Z</time>
      </trkpt>
      <trkpt lat="44.45957" lon="5.59908">
        <ele>1459.5</ele>
        <time>2023-03-20T11:25:42Z</time>
      </trkpt>
      <trkpt lat="44.45957" lon="5.59907">
        <ele>1459.6</ele>
        <time>2023-03-20T11:25:43Z</time>
      </trkpt>
      <trkpt lat="44.45958" lon="5.59903">
        <ele>1459.6</ele>
        <time>2023-03-20T11:25:44Z</time>
      </trkpt>
      <trkpt lat="44.45958" lon="5.59901">
        <ele>1459.7</ele>
        <time>2023-03-20T11:25:45Z</time>
      </trkpt>
      <trkpt lat="44.4596" lon="5.59898">
        <ele>1459.7</ele>
        <time>2023-03-20T11:25:46Z</time>
      </trkpt>
      <trkpt lat="44.45961" lon="5.59893">
        <ele>1459.8</ele>
        <time>2023-03-20T11:25:47Z</time>
      </trkpt>
      <trkpt lat="44.45962" lon="5.59892">
        <ele>1459.8</ele>
        <time>2023-03-20T11:25:48Z</time>
      </trkpt>
      <trkpt lat="44.45963" lon="5.59887">
        <ele>1459.8</ele>
        <time>2023-03-20T11:25:49Z</time>
      </trkpt>
      <trkpt lat="44.45964" lon="5.59886">
        <ele>1459.8</ele>
        <time>2023-03-20T11:25:50Z</time>
      </trkpt>
      <trkpt lat="44.45965" lon="5.59881">
        <ele>1459.8</ele>
        <time>2023-03-20T11:25:51Z</time>
      </trkpt>
      <trkpt lat="44.45966" lon="5.59879">
        <ele>1459.8</ele>
        <time>2023-03-20T11:25:52Z</time>
      </trkpt>
      <trkpt lat="44.45967" lon="5.59874">
        <ele>1459.8</ele>
        <time>2023-03-20T11:25:53Z</time>
      </trkpt>
      <trkpt lat="44.45967" lon="5.59872">
        <ele>1459.8</ele>
        <time>2023-03-20T11:25:54Z</time>
      </trkpt>
      <trkpt lat="44.45968" lon="5.59868">
        <ele>1459.8</ele>
        <time>2023-03-20T11:25:55Z</time>
      </trkpt>
      <trkpt lat="44.45968" lon="5.59864">
        <ele>1459.8</ele>
        <time>2023-03-20T11:25:56Z</time>
      </trkpt>
      <trkpt lat="44.45969" lon="5.59859">
        <ele>1459.8</ele>
        <time>2023-03-20T11:25:57Z</time>
      </trkpt>
      <trkpt lat="44.45969" lon="5.59858">
        <ele>1459.8</ele>
        <time>2023-03-20T11:25:58Z</time>
      </trkpt>
      <trkpt lat="44.45969" lon="5.59855">
        <ele>1459.8</ele>
        <time>2023-03-20T11:25:59Z</time>
      </trkpt>
      <trkpt lat="44.45969" lon="5.59854">
        <ele>1459.8</ele>
        <time>2023-03-20T11:26:00Z</time>
      </trkpt>
      <trkpt lat="44.45969" lon="5.59853">
        <ele>1459.8</ele>
        <time>2023-03-20T11:26:01Z</time>
      </trkpt>
      <trkpt lat="44.45969" lon="5.59851">
        <ele>1459.8</ele>
        <time>2023-03-20T11:26:02Z</time>
      </trkpt>
      <trkpt lat="44.45969" lon="5.5985">
        <ele>1459.8</ele>
        <time>2023-03-20T11:26:03Z</time>
      </trkpt>
      <trkpt lat="44.45969" lon="5.59849">
        <ele>1459.8</ele>
        <time>2023-03-20T11:26:04Z</time>
      </trkpt>
      <trkpt lat="44.45969" lon="5.59849">
        <ele>1459.8</ele>
        <time>2023-03-20T11:26:05Z</time>
      </trkpt>
      <trkpt lat="44.45969" lon="5.59849">
        <ele>1459.8</ele>
        <time>2023-03-20T11:26:06Z</time>
      </trkpt>
      <trkpt lat="44.45969" lon="5.59849">
        <ele>1459.8</ele>
        <time>2023-03-20T11:26:07Z</time>
      </trkpt>
      <trkpt lat="44.45969" lon="5.59849">
        <ele>1459.8</ele>
        <time>2023-03-20T11:26:08Z</time>
      </trkpt>
      <trkpt lat="44.45969" lon="5.59849">
        <ele>1459.8</ele>
        <time>2023-03-20T11:26:09Z</time>
      </trkpt>
      <trkpt lat="44.45969" lon="5.59849">
        <ele>1459.8</ele>
        <time>2023-03-20T11:26:10Z</time>
      </trkpt>
      <trkpt lat="44.45969" lon="5.59849">
        <ele>1459.8</ele>
        <time>2023-03-20T11:26:11Z</time>
      </trkpt>
      <trkpt lat="44.45969" lon="5.59849">
        <ele>1459.8</ele>
        <time>2023-03-20T11:26:12Z</time>
      </trkpt>
      <trkpt lat="44.45969" lon="5.59849">
        <ele>1459.8</ele>
        <time>2023-03-20T11:26:13Z</time>
      </trkpt>
      <trkpt lat="44.4597" lon="5.59848">
        <ele>1459.9</ele>
        <time>2023-03-20T11:26:14Z</time>
      </trkpt>
      <trkpt lat="44.4597" lon="5.59847">
        <ele>1459.9</ele>
        <time>2023-03-20T11:26:15Z</time>
      </trkpt>
      <trkpt lat="44.4597" lon="5.59845">
        <ele>1459.9</ele>
        <time>2023-03-20T11:26:16Z</time>
      </trkpt>
      <trkpt lat="44.45971" lon="5.59844">
        <ele>1459.9</ele>
        <time>2023-03-20T11:26:17Z</time>
      </trkpt>
      <trkpt lat="44.45971" lon="5.59844">
        <ele>1459.9</ele>
        <time>2023-03-20T11:26:18Z</time>
      </trkpt>
      <trkpt lat="44.45971" lon="5.59844">
        <ele>1459.9</ele>
        <time>2023-03-20T11:26:19Z</time>
      </trkpt>
      <trkpt lat="44.45971" lon="5.59844">
        <ele>1459.9</ele>
        <time>2023-03-20T11:26:20Z</time>
      </trkpt>
      <trkpt lat="44.45971" lon="5.59843">
        <ele>1459.9</ele>
        <time>2023-03-20T11:26:21Z</time>
      </trkpt>
      <trkpt lat="44.45972" lon="5.59841">
        <ele>1459.9</ele>
        <time>2023-03-20T11:26:22Z</time>
      </trkpt>
      <trkpt lat="44.45972" lon="5.59839">
        <ele>1459.9</ele>
        <time>2023-03-20T11:26:23Z</time>
      </trkpt>
      <trkpt lat="44.45973" lon="5.59838">
        <ele>1459.9</ele>
        <time>2023-03-20T11:26:24Z</time>
      </trkpt>
      <trkpt lat="44.45973" lon="5.59836">
        <ele>1459.9</ele>
        <time>2023-03-20T11:26:25Z</time>
      </trkpt>
      <trkpt lat="44.45975" lon="5.59833">
        <ele>1459.9</ele>
        <time>2023-03-20T11:26:26Z</time>
      </trkpt>
      <trkpt lat="44.45976" lon="5.59832">
        <ele>1459.9</ele>
        <time>2023-03-20T11:26:27Z</time>
      </trkpt>
      <trkpt lat="44.45979" lon="5.59828">
        <ele>1459.9</ele>
        <time>2023-03-20T11:26:28Z</time>
      </trkpt>
      <trkpt lat="44.45981" lon="5.59825">
        <ele>1459.9</ele>
        <time>2023-03-20T11:26:29Z</time>
      </trkpt>
      <trkpt lat="44.45983" lon="5.59821">
        <ele>1459.9</ele>
        <time>2023-03-20T11:26:30Z</time>
      </trkpt>
      <trkpt lat="44.45984" lon="5.59818">
        <ele>1459.9</ele>
        <time>2023-03-20T11:26:31Z</time>
      </trkpt>
      <trkpt lat="44.45985" lon="5.59815">
        <ele>1460</ele>
        <time>2023-03-20T11:26:32Z</time>
      </trkpt>
      <trkpt lat="44.45987" lon="5.5981">
        <ele>1460.1</ele>
        <time>2023-03-20T11:26:33Z</time>
      </trkpt>
      <trkpt lat="44.45988" lon="5.59808">
        <ele>1460.1</ele>
        <time>2023-03-20T11:26:34Z</time>
      </trkpt>
      <trkpt lat="44.4599" lon="5.59804">
        <ele>1460.2</ele>
        <time>2023-03-20T11:26:35Z</time>
      </trkpt>
      <trkpt lat="44.45992" lon="5.598">
        <ele>1460.3</ele>
        <time>2023-03-20T11:26:36Z</time>
      </trkpt>
      <trkpt lat="44.45994" lon="5.59797">
        <ele>1460.4</ele>
        <time>2023-03-20T11:26:37Z</time>
      </trkpt>
      <trkpt lat="44.45996" lon="5.59793">
        <ele>1460.5</ele>
        <time>2023-03-20T11:26:38Z</time>
      </trkpt>
      <trkpt lat="44.45998" lon="5.59789">
        <ele>1460.6</ele>
        <time>2023-03-20T11:26:39Z</time>
      </trkpt>
      <trkpt lat="44.46" lon="5.59786">
        <ele>1460.6</ele>
        <time>2023-03-20T11:26:40Z</time>
      </trkpt>
      <trkpt lat="44.46002" lon="5.59783">
        <ele>1460.5</ele>
        <time>2023-03-20T11:26:41Z</time>
      </trkpt>
      <trkpt lat="44.46004" lon="5.5978">
        <ele>1460.4</ele>
        <time>2023-03-20T11:26:42Z</time>
      </trkpt>
      <trkpt lat="44.46006" lon="5.59778">
        <ele>1460.3</ele>
        <time>2023-03-20T11:26:43Z</time>
      </trkpt>
      <trkpt lat="44.4601" lon="5.59776">
        <ele>1460</ele>
        <time>2023-03-20T11:26:44Z</time>
      </trkpt>
      <trkpt lat="44.46012" lon="5.59776">
        <ele>1459.9</ele>
        <time>2023-03-20T11:26:45Z</time>
      </trkpt>
      <trkpt lat="44.46014" lon="5.59775">
        <ele>1459.7</ele>
        <time>2023-03-20T11:26:46Z</time>
      </trkpt>
      <trkpt lat="44.46017" lon="5.59775">
        <ele>1459.4</ele>
        <time>2023-03-20T11:26:47Z</time>
      </trkpt>
      <trkpt lat="44.4602" lon="5.59776">
        <ele>1459.2</ele>
        <time>2023-03-20T11:26:48Z</time>
      </trkpt>
      <trkpt lat="44.46024" lon="5.59776">
        <ele>1458.9</ele>
        <time>2023-03-20T11:26:49Z</time>
      </trkpt>
      <trkpt lat="44.46027" lon="5.59776">
        <ele>1458.7</ele>
        <time>2023-03-20T11:26:50Z</time>
      </trkpt>
      <trkpt lat="44.46031" lon="5.59777">
        <ele>1458.4</ele>
        <time>2023-03-20T11:26:51Z</time>
      </trkpt>
      <trkpt lat="44.46032" lon="5.59777">
        <ele>1458.3</ele>
        <time>2023-03-20T11:26:52Z</time>
      </trkpt>
      <trkpt lat="44.46035" lon="5.59779">
        <ele>1458.1</ele>
        <time>2023-03-20T11:26:53Z</time>
      </trkpt>
      <trkpt lat="44.46038" lon="5.59778">
        <ele>1457.8</ele>
        <time>2023-03-20T11:26:54Z</time>
      </trkpt>
      <trkpt lat="44.46039" lon="5.59777">
        <ele>1457.7</ele>
        <time>2023-03-20T11:26:55Z</time>
      </trkpt>
      <trkpt lat="44.46041" lon="5.59772">
        <ele>1457.2</ele>
        <time>2023-03-20T11:26:56Z</time>
      </trkpt>
      <trkpt lat="44.46041" lon="5.5977">
        <ele>1456.9</ele>
        <time>2023-03-20T11:26:57Z</time>
      </trkpt>
      <trkpt lat="44.46042" lon="5.59765">
        <ele>1456.4</ele>
        <time>2023-03-20T11:26:58Z</time>
      </trkpt>
      <trkpt lat="44.46043" lon="5.59761">
        <ele>1455.8</ele>
        <time>2023-03-20T11:26:59Z</time>
      </trkpt>
      <trkpt lat="44.46045" lon="5.59758">
        <ele>1455.5</ele>
        <time>2023-03-20T11:27:00Z</time>
      </trkpt>
      <trkpt lat="44.46046" lon="5.59757">
        <ele>1455.4</ele>
        <time>2023-03-20T11:27:01Z</time>
      </trkpt>
      <trkpt lat="44.46051" lon="5.59756">
        <ele>1455.3</ele>
        <time>2023-03-20T11:27:03Z</time>
      </trkpt>
      <trkpt lat="44.46052" lon="5.59756">
        <ele>1455.4</ele>
        <time>2023-03-20T11:27:04Z</time>
      </trkpt>
      <trkpt lat="44.46052" lon="5.59756">
        <ele>1455.4</ele>
        <time>2023-03-20T11:27:05Z</time>
      </trkpt>
      <trkpt lat="44.46052" lon="5.59756">
        <ele>1455.4</ele>
        <time>2023-03-20T11:27:06Z</time>
      </trkpt>
      <trkpt lat="44.46052" lon="5.59756">
        <ele>1455.4</ele>
        <time>2023-03-20T11:27:07Z</time>
      </trkpt>
      <trkpt lat="44.46052" lon="5.59756">
        <ele>1455.4</ele>
        <time>2023-03-20T11:27:08Z</time>
      </trkpt>
      <trkpt lat="44.46052" lon="5.59756">
        <ele>1455.4</ele>
        <time>2023-03-20T11:27:09Z</time>
      </trkpt>
      <trkpt lat="44.46052" lon="5.59756">
        <ele>1455.4</ele>
        <time>2023-03-20T11:27:10Z</time>
      </trkpt>
      <trkpt lat="44.46052" lon="5.59756">
        <ele>1455.4</ele>
        <time>2023-03-20T11:27:11Z</time>
      </trkpt>
      <trkpt lat="44.46052" lon="5.59756">
        <ele>1455.4</ele>
        <time>2023-03-20T11:27:12Z</time>
      </trkpt>
      <trkpt lat="44.46052" lon="5.59756">
        <ele>1455.4</ele>
        <time>2023-03-20T11:27:13Z</time>
      </trkpt>
      <trkpt lat="44.46052" lon="5.59756">
        <ele>1455.4</ele>
        <time>2023-03-20T11:27:14Z</time>
      </trkpt>
      <trkpt lat="44.46052" lon="5.59756">
        <ele>1455.4</ele>
        <time>2023-03-20T11:27:15Z</time>
      </trkpt>
      <trkpt lat="44.4605" lon="5.59763">
        <ele>1456</ele>
        <time>2023-03-20T11:27:26Z</time>
      </trkpt>
      <trkpt lat="44.4605" lon="5.59764">
        <ele>1456.1</ele>
        <time>2023-03-20T11:27:27Z</time>
      </trkpt>
      <trkpt lat="44.46049" lon="5.59765">
        <ele>1456.2</ele>
        <time>2023-03-20T11:27:28Z</time>
      </trkpt>
      <trkpt lat="44.46049" lon="5.59765">
        <ele>1456.3</ele>
        <time>2023-03-20T11:27:29Z</time>
      </trkpt>
      <trkpt lat="44.46049" lon="5.59766">
        <ele>1456.3</ele>
        <time>2023-03-20T11:27:30Z</time>
      </trkpt>
      <trkpt lat="44.46049" lon="5.59766">
        <ele>1456.3</ele>
        <time>2023-03-20T11:27:31Z</time>
      </trkpt>
      <trkpt lat="44.46049" lon="5.59766">
        <ele>1456.3</ele>
        <time>2023-03-20T11:27:32Z</time>
      </trkpt>
      <trkpt lat="44.4605" lon="5.59766">
        <ele>1456.4</ele>
        <time>2023-03-20T11:27:33Z</time>
      </trkpt>
      <trkpt lat="44.4605" lon="5.59766">
        <ele>1456.4</ele>
        <time>2023-03-20T11:27:34Z</time>
      </trkpt>
      <trkpt lat="44.4605" lon="5.59766">
        <ele>1456.4</ele>
        <time>2023-03-20T11:27:35Z</time>
      </trkpt>
      <trkpt lat="44.4605" lon="5.59766">
        <ele>1456.5</ele>
        <time>2023-03-20T11:27:36Z</time>
      </trkpt>
      <trkpt lat="44.46051" lon="5.59766">
        <ele>1456.5</ele>
        <time>2023-03-20T11:27:37Z</time>
      </trkpt>
      <trkpt lat="44.4605" lon="5.59766">
        <ele>1456.5</ele>
        <time>2023-03-20T11:27:38Z</time>
      </trkpt>
      <trkpt lat="44.4605" lon="5.59766">
        <ele>1456.5</ele>
        <time>2023-03-20T11:27:39Z</time>
      </trkpt>
      <trkpt lat="44.46051" lon="5.59766">
        <ele>1456.5</ele>
        <time>2023-03-20T11:27:40Z</time>
      </trkpt>
      <trkpt lat="44.46051" lon="5.59766">
        <ele>1456.6</ele>
        <time>2023-03-20T11:27:41Z</time>
      </trkpt>
      <trkpt lat="44.46052" lon="5.59764">
        <ele>1456.8</ele>
        <time>2023-03-20T11:27:42Z</time>
      </trkpt>
      <trkpt lat="44.46053" lon="5.59762">
        <ele>1457</ele>
        <time>2023-03-20T11:27:43Z</time>
      </trkpt>
      <trkpt lat="44.46056" lon="5.59758">
        <ele>1457.4</ele>
        <time>2023-03-20T11:27:44Z</time>
      </trkpt>
      <trkpt lat="44.46057" lon="5.59758">
        <ele>1457.6</ele>
        <time>2023-03-20T11:27:45Z</time>
      </trkpt>
      <trkpt lat="44.46058" lon="5.59757">
        <ele>1457.7</ele>
        <time>2023-03-20T11:27:46Z</time>
      </trkpt>
      <trkpt lat="44.46058" lon="5.59757">
        <ele>1457.7</ele>
        <time>2023-03-20T11:27:47Z</time>
      </trkpt>
      <trkpt lat="44.46059" lon="5.59757">
        <ele>1457.9</ele>
        <time>2023-03-20T11:27:48Z</time>
      </trkpt>
      <trkpt lat="44.4606" lon="5.59757">
        <ele>1458</ele>
        <time>2023-03-20T11:27:49Z</time>
      </trkpt>
      <trkpt lat="44.4606" lon="5.59757">
        <ele>1458</ele>
        <time>2023-03-20T11:27:50Z</time>
      </trkpt>
      <trkpt lat="44.4606" lon="5.59756">
        <ele>1458</ele>
        <time>2023-03-20T11:27:51Z</time>
      </trkpt>
      <trkpt lat="44.4606" lon="5.59756">
        <ele>1458</ele>
        <time>2023-03-20T11:27:52Z</time>
      </trkpt>
      <trkpt lat="44.4606" lon="5.59756">
        <ele>1458</ele>
        <time>2023-03-20T11:27:53Z</time>
      </trkpt>
      <trkpt lat="44.4606" lon="5.59756">
        <ele>1458</ele>
        <time>2023-03-20T11:27:54Z</time>
      </trkpt>
      <trkpt lat="44.4606" lon="5.59756">
        <ele>1458</ele>
        <time>2023-03-20T11:27:55Z</time>
      </trkpt>
      <trkpt lat="44.4606" lon="5.59756">
        <ele>1458</ele>
        <time>2023-03-20T11:27:56Z</time>
      </trkpt>
      <trkpt lat="44.4606" lon="5.59756">
        <ele>1458</ele>
        <time>2023-03-20T11:27:57Z</time>
      </trkpt>
      <trkpt lat="44.4606" lon="5.59756">
        <ele>1458</ele>
        <time>2023-03-20T11:27:58Z</time>
      </trkpt>
      <trkpt lat="44.4606" lon="5.59755">
        <ele>1458.1</ele>
        <time>2023-03-20T11:27:59Z</time>
      </trkpt>
      <trkpt lat="44.4606" lon="5.59754">
        <ele>1458.2</ele>
        <time>2023-03-20T11:28:00Z</time>
      </trkpt>
      <trkpt lat="44.4606" lon="5.59752">
        <ele>1458.4</ele>
        <time>2023-03-20T11:28:01Z</time>
      </trkpt>
      <trkpt lat="44.4606" lon="5.5975">
        <ele>1458.6</ele>
        <time>2023-03-20T11:28:02Z</time>
      </trkpt>
      <trkpt lat="44.4606" lon="5.59748">
        <ele>1458.7</ele>
        <time>2023-03-20T11:28:03Z</time>
      </trkpt>
      <trkpt lat="44.46061" lon="5.59746">
        <ele>1458.9</ele>
        <time>2023-03-20T11:28:04Z</time>
      </trkpt>
      <trkpt lat="44.46061" lon="5.59745">
        <ele>1459</ele>
        <time>2023-03-20T11:28:05Z</time>
      </trkpt>
      <trkpt lat="44.46061" lon="5.59744">
        <ele>1459.1</ele>
        <time>2023-03-20T11:28:06Z</time>
      </trkpt>
      <trkpt lat="44.46062" lon="5.59743">
        <ele>1459.2</ele>
        <time>2023-03-20T11:28:07Z</time>
      </trkpt>
      <trkpt lat="44.46064" lon="5.59738">
        <ele>1459.6</ele>
        <time>2023-03-20T11:28:08Z</time>
      </trkpt>
      <trkpt lat="44.46064" lon="5.59736">
        <ele>1459.7</ele>
        <time>2023-03-20T11:28:09Z</time>
      </trkpt>
      <trkpt lat="44.46066" lon="5.59731">
        <ele>1459.9</ele>
        <time>2023-03-20T11:28:10Z</time>
      </trkpt>
      <trkpt lat="44.46066" lon="5.59729">
        <ele>1459.9</ele>
        <time>2023-03-20T11:28:11Z</time>
      </trkpt>
      <trkpt lat="44.46068" lon="5.59725">
        <ele>1459.9</ele>
        <time>2023-03-20T11:28:12Z</time>
      </trkpt>
      <trkpt lat="44.46069" lon="5.59721">
        <ele>1459.9</ele>
        <time>2023-03-20T11:28:13Z</time>
      </trkpt>
      <trkpt lat="44.46071" lon="5.59717">
        <ele>1459.8</ele>
        <time>2023-03-20T11:28:14Z</time>
      </trkpt>
      <trkpt lat="44.46072" lon="5.59713">
        <ele>1459.8</ele>
        <time>2023-03-20T11:28:15Z</time>
      </trkpt>
      <trkpt lat="44.46074" lon="5.5971">
        <ele>1459.8</ele>
        <time>2023-03-20T11:28:16Z</time>
      </trkpt>
      <trkpt lat="44.46077" lon="5.59706">
        <ele>1459.8</ele>
        <time>2023-03-20T11:28:17Z</time>
      </trkpt>
      <trkpt lat="44.4608" lon="5.59704">
        <ele>1459.9</ele>
        <time>2023-03-20T11:28:18Z</time>
      </trkpt>
      <trkpt lat="44.46082" lon="5.59701">
        <ele>1459.9</ele>
        <time>2023-03-20T11:28:19Z</time>
      </trkpt>
      <trkpt lat="44.46084" lon="5.59696">
        <ele>1460</ele>
        <time>2023-03-20T11:28:20Z</time>
      </trkpt>
      <trkpt lat="44.46084" lon="5.59694">
        <ele>1460</ele>
        <time>2023-03-20T11:28:21Z</time>
      </trkpt>
      <trkpt lat="44.46086" lon="5.59689">
        <ele>1460.1</ele>
        <time>2023-03-20T11:28:22Z</time>
      </trkpt>
      <trkpt lat="44.46086" lon="5.59688">
        <ele>1460.2</ele>
        <time>2023-03-20T11:28:23Z</time>
      </trkpt>
      <trkpt lat="44.46088" lon="5.59684">
        <ele>1460.3</ele>
        <time>2023-03-20T11:28:24Z</time>
      </trkpt>
      <trkpt lat="44.4609" lon="5.59681">
        <ele>1460.4</ele>
        <time>2023-03-20T11:28:25Z</time>
      </trkpt>
      <trkpt lat="44.46094" lon="5.59674">
        <ele>1460.7</ele>
        <time>2023-03-20T11:28:27Z</time>
      </trkpt>
      <trkpt lat="44.46096" lon="5.59672">
        <ele>1460.8</ele>
        <time>2023-03-20T11:28:28Z</time>
      </trkpt>
      <trkpt lat="44.46099" lon="5.59668">
        <ele>1460.9</ele>
        <time>2023-03-20T11:28:29Z</time>
      </trkpt>
      <trkpt lat="44.461" lon="5.59667">
        <ele>1460.9</ele>
        <time>2023-03-20T11:28:30Z</time>
      </trkpt>
      <trkpt lat="44.46102" lon="5.59663">
        <ele>1461</ele>
        <time>2023-03-20T11:28:31Z</time>
      </trkpt>
      <trkpt lat="44.46103" lon="5.59661">
        <ele>1461</ele>
        <time>2023-03-20T11:28:32Z</time>
      </trkpt>
      <trkpt lat="44.46107" lon="5.59658">
        <ele>1461</ele>
        <time>2023-03-20T11:28:33Z</time>
      </trkpt>
      <trkpt lat="44.46108" lon="5.59658">
        <ele>1461</ele>
        <time>2023-03-20T11:28:34Z</time>
      </trkpt>
      <trkpt lat="44.46111" lon="5.59656">
        <ele>1461</ele>
        <time>2023-03-20T11:28:35Z</time>
      </trkpt>
      <trkpt lat="44.46114" lon="5.59655">
        <ele>1461</ele>
        <time>2023-03-20T11:28:36Z</time>
      </trkpt>
      <trkpt lat="44.46117" lon="5.59653">
        <ele>1460.9</ele>
        <time>2023-03-20T11:28:37Z</time>
      </trkpt>
      <trkpt lat="44.46118" lon="5.59652">
        <ele>1460.9</ele>
        <time>2023-03-20T11:28:38Z</time>
      </trkpt>
      <trkpt lat="44.46121" lon="5.5965">
        <ele>1460.9</ele>
        <time>2023-03-20T11:28:39Z</time>
      </trkpt>
      <trkpt lat="44.46122" lon="5.59649">
        <ele>1460.9</ele>
        <time>2023-03-20T11:28:40Z</time>
      </trkpt>
      <trkpt lat="44.46124" lon="5.59645">
        <ele>1460.9</ele>
        <time>2023-03-20T11:28:41Z</time>
      </trkpt>
      <trkpt lat="44.46124" lon="5.59641">
        <ele>1460.9</ele>
        <time>2023-03-20T11:28:42Z</time>
      </trkpt>
      <trkpt lat="44.46124" lon="5.59637">
        <ele>1460.9</ele>
        <time>2023-03-20T11:28:43Z</time>
      </trkpt>
      <trkpt lat="44.46124" lon="5.59628">
        <ele>1461</ele>
        <time>2023-03-20T11:28:45Z</time>
      </trkpt>
      <trkpt lat="44.46123" lon="5.59624">
        <ele>1461</ele>
        <time>2023-03-20T11:28:46Z</time>
      </trkpt>
      <trkpt lat="44.46124" lon="5.5962">
        <ele>1461</ele>
        <time>2023-03-20T11:28:47Z</time>
      </trkpt>
      <trkpt lat="44.46124" lon="5.59616">
        <ele>1461</ele>
        <time>2023-03-20T11:28:48Z</time>
      </trkpt>
      <trkpt lat="44.46124" lon="5.59611">
        <ele>1461</ele>
        <time>2023-03-20T11:28:49Z</time>
      </trkpt>
      <trkpt lat="44.46125" lon="5.5961">
        <ele>1461</ele>
        <time>2023-03-20T11:28:50Z</time>
      </trkpt>
      <trkpt lat="44.46126" lon="5.59604">
        <ele>1461</ele>
        <time>2023-03-20T11:28:51Z</time>
      </trkpt>
      <trkpt lat="44.46126" lon="5.59602">
        <ele>1461</ele>
        <time>2023-03-20T11:28:52Z</time>
      </trkpt>
      <trkpt lat="44.46127" lon="5.59598">
        <ele>1460.9</ele>
        <time>2023-03-20T11:28:53Z</time>
      </trkpt>
      <trkpt lat="44.46128" lon="5.59593">
        <ele>1460.8</ele>
        <time>2023-03-20T11:28:54Z</time>
      </trkpt>
      <trkpt lat="44.46129" lon="5.59589">
        <ele>1460.8</ele>
        <time>2023-03-20T11:28:55Z</time>
      </trkpt>
      <trkpt lat="44.4613" lon="5.59584">
        <ele>1460.7</ele>
        <time>2023-03-20T11:28:56Z</time>
      </trkpt>
      <trkpt lat="44.4613" lon="5.5958">
        <ele>1460.7</ele>
        <time>2023-03-20T11:28:57Z</time>
      </trkpt>
      <trkpt lat="44.46131" lon="5.59575">
        <ele>1460.6</ele>
        <time>2023-03-20T11:28:58Z</time>
      </trkpt>
      <trkpt lat="44.46132" lon="5.59569">
        <ele>1460.6</ele>
        <time>2023-03-20T11:28:59Z</time>
      </trkpt>
      <trkpt lat="44.46133" lon="5.59564">
        <ele>1460.6</ele>
        <time>2023-03-20T11:29:00Z</time>
      </trkpt>
      <trkpt lat="44.46134" lon="5.5956">
        <ele>1460.6</ele>
        <time>2023-03-20T11:29:01Z</time>
      </trkpt>
      <trkpt lat="44.46136" lon="5.59557">
        <ele>1460.6</ele>
        <time>2023-03-20T11:29:02Z</time>
      </trkpt>
      <trkpt lat="44.46138" lon="5.59552">
        <ele>1460.6</ele>
        <time>2023-03-20T11:29:03Z</time>
      </trkpt>
      <trkpt lat="44.46139" lon="5.59548">
        <ele>1460.6</ele>
        <time>2023-03-20T11:29:04Z</time>
      </trkpt>
      <trkpt lat="44.4614" lon="5.59544">
        <ele>1460.6</ele>
        <time>2023-03-20T11:29:05Z</time>
      </trkpt>
      <trkpt lat="44.46141" lon="5.5954">
        <ele>1460.7</ele>
        <time>2023-03-20T11:29:06Z</time>
      </trkpt>
      <trkpt lat="44.46141" lon="5.59538">
        <ele>1460.7</ele>
        <time>2023-03-20T11:29:07Z</time>
      </trkpt>
      <trkpt lat="44.46143" lon="5.59534">
        <ele>1460.7</ele>
        <time>2023-03-20T11:29:08Z</time>
      </trkpt>
      <trkpt lat="44.46143" lon="5.59533">
        <ele>1460.7</ele>
        <time>2023-03-20T11:29:09Z</time>
      </trkpt>
      <trkpt lat="44.46145" lon="5.59528">
        <ele>1460.8</ele>
        <time>2023-03-20T11:29:10Z</time>
      </trkpt>
      <trkpt lat="44.46146" lon="5.59527">
        <ele>1460.8</ele>
        <time>2023-03-20T11:29:11Z</time>
      </trkpt>
      <trkpt lat="44.46147" lon="5.59523">
        <ele>1460.8</ele>
        <time>2023-03-20T11:29:12Z</time>
      </trkpt>
      <trkpt lat="44.46148" lon="5.59522">
        <ele>1460.9</ele>
        <time>2023-03-20T11:29:13Z</time>
      </trkpt>
      <trkpt lat="44.46151" lon="5.59518">
        <ele>1460.9</ele>
        <time>2023-03-20T11:29:14Z</time>
      </trkpt>
      <trkpt lat="44.46152" lon="5.59517">
        <ele>1461</ele>
        <time>2023-03-20T11:29:15Z</time>
      </trkpt>
      <trkpt lat="44.46154" lon="5.59513">
        <ele>1461</ele>
        <time>2023-03-20T11:29:16Z</time>
      </trkpt>
      <trkpt lat="44.46156" lon="5.5951">
        <ele>1461.1</ele>
        <time>2023-03-20T11:29:17Z</time>
      </trkpt>
      <trkpt lat="44.46158" lon="5.59507">
        <ele>1461.1</ele>
        <time>2023-03-20T11:29:18Z</time>
      </trkpt>
      <trkpt lat="44.4616" lon="5.59503">
        <ele>1461.1</ele>
        <time>2023-03-20T11:29:19Z</time>
      </trkpt>
      <trkpt lat="44.46162" lon="5.595">
        <ele>1461.1</ele>
        <time>2023-03-20T11:29:20Z</time>
      </trkpt>
      <trkpt lat="44.46164" lon="5.59496">
        <ele>1461.1</ele>
        <time>2023-03-20T11:29:21Z</time>
      </trkpt>
      <trkpt lat="44.46165" lon="5.59492">
        <ele>1461.1</ele>
        <time>2023-03-20T11:29:22Z</time>
      </trkpt>
      <trkpt lat="44.46167" lon="5.59488">
        <ele>1461.1</ele>
        <time>2023-03-20T11:29:23Z</time>
      </trkpt>
      <trkpt lat="44.46168" lon="5.59484">
        <ele>1461</ele>
        <time>2023-03-20T11:29:24Z</time>
      </trkpt>
      <trkpt lat="44.4617" lon="5.59479">
        <ele>1461</ele>
        <time>2023-03-20T11:29:25Z</time>
      </trkpt>
      <trkpt lat="44.46172" lon="5.59474">
        <ele>1461.1</ele>
        <time>2023-03-20T11:29:26Z</time>
      </trkpt>
      <trkpt lat="44.46172" lon="5.59473">
        <ele>1461.1</ele>
        <time>2023-03-20T11:29:27Z</time>
      </trkpt>
      <trkpt lat="44.46175" lon="5.59468">
        <ele>1461.1</ele>
        <time>2023-03-20T11:29:28Z</time>
      </trkpt>
      <trkpt lat="44.46176" lon="5.59466">
        <ele>1461.1</ele>
        <time>2023-03-20T11:29:29Z</time>
      </trkpt>
      <trkpt lat="44.46178" lon="5.59462">
        <ele>1461.2</ele>
        <time>2023-03-20T11:29:30Z</time>
      </trkpt>
      <trkpt lat="44.46181" lon="5.59457">
        <ele>1461.3</ele>
        <time>2023-03-20T11:29:31Z</time>
      </trkpt>
      <trkpt lat="44.46184" lon="5.59453">
        <ele>1461.3</ele>
        <time>2023-03-20T11:29:32Z</time>
      </trkpt>
      <trkpt lat="44.46186" lon="5.59449">
        <ele>1461.4</ele>
        <time>2023-03-20T11:29:33Z</time>
      </trkpt>
      <trkpt lat="44.46188" lon="5.59446">
        <ele>1461.4</ele>
        <time>2023-03-20T11:29:34Z</time>
      </trkpt>
      <trkpt lat="44.46191" lon="5.59442">
        <ele>1461.4</ele>
        <time>2023-03-20T11:29:35Z</time>
      </trkpt>
      <trkpt lat="44.46192" lon="5.5944">
        <ele>1461.4</ele>
        <time>2023-03-20T11:29:36Z</time>
      </trkpt>
      <trkpt lat="44.46194" lon="5.59437">
        <ele>1461.4</ele>
        <time>2023-03-20T11:29:37Z</time>
      </trkpt>
      <trkpt lat="44.46197" lon="5.59434">
        <ele>1461.3</ele>
        <time>2023-03-20T11:29:38Z</time>
      </trkpt>
      <trkpt lat="44.46198" lon="5.59432">
        <ele>1461.3</ele>
        <time>2023-03-20T11:29:39Z</time>
      </trkpt>
      <trkpt lat="44.462" lon="5.59428">
        <ele>1461.3</ele>
        <time>2023-03-20T11:29:40Z</time>
      </trkpt>
      <trkpt lat="44.46201" lon="5.59426">
        <ele>1461.2</ele>
        <time>2023-03-20T11:29:41Z</time>
      </trkpt>
      <trkpt lat="44.46203" lon="5.59422">
        <ele>1461.2</ele>
        <time>2023-03-20T11:29:42Z</time>
      </trkpt>
      <trkpt lat="44.46204" lon="5.59421">
        <ele>1461.2</ele>
        <time>2023-03-20T11:29:43Z</time>
      </trkpt>
      <trkpt lat="44.46206" lon="5.59418">
        <ele>1461.2</ele>
        <time>2023-03-20T11:29:44Z</time>
      </trkpt>
      <trkpt lat="44.46208" lon="5.59413">
        <ele>1461.2</ele>
        <time>2023-03-20T11:29:45Z</time>
      </trkpt>
      <trkpt lat="44.4621" lon="5.59409">
        <ele>1461.3</ele>
        <time>2023-03-20T11:29:46Z</time>
      </trkpt>
      <trkpt lat="44.46212" lon="5.59405">
        <ele>1461.3</ele>
        <time>2023-03-20T11:29:47Z</time>
      </trkpt>
      <trkpt lat="44.46215" lon="5.59401">
        <ele>1461.4</ele>
        <time>2023-03-20T11:29:48Z</time>
      </trkpt>
      <trkpt lat="44.46217" lon="5.59396">
        <ele>1461.5</ele>
        <time>2023-03-20T11:29:49Z</time>
      </trkpt>
      <trkpt lat="44.4622" lon="5.59392">
        <ele>1461.6</ele>
        <time>2023-03-20T11:29:50Z</time>
      </trkpt>
      <trkpt lat="44.46222" lon="5.59388">
        <ele>1461.8</ele>
        <time>2023-03-20T11:29:51Z</time>
      </trkpt>
      <trkpt lat="44.46224" lon="5.59383">
        <ele>1461.9</ele>
        <time>2023-03-20T11:29:52Z</time>
      </trkpt>
      <trkpt lat="44.46227" lon="5.59379">
        <ele>1462</ele>
        <time>2023-03-20T11:29:53Z</time>
      </trkpt>
      <trkpt lat="44.46229" lon="5.59376">
        <ele>1462.1</ele>
        <time>2023-03-20T11:29:54Z</time>
      </trkpt>
      <trkpt lat="44.46231" lon="5.59372">
        <ele>1462.1</ele>
        <time>2023-03-20T11:29:55Z</time>
      </trkpt>
      <trkpt lat="44.46233" lon="5.59368">
        <ele>1462.1</ele>
        <time>2023-03-20T11:29:56Z</time>
      </trkpt>
      <trkpt lat="44.46235" lon="5.59364">
        <ele>1462.2</ele>
        <time>2023-03-20T11:29:57Z</time>
      </trkpt>
      <trkpt lat="44.46236" lon="5.5936">
        <ele>1462.2</ele>
        <time>2023-03-20T11:29:58Z</time>
      </trkpt>
      <trkpt lat="44.46238" lon="5.59356">
        <ele>1462.2</ele>
        <time>2023-03-20T11:29:59Z</time>
      </trkpt>
      <trkpt lat="44.4624" lon="5.59352">
        <ele>1462.2</ele>
        <time>2023-03-20T11:30:00Z</time>
      </trkpt>
      <trkpt lat="44.46241" lon="5.59349">
        <ele>1462.2</ele>
        <time>2023-03-20T11:30:01Z</time>
      </trkpt>
      <trkpt lat="44.46243" lon="5.59345">
        <ele>1462.2</ele>
        <time>2023-03-20T11:30:02Z</time>
      </trkpt>
      <trkpt lat="44.46244" lon="5.59342">
        <ele>1462.3</ele>
        <time>2023-03-20T11:30:03Z</time>
      </trkpt>
      <trkpt lat="44.46246" lon="5.59337">
        <ele>1462.3</ele>
        <time>2023-03-20T11:30:04Z</time>
      </trkpt>
      <trkpt lat="44.46247" lon="5.59334">
        <ele>1462.3</ele>
        <time>2023-03-20T11:30:05Z</time>
      </trkpt>
      <trkpt lat="44.46249" lon="5.5933">
        <ele>1462.3</ele>
        <time>2023-03-20T11:30:06Z</time>
      </trkpt>
      <trkpt lat="44.46252" lon="5.59327">
        <ele>1462.3</ele>
        <time>2023-03-20T11:30:07Z</time>
      </trkpt>
      <trkpt lat="44.46254" lon="5.59323">
        <ele>1462.3</ele>
        <time>2023-03-20T11:30:08Z</time>
      </trkpt>
      <trkpt lat="44.46256" lon="5.59319">
        <ele>1462.2</ele>
        <time>2023-03-20T11:30:09Z</time>
      </trkpt>
      <trkpt lat="44.46258" lon="5.59317">
        <ele>1462.2</ele>
        <time>2023-03-20T11:30:10Z</time>
      </trkpt>
      <trkpt lat="44.46261" lon="5.59313">
        <ele>1462.2</ele>
        <time>2023-03-20T11:30:11Z</time>
      </trkpt>
      <trkpt lat="44.46262" lon="5.59312">
        <ele>1462.2</ele>
        <time>2023-03-20T11:30:12Z</time>
      </trkpt>
      <trkpt lat="44.46263" lon="5.59309">
        <ele>1462.2</ele>
        <time>2023-03-20T11:30:13Z</time>
      </trkpt>
      <trkpt lat="44.46265" lon="5.59305">
        <ele>1462.1</ele>
        <time>2023-03-20T11:30:14Z</time>
      </trkpt>
      <trkpt lat="44.46267" lon="5.59302">
        <ele>1462.1</ele>
        <time>2023-03-20T11:30:15Z</time>
      </trkpt>
      <trkpt lat="44.4627" lon="5.59299">
        <ele>1462.1</ele>
        <time>2023-03-20T11:30:16Z</time>
      </trkpt>
      <trkpt lat="44.46272" lon="5.59297">
        <ele>1462.1</ele>
        <time>2023-03-20T11:30:17Z</time>
      </trkpt>
      <trkpt lat="44.46274" lon="5.59293">
        <ele>1462.1</ele>
        <time>2023-03-20T11:30:18Z</time>
      </trkpt>
      <trkpt lat="44.46276" lon="5.5929">
        <ele>1462.1</ele>
        <time>2023-03-20T11:30:19Z</time>
      </trkpt>
      <trkpt lat="44.46278" lon="5.59286">
        <ele>1462.2</ele>
        <time>2023-03-20T11:30:20Z</time>
      </trkpt>
      <trkpt lat="44.4628" lon="5.59283">
        <ele>1462.2</ele>
        <time>2023-03-20T11:30:21Z</time>
      </trkpt>
      <trkpt lat="44.46282" lon="5.59279">
        <ele>1462.2</ele>
        <time>2023-03-20T11:30:22Z</time>
      </trkpt>
      <trkpt lat="44.46284" lon="5.59275">
        <ele>1462.2</ele>
        <time>2023-03-20T11:30:23Z</time>
      </trkpt>
      <trkpt lat="44.46286" lon="5.59271">
        <ele>1462.3</ele>
        <time>2023-03-20T11:30:24Z</time>
      </trkpt>
      <trkpt lat="44.46288" lon="5.59267">
        <ele>1462.3</ele>
        <time>2023-03-20T11:30:25Z</time>
      </trkpt>
      <trkpt lat="44.4629" lon="5.59264">
        <ele>1462.3</ele>
        <time>2023-03-20T11:30:26Z</time>
      </trkpt>
      <trkpt lat="44.46292" lon="5.5926">
        <ele>1462.4</ele>
        <time>2023-03-20T11:30:27Z</time>
      </trkpt>
      <trkpt lat="44.46294" lon="5.59255">
        <ele>1462.4</ele>
        <time>2023-03-20T11:30:28Z</time>
      </trkpt>
      <trkpt lat="44.46296" lon="5.59251">
        <ele>1462.5</ele>
        <time>2023-03-20T11:30:29Z</time>
      </trkpt>
      <trkpt lat="44.46297" lon="5.59247">
        <ele>1462.5</ele>
        <time>2023-03-20T11:30:30Z</time>
      </trkpt>
      <trkpt lat="44.46299" lon="5.59242">
        <ele>1462.6</ele>
        <time>2023-03-20T11:30:31Z</time>
      </trkpt>
      <trkpt lat="44.463" lon="5.59237">
        <ele>1462.7</ele>
        <time>2023-03-20T11:30:32Z</time>
      </trkpt>
      <trkpt lat="44.46301" lon="5.59233">
        <ele>1462.8</ele>
        <time>2023-03-20T11:30:33Z</time>
      </trkpt>
      <trkpt lat="44.46302" lon="5.59228">
        <ele>1462.9</ele>
        <time>2023-03-20T11:30:34Z</time>
      </trkpt>
      <trkpt lat="44.46303" lon="5.59224">
        <ele>1463</ele>
        <time>2023-03-20T11:30:35Z</time>
      </trkpt>
      <trkpt lat="44.46304" lon="5.59219">
        <ele>1463.1</ele>
        <time>2023-03-20T11:30:36Z</time>
      </trkpt>
      <trkpt lat="44.46306" lon="5.59214">
        <ele>1463.3</ele>
        <time>2023-03-20T11:30:37Z</time>
      </trkpt>
      <trkpt lat="44.46307" lon="5.59211">
        <ele>1463.4</ele>
        <time>2023-03-20T11:30:38Z</time>
      </trkpt>
      <trkpt lat="44.46309" lon="5.59207">
        <ele>1463.5</ele>
        <time>2023-03-20T11:30:39Z</time>
      </trkpt>
      <trkpt lat="44.4631" lon="5.59206">
        <ele>1463.5</ele>
        <time>2023-03-20T11:30:40Z</time>
      </trkpt>
      <trkpt lat="44.46312" lon="5.59203">
        <ele>1463.6</ele>
        <time>2023-03-20T11:30:41Z</time>
      </trkpt>
      <trkpt lat="44.46312" lon="5.59203">
        <ele>1463.6</ele>
        <time>2023-03-20T11:30:42Z</time>
      </trkpt>
      <trkpt lat="44.46312" lon="5.59202">
        <ele>1463.6</ele>
        <time>2023-03-20T11:30:43Z</time>
      </trkpt>
      <trkpt lat="44.46312" lon="5.59202">
        <ele>1463.7</ele>
        <time>2023-03-20T11:30:44Z</time>
      </trkpt>
      <trkpt lat="44.46313" lon="5.59202">
        <ele>1463.7</ele>
        <time>2023-03-20T11:30:45Z</time>
      </trkpt>
      <trkpt lat="44.46313" lon="5.59201">
        <ele>1463.7</ele>
        <time>2023-03-20T11:30:46Z</time>
      </trkpt>
      <trkpt lat="44.46313" lon="5.59201">
        <ele>1463.7</ele>
        <time>2023-03-20T11:30:47Z</time>
      </trkpt>
      <trkpt lat="44.46313" lon="5.59201">
        <ele>1463.7</ele>
        <time>2023-03-20T11:30:48Z</time>
      </trkpt>
      <trkpt lat="44.46313" lon="5.592">
        <ele>1463.7</ele>
        <time>2023-03-20T11:30:49Z</time>
      </trkpt>
      <trkpt lat="44.46314" lon="5.592">
        <ele>1463.7</ele>
        <time>2023-03-20T11:30:50Z</time>
      </trkpt>
      <trkpt lat="44.46315" lon="5.59196">
        <ele>1463.8</ele>
        <time>2023-03-20T11:30:51Z</time>
      </trkpt>
      <trkpt lat="44.46317" lon="5.59193">
        <ele>1463.9</ele>
        <time>2023-03-20T11:30:52Z</time>
      </trkpt>
      <trkpt lat="44.4632" lon="5.59189">
        <ele>1464</ele>
        <time>2023-03-20T11:30:53Z</time>
      </trkpt>
      <trkpt lat="44.46321" lon="5.59188">
        <ele>1464</ele>
        <time>2023-03-20T11:30:54Z</time>
      </trkpt>
      <trkpt lat="44.46324" lon="5.59184">
        <ele>1464</ele>
        <time>2023-03-20T11:30:55Z</time>
      </trkpt>
      <trkpt lat="44.46325" lon="5.59183">
        <ele>1464.1</ele>
        <time>2023-03-20T11:30:56Z</time>
      </trkpt>
      <trkpt lat="44.46327" lon="5.5918">
        <ele>1464.1</ele>
        <time>2023-03-20T11:30:57Z</time>
      </trkpt>
      <trkpt lat="44.46328" lon="5.59177">
        <ele>1464.1</ele>
        <time>2023-03-20T11:30:58Z</time>
      </trkpt>
      <trkpt lat="44.46331" lon="5.59174">
        <ele>1464.1</ele>
        <time>2023-03-20T11:30:59Z</time>
      </trkpt>
      <trkpt lat="44.46333" lon="5.59171">
        <ele>1464.2</ele>
        <time>2023-03-20T11:31:00Z</time>
      </trkpt>
      <trkpt lat="44.46335" lon="5.59167">
        <ele>1464.2</ele>
        <time>2023-03-20T11:31:01Z</time>
      </trkpt>
      <trkpt lat="44.46337" lon="5.59163">
        <ele>1464.2</ele>
        <time>2023-03-20T11:31:02Z</time>
      </trkpt>
      <trkpt lat="44.46339" lon="5.59159">
        <ele>1464.3</ele>
        <time>2023-03-20T11:31:03Z</time>
      </trkpt>
      <trkpt lat="44.4634" lon="5.59155">
        <ele>1464.4</ele>
        <time>2023-03-20T11:31:04Z</time>
      </trkpt>
      <trkpt lat="44.46342" lon="5.59151">
        <ele>1464.5</ele>
        <time>2023-03-20T11:31:05Z</time>
      </trkpt>
      <trkpt lat="44.46344" lon="5.59147">
        <ele>1464.6</ele>
        <time>2023-03-20T11:31:06Z</time>
      </trkpt>
      <trkpt lat="44.46346" lon="5.59143">
        <ele>1464.8</ele>
        <time>2023-03-20T11:31:07Z</time>
      </trkpt>
      <trkpt lat="44.46348" lon="5.59139">
        <ele>1465</ele>
        <time>2023-03-20T11:31:08Z</time>
      </trkpt>
      <trkpt lat="44.4635" lon="5.59135">
        <ele>1465.2</ele>
        <time>2023-03-20T11:31:09Z</time>
      </trkpt>
      <trkpt lat="44.46352" lon="5.5913">
        <ele>1465.3</ele>
        <time>2023-03-20T11:31:10Z</time>
      </trkpt>
      <trkpt lat="44.46354" lon="5.59126">
        <ele>1465.4</ele>
        <time>2023-03-20T11:31:11Z</time>
      </trkpt>
      <trkpt lat="44.46356" lon="5.59122">
        <ele>1465.5</ele>
        <time>2023-03-20T11:31:12Z</time>
      </trkpt>
      <trkpt lat="44.46358" lon="5.59118">
        <ele>1465.5</ele>
        <time>2023-03-20T11:31:13Z</time>
      </trkpt>
      <trkpt lat="44.4636" lon="5.59113">
        <ele>1465.6</ele>
        <time>2023-03-20T11:31:14Z</time>
      </trkpt>
      <trkpt lat="44.46362" lon="5.59109">
        <ele>1465.6</ele>
        <time>2023-03-20T11:31:15Z</time>
      </trkpt>
      <trkpt lat="44.46364" lon="5.59105">
        <ele>1465.6</ele>
        <time>2023-03-20T11:31:16Z</time>
      </trkpt>
      <trkpt lat="44.46366" lon="5.591">
        <ele>1465.6</ele>
        <time>2023-03-20T11:31:17Z</time>
      </trkpt>
      <trkpt lat="44.46367" lon="5.59097">
        <ele>1465.7</ele>
        <time>2023-03-20T11:31:18Z</time>
      </trkpt>
      <trkpt lat="44.46369" lon="5.59093">
        <ele>1465.7</ele>
        <time>2023-03-20T11:31:19Z</time>
      </trkpt>
      <trkpt lat="44.46371" lon="5.59089">
        <ele>1465.7</ele>
        <time>2023-03-20T11:31:20Z</time>
      </trkpt>
      <trkpt lat="44.46373" lon="5.59085">
        <ele>1465.7</ele>
        <time>2023-03-20T11:31:21Z</time>
      </trkpt>
      <trkpt lat="44.46375" lon="5.5908">
        <ele>1465.7</ele>
        <time>2023-03-20T11:31:22Z</time>
      </trkpt>
      <trkpt lat="44.46377" lon="5.59076">
        <ele>1465.8</ele>
        <time>2023-03-20T11:31:23Z</time>
      </trkpt>
      <trkpt lat="44.4638" lon="5.59071">
        <ele>1465.8</ele>
        <time>2023-03-20T11:31:24Z</time>
      </trkpt>
      <trkpt lat="44.46382" lon="5.59066">
        <ele>1465.8</ele>
        <time>2023-03-20T11:31:25Z</time>
      </trkpt>
      <trkpt lat="44.46384" lon="5.59061">
        <ele>1465.8</ele>
        <time>2023-03-20T11:31:26Z</time>
      </trkpt>
      <trkpt lat="44.46386" lon="5.59057">
        <ele>1465.8</ele>
        <time>2023-03-20T11:31:27Z</time>
      </trkpt>
      <trkpt lat="44.46388" lon="5.59054">
        <ele>1465.7</ele>
        <time>2023-03-20T11:31:28Z</time>
      </trkpt>
      <trkpt lat="44.46391" lon="5.59052">
        <ele>1465.7</ele>
        <time>2023-03-20T11:31:29Z</time>
      </trkpt>
      <trkpt lat="44.46394" lon="5.59049">
        <ele>1465.6</ele>
        <time>2023-03-20T11:31:30Z</time>
      </trkpt>
      <trkpt lat="44.46397" lon="5.59047">
        <ele>1465.5</ele>
        <time>2023-03-20T11:31:31Z</time>
      </trkpt>
      <trkpt lat="44.46401" lon="5.59044">
        <ele>1465.4</ele>
        <time>2023-03-20T11:31:32Z</time>
      </trkpt>
      <trkpt lat="44.46404" lon="5.59042">
        <ele>1465.3</ele>
        <time>2023-03-20T11:31:33Z</time>
      </trkpt>
      <trkpt lat="44.46408" lon="5.59038">
        <ele>1465.2</ele>
        <time>2023-03-20T11:31:34Z</time>
      </trkpt>
      <trkpt lat="44.46413" lon="5.59033">
        <ele>1465</ele>
        <time>2023-03-20T11:31:35Z</time>
      </trkpt>
      <trkpt lat="44.46417" lon="5.59028">
        <ele>1464.7</ele>
        <time>2023-03-20T11:31:36Z</time>
      </trkpt>
      <trkpt lat="44.4642" lon="5.59024">
        <ele>1464.6</ele>
        <time>2023-03-20T11:31:37Z</time>
      </trkpt>
      <trkpt lat="44.46423" lon="5.5902">
        <ele>1464.3</ele>
        <time>2023-03-20T11:31:38Z</time>
      </trkpt>
      <trkpt lat="44.46427" lon="5.59016">
        <ele>1464</ele>
        <time>2023-03-20T11:31:39Z</time>
      </trkpt>
      <trkpt lat="44.46431" lon="5.59012">
        <ele>1463.6</ele>
        <time>2023-03-20T11:31:40Z</time>
      </trkpt>
      <trkpt lat="44.46435" lon="5.59007">
        <ele>1463.2</ele>
        <time>2023-03-20T11:31:41Z</time>
      </trkpt>
      <trkpt lat="44.46438" lon="5.59004">
        <ele>1462.9</ele>
        <time>2023-03-20T11:31:42Z</time>
      </trkpt>
      <trkpt lat="44.4644" lon="5.59">
        <ele>1462.6</ele>
        <time>2023-03-20T11:31:43Z</time>
      </trkpt>
      <trkpt lat="44.46442" lon="5.58997">
        <ele>1462.3</ele>
        <time>2023-03-20T11:31:44Z</time>
      </trkpt>
      <trkpt lat="44.46444" lon="5.58993">
        <ele>1462.1</ele>
        <time>2023-03-20T11:31:45Z</time>
      </trkpt>
      <trkpt lat="44.46446" lon="5.58991">
        <ele>1461.8</ele>
        <time>2023-03-20T11:31:46Z</time>
      </trkpt>
      <trkpt lat="44.46449" lon="5.58988">
        <ele>1461.6</ele>
        <time>2023-03-20T11:31:47Z</time>
      </trkpt>
      <trkpt lat="44.4645" lon="5.58985">
        <ele>1461.3</ele>
        <time>2023-03-20T11:31:48Z</time>
      </trkpt>
      <trkpt lat="44.46451" lon="5.58981">
        <ele>1461.1</ele>
        <time>2023-03-20T11:31:49Z</time>
      </trkpt>
      <trkpt lat="44.46453" lon="5.58978">
        <ele>1460.8</ele>
        <time>2023-03-20T11:31:50Z</time>
      </trkpt>
      <trkpt lat="44.46454" lon="5.58973">
        <ele>1460.5</ele>
        <time>2023-03-20T11:31:51Z</time>
      </trkpt>
      <trkpt lat="44.46455" lon="5.58969">
        <ele>1460.2</ele>
        <time>2023-03-20T11:31:52Z</time>
      </trkpt>
      <trkpt lat="44.46457" lon="5.58965">
        <ele>1459.9</ele>
        <time>2023-03-20T11:31:53Z</time>
      </trkpt>
      <trkpt lat="44.46457" lon="5.58959">
        <ele>1459.6</ele>
        <time>2023-03-20T11:31:54Z</time>
      </trkpt>
      <trkpt lat="44.46457" lon="5.58957">
        <ele>1459.5</ele>
        <time>2023-03-20T11:31:55Z</time>
      </trkpt>
      <trkpt lat="44.46457" lon="5.58952">
        <ele>1459.2</ele>
        <time>2023-03-20T11:31:56Z</time>
      </trkpt>
      <trkpt lat="44.46457" lon="5.58947">
        <ele>1458.9</ele>
        <time>2023-03-20T11:31:57Z</time>
      </trkpt>
      <trkpt lat="44.46456" lon="5.58941">
        <ele>1458.6</ele>
        <time>2023-03-20T11:31:58Z</time>
      </trkpt>
      <trkpt lat="44.46455" lon="5.58936">
        <ele>1458.3</ele>
        <time>2023-03-20T11:31:59Z</time>
      </trkpt>
      <trkpt lat="44.46453" lon="5.58931">
        <ele>1458</ele>
        <time>2023-03-20T11:32:00Z</time>
      </trkpt>
      <trkpt lat="44.46451" lon="5.58925">
        <ele>1457.6</ele>
        <time>2023-03-20T11:32:01Z</time>
      </trkpt>
      <trkpt lat="44.46449" lon="5.58919">
        <ele>1457.4</ele>
        <time>2023-03-20T11:32:02Z</time>
      </trkpt>
      <trkpt lat="44.46447" lon="5.58914">
        <ele>1457.2</ele>
        <time>2023-03-20T11:32:03Z</time>
      </trkpt>
      <trkpt lat="44.46446" lon="5.58909">
        <ele>1457</ele>
        <time>2023-03-20T11:32:04Z</time>
      </trkpt>
      <trkpt lat="44.46444" lon="5.58905">
        <ele>1456.9</ele>
        <time>2023-03-20T11:32:05Z</time>
      </trkpt>
      <trkpt lat="44.46443" lon="5.58901">
        <ele>1456.7</ele>
        <time>2023-03-20T11:32:06Z</time>
      </trkpt>
      <trkpt lat="44.46442" lon="5.58897">
        <ele>1456.6</ele>
        <time>2023-03-20T11:32:07Z</time>
      </trkpt>
      <trkpt lat="44.46441" lon="5.58892">
        <ele>1456.4</ele>
        <time>2023-03-20T11:32:08Z</time>
      </trkpt>
      <trkpt lat="44.46439" lon="5.58887">
        <ele>1456.2</ele>
        <time>2023-03-20T11:32:09Z</time>
      </trkpt>
      <trkpt lat="44.46438" lon="5.58883">
        <ele>1455.9</ele>
        <time>2023-03-20T11:32:10Z</time>
      </trkpt>
      <trkpt lat="44.46436" lon="5.58878">
        <ele>1455.6</ele>
        <time>2023-03-20T11:32:11Z</time>
      </trkpt>
      <trkpt lat="44.46435" lon="5.58873">
        <ele>1455.4</ele>
        <time>2023-03-20T11:32:12Z</time>
      </trkpt>
      <trkpt lat="44.46434" lon="5.58869">
        <ele>1455.1</ele>
        <time>2023-03-20T11:32:13Z</time>
      </trkpt>
      <trkpt lat="44.46433" lon="5.58864">
        <ele>1454.8</ele>
        <time>2023-03-20T11:32:14Z</time>
      </trkpt>
      <trkpt lat="44.46434" lon="5.5886">
        <ele>1454.5</ele>
        <time>2023-03-20T11:32:15Z</time>
      </trkpt>
      <trkpt lat="44.46433" lon="5.58856">
        <ele>1454.3</ele>
        <time>2023-03-20T11:32:16Z</time>
      </trkpt>
      <trkpt lat="44.46433" lon="5.58852">
        <ele>1454</ele>
        <time>2023-03-20T11:32:17Z</time>
      </trkpt>
      <trkpt lat="44.46433" lon="5.58848">
        <ele>1453.8</ele>
        <time>2023-03-20T11:32:18Z</time>
      </trkpt>
      <trkpt lat="44.46434" lon="5.58842">
        <ele>1453.5</ele>
        <time>2023-03-20T11:32:19Z</time>
      </trkpt>
      <trkpt lat="44.46434" lon="5.5884">
        <ele>1453.4</ele>
        <time>2023-03-20T11:32:20Z</time>
      </trkpt>
      <trkpt lat="44.46434" lon="5.58836">
        <ele>1453.1</ele>
        <time>2023-03-20T11:32:21Z</time>
      </trkpt>
      <trkpt lat="44.46434" lon="5.58835">
        <ele>1453.1</ele>
        <time>2023-03-20T11:32:22Z</time>
      </trkpt>
      <trkpt lat="44.46434" lon="5.58835">
        <ele>1453.1</ele>
        <time>2023-03-20T11:32:23Z</time>
      </trkpt>
      <trkpt lat="44.46434" lon="5.58835">
        <ele>1453</ele>
        <time>2023-03-20T11:32:24Z</time>
      </trkpt>
      <trkpt lat="44.46434" lon="5.58835">
        <ele>1453</ele>
        <time>2023-03-20T11:32:25Z</time>
      </trkpt>
      <trkpt lat="44.46434" lon="5.58835">
        <ele>1453</ele>
        <time>2023-03-20T11:32:26Z</time>
      </trkpt>
      <trkpt lat="44.46434" lon="5.58835">
        <ele>1453</ele>
        <time>2023-03-20T11:32:27Z</time>
      </trkpt>
      <trkpt lat="44.46434" lon="5.58835">
        <ele>1453</ele>
        <time>2023-03-20T11:32:28Z</time>
      </trkpt>
      <trkpt lat="44.46434" lon="5.58835">
        <ele>1453</ele>
        <time>2023-03-20T11:32:29Z</time>
      </trkpt>
      <trkpt lat="44.46434" lon="5.58835">
        <ele>1453</ele>
        <time>2023-03-20T11:32:30Z</time>
      </trkpt>
      <trkpt lat="44.46434" lon="5.58835">
        <ele>1453</ele>
        <time>2023-03-20T11:32:31Z</time>
      </trkpt>
      <trkpt lat="44.46434" lon="5.58835">
        <ele>1453</ele>
        <time>2023-03-20T11:32:32Z</time>
      </trkpt>
      <trkpt lat="44.46434" lon="5.58829">
        <ele>1452.7</ele>
        <time>2023-03-20T11:34:06Z</time>
      </trkpt>
      <trkpt lat="44.46435" lon="5.58827">
        <ele>1452.6</ele>
        <time>2023-03-20T11:34:07Z</time>
      </trkpt>
      <trkpt lat="44.46438" lon="5.58821">
        <ele>1452.2</ele>
        <time>2023-03-20T11:34:09Z</time>
      </trkpt>
      <trkpt lat="44.4644" lon="5.58818">
        <ele>1451.9</ele>
        <time>2023-03-20T11:34:10Z</time>
      </trkpt>
      <trkpt lat="44.46441" lon="5.58815">
        <ele>1451.6</ele>
        <time>2023-03-20T11:34:11Z</time>
      </trkpt>
      <trkpt lat="44.46443" lon="5.58811">
        <ele>1451.4</ele>
        <time>2023-03-20T11:34:12Z</time>
      </trkpt>
      <trkpt lat="44.46445" lon="5.58807">
        <ele>1451</ele>
        <time>2023-03-20T11:34:13Z</time>
      </trkpt>
      <trkpt lat="44.46447" lon="5.58804">
        <ele>1450.7</ele>
        <time>2023-03-20T11:34:14Z</time>
      </trkpt>
      <trkpt lat="44.46449" lon="5.588">
        <ele>1450.4</ele>
        <time>2023-03-20T11:34:15Z</time>
      </trkpt>
      <trkpt lat="44.4645" lon="5.58796">
        <ele>1450.1</ele>
        <time>2023-03-20T11:34:16Z</time>
      </trkpt>
      <trkpt lat="44.46452" lon="5.58793">
        <ele>1449.9</ele>
        <time>2023-03-20T11:34:17Z</time>
      </trkpt>
      <trkpt lat="44.46454" lon="5.58788">
        <ele>1449.5</ele>
        <time>2023-03-20T11:34:18Z</time>
      </trkpt>
      <trkpt lat="44.46454" lon="5.58787">
        <ele>1449.4</ele>
        <time>2023-03-20T11:34:19Z</time>
      </trkpt>
      <trkpt lat="44.46456" lon="5.58783">
        <ele>1449</ele>
        <time>2023-03-20T11:34:20Z</time>
      </trkpt>
      <trkpt lat="44.46457" lon="5.58781">
        <ele>1448.9</ele>
        <time>2023-03-20T11:34:21Z</time>
      </trkpt>
      <trkpt lat="44.46459" lon="5.58777">
        <ele>1448.4</ele>
        <time>2023-03-20T11:34:22Z</time>
      </trkpt>
      <trkpt lat="44.46459" lon="5.58776">
        <ele>1448.3</ele>
        <time>2023-03-20T11:34:23Z</time>
      </trkpt>
      <trkpt lat="44.46461" lon="5.58772">
        <ele>1447.9</ele>
        <time>2023-03-20T11:34:24Z</time>
      </trkpt>
      <trkpt lat="44.46462" lon="5.58771">
        <ele>1447.8</ele>
        <time>2023-03-20T11:34:25Z</time>
      </trkpt>
      <trkpt lat="44.46465" lon="5.58767">
        <ele>1447.3</ele>
        <time>2023-03-20T11:34:26Z</time>
      </trkpt>
      <trkpt lat="44.46465" lon="5.58765">
        <ele>1447.1</ele>
        <time>2023-03-20T11:34:27Z</time>
      </trkpt>
      <trkpt lat="44.46467" lon="5.58762">
        <ele>1446.8</ele>
        <time>2023-03-20T11:34:28Z</time>
      </trkpt>
      <trkpt lat="44.46469" lon="5.58759">
        <ele>1446.4</ele>
        <time>2023-03-20T11:34:29Z</time>
      </trkpt>
      <trkpt lat="44.46471" lon="5.58755">
        <ele>1446</ele>
        <time>2023-03-20T11:34:30Z</time>
      </trkpt>
      <trkpt lat="44.46473" lon="5.58751">
        <ele>1445.6</ele>
        <time>2023-03-20T11:34:31Z</time>
      </trkpt>
      <trkpt lat="44.46475" lon="5.58747">
        <ele>1445.1</ele>
        <time>2023-03-20T11:34:32Z</time>
      </trkpt>
      <trkpt lat="44.46477" lon="5.58743">
        <ele>1444.7</ele>
        <time>2023-03-20T11:34:33Z</time>
      </trkpt>
      <trkpt lat="44.46479" lon="5.5874">
        <ele>1444.4</ele>
        <time>2023-03-20T11:34:34Z</time>
      </trkpt>
      <trkpt lat="44.46481" lon="5.58737">
        <ele>1444</ele>
        <time>2023-03-20T11:34:35Z</time>
      </trkpt>
      <trkpt lat="44.46483" lon="5.58733">
        <ele>1443.6</ele>
        <time>2023-03-20T11:34:36Z</time>
      </trkpt>
      <trkpt lat="44.46484" lon="5.5873">
        <ele>1443.3</ele>
        <time>2023-03-20T11:34:37Z</time>
      </trkpt>
      <trkpt lat="44.46486" lon="5.58728">
        <ele>1443.1</ele>
        <time>2023-03-20T11:34:38Z</time>
      </trkpt>
      <trkpt lat="44.46486" lon="5.58726">
        <ele>1442.9</ele>
        <time>2023-03-20T11:34:39Z</time>
      </trkpt>
      <trkpt lat="44.46487" lon="5.58727">
        <ele>1442.9</ele>
        <time>2023-03-20T11:34:40Z</time>
      </trkpt>
      <trkpt lat="44.46487" lon="5.58726">
        <ele>1442.8</ele>
        <time>2023-03-20T11:34:41Z</time>
      </trkpt>
      <trkpt lat="44.46488" lon="5.58726">
        <ele>1442.7</ele>
        <time>2023-03-20T11:34:42Z</time>
      </trkpt>
      <trkpt lat="44.46488" lon="5.58725">
        <ele>1442.7</ele>
        <time>2023-03-20T11:34:43Z</time>
      </trkpt>
      <trkpt lat="44.46488" lon="5.58724">
        <ele>1442.6</ele>
        <time>2023-03-20T11:34:44Z</time>
      </trkpt>
      <trkpt lat="44.46489" lon="5.58724">
        <ele>1442.5</ele>
        <time>2023-03-20T11:34:46Z</time>
      </trkpt>
      <trkpt lat="44.46489" lon="5.58723">
        <ele>1442.5</ele>
        <time>2023-03-20T11:34:47Z</time>
      </trkpt>
      <trkpt lat="44.4649" lon="5.58723">
        <ele>1442.4</ele>
        <time>2023-03-20T11:34:48Z</time>
      </trkpt>
      <trkpt lat="44.4649" lon="5.58722">
        <ele>1442.4</ele>
        <time>2023-03-20T11:34:49Z</time>
      </trkpt>
      <trkpt lat="44.46491" lon="5.58721">
        <ele>1442.3</ele>
        <time>2023-03-20T11:34:51Z</time>
      </trkpt>
      <trkpt lat="44.46491" lon="5.58721">
        <ele>1442.2</ele>
        <time>2023-03-20T11:34:52Z</time>
      </trkpt>
      <trkpt lat="44.46491" lon="5.5872">
        <ele>1442.2</ele>
        <time>2023-03-20T11:34:54Z</time>
      </trkpt>
      <trkpt lat="44.46492" lon="5.5872">
        <ele>1442.1</ele>
        <time>2023-03-20T11:34:55Z</time>
      </trkpt>
      <trkpt lat="44.46492" lon="5.58719">
        <ele>1442.1</ele>
        <time>2023-03-20T11:34:56Z</time>
      </trkpt>
      <trkpt lat="44.46493" lon="5.58718">
        <ele>1442</ele>
        <time>2023-03-20T11:35:08Z</time>
      </trkpt>
      <trkpt lat="44.46493" lon="5.58718">
        <ele>1441.9</ele>
        <time>2023-03-20T11:35:09Z</time>
      </trkpt>
      <trkpt lat="44.46493" lon="5.58717">
        <ele>1441.9</ele>
        <time>2023-03-20T11:35:10Z</time>
      </trkpt>
      <trkpt lat="44.46495" lon="5.58714">
        <ele>1441.5</ele>
        <time>2023-03-20T11:35:11Z</time>
      </trkpt>
      <trkpt lat="44.46497" lon="5.5871">
        <ele>1441.2</ele>
        <time>2023-03-20T11:35:12Z</time>
      </trkpt>
      <trkpt lat="44.465" lon="5.58706">
        <ele>1440.8</ele>
        <time>2023-03-20T11:35:13Z</time>
      </trkpt>
      <trkpt lat="44.465" lon="5.58706">
        <ele>1440.7</ele>
        <time>2023-03-20T11:35:14Z</time>
      </trkpt>
      <trkpt lat="44.46502" lon="5.58703">
        <ele>1440.4</ele>
        <time>2023-03-20T11:35:15Z</time>
      </trkpt>
      <trkpt lat="44.46503" lon="5.58701">
        <ele>1440.3</ele>
        <time>2023-03-20T11:35:16Z</time>
      </trkpt>
      <trkpt lat="44.46505" lon="5.58698">
        <ele>1439.9</ele>
        <time>2023-03-20T11:35:17Z</time>
      </trkpt>
      <trkpt lat="44.46506" lon="5.58697">
        <ele>1439.8</ele>
        <time>2023-03-20T11:35:18Z</time>
      </trkpt>
      <trkpt lat="44.46508" lon="5.58694">
        <ele>1439.4</ele>
        <time>2023-03-20T11:35:19Z</time>
      </trkpt>
      <trkpt lat="44.46509" lon="5.58693">
        <ele>1439.3</ele>
        <time>2023-03-20T11:35:20Z</time>
      </trkpt>
      <trkpt lat="44.46511" lon="5.5869">
        <ele>1438.9</ele>
        <time>2023-03-20T11:35:21Z</time>
      </trkpt>
      <trkpt lat="44.46512" lon="5.58689">
        <ele>1438.8</ele>
        <time>2023-03-20T11:35:22Z</time>
      </trkpt>
      <trkpt lat="44.46514" lon="5.58685">
        <ele>1438.4</ele>
        <time>2023-03-20T11:35:23Z</time>
      </trkpt>
      <trkpt lat="44.46514" lon="5.58683">
        <ele>1438.2</ele>
        <time>2023-03-20T11:35:24Z</time>
      </trkpt>
      <trkpt lat="44.46516" lon="5.58679">
        <ele>1437.7</ele>
        <time>2023-03-20T11:35:25Z</time>
      </trkpt>
      <trkpt lat="44.46516" lon="5.58677">
        <ele>1437.6</ele>
        <time>2023-03-20T11:35:26Z</time>
      </trkpt>
      <trkpt lat="44.46517" lon="5.58674">
        <ele>1437.2</ele>
        <time>2023-03-20T11:35:27Z</time>
      </trkpt>
      <trkpt lat="44.46519" lon="5.58669">
        <ele>1436.8</ele>
        <time>2023-03-20T11:35:28Z</time>
      </trkpt>
      <trkpt lat="44.46519" lon="5.58667">
        <ele>1436.6</ele>
        <time>2023-03-20T11:35:29Z</time>
      </trkpt>
      <trkpt lat="44.46521" lon="5.58664">
        <ele>1436.3</ele>
        <time>2023-03-20T11:35:30Z</time>
      </trkpt>
      <trkpt lat="44.46521" lon="5.58663">
        <ele>1436.2</ele>
        <time>2023-03-20T11:35:31Z</time>
      </trkpt>
      <trkpt lat="44.46521" lon="5.58664">
        <ele>1436.2</ele>
        <time>2023-03-20T11:35:32Z</time>
      </trkpt>
      <trkpt lat="44.46521" lon="5.58663">
        <ele>1436.1</ele>
        <time>2023-03-20T11:35:33Z</time>
      </trkpt>
      <trkpt lat="44.46521" lon="5.58663">
        <ele>1436.1</ele>
        <time>2023-03-20T11:35:34Z</time>
      </trkpt>
      <trkpt lat="44.46521" lon="5.58663">
        <ele>1436.1</ele>
        <time>2023-03-20T11:35:36Z</time>
      </trkpt>
      <trkpt lat="44.46521" lon="5.58663">
        <ele>1436</ele>
        <time>2023-03-20T11:35:37Z</time>
      </trkpt>
      <trkpt lat="44.46522" lon="5.58661">
        <ele>1435.9</ele>
        <time>2023-03-20T11:35:38Z</time>
      </trkpt>
      <trkpt lat="44.46523" lon="5.58659">
        <ele>1435.7</ele>
        <time>2023-03-20T11:35:39Z</time>
      </trkpt>
      <trkpt lat="44.46524" lon="5.58655">
        <ele>1435.4</ele>
        <time>2023-03-20T11:35:40Z</time>
      </trkpt>
      <trkpt lat="44.46525" lon="5.58654">
        <ele>1435.2</ele>
        <time>2023-03-20T11:35:41Z</time>
      </trkpt>
      <trkpt lat="44.46527" lon="5.5865">
        <ele>1434.9</ele>
        <time>2023-03-20T11:35:42Z</time>
      </trkpt>
      <trkpt lat="44.46528" lon="5.58646">
        <ele>1434.4</ele>
        <time>2023-03-20T11:35:43Z</time>
      </trkpt>
      <trkpt lat="44.4653" lon="5.58642">
        <ele>1434</ele>
        <time>2023-03-20T11:35:44Z</time>
      </trkpt>
      <trkpt lat="44.46532" lon="5.58638">
        <ele>1433.6</ele>
        <time>2023-03-20T11:35:45Z</time>
      </trkpt>
      <trkpt lat="44.46534" lon="5.58635">
        <ele>1433</ele>
        <time>2023-03-20T11:35:46Z</time>
      </trkpt>
      <trkpt lat="44.46537" lon="5.58631">
        <ele>1432.5</ele>
        <time>2023-03-20T11:35:47Z</time>
      </trkpt>
      <trkpt lat="44.46539" lon="5.58627">
        <ele>1432</ele>
        <time>2023-03-20T11:35:48Z</time>
      </trkpt>
      <trkpt lat="44.46541" lon="5.58623">
        <ele>1431.6</ele>
        <time>2023-03-20T11:35:49Z</time>
      </trkpt>
      <trkpt lat="44.46543" lon="5.58619">
        <ele>1431.1</ele>
        <time>2023-03-20T11:35:50Z</time>
      </trkpt>
      <trkpt lat="44.46546" lon="5.58615">
        <ele>1430.6</ele>
        <time>2023-03-20T11:35:51Z</time>
      </trkpt>
      <trkpt lat="44.46548" lon="5.58612">
        <ele>1430.2</ele>
        <time>2023-03-20T11:35:52Z</time>
      </trkpt>
      <trkpt lat="44.4655" lon="5.58609">
        <ele>1429.9</ele>
        <time>2023-03-20T11:35:53Z</time>
      </trkpt>
      <trkpt lat="44.46552" lon="5.58606">
        <ele>1429.5</ele>
        <time>2023-03-20T11:35:54Z</time>
      </trkpt>
      <trkpt lat="44.46554" lon="5.58602">
        <ele>1429</ele>
        <time>2023-03-20T11:35:55Z</time>
      </trkpt>
      <trkpt lat="44.46556" lon="5.58598">
        <ele>1428.6</ele>
        <time>2023-03-20T11:35:56Z</time>
      </trkpt>
      <trkpt lat="44.46557" lon="5.58594">
        <ele>1428.2</ele>
        <time>2023-03-20T11:35:57Z</time>
      </trkpt>
      <trkpt lat="44.46558" lon="5.5859">
        <ele>1427.8</ele>
        <time>2023-03-20T11:35:58Z</time>
      </trkpt>
      <trkpt lat="44.4656" lon="5.58586">
        <ele>1427.5</ele>
        <time>2023-03-20T11:35:59Z</time>
      </trkpt>
      <trkpt lat="44.46562" lon="5.58582">
        <ele>1427.1</ele>
        <time>2023-03-20T11:36:00Z</time>
      </trkpt>
      <trkpt lat="44.46563" lon="5.58579">
        <ele>1426.7</ele>
        <time>2023-03-20T11:36:01Z</time>
      </trkpt>
      <trkpt lat="44.46565" lon="5.58576">
        <ele>1426.4</ele>
        <time>2023-03-20T11:36:02Z</time>
      </trkpt>
      <trkpt lat="44.46567" lon="5.58572">
        <ele>1426.1</ele>
        <time>2023-03-20T11:36:03Z</time>
      </trkpt>
      <trkpt lat="44.46569" lon="5.58569">
        <ele>1425.9</ele>
        <time>2023-03-20T11:36:04Z</time>
      </trkpt>
      <trkpt lat="44.46571" lon="5.58566">
        <ele>1425.7</ele>
        <time>2023-03-20T11:36:05Z</time>
      </trkpt>
      <trkpt lat="44.46573" lon="5.58564">
        <ele>1425.5</ele>
        <time>2023-03-20T11:36:06Z</time>
      </trkpt>
      <trkpt lat="44.46575" lon="5.58561">
        <ele>1425.3</ele>
        <time>2023-03-20T11:36:07Z</time>
      </trkpt>
      <trkpt lat="44.46577" lon="5.58558">
        <ele>1425.1</ele>
        <time>2023-03-20T11:36:08Z</time>
      </trkpt>
      <trkpt lat="44.46579" lon="5.58555">
        <ele>1425</ele>
        <time>2023-03-20T11:36:09Z</time>
      </trkpt>
      <trkpt lat="44.46581" lon="5.58552">
        <ele>1424.8</ele>
        <time>2023-03-20T11:36:10Z</time>
      </trkpt>
      <trkpt lat="44.46583" lon="5.58549">
        <ele>1424.7</ele>
        <time>2023-03-20T11:36:11Z</time>
      </trkpt>
      <trkpt lat="44.46585" lon="5.58547">
        <ele>1424.6</ele>
        <time>2023-03-20T11:36:12Z</time>
      </trkpt>
      <trkpt lat="44.46588" lon="5.58544">
        <ele>1424.4</ele>
        <time>2023-03-20T11:36:13Z</time>
      </trkpt>
      <trkpt lat="44.46589" lon="5.58544">
        <ele>1424.4</ele>
        <time>2023-03-20T11:36:14Z</time>
      </trkpt>
      <trkpt lat="44.4659" lon="5.58543">
        <ele>1424.4</ele>
        <time>2023-03-20T11:36:15Z</time>
      </trkpt>
      <trkpt lat="44.46592" lon="5.58543">
        <ele>1424.3</ele>
        <time>2023-03-20T11:36:16Z</time>
      </trkpt>
      <trkpt lat="44.46595" lon="5.58542">
        <ele>1424.2</ele>
        <time>2023-03-20T11:36:17Z</time>
      </trkpt>
      <trkpt lat="44.46597" lon="5.58542">
        <ele>1424.2</ele>
        <time>2023-03-20T11:36:18Z</time>
      </trkpt>
      <trkpt lat="44.466" lon="5.5854">
        <ele>1424.1</ele>
        <time>2023-03-20T11:36:19Z</time>
      </trkpt>
      <trkpt lat="44.46603" lon="5.58538">
        <ele>1424</ele>
        <time>2023-03-20T11:36:20Z</time>
      </trkpt>
      <trkpt lat="44.46606" lon="5.58536">
        <ele>1423.8</ele>
        <time>2023-03-20T11:36:21Z</time>
      </trkpt>
      <trkpt lat="44.46609" lon="5.58533">
        <ele>1423.7</ele>
        <time>2023-03-20T11:36:22Z</time>
      </trkpt>
      <trkpt lat="44.46612" lon="5.5853">
        <ele>1423.5</ele>
        <time>2023-03-20T11:36:23Z</time>
      </trkpt>
      <trkpt lat="44.46614" lon="5.58527">
        <ele>1423.3</ele>
        <time>2023-03-20T11:36:24Z</time>
      </trkpt>
      <trkpt lat="44.46617" lon="5.58525">
        <ele>1423.1</ele>
        <time>2023-03-20T11:36:25Z</time>
      </trkpt>
      <trkpt lat="44.4662" lon="5.58522">
        <ele>1422.9</ele>
        <time>2023-03-20T11:36:26Z</time>
      </trkpt>
      <trkpt lat="44.46623" lon="5.58519">
        <ele>1422.7</ele>
        <time>2023-03-20T11:36:27Z</time>
      </trkpt>
      <trkpt lat="44.46625" lon="5.58517">
        <ele>1422.5</ele>
        <time>2023-03-20T11:36:28Z</time>
      </trkpt>
      <trkpt lat="44.46628" lon="5.58515">
        <ele>1422.3</ele>
        <time>2023-03-20T11:36:29Z</time>
      </trkpt>
      <trkpt lat="44.46631" lon="5.58512">
        <ele>1422.1</ele>
        <time>2023-03-20T11:36:30Z</time>
      </trkpt>
      <trkpt lat="44.46633" lon="5.58509">
        <ele>1421.9</ele>
        <time>2023-03-20T11:36:31Z</time>
      </trkpt>
      <trkpt lat="44.46636" lon="5.58506">
        <ele>1421.6</ele>
        <time>2023-03-20T11:36:32Z</time>
      </trkpt>
      <trkpt lat="44.46637" lon="5.58506">
        <ele>1421.6</ele>
        <time>2023-03-20T11:36:33Z</time>
      </trkpt>
      <trkpt lat="44.46639" lon="5.58506">
        <ele>1421.4</ele>
        <time>2023-03-20T11:36:34Z</time>
      </trkpt>
      <trkpt lat="44.4664" lon="5.58506">
        <ele>1421.3</ele>
        <time>2023-03-20T11:36:35Z</time>
      </trkpt>
      <trkpt lat="44.46644" lon="5.58504">
        <ele>1421.1</ele>
        <time>2023-03-20T11:36:36Z</time>
      </trkpt>
      <trkpt lat="44.46645" lon="5.58504">
        <ele>1421</ele>
        <time>2023-03-20T11:36:37Z</time>
      </trkpt>
      <trkpt lat="44.46648" lon="5.585">
        <ele>1420.9</ele>
        <time>2023-03-20T11:36:38Z</time>
      </trkpt>
      <trkpt lat="44.4665" lon="5.58497">
        <ele>1420.7</ele>
        <time>2023-03-20T11:36:39Z</time>
      </trkpt>
      <trkpt lat="44.46652" lon="5.58493">
        <ele>1420.5</ele>
        <time>2023-03-20T11:36:40Z</time>
      </trkpt>
      <trkpt lat="44.46654" lon="5.58489">
        <ele>1420.3</ele>
        <time>2023-03-20T11:36:41Z</time>
      </trkpt>
      <trkpt lat="44.46655" lon="5.58488">
        <ele>1420.2</ele>
        <time>2023-03-20T11:36:42Z</time>
      </trkpt>
      <trkpt lat="44.46656" lon="5.58484">
        <ele>1420</ele>
        <time>2023-03-20T11:36:43Z</time>
      </trkpt>
      <trkpt lat="44.46656" lon="5.5848">
        <ele>1419.8</ele>
        <time>2023-03-20T11:36:44Z</time>
      </trkpt>
      <trkpt lat="44.46656" lon="5.58477">
        <ele>1419.6</ele>
        <time>2023-03-20T11:36:45Z</time>
      </trkpt>
      <trkpt lat="44.46656" lon="5.58477">
        <ele>1419.5</ele>
        <time>2023-03-20T11:36:46Z</time>
      </trkpt>
      <trkpt lat="44.46656" lon="5.58477">
        <ele>1419.5</ele>
        <time>2023-03-20T11:36:47Z</time>
      </trkpt>
      <trkpt lat="44.46656" lon="5.58477">
        <ele>1419.5</ele>
        <time>2023-03-20T11:36:48Z</time>
      </trkpt>
      <trkpt lat="44.46657" lon="5.58477">
        <ele>1419.5</ele>
        <time>2023-03-20T11:36:49Z</time>
      </trkpt>
      <trkpt lat="44.46658" lon="5.58476">
        <ele>1419.4</ele>
        <time>2023-03-20T11:36:50Z</time>
      </trkpt>
      <trkpt lat="44.46658" lon="5.58474">
        <ele>1419.2</ele>
        <time>2023-03-20T11:36:51Z</time>
      </trkpt>
      <trkpt lat="44.46659" lon="5.58472">
        <ele>1419</ele>
        <time>2023-03-20T11:36:52Z</time>
      </trkpt>
      <trkpt lat="44.46661" lon="5.58468">
        <ele>1418.8</ele>
        <time>2023-03-20T11:36:53Z</time>
      </trkpt>
      <trkpt lat="44.46662" lon="5.58467">
        <ele>1418.7</ele>
        <time>2023-03-20T11:36:54Z</time>
      </trkpt>
      <trkpt lat="44.46664" lon="5.58462">
        <ele>1418.3</ele>
        <time>2023-03-20T11:36:55Z</time>
      </trkpt>
      <trkpt lat="44.46665" lon="5.5846">
        <ele>1418.2</ele>
        <time>2023-03-20T11:36:56Z</time>
      </trkpt>
      <trkpt lat="44.46666" lon="5.58457">
        <ele>1418</ele>
        <time>2023-03-20T11:36:57Z</time>
      </trkpt>
      <trkpt lat="44.46667" lon="5.58453">
        <ele>1417.8</ele>
        <time>2023-03-20T11:36:58Z</time>
      </trkpt>
      <trkpt lat="44.46667" lon="5.58448">
        <ele>1417.6</ele>
        <time>2023-03-20T11:36:59Z</time>
      </trkpt>
      <trkpt lat="44.46669" lon="5.58444">
        <ele>1417.4</ele>
        <time>2023-03-20T11:37:00Z</time>
      </trkpt>
      <trkpt lat="44.46671" lon="5.5844">
        <ele>1417.2</ele>
        <time>2023-03-20T11:37:01Z</time>
      </trkpt>
      <trkpt lat="44.46673" lon="5.58436">
        <ele>1417</ele>
        <time>2023-03-20T11:37:02Z</time>
      </trkpt>
      <trkpt lat="44.46675" lon="5.58432">
        <ele>1416.8</ele>
        <time>2023-03-20T11:37:03Z</time>
      </trkpt>
      <trkpt lat="44.46676" lon="5.58431">
        <ele>1416.7</ele>
        <time>2023-03-20T11:37:04Z</time>
      </trkpt>
      <trkpt lat="44.46678" lon="5.58427">
        <ele>1416.6</ele>
        <time>2023-03-20T11:37:05Z</time>
      </trkpt>
      <trkpt lat="44.4668" lon="5.58423">
        <ele>1416.4</ele>
        <time>2023-03-20T11:37:06Z</time>
      </trkpt>
      <trkpt lat="44.46682" lon="5.58419">
        <ele>1416.2</ele>
        <time>2023-03-20T11:37:07Z</time>
      </trkpt>
      <trkpt lat="44.46684" lon="5.58416">
        <ele>1416.1</ele>
        <time>2023-03-20T11:37:08Z</time>
      </trkpt>
      <trkpt lat="44.46685" lon="5.58412">
        <ele>1416</ele>
        <time>2023-03-20T11:37:09Z</time>
      </trkpt>
      <trkpt lat="44.46686" lon="5.5841">
        <ele>1415.9</ele>
        <time>2023-03-20T11:37:10Z</time>
      </trkpt>
      <trkpt lat="44.46688" lon="5.58406">
        <ele>1415.7</ele>
        <time>2023-03-20T11:37:11Z</time>
      </trkpt>
      <trkpt lat="44.46689" lon="5.58404">
        <ele>1415.7</ele>
        <time>2023-03-20T11:37:12Z</time>
      </trkpt>
      <trkpt lat="44.46691" lon="5.584">
        <ele>1415.5</ele>
        <time>2023-03-20T11:37:13Z</time>
      </trkpt>
      <trkpt lat="44.46693" lon="5.58396">
        <ele>1415.3</ele>
        <time>2023-03-20T11:37:14Z</time>
      </trkpt>
      <trkpt lat="44.46695" lon="5.58393">
        <ele>1415.1</ele>
        <time>2023-03-20T11:37:15Z</time>
      </trkpt>
      <trkpt lat="44.46697" lon="5.5839">
        <ele>1414.9</ele>
        <time>2023-03-20T11:37:16Z</time>
      </trkpt>
      <trkpt lat="44.46698" lon="5.58386">
        <ele>1414.7</ele>
        <time>2023-03-20T11:37:17Z</time>
      </trkpt>
      <trkpt lat="44.46699" lon="5.58381">
        <ele>1414.4</ele>
        <time>2023-03-20T11:37:18Z</time>
      </trkpt>
      <trkpt lat="44.46702" lon="5.58374">
        <ele>1413.9</ele>
        <time>2023-03-20T11:37:19Z</time>
      </trkpt>
      <trkpt lat="44.46705" lon="5.58366">
        <ele>1413.3</ele>
        <time>2023-03-20T11:37:20Z</time>
      </trkpt>
      <trkpt lat="44.46707" lon="5.5836">
        <ele>1412.9</ele>
        <time>2023-03-20T11:37:21Z</time>
      </trkpt>
      <trkpt lat="44.46709" lon="5.58355">
        <ele>1412.6</ele>
        <time>2023-03-20T11:37:22Z</time>
      </trkpt>
      <trkpt lat="44.46711" lon="5.58351">
        <ele>1412.3</ele>
        <time>2023-03-20T11:37:23Z</time>
      </trkpt>
      <trkpt lat="44.46713" lon="5.58347">
        <ele>1412</ele>
        <time>2023-03-20T11:37:24Z</time>
      </trkpt>
      <trkpt lat="44.46714" lon="5.58342">
        <ele>1411.8</ele>
        <time>2023-03-20T11:37:25Z</time>
      </trkpt>
      <trkpt lat="44.46715" lon="5.58338">
        <ele>1411.6</ele>
        <time>2023-03-20T11:37:26Z</time>
      </trkpt>
      <trkpt lat="44.46716" lon="5.58335">
        <ele>1411.4</ele>
        <time>2023-03-20T11:37:27Z</time>
      </trkpt>
      <trkpt lat="44.46718" lon="5.58331">
        <ele>1411.3</ele>
        <time>2023-03-20T11:37:28Z</time>
      </trkpt>
      <trkpt lat="44.46719" lon="5.58327">
        <ele>1411.1</ele>
        <time>2023-03-20T11:37:29Z</time>
      </trkpt>
      <trkpt lat="44.46722" lon="5.58323">
        <ele>1410.9</ele>
        <time>2023-03-20T11:37:30Z</time>
      </trkpt>
      <trkpt lat="44.46722" lon="5.58321">
        <ele>1410.9</ele>
        <time>2023-03-20T11:37:31Z</time>
      </trkpt>
      <trkpt lat="44.46725" lon="5.58317">
        <ele>1410.6</ele>
        <time>2023-03-20T11:37:32Z</time>
      </trkpt>
      <trkpt lat="44.46725" lon="5.58315">
        <ele>1410.5</ele>
        <time>2023-03-20T11:37:33Z</time>
      </trkpt>
      <trkpt lat="44.46727" lon="5.58311">
        <ele>1410.2</ele>
        <time>2023-03-20T11:37:34Z</time>
      </trkpt>
      <trkpt lat="44.4673" lon="5.58307">
        <ele>1409.9</ele>
        <time>2023-03-20T11:37:35Z</time>
      </trkpt>
      <trkpt lat="44.46732" lon="5.58303">
        <ele>1409.6</ele>
        <time>2023-03-20T11:37:36Z</time>
      </trkpt>
      <trkpt lat="44.46734" lon="5.583">
        <ele>1409.3</ele>
        <time>2023-03-20T11:37:37Z</time>
      </trkpt>
      <trkpt lat="44.46736" lon="5.58295">
        <ele>1409.1</ele>
        <time>2023-03-20T11:37:38Z</time>
      </trkpt>
      <trkpt lat="44.46737" lon="5.58291">
        <ele>1409</ele>
        <time>2023-03-20T11:37:39Z</time>
      </trkpt>
      <trkpt lat="44.46738" lon="5.58287">
        <ele>1408.9</ele>
        <time>2023-03-20T11:37:40Z</time>
      </trkpt>
      <trkpt lat="44.46739" lon="5.58282">
        <ele>1408.8</ele>
        <time>2023-03-20T11:37:41Z</time>
      </trkpt>
      <trkpt lat="44.4674" lon="5.58278">
        <ele>1408.7</ele>
        <time>2023-03-20T11:37:42Z</time>
      </trkpt>
      <trkpt lat="44.46741" lon="5.58273">
        <ele>1408.6</ele>
        <time>2023-03-20T11:37:43Z</time>
      </trkpt>
      <trkpt lat="44.46742" lon="5.58268">
        <ele>1408.5</ele>
        <time>2023-03-20T11:37:44Z</time>
      </trkpt>
      <trkpt lat="44.46744" lon="5.58263">
        <ele>1408.3</ele>
        <time>2023-03-20T11:37:45Z</time>
      </trkpt>
      <trkpt lat="44.46745" lon="5.58259">
        <ele>1408.2</ele>
        <time>2023-03-20T11:37:46Z</time>
      </trkpt>
      <trkpt lat="44.46745" lon="5.58254">
        <ele>1408</ele>
        <time>2023-03-20T11:37:47Z</time>
      </trkpt>
      <trkpt lat="44.46746" lon="5.5825">
        <ele>1407.9</ele>
        <time>2023-03-20T11:37:48Z</time>
      </trkpt>
      <trkpt lat="44.46747" lon="5.58245">
        <ele>1407.7</ele>
        <time>2023-03-20T11:37:49Z</time>
      </trkpt>
      <trkpt lat="44.46748" lon="5.58241">
        <ele>1407.5</ele>
        <time>2023-03-20T11:37:50Z</time>
      </trkpt>
      <trkpt lat="44.4675" lon="5.58237">
        <ele>1407.3</ele>
        <time>2023-03-20T11:37:51Z</time>
      </trkpt>
      <trkpt lat="44.46753" lon="5.58233">
        <ele>1407.2</ele>
        <time>2023-03-20T11:37:52Z</time>
      </trkpt>
      <trkpt lat="44.46755" lon="5.58229">
        <ele>1407</ele>
        <time>2023-03-20T11:37:53Z</time>
      </trkpt>
      <trkpt lat="44.46757" lon="5.58225">
        <ele>1406.9</ele>
        <time>2023-03-20T11:37:54Z</time>
      </trkpt>
      <trkpt lat="44.46758" lon="5.58222">
        <ele>1406.8</ele>
        <time>2023-03-20T11:37:55Z</time>
      </trkpt>
      <trkpt lat="44.4676" lon="5.58218">
        <ele>1406.6</ele>
        <time>2023-03-20T11:37:56Z</time>
      </trkpt>
      <trkpt lat="44.46761" lon="5.58214">
        <ele>1406.5</ele>
        <time>2023-03-20T11:37:57Z</time>
      </trkpt>
      <trkpt lat="44.46763" lon="5.5821">
        <ele>1406.3</ele>
        <time>2023-03-20T11:37:58Z</time>
      </trkpt>
      <trkpt lat="44.46763" lon="5.58206">
        <ele>1406.1</ele>
        <time>2023-03-20T11:37:59Z</time>
      </trkpt>
      <trkpt lat="44.46764" lon="5.58202">
        <ele>1405.9</ele>
        <time>2023-03-20T11:38:00Z</time>
      </trkpt>
      <trkpt lat="44.46765" lon="5.58198">
        <ele>1405.7</ele>
        <time>2023-03-20T11:38:01Z</time>
      </trkpt>
      <trkpt lat="44.46765" lon="5.58194">
        <ele>1405.4</ele>
        <time>2023-03-20T11:38:02Z</time>
      </trkpt>
      <trkpt lat="44.46767" lon="5.58189">
        <ele>1405.1</ele>
        <time>2023-03-20T11:38:03Z</time>
      </trkpt>
      <trkpt lat="44.46767" lon="5.58184">
        <ele>1404.7</ele>
        <time>2023-03-20T11:38:04Z</time>
      </trkpt>
      <trkpt lat="44.46768" lon="5.58179">
        <ele>1404.4</ele>
        <time>2023-03-20T11:38:05Z</time>
      </trkpt>
      <trkpt lat="44.4677" lon="5.58174">
        <ele>1404</ele>
        <time>2023-03-20T11:38:06Z</time>
      </trkpt>
      <trkpt lat="44.46771" lon="5.58168">
        <ele>1403.6</ele>
        <time>2023-03-20T11:38:07Z</time>
      </trkpt>
      <trkpt lat="44.46773" lon="5.58161">
        <ele>1403.2</ele>
        <time>2023-03-20T11:38:08Z</time>
      </trkpt>
      <trkpt lat="44.46776" lon="5.58155">
        <ele>1402.8</ele>
        <time>2023-03-20T11:38:09Z</time>
      </trkpt>
      <trkpt lat="44.46778" lon="5.58149">
        <ele>1402.4</ele>
        <time>2023-03-20T11:38:10Z</time>
      </trkpt>
      <trkpt lat="44.4678" lon="5.58144">
        <ele>1402.1</ele>
        <time>2023-03-20T11:38:11Z</time>
      </trkpt>
      <trkpt lat="44.46781" lon="5.58139">
        <ele>1401.8</ele>
        <time>2023-03-20T11:38:12Z</time>
      </trkpt>
      <trkpt lat="44.46782" lon="5.58135">
        <ele>1401.6</ele>
        <time>2023-03-20T11:38:13Z</time>
      </trkpt>
      <trkpt lat="44.46783" lon="5.58131">
        <ele>1401.3</ele>
        <time>2023-03-20T11:38:14Z</time>
      </trkpt>
      <trkpt lat="44.46783" lon="5.58126">
        <ele>1401</ele>
        <time>2023-03-20T11:38:15Z</time>
      </trkpt>
      <trkpt lat="44.46783" lon="5.58124">
        <ele>1400.9</ele>
        <time>2023-03-20T11:38:16Z</time>
      </trkpt>
      <trkpt lat="44.46784" lon="5.58121">
        <ele>1400.6</ele>
        <time>2023-03-20T11:38:17Z</time>
      </trkpt>
      <trkpt lat="44.46784" lon="5.58119">
        <ele>1400.5</ele>
        <time>2023-03-20T11:38:18Z</time>
      </trkpt>
      <trkpt lat="44.46786" lon="5.58115">
        <ele>1400.2</ele>
        <time>2023-03-20T11:38:19Z</time>
      </trkpt>
      <trkpt lat="44.46787" lon="5.58114">
        <ele>1400</ele>
        <time>2023-03-20T11:38:20Z</time>
      </trkpt>
      <trkpt lat="44.46789" lon="5.58109">
        <ele>1399.6</ele>
        <time>2023-03-20T11:38:21Z</time>
      </trkpt>
      <trkpt lat="44.46789" lon="5.58108">
        <ele>1399.4</ele>
        <time>2023-03-20T11:38:22Z</time>
      </trkpt>
      <trkpt lat="44.46791" lon="5.58103">
        <ele>1398.9</ele>
        <time>2023-03-20T11:38:23Z</time>
      </trkpt>
      <trkpt lat="44.46791" lon="5.58101">
        <ele>1398.7</ele>
        <time>2023-03-20T11:38:24Z</time>
      </trkpt>
      <trkpt lat="44.46792" lon="5.58098">
        <ele>1398.3</ele>
        <time>2023-03-20T11:38:25Z</time>
      </trkpt>
      <trkpt lat="44.46792" lon="5.58093">
        <ele>1397.8</ele>
        <time>2023-03-20T11:38:26Z</time>
      </trkpt>
      <trkpt lat="44.46791" lon="5.58088">
        <ele>1397.1</ele>
        <time>2023-03-20T11:38:27Z</time>
      </trkpt>
      <trkpt lat="44.46791" lon="5.58083">
        <ele>1396.3</ele>
        <time>2023-03-20T11:38:28Z</time>
      </trkpt>
      <trkpt lat="44.46791" lon="5.58078">
        <ele>1395.6</ele>
        <time>2023-03-20T11:38:29Z</time>
      </trkpt>
      <trkpt lat="44.4679" lon="5.58073">
        <ele>1394.9</ele>
        <time>2023-03-20T11:38:30Z</time>
      </trkpt>
      <trkpt lat="44.4679" lon="5.58069">
        <ele>1394.3</ele>
        <time>2023-03-20T11:38:31Z</time>
      </trkpt>
      <trkpt lat="44.4679" lon="5.58065">
        <ele>1393.6</ele>
        <time>2023-03-20T11:38:32Z</time>
      </trkpt>
      <trkpt lat="44.46791" lon="5.58061">
        <ele>1393</ele>
        <time>2023-03-20T11:38:33Z</time>
      </trkpt>
      <trkpt lat="44.46792" lon="5.58056">
        <ele>1392.5</ele>
        <time>2023-03-20T11:38:34Z</time>
      </trkpt>
      <trkpt lat="44.46793" lon="5.58052">
        <ele>1392</ele>
        <time>2023-03-20T11:38:35Z</time>
      </trkpt>
      <trkpt lat="44.46793" lon="5.58047">
        <ele>1391.4</ele>
        <time>2023-03-20T11:38:36Z</time>
      </trkpt>
      <trkpt lat="44.46794" lon="5.58042">
        <ele>1390.8</ele>
        <time>2023-03-20T11:38:37Z</time>
      </trkpt>
      <trkpt lat="44.46796" lon="5.58038">
        <ele>1390.3</ele>
        <time>2023-03-20T11:38:38Z</time>
      </trkpt>
      <trkpt lat="44.46797" lon="5.58034">
        <ele>1389.8</ele>
        <time>2023-03-20T11:38:39Z</time>
      </trkpt>
      <trkpt lat="44.46798" lon="5.5803">
        <ele>1389.4</ele>
        <time>2023-03-20T11:38:40Z</time>
      </trkpt>
      <trkpt lat="44.46799" lon="5.58026">
        <ele>1388.9</ele>
        <time>2023-03-20T11:38:41Z</time>
      </trkpt>
      <trkpt lat="44.468" lon="5.58022">
        <ele>1388.5</ele>
        <time>2023-03-20T11:38:42Z</time>
      </trkpt>
      <trkpt lat="44.46802" lon="5.58017">
        <ele>1387.9</ele>
        <time>2023-03-20T11:38:43Z</time>
      </trkpt>
      <trkpt lat="44.46804" lon="5.58011">
        <ele>1387.3</ele>
        <time>2023-03-20T11:38:44Z</time>
      </trkpt>
      <trkpt lat="44.46805" lon="5.58006">
        <ele>1386.8</ele>
        <time>2023-03-20T11:38:45Z</time>
      </trkpt>
      <trkpt lat="44.46805" lon="5.58001">
        <ele>1386.3</ele>
        <time>2023-03-20T11:38:46Z</time>
      </trkpt>
      <trkpt lat="44.46806" lon="5.57997">
        <ele>1385.8</ele>
        <time>2023-03-20T11:38:47Z</time>
      </trkpt>
      <trkpt lat="44.46805" lon="5.57992">
        <ele>1385.3</ele>
        <time>2023-03-20T11:38:48Z</time>
      </trkpt>
      <trkpt lat="44.46805" lon="5.57991">
        <ele>1385.1</ele>
        <time>2023-03-20T11:38:49Z</time>
      </trkpt>
      <trkpt lat="44.46805" lon="5.57987">
        <ele>1384.6</ele>
        <time>2023-03-20T11:38:50Z</time>
      </trkpt>
      <trkpt lat="44.46806" lon="5.57986">
        <ele>1384.4</ele>
        <time>2023-03-20T11:38:51Z</time>
      </trkpt>
      <trkpt lat="44.46807" lon="5.57982">
        <ele>1383.8</ele>
        <time>2023-03-20T11:38:52Z</time>
      </trkpt>
      <trkpt lat="44.46809" lon="5.57977">
        <ele>1383</ele>
        <time>2023-03-20T11:38:53Z</time>
      </trkpt>
      <trkpt lat="44.46809" lon="5.57976">
        <ele>1382.8</ele>
        <time>2023-03-20T11:38:54Z</time>
      </trkpt>
      <trkpt lat="44.4681" lon="5.57972">
        <ele>1382.2</ele>
        <time>2023-03-20T11:38:55Z</time>
      </trkpt>
      <trkpt lat="44.46811" lon="5.57967">
        <ele>1381.4</ele>
        <time>2023-03-20T11:38:56Z</time>
      </trkpt>
      <trkpt lat="44.46813" lon="5.57962">
        <ele>1380.6</ele>
        <time>2023-03-20T11:38:57Z</time>
      </trkpt>
      <trkpt lat="44.46814" lon="5.57956">
        <ele>1379.8</ele>
        <time>2023-03-20T11:38:58Z</time>
      </trkpt>
      <trkpt lat="44.46815" lon="5.5795">
        <ele>1379.1</ele>
        <time>2023-03-20T11:38:59Z</time>
      </trkpt>
      <trkpt lat="44.46816" lon="5.57945">
        <ele>1378.4</ele>
        <time>2023-03-20T11:39:00Z</time>
      </trkpt>
      <trkpt lat="44.46817" lon="5.57939">
        <ele>1377.9</ele>
        <time>2023-03-20T11:39:01Z</time>
      </trkpt>
      <trkpt lat="44.46818" lon="5.57934">
        <ele>1377.4</ele>
        <time>2023-03-20T11:39:02Z</time>
      </trkpt>
      <trkpt lat="44.4682" lon="5.57929">
        <ele>1376.9</ele>
        <time>2023-03-20T11:39:03Z</time>
      </trkpt>
      <trkpt lat="44.46822" lon="5.57925">
        <ele>1376.4</ele>
        <time>2023-03-20T11:39:04Z</time>
      </trkpt>
      <trkpt lat="44.46824" lon="5.5792">
        <ele>1376</ele>
        <time>2023-03-20T11:39:05Z</time>
      </trkpt>
      <trkpt lat="44.46825" lon="5.57914">
        <ele>1375.6</ele>
        <time>2023-03-20T11:39:06Z</time>
      </trkpt>
      <trkpt lat="44.46827" lon="5.57908">
        <ele>1375.1</ele>
        <time>2023-03-20T11:39:07Z</time>
      </trkpt>
      <trkpt lat="44.4683" lon="5.579">
        <ele>1374.6</ele>
        <time>2023-03-20T11:39:08Z</time>
      </trkpt>
      <trkpt lat="44.46833" lon="5.57893">
        <ele>1374.1</ele>
        <time>2023-03-20T11:39:09Z</time>
      </trkpt>
      <trkpt lat="44.46835" lon="5.57887">
        <ele>1373.7</ele>
        <time>2023-03-20T11:39:10Z</time>
      </trkpt>
      <trkpt lat="44.46838" lon="5.57882">
        <ele>1373.3</ele>
        <time>2023-03-20T11:39:11Z</time>
      </trkpt>
      <trkpt lat="44.4684" lon="5.57877">
        <ele>1372.9</ele>
        <time>2023-03-20T11:39:12Z</time>
      </trkpt>
      <trkpt lat="44.46842" lon="5.57873">
        <ele>1372.6</ele>
        <time>2023-03-20T11:39:13Z</time>
      </trkpt>
      <trkpt lat="44.46844" lon="5.5787">
        <ele>1372.2</ele>
        <time>2023-03-20T11:39:14Z</time>
      </trkpt>
      <trkpt lat="44.46845" lon="5.57866">
        <ele>1371.9</ele>
        <time>2023-03-20T11:39:15Z</time>
      </trkpt>
      <trkpt lat="44.46847" lon="5.57862">
        <ele>1371.5</ele>
        <time>2023-03-20T11:39:16Z</time>
      </trkpt>
      <trkpt lat="44.46848" lon="5.57858">
        <ele>1371.1</ele>
        <time>2023-03-20T11:39:17Z</time>
      </trkpt>
      <trkpt lat="44.4685" lon="5.57853">
        <ele>1370.8</ele>
        <time>2023-03-20T11:39:18Z</time>
      </trkpt>
      <trkpt lat="44.46851" lon="5.57849">
        <ele>1370.3</ele>
        <time>2023-03-20T11:39:19Z</time>
      </trkpt>
      <trkpt lat="44.46853" lon="5.57844">
        <ele>1370</ele>
        <time>2023-03-20T11:39:20Z</time>
      </trkpt>
      <trkpt lat="44.46854" lon="5.5784">
        <ele>1369.6</ele>
        <time>2023-03-20T11:39:21Z</time>
      </trkpt>
      <trkpt lat="44.46856" lon="5.57836">
        <ele>1369.3</ele>
        <time>2023-03-20T11:39:22Z</time>
      </trkpt>
      <trkpt lat="44.46857" lon="5.57832">
        <ele>1368.9</ele>
        <time>2023-03-20T11:39:23Z</time>
      </trkpt>
      <trkpt lat="44.46859" lon="5.57829">
        <ele>1368.6</ele>
        <time>2023-03-20T11:39:24Z</time>
      </trkpt>
      <trkpt lat="44.46861" lon="5.57824">
        <ele>1368.2</ele>
        <time>2023-03-20T11:39:25Z</time>
      </trkpt>
      <trkpt lat="44.46863" lon="5.57819">
        <ele>1367.8</ele>
        <time>2023-03-20T11:39:26Z</time>
      </trkpt>
      <trkpt lat="44.46865" lon="5.57814">
        <ele>1367.4</ele>
        <time>2023-03-20T11:39:27Z</time>
      </trkpt>
      <trkpt lat="44.46867" lon="5.5781">
        <ele>1367</ele>
        <time>2023-03-20T11:39:28Z</time>
      </trkpt>
      <trkpt lat="44.46869" lon="5.57805">
        <ele>1366.6</ele>
        <time>2023-03-20T11:39:29Z</time>
      </trkpt>
      <trkpt lat="44.46871" lon="5.578">
        <ele>1366.2</ele>
        <time>2023-03-20T11:39:30Z</time>
      </trkpt>
      <trkpt lat="44.46872" lon="5.57795">
        <ele>1365.9</ele>
        <time>2023-03-20T11:39:31Z</time>
      </trkpt>
      <trkpt lat="44.46873" lon="5.57789">
        <ele>1365.5</ele>
        <time>2023-03-20T11:39:32Z</time>
      </trkpt>
      <trkpt lat="44.46875" lon="5.57783">
        <ele>1364.9</ele>
        <time>2023-03-20T11:39:33Z</time>
      </trkpt>
      <trkpt lat="44.46878" lon="5.57776">
        <ele>1364.3</ele>
        <time>2023-03-20T11:39:34Z</time>
      </trkpt>
      <trkpt lat="44.4688" lon="5.5777">
        <ele>1363.8</ele>
        <time>2023-03-20T11:39:35Z</time>
      </trkpt>
      <trkpt lat="44.46881" lon="5.57765">
        <ele>1363.3</ele>
        <time>2023-03-20T11:39:36Z</time>
      </trkpt>
      <trkpt lat="44.46883" lon="5.5776">
        <ele>1362.9</ele>
        <time>2023-03-20T11:39:37Z</time>
      </trkpt>
      <trkpt lat="44.46884" lon="5.57754">
        <ele>1362.4</ele>
        <time>2023-03-20T11:39:38Z</time>
      </trkpt>
      <trkpt lat="44.46886" lon="5.5775">
        <ele>1362</ele>
        <time>2023-03-20T11:39:39Z</time>
      </trkpt>
      <trkpt lat="44.46888" lon="5.57747">
        <ele>1361.7</ele>
        <time>2023-03-20T11:39:40Z</time>
      </trkpt>
      <trkpt lat="44.46891" lon="5.57742">
        <ele>1361.3</ele>
        <time>2023-03-20T11:39:41Z</time>
      </trkpt>
      <trkpt lat="44.46893" lon="5.57738">
        <ele>1361</ele>
        <time>2023-03-20T11:39:42Z</time>
      </trkpt>
      <trkpt lat="44.46895" lon="5.57734">
        <ele>1360.7</ele>
        <time>2023-03-20T11:39:43Z</time>
      </trkpt>
      <trkpt lat="44.46896" lon="5.5773">
        <ele>1360.4</ele>
        <time>2023-03-20T11:39:44Z</time>
      </trkpt>
      <trkpt lat="44.46898" lon="5.57726">
        <ele>1360.2</ele>
        <time>2023-03-20T11:39:45Z</time>
      </trkpt>
      <trkpt lat="44.469" lon="5.57721">
        <ele>1359.9</ele>
        <time>2023-03-20T11:39:46Z</time>
      </trkpt>
      <trkpt lat="44.46902" lon="5.57716">
        <ele>1359.6</ele>
        <time>2023-03-20T11:39:47Z</time>
      </trkpt>
      <trkpt lat="44.46903" lon="5.5771">
        <ele>1359.2</ele>
        <time>2023-03-20T11:39:48Z</time>
      </trkpt>
      <trkpt lat="44.46906" lon="5.57703">
        <ele>1358.7</ele>
        <time>2023-03-20T11:39:49Z</time>
      </trkpt>
      <trkpt lat="44.46909" lon="5.57696">
        <ele>1358.2</ele>
        <time>2023-03-20T11:39:50Z</time>
      </trkpt>
      <trkpt lat="44.46911" lon="5.57689">
        <ele>1357.8</ele>
        <time>2023-03-20T11:39:51Z</time>
      </trkpt>
      <trkpt lat="44.46914" lon="5.57683">
        <ele>1357.4</ele>
        <time>2023-03-20T11:39:52Z</time>
      </trkpt>
      <trkpt lat="44.46916" lon="5.57679">
        <ele>1357.1</ele>
        <time>2023-03-20T11:39:53Z</time>
      </trkpt>
      <trkpt lat="44.46918" lon="5.57675">
        <ele>1356.8</ele>
        <time>2023-03-20T11:39:54Z</time>
      </trkpt>
      <trkpt lat="44.46919" lon="5.5767">
        <ele>1356.5</ele>
        <time>2023-03-20T11:39:55Z</time>
      </trkpt>
      <trkpt lat="44.46921" lon="5.57666">
        <ele>1356.2</ele>
        <time>2023-03-20T11:39:56Z</time>
      </trkpt>
      <trkpt lat="44.46922" lon="5.5766">
        <ele>1355.9</ele>
        <time>2023-03-20T11:39:57Z</time>
      </trkpt>
      <trkpt lat="44.46924" lon="5.57655">
        <ele>1355.6</ele>
        <time>2023-03-20T11:39:58Z</time>
      </trkpt>
      <trkpt lat="44.46927" lon="5.57649">
        <ele>1355.2</ele>
        <time>2023-03-20T11:39:59Z</time>
      </trkpt>
      <trkpt lat="44.4693" lon="5.57643">
        <ele>1354.7</ele>
        <time>2023-03-20T11:40:00Z</time>
      </trkpt>
      <trkpt lat="44.46933" lon="5.57636">
        <ele>1354.2</ele>
        <time>2023-03-20T11:40:01Z</time>
      </trkpt>
      <trkpt lat="44.46935" lon="5.57629">
        <ele>1353.7</ele>
        <time>2023-03-20T11:40:02Z</time>
      </trkpt>
      <trkpt lat="44.46936" lon="5.57621">
        <ele>1353.1</ele>
        <time>2023-03-20T11:40:03Z</time>
      </trkpt>
      <trkpt lat="44.46937" lon="5.57614">
        <ele>1352.4</ele>
        <time>2023-03-20T11:40:04Z</time>
      </trkpt>
      <trkpt lat="44.46938" lon="5.57607">
        <ele>1351.8</ele>
        <time>2023-03-20T11:40:05Z</time>
      </trkpt>
      <trkpt lat="44.4694" lon="5.57601">
        <ele>1351.2</ele>
        <time>2023-03-20T11:40:06Z</time>
      </trkpt>
      <trkpt lat="44.46942" lon="5.57595">
        <ele>1350.7</ele>
        <time>2023-03-20T11:40:07Z</time>
      </trkpt>
      <trkpt lat="44.46943" lon="5.57591">
        <ele>1350.3</ele>
        <time>2023-03-20T11:40:08Z</time>
      </trkpt>
      <trkpt lat="44.46944" lon="5.57587">
        <ele>1350</ele>
        <time>2023-03-20T11:40:09Z</time>
      </trkpt>
      <trkpt lat="44.46946" lon="5.57583">
        <ele>1349.7</ele>
        <time>2023-03-20T11:40:10Z</time>
      </trkpt>
      <trkpt lat="44.46947" lon="5.57578">
        <ele>1349.4</ele>
        <time>2023-03-20T11:40:11Z</time>
      </trkpt>
      <trkpt lat="44.46948" lon="5.57574">
        <ele>1349.2</ele>
        <time>2023-03-20T11:40:12Z</time>
      </trkpt>
      <trkpt lat="44.46949" lon="5.5757">
        <ele>1349</ele>
        <time>2023-03-20T11:40:13Z</time>
      </trkpt>
      <trkpt lat="44.4695" lon="5.57566">
        <ele>1348.9</ele>
        <time>2023-03-20T11:40:14Z</time>
      </trkpt>
      <trkpt lat="44.46952" lon="5.57561">
        <ele>1348.7</ele>
        <time>2023-03-20T11:40:15Z</time>
      </trkpt>
      <trkpt lat="44.46952" lon="5.5756">
        <ele>1348.6</ele>
        <time>2023-03-20T11:40:16Z</time>
      </trkpt>
      <trkpt lat="44.46954" lon="5.57555">
        <ele>1348.5</ele>
        <time>2023-03-20T11:40:17Z</time>
      </trkpt>
      <trkpt lat="44.46955" lon="5.57554">
        <ele>1348.4</ele>
        <time>2023-03-20T11:40:18Z</time>
      </trkpt>
      <trkpt lat="44.46957" lon="5.5755">
        <ele>1348.3</ele>
        <time>2023-03-20T11:40:19Z</time>
      </trkpt>
      <trkpt lat="44.46958" lon="5.57548">
        <ele>1348.2</ele>
        <time>2023-03-20T11:40:20Z</time>
      </trkpt>
      <trkpt lat="44.4696" lon="5.57543">
        <ele>1348</ele>
        <time>2023-03-20T11:40:21Z</time>
      </trkpt>
      <trkpt lat="44.46961" lon="5.57541">
        <ele>1347.9</ele>
        <time>2023-03-20T11:40:22Z</time>
      </trkpt>
      <trkpt lat="44.46962" lon="5.57538">
        <ele>1347.7</ele>
        <time>2023-03-20T11:40:23Z</time>
      </trkpt>
      <trkpt lat="44.46964" lon="5.57534">
        <ele>1347.5</ele>
        <time>2023-03-20T11:40:24Z</time>
      </trkpt>
      <trkpt lat="44.46965" lon="5.57532">
        <ele>1347.4</ele>
        <time>2023-03-20T11:40:25Z</time>
      </trkpt>
      <trkpt lat="44.46966" lon="5.57528">
        <ele>1347.2</ele>
        <time>2023-03-20T11:40:26Z</time>
      </trkpt>
      <trkpt lat="44.46968" lon="5.57524">
        <ele>1347</ele>
        <time>2023-03-20T11:40:27Z</time>
      </trkpt>
      <trkpt lat="44.46969" lon="5.57522">
        <ele>1346.9</ele>
        <time>2023-03-20T11:40:28Z</time>
      </trkpt>
      <trkpt lat="44.4697" lon="5.57519">
        <ele>1346.6</ele>
        <time>2023-03-20T11:40:29Z</time>
      </trkpt>
      <trkpt lat="44.46972" lon="5.57515">
        <ele>1346.4</ele>
        <time>2023-03-20T11:40:30Z</time>
      </trkpt>
      <trkpt lat="44.46974" lon="5.57512">
        <ele>1346.1</ele>
        <time>2023-03-20T11:40:31Z</time>
      </trkpt>
      <trkpt lat="44.46976" lon="5.57509">
        <ele>1345.8</ele>
        <time>2023-03-20T11:40:32Z</time>
      </trkpt>
      <trkpt lat="44.46978" lon="5.57505">
        <ele>1345.5</ele>
        <time>2023-03-20T11:40:33Z</time>
      </trkpt>
      <trkpt lat="44.46981" lon="5.57502">
        <ele>1345.2</ele>
        <time>2023-03-20T11:40:34Z</time>
      </trkpt>
      <trkpt lat="44.46983" lon="5.57498">
        <ele>1344.8</ele>
        <time>2023-03-20T11:40:35Z</time>
      </trkpt>
      <trkpt lat="44.46986" lon="5.57495">
        <ele>1344.4</ele>
        <time>2023-03-20T11:40:36Z</time>
      </trkpt>
      <trkpt lat="44.46989" lon="5.57492">
        <ele>1344</ele>
        <time>2023-03-20T11:40:37Z</time>
      </trkpt>
      <trkpt lat="44.46993" lon="5.57489">
        <ele>1343.6</ele>
        <time>2023-03-20T11:40:38Z</time>
      </trkpt>
      <trkpt lat="44.46996" lon="5.57487">
        <ele>1343.2</ele>
        <time>2023-03-20T11:40:39Z</time>
      </trkpt>
      <trkpt lat="44.46999" lon="5.57484">
        <ele>1342.9</ele>
        <time>2023-03-20T11:40:40Z</time>
      </trkpt>
      <trkpt lat="44.47002" lon="5.57482">
        <ele>1342.6</ele>
        <time>2023-03-20T11:40:41Z</time>
      </trkpt>
      <trkpt lat="44.47006" lon="5.57476">
        <ele>1341.9</ele>
        <time>2023-03-20T11:40:43Z</time>
      </trkpt>
      <trkpt lat="44.47008" lon="5.57473">
        <ele>1341.6</ele>
        <time>2023-03-20T11:40:44Z</time>
      </trkpt>
      <trkpt lat="44.4701" lon="5.57469">
        <ele>1341.3</ele>
        <time>2023-03-20T11:40:45Z</time>
      </trkpt>
      <trkpt lat="44.47012" lon="5.57465">
        <ele>1340.9</ele>
        <time>2023-03-20T11:40:46Z</time>
      </trkpt>
      <trkpt lat="44.47014" lon="5.57461">
        <ele>1340.6</ele>
        <time>2023-03-20T11:40:47Z</time>
      </trkpt>
      <trkpt lat="44.47015" lon="5.57457">
        <ele>1340.3</ele>
        <time>2023-03-20T11:40:48Z</time>
      </trkpt>
      <trkpt lat="44.47016" lon="5.57453">
        <ele>1339.9</ele>
        <time>2023-03-20T11:40:49Z</time>
      </trkpt>
      <trkpt lat="44.47017" lon="5.57448">
        <ele>1339.6</ele>
        <time>2023-03-20T11:40:50Z</time>
      </trkpt>
      <trkpt lat="44.47019" lon="5.57443">
        <ele>1339.2</ele>
        <time>2023-03-20T11:40:51Z</time>
      </trkpt>
      <trkpt lat="44.4702" lon="5.57438">
        <ele>1338.8</ele>
        <time>2023-03-20T11:40:52Z</time>
      </trkpt>
      <trkpt lat="44.47022" lon="5.57433">
        <ele>1338.4</ele>
        <time>2023-03-20T11:40:53Z</time>
      </trkpt>
      <trkpt lat="44.47024" lon="5.57428">
        <ele>1338.1</ele>
        <time>2023-03-20T11:40:54Z</time>
      </trkpt>
      <trkpt lat="44.47026" lon="5.57424">
        <ele>1337.8</ele>
        <time>2023-03-20T11:40:55Z</time>
      </trkpt>
      <trkpt lat="44.47029" lon="5.57419">
        <ele>1337.4</ele>
        <time>2023-03-20T11:40:56Z</time>
      </trkpt>
      <trkpt lat="44.47031" lon="5.57412">
        <ele>1336.9</ele>
        <time>2023-03-20T11:40:57Z</time>
      </trkpt>
      <trkpt lat="44.47033" lon="5.57404">
        <ele>1336.4</ele>
        <time>2023-03-20T11:40:58Z</time>
      </trkpt>
      <trkpt lat="44.47034" lon="5.57397">
        <ele>1336</ele>
        <time>2023-03-20T11:40:59Z</time>
      </trkpt>
      <trkpt lat="44.47036" lon="5.5739">
        <ele>1335.6</ele>
        <time>2023-03-20T11:41:00Z</time>
      </trkpt>
      <trkpt lat="44.47039" lon="5.57384">
        <ele>1335.1</ele>
        <time>2023-03-20T11:41:01Z</time>
      </trkpt>
      <trkpt lat="44.47042" lon="5.57378">
        <ele>1334.7</ele>
        <time>2023-03-20T11:41:02Z</time>
      </trkpt>
      <trkpt lat="44.47046" lon="5.57372">
        <ele>1334.1</ele>
        <time>2023-03-20T11:41:03Z</time>
      </trkpt>
      <trkpt lat="44.4705" lon="5.57367">
        <ele>1333.6</ele>
        <time>2023-03-20T11:41:04Z</time>
      </trkpt>
      <trkpt lat="44.47053" lon="5.57362">
        <ele>1333.1</ele>
        <time>2023-03-20T11:41:05Z</time>
      </trkpt>
      <trkpt lat="44.47057" lon="5.57356">
        <ele>1332.7</ele>
        <time>2023-03-20T11:41:06Z</time>
      </trkpt>
      <trkpt lat="44.4706" lon="5.5735">
        <ele>1332.3</ele>
        <time>2023-03-20T11:41:07Z</time>
      </trkpt>
      <trkpt lat="44.47062" lon="5.57342">
        <ele>1331.9</ele>
        <time>2023-03-20T11:41:08Z</time>
      </trkpt>
      <trkpt lat="44.47065" lon="5.57335">
        <ele>1331.5</ele>
        <time>2023-03-20T11:41:09Z</time>
      </trkpt>
      <trkpt lat="44.47067" lon="5.57329">
        <ele>1331.1</ele>
        <time>2023-03-20T11:41:10Z</time>
      </trkpt>
      <trkpt lat="44.4707" lon="5.57323">
        <ele>1330.7</ele>
        <time>2023-03-20T11:41:11Z</time>
      </trkpt>
      <trkpt lat="44.47072" lon="5.57318">
        <ele>1330.4</ele>
        <time>2023-03-20T11:41:12Z</time>
      </trkpt>
      <trkpt lat="44.47074" lon="5.57313">
        <ele>1330.1</ele>
        <time>2023-03-20T11:41:13Z</time>
      </trkpt>
      <trkpt lat="44.47077" lon="5.57309">
        <ele>1329.8</ele>
        <time>2023-03-20T11:41:14Z</time>
      </trkpt>
      <trkpt lat="44.47079" lon="5.57304">
        <ele>1329.5</ele>
        <time>2023-03-20T11:41:15Z</time>
      </trkpt>
      <trkpt lat="44.47082" lon="5.57301">
        <ele>1329.2</ele>
        <time>2023-03-20T11:41:16Z</time>
      </trkpt>
      <trkpt lat="44.47085" lon="5.57297">
        <ele>1329</ele>
        <time>2023-03-20T11:41:17Z</time>
      </trkpt>
      <trkpt lat="44.47087" lon="5.57292">
        <ele>1328.7</ele>
        <time>2023-03-20T11:41:18Z</time>
      </trkpt>
      <trkpt lat="44.4709" lon="5.57286">
        <ele>1328.4</ele>
        <time>2023-03-20T11:41:19Z</time>
      </trkpt>
      <trkpt lat="44.47093" lon="5.5728">
        <ele>1328.2</ele>
        <time>2023-03-20T11:41:20Z</time>
      </trkpt>
      <trkpt lat="44.47095" lon="5.57275">
        <ele>1327.9</ele>
        <time>2023-03-20T11:41:21Z</time>
      </trkpt>
      <trkpt lat="44.47098" lon="5.5727">
        <ele>1327.6</ele>
        <time>2023-03-20T11:41:22Z</time>
      </trkpt>
      <trkpt lat="44.47101" lon="5.57265">
        <ele>1327.2</ele>
        <time>2023-03-20T11:41:23Z</time>
      </trkpt>
      <trkpt lat="44.47103" lon="5.57259">
        <ele>1326.7</ele>
        <time>2023-03-20T11:41:24Z</time>
      </trkpt>
      <trkpt lat="44.47106" lon="5.57255">
        <ele>1326.3</ele>
        <time>2023-03-20T11:41:25Z</time>
      </trkpt>
      <trkpt lat="44.47109" lon="5.5725">
        <ele>1325.8</ele>
        <time>2023-03-20T11:41:26Z</time>
      </trkpt>
      <trkpt lat="44.47112" lon="5.57247">
        <ele>1325.4</ele>
        <time>2023-03-20T11:41:27Z</time>
      </trkpt>
      <trkpt lat="44.47115" lon="5.57242">
        <ele>1325</ele>
        <time>2023-03-20T11:41:28Z</time>
      </trkpt>
      <trkpt lat="44.47117" lon="5.57238">
        <ele>1324.7</ele>
        <time>2023-03-20T11:41:29Z</time>
      </trkpt>
      <trkpt lat="44.4712" lon="5.57234">
        <ele>1324.3</ele>
        <time>2023-03-20T11:41:30Z</time>
      </trkpt>
      <trkpt lat="44.47122" lon="5.5723">
        <ele>1323.9</ele>
        <time>2023-03-20T11:41:31Z</time>
      </trkpt>
      <trkpt lat="44.47125" lon="5.57226">
        <ele>1323.5</ele>
        <time>2023-03-20T11:41:32Z</time>
      </trkpt>
      <trkpt lat="44.47127" lon="5.57224">
        <ele>1323.2</ele>
        <time>2023-03-20T11:41:33Z</time>
      </trkpt>
      <trkpt lat="44.47129" lon="5.57221">
        <ele>1323</ele>
        <time>2023-03-20T11:41:34Z</time>
      </trkpt>
      <trkpt lat="44.47131" lon="5.57219">
        <ele>1322.7</ele>
        <time>2023-03-20T11:41:35Z</time>
      </trkpt>
      <trkpt lat="44.47135" lon="5.57214">
        <ele>1322.2</ele>
        <time>2023-03-20T11:41:36Z</time>
      </trkpt>
      <trkpt lat="44.47138" lon="5.57209">
        <ele>1321.8</ele>
        <time>2023-03-20T11:41:37Z</time>
      </trkpt>
      <trkpt lat="44.47141" lon="5.57204">
        <ele>1321.5</ele>
        <time>2023-03-20T11:41:38Z</time>
      </trkpt>
      <trkpt lat="44.47143" lon="5.57198">
        <ele>1321.1</ele>
        <time>2023-03-20T11:41:39Z</time>
      </trkpt>
      <trkpt lat="44.47146" lon="5.57192">
        <ele>1320.7</ele>
        <time>2023-03-20T11:41:40Z</time>
      </trkpt>
      <trkpt lat="44.47148" lon="5.57186">
        <ele>1320.3</ele>
        <time>2023-03-20T11:41:41Z</time>
      </trkpt>
      <trkpt lat="44.47151" lon="5.57181">
        <ele>1319.9</ele>
        <time>2023-03-20T11:41:42Z</time>
      </trkpt>
      <trkpt lat="44.47155" lon="5.57175">
        <ele>1319.5</ele>
        <time>2023-03-20T11:41:43Z</time>
      </trkpt>
      <trkpt lat="44.47159" lon="5.5717">
        <ele>1319</ele>
        <time>2023-03-20T11:41:44Z</time>
      </trkpt>
      <trkpt lat="44.47163" lon="5.57166">
        <ele>1318.6</ele>
        <time>2023-03-20T11:41:45Z</time>
      </trkpt>
      <trkpt lat="44.47166" lon="5.57161">
        <ele>1318.2</ele>
        <time>2023-03-20T11:41:46Z</time>
      </trkpt>
      <trkpt lat="44.47169" lon="5.57156">
        <ele>1317.7</ele>
        <time>2023-03-20T11:41:47Z</time>
      </trkpt>
      <trkpt lat="44.47171" lon="5.5715">
        <ele>1317.3</ele>
        <time>2023-03-20T11:41:48Z</time>
      </trkpt>
      <trkpt lat="44.47174" lon="5.57144">
        <ele>1316.8</ele>
        <time>2023-03-20T11:41:49Z</time>
      </trkpt>
      <trkpt lat="44.47176" lon="5.57138">
        <ele>1316.3</ele>
        <time>2023-03-20T11:41:50Z</time>
      </trkpt>
      <trkpt lat="44.47179" lon="5.57133">
        <ele>1315.8</ele>
        <time>2023-03-20T11:41:51Z</time>
      </trkpt>
      <trkpt lat="44.47182" lon="5.57127">
        <ele>1315.2</ele>
        <time>2023-03-20T11:41:52Z</time>
      </trkpt>
      <trkpt lat="44.47185" lon="5.57121">
        <ele>1314.6</ele>
        <time>2023-03-20T11:41:53Z</time>
      </trkpt>
      <trkpt lat="44.47189" lon="5.57116">
        <ele>1314</ele>
        <time>2023-03-20T11:41:54Z</time>
      </trkpt>
      <trkpt lat="44.47193" lon="5.57111">
        <ele>1313.5</ele>
        <time>2023-03-20T11:41:55Z</time>
      </trkpt>
      <trkpt lat="44.47196" lon="5.57106">
        <ele>1313</ele>
        <time>2023-03-20T11:41:56Z</time>
      </trkpt>
      <trkpt lat="44.472" lon="5.57102">
        <ele>1312.6</ele>
        <time>2023-03-20T11:41:57Z</time>
      </trkpt>
      <trkpt lat="44.47203" lon="5.57098">
        <ele>1312.2</ele>
        <time>2023-03-20T11:41:58Z</time>
      </trkpt>
      <trkpt lat="44.47207" lon="5.57094">
        <ele>1311.8</ele>
        <time>2023-03-20T11:41:59Z</time>
      </trkpt>
      <trkpt lat="44.4721" lon="5.57089">
        <ele>1311.4</ele>
        <time>2023-03-20T11:42:00Z</time>
      </trkpt>
      <trkpt lat="44.47212" lon="5.57084">
        <ele>1311.1</ele>
        <time>2023-03-20T11:42:01Z</time>
      </trkpt>
      <trkpt lat="44.47215" lon="5.5708">
        <ele>1310.8</ele>
        <time>2023-03-20T11:42:02Z</time>
      </trkpt>
      <trkpt lat="44.47217" lon="5.57075">
        <ele>1310.4</ele>
        <time>2023-03-20T11:42:03Z</time>
      </trkpt>
      <trkpt lat="44.47219" lon="5.5707">
        <ele>1310.1</ele>
        <time>2023-03-20T11:42:04Z</time>
      </trkpt>
      <trkpt lat="44.47221" lon="5.57066">
        <ele>1309.8</ele>
        <time>2023-03-20T11:42:05Z</time>
      </trkpt>
      <trkpt lat="44.47224" lon="5.57062">
        <ele>1309.5</ele>
        <time>2023-03-20T11:42:06Z</time>
      </trkpt>
      <trkpt lat="44.47227" lon="5.57057">
        <ele>1309.2</ele>
        <time>2023-03-20T11:42:07Z</time>
      </trkpt>
      <trkpt lat="44.4723" lon="5.57053">
        <ele>1308.8</ele>
        <time>2023-03-20T11:42:08Z</time>
      </trkpt>
      <trkpt lat="44.47232" lon="5.57048">
        <ele>1308.4</ele>
        <time>2023-03-20T11:42:09Z</time>
      </trkpt>
      <trkpt lat="44.47234" lon="5.57043">
        <ele>1308</ele>
        <time>2023-03-20T11:42:10Z</time>
      </trkpt>
      <trkpt lat="44.47236" lon="5.57038">
        <ele>1307.5</ele>
        <time>2023-03-20T11:42:11Z</time>
      </trkpt>
      <trkpt lat="44.47238" lon="5.57031">
        <ele>1307.1</ele>
        <time>2023-03-20T11:42:12Z</time>
      </trkpt>
      <trkpt lat="44.47239" lon="5.57027">
        <ele>1306.8</ele>
        <time>2023-03-20T11:42:13Z</time>
      </trkpt>
      <trkpt lat="44.47242" lon="5.57022">
        <ele>1306.4</ele>
        <time>2023-03-20T11:42:14Z</time>
      </trkpt>
      <trkpt lat="44.47244" lon="5.57019">
        <ele>1306.1</ele>
        <time>2023-03-20T11:42:15Z</time>
      </trkpt>
      <trkpt lat="44.47246" lon="5.57015">
        <ele>1305.8</ele>
        <time>2023-03-20T11:42:16Z</time>
      </trkpt>
      <trkpt lat="44.47249" lon="5.57011">
        <ele>1305.5</ele>
        <time>2023-03-20T11:42:17Z</time>
      </trkpt>
      <trkpt lat="44.47253" lon="5.57006">
        <ele>1305.1</ele>
        <time>2023-03-20T11:42:18Z</time>
      </trkpt>
      <trkpt lat="44.47258" lon="5.57002">
        <ele>1304.6</ele>
        <time>2023-03-20T11:42:19Z</time>
      </trkpt>
      <trkpt lat="44.47262" lon="5.56998">
        <ele>1304.2</ele>
        <time>2023-03-20T11:42:20Z</time>
      </trkpt>
      <trkpt lat="44.47267" lon="5.56995">
        <ele>1303.7</ele>
        <time>2023-03-20T11:42:21Z</time>
      </trkpt>
      <trkpt lat="44.47271" lon="5.56991">
        <ele>1303.3</ele>
        <time>2023-03-20T11:42:22Z</time>
      </trkpt>
      <trkpt lat="44.47274" lon="5.56988">
        <ele>1302.9</ele>
        <time>2023-03-20T11:42:23Z</time>
      </trkpt>
      <trkpt lat="44.47277" lon="5.56983">
        <ele>1302.6</ele>
        <time>2023-03-20T11:42:24Z</time>
      </trkpt>
      <trkpt lat="44.47282" lon="5.5698">
        <ele>1302.1</ele>
        <time>2023-03-20T11:42:25Z</time>
      </trkpt>
      <trkpt lat="44.47286" lon="5.56977">
        <ele>1301.7</ele>
        <time>2023-03-20T11:42:26Z</time>
      </trkpt>
      <trkpt lat="44.4729" lon="5.56974">
        <ele>1301.3</ele>
        <time>2023-03-20T11:42:27Z</time>
      </trkpt>
      <trkpt lat="44.47294" lon="5.56971">
        <ele>1300.9</ele>
        <time>2023-03-20T11:42:28Z</time>
      </trkpt>
      <trkpt lat="44.47296" lon="5.56969">
        <ele>1300.7</ele>
        <time>2023-03-20T11:42:29Z</time>
      </trkpt>
      <trkpt lat="44.47299" lon="5.56965">
        <ele>1300.4</ele>
        <time>2023-03-20T11:42:30Z</time>
      </trkpt>
      <trkpt lat="44.473" lon="5.56964">
        <ele>1300.3</ele>
        <time>2023-03-20T11:42:31Z</time>
      </trkpt>
      <trkpt lat="44.47302" lon="5.56961">
        <ele>1300.1</ele>
        <time>2023-03-20T11:42:32Z</time>
      </trkpt>
      <trkpt lat="44.47303" lon="5.5696">
        <ele>1300</ele>
        <time>2023-03-20T11:42:33Z</time>
      </trkpt>
      <trkpt lat="44.47305" lon="5.56958">
        <ele>1299.8</ele>
        <time>2023-03-20T11:42:34Z</time>
      </trkpt>
      <trkpt lat="44.47305" lon="5.56957">
        <ele>1299.8</ele>
        <time>2023-03-20T11:42:35Z</time>
      </trkpt>
      <trkpt lat="44.47306" lon="5.56955">
        <ele>1299.7</ele>
        <time>2023-03-20T11:42:36Z</time>
      </trkpt>
      <trkpt lat="44.47307" lon="5.56954">
        <ele>1299.6</ele>
        <time>2023-03-20T11:42:37Z</time>
      </trkpt>
      <trkpt lat="44.47309" lon="5.56951">
        <ele>1299.4</ele>
        <time>2023-03-20T11:42:38Z</time>
      </trkpt>
      <trkpt lat="44.47312" lon="5.56947">
        <ele>1299.1</ele>
        <time>2023-03-20T11:42:39Z</time>
      </trkpt>
      <trkpt lat="44.47313" lon="5.56945">
        <ele>1299.1</ele>
        <time>2023-03-20T11:42:40Z</time>
      </trkpt>
      <trkpt lat="44.47314" lon="5.56943">
        <ele>1298.9</ele>
        <time>2023-03-20T11:42:41Z</time>
      </trkpt>
      <trkpt lat="44.47315" lon="5.56941">
        <ele>1298.8</ele>
        <time>2023-03-20T11:42:43Z</time>
      </trkpt>
      <trkpt lat="44.47315" lon="5.56937">
        <ele>1298.6</ele>
        <time>2023-03-20T11:42:44Z</time>
      </trkpt>
      <trkpt lat="44.47315" lon="5.56932">
        <ele>1298.4</ele>
        <time>2023-03-20T11:42:45Z</time>
      </trkpt>
      <trkpt lat="44.47315" lon="5.5693">
        <ele>1298.3</ele>
        <time>2023-03-20T11:42:46Z</time>
      </trkpt>
      <trkpt lat="44.47316" lon="5.56925">
        <ele>1298</ele>
        <time>2023-03-20T11:42:47Z</time>
      </trkpt>
      <trkpt lat="44.47316" lon="5.56923">
        <ele>1297.9</ele>
        <time>2023-03-20T11:42:48Z</time>
      </trkpt>
      <trkpt lat="44.47318" lon="5.5692">
        <ele>1297.6</ele>
        <time>2023-03-20T11:42:49Z</time>
      </trkpt>
      <trkpt lat="44.47319" lon="5.56919">
        <ele>1297</ele>
        <time>2023-03-20T11:42:50Z</time>
      </trkpt>
      <trkpt lat="44.47319" lon="5.56917">
        <ele>1296.5</ele>
        <time>2023-03-20T11:42:51Z</time>
      </trkpt>
      <trkpt lat="44.4732" lon="5.56916">
        <ele>1296</ele>
        <time>2023-03-20T11:42:52Z</time>
      </trkpt>
      <trkpt lat="44.4732" lon="5.56915">
        <ele>1295.4</ele>
        <time>2023-03-20T11:42:53Z</time>
      </trkpt>
      <trkpt lat="44.4732" lon="5.56914">
        <ele>1294.9</ele>
        <time>2023-03-20T11:42:54Z</time>
      </trkpt>
      <trkpt lat="44.47321" lon="5.5691">
        <ele>1294.4</ele>
        <time>2023-03-20T11:42:56Z</time>
      </trkpt>
      <trkpt lat="44.47323" lon="5.56906">
        <ele>1293.8</ele>
        <time>2023-03-20T11:42:57Z</time>
      </trkpt>
      <trkpt lat="44.47323" lon="5.56905">
        <ele>1293.3</ele>
        <time>2023-03-20T11:42:58Z</time>
      </trkpt>
      <trkpt lat="44.47321" lon="5.56902">
        <ele>1287.8</ele>
        <time>2023-03-20T11:42:59Z</time>
      </trkpt>
      <trkpt lat="44.47321" lon="5.56901">
        <ele>1287.2</ele>
        <time>2023-03-20T11:43:00Z</time>
      </trkpt>
      <trkpt lat="44.4732" lon="5.56899">
        <ele>1286.7</ele>
        <time>2023-03-20T11:43:01Z</time>
      </trkpt>
      <trkpt lat="44.4732" lon="5.56899">
        <ele>1286.2</ele>
        <time>2023-03-20T11:43:02Z</time>
      </trkpt>
      <trkpt lat="44.47318" lon="5.56899">
        <ele>1285.6</ele>
        <time>2023-03-20T11:43:04Z</time>
      </trkpt>
      <trkpt lat="44.47316" lon="5.56896">
        <ele>1285.1</ele>
        <time>2023-03-20T11:43:06Z</time>
      </trkpt>
      <trkpt lat="44.47314" lon="5.56894">
        <ele>1284.6</ele>
        <time>2023-03-20T11:43:07Z</time>
      </trkpt>
      <trkpt lat="44.47314" lon="5.56892">
        <ele>1284</ele>
        <time>2023-03-20T11:43:08Z</time>
      </trkpt>
      <trkpt lat="44.47312" lon="5.5689">
        <ele>1283.5</ele>
        <time>2023-03-20T11:43:09Z</time>
      </trkpt>
      <trkpt lat="44.47312" lon="5.56889">
        <ele>1283</ele>
        <time>2023-03-20T11:43:10Z</time>
      </trkpt>
      <trkpt lat="44.47312" lon="5.56888">
        <ele>1282.4</ele>
        <time>2023-03-20T11:43:11Z</time>
      </trkpt>
      <trkpt lat="44.47311" lon="5.56888">
        <ele>1279</ele>
        <time>2023-03-20T11:43:12Z</time>
      </trkpt>
      <trkpt lat="44.4731" lon="5.56887">
        <ele>1278.5</ele>
        <time>2023-03-20T11:43:13Z</time>
      </trkpt>
      <trkpt lat="44.47309" lon="5.56887">
        <ele>1278</ele>
        <time>2023-03-20T11:43:14Z</time>
      </trkpt>
      <trkpt lat="44.47309" lon="5.56887">
        <ele>1277.4</ele>
        <time>2023-03-20T11:43:15Z</time>
      </trkpt>
      <trkpt lat="44.47308" lon="5.56887">
        <ele>1276.9</ele>
        <time>2023-03-20T11:43:16Z</time>
      </trkpt>
      <trkpt lat="44.47305" lon="5.56887">
        <ele>1276.4</ele>
        <time>2023-03-20T11:43:17Z</time>
      </trkpt>
      <trkpt lat="44.47304" lon="5.56887">
        <ele>1275.8</ele>
        <time>2023-03-20T11:43:18Z</time>
      </trkpt>
      <trkpt lat="44.473" lon="5.56886">
        <ele>1269.7</ele>
        <time>2023-03-20T11:43:19Z</time>
      </trkpt>
      <trkpt lat="44.47299" lon="5.56885">
        <ele>1266.5</ele>
        <time>2023-03-20T11:43:20Z</time>
      </trkpt>
      <trkpt lat="44.47296" lon="5.56886">
        <ele>1266.2</ele>
        <time>2023-03-20T11:43:21Z</time>
      </trkpt>
      <trkpt lat="44.47292" lon="5.56886">
        <ele>1266</ele>
        <time>2023-03-20T11:43:22Z</time>
      </trkpt>
      <trkpt lat="44.47289" lon="5.56887">
        <ele>1265.7</ele>
        <time>2023-03-20T11:43:23Z</time>
      </trkpt>
      <trkpt lat="44.47285" lon="5.56888">
        <ele>1265.4</ele>
        <time>2023-03-20T11:43:24Z</time>
      </trkpt>
      <trkpt lat="44.47282" lon="5.56889">
        <ele>1265.1</ele>
        <time>2023-03-20T11:43:25Z</time>
      </trkpt>
      <trkpt lat="44.47279" lon="5.5689">
        <ele>1264.8</ele>
        <time>2023-03-20T11:43:26Z</time>
      </trkpt>
      <trkpt lat="44.47275" lon="5.5689">
        <ele>1264.5</ele>
        <time>2023-03-20T11:43:27Z</time>
      </trkpt>
      <trkpt lat="44.47272" lon="5.5689">
        <ele>1264.2</ele>
        <time>2023-03-20T11:43:28Z</time>
      </trkpt>
      <trkpt lat="44.47268" lon="5.56891">
        <ele>1263.9</ele>
        <time>2023-03-20T11:43:29Z</time>
      </trkpt>
      <trkpt lat="44.47264" lon="5.56891">
        <ele>1263.6</ele>
        <time>2023-03-20T11:43:30Z</time>
      </trkpt>
      <trkpt lat="44.47259" lon="5.56893">
        <ele>1263.3</ele>
        <time>2023-03-20T11:43:31Z</time>
      </trkpt>
      <trkpt lat="44.47254" lon="5.56893">
        <ele>1262.9</ele>
        <time>2023-03-20T11:43:32Z</time>
      </trkpt>
      <trkpt lat="44.47249" lon="5.56895">
        <ele>1262.6</ele>
        <time>2023-03-20T11:43:33Z</time>
      </trkpt>
      <trkpt lat="44.47244" lon="5.56897">
        <ele>1262.2</ele>
        <time>2023-03-20T11:43:34Z</time>
      </trkpt>
      <trkpt lat="44.47238" lon="5.56899">
        <ele>1261.8</ele>
        <time>2023-03-20T11:43:35Z</time>
      </trkpt>
      <trkpt lat="44.47232" lon="5.56901">
        <ele>1261.5</ele>
        <time>2023-03-20T11:43:36Z</time>
      </trkpt>
      <trkpt lat="44.47227" lon="5.56904">
        <ele>1261.1</ele>
        <time>2023-03-20T11:43:37Z</time>
      </trkpt>
      <trkpt lat="44.47223" lon="5.56906">
        <ele>1260.8</ele>
        <time>2023-03-20T11:43:38Z</time>
      </trkpt>
      <trkpt lat="44.47218" lon="5.56908">
        <ele>1260.4</ele>
        <time>2023-03-20T11:43:39Z</time>
      </trkpt>
      <trkpt lat="44.47214" lon="5.56909">
        <ele>1260</ele>
        <time>2023-03-20T11:43:40Z</time>
      </trkpt>
      <trkpt lat="44.4721" lon="5.5691">
        <ele>1259.6</ele>
        <time>2023-03-20T11:43:41Z</time>
      </trkpt>
      <trkpt lat="44.47206" lon="5.56912">
        <ele>1259.3</ele>
        <time>2023-03-20T11:43:42Z</time>
      </trkpt>
      <trkpt lat="44.47202" lon="5.56914">
        <ele>1258.9</ele>
        <time>2023-03-20T11:43:43Z</time>
      </trkpt>
      <trkpt lat="44.47199" lon="5.56916">
        <ele>1258.5</ele>
        <time>2023-03-20T11:43:44Z</time>
      </trkpt>
      <trkpt lat="44.47194" lon="5.56918">
        <ele>1258</ele>
        <time>2023-03-20T11:43:45Z</time>
      </trkpt>
      <trkpt lat="44.4719" lon="5.56921">
        <ele>1257.5</ele>
        <time>2023-03-20T11:43:46Z</time>
      </trkpt>
      <trkpt lat="44.47185" lon="5.56923">
        <ele>1257</ele>
        <time>2023-03-20T11:43:47Z</time>
      </trkpt>
      <trkpt lat="44.4718" lon="5.56924">
        <ele>1256.4</ele>
        <time>2023-03-20T11:43:48Z</time>
      </trkpt>
      <trkpt lat="44.47175" lon="5.56924">
        <ele>1256</ele>
        <time>2023-03-20T11:43:49Z</time>
      </trkpt>
      <trkpt lat="44.47172" lon="5.56922">
        <ele>1255.7</ele>
        <time>2023-03-20T11:43:50Z</time>
      </trkpt>
      <trkpt lat="44.47169" lon="5.56921">
        <ele>1255.4</ele>
        <time>2023-03-20T11:43:51Z</time>
      </trkpt>
      <trkpt lat="44.47165" lon="5.56921">
        <ele>1255.2</ele>
        <time>2023-03-20T11:43:52Z</time>
      </trkpt>
      <trkpt lat="44.47162" lon="5.56922">
        <ele>1254.9</ele>
        <time>2023-03-20T11:43:53Z</time>
      </trkpt>
      <trkpt lat="44.47159" lon="5.56922">
        <ele>1254.7</ele>
        <time>2023-03-20T11:43:54Z</time>
      </trkpt>
      <trkpt lat="44.47159" lon="5.56922">
        <ele>1254.7</ele>
        <time>2023-03-20T11:43:55Z</time>
      </trkpt>
      <trkpt lat="44.47159" lon="5.56922">
        <ele>1254.6</ele>
        <time>2023-03-20T11:43:56Z</time>
      </trkpt>
      <trkpt lat="44.47158" lon="5.56922">
        <ele>1254.6</ele>
        <time>2023-03-20T11:43:57Z</time>
      </trkpt>
      <trkpt lat="44.47158" lon="5.56922">
        <ele>1254.6</ele>
        <time>2023-03-20T11:43:58Z</time>
      </trkpt>
      <trkpt lat="44.47157" lon="5.56922">
        <ele>1254.5</ele>
        <time>2023-03-20T11:43:59Z</time>
      </trkpt>
      <trkpt lat="44.47157" lon="5.56922">
        <ele>1254.5</ele>
        <time>2023-03-20T11:44:00Z</time>
      </trkpt>
      <trkpt lat="44.47156" lon="5.56922">
        <ele>1254.5</ele>
        <time>2023-03-20T11:44:01Z</time>
      </trkpt>
      <trkpt lat="44.47156" lon="5.56922">
        <ele>1254.4</ele>
        <time>2023-03-20T11:44:02Z</time>
      </trkpt>
      <trkpt lat="44.47155" lon="5.56922">
        <ele>1254.4</ele>
        <time>2023-03-20T11:44:03Z</time>
      </trkpt>
      <trkpt lat="44.47155" lon="5.56922">
        <ele>1254.4</ele>
        <time>2023-03-20T11:44:04Z</time>
      </trkpt>
      <trkpt lat="44.47154" lon="5.56922">
        <ele>1254.3</ele>
        <time>2023-03-20T11:44:05Z</time>
      </trkpt>
      <trkpt lat="44.47154" lon="5.56922">
        <ele>1254.3</ele>
        <time>2023-03-20T11:44:06Z</time>
      </trkpt>
      <trkpt lat="44.47153" lon="5.56922">
        <ele>1254.2</ele>
        <time>2023-03-20T11:44:07Z</time>
      </trkpt>
      <trkpt lat="44.4715" lon="5.56923">
        <ele>1254</ele>
        <time>2023-03-20T11:44:08Z</time>
      </trkpt>
      <trkpt lat="44.47148" lon="5.56924">
        <ele>1253.8</ele>
        <time>2023-03-20T11:44:09Z</time>
      </trkpt>
      <trkpt lat="44.47147" lon="5.56925">
        <ele>1253.8</ele>
        <time>2023-03-20T11:44:10Z</time>
      </trkpt>
      <trkpt lat="44.47145" lon="5.56926">
        <ele>1253.6</ele>
        <time>2023-03-20T11:44:11Z</time>
      </trkpt>
      <trkpt lat="44.47143" lon="5.56927">
        <ele>1253.5</ele>
        <time>2023-03-20T11:44:12Z</time>
      </trkpt>
      <trkpt lat="44.47139" lon="5.56929">
        <ele>1253.1</ele>
        <time>2023-03-20T11:44:13Z</time>
      </trkpt>
      <trkpt lat="44.47135" lon="5.56931">
        <ele>1252.8</ele>
        <time>2023-03-20T11:44:14Z</time>
      </trkpt>
      <trkpt lat="44.47132" lon="5.56932">
        <ele>1252.5</ele>
        <time>2023-03-20T11:44:15Z</time>
      </trkpt>
      <trkpt lat="44.47128" lon="5.56931">
        <ele>1252.3</ele>
        <time>2023-03-20T11:44:16Z</time>
      </trkpt>
      <trkpt lat="44.47127" lon="5.56931">
        <ele>1252.2</ele>
        <time>2023-03-20T11:44:17Z</time>
      </trkpt>
      <trkpt lat="44.47125" lon="5.56928">
        <ele>1252</ele>
        <time>2023-03-20T11:44:18Z</time>
      </trkpt>
      <trkpt lat="44.47124" lon="5.56928">
        <ele>1251.9</ele>
        <time>2023-03-20T11:44:19Z</time>
      </trkpt>
      <trkpt lat="44.47123" lon="5.56927">
        <ele>1251.9</ele>
        <time>2023-03-20T11:44:20Z</time>
      </trkpt>
      <trkpt lat="44.47123" lon="5.56927">
        <ele>1251.8</ele>
        <time>2023-03-20T11:44:21Z</time>
      </trkpt>
      <trkpt lat="44.47124" lon="5.56927">
        <ele>1251.8</ele>
        <time>2023-03-20T11:44:22Z</time>
      </trkpt>
      <trkpt lat="44.47124" lon="5.56926">
        <ele>1251.8</ele>
        <time>2023-03-20T11:44:23Z</time>
      </trkpt>
      <trkpt lat="44.47124" lon="5.56926">
        <ele>1251.8</ele>
        <time>2023-03-20T11:44:24Z</time>
      </trkpt>
      <trkpt lat="44.47124" lon="5.56926">
        <ele>1251.8</ele>
        <time>2023-03-20T11:44:25Z</time>
      </trkpt>
      <trkpt lat="44.47122" lon="5.56926">
        <ele>1251.6</ele>
        <time>2023-03-20T11:44:26Z</time>
      </trkpt>
      <trkpt lat="44.47118" lon="5.56926">
        <ele>1251.5</ele>
        <time>2023-03-20T11:44:27Z</time>
      </trkpt>
      <trkpt lat="44.47115" lon="5.56926">
        <ele>1251.3</ele>
        <time>2023-03-20T11:44:28Z</time>
      </trkpt>
      <trkpt lat="44.47113" lon="5.56926">
        <ele>1251.2</ele>
        <time>2023-03-20T11:44:29Z</time>
      </trkpt>
      <trkpt lat="44.47113" lon="5.56926">
        <ele>1251.2</ele>
        <time>2023-03-20T11:44:30Z</time>
      </trkpt>
      <trkpt lat="44.47113" lon="5.56926">
        <ele>1251.2</ele>
        <time>2023-03-20T11:44:31Z</time>
      </trkpt>
      <trkpt lat="44.47113" lon="5.56926">
        <ele>1251.2</ele>
        <time>2023-03-20T11:44:32Z</time>
      </trkpt>
      <trkpt lat="44.47112" lon="5.56927">
        <ele>1251.2</ele>
        <time>2023-03-20T11:44:33Z</time>
      </trkpt>
      <trkpt lat="44.47112" lon="5.56927">
        <ele>1251.2</ele>
        <time>2023-03-20T11:44:34Z</time>
      </trkpt>
      <trkpt lat="44.47112" lon="5.56927">
        <ele>1251.1</ele>
        <time>2023-03-20T11:44:35Z</time>
      </trkpt>
      <trkpt lat="44.47112" lon="5.56927">
        <ele>1251.1</ele>
        <time>2023-03-20T11:44:36Z</time>
      </trkpt>
      <trkpt lat="44.47111" lon="5.56927">
        <ele>1251.1</ele>
        <time>2023-03-20T11:44:37Z</time>
      </trkpt>
      <trkpt lat="44.47111" lon="5.56927">
        <ele>1251.1</ele>
        <time>2023-03-20T11:44:38Z</time>
      </trkpt>
      <trkpt lat="44.47111" lon="5.56927">
        <ele>1251.1</ele>
        <time>2023-03-20T11:44:39Z</time>
      </trkpt>
      <trkpt lat="44.47107" lon="5.56929">
        <ele>1250.9</ele>
        <time>2023-03-20T11:44:40Z</time>
      </trkpt>
      <trkpt lat="44.47105" lon="5.56929">
        <ele>1250.9</ele>
        <time>2023-03-20T11:44:41Z</time>
      </trkpt>
      <trkpt lat="44.47102" lon="5.5693">
        <ele>1250.7</ele>
        <time>2023-03-20T11:44:42Z</time>
      </trkpt>
      <trkpt lat="44.47101" lon="5.5693">
        <ele>1250.7</ele>
        <time>2023-03-20T11:44:43Z</time>
      </trkpt>
      <trkpt lat="44.471" lon="5.5693">
        <ele>1250.6</ele>
        <time>2023-03-20T11:44:44Z</time>
      </trkpt>
      <trkpt lat="44.47099" lon="5.56929">
        <ele>1250.6</ele>
        <time>2023-03-20T11:44:45Z</time>
      </trkpt>
      <trkpt lat="44.47098" lon="5.56928">
        <ele>1250.5</ele>
        <time>2023-03-20T11:44:46Z</time>
      </trkpt>
      <trkpt lat="44.47098" lon="5.56927">
        <ele>1250.5</ele>
        <time>2023-03-20T11:44:47Z</time>
      </trkpt>
      <trkpt lat="44.47098" lon="5.56927">
        <ele>1250.5</ele>
        <time>2023-03-20T11:44:48Z</time>
      </trkpt>
      <trkpt lat="44.47098" lon="5.56927">
        <ele>1250.5</ele>
        <time>2023-03-20T11:44:49Z</time>
      </trkpt>
      <trkpt lat="44.47098" lon="5.56927">
        <ele>1250.5</ele>
        <time>2023-03-20T11:44:50Z</time>
      </trkpt>
      <trkpt lat="44.47099" lon="5.56927">
        <ele>1250.5</ele>
        <time>2023-03-20T11:44:51Z</time>
      </trkpt>
      <trkpt lat="44.47099" lon="5.56927">
        <ele>1250.5</ele>
        <time>2023-03-20T11:44:52Z</time>
      </trkpt>
      <trkpt lat="44.47099" lon="5.56927">
        <ele>1250.5</ele>
        <time>2023-03-20T11:44:53Z</time>
      </trkpt>
      <trkpt lat="44.47099" lon="5.56927">
        <ele>1250.5</ele>
        <time>2023-03-20T11:44:54Z</time>
      </trkpt>
      <trkpt lat="44.47099" lon="5.56927">
        <ele>1250.4</ele>
        <time>2023-03-20T11:44:55Z</time>
      </trkpt>
      <trkpt lat="44.47099" lon="5.56927">
        <ele>1250.4</ele>
        <time>2023-03-20T11:44:56Z</time>
      </trkpt>
      <trkpt lat="44.47099" lon="5.56927">
        <ele>1250.4</ele>
        <time>2023-03-20T11:44:57Z</time>
      </trkpt>
      <trkpt lat="44.47099" lon="5.56927">
        <ele>1250.4</ele>
        <time>2023-03-20T11:44:58Z</time>
      </trkpt>
      <trkpt lat="44.47097" lon="5.56927">
        <ele>1250.4</ele>
        <time>2023-03-20T11:44:59Z</time>
      </trkpt>
      <trkpt lat="44.47095" lon="5.56927">
        <ele>1250.4</ele>
        <time>2023-03-20T11:45:00Z</time>
      </trkpt>
      <trkpt lat="44.47092" lon="5.56928">
        <ele>1250.6</ele>
        <time>2023-03-20T11:45:01Z</time>
      </trkpt>
      <trkpt lat="44.47089" lon="5.5693">
        <ele>1250.8</ele>
        <time>2023-03-20T11:45:02Z</time>
      </trkpt>
      <trkpt lat="44.47084" lon="5.56931">
        <ele>1251.1</ele>
        <time>2023-03-20T11:45:03Z</time>
      </trkpt>
      <trkpt lat="44.47079" lon="5.56933">
        <ele>1251.3</ele>
        <time>2023-03-20T11:45:04Z</time>
      </trkpt>
      <trkpt lat="44.47075" lon="5.56934">
        <ele>1251.5</ele>
        <time>2023-03-20T11:45:05Z</time>
      </trkpt>
      <trkpt lat="44.47071" lon="5.56934">
        <ele>1251.8</ele>
        <time>2023-03-20T11:45:06Z</time>
      </trkpt>
      <trkpt lat="44.47066" lon="5.56935">
        <ele>1252</ele>
        <time>2023-03-20T11:45:07Z</time>
      </trkpt>
      <trkpt lat="44.47062" lon="5.56935">
        <ele>1252.2</ele>
        <time>2023-03-20T11:45:08Z</time>
      </trkpt>
      <trkpt lat="44.47058" lon="5.56936">
        <ele>1252.5</ele>
        <time>2023-03-20T11:45:09Z</time>
      </trkpt>
      <trkpt lat="44.47053" lon="5.56937">
        <ele>1252.7</ele>
        <time>2023-03-20T11:45:10Z</time>
      </trkpt>
      <trkpt lat="44.47049" lon="5.56937">
        <ele>1252.9</ele>
        <time>2023-03-20T11:45:11Z</time>
      </trkpt>
      <trkpt lat="44.47045" lon="5.56938">
        <ele>1253.2</ele>
        <time>2023-03-20T11:45:12Z</time>
      </trkpt>
      <trkpt lat="44.47041" lon="5.56939">
        <ele>1253.5</ele>
        <time>2023-03-20T11:45:13Z</time>
      </trkpt>
      <trkpt lat="44.47036" lon="5.5694">
        <ele>1253.8</ele>
        <time>2023-03-20T11:45:14Z</time>
      </trkpt>
      <trkpt lat="44.47032" lon="5.56941">
        <ele>1254.1</ele>
        <time>2023-03-20T11:45:15Z</time>
      </trkpt>
      <trkpt lat="44.47028" lon="5.56944">
        <ele>1254.4</ele>
        <time>2023-03-20T11:45:16Z</time>
      </trkpt>
      <trkpt lat="44.47024" lon="5.56946">
        <ele>1254.6</ele>
        <time>2023-03-20T11:45:17Z</time>
      </trkpt>
      <trkpt lat="44.47021" lon="5.56949">
        <ele>1254.9</ele>
        <time>2023-03-20T11:45:18Z</time>
      </trkpt>
      <trkpt lat="44.47018" lon="5.56949">
        <ele>1255</ele>
        <time>2023-03-20T11:45:19Z</time>
      </trkpt>
      <trkpt lat="44.47015" lon="5.5695">
        <ele>1255.2</ele>
        <time>2023-03-20T11:45:20Z</time>
      </trkpt>
      <trkpt lat="44.47012" lon="5.5695">
        <ele>1255.4</ele>
        <time>2023-03-20T11:45:21Z</time>
      </trkpt>
      <trkpt lat="44.47009" lon="5.5695">
        <ele>1255.6</ele>
        <time>2023-03-20T11:45:22Z</time>
      </trkpt>
      <trkpt lat="44.47005" lon="5.56951">
        <ele>1255.9</ele>
        <time>2023-03-20T11:45:23Z</time>
      </trkpt>
      <trkpt lat="44.47001" lon="5.56953">
        <ele>1256.2</ele>
        <time>2023-03-20T11:45:24Z</time>
      </trkpt>
      <trkpt lat="44.46997" lon="5.56953">
        <ele>1256.5</ele>
        <time>2023-03-20T11:45:25Z</time>
      </trkpt>
      <trkpt lat="44.46993" lon="5.56955">
        <ele>1256.8</ele>
        <time>2023-03-20T11:45:26Z</time>
      </trkpt>
      <trkpt lat="44.46989" lon="5.56956">
        <ele>1257</ele>
        <time>2023-03-20T11:45:27Z</time>
      </trkpt>
      <trkpt lat="44.46985" lon="5.56958">
        <ele>1257.3</ele>
        <time>2023-03-20T11:45:28Z</time>
      </trkpt>
      <trkpt lat="44.46981" lon="5.56959">
        <ele>1257.6</ele>
        <time>2023-03-20T11:45:29Z</time>
      </trkpt>
      <trkpt lat="44.46977" lon="5.56961">
        <ele>1257.8</ele>
        <time>2023-03-20T11:45:30Z</time>
      </trkpt>
      <trkpt lat="44.46974" lon="5.56962">
        <ele>1258.1</ele>
        <time>2023-03-20T11:45:31Z</time>
      </trkpt>
      <trkpt lat="44.4697" lon="5.56963">
        <ele>1258.3</ele>
        <time>2023-03-20T11:45:32Z</time>
      </trkpt>
      <trkpt lat="44.46967" lon="5.56964">
        <ele>1258.5</ele>
        <time>2023-03-20T11:45:33Z</time>
      </trkpt>
      <trkpt lat="44.46963" lon="5.56965">
        <ele>1258.7</ele>
        <time>2023-03-20T11:45:34Z</time>
      </trkpt>
      <trkpt lat="44.46961" lon="5.56968">
        <ele>1258.9</ele>
        <time>2023-03-20T11:45:35Z</time>
      </trkpt>
      <trkpt lat="44.46959" lon="5.56971">
        <ele>1259.1</ele>
        <time>2023-03-20T11:45:36Z</time>
      </trkpt>
      <trkpt lat="44.46956" lon="5.56974">
        <ele>1259.3</ele>
        <time>2023-03-20T11:45:37Z</time>
      </trkpt>
      <trkpt lat="44.46955" lon="5.56976">
        <ele>1259.4</ele>
        <time>2023-03-20T11:45:38Z</time>
      </trkpt>
      <trkpt lat="44.46953" lon="5.56979">
        <ele>1259.6</ele>
        <time>2023-03-20T11:45:39Z</time>
      </trkpt>
      <trkpt lat="44.46953" lon="5.5698">
        <ele>1259.6</ele>
        <time>2023-03-20T11:45:40Z</time>
      </trkpt>
      <trkpt lat="44.46951" lon="5.56981">
        <ele>1259.7</ele>
        <time>2023-03-20T11:45:41Z</time>
      </trkpt>
      <trkpt lat="44.4695" lon="5.56982">
        <ele>1259.7</ele>
        <time>2023-03-20T11:45:42Z</time>
      </trkpt>
      <trkpt lat="44.46948" lon="5.56982">
        <ele>1259.6</ele>
        <time>2023-03-20T11:45:43Z</time>
      </trkpt>
      <trkpt lat="44.46948" lon="5.56982">
        <ele>1259.6</ele>
        <time>2023-03-20T11:45:44Z</time>
      </trkpt>
      <trkpt lat="44.46947" lon="5.56982">
        <ele>1259.5</ele>
        <time>2023-03-20T11:45:45Z</time>
      </trkpt>
      <trkpt lat="44.46947" lon="5.56982">
        <ele>1259.5</ele>
        <time>2023-03-20T11:45:46Z</time>
      </trkpt>
      <trkpt lat="44.46947" lon="5.56982">
        <ele>1259.5</ele>
        <time>2023-03-20T11:45:47Z</time>
      </trkpt>
      <trkpt lat="44.46947" lon="5.56982">
        <ele>1259.5</ele>
        <time>2023-03-20T11:45:48Z</time>
      </trkpt>
      <trkpt lat="44.46947" lon="5.56982">
        <ele>1259.5</ele>
        <time>2023-03-20T11:45:49Z</time>
      </trkpt>
      <trkpt lat="44.46947" lon="5.56982">
        <ele>1259.5</ele>
        <time>2023-03-20T11:45:50Z</time>
      </trkpt>
      <trkpt lat="44.46947" lon="5.56982">
        <ele>1259.5</ele>
        <time>2023-03-20T11:45:51Z</time>
      </trkpt>
      <trkpt lat="44.46947" lon="5.56982">
        <ele>1259.5</ele>
        <time>2023-03-20T11:45:52Z</time>
      </trkpt>
      <trkpt lat="44.46947" lon="5.56982">
        <ele>1259.5</ele>
        <time>2023-03-20T11:45:53Z</time>
      </trkpt>
      <trkpt lat="44.46947" lon="5.56982">
        <ele>1259.5</ele>
        <time>2023-03-20T11:45:54Z</time>
      </trkpt>
      <trkpt lat="44.46947" lon="5.56982">
        <ele>1259.5</ele>
        <time>2023-03-20T11:45:55Z</time>
      </trkpt>
      <trkpt lat="44.46946" lon="5.56978">
        <ele>1259.2</ele>
        <time>2023-03-20T11:46:01Z</time>
      </trkpt>
      <trkpt lat="44.46945" lon="5.56978">
        <ele>1259.2</ele>
        <time>2023-03-20T11:46:02Z</time>
      </trkpt>
      <trkpt lat="44.46945" lon="5.56977">
        <ele>1259.1</ele>
        <time>2023-03-20T11:46:03Z</time>
      </trkpt>
      <trkpt lat="44.46945" lon="5.56977">
        <ele>1259.1</ele>
        <time>2023-03-20T11:46:04Z</time>
      </trkpt>
      <trkpt lat="44.46945" lon="5.56977">
        <ele>1259.1</ele>
        <time>2023-03-20T11:46:05Z</time>
      </trkpt>
      <trkpt lat="44.46945" lon="5.56977">
        <ele>1259.1</ele>
        <time>2023-03-20T11:46:06Z</time>
      </trkpt>
      <trkpt lat="44.46945" lon="5.56977">
        <ele>1259.1</ele>
        <time>2023-03-20T11:46:07Z</time>
      </trkpt>
      <trkpt lat="44.46945" lon="5.56977">
        <ele>1259.1</ele>
        <time>2023-03-20T11:46:08Z</time>
      </trkpt>
      <trkpt lat="44.46945" lon="5.56976">
        <ele>1259.1</ele>
        <time>2023-03-20T11:46:09Z</time>
      </trkpt>
      <trkpt lat="44.46945" lon="5.56977">
        <ele>1259.1</ele>
        <time>2023-03-20T11:46:10Z</time>
      </trkpt>
      <trkpt lat="44.46946" lon="5.56977">
        <ele>1259</ele>
        <time>2023-03-20T11:46:11Z</time>
      </trkpt>
      <trkpt lat="44.46946" lon="5.56977">
        <ele>1259</ele>
        <time>2023-03-20T11:46:12Z</time>
      </trkpt>
      <trkpt lat="44.46942" lon="5.5699">
        <ele>1258.1</ele>
        <time>2023-03-20T11:48:55Z</time>
      </trkpt>
      <trkpt lat="44.46943" lon="5.56992">
        <ele>1258</ele>
        <time>2023-03-20T11:48:56Z</time>
      </trkpt>
      <trkpt lat="44.46944" lon="5.56993">
        <ele>1257.9</ele>
        <time>2023-03-20T11:48:57Z</time>
      </trkpt>
      <trkpt lat="44.46944" lon="5.56994">
        <ele>1257.9</ele>
        <time>2023-03-20T11:48:58Z</time>
      </trkpt>
      <trkpt lat="44.46944" lon="5.56994">
        <ele>1257.9</ele>
        <time>2023-03-20T11:48:59Z</time>
      </trkpt>
      <trkpt lat="44.46944" lon="5.56994">
        <ele>1257.8</ele>
        <time>2023-03-20T11:49:00Z</time>
      </trkpt>
      <trkpt lat="44.46945" lon="5.56994">
        <ele>1257.8</ele>
        <time>2023-03-20T11:49:01Z</time>
      </trkpt>
      <trkpt lat="44.46944" lon="5.56994">
        <ele>1257.8</ele>
        <time>2023-03-20T11:49:02Z</time>
      </trkpt>
      <trkpt lat="44.46944" lon="5.56995">
        <ele>1257.7</ele>
        <time>2023-03-20T11:49:03Z</time>
      </trkpt>
      <trkpt lat="44.46944" lon="5.56997">
        <ele>1257.6</ele>
        <time>2023-03-20T11:49:04Z</time>
      </trkpt>
      <trkpt lat="44.46944" lon="5.56999">
        <ele>1257.5</ele>
        <time>2023-03-20T11:49:05Z</time>
      </trkpt>
      <trkpt lat="44.46942" lon="5.57004">
        <ele>1257.2</ele>
        <time>2023-03-20T11:49:06Z</time>
      </trkpt>
      <trkpt lat="44.46941" lon="5.57006">
        <ele>1257</ele>
        <time>2023-03-20T11:49:07Z</time>
      </trkpt>
      <trkpt lat="44.46939" lon="5.5701">
        <ele>1256.7</ele>
        <time>2023-03-20T11:49:08Z</time>
      </trkpt>
      <trkpt lat="44.46937" lon="5.57014">
        <ele>1256.4</ele>
        <time>2023-03-20T11:49:09Z</time>
      </trkpt>
      <trkpt lat="44.46932" lon="5.5702">
        <ele>1255.9</ele>
        <time>2023-03-20T11:49:11Z</time>
      </trkpt>
      <trkpt lat="44.4693" lon="5.57023">
        <ele>1255.6</ele>
        <time>2023-03-20T11:49:12Z</time>
      </trkpt>
      <trkpt lat="44.46928" lon="5.57027">
        <ele>1255.4</ele>
        <time>2023-03-20T11:49:13Z</time>
      </trkpt>
      <trkpt lat="44.46927" lon="5.57032">
        <ele>1255</ele>
        <time>2023-03-20T11:49:15Z</time>
      </trkpt>
      <trkpt lat="44.46925" lon="5.57038">
        <ele>1254.7</ele>
        <time>2023-03-20T11:49:16Z</time>
      </trkpt>
      <trkpt lat="44.46925" lon="5.5704">
        <ele>1254.5</ele>
        <time>2023-03-20T11:49:17Z</time>
      </trkpt>
      <trkpt lat="44.46924" lon="5.57044">
        <ele>1254.3</ele>
        <time>2023-03-20T11:49:18Z</time>
      </trkpt>
      <trkpt lat="44.46923" lon="5.57048">
        <ele>1254</ele>
        <time>2023-03-20T11:49:19Z</time>
      </trkpt>
      <trkpt lat="44.46922" lon="5.57053">
        <ele>1253.7</ele>
        <time>2023-03-20T11:49:20Z</time>
      </trkpt>
      <trkpt lat="44.46922" lon="5.57057">
        <ele>1253.5</ele>
        <time>2023-03-20T11:49:21Z</time>
      </trkpt>
      <trkpt lat="44.46921" lon="5.57061">
        <ele>1253.2</ele>
        <time>2023-03-20T11:49:22Z</time>
      </trkpt>
      <trkpt lat="44.4692" lon="5.57066">
        <ele>1252.9</ele>
        <time>2023-03-20T11:49:23Z</time>
      </trkpt>
      <trkpt lat="44.46919" lon="5.57071">
        <ele>1252.6</ele>
        <time>2023-03-20T11:49:24Z</time>
      </trkpt>
      <trkpt lat="44.46918" lon="5.57076">
        <ele>1252.3</ele>
        <time>2023-03-20T11:49:25Z</time>
      </trkpt>
      <trkpt lat="44.46917" lon="5.57082">
        <ele>1251.9</ele>
        <time>2023-03-20T11:49:26Z</time>
      </trkpt>
      <trkpt lat="44.46916" lon="5.57088">
        <ele>1251.5</ele>
        <time>2023-03-20T11:49:27Z</time>
      </trkpt>
      <trkpt lat="44.46915" lon="5.57095">
        <ele>1251.1</ele>
        <time>2023-03-20T11:49:28Z</time>
      </trkpt>
      <trkpt lat="44.46915" lon="5.57104">
        <ele>1250.6</ele>
        <time>2023-03-20T11:49:29Z</time>
      </trkpt>
      <trkpt lat="44.46915" lon="5.57113">
        <ele>1250.1</ele>
        <time>2023-03-20T11:49:30Z</time>
      </trkpt>
      <trkpt lat="44.46914" lon="5.57121">
        <ele>1249.6</ele>
        <time>2023-03-20T11:49:31Z</time>
      </trkpt>
      <trkpt lat="44.46913" lon="5.57129">
        <ele>1249.1</ele>
        <time>2023-03-20T11:49:32Z</time>
      </trkpt>
      <trkpt lat="44.46912" lon="5.57137">
        <ele>1248.6</ele>
        <time>2023-03-20T11:49:33Z</time>
      </trkpt>
      <trkpt lat="44.46911" lon="5.57144">
        <ele>1248.1</ele>
        <time>2023-03-20T11:49:34Z</time>
      </trkpt>
      <trkpt lat="44.4691" lon="5.57152">
        <ele>1247.7</ele>
        <time>2023-03-20T11:49:35Z</time>
      </trkpt>
      <trkpt lat="44.46908" lon="5.57158">
        <ele>1247.3</ele>
        <time>2023-03-20T11:49:36Z</time>
      </trkpt>
      <trkpt lat="44.46906" lon="5.57166">
        <ele>1246.8</ele>
        <time>2023-03-20T11:49:37Z</time>
      </trkpt>
      <trkpt lat="44.46903" lon="5.57175">
        <ele>1246.2</ele>
        <time>2023-03-20T11:49:38Z</time>
      </trkpt>
      <trkpt lat="44.46901" lon="5.57184">
        <ele>1245.6</ele>
        <time>2023-03-20T11:49:39Z</time>
      </trkpt>
      <trkpt lat="44.46897" lon="5.5719">
        <ele>1245.1</ele>
        <time>2023-03-20T11:49:40Z</time>
      </trkpt>
      <trkpt lat="44.46894" lon="5.57197">
        <ele>1244.7</ele>
        <time>2023-03-20T11:49:41Z</time>
      </trkpt>
      <trkpt lat="44.4689" lon="5.57203">
        <ele>1244.2</ele>
        <time>2023-03-20T11:49:42Z</time>
      </trkpt>
      <trkpt lat="44.46887" lon="5.5721">
        <ele>1243.7</ele>
        <time>2023-03-20T11:49:43Z</time>
      </trkpt>
      <trkpt lat="44.46884" lon="5.57215">
        <ele>1243.3</ele>
        <time>2023-03-20T11:49:44Z</time>
      </trkpt>
      <trkpt lat="44.46882" lon="5.57219">
        <ele>1243</ele>
        <time>2023-03-20T11:49:45Z</time>
      </trkpt>
      <trkpt lat="44.46879" lon="5.57224">
        <ele>1242.6</ele>
        <time>2023-03-20T11:49:46Z</time>
      </trkpt>
      <trkpt lat="44.46876" lon="5.57228">
        <ele>1242.3</ele>
        <time>2023-03-20T11:49:47Z</time>
      </trkpt>
      <trkpt lat="44.46874" lon="5.57233">
        <ele>1241.9</ele>
        <time>2023-03-20T11:49:48Z</time>
      </trkpt>
      <trkpt lat="44.46872" lon="5.57238">
        <ele>1241.6</ele>
        <time>2023-03-20T11:49:49Z</time>
      </trkpt>
      <trkpt lat="44.46871" lon="5.57242">
        <ele>1241.3</ele>
        <time>2023-03-20T11:49:50Z</time>
      </trkpt>
      <trkpt lat="44.46871" lon="5.57246">
        <ele>1241.1</ele>
        <time>2023-03-20T11:49:51Z</time>
      </trkpt>
      <trkpt lat="44.4687" lon="5.5725">
        <ele>1240.8</ele>
        <time>2023-03-20T11:49:52Z</time>
      </trkpt>
      <trkpt lat="44.46869" lon="5.57255">
        <ele>1240.5</ele>
        <time>2023-03-20T11:49:53Z</time>
      </trkpt>
      <trkpt lat="44.46869" lon="5.5726">
        <ele>1240.2</ele>
        <time>2023-03-20T11:49:54Z</time>
      </trkpt>
      <trkpt lat="44.4687" lon="5.57268">
        <ele>1239.7</ele>
        <time>2023-03-20T11:49:55Z</time>
      </trkpt>
      <trkpt lat="44.46872" lon="5.57276">
        <ele>1239.2</ele>
        <time>2023-03-20T11:49:56Z</time>
      </trkpt>
      <trkpt lat="44.46874" lon="5.57283">
        <ele>1238.8</ele>
        <time>2023-03-20T11:49:57Z</time>
      </trkpt>
      <trkpt lat="44.46874" lon="5.5729">
        <ele>1238.4</ele>
        <time>2023-03-20T11:49:58Z</time>
      </trkpt>
      <trkpt lat="44.46874" lon="5.57296">
        <ele>1238</ele>
        <time>2023-03-20T11:49:59Z</time>
      </trkpt>
      <trkpt lat="44.46874" lon="5.57303">
        <ele>1237.6</ele>
        <time>2023-03-20T11:50:00Z</time>
      </trkpt>
      <trkpt lat="44.46874" lon="5.5731">
        <ele>1237.2</ele>
        <time>2023-03-20T11:50:01Z</time>
      </trkpt>
      <trkpt lat="44.46873" lon="5.57316">
        <ele>1236.8</ele>
        <time>2023-03-20T11:50:02Z</time>
      </trkpt>
      <trkpt lat="44.46872" lon="5.57323">
        <ele>1236.4</ele>
        <time>2023-03-20T11:50:03Z</time>
      </trkpt>
      <trkpt lat="44.4687" lon="5.57331">
        <ele>1235.9</ele>
        <time>2023-03-20T11:50:04Z</time>
      </trkpt>
      <trkpt lat="44.46868" lon="5.57339">
        <ele>1235.4</ele>
        <time>2023-03-20T11:50:05Z</time>
      </trkpt>
      <trkpt lat="44.46866" lon="5.57347">
        <ele>1234.8</ele>
        <time>2023-03-20T11:50:06Z</time>
      </trkpt>
      <trkpt lat="44.46862" lon="5.57354">
        <ele>1234.3</ele>
        <time>2023-03-20T11:50:07Z</time>
      </trkpt>
      <trkpt lat="44.46858" lon="5.5736">
        <ele>1233.8</ele>
        <time>2023-03-20T11:50:08Z</time>
      </trkpt>
      <trkpt lat="44.46855" lon="5.57367">
        <ele>1233.3</ele>
        <time>2023-03-20T11:50:09Z</time>
      </trkpt>
      <trkpt lat="44.46851" lon="5.57375">
        <ele>1232.8</ele>
        <time>2023-03-20T11:50:10Z</time>
      </trkpt>
      <trkpt lat="44.46848" lon="5.57384">
        <ele>1232.2</ele>
        <time>2023-03-20T11:50:11Z</time>
      </trkpt>
      <trkpt lat="44.46847" lon="5.57392">
        <ele>1231.6</ele>
        <time>2023-03-20T11:50:12Z</time>
      </trkpt>
      <trkpt lat="44.46844" lon="5.57401">
        <ele>1231.1</ele>
        <time>2023-03-20T11:50:13Z</time>
      </trkpt>
      <trkpt lat="44.46841" lon="5.57409">
        <ele>1230.5</ele>
        <time>2023-03-20T11:50:14Z</time>
      </trkpt>
      <trkpt lat="44.46836" lon="5.57416">
        <ele>1229.9</ele>
        <time>2023-03-20T11:50:15Z</time>
      </trkpt>
      <trkpt lat="44.4683" lon="5.57423">
        <ele>1229.3</ele>
        <time>2023-03-20T11:50:16Z</time>
      </trkpt>
      <trkpt lat="44.46824" lon="5.5743">
        <ele>1228.6</ele>
        <time>2023-03-20T11:50:17Z</time>
      </trkpt>
      <trkpt lat="44.46817" lon="5.57438">
        <ele>1227.9</ele>
        <time>2023-03-20T11:50:18Z</time>
      </trkpt>
      <trkpt lat="44.46812" lon="5.57446">
        <ele>1227.2</ele>
        <time>2023-03-20T11:50:19Z</time>
      </trkpt>
      <trkpt lat="44.46806" lon="5.57454">
        <ele>1226.6</ele>
        <time>2023-03-20T11:50:20Z</time>
      </trkpt>
      <trkpt lat="44.46801" lon="5.57462">
        <ele>1225.9</ele>
        <time>2023-03-20T11:50:21Z</time>
      </trkpt>
      <trkpt lat="44.46796" lon="5.57472">
        <ele>1225.2</ele>
        <time>2023-03-20T11:50:22Z</time>
      </trkpt>
      <trkpt lat="44.46791" lon="5.57482">
        <ele>1224.4</ele>
        <time>2023-03-20T11:50:23Z</time>
      </trkpt>
      <trkpt lat="44.46785" lon="5.57491">
        <ele>1223.7</ele>
        <time>2023-03-20T11:50:24Z</time>
      </trkpt>
      <trkpt lat="44.46779" lon="5.57499">
        <ele>1223.1</ele>
        <time>2023-03-20T11:50:25Z</time>
      </trkpt>
      <trkpt lat="44.46774" lon="5.57505">
        <ele>1222.5</ele>
        <time>2023-03-20T11:50:26Z</time>
      </trkpt>
      <trkpt lat="44.46768" lon="5.5751">
        <ele>1221.8</ele>
        <time>2023-03-20T11:50:27Z</time>
      </trkpt>
      <trkpt lat="44.46762" lon="5.57517">
        <ele>1221.2</ele>
        <time>2023-03-20T11:50:28Z</time>
      </trkpt>
      <trkpt lat="44.46758" lon="5.57523">
        <ele>1220.8</ele>
        <time>2023-03-20T11:50:29Z</time>
      </trkpt>
      <trkpt lat="44.46755" lon="5.57529">
        <ele>1220.3</ele>
        <time>2023-03-20T11:50:30Z</time>
      </trkpt>
      <trkpt lat="44.46751" lon="5.57535">
        <ele>1219.8</ele>
        <time>2023-03-20T11:50:31Z</time>
      </trkpt>
      <trkpt lat="44.46746" lon="5.57541">
        <ele>1219.3</ele>
        <time>2023-03-20T11:50:32Z</time>
      </trkpt>
      <trkpt lat="44.46741" lon="5.57548">
        <ele>1218.7</ele>
        <time>2023-03-20T11:50:33Z</time>
      </trkpt>
      <trkpt lat="44.46737" lon="5.57554">
        <ele>1218.2</ele>
        <time>2023-03-20T11:50:34Z</time>
      </trkpt>
      <trkpt lat="44.46733" lon="5.57563">
        <ele>1217.6</ele>
        <time>2023-03-20T11:50:35Z</time>
      </trkpt>
      <trkpt lat="44.46729" lon="5.57571">
        <ele>1216.9</ele>
        <time>2023-03-20T11:50:36Z</time>
      </trkpt>
      <trkpt lat="44.46724" lon="5.5758">
        <ele>1216.3</ele>
        <time>2023-03-20T11:50:37Z</time>
      </trkpt>
      <trkpt lat="44.46719" lon="5.57589">
        <ele>1215.6</ele>
        <time>2023-03-20T11:50:38Z</time>
      </trkpt>
      <trkpt lat="44.46713" lon="5.57597">
        <ele>1214.9</ele>
        <time>2023-03-20T11:50:39Z</time>
      </trkpt>
      <trkpt lat="44.46707" lon="5.57604">
        <ele>1214.2</ele>
        <time>2023-03-20T11:50:40Z</time>
      </trkpt>
      <trkpt lat="44.46699" lon="5.57611">
        <ele>1213.5</ele>
        <time>2023-03-20T11:50:41Z</time>
      </trkpt>
      <trkpt lat="44.46693" lon="5.57618">
        <ele>1212.8</ele>
        <time>2023-03-20T11:50:42Z</time>
      </trkpt>
      <trkpt lat="44.46687" lon="5.57623">
        <ele>1212.2</ele>
        <time>2023-03-20T11:50:43Z</time>
      </trkpt>
      <trkpt lat="44.46682" lon="5.57631">
        <ele>1211.6</ele>
        <time>2023-03-20T11:50:44Z</time>
      </trkpt>
      <trkpt lat="44.46676" lon="5.57639">
        <ele>1210.9</ele>
        <time>2023-03-20T11:50:45Z</time>
      </trkpt>
      <trkpt lat="44.4667" lon="5.57647">
        <ele>1210.2</ele>
        <time>2023-03-20T11:50:46Z</time>
      </trkpt>
      <trkpt lat="44.46663" lon="5.57655">
        <ele>1209.5</ele>
        <time>2023-03-20T11:50:47Z</time>
      </trkpt>
      <trkpt lat="44.46657" lon="5.57663">
        <ele>1208.7</ele>
        <time>2023-03-20T11:50:48Z</time>
      </trkpt>
      <trkpt lat="44.4665" lon="5.5767">
        <ele>1208</ele>
        <time>2023-03-20T11:50:49Z</time>
      </trkpt>
      <trkpt lat="44.46643" lon="5.57677">
        <ele>1207.3</ele>
        <time>2023-03-20T11:50:50Z</time>
      </trkpt>
      <trkpt lat="44.46635" lon="5.57683">
        <ele>1206.6</ele>
        <time>2023-03-20T11:50:51Z</time>
      </trkpt>
      <trkpt lat="44.46628" lon="5.57688">
        <ele>1205.9</ele>
        <time>2023-03-20T11:50:52Z</time>
      </trkpt>
      <trkpt lat="44.46621" lon="5.57695">
        <ele>1205.1</ele>
        <time>2023-03-20T11:50:53Z</time>
      </trkpt>
      <trkpt lat="44.46613" lon="5.57703">
        <ele>1204.3</ele>
        <time>2023-03-20T11:50:54Z</time>
      </trkpt>
      <trkpt lat="44.46605" lon="5.57711">
        <ele>1203.5</ele>
        <time>2023-03-20T11:50:55Z</time>
      </trkpt>
      <trkpt lat="44.46597" lon="5.5772">
        <ele>1202.7</ele>
        <time>2023-03-20T11:50:56Z</time>
      </trkpt>
      <trkpt lat="44.46589" lon="5.5773">
        <ele>1201.8</ele>
        <time>2023-03-20T11:50:57Z</time>
      </trkpt>
      <trkpt lat="44.46582" lon="5.57739">
        <ele>1201</ele>
        <time>2023-03-20T11:50:58Z</time>
      </trkpt>
      <trkpt lat="44.46574" lon="5.57747">
        <ele>1200.1</ele>
        <time>2023-03-20T11:50:59Z</time>
      </trkpt>
      <trkpt lat="44.46567" lon="5.57755">
        <ele>1199.4</ele>
        <time>2023-03-20T11:51:00Z</time>
      </trkpt>
      <trkpt lat="44.46559" lon="5.57762">
        <ele>1198.6</ele>
        <time>2023-03-20T11:51:01Z</time>
      </trkpt>
      <trkpt lat="44.46551" lon="5.57771">
        <ele>1197.7</ele>
        <time>2023-03-20T11:51:02Z</time>
      </trkpt>
      <trkpt lat="44.46543" lon="5.57779">
        <ele>1196.9</ele>
        <time>2023-03-20T11:51:03Z</time>
      </trkpt>
      <trkpt lat="44.46535" lon="5.57788">
        <ele>1196</ele>
        <time>2023-03-20T11:51:04Z</time>
      </trkpt>
      <trkpt lat="44.46528" lon="5.57797">
        <ele>1195.3</ele>
        <time>2023-03-20T11:51:05Z</time>
      </trkpt>
      <trkpt lat="44.46521" lon="5.57806">
        <ele>1194.5</ele>
        <time>2023-03-20T11:51:06Z</time>
      </trkpt>
      <trkpt lat="44.46515" lon="5.57815">
        <ele>1193.7</ele>
        <time>2023-03-20T11:51:07Z</time>
      </trkpt>
      <trkpt lat="44.4651" lon="5.57825">
        <ele>1193</ele>
        <time>2023-03-20T11:51:08Z</time>
      </trkpt>
      <trkpt lat="44.46508" lon="5.57835">
        <ele>1192.4</ele>
        <time>2023-03-20T11:51:09Z</time>
      </trkpt>
      <trkpt lat="44.46507" lon="5.57846">
        <ele>1191.7</ele>
        <time>2023-03-20T11:51:10Z</time>
      </trkpt>
      <trkpt lat="44.46506" lon="5.57856">
        <ele>1191.1</ele>
        <time>2023-03-20T11:51:11Z</time>
      </trkpt>
      <trkpt lat="44.46504" lon="5.57863">
        <ele>1190.7</ele>
        <time>2023-03-20T11:51:12Z</time>
      </trkpt>
      <trkpt lat="44.465" lon="5.57869">
        <ele>1190.2</ele>
        <time>2023-03-20T11:51:13Z</time>
      </trkpt>
      <trkpt lat="44.46495" lon="5.57872">
        <ele>1189.7</ele>
        <time>2023-03-20T11:51:14Z</time>
      </trkpt>
      <trkpt lat="44.46489" lon="5.5787">
        <ele>1189.2</ele>
        <time>2023-03-20T11:51:15Z</time>
      </trkpt>
      <trkpt lat="44.46485" lon="5.57867">
        <ele>1188.8</ele>
        <time>2023-03-20T11:51:16Z</time>
      </trkpt>
      <trkpt lat="44.46483" lon="5.57862">
        <ele>1188.5</ele>
        <time>2023-03-20T11:51:17Z</time>
      </trkpt>
      <trkpt lat="44.46483" lon="5.57856">
        <ele>1188.1</ele>
        <time>2023-03-20T11:51:18Z</time>
      </trkpt>
      <trkpt lat="44.46484" lon="5.57849">
        <ele>1187.7</ele>
        <time>2023-03-20T11:51:19Z</time>
      </trkpt>
      <trkpt lat="44.46486" lon="5.57843">
        <ele>1187.3</ele>
        <time>2023-03-20T11:51:20Z</time>
      </trkpt>
      <trkpt lat="44.46487" lon="5.57835">
        <ele>1186.8</ele>
        <time>2023-03-20T11:51:21Z</time>
      </trkpt>
      <trkpt lat="44.46488" lon="5.57827">
        <ele>1186.4</ele>
        <time>2023-03-20T11:51:22Z</time>
      </trkpt>
      <trkpt lat="44.46489" lon="5.57819">
        <ele>1185.8</ele>
        <time>2023-03-20T11:51:23Z</time>
      </trkpt>
      <trkpt lat="44.46491" lon="5.57811">
        <ele>1185.3</ele>
        <time>2023-03-20T11:51:24Z</time>
      </trkpt>
      <trkpt lat="44.46493" lon="5.57802">
        <ele>1184.9</ele>
        <time>2023-03-20T11:51:25Z</time>
      </trkpt>
      <trkpt lat="44.46496" lon="5.57793">
        <ele>1184.4</ele>
        <time>2023-03-20T11:51:26Z</time>
      </trkpt>
      <trkpt lat="44.46499" lon="5.57783">
        <ele>1183.9</ele>
        <time>2023-03-20T11:51:27Z</time>
      </trkpt>
      <trkpt lat="44.46501" lon="5.57772">
        <ele>1183.4</ele>
        <time>2023-03-20T11:51:28Z</time>
      </trkpt>
      <trkpt lat="44.46503" lon="5.57762">
        <ele>1182.8</ele>
        <time>2023-03-20T11:51:29Z</time>
      </trkpt>
      <trkpt lat="44.46506" lon="5.57751">
        <ele>1182.3</ele>
        <time>2023-03-20T11:51:30Z</time>
      </trkpt>
      <trkpt lat="44.46509" lon="5.57739">
        <ele>1181.7</ele>
        <time>2023-03-20T11:51:31Z</time>
      </trkpt>
      <trkpt lat="44.46512" lon="5.57728">
        <ele>1181.1</ele>
        <time>2023-03-20T11:51:32Z</time>
      </trkpt>
      <trkpt lat="44.46515" lon="5.57717">
        <ele>1180.5</ele>
        <time>2023-03-20T11:51:33Z</time>
      </trkpt>
      <trkpt lat="44.46519" lon="5.57707">
        <ele>1179.9</ele>
        <time>2023-03-20T11:51:34Z</time>
      </trkpt>
      <trkpt lat="44.46524" lon="5.57697">
        <ele>1179.4</ele>
        <time>2023-03-20T11:51:35Z</time>
      </trkpt>
      <trkpt lat="44.46529" lon="5.57689">
        <ele>1178.9</ele>
        <time>2023-03-20T11:51:36Z</time>
      </trkpt>
      <trkpt lat="44.46535" lon="5.57681">
        <ele>1178.3</ele>
        <time>2023-03-20T11:51:37Z</time>
      </trkpt>
      <trkpt lat="44.46542" lon="5.57674">
        <ele>1177.7</ele>
        <time>2023-03-20T11:51:38Z</time>
      </trkpt>
      <trkpt lat="44.46549" lon="5.57668">
        <ele>1177.1</ele>
        <time>2023-03-20T11:51:39Z</time>
      </trkpt>
      <trkpt lat="44.46556" lon="5.57659">
        <ele>1176.5</ele>
        <time>2023-03-20T11:51:40Z</time>
      </trkpt>
      <trkpt lat="44.46562" lon="5.57649">
        <ele>1175.9</ele>
        <time>2023-03-20T11:51:41Z</time>
      </trkpt>
      <trkpt lat="44.46567" lon="5.57639">
        <ele>1175.3</ele>
        <time>2023-03-20T11:51:42Z</time>
      </trkpt>
      <trkpt lat="44.46573" lon="5.57629">
        <ele>1174.6</ele>
        <time>2023-03-20T11:51:43Z</time>
      </trkpt>
      <trkpt lat="44.46578" lon="5.57617">
        <ele>1174</ele>
        <time>2023-03-20T11:51:44Z</time>
      </trkpt>
      <trkpt lat="44.46581" lon="5.57606">
        <ele>1173.4</ele>
        <time>2023-03-20T11:51:45Z</time>
      </trkpt>
      <trkpt lat="44.46584" lon="5.57594">
        <ele>1172.8</ele>
        <time>2023-03-20T11:51:46Z</time>
      </trkpt>
      <trkpt lat="44.46587" lon="5.57582">
        <ele>1172.2</ele>
        <time>2023-03-20T11:51:47Z</time>
      </trkpt>
      <trkpt lat="44.46589" lon="5.57569">
        <ele>1171.5</ele>
        <time>2023-03-20T11:51:48Z</time>
      </trkpt>
      <trkpt lat="44.46591" lon="5.57556">
        <ele>1170.9</ele>
        <time>2023-03-20T11:51:49Z</time>
      </trkpt>
      <trkpt lat="44.46594" lon="5.57543">
        <ele>1170.2</ele>
        <time>2023-03-20T11:51:50Z</time>
      </trkpt>
      <trkpt lat="44.46596" lon="5.5753">
        <ele>1169.6</ele>
        <time>2023-03-20T11:51:51Z</time>
      </trkpt>
      <trkpt lat="44.46599" lon="5.57518">
        <ele>1169</ele>
        <time>2023-03-20T11:51:52Z</time>
      </trkpt>
      <trkpt lat="44.46603" lon="5.57506">
        <ele>1168.3</ele>
        <time>2023-03-20T11:51:53Z</time>
      </trkpt>
      <trkpt lat="44.46606" lon="5.57493">
        <ele>1167.7</ele>
        <time>2023-03-20T11:51:54Z</time>
      </trkpt>
      <trkpt lat="44.46609" lon="5.57481">
        <ele>1167</ele>
        <time>2023-03-20T11:51:55Z</time>
      </trkpt>
      <trkpt lat="44.46612" lon="5.57468">
        <ele>1166.4</ele>
        <time>2023-03-20T11:51:56Z</time>
      </trkpt>
      <trkpt lat="44.46615" lon="5.57455">
        <ele>1165.7</ele>
        <time>2023-03-20T11:51:57Z</time>
      </trkpt>
      <trkpt lat="44.46617" lon="5.57444">
        <ele>1165.2</ele>
        <time>2023-03-20T11:51:58Z</time>
      </trkpt>
      <trkpt lat="44.4662" lon="5.57434">
        <ele>1164.6</ele>
        <time>2023-03-20T11:51:59Z</time>
      </trkpt>
      <trkpt lat="44.46623" lon="5.57425">
        <ele>1164.2</ele>
        <time>2023-03-20T11:52:00Z</time>
      </trkpt>
      <trkpt lat="44.46626" lon="5.57416">
        <ele>1163.7</ele>
        <time>2023-03-20T11:52:01Z</time>
      </trkpt>
      <trkpt lat="44.46629" lon="5.57409">
        <ele>1163.3</ele>
        <time>2023-03-20T11:52:02Z</time>
      </trkpt>
      <trkpt lat="44.46632" lon="5.57402">
        <ele>1162.9</ele>
        <time>2023-03-20T11:52:03Z</time>
      </trkpt>
      <trkpt lat="44.46634" lon="5.57396">
        <ele>1162.6</ele>
        <time>2023-03-20T11:52:04Z</time>
      </trkpt>
      <trkpt lat="44.46636" lon="5.57388">
        <ele>1162.2</ele>
        <time>2023-03-20T11:52:05Z</time>
      </trkpt>
      <trkpt lat="44.46638" lon="5.57381">
        <ele>1161.8</ele>
        <time>2023-03-20T11:52:06Z</time>
      </trkpt>
      <trkpt lat="44.4664" lon="5.57375">
        <ele>1161.5</ele>
        <time>2023-03-20T11:52:07Z</time>
      </trkpt>
      <trkpt lat="44.46641" lon="5.57369">
        <ele>1161.2</ele>
        <time>2023-03-20T11:52:08Z</time>
      </trkpt>
      <trkpt lat="44.46642" lon="5.57362">
        <ele>1160.8</ele>
        <time>2023-03-20T11:52:09Z</time>
      </trkpt>
      <trkpt lat="44.46644" lon="5.57357">
        <ele>1160.5</ele>
        <time>2023-03-20T11:52:10Z</time>
      </trkpt>
      <trkpt lat="44.46645" lon="5.5735">
        <ele>1160.2</ele>
        <time>2023-03-20T11:52:11Z</time>
      </trkpt>
      <trkpt lat="44.46645" lon="5.57343">
        <ele>1159.9</ele>
        <time>2023-03-20T11:52:12Z</time>
      </trkpt>
      <trkpt lat="44.46645" lon="5.57336">
        <ele>1159.5</ele>
        <time>2023-03-20T11:52:13Z</time>
      </trkpt>
      <trkpt lat="44.46644" lon="5.57331">
        <ele>1159.3</ele>
        <time>2023-03-20T11:52:14Z</time>
      </trkpt>
      <trkpt lat="44.46644" lon="5.57326">
        <ele>1159.1</ele>
        <time>2023-03-20T11:52:15Z</time>
      </trkpt>
      <trkpt lat="44.46642" lon="5.57323">
        <ele>1158.8</ele>
        <time>2023-03-20T11:52:16Z</time>
      </trkpt>
      <trkpt lat="44.4664" lon="5.57322">
        <ele>1158.7</ele>
        <time>2023-03-20T11:52:17Z</time>
      </trkpt>
      <trkpt lat="44.46637" lon="5.57321">
        <ele>1158.5</ele>
        <time>2023-03-20T11:52:18Z</time>
      </trkpt>
      <trkpt lat="44.46633" lon="5.5732">
        <ele>1158.2</ele>
        <time>2023-03-20T11:52:19Z</time>
      </trkpt>
      <trkpt lat="44.46628" lon="5.57318">
        <ele>1157.8</ele>
        <time>2023-03-20T11:52:20Z</time>
      </trkpt>
      <trkpt lat="44.46622" lon="5.57316">
        <ele>1157.4</ele>
        <time>2023-03-20T11:52:21Z</time>
      </trkpt>
      <trkpt lat="44.46616" lon="5.57316">
        <ele>1157</ele>
        <time>2023-03-20T11:52:22Z</time>
      </trkpt>
      <trkpt lat="44.4661" lon="5.57316">
        <ele>1156.6</ele>
        <time>2023-03-20T11:52:23Z</time>
      </trkpt>
      <trkpt lat="44.46605" lon="5.57317">
        <ele>1156.3</ele>
        <time>2023-03-20T11:52:24Z</time>
      </trkpt>
      <trkpt lat="44.46601" lon="5.5732">
        <ele>1156</ele>
        <time>2023-03-20T11:52:25Z</time>
      </trkpt>
      <trkpt lat="44.46599" lon="5.57322">
        <ele>1155.8</ele>
        <time>2023-03-20T11:52:26Z</time>
      </trkpt>
      <trkpt lat="44.46597" lon="5.57326">
        <ele>1155.6</ele>
        <time>2023-03-20T11:52:27Z</time>
      </trkpt>
      <trkpt lat="44.46596" lon="5.57331">
        <ele>1155.3</ele>
        <time>2023-03-20T11:52:28Z</time>
      </trkpt>
      <trkpt lat="44.46596" lon="5.57337">
        <ele>1155</ele>
        <time>2023-03-20T11:52:29Z</time>
      </trkpt>
      <trkpt lat="44.46597" lon="5.57342">
        <ele>1154.8</ele>
        <time>2023-03-20T11:52:30Z</time>
      </trkpt>
      <trkpt lat="44.46599" lon="5.57349">
        <ele>1154.4</ele>
        <time>2023-03-20T11:52:31Z</time>
      </trkpt>
      <trkpt lat="44.46602" lon="5.57355">
        <ele>1154.1</ele>
        <time>2023-03-20T11:52:32Z</time>
      </trkpt>
      <trkpt lat="44.46603" lon="5.57361">
        <ele>1153.8</ele>
        <time>2023-03-20T11:52:33Z</time>
      </trkpt>
      <trkpt lat="44.46604" lon="5.57367">
        <ele>1153.5</ele>
        <time>2023-03-20T11:52:34Z</time>
      </trkpt>
      <trkpt lat="44.46604" lon="5.57374">
        <ele>1153.1</ele>
        <time>2023-03-20T11:52:35Z</time>
      </trkpt>
      <trkpt lat="44.46603" lon="5.5738">
        <ele>1152.8</ele>
        <time>2023-03-20T11:52:36Z</time>
      </trkpt>
      <trkpt lat="44.46603" lon="5.57386">
        <ele>1152.5</ele>
        <time>2023-03-20T11:52:37Z</time>
      </trkpt>
      <trkpt lat="44.46602" lon="5.57393">
        <ele>1152.2</ele>
        <time>2023-03-20T11:52:38Z</time>
      </trkpt>
      <trkpt lat="44.46601" lon="5.57399">
        <ele>1151.9</ele>
        <time>2023-03-20T11:52:39Z</time>
      </trkpt>
      <trkpt lat="44.46598" lon="5.57406">
        <ele>1151.5</ele>
        <time>2023-03-20T11:52:40Z</time>
      </trkpt>
      <trkpt lat="44.46595" lon="5.57412">
        <ele>1151.2</ele>
        <time>2023-03-20T11:52:41Z</time>
      </trkpt>
      <trkpt lat="44.46591" lon="5.57419">
        <ele>1150.8</ele>
        <time>2023-03-20T11:52:42Z</time>
      </trkpt>
      <trkpt lat="44.46588" lon="5.57426">
        <ele>1150.3</ele>
        <time>2023-03-20T11:52:43Z</time>
      </trkpt>
      <trkpt lat="44.46583" lon="5.57433">
        <ele>1149.9</ele>
        <time>2023-03-20T11:52:44Z</time>
      </trkpt>
      <trkpt lat="44.46579" lon="5.5744">
        <ele>1149.4</ele>
        <time>2023-03-20T11:52:45Z</time>
      </trkpt>
      <trkpt lat="44.46575" lon="5.57448">
        <ele>1148.9</ele>
        <time>2023-03-20T11:52:46Z</time>
      </trkpt>
      <trkpt lat="44.46571" lon="5.57455">
        <ele>1148.5</ele>
        <time>2023-03-20T11:52:47Z</time>
      </trkpt>
      <trkpt lat="44.46567" lon="5.5746">
        <ele>1148.1</ele>
        <time>2023-03-20T11:52:48Z</time>
      </trkpt>
      <trkpt lat="44.46562" lon="5.57466">
        <ele>1147.7</ele>
        <time>2023-03-20T11:52:49Z</time>
      </trkpt>
      <trkpt lat="44.46557" lon="5.57472">
        <ele>1147.2</ele>
        <time>2023-03-20T11:52:50Z</time>
      </trkpt>
      <trkpt lat="44.46551" lon="5.57479">
        <ele>1146.7</ele>
        <time>2023-03-20T11:52:51Z</time>
      </trkpt>
      <trkpt lat="44.46546" lon="5.57484">
        <ele>1146.3</ele>
        <time>2023-03-20T11:52:52Z</time>
      </trkpt>
      <trkpt lat="44.46542" lon="5.5749">
        <ele>1145.9</ele>
        <time>2023-03-20T11:52:53Z</time>
      </trkpt>
      <trkpt lat="44.46536" lon="5.57496">
        <ele>1145.4</ele>
        <time>2023-03-20T11:52:54Z</time>
      </trkpt>
      <trkpt lat="44.4653" lon="5.57502">
        <ele>1144.9</ele>
        <time>2023-03-20T11:52:55Z</time>
      </trkpt>
      <trkpt lat="44.46523" lon="5.57508">
        <ele>1144.3</ele>
        <time>2023-03-20T11:52:56Z</time>
      </trkpt>
      <trkpt lat="44.46517" lon="5.57513">
        <ele>1143.9</ele>
        <time>2023-03-20T11:52:57Z</time>
      </trkpt>
      <trkpt lat="44.46511" lon="5.57516">
        <ele>1143.4</ele>
        <time>2023-03-20T11:52:58Z</time>
      </trkpt>
      <trkpt lat="44.46505" lon="5.5752">
        <ele>1143</ele>
        <time>2023-03-20T11:52:59Z</time>
      </trkpt>
      <trkpt lat="44.46498" lon="5.57526">
        <ele>1142.4</ele>
        <time>2023-03-20T11:53:00Z</time>
      </trkpt>
      <trkpt lat="44.46492" lon="5.57531">
        <ele>1142</ele>
        <time>2023-03-20T11:53:01Z</time>
      </trkpt>
      <trkpt lat="44.46486" lon="5.57535">
        <ele>1141.5</ele>
        <time>2023-03-20T11:53:02Z</time>
      </trkpt>
      <trkpt lat="44.4648" lon="5.57539">
        <ele>1141</ele>
        <time>2023-03-20T11:53:03Z</time>
      </trkpt>
      <trkpt lat="44.46474" lon="5.57543">
        <ele>1140.6</ele>
        <time>2023-03-20T11:53:04Z</time>
      </trkpt>
      <trkpt lat="44.46467" lon="5.57545">
        <ele>1140.2</ele>
        <time>2023-03-20T11:53:05Z</time>
      </trkpt>
      <trkpt lat="44.46461" lon="5.57547">
        <ele>1139.7</ele>
        <time>2023-03-20T11:53:06Z</time>
      </trkpt>
      <trkpt lat="44.46454" lon="5.57549">
        <ele>1139.2</ele>
        <time>2023-03-20T11:53:07Z</time>
      </trkpt>
      <trkpt lat="44.46447" lon="5.57553">
        <ele>1138.7</ele>
        <time>2023-03-20T11:53:08Z</time>
      </trkpt>
      <trkpt lat="44.46441" lon="5.57558">
        <ele>1138.2</ele>
        <time>2023-03-20T11:53:09Z</time>
      </trkpt>
      <trkpt lat="44.46436" lon="5.57564">
        <ele>1137.8</ele>
        <time>2023-03-20T11:53:10Z</time>
      </trkpt>
      <trkpt lat="44.46431" lon="5.57571">
        <ele>1137.3</ele>
        <time>2023-03-20T11:53:11Z</time>
      </trkpt>
      <trkpt lat="44.46428" lon="5.57577">
        <ele>1137</ele>
        <time>2023-03-20T11:53:12Z</time>
      </trkpt>
      <trkpt lat="44.46424" lon="5.57581">
        <ele>1136.6</ele>
        <time>2023-03-20T11:53:13Z</time>
      </trkpt>
      <trkpt lat="44.46421" lon="5.57585">
        <ele>1136.4</ele>
        <time>2023-03-20T11:53:14Z</time>
      </trkpt>
      <trkpt lat="44.46419" lon="5.5759">
        <ele>1136.1</ele>
        <time>2023-03-20T11:53:15Z</time>
      </trkpt>
      <trkpt lat="44.46417" lon="5.57593">
        <ele>1135.9</ele>
        <time>2023-03-20T11:53:16Z</time>
      </trkpt>
      <trkpt lat="44.46415" lon="5.57596">
        <ele>1135.7</ele>
        <time>2023-03-20T11:53:17Z</time>
      </trkpt>
      <trkpt lat="44.46412" lon="5.57598">
        <ele>1135.5</ele>
        <time>2023-03-20T11:53:18Z</time>
      </trkpt>
      <trkpt lat="44.4641" lon="5.57598">
        <ele>1135.3</ele>
        <time>2023-03-20T11:53:19Z</time>
      </trkpt>
      <trkpt lat="44.46409" lon="5.57598">
        <ele>1135.2</ele>
        <time>2023-03-20T11:53:20Z</time>
      </trkpt>
      <trkpt lat="44.46409" lon="5.57594">
        <ele>1136.6</ele>
        <time>2023-03-20T11:53:21Z</time>
      </trkpt>
      <trkpt lat="44.46409" lon="5.57592">
        <ele>1137.9</ele>
        <time>2023-03-20T11:53:22Z</time>
      </trkpt>
      <trkpt lat="44.46409" lon="5.57588">
        <ele>1134.4</ele>
        <time>2023-03-20T11:53:23Z</time>
      </trkpt>
      <trkpt lat="44.46409" lon="5.57584">
        <ele>1135.8</ele>
        <time>2023-03-20T11:53:24Z</time>
      </trkpt>
      <trkpt lat="44.46409" lon="5.57579">
        <ele>1137.1</ele>
        <time>2023-03-20T11:53:25Z</time>
      </trkpt>
      <trkpt lat="44.46408" lon="5.57575">
        <ele>1138.5</ele>
        <time>2023-03-20T11:53:26Z</time>
      </trkpt>
      <trkpt lat="44.46407" lon="5.57571">
        <ele>1135.2</ele>
        <time>2023-03-20T11:53:27Z</time>
      </trkpt>
      <trkpt lat="44.46405" lon="5.57566">
        <ele>1136.6</ele>
        <time>2023-03-20T11:53:28Z</time>
      </trkpt>
      <trkpt lat="44.46405" lon="5.57561">
        <ele>1137.9</ele>
        <time>2023-03-20T11:53:29Z</time>
      </trkpt>
      <trkpt lat="44.46405" lon="5.57556">
        <ele>1128.8</ele>
        <time>2023-03-20T11:53:30Z</time>
      </trkpt>
      <trkpt lat="44.46406" lon="5.57549">
        <ele>1128.5</ele>
        <time>2023-03-20T11:53:31Z</time>
      </trkpt>
      <trkpt lat="44.46408" lon="5.57544">
        <ele>1128.2</ele>
        <time>2023-03-20T11:53:32Z</time>
      </trkpt>
      <trkpt lat="44.46411" lon="5.57539">
        <ele>1127.9</ele>
        <time>2023-03-20T11:53:33Z</time>
      </trkpt>
      <trkpt lat="44.46413" lon="5.57535">
        <ele>1127.7</ele>
        <time>2023-03-20T11:53:34Z</time>
      </trkpt>
      <trkpt lat="44.46417" lon="5.57531">
        <ele>1127.4</ele>
        <time>2023-03-20T11:53:35Z</time>
      </trkpt>
      <trkpt lat="44.46419" lon="5.57527">
        <ele>1127.1</ele>
        <time>2023-03-20T11:53:36Z</time>
      </trkpt>
      <trkpt lat="44.46423" lon="5.57523">
        <ele>1126.8</ele>
        <time>2023-03-20T11:53:37Z</time>
      </trkpt>
      <trkpt lat="44.46426" lon="5.57519">
        <ele>1126.7</ele>
        <time>2023-03-20T11:53:38Z</time>
      </trkpt>
      <trkpt lat="44.46429" lon="5.57515">
        <ele>1126.6</ele>
        <time>2023-03-20T11:53:39Z</time>
      </trkpt>
      <trkpt lat="44.46432" lon="5.5751">
        <ele>1126.5</ele>
        <time>2023-03-20T11:53:40Z</time>
      </trkpt>
      <trkpt lat="44.46435" lon="5.57506">
        <ele>1126.4</ele>
        <time>2023-03-20T11:53:41Z</time>
      </trkpt>
      <trkpt lat="44.46439" lon="5.575">
        <ele>1126.4</ele>
        <time>2023-03-20T11:53:42Z</time>
      </trkpt>
      <trkpt lat="44.46442" lon="5.57495">
        <ele>1126.4</ele>
        <time>2023-03-20T11:53:43Z</time>
      </trkpt>
      <trkpt lat="44.46445" lon="5.57488">
        <ele>1126.5</ele>
        <time>2023-03-20T11:53:44Z</time>
      </trkpt>
      <trkpt lat="44.46446" lon="5.57481">
        <ele>1126.6</ele>
        <time>2023-03-20T11:53:45Z</time>
      </trkpt>
      <trkpt lat="44.46446" lon="5.57475">
        <ele>1126.7</ele>
        <time>2023-03-20T11:53:46Z</time>
      </trkpt>
      <trkpt lat="44.46446" lon="5.57469">
        <ele>1126.7</ele>
        <time>2023-03-20T11:53:47Z</time>
      </trkpt>
      <trkpt lat="44.46445" lon="5.57465">
        <ele>1126.8</ele>
        <time>2023-03-20T11:53:48Z</time>
      </trkpt>
      <trkpt lat="44.46443" lon="5.57462">
        <ele>1126</ele>
        <time>2023-03-20T11:53:49Z</time>
      </trkpt>
      <trkpt lat="44.46443" lon="5.57462">
        <ele>1125.9</ele>
        <time>2023-03-20T11:53:50Z</time>
      </trkpt>
      <trkpt lat="44.46441" lon="5.57461">
        <ele>1125.5</ele>
        <time>2023-03-20T11:53:51Z</time>
      </trkpt>
      <trkpt lat="44.46439" lon="5.57461">
        <ele>1125.3</ele>
        <time>2023-03-20T11:53:52Z</time>
      </trkpt>
      <trkpt lat="44.46437" lon="5.5746">
        <ele>1124.8</ele>
        <time>2023-03-20T11:53:53Z</time>
      </trkpt>
      <trkpt lat="44.46436" lon="5.57459">
        <ele>1124.6</ele>
        <time>2023-03-20T11:53:54Z</time>
      </trkpt>
      <trkpt lat="44.46432" lon="5.57459">
        <ele>1124</ele>
        <time>2023-03-20T11:53:55Z</time>
      </trkpt>
      <trkpt lat="44.46431" lon="5.57459">
        <ele>1123.7</ele>
        <time>2023-03-20T11:53:56Z</time>
      </trkpt>
      <trkpt lat="44.46427" lon="5.57459">
        <ele>1123.1</ele>
        <time>2023-03-20T11:53:57Z</time>
      </trkpt>
      <trkpt lat="44.46426" lon="5.57459">
        <ele>1123</ele>
        <time>2023-03-20T11:53:58Z</time>
      </trkpt>
      <trkpt lat="44.46423" lon="5.5746">
        <ele>1122.4</ele>
        <time>2023-03-20T11:53:59Z</time>
      </trkpt>
      <trkpt lat="44.46422" lon="5.57461">
        <ele>1122.2</ele>
        <time>2023-03-20T11:54:00Z</time>
      </trkpt>
      <trkpt lat="44.46418" lon="5.57462">
        <ele>1121.4</ele>
        <time>2023-03-20T11:54:01Z</time>
      </trkpt>
      <trkpt lat="44.46416" lon="5.57463">
        <ele>1121.2</ele>
        <time>2023-03-20T11:54:02Z</time>
      </trkpt>
      <trkpt lat="44.46413" lon="5.57463">
        <ele>1120.6</ele>
        <time>2023-03-20T11:54:03Z</time>
      </trkpt>
      <trkpt lat="44.4641" lon="5.57464">
        <ele>1120.1</ele>
        <time>2023-03-20T11:54:04Z</time>
      </trkpt>
      <trkpt lat="44.46409" lon="5.57465">
        <ele>1119.9</ele>
        <time>2023-03-20T11:54:05Z</time>
      </trkpt>
      <trkpt lat="44.46408" lon="5.57465">
        <ele>1119.6</ele>
        <time>2023-03-20T11:54:06Z</time>
      </trkpt>
      <trkpt lat="44.46406" lon="5.57466">
        <ele>1119.3</ele>
        <time>2023-03-20T11:54:07Z</time>
      </trkpt>
      <trkpt lat="44.46405" lon="5.57466">
        <ele>1119.1</ele>
        <time>2023-03-20T11:54:08Z</time>
      </trkpt>
      <trkpt lat="44.46403" lon="5.57466">
        <ele>1118.8</ele>
        <time>2023-03-20T11:54:09Z</time>
      </trkpt>
      <trkpt lat="44.464" lon="5.57467">
        <ele>1118.3</ele>
        <time>2023-03-20T11:54:10Z</time>
      </trkpt>
      <trkpt lat="44.46399" lon="5.57467">
        <ele>1118.1</ele>
        <time>2023-03-20T11:54:11Z</time>
      </trkpt>
      <trkpt lat="44.46397" lon="5.57467">
        <ele>1117.8</ele>
        <time>2023-03-20T11:54:12Z</time>
      </trkpt>
      <trkpt lat="44.46396" lon="5.57467">
        <ele>1117.6</ele>
        <time>2023-03-20T11:54:13Z</time>
      </trkpt>
      <trkpt lat="44.46395" lon="5.57467">
        <ele>1117.4</ele>
        <time>2023-03-20T11:54:14Z</time>
      </trkpt>
      <trkpt lat="44.46394" lon="5.57468">
        <ele>1117.2</ele>
        <time>2023-03-20T11:54:15Z</time>
      </trkpt>
      <trkpt lat="44.46393" lon="5.57468">
        <ele>1117</ele>
        <time>2023-03-20T11:54:16Z</time>
      </trkpt>
      <trkpt lat="44.46392" lon="5.57468">
        <ele>1116.9</ele>
        <time>2023-03-20T11:54:17Z</time>
      </trkpt>
      <trkpt lat="44.46392" lon="5.57468">
        <ele>1116.9</ele>
        <time>2023-03-20T11:54:18Z</time>
      </trkpt>
      <trkpt lat="44.46392" lon="5.57468">
        <ele>1116.8</ele>
        <time>2023-03-20T11:54:19Z</time>
      </trkpt>
      <trkpt lat="44.46391" lon="5.57468">
        <ele>1116.6</ele>
        <time>2023-03-20T11:54:20Z</time>
      </trkpt>
      <trkpt lat="44.4639" lon="5.57468">
        <ele>1116.5</ele>
        <time>2023-03-20T11:54:21Z</time>
      </trkpt>
      <trkpt lat="44.4639" lon="5.57469">
        <ele>1116.4</ele>
        <time>2023-03-20T11:54:22Z</time>
      </trkpt>
      <trkpt lat="44.46389" lon="5.57469">
        <ele>1116.3</ele>
        <time>2023-03-20T11:54:23Z</time>
      </trkpt>
      <trkpt lat="44.46389" lon="5.57469">
        <ele>1116.3</ele>
        <time>2023-03-20T11:54:24Z</time>
      </trkpt>
      <trkpt lat="44.46388" lon="5.57469">
        <ele>1116.1</ele>
        <time>2023-03-20T11:54:25Z</time>
      </trkpt>
      <trkpt lat="44.46387" lon="5.57468">
        <ele>1115.9</ele>
        <time>2023-03-20T11:54:26Z</time>
      </trkpt>
      <trkpt lat="44.46386" lon="5.57468">
        <ele>1115.7</ele>
        <time>2023-03-20T11:54:27Z</time>
      </trkpt>
      <trkpt lat="44.46385" lon="5.57468">
        <ele>1115.5</ele>
        <time>2023-03-20T11:54:28Z</time>
      </trkpt>
      <trkpt lat="44.46384" lon="5.57468">
        <ele>1115.4</ele>
        <time>2023-03-20T11:54:29Z</time>
      </trkpt>
      <trkpt lat="44.46384" lon="5.57468">
        <ele>1115.3</ele>
        <time>2023-03-20T11:54:30Z</time>
      </trkpt>
      <trkpt lat="44.46383" lon="5.57467">
        <ele>1115.1</ele>
        <time>2023-03-20T11:54:31Z</time>
      </trkpt>
      <trkpt lat="44.46382" lon="5.57467">
        <ele>1115</ele>
        <time>2023-03-20T11:54:32Z</time>
      </trkpt>
      <trkpt lat="44.46381" lon="5.57467">
        <ele>1114.8</ele>
        <time>2023-03-20T11:54:33Z</time>
      </trkpt>
      <trkpt lat="44.46381" lon="5.57467">
        <ele>1114.7</ele>
        <time>2023-03-20T11:54:34Z</time>
      </trkpt>
      <trkpt lat="44.4638" lon="5.57467">
        <ele>1114.5</ele>
        <time>2023-03-20T11:54:35Z</time>
      </trkpt>
      <trkpt lat="44.46379" lon="5.57468">
        <ele>1114.3</ele>
        <time>2023-03-20T11:54:36Z</time>
      </trkpt>
      <trkpt lat="44.46378" lon="5.57468">
        <ele>1114.3</ele>
        <time>2023-03-20T11:54:37Z</time>
      </trkpt>
      <trkpt lat="44.46378" lon="5.57468">
        <ele>1114.3</ele>
        <time>2023-03-20T11:54:38Z</time>
      </trkpt>
      <trkpt lat="44.46378" lon="5.57468">
        <ele>1114.1</ele>
        <time>2023-03-20T11:54:39Z</time>
      </trkpt>
      <trkpt lat="44.46377" lon="5.57468">
        <ele>1114</ele>
        <time>2023-03-20T11:54:40Z</time>
      </trkpt>
      <trkpt lat="44.46376" lon="5.57468">
        <ele>1113.8</ele>
        <time>2023-03-20T11:54:41Z</time>
      </trkpt>
      <trkpt lat="44.46375" lon="5.57468">
        <ele>1113.6</ele>
        <time>2023-03-20T11:54:42Z</time>
      </trkpt>
      <trkpt lat="44.46374" lon="5.57468">
        <ele>1113.4</ele>
        <time>2023-03-20T11:54:43Z</time>
      </trkpt>
      <trkpt lat="44.46373" lon="5.57469">
        <ele>1113.2</ele>
        <time>2023-03-20T11:54:44Z</time>
      </trkpt>
      <trkpt lat="44.46372" lon="5.5747">
        <ele>1113</ele>
        <time>2023-03-20T11:54:45Z</time>
      </trkpt>
      <trkpt lat="44.46371" lon="5.5747">
        <ele>1112.9</ele>
        <time>2023-03-20T11:54:46Z</time>
      </trkpt>
      <trkpt lat="44.4637" lon="5.57471">
        <ele>1112.7</ele>
        <time>2023-03-20T11:54:47Z</time>
      </trkpt>
      <trkpt lat="44.4637" lon="5.57471">
        <ele>1112.6</ele>
        <time>2023-03-20T11:54:48Z</time>
      </trkpt>
      <trkpt lat="44.4637" lon="5.57472">
        <ele>1112.5</ele>
        <time>2023-03-20T11:54:49Z</time>
      </trkpt>
      <trkpt lat="44.46369" lon="5.57472">
        <ele>1112.4</ele>
        <time>2023-03-20T11:54:50Z</time>
      </trkpt>
      <trkpt lat="44.46369" lon="5.57473">
        <ele>1112.3</ele>
        <time>2023-03-20T11:54:51Z</time>
      </trkpt>
      <trkpt lat="44.46368" lon="5.57473">
        <ele>1112.3</ele>
        <time>2023-03-20T11:54:52Z</time>
      </trkpt>
      <trkpt lat="44.46368" lon="5.57473">
        <ele>1112.2</ele>
        <time>2023-03-20T11:54:53Z</time>
      </trkpt>
      <trkpt lat="44.46368" lon="5.57473">
        <ele>1112.2</ele>
        <time>2023-03-20T11:54:54Z</time>
      </trkpt>
      <trkpt lat="44.46368" lon="5.57474">
        <ele>1112.2</ele>
        <time>2023-03-20T11:54:55Z</time>
      </trkpt>
      <trkpt lat="44.46368" lon="5.57473">
        <ele>1112.1</ele>
        <time>2023-03-20T11:54:56Z</time>
      </trkpt>
      <trkpt lat="44.46368" lon="5.57473">
        <ele>1112.1</ele>
        <time>2023-03-20T11:54:57Z</time>
      </trkpt>
      <trkpt lat="44.46368" lon="5.57473">
        <ele>1112</ele>
        <time>2023-03-20T11:54:58Z</time>
      </trkpt>
      <trkpt lat="44.46367" lon="5.57473">
        <ele>1112</ele>
        <time>2023-03-20T11:54:59Z</time>
      </trkpt>
      <trkpt lat="44.46367" lon="5.57473">
        <ele>1111.9</ele>
        <time>2023-03-20T11:55:00Z</time>
      </trkpt>
      <trkpt lat="44.46367" lon="5.57474">
        <ele>1111.9</ele>
        <time>2023-03-20T11:55:01Z</time>
      </trkpt>
      <trkpt lat="44.46367" lon="5.57474">
        <ele>1111.9</ele>
        <time>2023-03-20T11:55:02Z</time>
      </trkpt>
      <trkpt lat="44.46367" lon="5.57474">
        <ele>1111.8</ele>
        <time>2023-03-20T11:55:03Z</time>
      </trkpt>
      <trkpt lat="44.46364" lon="5.57473">
        <ele>1111.3</ele>
        <time>2023-03-20T11:55:07Z</time>
      </trkpt>
      <trkpt lat="44.46364" lon="5.57473">
        <ele>1111.3</ele>
        <time>2023-03-20T11:55:08Z</time>
      </trkpt>
      <trkpt lat="44.46363" lon="5.57473">
        <ele>1111.1</ele>
        <time>2023-03-20T11:55:09Z</time>
      </trkpt>
      <trkpt lat="44.46362" lon="5.57473">
        <ele>1110.9</ele>
        <time>2023-03-20T11:55:10Z</time>
      </trkpt>
      <trkpt lat="44.46361" lon="5.57474">
        <ele>1110.8</ele>
        <time>2023-03-20T11:55:11Z</time>
      </trkpt>
      <trkpt lat="44.4636" lon="5.57474">
        <ele>1110.6</ele>
        <time>2023-03-20T11:55:12Z</time>
      </trkpt>
      <trkpt lat="44.4636" lon="5.57474">
        <ele>1110.5</ele>
        <time>2023-03-20T11:55:13Z</time>
      </trkpt>
      <trkpt lat="44.4636" lon="5.57474">
        <ele>1110.5</ele>
        <time>2023-03-20T11:55:14Z</time>
      </trkpt>
      <trkpt lat="44.46359" lon="5.57474">
        <ele>1110.4</ele>
        <time>2023-03-20T11:55:15Z</time>
      </trkpt>
      <trkpt lat="44.46359" lon="5.57475">
        <ele>1110.3</ele>
        <time>2023-03-20T11:55:16Z</time>
      </trkpt>
      <trkpt lat="44.46358" lon="5.57476">
        <ele>1110.2</ele>
        <time>2023-03-20T11:55:17Z</time>
      </trkpt>
      <trkpt lat="44.46358" lon="5.57476">
        <ele>1110.1</ele>
        <time>2023-03-20T11:55:18Z</time>
      </trkpt>
      <trkpt lat="44.46358" lon="5.57476">
        <ele>1110</ele>
        <time>2023-03-20T11:55:19Z</time>
      </trkpt>
      <trkpt lat="44.46357" lon="5.57477">
        <ele>1109.9</ele>
        <time>2023-03-20T11:55:20Z</time>
      </trkpt>
      <trkpt lat="44.46357" lon="5.57477">
        <ele>1109.8</ele>
        <time>2023-03-20T11:55:21Z</time>
      </trkpt>
      <trkpt lat="44.46356" lon="5.57478">
        <ele>1109.7</ele>
        <time>2023-03-20T11:55:22Z</time>
      </trkpt>
      <trkpt lat="44.46356" lon="5.57478">
        <ele>1109.6</ele>
        <time>2023-03-20T11:55:23Z</time>
      </trkpt>
      <trkpt lat="44.46354" lon="5.57478">
        <ele>1109.3</ele>
        <time>2023-03-20T11:55:24Z</time>
      </trkpt>
      <trkpt lat="44.46354" lon="5.57478">
        <ele>1109.2</ele>
        <time>2023-03-20T11:55:25Z</time>
      </trkpt>
      <trkpt lat="44.46353" lon="5.57478">
        <ele>1109.1</ele>
        <time>2023-03-20T11:55:26Z</time>
      </trkpt>
      <trkpt lat="44.46352" lon="5.57478">
        <ele>1109</ele>
        <time>2023-03-20T11:55:27Z</time>
      </trkpt>
      <trkpt lat="44.46352" lon="5.57478">
        <ele>1108.9</ele>
        <time>2023-03-20T11:55:28Z</time>
      </trkpt>
      <trkpt lat="44.4635" lon="5.57478">
        <ele>1108.6</ele>
        <time>2023-03-20T11:55:29Z</time>
      </trkpt>
      <trkpt lat="44.46349" lon="5.57478">
        <ele>1108.5</ele>
        <time>2023-03-20T11:55:30Z</time>
      </trkpt>
      <trkpt lat="44.46349" lon="5.57479">
        <ele>1108.3</ele>
        <time>2023-03-20T11:55:31Z</time>
      </trkpt>
      <trkpt lat="44.46348" lon="5.57479">
        <ele>1108.3</ele>
        <time>2023-03-20T11:55:32Z</time>
      </trkpt>
      <trkpt lat="44.46348" lon="5.57479">
        <ele>1108.2</ele>
        <time>2023-03-20T11:55:33Z</time>
      </trkpt>
      <trkpt lat="44.46348" lon="5.57479">
        <ele>1108.1</ele>
        <time>2023-03-20T11:55:34Z</time>
      </trkpt>
      <trkpt lat="44.46347" lon="5.5748">
        <ele>1108.1</ele>
        <time>2023-03-20T11:55:35Z</time>
      </trkpt>
      <trkpt lat="44.46347" lon="5.5748">
        <ele>1108</ele>
        <time>2023-03-20T11:55:36Z</time>
      </trkpt>
      <trkpt lat="44.46347" lon="5.5748">
        <ele>1107.9</ele>
        <time>2023-03-20T11:55:37Z</time>
      </trkpt>
      <trkpt lat="44.46346" lon="5.5748">
        <ele>1107.9</ele>
        <time>2023-03-20T11:55:38Z</time>
      </trkpt>
      <trkpt lat="44.46346" lon="5.57481">
        <ele>1107.8</ele>
        <time>2023-03-20T11:55:39Z</time>
      </trkpt>
      <trkpt lat="44.46345" lon="5.57481">
        <ele>1107.6</ele>
        <time>2023-03-20T11:55:40Z</time>
      </trkpt>
      <trkpt lat="44.46344" lon="5.57482">
        <ele>1107.5</ele>
        <time>2023-03-20T11:55:41Z</time>
      </trkpt>
      <trkpt lat="44.46344" lon="5.57483">
        <ele>1107.3</ele>
        <time>2023-03-20T11:55:42Z</time>
      </trkpt>
      <trkpt lat="44.46344" lon="5.57483">
        <ele>1107.3</ele>
        <time>2023-03-20T11:55:43Z</time>
      </trkpt>
      <trkpt lat="44.46344" lon="5.57484">
        <ele>1107.2</ele>
        <time>2023-03-20T11:55:44Z</time>
      </trkpt>
      <trkpt lat="44.46343" lon="5.57485">
        <ele>1107</ele>
        <time>2023-03-20T11:55:45Z</time>
      </trkpt>
      <trkpt lat="44.46342" lon="5.57486">
        <ele>1106.8</ele>
        <time>2023-03-20T11:55:46Z</time>
      </trkpt>
      <trkpt lat="44.46341" lon="5.57487">
        <ele>1106.7</ele>
        <time>2023-03-20T11:55:47Z</time>
      </trkpt>
      <trkpt lat="44.46341" lon="5.57488">
        <ele>1106.5</ele>
        <time>2023-03-20T11:55:48Z</time>
      </trkpt>
      <trkpt lat="44.46341" lon="5.57488">
        <ele>1106.4</ele>
        <time>2023-03-20T11:55:49Z</time>
      </trkpt>
      <trkpt lat="44.4634" lon="5.57488">
        <ele>1106.4</ele>
        <time>2023-03-20T11:55:50Z</time>
      </trkpt>
      <trkpt lat="44.46341" lon="5.57489">
        <ele>1106.4</ele>
        <time>2023-03-20T11:55:51Z</time>
      </trkpt>
      <trkpt lat="44.46341" lon="5.57489">
        <ele>1106.3</ele>
        <time>2023-03-20T11:55:52Z</time>
      </trkpt>
      <trkpt lat="44.46341" lon="5.57489">
        <ele>1106.3</ele>
        <time>2023-03-20T11:55:53Z</time>
      </trkpt>
      <trkpt lat="44.46341" lon="5.57489">
        <ele>1106.3</ele>
        <time>2023-03-20T11:55:54Z</time>
      </trkpt>
      <trkpt lat="44.46341" lon="5.57489">
        <ele>1106.3</ele>
        <time>2023-03-20T11:55:55Z</time>
      </trkpt>
      <trkpt lat="44.46341" lon="5.57489">
        <ele>1106.3</ele>
        <time>2023-03-20T11:55:56Z</time>
      </trkpt>
      <trkpt lat="44.46341" lon="5.57489">
        <ele>1106.3</ele>
        <time>2023-03-20T11:55:57Z</time>
      </trkpt>
      <trkpt lat="44.4634" lon="5.57489">
        <ele>1106.2</ele>
        <time>2023-03-20T11:55:58Z</time>
      </trkpt>
      <trkpt lat="44.46338" lon="5.57491">
        <ele>1105.8</ele>
        <time>2023-03-20T11:55:59Z</time>
      </trkpt>
      <trkpt lat="44.46337" lon="5.57492">
        <ele>1105.5</ele>
        <time>2023-03-20T11:56:00Z</time>
      </trkpt>
      <trkpt lat="44.46336" lon="5.57494">
        <ele>1105.3</ele>
        <time>2023-03-20T11:56:07Z</time>
      </trkpt>
      <trkpt lat="44.46335" lon="5.57495">
        <ele>1105.1</ele>
        <time>2023-03-20T11:56:08Z</time>
      </trkpt>
      <trkpt lat="44.46334" lon="5.57496">
        <ele>1104.8</ele>
        <time>2023-03-20T11:56:09Z</time>
      </trkpt>
      <trkpt lat="44.46331" lon="5.57498">
        <ele>1104.2</ele>
        <time>2023-03-20T11:56:10Z</time>
      </trkpt>
      <trkpt lat="44.46329" lon="5.57499">
        <ele>1104</ele>
        <time>2023-03-20T11:56:11Z</time>
      </trkpt>
      <trkpt lat="44.46325" lon="5.57505">
        <ele>1102.9</ele>
        <time>2023-03-20T11:56:13Z</time>
      </trkpt>
      <trkpt lat="44.46323" lon="5.57508">
        <ele>1102.4</ele>
        <time>2023-03-20T11:56:14Z</time>
      </trkpt>
      <trkpt lat="44.46321" lon="5.57511">
        <ele>1101.8</ele>
        <time>2023-03-20T11:56:15Z</time>
      </trkpt>
      <trkpt lat="44.46319" lon="5.57514">
        <ele>1101.3</ele>
        <time>2023-03-20T11:56:16Z</time>
      </trkpt>
      <trkpt lat="44.46315" lon="5.57517">
        <ele>1100.6</ele>
        <time>2023-03-20T11:56:17Z</time>
      </trkpt>
      <trkpt lat="44.46314" lon="5.57517">
        <ele>1100.3</ele>
        <time>2023-03-20T11:56:18Z</time>
      </trkpt>
      <trkpt lat="44.46311" lon="5.57519">
        <ele>1099.7</ele>
        <time>2023-03-20T11:56:19Z</time>
      </trkpt>
      <trkpt lat="44.46308" lon="5.57521">
        <ele>1099.1</ele>
        <time>2023-03-20T11:56:20Z</time>
      </trkpt>
      <trkpt lat="44.46305" lon="5.57523">
        <ele>1098.6</ele>
        <time>2023-03-20T11:56:21Z</time>
      </trkpt>
      <trkpt lat="44.46302" lon="5.57525">
        <ele>1098.1</ele>
        <time>2023-03-20T11:56:22Z</time>
      </trkpt>
      <trkpt lat="44.46299" lon="5.57526">
        <ele>1097.6</ele>
        <time>2023-03-20T11:56:23Z</time>
      </trkpt>
      <trkpt lat="44.46297" lon="5.57527">
        <ele>1097.1</ele>
        <time>2023-03-20T11:56:24Z</time>
      </trkpt>
      <trkpt lat="44.46293" lon="5.57529">
        <ele>1096.4</ele>
        <time>2023-03-20T11:56:25Z</time>
      </trkpt>
      <trkpt lat="44.46292" lon="5.5753">
        <ele>1096.2</ele>
        <time>2023-03-20T11:56:26Z</time>
      </trkpt>
      <trkpt lat="44.4629" lon="5.57533">
        <ele>1095.6</ele>
        <time>2023-03-20T11:56:27Z</time>
      </trkpt>
      <trkpt lat="44.46289" lon="5.57534">
        <ele>1095.4</ele>
        <time>2023-03-20T11:56:28Z</time>
      </trkpt>
      <trkpt lat="44.46286" lon="5.57538">
        <ele>1094.7</ele>
        <time>2023-03-20T11:56:29Z</time>
      </trkpt>
      <trkpt lat="44.46285" lon="5.5754">
        <ele>1094.4</ele>
        <time>2023-03-20T11:56:30Z</time>
      </trkpt>
      <trkpt lat="44.46282" lon="5.57543">
        <ele>1093.8</ele>
        <time>2023-03-20T11:56:31Z</time>
      </trkpt>
      <trkpt lat="44.4628" lon="5.57546">
        <ele>1093.3</ele>
        <time>2023-03-20T11:56:32Z</time>
      </trkpt>
      <trkpt lat="44.46278" lon="5.57549">
        <ele>1092.8</ele>
        <time>2023-03-20T11:56:33Z</time>
      </trkpt>
      <trkpt lat="44.46276" lon="5.57552">
        <ele>1092.2</ele>
        <time>2023-03-20T11:56:34Z</time>
      </trkpt>
      <trkpt lat="44.46274" lon="5.57557">
        <ele>1091.6</ele>
        <time>2023-03-20T11:56:35Z</time>
      </trkpt>
      <trkpt lat="44.46273" lon="5.57558">
        <ele>1091.4</ele>
        <time>2023-03-20T11:56:36Z</time>
      </trkpt>
      <trkpt lat="44.46271" lon="5.5756">
        <ele>1090.9</ele>
        <time>2023-03-20T11:56:37Z</time>
      </trkpt>
      <trkpt lat="44.46268" lon="5.57564">
        <ele>1090.2</ele>
        <time>2023-03-20T11:56:38Z</time>
      </trkpt>
      <trkpt lat="44.46266" lon="5.57565">
        <ele>1089.9</ele>
        <time>2023-03-20T11:56:39Z</time>
      </trkpt>
      <trkpt lat="44.46264" lon="5.57568">
        <ele>1089.4</ele>
        <time>2023-03-20T11:56:40Z</time>
      </trkpt>
      <trkpt lat="44.46263" lon="5.57572">
        <ele>1088.8</ele>
        <time>2023-03-20T11:56:41Z</time>
      </trkpt>
      <trkpt lat="44.46261" lon="5.57576">
        <ele>1088.2</ele>
        <time>2023-03-20T11:56:42Z</time>
      </trkpt>
      <trkpt lat="44.46258" lon="5.57579">
        <ele>1087.6</ele>
        <time>2023-03-20T11:56:43Z</time>
      </trkpt>
      <trkpt lat="44.46256" lon="5.57582">
        <ele>1087.1</ele>
        <time>2023-03-20T11:56:44Z</time>
      </trkpt>
      <trkpt lat="44.46254" lon="5.57586">
        <ele>1086.5</ele>
        <time>2023-03-20T11:56:45Z</time>
      </trkpt>
      <trkpt lat="44.46252" lon="5.57589">
        <ele>1085.9</ele>
        <time>2023-03-20T11:56:46Z</time>
      </trkpt>
      <trkpt lat="44.4625" lon="5.57594">
        <ele>1085.3</ele>
        <time>2023-03-20T11:56:47Z</time>
      </trkpt>
      <trkpt lat="44.46247" lon="5.57598">
        <ele>1084.5</ele>
        <time>2023-03-20T11:56:48Z</time>
      </trkpt>
      <trkpt lat="44.46245" lon="5.57603">
        <ele>1083.8</ele>
        <time>2023-03-20T11:56:49Z</time>
      </trkpt>
      <trkpt lat="44.46241" lon="5.57609">
        <ele>1082.9</ele>
        <time>2023-03-20T11:56:50Z</time>
      </trkpt>
      <trkpt lat="44.46238" lon="5.57614">
        <ele>1082</ele>
        <time>2023-03-20T11:56:51Z</time>
      </trkpt>
      <trkpt lat="44.46235" lon="5.57618">
        <ele>1081.3</ele>
        <time>2023-03-20T11:56:52Z</time>
      </trkpt>
      <trkpt lat="44.46233" lon="5.57622">
        <ele>1080.6</ele>
        <time>2023-03-20T11:56:53Z</time>
      </trkpt>
      <trkpt lat="44.4623" lon="5.57627">
        <ele>1079.9</ele>
        <time>2023-03-20T11:56:54Z</time>
      </trkpt>
      <trkpt lat="44.46228" lon="5.57632">
        <ele>1079.2</ele>
        <time>2023-03-20T11:56:55Z</time>
      </trkpt>
      <trkpt lat="44.46226" lon="5.57637">
        <ele>1078.4</ele>
        <time>2023-03-20T11:56:56Z</time>
      </trkpt>
      <trkpt lat="44.46223" lon="5.57641">
        <ele>1077.8</ele>
        <time>2023-03-20T11:56:57Z</time>
      </trkpt>
      <trkpt lat="44.46222" lon="5.57646">
        <ele>1077</ele>
        <time>2023-03-20T11:56:58Z</time>
      </trkpt>
      <trkpt lat="44.46219" lon="5.57652">
        <ele>1076.2</ele>
        <time>2023-03-20T11:56:59Z</time>
      </trkpt>
      <trkpt lat="44.46215" lon="5.57662">
        <ele>1074.7</ele>
        <time>2023-03-20T11:57:01Z</time>
      </trkpt>
      <trkpt lat="44.46212" lon="5.57666">
        <ele>1074.1</ele>
        <time>2023-03-20T11:57:02Z</time>
      </trkpt>
      <trkpt lat="44.4621" lon="5.57668">
        <ele>1073.6</ele>
        <time>2023-03-20T11:57:03Z</time>
      </trkpt>
      <trkpt lat="44.46206" lon="5.57668">
        <ele>1072.9</ele>
        <time>2023-03-20T11:57:04Z</time>
      </trkpt>
      <trkpt lat="44.46202" lon="5.57667">
        <ele>1072.3</ele>
        <time>2023-03-20T11:57:05Z</time>
      </trkpt>
      <trkpt lat="44.46199" lon="5.57666">
        <ele>1071.7</ele>
        <time>2023-03-20T11:57:06Z</time>
      </trkpt>
      <trkpt lat="44.46194" lon="5.57663">
        <ele>1070.7</ele>
        <time>2023-03-20T11:57:08Z</time>
      </trkpt>
      <trkpt lat="44.46191" lon="5.57661">
        <ele>1070.1</ele>
        <time>2023-03-20T11:57:09Z</time>
      </trkpt>
      <trkpt lat="44.46188" lon="5.5766">
        <ele>1069.5</ele>
        <time>2023-03-20T11:57:10Z</time>
      </trkpt>
      <trkpt lat="44.46184" lon="5.57659">
        <ele>1069</ele>
        <time>2023-03-20T11:57:11Z</time>
      </trkpt>
      <trkpt lat="44.46181" lon="5.5766">
        <ele>1068.4</ele>
        <time>2023-03-20T11:57:12Z</time>
      </trkpt>
      <trkpt lat="44.46177" lon="5.5766">
        <ele>1067.7</ele>
        <time>2023-03-20T11:57:13Z</time>
      </trkpt>
      <trkpt lat="44.46176" lon="5.57659">
        <ele>1067.5</ele>
        <time>2023-03-20T11:57:14Z</time>
      </trkpt>
      <trkpt lat="44.46172" lon="5.57659">
        <ele>1066.8</ele>
        <time>2023-03-20T11:57:15Z</time>
      </trkpt>
      <trkpt lat="44.46171" lon="5.57659">
        <ele>1066.6</ele>
        <time>2023-03-20T11:57:16Z</time>
      </trkpt>
      <trkpt lat="44.46168" lon="5.57658">
        <ele>1066</ele>
        <time>2023-03-20T11:57:17Z</time>
      </trkpt>
      <trkpt lat="44.46166" lon="5.57657">
        <ele>1065.8</ele>
        <time>2023-03-20T11:57:18Z</time>
      </trkpt>
      <trkpt lat="44.46164" lon="5.57657">
        <ele>1065.3</ele>
        <time>2023-03-20T11:57:19Z</time>
      </trkpt>
      <trkpt lat="44.46161" lon="5.57657">
        <ele>1064.8</ele>
        <time>2023-03-20T11:57:20Z</time>
      </trkpt>
      <trkpt lat="44.46157" lon="5.57658">
        <ele>1064.2</ele>
        <time>2023-03-20T11:57:21Z</time>
      </trkpt>
      <trkpt lat="44.46153" lon="5.57659">
        <ele>1063.5</ele>
        <time>2023-03-20T11:57:22Z</time>
      </trkpt>
      <trkpt lat="44.46151" lon="5.57662">
        <ele>1062.9</ele>
        <time>2023-03-20T11:57:23Z</time>
      </trkpt>
      <trkpt lat="44.46149" lon="5.57666">
        <ele>1062.2</ele>
        <time>2023-03-20T11:57:24Z</time>
      </trkpt>
      <trkpt lat="44.46148" lon="5.57668">
        <ele>1062</ele>
        <time>2023-03-20T11:57:25Z</time>
      </trkpt>
      <trkpt lat="44.46146" lon="5.57672">
        <ele>1061.5</ele>
        <time>2023-03-20T11:57:26Z</time>
      </trkpt>
      <trkpt lat="44.46144" lon="5.57675">
        <ele>1060.9</ele>
        <time>2023-03-20T11:57:27Z</time>
      </trkpt>
      <trkpt lat="44.46142" lon="5.57678">
        <ele>1060.4</ele>
        <time>2023-03-20T11:57:28Z</time>
      </trkpt>
      <trkpt lat="44.46138" lon="5.57681">
        <ele>1059.6</ele>
        <time>2023-03-20T11:57:29Z</time>
      </trkpt>
      <trkpt lat="44.46137" lon="5.57681">
        <ele>1059.4</ele>
        <time>2023-03-20T11:57:30Z</time>
      </trkpt>
      <trkpt lat="44.46134" lon="5.57681">
        <ele>1058.8</ele>
        <time>2023-03-20T11:57:31Z</time>
      </trkpt>
      <trkpt lat="44.46131" lon="5.5768">
        <ele>1058.3</ele>
        <time>2023-03-20T11:57:32Z</time>
      </trkpt>
      <trkpt lat="44.46127" lon="5.5768">
        <ele>1057.6</ele>
        <time>2023-03-20T11:57:33Z</time>
      </trkpt>
      <trkpt lat="44.46125" lon="5.5768">
        <ele>1057.3</ele>
        <time>2023-03-20T11:57:34Z</time>
      </trkpt>
      <trkpt lat="44.46122" lon="5.57679">
        <ele>1056.8</ele>
        <time>2023-03-20T11:57:35Z</time>
      </trkpt>
      <trkpt lat="44.46121" lon="5.57678">
        <ele>1056.5</ele>
        <time>2023-03-20T11:57:36Z</time>
      </trkpt>
      <trkpt lat="44.46119" lon="5.57677">
        <ele>1056.2</ele>
        <time>2023-03-20T11:57:37Z</time>
      </trkpt>
      <trkpt lat="44.46116" lon="5.57675">
        <ele>1055.7</ele>
        <time>2023-03-20T11:57:38Z</time>
      </trkpt>
      <trkpt lat="44.46115" lon="5.57674">
        <ele>1055.5</ele>
        <time>2023-03-20T11:57:39Z</time>
      </trkpt>
      <trkpt lat="44.46113" lon="5.57673">
        <ele>1055</ele>
        <time>2023-03-20T11:57:40Z</time>
      </trkpt>
      <trkpt lat="44.46109" lon="5.57671">
        <ele>1054.2</ele>
        <time>2023-03-20T11:57:41Z</time>
      </trkpt>
      <trkpt lat="44.46107" lon="5.57671">
        <ele>1054</ele>
        <time>2023-03-20T11:57:42Z</time>
      </trkpt>
      <trkpt lat="44.46104" lon="5.5767">
        <ele>1053.4</ele>
        <time>2023-03-20T11:57:43Z</time>
      </trkpt>
      <trkpt lat="44.46103" lon="5.5767">
        <ele>1053.2</ele>
        <time>2023-03-20T11:57:44Z</time>
      </trkpt>
      <trkpt lat="44.46099" lon="5.57672">
        <ele>1052.4</ele>
        <time>2023-03-20T11:57:45Z</time>
      </trkpt>
      <trkpt lat="44.46097" lon="5.57673">
        <ele>1052.1</ele>
        <time>2023-03-20T11:57:46Z</time>
      </trkpt>
      <trkpt lat="44.46095" lon="5.57676">
        <ele>1051.6</ele>
        <time>2023-03-20T11:57:47Z</time>
      </trkpt>
      <trkpt lat="44.46092" lon="5.5768">
        <ele>1051</ele>
        <time>2023-03-20T11:57:48Z</time>
      </trkpt>
      <trkpt lat="44.46092" lon="5.57681">
        <ele>1050.7</ele>
        <time>2023-03-20T11:57:49Z</time>
      </trkpt>
      <trkpt lat="44.46089" lon="5.57683">
        <ele>1050.2</ele>
        <time>2023-03-20T11:57:50Z</time>
      </trkpt>
      <trkpt lat="44.46086" lon="5.57686">
        <ele>1049.6</ele>
        <time>2023-03-20T11:57:51Z</time>
      </trkpt>
      <trkpt lat="44.46083" lon="5.57688">
        <ele>1049</ele>
        <time>2023-03-20T11:57:52Z</time>
      </trkpt>
      <trkpt lat="44.46079" lon="5.5769">
        <ele>1048.3</ele>
        <time>2023-03-20T11:57:53Z</time>
      </trkpt>
      <trkpt lat="44.46076" lon="5.57693">
        <ele>1047.6</ele>
        <time>2023-03-20T11:57:54Z</time>
      </trkpt>
      <trkpt lat="44.46073" lon="5.57697">
        <ele>1046.9</ele>
        <time>2023-03-20T11:57:55Z</time>
      </trkpt>
      <trkpt lat="44.46069" lon="5.57701">
        <ele>1046</ele>
        <time>2023-03-20T11:57:56Z</time>
      </trkpt>
      <trkpt lat="44.46066" lon="5.57706">
        <ele>1045.2</ele>
        <time>2023-03-20T11:57:57Z</time>
      </trkpt>
      <trkpt lat="44.46063" lon="5.5771">
        <ele>1044.5</ele>
        <time>2023-03-20T11:57:58Z</time>
      </trkpt>
      <trkpt lat="44.4606" lon="5.57714">
        <ele>1043.7</ele>
        <time>2023-03-20T11:57:59Z</time>
      </trkpt>
      <trkpt lat="44.46057" lon="5.57717">
        <ele>1043.1</ele>
        <time>2023-03-20T11:58:00Z</time>
      </trkpt>
      <trkpt lat="44.46054" lon="5.57719">
        <ele>1042.5</ele>
        <time>2023-03-20T11:58:01Z</time>
      </trkpt>
      <trkpt lat="44.46051" lon="5.57721">
        <ele>1042</ele>
        <time>2023-03-20T11:58:02Z</time>
      </trkpt>
      <trkpt lat="44.46048" lon="5.57722">
        <ele>1041.5</ele>
        <time>2023-03-20T11:58:03Z</time>
      </trkpt>
      <trkpt lat="44.46045" lon="5.57724">
        <ele>1040.9</ele>
        <time>2023-03-20T11:58:04Z</time>
      </trkpt>
      <trkpt lat="44.46042" lon="5.57725">
        <ele>1040.4</ele>
        <time>2023-03-20T11:58:05Z</time>
      </trkpt>
      <trkpt lat="44.4604" lon="5.57727">
        <ele>1039.9</ele>
        <time>2023-03-20T11:58:06Z</time>
      </trkpt>
      <trkpt lat="44.46037" lon="5.57728">
        <ele>1039.4</ele>
        <time>2023-03-20T11:58:07Z</time>
      </trkpt>
      <trkpt lat="44.46034" lon="5.5773">
        <ele>1038.8</ele>
        <time>2023-03-20T11:58:08Z</time>
      </trkpt>
      <trkpt lat="44.46031" lon="5.57733">
        <ele>1038.2</ele>
        <time>2023-03-20T11:58:09Z</time>
      </trkpt>
      <trkpt lat="44.46029" lon="5.57733">
        <ele>1037.9</ele>
        <time>2023-03-20T11:58:10Z</time>
      </trkpt>
      <trkpt lat="44.46027" lon="5.57734">
        <ele>1037.4</ele>
        <time>2023-03-20T11:58:11Z</time>
      </trkpt>
      <trkpt lat="44.46024" lon="5.57735">
        <ele>1036.9</ele>
        <time>2023-03-20T11:58:12Z</time>
      </trkpt>
      <trkpt lat="44.4602" lon="5.57736">
        <ele>1036.2</ele>
        <time>2023-03-20T11:58:13Z</time>
      </trkpt>
      <trkpt lat="44.46016" lon="5.57736">
        <ele>1035.6</ele>
        <time>2023-03-20T11:58:14Z</time>
      </trkpt>
      <trkpt lat="44.46013" lon="5.57737">
        <ele>1035</ele>
        <time>2023-03-20T11:58:15Z</time>
      </trkpt>
      <trkpt lat="44.46009" lon="5.57737">
        <ele>1034.4</ele>
        <time>2023-03-20T11:58:16Z</time>
      </trkpt>
      <trkpt lat="44.46008" lon="5.57737">
        <ele>1034.2</ele>
        <time>2023-03-20T11:58:17Z</time>
      </trkpt>
      <trkpt lat="44.46004" lon="5.57738">
        <ele>1033.4</ele>
        <time>2023-03-20T11:58:18Z</time>
      </trkpt>
      <trkpt lat="44.46002" lon="5.57739">
        <ele>1033.1</ele>
        <time>2023-03-20T11:58:19Z</time>
      </trkpt>
      <trkpt lat="44.45998" lon="5.57739">
        <ele>1032.4</ele>
        <time>2023-03-20T11:58:20Z</time>
      </trkpt>
      <trkpt lat="44.45995" lon="5.5774">
        <ele>1031.8</ele>
        <time>2023-03-20T11:58:21Z</time>
      </trkpt>
      <trkpt lat="44.45991" lon="5.57742">
        <ele>1031.1</ele>
        <time>2023-03-20T11:58:22Z</time>
      </trkpt>
      <trkpt lat="44.45987" lon="5.57742">
        <ele>1030.4</ele>
        <time>2023-03-20T11:58:23Z</time>
      </trkpt>
      <trkpt lat="44.45983" lon="5.57743">
        <ele>1029.8</ele>
        <time>2023-03-20T11:58:24Z</time>
      </trkpt>
      <trkpt lat="44.45979" lon="5.57743">
        <ele>1029</ele>
        <time>2023-03-20T11:58:25Z</time>
      </trkpt>
      <trkpt lat="44.45975" lon="5.57744">
        <ele>1028.3</ele>
        <time>2023-03-20T11:58:26Z</time>
      </trkpt>
      <trkpt lat="44.45971" lon="5.57745">
        <ele>1027.6</ele>
        <time>2023-03-20T11:58:27Z</time>
      </trkpt>
      <trkpt lat="44.45967" lon="5.57746">
        <ele>1027</ele>
        <time>2023-03-20T11:58:28Z</time>
      </trkpt>
      <trkpt lat="44.45964" lon="5.57747">
        <ele>1026.3</ele>
        <time>2023-03-20T11:58:29Z</time>
      </trkpt>
      <trkpt lat="44.4596" lon="5.57747">
        <ele>1025.7</ele>
        <time>2023-03-20T11:58:30Z</time>
      </trkpt>
      <trkpt lat="44.45957" lon="5.57748">
        <ele>1025.1</ele>
        <time>2023-03-20T11:58:31Z</time>
      </trkpt>
      <trkpt lat="44.45954" lon="5.57748">
        <ele>1024.6</ele>
        <time>2023-03-20T11:58:32Z</time>
      </trkpt>
      <trkpt lat="44.45951" lon="5.57747">
        <ele>1024.1</ele>
        <time>2023-03-20T11:58:33Z</time>
      </trkpt>
      <trkpt lat="44.45948" lon="5.57747">
        <ele>1023.5</ele>
        <time>2023-03-20T11:58:34Z</time>
      </trkpt>
      <trkpt lat="44.45947" lon="5.57747">
        <ele>1023.3</ele>
        <time>2023-03-20T11:58:35Z</time>
      </trkpt>
      <trkpt lat="44.45945" lon="5.57748">
        <ele>1022.9</ele>
        <time>2023-03-20T11:58:36Z</time>
      </trkpt>
      <trkpt lat="44.45944" lon="5.57748">
        <ele>1022.8</ele>
        <time>2023-03-20T11:58:37Z</time>
      </trkpt>
      <trkpt lat="44.45942" lon="5.57748">
        <ele>1022.5</ele>
        <time>2023-03-20T11:58:38Z</time>
      </trkpt>
      <trkpt lat="44.4594" lon="5.57749">
        <ele>1022.2</ele>
        <time>2023-03-20T11:58:39Z</time>
      </trkpt>
      <trkpt lat="44.45938" lon="5.57749">
        <ele>1021.7</ele>
        <time>2023-03-20T11:58:40Z</time>
      </trkpt>
      <trkpt lat="44.45937" lon="5.5775">
        <ele>1021.6</ele>
        <time>2023-03-20T11:58:41Z</time>
      </trkpt>
      <trkpt lat="44.45934" lon="5.5775">
        <ele>1021</ele>
        <time>2023-03-20T11:58:42Z</time>
      </trkpt>
      <trkpt lat="44.45933" lon="5.57751">
        <ele>1020.9</ele>
        <time>2023-03-20T11:58:43Z</time>
      </trkpt>
      <trkpt lat="44.45931" lon="5.57753">
        <ele>1020.4</ele>
        <time>2023-03-20T11:58:44Z</time>
      </trkpt>
      <trkpt lat="44.4593" lon="5.57754">
        <ele>1020.2</ele>
        <time>2023-03-20T11:58:45Z</time>
      </trkpt>
      <trkpt lat="44.45929" lon="5.57756">
        <ele>1019.9</ele>
        <time>2023-03-20T11:58:46Z</time>
      </trkpt>
      <trkpt lat="44.45929" lon="5.57757">
        <ele>1019.8</ele>
        <time>2023-03-20T11:58:47Z</time>
      </trkpt>
      <trkpt lat="44.45928" lon="5.57757">
        <ele>1019.6</ele>
        <time>2023-03-20T11:58:48Z</time>
      </trkpt>
      <trkpt lat="44.45928" lon="5.57758">
        <ele>1019.5</ele>
        <time>2023-03-20T11:58:49Z</time>
      </trkpt>
      <trkpt lat="44.45927" lon="5.57759">
        <ele>1019.4</ele>
        <time>2023-03-20T11:58:50Z</time>
      </trkpt>
      <trkpt lat="44.45927" lon="5.5776">
        <ele>1019.3</ele>
        <time>2023-03-20T11:58:51Z</time>
      </trkpt>
      <trkpt lat="44.45927" lon="5.5776">
        <ele>1019.2</ele>
        <time>2023-03-20T11:58:52Z</time>
      </trkpt>
      <trkpt lat="44.45927" lon="5.57761">
        <ele>1019.1</ele>
        <time>2023-03-20T11:58:53Z</time>
      </trkpt>
      <trkpt lat="44.45927" lon="5.57762">
        <ele>1019</ele>
        <time>2023-03-20T11:58:54Z</time>
      </trkpt>
      <trkpt lat="44.45927" lon="5.57766">
        <ele>1018.5</ele>
        <time>2023-03-20T11:58:55Z</time>
      </trkpt>
      <trkpt lat="44.45928" lon="5.57767">
        <ele>1018.3</ele>
        <time>2023-03-20T11:58:56Z</time>
      </trkpt>
      <trkpt lat="44.45929" lon="5.57771">
        <ele>1017.8</ele>
        <time>2023-03-20T11:58:57Z</time>
      </trkpt>
      <trkpt lat="44.45929" lon="5.57772">
        <ele>1017.6</ele>
        <time>2023-03-20T11:58:58Z</time>
      </trkpt>
      <trkpt lat="44.45931" lon="5.57775">
        <ele>1017.1</ele>
        <time>2023-03-20T11:58:59Z</time>
      </trkpt>
      <trkpt lat="44.45932" lon="5.57776">
        <ele>1016.9</ele>
        <time>2023-03-20T11:59:00Z</time>
      </trkpt>
      <trkpt lat="44.45935" lon="5.57778">
        <ele>1016.4</ele>
        <time>2023-03-20T11:59:01Z</time>
      </trkpt>
      <trkpt lat="44.45937" lon="5.5778">
        <ele>1015.9</ele>
        <time>2023-03-20T11:59:02Z</time>
      </trkpt>
      <trkpt lat="44.4594" lon="5.57782">
        <ele>1015.4</ele>
        <time>2023-03-20T11:59:03Z</time>
      </trkpt>
      <trkpt lat="44.45943" lon="5.57784">
        <ele>1014.9</ele>
        <time>2023-03-20T11:59:04Z</time>
      </trkpt>
      <trkpt lat="44.45945" lon="5.57785">
        <ele>1014.4</ele>
        <time>2023-03-20T11:59:05Z</time>
      </trkpt>
      <trkpt lat="44.45947" lon="5.57785">
        <ele>1014.1</ele>
        <time>2023-03-20T11:59:06Z</time>
      </trkpt>
      <trkpt lat="44.45948" lon="5.57785">
        <ele>1013.9</ele>
        <time>2023-03-20T11:59:07Z</time>
      </trkpt>
      <trkpt lat="44.4595" lon="5.57784">
        <ele>1013.8</ele>
        <time>2023-03-20T11:59:08Z</time>
      </trkpt>
      <trkpt lat="44.45951" lon="5.57784">
        <ele>1013.7</ele>
        <time>2023-03-20T11:59:09Z</time>
      </trkpt>
      <trkpt lat="44.45952" lon="5.57786">
        <ele>1015.4</ele>
        <time>2023-03-20T11:59:10Z</time>
      </trkpt>
      <trkpt lat="44.45952" lon="5.57788">
        <ele>1013.4</ele>
        <time>2023-03-20T11:59:11Z</time>
      </trkpt>
      <trkpt lat="44.4595" lon="5.57789">
        <ele>1013.3</ele>
        <time>2023-03-20T11:59:12Z</time>
      </trkpt>
      <trkpt lat="44.45947" lon="5.57791">
        <ele>1013.2</ele>
        <time>2023-03-20T11:59:13Z</time>
      </trkpt>
      <trkpt lat="44.45946" lon="5.57791">
        <ele>1013.1</ele>
        <time>2023-03-20T11:59:14Z</time>
      </trkpt>
      <trkpt lat="44.45943" lon="5.57792">
        <ele>1013</ele>
        <time>2023-03-20T11:59:15Z</time>
      </trkpt>
      <trkpt lat="44.4594" lon="5.57793">
        <ele>1012.8</ele>
        <time>2023-03-20T11:59:16Z</time>
      </trkpt>
      <trkpt lat="44.45937" lon="5.57794">
        <ele>1010.9</ele>
        <time>2023-03-20T11:59:17Z</time>
      </trkpt>
      <trkpt lat="44.45933" lon="5.57796">
        <ele>1010.7</ele>
        <time>2023-03-20T11:59:18Z</time>
      </trkpt>
      <trkpt lat="44.45932" lon="5.57796">
        <ele>1010.6</ele>
        <time>2023-03-20T11:59:19Z</time>
      </trkpt>
      <trkpt lat="44.45929" lon="5.57795">
        <ele>1010.5</ele>
        <time>2023-03-20T11:59:20Z</time>
      </trkpt>
      <trkpt lat="44.45928" lon="5.57795">
        <ele>1010.4</ele>
        <time>2023-03-20T11:59:21Z</time>
      </trkpt>
      <trkpt lat="44.45925" lon="5.57795">
        <ele>1008.6</ele>
        <time>2023-03-20T11:59:22Z</time>
      </trkpt>
      <trkpt lat="44.45921" lon="5.57795">
        <ele>1008.5</ele>
        <time>2023-03-20T11:59:23Z</time>
      </trkpt>
      <trkpt lat="44.45918" lon="5.57794">
        <ele>1008.4</ele>
        <time>2023-03-20T11:59:24Z</time>
      </trkpt>
      <trkpt lat="44.45914" lon="5.57793">
        <ele>1006.6</ele>
        <time>2023-03-20T11:59:25Z</time>
      </trkpt>
      <trkpt lat="44.45911" lon="5.57793">
        <ele>1006.5</ele>
        <time>2023-03-20T11:59:26Z</time>
      </trkpt>
      <trkpt lat="44.45907" lon="5.57793">
        <ele>1006.4</ele>
        <time>2023-03-20T11:59:27Z</time>
      </trkpt>
      <trkpt lat="44.45904" lon="5.57793">
        <ele>1006.3</ele>
        <time>2023-03-20T11:59:28Z</time>
      </trkpt>
      <trkpt lat="44.45901" lon="5.57792">
        <ele>1005.1</ele>
        <time>2023-03-20T11:59:29Z</time>
      </trkpt>
      <trkpt lat="44.459" lon="5.57791">
        <ele>1005</ele>
        <time>2023-03-20T11:59:30Z</time>
      </trkpt>
      <trkpt lat="44.45898" lon="5.57791">
        <ele>1004.9</ele>
        <time>2023-03-20T11:59:31Z</time>
      </trkpt>
      <trkpt lat="44.45897" lon="5.57793">
        <ele>1004.7</ele>
        <time>2023-03-20T11:59:32Z</time>
      </trkpt>
      <trkpt lat="44.45896" lon="5.57797">
        <ele>1001.2</ele>
        <time>2023-03-20T11:59:33Z</time>
      </trkpt>
      <trkpt lat="44.45896" lon="5.57798">
        <ele>1001.1</ele>
        <time>2023-03-20T11:59:34Z</time>
      </trkpt>
      <trkpt lat="44.45898" lon="5.57803">
        <ele>1000.9</ele>
        <time>2023-03-20T11:59:35Z</time>
      </trkpt>
      <trkpt lat="44.45899" lon="5.57804">
        <ele>1000.8</ele>
        <time>2023-03-20T11:59:36Z</time>
      </trkpt>
      <trkpt lat="44.45901" lon="5.57808">
        <ele>1000.7</ele>
        <time>2023-03-20T11:59:37Z</time>
      </trkpt>
      <trkpt lat="44.45902" lon="5.57809">
        <ele>1000.6</ele>
        <time>2023-03-20T11:59:38Z</time>
      </trkpt>
      <trkpt lat="44.45904" lon="5.57811">
        <ele>1001.5</ele>
        <time>2023-03-20T11:59:39Z</time>
      </trkpt>
      <trkpt lat="44.45905" lon="5.57812">
        <ele>1001.4</ele>
        <time>2023-03-20T11:59:40Z</time>
      </trkpt>
      <trkpt lat="44.45907" lon="5.57814">
        <ele>998.3</ele>
        <time>2023-03-20T11:59:41Z</time>
      </trkpt>
      <trkpt lat="44.45908" lon="5.57815">
        <ele>998.2</ele>
        <time>2023-03-20T11:59:42Z</time>
      </trkpt>
      <trkpt lat="44.45908" lon="5.5782">
        <ele>998.1</ele>
        <time>2023-03-20T11:59:43Z</time>
      </trkpt>
      <trkpt lat="44.45909" lon="5.57821">
        <ele>998</ele>
        <time>2023-03-20T11:59:44Z</time>
      </trkpt>
      <trkpt lat="44.4591" lon="5.57826">
        <ele>997.9</ele>
        <time>2023-03-20T11:59:45Z</time>
      </trkpt>
      <trkpt lat="44.4591" lon="5.57827">
        <ele>997.7</ele>
        <time>2023-03-20T11:59:46Z</time>
      </trkpt>
      <trkpt lat="44.45911" lon="5.57831">
        <ele>995</ele>
        <time>2023-03-20T11:59:47Z</time>
      </trkpt>
      <trkpt lat="44.45911" lon="5.57832">
        <ele>994.9</ele>
        <time>2023-03-20T11:59:48Z</time>
      </trkpt>
      <trkpt lat="44.45911" lon="5.57835">
        <ele>994.7</ele>
        <time>2023-03-20T11:59:49Z</time>
      </trkpt>
      <trkpt lat="44.45911" lon="5.57837">
        <ele>994.6</ele>
        <time>2023-03-20T11:59:50Z</time>
      </trkpt>
      <trkpt lat="44.45911" lon="5.57839">
        <ele>994.5</ele>
        <time>2023-03-20T11:59:51Z</time>
      </trkpt>
      <trkpt lat="44.4591" lon="5.5784">
        <ele>994.4</ele>
        <time>2023-03-20T11:59:52Z</time>
      </trkpt>
      <trkpt lat="44.45909" lon="5.5784">
        <ele>994.3</ele>
        <time>2023-03-20T11:59:53Z</time>
      </trkpt>
      <trkpt lat="44.45908" lon="5.57839">
        <ele>994.1</ele>
        <time>2023-03-20T11:59:54Z</time>
      </trkpt>
      <trkpt lat="44.45907" lon="5.57838">
        <ele>994</ele>
        <time>2023-03-20T11:59:55Z</time>
      </trkpt>
      <trkpt lat="44.45906" lon="5.57837">
        <ele>993.9</ele>
        <time>2023-03-20T11:59:56Z</time>
      </trkpt>
      <trkpt lat="44.45904" lon="5.57836">
        <ele>993.8</ele>
        <time>2023-03-20T11:59:57Z</time>
      </trkpt>
      <trkpt lat="44.45903" lon="5.57835">
        <ele>993.6</ele>
        <time>2023-03-20T11:59:58Z</time>
      </trkpt>
      <trkpt lat="44.459" lon="5.57835">
        <ele>992.5</ele>
        <time>2023-03-20T11:59:59Z</time>
      </trkpt>
      <trkpt lat="44.45899" lon="5.57836">
        <ele>992.4</ele>
        <time>2023-03-20T12:00:00Z</time>
      </trkpt>
      <trkpt lat="44.45895" lon="5.57836">
        <ele>992.3</ele>
        <time>2023-03-20T12:00:01Z</time>
      </trkpt>
      <trkpt lat="44.45894" lon="5.57836">
        <ele>992.2</ele>
        <time>2023-03-20T12:00:02Z</time>
      </trkpt>
      <trkpt lat="44.4589" lon="5.57837">
        <ele>990.7</ele>
        <time>2023-03-20T12:00:03Z</time>
      </trkpt>
      <trkpt lat="44.45886" lon="5.57837">
        <ele>990.5</ele>
        <time>2023-03-20T12:00:04Z</time>
      </trkpt>
      <trkpt lat="44.45882" lon="5.57839">
        <ele>990.4</ele>
        <time>2023-03-20T12:00:05Z</time>
      </trkpt>
      <trkpt lat="44.45879" lon="5.57841">
        <ele>990.3</ele>
        <time>2023-03-20T12:00:06Z</time>
      </trkpt>
      <trkpt lat="44.45876" lon="5.57843">
        <ele>989</ele>
        <time>2023-03-20T12:00:07Z</time>
      </trkpt>
      <trkpt lat="44.45874" lon="5.57846">
        <ele>988.9</ele>
        <time>2023-03-20T12:00:08Z</time>
      </trkpt>
      <trkpt lat="44.45871" lon="5.57848">
        <ele>986.8</ele>
        <time>2023-03-20T12:00:09Z</time>
      </trkpt>
      <trkpt lat="44.45869" lon="5.5785">
        <ele>986.6</ele>
        <time>2023-03-20T12:00:10Z</time>
      </trkpt>
      <trkpt lat="44.45865" lon="5.57851">
        <ele>985.1</ele>
        <time>2023-03-20T12:00:11Z</time>
      </trkpt>
      <trkpt lat="44.45862" lon="5.57851">
        <ele>985</ele>
        <time>2023-03-20T12:00:12Z</time>
      </trkpt>
      <trkpt lat="44.45858" lon="5.57851">
        <ele>984.9</ele>
        <time>2023-03-20T12:00:13Z</time>
      </trkpt>
      <trkpt lat="44.45855" lon="5.57851">
        <ele>984.8</ele>
        <time>2023-03-20T12:00:14Z</time>
      </trkpt>
      <trkpt lat="44.45852" lon="5.57851">
        <ele>983.3</ele>
        <time>2023-03-20T12:00:15Z</time>
      </trkpt>
      <trkpt lat="44.45849" lon="5.57851">
        <ele>983.2</ele>
        <time>2023-03-20T12:00:16Z</time>
      </trkpt>
      <trkpt lat="44.45847" lon="5.5785">
        <ele>983.1</ele>
        <time>2023-03-20T12:00:17Z</time>
      </trkpt>
      <trkpt lat="44.45846" lon="5.57849">
        <ele>983</ele>
        <time>2023-03-20T12:00:18Z</time>
      </trkpt>
      <trkpt lat="44.45846" lon="5.57845">
        <ele>985.1</ele>
        <time>2023-03-20T12:00:19Z</time>
      </trkpt>
      <trkpt lat="44.45846" lon="5.57843">
        <ele>985</ele>
        <time>2023-03-20T12:00:20Z</time>
      </trkpt>
      <trkpt lat="44.45846" lon="5.57839">
        <ele>984.9</ele>
        <time>2023-03-20T12:00:21Z</time>
      </trkpt>
      <trkpt lat="44.45847" lon="5.57837">
        <ele>984.8</ele>
        <time>2023-03-20T12:00:22Z</time>
      </trkpt>
      <trkpt lat="44.45847" lon="5.57835">
        <ele>984.6</ele>
        <time>2023-03-20T12:00:23Z</time>
      </trkpt>
      <trkpt lat="44.45848" lon="5.57834">
        <ele>984.5</ele>
        <time>2023-03-20T12:00:24Z</time>
      </trkpt>
      <trkpt lat="44.45848" lon="5.57833">
        <ele>984.4</ele>
        <time>2023-03-20T12:00:25Z</time>
      </trkpt>
      <trkpt lat="44.45847" lon="5.57832">
        <ele>984.3</ele>
        <time>2023-03-20T12:00:26Z</time>
      </trkpt>
      <trkpt lat="44.45845" lon="5.57831">
        <ele>984.2</ele>
        <time>2023-03-20T12:00:27Z</time>
      </trkpt>
      <trkpt lat="44.45842" lon="5.57832">
        <ele>984</ele>
        <time>2023-03-20T12:00:28Z</time>
      </trkpt>
      <trkpt lat="44.45841" lon="5.57832">
        <ele>982.6</ele>
        <time>2023-03-20T12:00:29Z</time>
      </trkpt>
      <trkpt lat="44.45838" lon="5.57834">
        <ele>982.5</ele>
        <time>2023-03-20T12:00:30Z</time>
      </trkpt>
      <trkpt lat="44.45835" lon="5.57836">
        <ele>982.4</ele>
        <time>2023-03-20T12:00:31Z</time>
      </trkpt>
      <trkpt lat="44.45833" lon="5.57838">
        <ele>982.3</ele>
        <time>2023-03-20T12:00:32Z</time>
      </trkpt>
      <trkpt lat="44.4583" lon="5.5784">
        <ele>982.1</ele>
        <time>2023-03-20T12:00:33Z</time>
      </trkpt>
      <trkpt lat="44.45829" lon="5.57841">
        <ele>982</ele>
        <time>2023-03-20T12:00:34Z</time>
      </trkpt>
      <trkpt lat="44.45828" lon="5.57842">
        <ele>980.3</ele>
        <time>2023-03-20T12:00:35Z</time>
      </trkpt>
      <trkpt lat="44.45827" lon="5.57845">
        <ele>980.2</ele>
        <time>2023-03-20T12:00:36Z</time>
      </trkpt>
      <trkpt lat="44.45827" lon="5.57849">
        <ele>977.7</ele>
        <time>2023-03-20T12:00:37Z</time>
      </trkpt>
      <trkpt lat="44.45826" lon="5.57851">
        <ele>977.6</ele>
        <time>2023-03-20T12:00:38Z</time>
      </trkpt>
      <trkpt lat="44.45825" lon="5.57857">
        <ele>977.5</ele>
        <time>2023-03-20T12:00:39Z</time>
      </trkpt>
      <trkpt lat="44.45825" lon="5.57859">
        <ele>977.3</ele>
        <time>2023-03-20T12:00:40Z</time>
      </trkpt>
      <trkpt lat="44.45824" lon="5.57863">
        <ele>977.2</ele>
        <time>2023-03-20T12:00:41Z</time>
      </trkpt>
      <trkpt lat="44.45823" lon="5.57867">
        <ele>975.2</ele>
        <time>2023-03-20T12:00:42Z</time>
      </trkpt>
      <trkpt lat="44.45822" lon="5.57871">
        <ele>975.1</ele>
        <time>2023-03-20T12:00:43Z</time>
      </trkpt>
      <trkpt lat="44.45821" lon="5.57876">
        <ele>974.9</ele>
        <time>2023-03-20T12:00:44Z</time>
      </trkpt>
      <trkpt lat="44.4582" lon="5.57881">
        <ele>974.8</ele>
        <time>2023-03-20T12:00:45Z</time>
      </trkpt>
      <trkpt lat="44.4582" lon="5.57883">
        <ele>973.4</ele>
        <time>2023-03-20T12:00:46Z</time>
      </trkpt>
      <trkpt lat="44.45819" lon="5.57886">
        <ele>973.3</ele>
        <time>2023-03-20T12:00:47Z</time>
      </trkpt>
      <trkpt lat="44.45818" lon="5.57886">
        <ele>973.2</ele>
        <time>2023-03-20T12:00:48Z</time>
      </trkpt>
      <trkpt lat="44.45816" lon="5.57887">
        <ele>971.6</ele>
        <time>2023-03-20T12:00:49Z</time>
      </trkpt>
      <trkpt lat="44.45815" lon="5.57886">
        <ele>971.5</ele>
        <time>2023-03-20T12:00:50Z</time>
      </trkpt>
      <trkpt lat="44.45814" lon="5.57884">
        <ele>971.4</ele>
        <time>2023-03-20T12:00:51Z</time>
      </trkpt>
      <trkpt lat="44.45813" lon="5.57882">
        <ele>972.5</ele>
        <time>2023-03-20T12:00:52Z</time>
      </trkpt>
      <trkpt lat="44.45812" lon="5.5788">
        <ele>972.4</ele>
        <time>2023-03-20T12:00:53Z</time>
      </trkpt>
      <trkpt lat="44.45812" lon="5.57878">
        <ele>972.3</ele>
        <time>2023-03-20T12:00:54Z</time>
      </trkpt>
      <trkpt lat="44.45811" lon="5.57876">
        <ele>972.2</ele>
        <time>2023-03-20T12:00:55Z</time>
      </trkpt>
      <trkpt lat="44.4581" lon="5.57874">
        <ele>972.1</ele>
        <time>2023-03-20T12:00:56Z</time>
      </trkpt>
      <trkpt lat="44.45809" lon="5.57873">
        <ele>971.9</ele>
        <time>2023-03-20T12:00:57Z</time>
      </trkpt>
      <trkpt lat="44.45808" lon="5.57871">
        <ele>971.8</ele>
        <time>2023-03-20T12:00:58Z</time>
      </trkpt>
      <trkpt lat="44.45807" lon="5.57869">
        <ele>971.7</ele>
        <time>2023-03-20T12:00:59Z</time>
      </trkpt>
      <trkpt lat="44.45807" lon="5.57868">
        <ele>971.6</ele>
        <time>2023-03-20T12:01:00Z</time>
      </trkpt>
      <trkpt lat="44.45806" lon="5.57866">
        <ele>971.4</ele>
        <time>2023-03-20T12:01:01Z</time>
      </trkpt>
      <trkpt lat="44.45805" lon="5.57866">
        <ele>971.3</ele>
        <time>2023-03-20T12:01:02Z</time>
      </trkpt>
      <trkpt lat="44.45805" lon="5.57865">
        <ele>971.2</ele>
        <time>2023-03-20T12:01:03Z</time>
      </trkpt>
      <trkpt lat="44.45805" lon="5.57865">
        <ele>972.9</ele>
        <time>2023-03-20T12:01:04Z</time>
      </trkpt>
      <trkpt lat="44.45804" lon="5.57864">
        <ele>971</ele>
        <time>2023-03-20T12:01:05Z</time>
      </trkpt>
      <trkpt lat="44.45804" lon="5.57864">
        <ele>970.9</ele>
        <time>2023-03-20T12:01:06Z</time>
      </trkpt>
      <trkpt lat="44.45803" lon="5.57863">
        <ele>970.8</ele>
        <time>2023-03-20T12:01:07Z</time>
      </trkpt>
      <trkpt lat="44.45801" lon="5.57863">
        <ele>970.6</ele>
        <time>2023-03-20T12:01:08Z</time>
      </trkpt>
      <trkpt lat="44.458" lon="5.57864">
        <ele>970.5</ele>
        <time>2023-03-20T12:01:09Z</time>
      </trkpt>
      <trkpt lat="44.45799" lon="5.57865">
        <ele>968.5</ele>
        <time>2023-03-20T12:01:10Z</time>
      </trkpt>
      <trkpt lat="44.45798" lon="5.57868">
        <ele>968.4</ele>
        <time>2023-03-20T12:01:11Z</time>
      </trkpt>
      <trkpt lat="44.45797" lon="5.57869">
        <ele>968.3</ele>
        <time>2023-03-20T12:01:12Z</time>
      </trkpt>
      <trkpt lat="44.45795" lon="5.57872">
        <ele>968.2</ele>
        <time>2023-03-20T12:01:13Z</time>
      </trkpt>
      <trkpt lat="44.45794" lon="5.57872">
        <ele>968.1</ele>
        <time>2023-03-20T12:01:14Z</time>
      </trkpt>
      <trkpt lat="44.45793" lon="5.57876">
        <ele>967.9</ele>
        <time>2023-03-20T12:01:15Z</time>
      </trkpt>
      <trkpt lat="44.45793" lon="5.57878">
        <ele>967.8</ele>
        <time>2023-03-20T12:01:16Z</time>
      </trkpt>
      <trkpt lat="44.45792" lon="5.57882">
        <ele>967.7</ele>
        <time>2023-03-20T12:01:17Z</time>
      </trkpt>
      <trkpt lat="44.45792" lon="5.57884">
        <ele>966.3</ele>
        <time>2023-03-20T12:01:18Z</time>
      </trkpt>
      <trkpt lat="44.45792" lon="5.57888">
        <ele>964.7</ele>
        <time>2023-03-20T12:01:19Z</time>
      </trkpt>
      <trkpt lat="44.45792" lon="5.57888">
        <ele>964.6</ele>
        <time>2023-03-20T12:01:20Z</time>
      </trkpt>
      <trkpt lat="44.45791" lon="5.5789">
        <ele>964.5</ele>
        <time>2023-03-20T12:01:21Z</time>
      </trkpt>
      <trkpt lat="44.45789" lon="5.57891">
        <ele>964.3</ele>
        <time>2023-03-20T12:01:22Z</time>
      </trkpt>
      <trkpt lat="44.45786" lon="5.57891">
        <ele>964.2</ele>
        <time>2023-03-20T12:01:23Z</time>
      </trkpt>
      <trkpt lat="44.45785" lon="5.5789">
        <ele>964.1</ele>
        <time>2023-03-20T12:01:24Z</time>
      </trkpt>
      <trkpt lat="44.45782" lon="5.57891">
        <ele>963.7</ele>
        <time>2023-03-20T12:01:25Z</time>
      </trkpt>
      <trkpt lat="44.4578" lon="5.57892">
        <ele>963.6</ele>
        <time>2023-03-20T12:01:26Z</time>
      </trkpt>
      <trkpt lat="44.45777" lon="5.57894">
        <ele>963.2</ele>
        <time>2023-03-20T12:01:27Z</time>
      </trkpt>
      <trkpt lat="44.45772" lon="5.57899">
        <ele>962.7</ele>
        <time>2023-03-20T12:01:29Z</time>
      </trkpt>
      <trkpt lat="44.45769" lon="5.57901">
        <ele>962.4</ele>
        <time>2023-03-20T12:01:30Z</time>
      </trkpt>
      <trkpt lat="44.45766" lon="5.57903">
        <ele>962</ele>
        <time>2023-03-20T12:01:31Z</time>
      </trkpt>
      <trkpt lat="44.45765" lon="5.57903">
        <ele>961.9</ele>
        <time>2023-03-20T12:01:32Z</time>
      </trkpt>
      <trkpt lat="44.45764" lon="5.57905">
        <ele>961.8</ele>
        <time>2023-03-20T12:01:33Z</time>
      </trkpt>
      <trkpt lat="44.45763" lon="5.57906">
        <ele>961.6</ele>
        <time>2023-03-20T12:01:34Z</time>
      </trkpt>
      <trkpt lat="44.45762" lon="5.57907">
        <ele>961.5</ele>
        <time>2023-03-20T12:01:35Z</time>
      </trkpt>
      <trkpt lat="44.45761" lon="5.57907">
        <ele>961.5</ele>
        <time>2023-03-20T12:01:36Z</time>
      </trkpt>
      <trkpt lat="44.45762" lon="5.57907">
        <ele>961.5</ele>
        <time>2023-03-20T12:01:37Z</time>
      </trkpt>
      <trkpt lat="44.4576" lon="5.57909">
        <ele>961.3</ele>
        <time>2023-03-20T12:01:38Z</time>
      </trkpt>
      <trkpt lat="44.45758" lon="5.57916">
        <ele>960.8</ele>
        <time>2023-03-20T12:01:40Z</time>
      </trkpt>
      <trkpt lat="44.45757" lon="5.5792">
        <ele>960.5</ele>
        <time>2023-03-20T12:01:41Z</time>
      </trkpt>
      <trkpt lat="44.45755" lon="5.57923">
        <ele>960.2</ele>
        <time>2023-03-20T12:01:42Z</time>
      </trkpt>
      <trkpt lat="44.45752" lon="5.57926">
        <ele>959.9</ele>
        <time>2023-03-20T12:01:43Z</time>
      </trkpt>
      <trkpt lat="44.4575" lon="5.57928">
        <ele>959.7</ele>
        <time>2023-03-20T12:01:44Z</time>
      </trkpt>
      <trkpt lat="44.45748" lon="5.57931">
        <ele>959.4</ele>
        <time>2023-03-20T12:01:45Z</time>
      </trkpt>
      <trkpt lat="44.45746" lon="5.57934">
        <ele>959.1</ele>
        <time>2023-03-20T12:01:46Z</time>
      </trkpt>
      <trkpt lat="44.45743" lon="5.57937">
        <ele>958.8</ele>
        <time>2023-03-20T12:01:47Z</time>
      </trkpt>
      <trkpt lat="44.45741" lon="5.57939">
        <ele>958.5</ele>
        <time>2023-03-20T12:01:48Z</time>
      </trkpt>
      <trkpt lat="44.45737" lon="5.57941">
        <ele>958.1</ele>
        <time>2023-03-20T12:01:49Z</time>
      </trkpt>
      <trkpt lat="44.45736" lon="5.57941">
        <ele>958</ele>
        <time>2023-03-20T12:01:50Z</time>
      </trkpt>
      <trkpt lat="44.45733" lon="5.57942">
        <ele>957.7</ele>
        <time>2023-03-20T12:01:51Z</time>
      </trkpt>
      <trkpt lat="44.45729" lon="5.57944">
        <ele>957.3</ele>
        <time>2023-03-20T12:01:52Z</time>
      </trkpt>
      <trkpt lat="44.45725" lon="5.57945">
        <ele>956.9</ele>
        <time>2023-03-20T12:01:53Z</time>
      </trkpt>
      <trkpt lat="44.4572" lon="5.57947">
        <ele>956.5</ele>
        <time>2023-03-20T12:01:54Z</time>
      </trkpt>
      <trkpt lat="44.45716" lon="5.57948">
        <ele>956</ele>
        <time>2023-03-20T12:01:55Z</time>
      </trkpt>
      <trkpt lat="44.45711" lon="5.57949">
        <ele>955.6</ele>
        <time>2023-03-20T12:01:56Z</time>
      </trkpt>
      <trkpt lat="44.45706" lon="5.5795">
        <ele>955.1</ele>
        <time>2023-03-20T12:01:57Z</time>
      </trkpt>
      <trkpt lat="44.45702" lon="5.57951">
        <ele>954.7</ele>
        <time>2023-03-20T12:01:58Z</time>
      </trkpt>
      <trkpt lat="44.45698" lon="5.57951">
        <ele>954.4</ele>
        <time>2023-03-20T12:01:59Z</time>
      </trkpt>
      <trkpt lat="44.45695" lon="5.57952">
        <ele>954</ele>
        <time>2023-03-20T12:02:00Z</time>
      </trkpt>
      <trkpt lat="44.45692" lon="5.57952">
        <ele>953.7</ele>
        <time>2023-03-20T12:02:01Z</time>
      </trkpt>
      <trkpt lat="44.45689" lon="5.57952">
        <ele>953.4</ele>
        <time>2023-03-20T12:02:02Z</time>
      </trkpt>
      <trkpt lat="44.45686" lon="5.57952">
        <ele>953.1</ele>
        <time>2023-03-20T12:02:03Z</time>
      </trkpt>
      <trkpt lat="44.45682" lon="5.57952">
        <ele>952.8</ele>
        <time>2023-03-20T12:02:04Z</time>
      </trkpt>
      <trkpt lat="44.45675" lon="5.57956">
        <ele>952.1</ele>
        <time>2023-03-20T12:02:05Z</time>
      </trkpt>
      <trkpt lat="44.45668" lon="5.57958">
        <ele>951.3</ele>
        <time>2023-03-20T12:02:06Z</time>
      </trkpt>
      <trkpt lat="44.45659" lon="5.5796">
        <ele>950.5</ele>
        <time>2023-03-20T12:02:07Z</time>
      </trkpt>
      <trkpt lat="44.4565" lon="5.57962">
        <ele>949.7</ele>
        <time>2023-03-20T12:02:08Z</time>
      </trkpt>
      <trkpt lat="44.45644" lon="5.57966">
        <ele>949</ele>
        <time>2023-03-20T12:02:09Z</time>
      </trkpt>
      <trkpt lat="44.45638" lon="5.57971">
        <ele>948.3</ele>
        <time>2023-03-20T12:02:10Z</time>
      </trkpt>
      <trkpt lat="44.45632" lon="5.57976">
        <ele>947.7</ele>
        <time>2023-03-20T12:02:11Z</time>
      </trkpt>
      <trkpt lat="44.45628" lon="5.57981">
        <ele>947.1</ele>
        <time>2023-03-20T12:02:12Z</time>
      </trkpt>
      <trkpt lat="44.45623" lon="5.57984">
        <ele>946.6</ele>
        <time>2023-03-20T12:02:13Z</time>
      </trkpt>
      <trkpt lat="44.45619" lon="5.57987">
        <ele>946.2</ele>
        <time>2023-03-20T12:02:14Z</time>
      </trkpt>
      <trkpt lat="44.45616" lon="5.5799">
        <ele>945.9</ele>
        <time>2023-03-20T12:02:15Z</time>
      </trkpt>
      <trkpt lat="44.45613" lon="5.57991">
        <ele>945.5</ele>
        <time>2023-03-20T12:02:16Z</time>
      </trkpt>
      <trkpt lat="44.4561" lon="5.57992">
        <ele>945.2</ele>
        <time>2023-03-20T12:02:17Z</time>
      </trkpt>
      <trkpt lat="44.45606" lon="5.57992">
        <ele>944.9</ele>
        <time>2023-03-20T12:02:18Z</time>
      </trkpt>
      <trkpt lat="44.45602" lon="5.57991">
        <ele>944.5</ele>
        <time>2023-03-20T12:02:19Z</time>
      </trkpt>
      <trkpt lat="44.45596" lon="5.57989">
        <ele>943.9</ele>
        <time>2023-03-20T12:02:20Z</time>
      </trkpt>
      <trkpt lat="44.4559" lon="5.57986">
        <ele>942.6</ele>
        <time>2023-03-20T12:02:21Z</time>
      </trkpt>
      <trkpt lat="44.45584" lon="5.57982">
        <ele>942.2</ele>
        <time>2023-03-20T12:02:22Z</time>
      </trkpt>
      <trkpt lat="44.45579" lon="5.57977">
        <ele>941.8</ele>
        <time>2023-03-20T12:02:23Z</time>
      </trkpt>
      <trkpt lat="44.45574" lon="5.57974">
        <ele>941.4</ele>
        <time>2023-03-20T12:02:24Z</time>
      </trkpt>
      <trkpt lat="44.45568" lon="5.5797">
        <ele>940.9</ele>
        <time>2023-03-20T12:02:25Z</time>
      </trkpt>
      <trkpt lat="44.45562" lon="5.57967">
        <ele>940.5</ele>
        <time>2023-03-20T12:02:26Z</time>
      </trkpt>
      <trkpt lat="44.45557" lon="5.57965">
        <ele>939.9</ele>
        <time>2023-03-20T12:02:27Z</time>
      </trkpt>
      <trkpt lat="44.4555" lon="5.57962">
        <ele>939.3</ele>
        <time>2023-03-20T12:02:28Z</time>
      </trkpt>
      <trkpt lat="44.45543" lon="5.57959">
        <ele>938.6</ele>
        <time>2023-03-20T12:02:29Z</time>
      </trkpt>
      <trkpt lat="44.45535" lon="5.57956">
        <ele>937.8</ele>
        <time>2023-03-20T12:02:30Z</time>
      </trkpt>
      <trkpt lat="44.45528" lon="5.57954">
        <ele>937.1</ele>
        <time>2023-03-20T12:02:31Z</time>
      </trkpt>
      <trkpt lat="44.45522" lon="5.57951">
        <ele>936.5</ele>
        <time>2023-03-20T12:02:32Z</time>
      </trkpt>
      <trkpt lat="44.45516" lon="5.57949">
        <ele>936</ele>
        <time>2023-03-20T12:02:33Z</time>
      </trkpt>
      <trkpt lat="44.4551" lon="5.57948">
        <ele>935.5</ele>
        <time>2023-03-20T12:02:34Z</time>
      </trkpt>
      <trkpt lat="44.45506" lon="5.57949">
        <ele>935.2</ele>
        <time>2023-03-20T12:02:35Z</time>
      </trkpt>
      <trkpt lat="44.45502" lon="5.57948">
        <ele>934.8</ele>
        <time>2023-03-20T12:02:36Z</time>
      </trkpt>
      <trkpt lat="44.45497" lon="5.57948">
        <ele>934.5</ele>
        <time>2023-03-20T12:02:37Z</time>
      </trkpt>
      <trkpt lat="44.45493" lon="5.57948">
        <ele>934.3</ele>
        <time>2023-03-20T12:02:38Z</time>
      </trkpt>
      <trkpt lat="44.4549" lon="5.57948">
        <ele>934.1</ele>
        <time>2023-03-20T12:02:39Z</time>
      </trkpt>
      <trkpt lat="44.45486" lon="5.57949">
        <ele>933.9</ele>
        <time>2023-03-20T12:02:40Z</time>
      </trkpt>
      <trkpt lat="44.45482" lon="5.57949">
        <ele>933.7</ele>
        <time>2023-03-20T12:02:41Z</time>
      </trkpt>
      <trkpt lat="44.45478" lon="5.57948">
        <ele>933.5</ele>
        <time>2023-03-20T12:02:42Z</time>
      </trkpt>
      <trkpt lat="44.45474" lon="5.57947">
        <ele>933.3</ele>
        <time>2023-03-20T12:02:43Z</time>
      </trkpt>
      <trkpt lat="44.45471" lon="5.57947">
        <ele>933.1</ele>
        <time>2023-03-20T12:02:44Z</time>
      </trkpt>
      <trkpt lat="44.45467" lon="5.57945">
        <ele>932.9</ele>
        <time>2023-03-20T12:02:45Z</time>
      </trkpt>
      <trkpt lat="44.45463" lon="5.57944">
        <ele>932.7</ele>
        <time>2023-03-20T12:02:46Z</time>
      </trkpt>
      <trkpt lat="44.45459" lon="5.57943">
        <ele>932.5</ele>
        <time>2023-03-20T12:02:47Z</time>
      </trkpt>
      <trkpt lat="44.45455" lon="5.57943">
        <ele>932.3</ele>
        <time>2023-03-20T12:02:48Z</time>
      </trkpt>
      <trkpt lat="44.45451" lon="5.57941">
        <ele>932.1</ele>
        <time>2023-03-20T12:02:49Z</time>
      </trkpt>
      <trkpt lat="44.45448" lon="5.5794">
        <ele>931.9</ele>
        <time>2023-03-20T12:02:50Z</time>
      </trkpt>
      <trkpt lat="44.45443" lon="5.57937">
        <ele>931.7</ele>
        <time>2023-03-20T12:02:52Z</time>
      </trkpt>
      <trkpt lat="44.4544" lon="5.57936">
        <ele>931.5</ele>
        <time>2023-03-20T12:02:53Z</time>
      </trkpt>
      <trkpt lat="44.45438" lon="5.57934">
        <ele>931.4</ele>
        <time>2023-03-20T12:02:54Z</time>
      </trkpt>
      <trkpt lat="44.45435" lon="5.57932">
        <ele>931.3</ele>
        <time>2023-03-20T12:02:55Z</time>
      </trkpt>
      <trkpt lat="44.45432" lon="5.57931">
        <ele>931.1</ele>
        <time>2023-03-20T12:02:56Z</time>
      </trkpt>
      <trkpt lat="44.45429" lon="5.57929">
        <ele>930.9</ele>
        <time>2023-03-20T12:02:57Z</time>
      </trkpt>
      <trkpt lat="44.45424" lon="5.57927">
        <ele>930.7</ele>
        <time>2023-03-20T12:02:58Z</time>
      </trkpt>
      <trkpt lat="44.45418" lon="5.57925">
        <ele>930.4</ele>
        <time>2023-03-20T12:02:59Z</time>
      </trkpt>
      <trkpt lat="44.45411" lon="5.57921">
        <ele>930.2</ele>
        <time>2023-03-20T12:03:00Z</time>
      </trkpt>
      <trkpt lat="44.45407" lon="5.57919">
        <ele>930</ele>
        <time>2023-03-20T12:03:01Z</time>
      </trkpt>
      <trkpt lat="44.45401" lon="5.57917">
        <ele>929.7</ele>
        <time>2023-03-20T12:03:02Z</time>
      </trkpt>
      <trkpt lat="44.45395" lon="5.57914">
        <ele>929.5</ele>
        <time>2023-03-20T12:03:03Z</time>
      </trkpt>
      <trkpt lat="44.45384" lon="5.57907">
        <ele>928.8</ele>
        <time>2023-03-20T12:03:05Z</time>
      </trkpt>
      <trkpt lat="44.45378" lon="5.57904">
        <ele>928.5</ele>
        <time>2023-03-20T12:03:06Z</time>
      </trkpt>
      <trkpt lat="44.45372" lon="5.579">
        <ele>928.1</ele>
        <time>2023-03-20T12:03:07Z</time>
      </trkpt>
      <trkpt lat="44.45366" lon="5.57896">
        <ele>927.7</ele>
        <time>2023-03-20T12:03:08Z</time>
      </trkpt>
      <trkpt lat="44.45359" lon="5.57892">
        <ele>927.2</ele>
        <time>2023-03-20T12:03:09Z</time>
      </trkpt>
      <trkpt lat="44.45353" lon="5.57889">
        <ele>926.8</ele>
        <time>2023-03-20T12:03:10Z</time>
      </trkpt>
      <trkpt lat="44.45346" lon="5.57885">
        <ele>926.4</ele>
        <time>2023-03-20T12:03:11Z</time>
      </trkpt>
      <trkpt lat="44.4534" lon="5.57883">
        <ele>926</ele>
        <time>2023-03-20T12:03:12Z</time>
      </trkpt>
      <trkpt lat="44.45335" lon="5.57881">
        <ele>925.7</ele>
        <time>2023-03-20T12:03:13Z</time>
      </trkpt>
      <trkpt lat="44.4533" lon="5.57878">
        <ele>925.4</ele>
        <time>2023-03-20T12:03:14Z</time>
      </trkpt>
      <trkpt lat="44.45323" lon="5.57875">
        <ele>924.9</ele>
        <time>2023-03-20T12:03:15Z</time>
      </trkpt>
      <trkpt lat="44.45317" lon="5.57871">
        <ele>924.5</ele>
        <time>2023-03-20T12:03:16Z</time>
      </trkpt>
      <trkpt lat="44.4531" lon="5.57868">
        <ele>924</ele>
        <time>2023-03-20T12:03:17Z</time>
      </trkpt>
      <trkpt lat="44.45304" lon="5.57864">
        <ele>923.4</ele>
        <time>2023-03-20T12:03:18Z</time>
      </trkpt>
      <trkpt lat="44.45298" lon="5.5786">
        <ele>922.8</ele>
        <time>2023-03-20T12:03:19Z</time>
      </trkpt>
      <trkpt lat="44.45294" lon="5.57856">
        <ele>922.4</ele>
        <time>2023-03-20T12:03:20Z</time>
      </trkpt>
      <trkpt lat="44.45291" lon="5.5785">
        <ele>922</ele>
        <time>2023-03-20T12:03:21Z</time>
      </trkpt>
      <trkpt lat="44.45288" lon="5.57845">
        <ele>921.8</ele>
        <time>2023-03-20T12:03:22Z</time>
      </trkpt>
      <trkpt lat="44.45287" lon="5.57841">
        <ele>921.6</ele>
        <time>2023-03-20T12:03:23Z</time>
      </trkpt>
      <trkpt lat="44.45285" lon="5.57837">
        <ele>921.5</ele>
        <time>2023-03-20T12:03:24Z</time>
      </trkpt>
      <trkpt lat="44.45283" lon="5.57834">
        <ele>921.4</ele>
        <time>2023-03-20T12:03:25Z</time>
      </trkpt>
      <trkpt lat="44.45281" lon="5.5783">
        <ele>921.2</ele>
        <time>2023-03-20T12:03:26Z</time>
      </trkpt>
      <trkpt lat="44.4528" lon="5.57825">
        <ele>921.1</ele>
        <time>2023-03-20T12:03:27Z</time>
      </trkpt>
      <trkpt lat="44.45277" lon="5.5782">
        <ele>921</ele>
        <time>2023-03-20T12:03:28Z</time>
      </trkpt>
      <trkpt lat="44.45274" lon="5.57814">
        <ele>920.8</ele>
        <time>2023-03-20T12:03:29Z</time>
      </trkpt>
      <trkpt lat="44.45268" lon="5.57803">
        <ele>920.4</ele>
        <time>2023-03-20T12:03:30Z</time>
      </trkpt>
      <trkpt lat="44.45258" lon="5.57789">
        <ele>920</ele>
        <time>2023-03-20T12:03:31Z</time>
      </trkpt>
      <trkpt lat="44.45249" lon="5.57779">
        <ele>919.9</ele>
        <time>2023-03-20T12:03:32Z</time>
      </trkpt>
      <trkpt lat="44.45239" lon="5.5777">
        <ele>919.5</ele>
        <time>2023-03-20T12:03:33Z</time>
      </trkpt>
      <trkpt lat="44.45229" lon="5.57762">
        <ele>918.9</ele>
        <time>2023-03-20T12:03:34Z</time>
      </trkpt>
      <trkpt lat="44.45205" lon="5.57748">
        <ele>917.4</ele>
        <time>2023-03-20T12:03:37Z</time>
      </trkpt>
      <trkpt lat="44.45194" lon="5.57743">
        <ele>916.5</ele>
        <time>2023-03-20T12:03:38Z</time>
      </trkpt>
      <trkpt lat="44.4519" lon="5.57742">
        <ele>916.2</ele>
        <time>2023-03-20T12:03:39Z</time>
      </trkpt>
      <trkpt lat="44.45183" lon="5.57737">
        <ele>915.4</ele>
        <time>2023-03-20T12:03:40Z</time>
      </trkpt>
      <trkpt lat="44.45176" lon="5.57733">
        <ele>914.6</ele>
        <time>2023-03-20T12:03:41Z</time>
      </trkpt>
      <trkpt lat="44.45167" lon="5.57727">
        <ele>913.6</ele>
        <time>2023-03-20T12:03:42Z</time>
      </trkpt>
      <trkpt lat="44.45159" lon="5.57719">
        <ele>912.5</ele>
        <time>2023-03-20T12:03:43Z</time>
      </trkpt>
      <trkpt lat="44.4515" lon="5.57712">
        <ele>911.7</ele>
        <time>2023-03-20T12:03:44Z</time>
      </trkpt>
      <trkpt lat="44.45142" lon="5.57704">
        <ele>911.1</ele>
        <time>2023-03-20T12:03:45Z</time>
      </trkpt>
      <trkpt lat="44.45133" lon="5.57697">
        <ele>910.7</ele>
        <time>2023-03-20T12:03:46Z</time>
      </trkpt>
      <trkpt lat="44.45124" lon="5.57692">
        <ele>910.3</ele>
        <time>2023-03-20T12:03:47Z</time>
      </trkpt>
      <trkpt lat="44.45116" lon="5.57688">
        <ele>909.9</ele>
        <time>2023-03-20T12:03:48Z</time>
      </trkpt>
      <trkpt lat="44.45109" lon="5.57684">
        <ele>909.6</ele>
        <time>2023-03-20T12:03:49Z</time>
      </trkpt>
      <trkpt lat="44.45102" lon="5.5768">
        <ele>909.3</ele>
        <time>2023-03-20T12:03:50Z</time>
      </trkpt>
      <trkpt lat="44.45095" lon="5.57676">
        <ele>908.9</ele>
        <time>2023-03-20T12:03:51Z</time>
      </trkpt>
      <trkpt lat="44.45088" lon="5.5767">
        <ele>908.6</ele>
        <time>2023-03-20T12:03:52Z</time>
      </trkpt>
      <trkpt lat="44.45081" lon="5.57664">
        <ele>908.3</ele>
        <time>2023-03-20T12:03:53Z</time>
      </trkpt>
      <trkpt lat="44.45074" lon="5.57658">
        <ele>908.1</ele>
        <time>2023-03-20T12:03:54Z</time>
      </trkpt>
      <trkpt lat="44.45068" lon="5.57653">
        <ele>908</ele>
        <time>2023-03-20T12:03:55Z</time>
      </trkpt>
      <trkpt lat="44.45062" lon="5.57647">
        <ele>907.8</ele>
        <time>2023-03-20T12:03:56Z</time>
      </trkpt>
      <trkpt lat="44.45057" lon="5.57641">
        <ele>907.7</ele>
        <time>2023-03-20T12:03:57Z</time>
      </trkpt>
      <trkpt lat="44.45052" lon="5.57634">
        <ele>907.5</ele>
        <time>2023-03-20T12:03:58Z</time>
      </trkpt>
      <trkpt lat="44.45048" lon="5.57627">
        <ele>907.3</ele>
        <time>2023-03-20T12:03:59Z</time>
      </trkpt>
      <trkpt lat="44.45043" lon="5.5762">
        <ele>907.1</ele>
        <time>2023-03-20T12:04:00Z</time>
      </trkpt>
      <trkpt lat="44.45039" lon="5.57614">
        <ele>906.9</ele>
        <time>2023-03-20T12:04:01Z</time>
      </trkpt>
      <trkpt lat="44.45034" lon="5.57609">
        <ele>906.7</ele>
        <time>2023-03-20T12:04:02Z</time>
      </trkpt>
      <trkpt lat="44.4503" lon="5.57603">
        <ele>906.5</ele>
        <time>2023-03-20T12:04:03Z</time>
      </trkpt>
      <trkpt lat="44.45026" lon="5.57597">
        <ele>906.3</ele>
        <time>2023-03-20T12:04:04Z</time>
      </trkpt>
      <trkpt lat="44.45022" lon="5.57592">
        <ele>906.2</ele>
        <time>2023-03-20T12:04:05Z</time>
      </trkpt>
      <trkpt lat="44.45019" lon="5.57586">
        <ele>906.2</ele>
        <time>2023-03-20T12:04:06Z</time>
      </trkpt>
      <trkpt lat="44.45015" lon="5.57581">
        <ele>906.2</ele>
        <time>2023-03-20T12:04:07Z</time>
      </trkpt>
      <trkpt lat="44.45011" lon="5.57575">
        <ele>906.2</ele>
        <time>2023-03-20T12:04:08Z</time>
      </trkpt>
      <trkpt lat="44.45007" lon="5.57569">
        <ele>906.2</ele>
        <time>2023-03-20T12:04:09Z</time>
      </trkpt>
      <trkpt lat="44.45004" lon="5.57562">
        <ele>906.3</ele>
        <time>2023-03-20T12:04:10Z</time>
      </trkpt>
      <trkpt lat="44.45" lon="5.57557">
        <ele>906.3</ele>
        <time>2023-03-20T12:04:11Z</time>
      </trkpt>
      <trkpt lat="44.44997" lon="5.5755">
        <ele>906.4</ele>
        <time>2023-03-20T12:04:12Z</time>
      </trkpt>
      <trkpt lat="44.44994" lon="5.57544">
        <ele>906.4</ele>
        <time>2023-03-20T12:04:13Z</time>
      </trkpt>
      <trkpt lat="44.4499" lon="5.57539">
        <ele>906.4</ele>
        <time>2023-03-20T12:04:14Z</time>
      </trkpt>
      <trkpt lat="44.44986" lon="5.57533">
        <ele>906.3</ele>
        <time>2023-03-20T12:04:15Z</time>
      </trkpt>
      <trkpt lat="44.44982" lon="5.57527">
        <ele>906.2</ele>
        <time>2023-03-20T12:04:16Z</time>
      </trkpt>
      <trkpt lat="44.44977" lon="5.57522">
        <ele>906</ele>
        <time>2023-03-20T12:04:17Z</time>
      </trkpt>
      <trkpt lat="44.44972" lon="5.57517">
        <ele>905.8</ele>
        <time>2023-03-20T12:04:18Z</time>
      </trkpt>
      <trkpt lat="44.44968" lon="5.57512">
        <ele>905.6</ele>
        <time>2023-03-20T12:04:19Z</time>
      </trkpt>
      <trkpt lat="44.44964" lon="5.57507">
        <ele>905.3</ele>
        <time>2023-03-20T12:04:20Z</time>
      </trkpt>
      <trkpt lat="44.44959" lon="5.57503">
        <ele>905</ele>
        <time>2023-03-20T12:04:21Z</time>
      </trkpt>
      <trkpt lat="44.44955" lon="5.57498">
        <ele>904.5</ele>
        <time>2023-03-20T12:04:22Z</time>
      </trkpt>
      <trkpt lat="44.4495" lon="5.57493">
        <ele>904.1</ele>
        <time>2023-03-20T12:04:23Z</time>
      </trkpt>
      <trkpt lat="44.44944" lon="5.57487">
        <ele>903.5</ele>
        <time>2023-03-20T12:04:24Z</time>
      </trkpt>
      <trkpt lat="44.44939" lon="5.57482">
        <ele>903</ele>
        <time>2023-03-20T12:04:25Z</time>
      </trkpt>
      <trkpt lat="44.44928" lon="5.5747">
        <ele>901.8</ele>
        <time>2023-03-20T12:04:27Z</time>
      </trkpt>
      <trkpt lat="44.44923" lon="5.57463">
        <ele>901.2</ele>
        <time>2023-03-20T12:04:28Z</time>
      </trkpt>
      <trkpt lat="44.44917" lon="5.57456">
        <ele>900.6</ele>
        <time>2023-03-20T12:04:29Z</time>
      </trkpt>
      <trkpt lat="44.44911" lon="5.5745">
        <ele>900</ele>
        <time>2023-03-20T12:04:30Z</time>
      </trkpt>
      <trkpt lat="44.44905" lon="5.57444">
        <ele>899.4</ele>
        <time>2023-03-20T12:04:31Z</time>
      </trkpt>
      <trkpt lat="44.449" lon="5.57437">
        <ele>899</ele>
        <time>2023-03-20T12:04:32Z</time>
      </trkpt>
      <trkpt lat="44.44894" lon="5.57431">
        <ele>898.6</ele>
        <time>2023-03-20T12:04:33Z</time>
      </trkpt>
      <trkpt lat="44.44888" lon="5.57424">
        <ele>898.3</ele>
        <time>2023-03-20T12:04:34Z</time>
      </trkpt>
      <trkpt lat="44.44882" lon="5.57418">
        <ele>898.1</ele>
        <time>2023-03-20T12:04:35Z</time>
      </trkpt>
      <trkpt lat="44.44877" lon="5.57411">
        <ele>897.8</ele>
        <time>2023-03-20T12:04:36Z</time>
      </trkpt>
      <trkpt lat="44.44871" lon="5.57405">
        <ele>897.6</ele>
        <time>2023-03-20T12:04:37Z</time>
      </trkpt>
      <trkpt lat="44.44866" lon="5.57398">
        <ele>897.5</ele>
        <time>2023-03-20T12:04:38Z</time>
      </trkpt>
      <trkpt lat="44.44861" lon="5.57392">
        <ele>897.4</ele>
        <time>2023-03-20T12:04:39Z</time>
      </trkpt>
      <trkpt lat="44.44856" lon="5.57387">
        <ele>897.3</ele>
        <time>2023-03-20T12:04:40Z</time>
      </trkpt>
      <trkpt lat="44.44851" lon="5.57382">
        <ele>897.4</ele>
        <time>2023-03-20T12:04:41Z</time>
      </trkpt>
      <trkpt lat="44.44845" lon="5.57378">
        <ele>897.4</ele>
        <time>2023-03-20T12:04:42Z</time>
      </trkpt>
      <trkpt lat="44.4484" lon="5.57374">
        <ele>897.5</ele>
        <time>2023-03-20T12:04:43Z</time>
      </trkpt>
      <trkpt lat="44.44836" lon="5.57369">
        <ele>897.6</ele>
        <time>2023-03-20T12:04:44Z</time>
      </trkpt>
      <trkpt lat="44.44832" lon="5.57363">
        <ele>897.6</ele>
        <time>2023-03-20T12:04:45Z</time>
      </trkpt>
      <trkpt lat="44.44832" lon="5.57355">
        <ele>898.9</ele>
        <time>2023-03-20T12:04:46Z</time>
      </trkpt>
      <trkpt lat="44.44832" lon="5.57347">
        <ele>900.3</ele>
        <time>2023-03-20T12:04:47Z</time>
      </trkpt>
      <trkpt lat="44.44833" lon="5.57339">
        <ele>900.5</ele>
        <time>2023-03-20T12:04:48Z</time>
      </trkpt>
      <trkpt lat="44.44832" lon="5.57332">
        <ele>900.1</ele>
        <time>2023-03-20T12:04:49Z</time>
      </trkpt>
      <trkpt lat="44.4483" lon="5.57325">
        <ele>899.8</ele>
        <time>2023-03-20T12:04:50Z</time>
      </trkpt>
      <trkpt lat="44.44828" lon="5.57318">
        <ele>899.5</ele>
        <time>2023-03-20T12:04:51Z</time>
      </trkpt>
      <trkpt lat="44.44825" lon="5.57312">
        <ele>899.2</ele>
        <time>2023-03-20T12:04:52Z</time>
      </trkpt>
      <trkpt lat="44.44822" lon="5.57306">
        <ele>898.9</ele>
        <time>2023-03-20T12:04:53Z</time>
      </trkpt>
      <trkpt lat="44.44817" lon="5.573">
        <ele>898.6</ele>
        <time>2023-03-20T12:04:54Z</time>
      </trkpt>
      <trkpt lat="44.44813" lon="5.57294">
        <ele>898.3</ele>
        <time>2023-03-20T12:04:55Z</time>
      </trkpt>
      <trkpt lat="44.44809" lon="5.57289">
        <ele>898</ele>
        <time>2023-03-20T12:04:56Z</time>
      </trkpt>
      <trkpt lat="44.44804" lon="5.57285">
        <ele>897.6</ele>
        <time>2023-03-20T12:04:57Z</time>
      </trkpt>
      <trkpt lat="44.44799" lon="5.57282">
        <ele>897.3</ele>
        <time>2023-03-20T12:04:58Z</time>
      </trkpt>
      <trkpt lat="44.44793" lon="5.57279">
        <ele>896.9</ele>
        <time>2023-03-20T12:04:59Z</time>
      </trkpt>
      <trkpt lat="44.44788" lon="5.57276">
        <ele>896.5</ele>
        <time>2023-03-20T12:05:00Z</time>
      </trkpt>
      <trkpt lat="44.44782" lon="5.57273">
        <ele>896.1</ele>
        <time>2023-03-20T12:05:01Z</time>
      </trkpt>
      <trkpt lat="44.44776" lon="5.57271">
        <ele>895.6</ele>
        <time>2023-03-20T12:05:02Z</time>
      </trkpt>
      <trkpt lat="44.44769" lon="5.5727">
        <ele>895.2</ele>
        <time>2023-03-20T12:05:03Z</time>
      </trkpt>
      <trkpt lat="44.44763" lon="5.57268">
        <ele>894.8</ele>
        <time>2023-03-20T12:05:04Z</time>
      </trkpt>
      <trkpt lat="44.44757" lon="5.57267">
        <ele>894.4</ele>
        <time>2023-03-20T12:05:05Z</time>
      </trkpt>
      <trkpt lat="44.44751" lon="5.57264">
        <ele>894</ele>
        <time>2023-03-20T12:05:06Z</time>
      </trkpt>
      <trkpt lat="44.44745" lon="5.57261">
        <ele>893.6</ele>
        <time>2023-03-20T12:05:07Z</time>
      </trkpt>
      <trkpt lat="44.44739" lon="5.57256">
        <ele>893.2</ele>
        <time>2023-03-20T12:05:08Z</time>
      </trkpt>
      <trkpt lat="44.44734" lon="5.57251">
        <ele>892.9</ele>
        <time>2023-03-20T12:05:09Z</time>
      </trkpt>
      <trkpt lat="44.44728" lon="5.57246">
        <ele>892.5</ele>
        <time>2023-03-20T12:05:10Z</time>
      </trkpt>
      <trkpt lat="44.44723" lon="5.5724">
        <ele>892.2</ele>
        <time>2023-03-20T12:05:11Z</time>
      </trkpt>
      <trkpt lat="44.44717" lon="5.57233">
        <ele>892</ele>
        <time>2023-03-20T12:05:12Z</time>
      </trkpt>
      <trkpt lat="44.44712" lon="5.57227">
        <ele>891.9</ele>
        <time>2023-03-20T12:05:13Z</time>
      </trkpt>
      <trkpt lat="44.44707" lon="5.57221">
        <ele>891.8</ele>
        <time>2023-03-20T12:05:14Z</time>
      </trkpt>
      <trkpt lat="44.44701" lon="5.57214">
        <ele>891.7</ele>
        <time>2023-03-20T12:05:15Z</time>
      </trkpt>
      <trkpt lat="44.44695" lon="5.57209">
        <ele>891.7</ele>
        <time>2023-03-20T12:05:16Z</time>
      </trkpt>
      <trkpt lat="44.4469" lon="5.57203">
        <ele>891.6</ele>
        <time>2023-03-20T12:05:17Z</time>
      </trkpt>
      <trkpt lat="44.44685" lon="5.57197">
        <ele>891.5</ele>
        <time>2023-03-20T12:05:18Z</time>
      </trkpt>
      <trkpt lat="44.4468" lon="5.57193">
        <ele>891.4</ele>
        <time>2023-03-20T12:05:19Z</time>
      </trkpt>
      <trkpt lat="44.44675" lon="5.57187">
        <ele>891.2</ele>
        <time>2023-03-20T12:05:20Z</time>
      </trkpt>
      <trkpt lat="44.44671" lon="5.57181">
        <ele>891</ele>
        <time>2023-03-20T12:05:21Z</time>
      </trkpt>
      <trkpt lat="44.44668" lon="5.57175">
        <ele>890.7</ele>
        <time>2023-03-20T12:05:22Z</time>
      </trkpt>
      <trkpt lat="44.44666" lon="5.57167">
        <ele>890.3</ele>
        <time>2023-03-20T12:05:23Z</time>
      </trkpt>
      <trkpt lat="44.44665" lon="5.57158">
        <ele>889.9</ele>
        <time>2023-03-20T12:05:24Z</time>
      </trkpt>
      <trkpt lat="44.44664" lon="5.57149">
        <ele>889.4</ele>
        <time>2023-03-20T12:05:25Z</time>
      </trkpt>
      <trkpt lat="44.44662" lon="5.5714">
        <ele>888.9</ele>
        <time>2023-03-20T12:05:26Z</time>
      </trkpt>
      <trkpt lat="44.4466" lon="5.57131">
        <ele>888.4</ele>
        <time>2023-03-20T12:05:27Z</time>
      </trkpt>
      <trkpt lat="44.44658" lon="5.57124">
        <ele>888</ele>
        <time>2023-03-20T12:05:28Z</time>
      </trkpt>
      <trkpt lat="44.44655" lon="5.57117">
        <ele>887.5</ele>
        <time>2023-03-20T12:05:29Z</time>
      </trkpt>
      <trkpt lat="44.44651" lon="5.57109">
        <ele>887</ele>
        <time>2023-03-20T12:05:30Z</time>
      </trkpt>
      <trkpt lat="44.44647" lon="5.57101">
        <ele>886.3</ele>
        <time>2023-03-20T12:05:31Z</time>
      </trkpt>
      <trkpt lat="44.44643" lon="5.57092">
        <ele>885.5</ele>
        <time>2023-03-20T12:05:32Z</time>
      </trkpt>
      <trkpt lat="44.44639" lon="5.57082">
        <ele>884.5</ele>
        <time>2023-03-20T12:05:33Z</time>
      </trkpt>
      <trkpt lat="44.44635" lon="5.57071">
        <ele>883.5</ele>
        <time>2023-03-20T12:05:34Z</time>
      </trkpt>
      <trkpt lat="44.44632" lon="5.57059">
        <ele>882.5</ele>
        <time>2023-03-20T12:05:35Z</time>
      </trkpt>
      <trkpt lat="44.4463" lon="5.57047">
        <ele>881.6</ele>
        <time>2023-03-20T12:05:36Z</time>
      </trkpt>
      <trkpt lat="44.44628" lon="5.57035">
        <ele>880.8</ele>
        <time>2023-03-20T12:05:37Z</time>
      </trkpt>
      <trkpt lat="44.44625" lon="5.57024">
        <ele>880.2</ele>
        <time>2023-03-20T12:05:38Z</time>
      </trkpt>
      <trkpt lat="44.44621" lon="5.57013">
        <ele>879.6</ele>
        <time>2023-03-20T12:05:39Z</time>
      </trkpt>
      <trkpt lat="44.44617" lon="5.57002">
        <ele>879.3</ele>
        <time>2023-03-20T12:05:40Z</time>
      </trkpt>
      <trkpt lat="44.44614" lon="5.56992">
        <ele>879</ele>
        <time>2023-03-20T12:05:41Z</time>
      </trkpt>
      <trkpt lat="44.4461" lon="5.56982">
        <ele>878.8</ele>
        <time>2023-03-20T12:05:42Z</time>
      </trkpt>
      <trkpt lat="44.44607" lon="5.56973">
        <ele>878.6</ele>
        <time>2023-03-20T12:05:43Z</time>
      </trkpt>
      <trkpt lat="44.44606" lon="5.56963">
        <ele>878.4</ele>
        <time>2023-03-20T12:05:44Z</time>
      </trkpt>
      <trkpt lat="44.44605" lon="5.56952">
        <ele>878.2</ele>
        <time>2023-03-20T12:05:45Z</time>
      </trkpt>
      <trkpt lat="44.44605" lon="5.56942">
        <ele>877.9</ele>
        <time>2023-03-20T12:05:46Z</time>
      </trkpt>
      <trkpt lat="44.44605" lon="5.56932">
        <ele>877.6</ele>
        <time>2023-03-20T12:05:47Z</time>
      </trkpt>
      <trkpt lat="44.44606" lon="5.56922">
        <ele>877.4</ele>
        <time>2023-03-20T12:05:48Z</time>
      </trkpt>
      <trkpt lat="44.44606" lon="5.56913">
        <ele>877.1</ele>
        <time>2023-03-20T12:05:49Z</time>
      </trkpt>
      <trkpt lat="44.44607" lon="5.56904">
        <ele>876.9</ele>
        <time>2023-03-20T12:05:50Z</time>
      </trkpt>
      <trkpt lat="44.44608" lon="5.56895">
        <ele>876.6</ele>
        <time>2023-03-20T12:05:51Z</time>
      </trkpt>
      <trkpt lat="44.44608" lon="5.56886">
        <ele>876.3</ele>
        <time>2023-03-20T12:05:52Z</time>
      </trkpt>
      <trkpt lat="44.44607" lon="5.56878">
        <ele>876.1</ele>
        <time>2023-03-20T12:05:53Z</time>
      </trkpt>
      <trkpt lat="44.44605" lon="5.56871">
        <ele>875.7</ele>
        <time>2023-03-20T12:05:54Z</time>
      </trkpt>
      <trkpt lat="44.446" lon="5.56863">
        <ele>875.2</ele>
        <time>2023-03-20T12:05:55Z</time>
      </trkpt>
      <trkpt lat="44.44594" lon="5.56856">
        <ele>874.4</ele>
        <time>2023-03-20T12:05:56Z</time>
      </trkpt>
      <trkpt lat="44.44586" lon="5.5685">
        <ele>873.6</ele>
        <time>2023-03-20T12:05:57Z</time>
      </trkpt>
      <trkpt lat="44.44578" lon="5.56844">
        <ele>872.6</ele>
        <time>2023-03-20T12:05:58Z</time>
      </trkpt>
      <trkpt lat="44.4457" lon="5.56836">
        <ele>871.7</ele>
        <time>2023-03-20T12:05:59Z</time>
      </trkpt>
      <trkpt lat="44.44562" lon="5.56829">
        <ele>871</ele>
        <time>2023-03-20T12:06:00Z</time>
      </trkpt>
      <trkpt lat="44.44555" lon="5.56822">
        <ele>870.5</ele>
        <time>2023-03-20T12:06:01Z</time>
      </trkpt>
      <trkpt lat="44.44548" lon="5.56815">
        <ele>870</ele>
        <time>2023-03-20T12:06:02Z</time>
      </trkpt>
      <trkpt lat="44.44542" lon="5.56807">
        <ele>869.7</ele>
        <time>2023-03-20T12:06:03Z</time>
      </trkpt>
      <trkpt lat="44.44536" lon="5.56797">
        <ele>869.2</ele>
        <time>2023-03-20T12:06:04Z</time>
      </trkpt>
      <trkpt lat="44.44531" lon="5.56787">
        <ele>868.7</ele>
        <time>2023-03-20T12:06:05Z</time>
      </trkpt>
      <trkpt lat="44.44528" lon="5.56776">
        <ele>868.1</ele>
        <time>2023-03-20T12:06:06Z</time>
      </trkpt>
      <trkpt lat="44.44528" lon="5.56765">
        <ele>867.4</ele>
        <time>2023-03-20T12:06:07Z</time>
      </trkpt>
      <trkpt lat="44.44528" lon="5.56754">
        <ele>866.8</ele>
        <time>2023-03-20T12:06:08Z</time>
      </trkpt>
      <trkpt lat="44.44527" lon="5.56743">
        <ele>866.1</ele>
        <time>2023-03-20T12:06:09Z</time>
      </trkpt>
      <trkpt lat="44.44525" lon="5.56732">
        <ele>865.4</ele>
        <time>2023-03-20T12:06:10Z</time>
      </trkpt>
      <trkpt lat="44.44522" lon="5.56723">
        <ele>864.7</ele>
        <time>2023-03-20T12:06:11Z</time>
      </trkpt>
      <trkpt lat="44.44518" lon="5.56712">
        <ele>864</ele>
        <time>2023-03-20T12:06:12Z</time>
      </trkpt>
      <trkpt lat="44.44517" lon="5.567">
        <ele>863.4</ele>
        <time>2023-03-20T12:06:13Z</time>
      </trkpt>
      <trkpt lat="44.44517" lon="5.56688">
        <ele>862.9</ele>
        <time>2023-03-20T12:06:14Z</time>
      </trkpt>
      <trkpt lat="44.44518" lon="5.56678">
        <ele>862.6</ele>
        <time>2023-03-20T12:06:15Z</time>
      </trkpt>
      <trkpt lat="44.44519" lon="5.56668">
        <ele>862.4</ele>
        <time>2023-03-20T12:06:16Z</time>
      </trkpt>
      <trkpt lat="44.44518" lon="5.56659">
        <ele>862.1</ele>
        <time>2023-03-20T12:06:17Z</time>
      </trkpt>
      <trkpt lat="44.44516" lon="5.56649">
        <ele>861.9</ele>
        <time>2023-03-20T12:06:18Z</time>
      </trkpt>
      <trkpt lat="44.44513" lon="5.56639">
        <ele>861.7</ele>
        <time>2023-03-20T12:06:19Z</time>
      </trkpt>
      <trkpt lat="44.4451" lon="5.56629">
        <ele>861.4</ele>
        <time>2023-03-20T12:06:20Z</time>
      </trkpt>
      <trkpt lat="44.44507" lon="5.5662">
        <ele>861.2</ele>
        <time>2023-03-20T12:06:21Z</time>
      </trkpt>
      <trkpt lat="44.44505" lon="5.56611">
        <ele>861.1</ele>
        <time>2023-03-20T12:06:22Z</time>
      </trkpt>
      <trkpt lat="44.44503" lon="5.56601">
        <ele>861</ele>
        <time>2023-03-20T12:06:23Z</time>
      </trkpt>
      <trkpt lat="44.44502" lon="5.5659">
        <ele>860.7</ele>
        <time>2023-03-20T12:06:24Z</time>
      </trkpt>
      <trkpt lat="44.44501" lon="5.56579">
        <ele>860.5</ele>
        <time>2023-03-20T12:06:25Z</time>
      </trkpt>
      <trkpt lat="44.44501" lon="5.56569">
        <ele>860.2</ele>
        <time>2023-03-20T12:06:26Z</time>
      </trkpt>
      <trkpt lat="44.44499" lon="5.5656">
        <ele>860</ele>
        <time>2023-03-20T12:06:27Z</time>
      </trkpt>
      <trkpt lat="44.44497" lon="5.56551">
        <ele>859.8</ele>
        <time>2023-03-20T12:06:28Z</time>
      </trkpt>
      <trkpt lat="44.44495" lon="5.56543">
        <ele>859.6</ele>
        <time>2023-03-20T12:06:29Z</time>
      </trkpt>
      <trkpt lat="44.44492" lon="5.56536">
        <ele>859.4</ele>
        <time>2023-03-20T12:06:30Z</time>
      </trkpt>
      <trkpt lat="44.44487" lon="5.5653">
        <ele>859.2</ele>
        <time>2023-03-20T12:06:31Z</time>
      </trkpt>
      <trkpt lat="44.44481" lon="5.56525">
        <ele>858.9</ele>
        <time>2023-03-20T12:06:32Z</time>
      </trkpt>
      <trkpt lat="44.44475" lon="5.56521">
        <ele>858.6</ele>
        <time>2023-03-20T12:06:33Z</time>
      </trkpt>
      <trkpt lat="44.44468" lon="5.56517">
        <ele>858.2</ele>
        <time>2023-03-20T12:06:34Z</time>
      </trkpt>
      <trkpt lat="44.44462" lon="5.56513">
        <ele>857.9</ele>
        <time>2023-03-20T12:06:35Z</time>
      </trkpt>
      <trkpt lat="44.44456" lon="5.56508">
        <ele>857.6</ele>
        <time>2023-03-20T12:06:36Z</time>
      </trkpt>
      <trkpt lat="44.4445" lon="5.56504">
        <ele>857.4</ele>
        <time>2023-03-20T12:06:37Z</time>
      </trkpt>
      <trkpt lat="44.44446" lon="5.56498">
        <ele>857.2</ele>
        <time>2023-03-20T12:06:38Z</time>
      </trkpt>
      <trkpt lat="44.44442" lon="5.5649">
        <ele>857</ele>
        <time>2023-03-20T12:06:39Z</time>
      </trkpt>
      <trkpt lat="44.44439" lon="5.56481">
        <ele>856.9</ele>
        <time>2023-03-20T12:06:40Z</time>
      </trkpt>
      <trkpt lat="44.44437" lon="5.56472">
        <ele>856.8</ele>
        <time>2023-03-20T12:06:41Z</time>
      </trkpt>
      <trkpt lat="44.44435" lon="5.56463">
        <ele>856.7</ele>
        <time>2023-03-20T12:06:42Z</time>
      </trkpt>
      <trkpt lat="44.44433" lon="5.56454">
        <ele>856.7</ele>
        <time>2023-03-20T12:06:43Z</time>
      </trkpt>
      <trkpt lat="44.44432" lon="5.56444">
        <ele>856.6</ele>
        <time>2023-03-20T12:06:44Z</time>
      </trkpt>
      <trkpt lat="44.44429" lon="5.56426">
        <ele>856.7</ele>
        <time>2023-03-20T12:06:46Z</time>
      </trkpt>
      <trkpt lat="44.44429" lon="5.56418">
        <ele>856.8</ele>
        <time>2023-03-20T12:06:47Z</time>
      </trkpt>
      <trkpt lat="44.44428" lon="5.56411">
        <ele>856.9</ele>
        <time>2023-03-20T12:06:48Z</time>
      </trkpt>
      <trkpt lat="44.44426" lon="5.56404">
        <ele>856.9</ele>
        <time>2023-03-20T12:06:49Z</time>
      </trkpt>
      <trkpt lat="44.44424" lon="5.56396">
        <ele>857</ele>
        <time>2023-03-20T12:06:50Z</time>
      </trkpt>
      <trkpt lat="44.44421" lon="5.56388">
        <ele>857.1</ele>
        <time>2023-03-20T12:06:51Z</time>
      </trkpt>
      <trkpt lat="44.44419" lon="5.56381">
        <ele>857.1</ele>
        <time>2023-03-20T12:06:52Z</time>
      </trkpt>
      <trkpt lat="44.44417" lon="5.56374">
        <ele>857.2</ele>
        <time>2023-03-20T12:06:53Z</time>
      </trkpt>
      <trkpt lat="44.44415" lon="5.56367">
        <ele>857.3</ele>
        <time>2023-03-20T12:06:54Z</time>
      </trkpt>
      <trkpt lat="44.44413" lon="5.5636">
        <ele>857.2</ele>
        <time>2023-03-20T12:06:55Z</time>
      </trkpt>
      <trkpt lat="44.44411" lon="5.56353">
        <ele>857.2</ele>
        <time>2023-03-20T12:06:56Z</time>
      </trkpt>
      <trkpt lat="44.44408" lon="5.56345">
        <ele>857.1</ele>
        <time>2023-03-20T12:06:57Z</time>
      </trkpt>
      <trkpt lat="44.44406" lon="5.56337">
        <ele>856.9</ele>
        <time>2023-03-20T12:06:58Z</time>
      </trkpt>
      <trkpt lat="44.44405" lon="5.56328">
        <ele>856.7</ele>
        <time>2023-03-20T12:06:59Z</time>
      </trkpt>
      <trkpt lat="44.44405" lon="5.5632">
        <ele>856.5</ele>
        <time>2023-03-20T12:07:00Z</time>
      </trkpt>
      <trkpt lat="44.44405" lon="5.56311">
        <ele>856.3</ele>
        <time>2023-03-20T12:07:01Z</time>
      </trkpt>
      <trkpt lat="44.44404" lon="5.56301">
        <ele>856.1</ele>
        <time>2023-03-20T12:07:02Z</time>
      </trkpt>
      <trkpt lat="44.44403" lon="5.56291">
        <ele>855.9</ele>
        <time>2023-03-20T12:07:03Z</time>
      </trkpt>
      <trkpt lat="44.44402" lon="5.56282">
        <ele>855.7</ele>
        <time>2023-03-20T12:07:04Z</time>
      </trkpt>
      <trkpt lat="44.44402" lon="5.56272">
        <ele>855.5</ele>
        <time>2023-03-20T12:07:05Z</time>
      </trkpt>
      <trkpt lat="44.44403" lon="5.56263">
        <ele>855.2</ele>
        <time>2023-03-20T12:07:06Z</time>
      </trkpt>
      <trkpt lat="44.44403" lon="5.56255">
        <ele>854.9</ele>
        <time>2023-03-20T12:07:07Z</time>
      </trkpt>
      <trkpt lat="44.44403" lon="5.56246">
        <ele>854.5</ele>
        <time>2023-03-20T12:07:08Z</time>
      </trkpt>
      <trkpt lat="44.44403" lon="5.56238">
        <ele>854.1</ele>
        <time>2023-03-20T12:07:09Z</time>
      </trkpt>
      <trkpt lat="44.44402" lon="5.56228">
        <ele>853.7</ele>
        <time>2023-03-20T12:07:10Z</time>
      </trkpt>
      <trkpt lat="44.44401" lon="5.56219">
        <ele>853.3</ele>
        <time>2023-03-20T12:07:11Z</time>
      </trkpt>
      <trkpt lat="44.444" lon="5.5621">
        <ele>852.8</ele>
        <time>2023-03-20T12:07:12Z</time>
      </trkpt>
      <trkpt lat="44.44399" lon="5.56201">
        <ele>852.5</ele>
        <time>2023-03-20T12:07:13Z</time>
      </trkpt>
      <trkpt lat="44.44398" lon="5.56193">
        <ele>852.1</ele>
        <time>2023-03-20T12:07:14Z</time>
      </trkpt>
      <trkpt lat="44.44398" lon="5.56184">
        <ele>851.7</ele>
        <time>2023-03-20T12:07:15Z</time>
      </trkpt>
      <trkpt lat="44.44397" lon="5.56174">
        <ele>851.2</ele>
        <time>2023-03-20T12:07:16Z</time>
      </trkpt>
      <trkpt lat="44.44398" lon="5.56164">
        <ele>850.6</ele>
        <time>2023-03-20T12:07:17Z</time>
      </trkpt>
      <trkpt lat="44.44399" lon="5.56153">
        <ele>850</ele>
        <time>2023-03-20T12:07:18Z</time>
      </trkpt>
      <trkpt lat="44.44399" lon="5.56142">
        <ele>849.4</ele>
        <time>2023-03-20T12:07:19Z</time>
      </trkpt>
      <trkpt lat="44.44399" lon="5.56131">
        <ele>848.8</ele>
        <time>2023-03-20T12:07:20Z</time>
      </trkpt>
      <trkpt lat="44.44397" lon="5.56119">
        <ele>848.2</ele>
        <time>2023-03-20T12:07:21Z</time>
      </trkpt>
      <trkpt lat="44.44395" lon="5.56107">
        <ele>847.5</ele>
        <time>2023-03-20T12:07:22Z</time>
      </trkpt>
      <trkpt lat="44.44393" lon="5.56096">
        <ele>847</ele>
        <time>2023-03-20T12:07:23Z</time>
      </trkpt>
      <trkpt lat="44.44389" lon="5.56085">
        <ele>846.4</ele>
        <time>2023-03-20T12:07:24Z</time>
      </trkpt>
      <trkpt lat="44.44386" lon="5.56075">
        <ele>846</ele>
        <time>2023-03-20T12:07:25Z</time>
      </trkpt>
      <trkpt lat="44.44382" lon="5.56065">
        <ele>845.7</ele>
        <time>2023-03-20T12:07:26Z</time>
      </trkpt>
      <trkpt lat="44.4438" lon="5.56056">
        <ele>845.4</ele>
        <time>2023-03-20T12:07:27Z</time>
      </trkpt>
      <trkpt lat="44.44378" lon="5.56047">
        <ele>845</ele>
        <time>2023-03-20T12:07:28Z</time>
      </trkpt>
      <trkpt lat="44.44375" lon="5.56036">
        <ele>844.6</ele>
        <time>2023-03-20T12:07:29Z</time>
      </trkpt>
      <trkpt lat="44.44371" lon="5.56026">
        <ele>844.3</ele>
        <time>2023-03-20T12:07:30Z</time>
      </trkpt>
      <trkpt lat="44.44368" lon="5.56016">
        <ele>844.1</ele>
        <time>2023-03-20T12:07:31Z</time>
      </trkpt>
      <trkpt lat="44.44367" lon="5.56005">
        <ele>844</ele>
        <time>2023-03-20T12:07:32Z</time>
      </trkpt>
      <trkpt lat="44.44365" lon="5.55994">
        <ele>843.9</ele>
        <time>2023-03-20T12:07:33Z</time>
      </trkpt>
      <trkpt lat="44.44365" lon="5.55984">
        <ele>843.8</ele>
        <time>2023-03-20T12:07:34Z</time>
      </trkpt>
      <trkpt lat="44.44363" lon="5.55974">
        <ele>843.6</ele>
        <time>2023-03-20T12:07:35Z</time>
      </trkpt>
      <trkpt lat="44.44362" lon="5.55965">
        <ele>843.5</ele>
        <time>2023-03-20T12:07:36Z</time>
      </trkpt>
      <trkpt lat="44.44361" lon="5.55957">
        <ele>843.5</ele>
        <time>2023-03-20T12:07:37Z</time>
      </trkpt>
      <trkpt lat="44.4436" lon="5.55949">
        <ele>843.5</ele>
        <time>2023-03-20T12:07:38Z</time>
      </trkpt>
      <trkpt lat="44.44359" lon="5.5594">
        <ele>843.6</ele>
        <time>2023-03-20T12:07:39Z</time>
      </trkpt>
      <trkpt lat="44.44359" lon="5.55932">
        <ele>843.7</ele>
        <time>2023-03-20T12:07:40Z</time>
      </trkpt>
      <trkpt lat="44.44358" lon="5.55923">
        <ele>843.8</ele>
        <time>2023-03-20T12:07:41Z</time>
      </trkpt>
      <trkpt lat="44.44357" lon="5.55915">
        <ele>844</ele>
        <time>2023-03-20T12:07:42Z</time>
      </trkpt>
      <trkpt lat="44.44356" lon="5.55907">
        <ele>844.2</ele>
        <time>2023-03-20T12:07:43Z</time>
      </trkpt>
      <trkpt lat="44.44356" lon="5.55901">
        <ele>844.4</ele>
        <time>2023-03-20T12:07:44Z</time>
      </trkpt>
      <trkpt lat="44.44356" lon="5.55894">
        <ele>844.6</ele>
        <time>2023-03-20T12:07:45Z</time>
      </trkpt>
      <trkpt lat="44.44356" lon="5.55889">
        <ele>844.8</ele>
        <time>2023-03-20T12:07:46Z</time>
      </trkpt>
      <trkpt lat="44.44355" lon="5.55884">
        <ele>845.1</ele>
        <time>2023-03-20T12:07:47Z</time>
      </trkpt>
      <trkpt lat="44.44354" lon="5.5588">
        <ele>845</ele>
        <time>2023-03-20T12:07:48Z</time>
      </trkpt>
      <trkpt lat="44.44352" lon="5.55876">
        <ele>844.9</ele>
        <time>2023-03-20T12:07:49Z</time>
      </trkpt>
      <trkpt lat="44.44351" lon="5.55875">
        <ele>844.9</ele>
        <time>2023-03-20T12:07:50Z</time>
      </trkpt>
      <trkpt lat="44.44349" lon="5.55874">
        <ele>844.8</ele>
        <time>2023-03-20T12:07:51Z</time>
      </trkpt>
      <trkpt lat="44.44348" lon="5.55873">
        <ele>845.7</ele>
        <time>2023-03-20T12:07:52Z</time>
      </trkpt>
      <trkpt lat="44.44349" lon="5.55872">
        <ele>845.7</ele>
        <time>2023-03-20T12:07:53Z</time>
      </trkpt>
      <trkpt lat="44.44349" lon="5.55872">
        <ele>845.7</ele>
        <time>2023-03-20T12:07:54Z</time>
      </trkpt>
      <trkpt lat="44.44349" lon="5.55872">
        <ele>845.7</ele>
        <time>2023-03-20T12:07:55Z</time>
      </trkpt>
      <trkpt lat="44.4435" lon="5.55872">
        <ele>845.7</ele>
        <time>2023-03-20T12:07:56Z</time>
      </trkpt>
      <trkpt lat="44.44349" lon="5.55871">
        <ele>845.7</ele>
        <time>2023-03-20T12:07:57Z</time>
      </trkpt>
      <trkpt lat="44.44348" lon="5.55871">
        <ele>845.7</ele>
        <time>2023-03-20T12:07:58Z</time>
      </trkpt>
      <trkpt lat="44.44347" lon="5.55869">
        <ele>845.7</ele>
        <time>2023-03-20T12:07:59Z</time>
      </trkpt>
      <trkpt lat="44.44346" lon="5.55869">
        <ele>845.7</ele>
        <time>2023-03-20T12:08:00Z</time>
      </trkpt>
      <trkpt lat="44.44344" lon="5.55869">
        <ele>845.7</ele>
        <time>2023-03-20T12:08:01Z</time>
      </trkpt>
      <trkpt lat="44.44342" lon="5.5587">
        <ele>845.7</ele>
        <time>2023-03-20T12:08:02Z</time>
      </trkpt>
      <trkpt lat="44.44341" lon="5.5587">
        <ele>845.7</ele>
        <time>2023-03-20T12:08:03Z</time>
      </trkpt>
      <trkpt lat="44.44343" lon="5.55871">
        <ele>845.7</ele>
        <time>2023-03-20T12:08:04Z</time>
      </trkpt>
      <trkpt lat="44.44346" lon="5.55871">
        <ele>845.7</ele>
        <time>2023-03-20T12:08:05Z</time>
      </trkpt>
      <trkpt lat="44.44346" lon="5.55871">
        <ele>845.7</ele>
        <time>2023-03-20T12:08:06Z</time>
      </trkpt>
      <trkpt lat="44.44346" lon="5.55871">
        <ele>845.7</ele>
        <time>2023-03-20T12:08:07Z</time>
      </trkpt>
      <trkpt lat="44.44347" lon="5.55871">
        <ele>845.7</ele>
        <time>2023-03-20T12:08:08Z</time>
      </trkpt>
      <trkpt lat="44.44348" lon="5.5587">
        <ele>845.7</ele>
        <time>2023-03-20T12:08:09Z</time>
      </trkpt>
      <trkpt lat="44.44349" lon="5.55871">
        <ele>845.7</ele>
        <time>2023-03-20T12:08:10Z</time>
      </trkpt>
      <trkpt lat="44.4435" lon="5.55871">
        <ele>845.7</ele>
        <time>2023-03-20T12:08:11Z</time>
      </trkpt>
      <trkpt lat="44.4435" lon="5.55871">
        <ele>845.7</ele>
        <time>2023-03-20T12:08:12Z</time>
      </trkpt>
      <trkpt lat="44.4435" lon="5.5587">
        <ele>845.7</ele>
        <time>2023-03-20T12:08:13Z</time>
      </trkpt>
      <trkpt lat="44.4435" lon="5.55869">
        <ele>845.7</ele>
        <time>2023-03-20T12:08:14Z</time>
      </trkpt>
      <trkpt lat="44.4435" lon="5.55869">
        <ele>845.7</ele>
        <time>2023-03-20T12:08:15Z</time>
      </trkpt>
      <trkpt lat="44.44349" lon="5.55869">
        <ele>845.7</ele>
        <time>2023-03-20T12:08:16Z</time>
      </trkpt>
      <trkpt lat="44.44349" lon="5.55869">
        <ele>845.7</ele>
        <time>2023-03-20T12:08:17Z</time>
      </trkpt>
      <trkpt lat="44.44349" lon="5.55869">
        <ele>845.7</ele>
        <time>2023-03-20T12:08:18Z</time>
      </trkpt>
      <trkpt lat="44.44349" lon="5.55869">
        <ele>845.7</ele>
        <time>2023-03-20T12:08:19Z</time>
      </trkpt>
      <trkpt lat="44.44349" lon="5.55869">
        <ele>845.7</ele>
        <time>2023-03-20T12:08:20Z</time>
      </trkpt>
      <trkpt lat="44.44349" lon="5.55869">
        <ele>845.7</ele>
        <time>2023-03-20T12:08:21Z</time>
      </trkpt>
      <trkpt lat="44.44346" lon="5.5587">
        <ele>845.7</ele>
        <time>2023-03-20T12:09:42Z</time>
      </trkpt>
      <trkpt lat="44.44346" lon="5.55871">
        <ele>845.7</ele>
        <time>2023-03-20T12:09:43Z</time>
      </trkpt>
      <trkpt lat="44.44346" lon="5.55871">
        <ele>845.7</ele>
        <time>2023-03-20T12:09:44Z</time>
      </trkpt>
      <trkpt lat="44.44346" lon="5.55871">
        <ele>845.7</ele>
        <time>2023-03-20T12:09:45Z</time>
      </trkpt>
      <trkpt lat="44.44346" lon="5.5587">
        <ele>845.7</ele>
        <time>2023-03-20T12:09:46Z</time>
      </trkpt>
      <trkpt lat="44.44346" lon="5.5587">
        <ele>845.7</ele>
        <time>2023-03-20T12:09:47Z</time>
      </trkpt>
      <trkpt lat="44.44346" lon="5.55869">
        <ele>845.7</ele>
        <time>2023-03-20T12:09:48Z</time>
      </trkpt>
      <trkpt lat="44.44346" lon="5.55869">
        <ele>845.7</ele>
        <time>2023-03-20T12:09:49Z</time>
      </trkpt>
      <trkpt lat="44.44346" lon="5.55869">
        <ele>845.7</ele>
        <time>2023-03-20T12:09:50Z</time>
      </trkpt>
      <trkpt lat="44.44346" lon="5.55869">
        <ele>845.7</ele>
        <time>2023-03-20T12:09:51Z</time>
      </trkpt>
      <trkpt lat="44.44346" lon="5.55869">
        <ele>845.7</ele>
        <time>2023-03-20T12:09:53Z</time>
      </trkpt>
      <trkpt lat="44.44346" lon="5.55869">
        <ele>845.7</ele>
        <time>2023-03-20T12:09:54Z</time>
      </trkpt>
      <trkpt lat="44.44346" lon="5.55869">
        <ele>845.7</ele>
        <time>2023-03-20T12:09:57Z</time>
      </trkpt>
      <trkpt lat="44.44346" lon="5.55869">
        <ele>845.7</ele>
        <time>2023-03-20T12:09:58Z</time>
      </trkpt>
      <trkpt lat="44.44346" lon="5.55869">
        <ele>845.7</ele>
        <time>2023-03-20T12:09:59Z</time>
      </trkpt>
      <trkpt lat="44.44346" lon="5.55869">
        <ele>845.7</ele>
        <time>2023-03-20T12:10:00Z</time>
      </trkpt>
      <trkpt lat="44.44346" lon="5.55869">
        <ele>845.7</ele>
        <time>2023-03-20T12:10:02Z</time>
      </trkpt>
      <trkpt lat="44.44346" lon="5.55869">
        <ele>845.7</ele>
        <time>2023-03-20T12:10:03Z</time>
      </trkpt>
      <trkpt lat="44.44346" lon="5.55869">
        <ele>845.7</ele>
        <time>2023-03-20T12:10:04Z</time>
      </trkpt>
      <trkpt lat="44.44346" lon="5.55869">
        <ele>845.7</ele>
        <time>2023-03-20T12:10:05Z</time>
      </trkpt>
      <trkpt lat="44.44346" lon="5.55869">
        <ele>845.7</ele>
        <time>2023-03-20T12:10:06Z</time>
      </trkpt>
      <trkpt lat="44.44346" lon="5.55869">
        <ele>845.7</ele>
        <time>2023-03-20T12:10:07Z</time>
      </trkpt>
      <trkpt lat="44.44346" lon="5.55869">
        <ele>845.7</ele>
        <time>2023-03-20T12:10:08Z</time>
      </trkpt>
      <trkpt lat="44.44346" lon="5.55869">
        <ele>845.7</ele>
        <time>2023-03-20T12:10:09Z</time>
      </trkpt>
      <trkpt lat="44.44346" lon="5.55869">
        <ele>845.7</ele>
        <time>2023-03-20T12:10:10Z</time>
      </trkpt>
      <trkpt lat="44.44346" lon="5.55869">
        <ele>845.7</ele>
        <time>2023-03-20T12:10:11Z</time>
      </trkpt>
      <trkpt lat="44.44346" lon="5.55869">
        <ele>845.7</ele>
        <time>2023-03-20T12:10:12Z</time>
      </trkpt>
      <trkpt lat="44.44346" lon="5.55869">
        <ele>845.7</ele>
        <time>2023-03-20T12:10:13Z</time>
      </trkpt>
      <trkpt lat="44.44346" lon="5.55869">
        <ele>845.7</ele>
        <time>2023-03-20T12:10:14Z</time>
      </trkpt>
      <trkpt lat="44.44346" lon="5.55869">
        <ele>845.7</ele>
        <time>2023-03-20T12:10:15Z</time>
      </trkpt>
      <trkpt lat="44.44346" lon="5.55869">
        <ele>845.7</ele>
        <time>2023-03-20T12:10:16Z</time>
      </trkpt>
      <trkpt lat="44.44346" lon="5.55869">
        <ele>845.7</ele>
        <time>2023-03-20T12:10:17Z</time>
      </trkpt>
      <trkpt lat="44.44346" lon="5.55869">
        <ele>845.7</ele>
        <time>2023-03-20T12:10:18Z</time>
      </trkpt>
      <trkpt lat="44.44346" lon="5.55869">
        <ele>845.7</ele>
        <time>2023-03-20T12:10:19Z</time>
      </trkpt>
      <trkpt lat="44.44346" lon="5.55869">
        <ele>845.7</ele>
        <time>2023-03-20T12:10:20Z</time>
      </trkpt>
      <trkpt lat="44.44346" lon="5.55869">
        <ele>845.7</ele>
        <time>2023-03-20T12:10:21Z</time>
      </trkpt>
      <trkpt lat="44.44346" lon="5.55869">
        <ele>845.7</ele>
        <time>2023-03-20T12:10:23Z</time>
      </trkpt>
      <trkpt lat="44.44346" lon="5.55869">
        <ele>845.7</ele>
        <time>2023-03-20T12:10:24Z</time>
      </trkpt>
      <trkpt lat="44.44346" lon="5.55869">
        <ele>845.7</ele>
        <time>2023-03-20T12:10:25Z</time>
      </trkpt>
      <trkpt lat="44.44346" lon="5.55869">
        <ele>845.7</ele>
        <time>2023-03-20T12:10:26Z</time>
      </trkpt>
      <trkpt lat="44.44346" lon="5.55869">
        <ele>845.7</ele>
        <time>2023-03-20T12:10:27Z</time>
      </trkpt>
      <trkpt lat="44.44346" lon="5.55869">
        <ele>845.7</ele>
        <time>2023-03-20T12:10:28Z</time>
      </trkpt>
      <trkpt lat="44.44346" lon="5.55869">
        <ele>845.7</ele>
        <time>2023-03-20T12:10:29Z</time>
      </trkpt>
      <trkpt lat="44.44346" lon="5.55869">
        <ele>845.7</ele>
        <time>2023-03-20T12:10:30Z</time>
      </trkpt>
      <trkpt lat="44.44346" lon="5.55869">
        <ele>845.7</ele>
        <time>2023-03-20T12:10:31Z</time>
      </trkpt>
      <trkpt lat="44.44346" lon="5.55869">
        <ele>845.7</ele>
        <time>2023-03-20T12:10:32Z</time>
      </trkpt>
      <trkpt lat="44.44346" lon="5.55869">
        <ele>845.7</ele>
        <time>2023-03-20T12:10:33Z</time>
      </trkpt>
      <trkpt lat="44.44346" lon="5.55869">
        <ele>845.7</ele>
        <time>2023-03-20T12:10:34Z</time>
      </trkpt>
      <trkpt lat="44.44346" lon="5.55869">
        <ele>845.7</ele>
        <time>2023-03-20T12:10:35Z</time>
      </trkpt>
      <trkpt lat="44.44346" lon="5.55869">
        <ele>845.7</ele>
        <time>2023-03-20T12:10:36Z</time>
      </trkpt>
      <trkpt lat="44.44346" lon="5.55869">
        <ele>845.7</ele>
        <time>2023-03-20T12:10:37Z</time>
      </trkpt>
      <trkpt lat="44.44346" lon="5.55869">
        <ele>845.7</ele>
        <time>2023-03-20T12:10:38Z</time>
      </trkpt>
      <trkpt lat="44.44346" lon="5.55869">
        <ele>845.7</ele>
        <time>2023-03-20T12:10:39Z</time>
      </trkpt>
      <trkpt lat="44.44346" lon="5.55869">
        <ele>845.7</ele>
        <time>2023-03-20T12:10:40Z</time>
      </trkpt>
      <trkpt lat="44.44346" lon="5.55869">
        <ele>845.7</ele>
        <time>2023-03-20T12:10:41Z</time>
      </trkpt>
      <trkpt lat="44.44346" lon="5.55869">
        <ele>845.7</ele>
        <time>2023-03-20T12:10:42Z</time>
      </trkpt>
      <trkpt lat="44.44346" lon="5.55869">
        <ele>845.7</ele>
        <time>2023-03-20T12:10:43Z</time>
      </trkpt>
      <trkpt lat="44.44346" lon="5.55869">
        <ele>845.7</ele>
        <time>2023-03-20T12:10:44Z</time>
      </trkpt>
      <trkpt lat="44.44346" lon="5.55869">
        <ele>845.7</ele>
        <time>2023-03-20T12:10:45Z</time>
      </trkpt>
      <trkpt lat="44.44346" lon="5.55869">
        <ele>845.7</ele>
        <time>2023-03-20T12:10:46Z</time>
      </trkpt>
      <trkpt lat="44.44346" lon="5.55869">
        <ele>845.7</ele>
        <time>2023-03-20T12:10:47Z</time>
      </trkpt>
      <trkpt lat="44.44346" lon="5.55869">
        <ele>845.7</ele>
        <time>2023-03-20T12:10:48Z</time>
      </trkpt>
      <trkpt lat="44.44346" lon="5.55869">
        <ele>845.7</ele>
        <time>2023-03-20T12:10:50Z</time>
      </trkpt>
      <trkpt lat="44.44346" lon="5.55869">
        <ele>845.7</ele>
        <time>2023-03-20T12:10:51Z</time>
      </trkpt>
      <trkpt lat="44.44346" lon="5.55869">
        <ele>845.7</ele>
        <time>2023-03-20T12:10:52Z</time>
      </trkpt>
      <trkpt lat="44.44346" lon="5.55869">
        <ele>845.7</ele>
        <time>2023-03-20T12:10:53Z</time>
      </trkpt>
      <trkpt lat="44.44346" lon="5.55869">
        <ele>845.7</ele>
        <time>2023-03-20T12:10:54Z</time>
      </trkpt>
      <trkpt lat="44.44346" lon="5.55869">
        <ele>845.7</ele>
        <time>2023-03-20T12:10:55Z</time>
      </trkpt>
      <trkpt lat="44.44346" lon="5.55869">
        <ele>845.7</ele>
        <time>2023-03-20T12:10:56Z</time>
      </trkpt>
      <trkpt lat="44.44346" lon="5.55869">
        <ele>845.7</ele>
        <time>2023-03-20T12:10:57Z</time>
      </trkpt>
      <trkpt lat="44.44346" lon="5.55869">
        <ele>845.7</ele>
        <time>2023-03-20T12:10:58Z</time>
      </trkpt>
      <trkpt lat="44.44346" lon="5.55869">
        <ele>845.7</ele>
        <time>2023-03-20T12:10:59Z</time>
      </trkpt>
      <trkpt lat="44.44346" lon="5.55869">
        <ele>845.7</ele>
        <time>2023-03-20T12:11:00Z</time>
      </trkpt>
      <trkpt lat="44.44346" lon="5.55869">
        <ele>845.7</ele>
        <time>2023-03-20T12:11:01Z</time>
      </trkpt>
      <trkpt lat="44.44346" lon="5.55869">
        <ele>845.7</ele>
        <time>2023-03-20T12:11:02Z</time>
      </trkpt>
      <trkpt lat="44.44346" lon="5.55869">
        <ele>845.7</ele>
        <time>2023-03-20T12:11:03Z</time>
      </trkpt>
      <trkpt lat="44.44346" lon="5.55869">
        <ele>845.7</ele>
        <time>2023-03-20T12:11:04Z</time>
      </trkpt>
      <trkpt lat="44.44346" lon="5.55869">
        <ele>845.7</ele>
        <time>2023-03-20T12:11:05Z</time>
      </trkpt>
      <trkpt lat="44.44346" lon="5.55869">
        <ele>845.7</ele>
        <time>2023-03-20T12:11:06Z</time>
      </trkpt>
      <trkpt lat="44.44346" lon="5.55869">
        <ele>845.7</ele>
        <time>2023-03-20T12:11:07Z</time>
      </trkpt>
      <trkpt lat="44.44346" lon="5.55869">
        <ele>845.7</ele>
        <time>2023-03-20T12:11:08Z</time>
      </trkpt>
      <trkpt lat="44.44346" lon="5.55869">
        <ele>845.7</ele>
        <time>2023-03-20T12:11:09Z</time>
      </trkpt>
      <trkpt lat="44.44346" lon="5.55869">
        <ele>845.7</ele>
        <time>2023-03-20T12:11:10Z</time>
      </trkpt>
      <trkpt lat="44.44346" lon="5.55869">
        <ele>845.7</ele>
        <time>2023-03-20T12:11:11Z</time>
      </trkpt>
      <trkpt lat="44.44346" lon="5.55869">
        <ele>845.7</ele>
        <time>2023-03-20T12:11:12Z</time>
      </trkpt>
      <trkpt lat="44.44346" lon="5.55869">
        <ele>845.7</ele>
        <time>2023-03-20T12:11:13Z</time>
      </trkpt>
      <trkpt lat="44.44346" lon="5.55869">
        <ele>845.7</ele>
        <time>2023-03-20T12:11:14Z</time>
      </trkpt>
      <trkpt lat="44.44346" lon="5.55869">
        <ele>845.7</ele>
        <time>2023-03-20T12:11:15Z</time>
      </trkpt>
      <trkpt lat="44.44346" lon="5.55869">
        <ele>845.7</ele>
        <time>2023-03-20T12:11:16Z</time>
      </trkpt>
      <trkpt lat="44.44346" lon="5.55869">
        <ele>845.7</ele>
        <time>2023-03-20T12:11:17Z</time>
      </trkpt>
      <trkpt lat="44.44346" lon="5.55869">
        <ele>845.7</ele>
        <time>2023-03-20T12:11:18Z</time>
      </trkpt>
      <trkpt lat="44.44346" lon="5.55869">
        <ele>845.7</ele>
        <time>2023-03-20T12:11:19Z</time>
      </trkpt>
      <trkpt lat="44.44346" lon="5.55869">
        <ele>845.7</ele>
        <time>2023-03-20T12:11:20Z</time>
      </trkpt>
      <trkpt lat="44.44346" lon="5.55869">
        <ele>845.7</ele>
        <time>2023-03-20T12:11:21Z</time>
      </trkpt>
      <trkpt lat="44.44346" lon="5.55869">
        <ele>845.7</ele>
        <time>2023-03-20T12:11:22Z</time>
      </trkpt>
      <trkpt lat="44.44346" lon="5.55869">
        <ele>845.7</ele>
        <time>2023-03-20T12:11:23Z</time>
      </trkpt>
      <trkpt lat="44.44346" lon="5.55869">
        <ele>845.7</ele>
        <time>2023-03-20T12:11:24Z</time>
      </trkpt>
      <trkpt lat="44.44346" lon="5.55869">
        <ele>845.7</ele>
        <time>2023-03-20T12:11:25Z</time>
      </trkpt>
      <trkpt lat="44.44346" lon="5.55869">
        <ele>845.7</ele>
        <time>2023-03-20T12:11:26Z</time>
      </trkpt>
      <trkpt lat="44.44346" lon="5.55869">
        <ele>845.7</ele>
        <time>2023-03-20T12:11:27Z</time>
      </trkpt>
      <trkpt lat="44.44346" lon="5.55869">
        <ele>845.7</ele>
        <time>2023-03-20T12:11:28Z</time>
      </trkpt>
      <trkpt lat="44.44346" lon="5.55869">
        <ele>845.7</ele>
        <time>2023-03-20T12:11:29Z</time>
      </trkpt>
      <trkpt lat="44.44346" lon="5.55869">
        <ele>845.7</ele>
        <time>2023-03-20T12:11:30Z</time>
      </trkpt>
      <trkpt lat="44.44346" lon="5.55869">
        <ele>845.7</ele>
        <time>2023-03-20T12:11:31Z</time>
      </trkpt>
      <trkpt lat="44.44346" lon="5.55869">
        <ele>845.7</ele>
        <time>2023-03-20T12:11:32Z</time>
      </trkpt>
      <trkpt lat="44.44346" lon="5.55869">
        <ele>845.7</ele>
        <time>2023-03-20T12:11:33Z</time>
      </trkpt>
      <trkpt lat="44.44346" lon="5.55869">
        <ele>845.7</ele>
        <time>2023-03-20T12:11:34Z</time>
      </trkpt>
      <trkpt lat="44.44346" lon="5.55869">
        <ele>845.7</ele>
        <time>2023-03-20T12:11:35Z</time>
      </trkpt>
      <trkpt lat="44.44345" lon="5.55869">
        <ele>845.7</ele>
        <time>2023-03-20T12:11:36Z</time>
      </trkpt>
      <trkpt lat="44.44344" lon="5.5587">
        <ele>845.7</ele>
        <time>2023-03-20T12:11:37Z</time>
      </trkpt>
      <trkpt lat="44.44344" lon="5.5587">
        <ele>845.7</ele>
        <time>2023-03-20T12:11:38Z</time>
      </trkpt>
      <trkpt lat="44.44343" lon="5.5587">
        <ele>845.7</ele>
        <time>2023-03-20T12:11:39Z</time>
      </trkpt>
      <trkpt lat="44.44343" lon="5.5587">
        <ele>845.7</ele>
        <time>2023-03-20T12:11:40Z</time>
      </trkpt>
      <trkpt lat="44.44343" lon="5.5587">
        <ele>845.7</ele>
        <time>2023-03-20T12:11:41Z</time>
      </trkpt>
      <trkpt lat="44.44343" lon="5.5587">
        <ele>845.7</ele>
        <time>2023-03-20T12:11:42Z</time>
      </trkpt>
      <trkpt lat="44.44342" lon="5.5587">
        <ele>845.7</ele>
        <time>2023-03-20T12:11:43Z</time>
      </trkpt>
      <trkpt lat="44.44341" lon="5.5587">
        <ele>845.7</ele>
        <time>2023-03-20T12:11:44Z</time>
      </trkpt>
      <trkpt lat="44.44341" lon="5.5587">
        <ele>845.7</ele>
        <time>2023-03-20T12:11:45Z</time>
      </trkpt>
      <trkpt lat="44.44341" lon="5.5587">
        <ele>845.7</ele>
        <time>2023-03-20T12:11:46Z</time>
      </trkpt>
      <trkpt lat="44.44341" lon="5.5587">
        <ele>845.7</ele>
        <time>2023-03-20T12:11:47Z</time>
      </trkpt>
      <trkpt lat="44.44341" lon="5.5587">
        <ele>845.7</ele>
        <time>2023-03-20T12:11:48Z</time>
      </trkpt>
      <trkpt lat="44.44341" lon="5.5587">
        <ele>845.7</ele>
        <time>2023-03-20T12:11:49Z</time>
      </trkpt>
      <trkpt lat="44.44341" lon="5.5587">
        <ele>845.7</ele>
        <time>2023-03-20T12:11:50Z</time>
      </trkpt>
      <trkpt lat="44.44341" lon="5.5587">
        <ele>845.7</ele>
        <time>2023-03-20T12:11:51Z</time>
      </trkpt>
      <trkpt lat="44.44341" lon="5.5587">
        <ele>845.7</ele>
        <time>2023-03-20T12:11:52Z</time>
      </trkpt>
      <trkpt lat="44.44341" lon="5.5587">
        <ele>845.7</ele>
        <time>2023-03-20T12:11:53Z</time>
      </trkpt>
      <trkpt lat="44.44341" lon="5.5587">
        <ele>845.7</ele>
        <time>2023-03-20T12:11:54Z</time>
      </trkpt>
      <trkpt lat="44.44346" lon="5.55872">
        <ele>845.7</ele>
        <time>2023-03-20T12:12:11Z</time>
      </trkpt>
      <trkpt lat="44.44347" lon="5.55872">
        <ele>845.7</ele>
        <time>2023-03-20T12:12:12Z</time>
      </trkpt>
      <trkpt lat="44.44348" lon="5.55873">
        <ele>845.7</ele>
        <time>2023-03-20T12:12:13Z</time>
      </trkpt>
      <trkpt lat="44.4435" lon="5.55874">
        <ele>845.7</ele>
        <time>2023-03-20T12:12:14Z</time>
      </trkpt>
      <trkpt lat="44.44351" lon="5.55875">
        <ele>845.7</ele>
        <time>2023-03-20T12:12:15Z</time>
      </trkpt>
      <trkpt lat="44.44351" lon="5.55875">
        <ele>845.7</ele>
        <time>2023-03-20T12:12:16Z</time>
      </trkpt>
      <trkpt lat="44.4435" lon="5.55874">
        <ele>845.7</ele>
        <time>2023-03-20T12:12:17Z</time>
      </trkpt>
      <trkpt lat="44.44349" lon="5.55874">
        <ele>845.7</ele>
        <time>2023-03-20T12:12:18Z</time>
      </trkpt>
      <trkpt lat="44.44348" lon="5.55873">
        <ele>845.7</ele>
        <time>2023-03-20T12:12:19Z</time>
      </trkpt>
      <trkpt lat="44.44348" lon="5.55874">
        <ele>845.7</ele>
        <time>2023-03-20T12:12:21Z</time>
      </trkpt>
      <trkpt lat="44.44348" lon="5.55874">
        <ele>845.7</ele>
        <time>2023-03-20T12:12:23Z</time>
      </trkpt>
      <trkpt lat="44.44348" lon="5.55874">
        <ele>845.7</ele>
        <time>2023-03-20T12:12:24Z</time>
      </trkpt>
      <trkpt lat="44.44348" lon="5.55874">
        <ele>845.7</ele>
        <time>2023-03-20T12:12:25Z</time>
      </trkpt>
      <trkpt lat="44.44348" lon="5.55874">
        <ele>845.7</ele>
        <time>2023-03-20T12:12:26Z</time>
      </trkpt>
      <trkpt lat="44.44348" lon="5.55874">
        <ele>845.7</ele>
        <time>2023-03-20T12:12:27Z</time>
      </trkpt>
      <trkpt lat="44.44348" lon="5.55874">
        <ele>845.7</ele>
        <time>2023-03-20T12:12:28Z</time>
      </trkpt>
      <trkpt lat="44.44348" lon="5.55874">
        <ele>845.7</ele>
        <time>2023-03-20T12:12:29Z</time>
      </trkpt>
      <trkpt lat="44.44346" lon="5.5587">
        <ele>845.7</ele>
        <time>2023-03-20T12:12:59Z</time>
      </trkpt>
      <trkpt lat="44.44346" lon="5.5587">
        <ele>845.7</ele>
        <time>2023-03-20T12:13:00Z</time>
      </trkpt>
      <trkpt lat="44.44346" lon="5.5587">
        <ele>845.7</ele>
        <time>2023-03-20T12:13:01Z</time>
      </trkpt>
      <trkpt lat="44.44346" lon="5.5587">
        <ele>845.7</ele>
        <time>2023-03-20T12:13:02Z</time>
      </trkpt>
      <trkpt lat="44.44347" lon="5.55869">
        <ele>845.7</ele>
        <time>2023-03-20T12:13:03Z</time>
      </trkpt>
      <trkpt lat="44.44347" lon="5.55869">
        <ele>845.7</ele>
        <time>2023-03-20T12:13:04Z</time>
      </trkpt>
      <trkpt lat="44.44347" lon="5.55869">
        <ele>845.7</ele>
        <time>2023-03-20T12:13:05Z</time>
      </trkpt>
      <trkpt lat="44.44346" lon="5.55868">
        <ele>845.7</ele>
        <time>2023-03-20T12:13:06Z</time>
      </trkpt>
      <trkpt lat="44.44346" lon="5.55868">
        <ele>845.7</ele>
        <time>2023-03-20T12:13:07Z</time>
      </trkpt>
      <trkpt lat="44.44345" lon="5.55868">
        <ele>845.7</ele>
        <time>2023-03-20T12:13:08Z</time>
      </trkpt>
      <trkpt lat="44.44344" lon="5.55868">
        <ele>845.7</ele>
        <time>2023-03-20T12:13:09Z</time>
      </trkpt>
      <trkpt lat="44.44343" lon="5.55868">
        <ele>845.7</ele>
        <time>2023-03-20T12:13:10Z</time>
      </trkpt>
      <trkpt lat="44.44343" lon="5.55868">
        <ele>845.7</ele>
        <time>2023-03-20T12:13:11Z</time>
      </trkpt>
      <trkpt lat="44.44342" lon="5.55869">
        <ele>845.7</ele>
        <time>2023-03-20T12:13:12Z</time>
      </trkpt>
      <trkpt lat="44.44342" lon="5.5587">
        <ele>845.7</ele>
        <time>2023-03-20T12:13:13Z</time>
      </trkpt>
      <trkpt lat="44.44343" lon="5.5587">
        <ele>845.7</ele>
        <time>2023-03-20T12:13:14Z</time>
      </trkpt>
      <trkpt lat="44.44343" lon="5.55871">
        <ele>845.7</ele>
        <time>2023-03-20T12:13:15Z</time>
      </trkpt>
      <trkpt lat="44.44343" lon="5.55871">
        <ele>845.7</ele>
        <time>2023-03-20T12:13:16Z</time>
      </trkpt>
      <trkpt lat="44.44343" lon="5.55871">
        <ele>845.7</ele>
        <time>2023-03-20T12:13:17Z</time>
      </trkpt>
      <trkpt lat="44.44343" lon="5.55871">
        <ele>845.7</ele>
        <time>2023-03-20T12:13:18Z</time>
      </trkpt>
      <trkpt lat="44.44343" lon="5.55871">
        <ele>845.7</ele>
        <time>2023-03-20T12:13:19Z</time>
      </trkpt>
      <trkpt lat="44.44344" lon="5.55871">
        <ele>845.7</ele>
        <time>2023-03-20T12:13:20Z</time>
      </trkpt>
      <trkpt lat="44.44343" lon="5.55872">
        <ele>845.7</ele>
        <time>2023-03-20T12:13:21Z</time>
      </trkpt>
      <trkpt lat="44.44341" lon="5.55871">
        <ele>845.7</ele>
        <time>2023-03-20T12:13:22Z</time>
      </trkpt>
      <trkpt lat="44.4434" lon="5.5587">
        <ele>845.7</ele>
        <time>2023-03-20T12:13:23Z</time>
      </trkpt>
      <trkpt lat="44.44338" lon="5.5587">
        <ele>846.4</ele>
        <time>2023-03-20T12:14:00Z</time>
      </trkpt>
      <trkpt lat="44.44337" lon="5.55869">
        <ele>846.5</ele>
        <time>2023-03-20T12:14:01Z</time>
      </trkpt>
      <trkpt lat="44.44335" lon="5.55869">
        <ele>846.7</ele>
        <time>2023-03-20T12:14:02Z</time>
      </trkpt>
      <trkpt lat="44.44333" lon="5.55869">
        <ele>846.8</ele>
        <time>2023-03-20T12:14:03Z</time>
      </trkpt>
      <trkpt lat="44.44329" lon="5.55869">
        <ele>846.9</ele>
        <time>2023-03-20T12:14:05Z</time>
      </trkpt>
      <trkpt lat="44.44328" lon="5.55867">
        <ele>846.9</ele>
        <time>2023-03-20T12:14:06Z</time>
      </trkpt>
      <trkpt lat="44.44327" lon="5.55866">
        <ele>846.9</ele>
        <time>2023-03-20T12:14:07Z</time>
      </trkpt>
      <trkpt lat="44.44326" lon="5.5586">
        <ele>847</ele>
        <time>2023-03-20T12:14:08Z</time>
      </trkpt>
      <trkpt lat="44.44326" lon="5.55858">
        <ele>847.1</ele>
        <time>2023-03-20T12:14:09Z</time>
      </trkpt>
      <trkpt lat="44.44326" lon="5.55853">
        <ele>847.2</ele>
        <time>2023-03-20T12:14:10Z</time>
      </trkpt>
      <trkpt lat="44.44325" lon="5.55847">
        <ele>847.3</ele>
        <time>2023-03-20T12:14:11Z</time>
      </trkpt>
      <trkpt lat="44.44325" lon="5.55841">
        <ele>847.5</ele>
        <time>2023-03-20T12:14:12Z</time>
      </trkpt>
      <trkpt lat="44.44325" lon="5.55835">
        <ele>847.6</ele>
        <time>2023-03-20T12:14:13Z</time>
      </trkpt>
      <trkpt lat="44.44326" lon="5.55829">
        <ele>847.8</ele>
        <time>2023-03-20T12:14:14Z</time>
      </trkpt>
      <trkpt lat="44.44326" lon="5.55823">
        <ele>847.9</ele>
        <time>2023-03-20T12:14:15Z</time>
      </trkpt>
      <trkpt lat="44.44326" lon="5.55818">
        <ele>848.1</ele>
        <time>2023-03-20T12:14:16Z</time>
      </trkpt>
      <trkpt lat="44.44326" lon="5.55812">
        <ele>848.2</ele>
        <time>2023-03-20T12:14:17Z</time>
      </trkpt>
      <trkpt lat="44.44326" lon="5.55807">
        <ele>848.4</ele>
        <time>2023-03-20T12:14:18Z</time>
      </trkpt>
      <trkpt lat="44.44326" lon="5.55802">
        <ele>848.5</ele>
        <time>2023-03-20T12:14:19Z</time>
      </trkpt>
      <trkpt lat="44.44327" lon="5.55798">
        <ele>848.7</ele>
        <time>2023-03-20T12:14:20Z</time>
      </trkpt>
      <trkpt lat="44.44327" lon="5.55794">
        <ele>848.8</ele>
        <time>2023-03-20T12:14:21Z</time>
      </trkpt>
      <trkpt lat="44.44327" lon="5.5579">
        <ele>849</ele>
        <time>2023-03-20T12:14:22Z</time>
      </trkpt>
      <trkpt lat="44.44327" lon="5.55785">
        <ele>849.1</ele>
        <time>2023-03-20T12:14:23Z</time>
      </trkpt>
      <trkpt lat="44.44327" lon="5.5578">
        <ele>849.3</ele>
        <time>2023-03-20T12:14:24Z</time>
      </trkpt>
      <trkpt lat="44.44326" lon="5.55776">
        <ele>849.5</ele>
        <time>2023-03-20T12:14:25Z</time>
      </trkpt>
      <trkpt lat="44.44326" lon="5.55772">
        <ele>849.7</ele>
        <time>2023-03-20T12:14:26Z</time>
      </trkpt>
      <trkpt lat="44.44325" lon="5.55767">
        <ele>849.9</ele>
        <time>2023-03-20T12:14:27Z</time>
      </trkpt>
      <trkpt lat="44.44324" lon="5.55763">
        <ele>850</ele>
        <time>2023-03-20T12:14:28Z</time>
      </trkpt>
      <trkpt lat="44.44323" lon="5.55759">
        <ele>850.2</ele>
        <time>2023-03-20T12:14:29Z</time>
      </trkpt>
      <trkpt lat="44.44323" lon="5.55755">
        <ele>850.4</ele>
        <time>2023-03-20T12:14:30Z</time>
      </trkpt>
      <trkpt lat="44.44322" lon="5.5575">
        <ele>850.5</ele>
        <time>2023-03-20T12:14:31Z</time>
      </trkpt>
      <trkpt lat="44.44321" lon="5.55747">
        <ele>850.7</ele>
        <time>2023-03-20T12:14:32Z</time>
      </trkpt>
      <trkpt lat="44.4432" lon="5.55741">
        <ele>850.9</ele>
        <time>2023-03-20T12:14:33Z</time>
      </trkpt>
      <trkpt lat="44.4432" lon="5.55739">
        <ele>851</ele>
        <time>2023-03-20T12:14:34Z</time>
      </trkpt>
      <trkpt lat="44.44319" lon="5.55735">
        <ele>851.2</ele>
        <time>2023-03-20T12:14:35Z</time>
      </trkpt>
      <trkpt lat="44.44318" lon="5.55732">
        <ele>851.3</ele>
        <time>2023-03-20T12:14:36Z</time>
      </trkpt>
      <trkpt lat="44.44317" lon="5.55728">
        <ele>851.5</ele>
        <time>2023-03-20T12:14:37Z</time>
      </trkpt>
      <trkpt lat="44.44314" lon="5.55724">
        <ele>851.7</ele>
        <time>2023-03-20T12:14:38Z</time>
      </trkpt>
      <trkpt lat="44.44313" lon="5.55723">
        <ele>851.7</ele>
        <time>2023-03-20T12:14:39Z</time>
      </trkpt>
      <trkpt lat="44.4431" lon="5.5572">
        <ele>851.9</ele>
        <time>2023-03-20T12:14:40Z</time>
      </trkpt>
      <trkpt lat="44.44309" lon="5.5572">
        <ele>852</ele>
        <time>2023-03-20T12:14:41Z</time>
      </trkpt>
      <trkpt lat="44.44306" lon="5.55718">
        <ele>852.1</ele>
        <time>2023-03-20T12:14:42Z</time>
      </trkpt>
      <trkpt lat="44.44305" lon="5.55718">
        <ele>852.2</ele>
        <time>2023-03-20T12:14:43Z</time>
      </trkpt>
      <trkpt lat="44.44302" lon="5.55717">
        <ele>852.3</ele>
        <time>2023-03-20T12:14:44Z</time>
      </trkpt>
      <trkpt lat="44.44299" lon="5.55716">
        <ele>852.4</ele>
        <time>2023-03-20T12:14:45Z</time>
      </trkpt>
      <trkpt lat="44.44296" lon="5.55715">
        <ele>852.6</ele>
        <time>2023-03-20T12:14:46Z</time>
      </trkpt>
      <trkpt lat="44.44295" lon="5.55715">
        <ele>852.6</ele>
        <time>2023-03-20T12:14:47Z</time>
      </trkpt>
      <trkpt lat="44.44292" lon="5.55713">
        <ele>852.8</ele>
        <time>2023-03-20T12:14:48Z</time>
      </trkpt>
      <trkpt lat="44.44291" lon="5.55713">
        <ele>852.8</ele>
        <time>2023-03-20T12:14:49Z</time>
      </trkpt>
      <trkpt lat="44.44287" lon="5.55713">
        <ele>853</ele>
        <time>2023-03-20T12:14:50Z</time>
      </trkpt>
      <trkpt lat="44.44285" lon="5.55712">
        <ele>853.1</ele>
        <time>2023-03-20T12:14:51Z</time>
      </trkpt>
      <trkpt lat="44.44282" lon="5.55712">
        <ele>853.2</ele>
        <time>2023-03-20T12:14:52Z</time>
      </trkpt>
      <trkpt lat="44.44279" lon="5.55712">
        <ele>853.3</ele>
        <time>2023-03-20T12:14:53Z</time>
      </trkpt>
      <trkpt lat="44.44277" lon="5.55711">
        <ele>853.5</ele>
        <time>2023-03-20T12:14:54Z</time>
      </trkpt>
      <trkpt lat="44.44273" lon="5.55711">
        <ele>853.6</ele>
        <time>2023-03-20T12:14:55Z</time>
      </trkpt>
      <trkpt lat="44.44271" lon="5.55711">
        <ele>853.7</ele>
        <time>2023-03-20T12:14:56Z</time>
      </trkpt>
      <trkpt lat="44.44268" lon="5.55711">
        <ele>853.8</ele>
        <time>2023-03-20T12:14:57Z</time>
      </trkpt>
      <trkpt lat="44.44265" lon="5.55711">
        <ele>854</ele>
        <time>2023-03-20T12:14:58Z</time>
      </trkpt>
      <trkpt lat="44.44262" lon="5.55711">
        <ele>854.2</ele>
        <time>2023-03-20T12:14:59Z</time>
      </trkpt>
      <trkpt lat="44.44258" lon="5.55711">
        <ele>854.3</ele>
        <time>2023-03-20T12:15:00Z</time>
      </trkpt>
      <trkpt lat="44.44255" lon="5.55711">
        <ele>854.5</ele>
        <time>2023-03-20T12:15:01Z</time>
      </trkpt>
      <trkpt lat="44.44252" lon="5.55711">
        <ele>854.7</ele>
        <time>2023-03-20T12:15:02Z</time>
      </trkpt>
      <trkpt lat="44.44249" lon="5.55711">
        <ele>854.8</ele>
        <time>2023-03-20T12:15:03Z</time>
      </trkpt>
      <trkpt lat="44.44247" lon="5.55712">
        <ele>855</ele>
        <time>2023-03-20T12:15:04Z</time>
      </trkpt>
      <trkpt lat="44.44244" lon="5.55713">
        <ele>855.2</ele>
        <time>2023-03-20T12:15:05Z</time>
      </trkpt>
      <trkpt lat="44.44241" lon="5.55716">
        <ele>855.4</ele>
        <time>2023-03-20T12:15:06Z</time>
      </trkpt>
      <trkpt lat="44.44238" lon="5.55718">
        <ele>855.6</ele>
        <time>2023-03-20T12:15:07Z</time>
      </trkpt>
      <trkpt lat="44.44236" lon="5.55719">
        <ele>855.7</ele>
        <time>2023-03-20T12:15:08Z</time>
      </trkpt>
      <trkpt lat="44.44234" lon="5.55721">
        <ele>855.9</ele>
        <time>2023-03-20T12:15:09Z</time>
      </trkpt>
      <trkpt lat="44.44231" lon="5.55723">
        <ele>856.1</ele>
        <time>2023-03-20T12:15:10Z</time>
      </trkpt>
      <trkpt lat="44.4423" lon="5.55723">
        <ele>856.2</ele>
        <time>2023-03-20T12:15:11Z</time>
      </trkpt>
      <trkpt lat="44.44226" lon="5.55725">
        <ele>856.4</ele>
        <time>2023-03-20T12:15:12Z</time>
      </trkpt>
      <trkpt lat="44.44225" lon="5.55726">
        <ele>856.5</ele>
        <time>2023-03-20T12:15:13Z</time>
      </trkpt>
      <trkpt lat="44.44222" lon="5.5573">
        <ele>856.7</ele>
        <time>2023-03-20T12:15:14Z</time>
      </trkpt>
      <trkpt lat="44.44221" lon="5.55731">
        <ele>856.8</ele>
        <time>2023-03-20T12:15:15Z</time>
      </trkpt>
      <trkpt lat="44.44218" lon="5.55733">
        <ele>857</ele>
        <time>2023-03-20T12:15:16Z</time>
      </trkpt>
      <trkpt lat="44.44215" lon="5.55735">
        <ele>857.1</ele>
        <time>2023-03-20T12:15:17Z</time>
      </trkpt>
      <trkpt lat="44.44213" lon="5.55737">
        <ele>857.3</ele>
        <time>2023-03-20T12:15:18Z</time>
      </trkpt>
      <trkpt lat="44.4421" lon="5.55739">
        <ele>857.5</ele>
        <time>2023-03-20T12:15:19Z</time>
      </trkpt>
      <trkpt lat="44.44207" lon="5.55741">
        <ele>857.6</ele>
        <time>2023-03-20T12:15:20Z</time>
      </trkpt>
      <trkpt lat="44.44204" lon="5.55742">
        <ele>857.8</ele>
        <time>2023-03-20T12:15:21Z</time>
      </trkpt>
      <trkpt lat="44.44201" lon="5.55743">
        <ele>858</ele>
        <time>2023-03-20T12:15:22Z</time>
      </trkpt>
      <trkpt lat="44.44197" lon="5.55744">
        <ele>858.2</ele>
        <time>2023-03-20T12:15:23Z</time>
      </trkpt>
      <trkpt lat="44.44194" lon="5.55745">
        <ele>858.4</ele>
        <time>2023-03-20T12:15:24Z</time>
      </trkpt>
      <trkpt lat="44.4419" lon="5.55746">
        <ele>858.5</ele>
        <time>2023-03-20T12:15:25Z</time>
      </trkpt>
      <trkpt lat="44.44186" lon="5.55746">
        <ele>858.7</ele>
        <time>2023-03-20T12:15:26Z</time>
      </trkpt>
      <trkpt lat="44.44182" lon="5.55746">
        <ele>858.9</ele>
        <time>2023-03-20T12:15:27Z</time>
      </trkpt>
      <trkpt lat="44.44178" lon="5.55747">
        <ele>859.1</ele>
        <time>2023-03-20T12:15:28Z</time>
      </trkpt>
      <trkpt lat="44.44174" lon="5.55747">
        <ele>859.3</ele>
        <time>2023-03-20T12:15:29Z</time>
      </trkpt>
      <trkpt lat="44.44171" lon="5.55748">
        <ele>859.5</ele>
        <time>2023-03-20T12:15:30Z</time>
      </trkpt>
      <trkpt lat="44.44167" lon="5.55749">
        <ele>859.7</ele>
        <time>2023-03-20T12:15:31Z</time>
      </trkpt>
      <trkpt lat="44.44164" lon="5.55751">
        <ele>859.8</ele>
        <time>2023-03-20T12:15:32Z</time>
      </trkpt>
      <trkpt lat="44.4416" lon="5.55752">
        <ele>860</ele>
        <time>2023-03-20T12:15:33Z</time>
      </trkpt>
      <trkpt lat="44.44157" lon="5.55755">
        <ele>860.2</ele>
        <time>2023-03-20T12:15:34Z</time>
      </trkpt>
      <trkpt lat="44.44154" lon="5.55758">
        <ele>860.3</ele>
        <time>2023-03-20T12:15:35Z</time>
      </trkpt>
      <trkpt lat="44.44151" lon="5.55761">
        <ele>860.5</ele>
        <time>2023-03-20T12:15:36Z</time>
      </trkpt>
      <trkpt lat="44.44149" lon="5.55765">
        <ele>860.6</ele>
        <time>2023-03-20T12:15:37Z</time>
      </trkpt>
      <trkpt lat="44.44146" lon="5.55768">
        <ele>860.8</ele>
        <time>2023-03-20T12:15:38Z</time>
      </trkpt>
      <trkpt lat="44.44144" lon="5.55771">
        <ele>860.9</ele>
        <time>2023-03-20T12:15:39Z</time>
      </trkpt>
      <trkpt lat="44.44142" lon="5.55774">
        <ele>861.1</ele>
        <time>2023-03-20T12:15:40Z</time>
      </trkpt>
      <trkpt lat="44.44139" lon="5.55776">
        <ele>861.2</ele>
        <time>2023-03-20T12:15:41Z</time>
      </trkpt>
      <trkpt lat="44.44137" lon="5.55778">
        <ele>861.4</ele>
        <time>2023-03-20T12:15:42Z</time>
      </trkpt>
      <trkpt lat="44.44135" lon="5.55781">
        <ele>861.6</ele>
        <time>2023-03-20T12:15:43Z</time>
      </trkpt>
      <trkpt lat="44.44132" lon="5.55784">
        <ele>861.8</ele>
        <time>2023-03-20T12:15:44Z</time>
      </trkpt>
      <trkpt lat="44.4413" lon="5.55786">
        <ele>861.9</ele>
        <time>2023-03-20T12:15:45Z</time>
      </trkpt>
      <trkpt lat="44.44128" lon="5.55789">
        <ele>862.2</ele>
        <time>2023-03-20T12:15:46Z</time>
      </trkpt>
      <trkpt lat="44.44124" lon="5.55791">
        <ele>862.4</ele>
        <time>2023-03-20T12:15:47Z</time>
      </trkpt>
      <trkpt lat="44.44123" lon="5.55792">
        <ele>862.5</ele>
        <time>2023-03-20T12:15:48Z</time>
      </trkpt>
      <trkpt lat="44.44121" lon="5.55794">
        <ele>862.7</ele>
        <time>2023-03-20T12:15:49Z</time>
      </trkpt>
      <trkpt lat="44.44118" lon="5.55796">
        <ele>862.9</ele>
        <time>2023-03-20T12:15:50Z</time>
      </trkpt>
      <trkpt lat="44.44115" lon="5.55798">
        <ele>863.1</ele>
        <time>2023-03-20T12:15:51Z</time>
      </trkpt>
      <trkpt lat="44.44113" lon="5.558">
        <ele>863.3</ele>
        <time>2023-03-20T12:15:52Z</time>
      </trkpt>
      <trkpt lat="44.4411" lon="5.55802">
        <ele>863.4</ele>
        <time>2023-03-20T12:15:53Z</time>
      </trkpt>
      <trkpt lat="44.44107" lon="5.55804">
        <ele>863.6</ele>
        <time>2023-03-20T12:15:54Z</time>
      </trkpt>
      <trkpt lat="44.44104" lon="5.55806">
        <ele>863.8</ele>
        <time>2023-03-20T12:15:55Z</time>
      </trkpt>
      <trkpt lat="44.44101" lon="5.55807">
        <ele>863.9</ele>
        <time>2023-03-20T12:15:56Z</time>
      </trkpt>
      <trkpt lat="44.44097" lon="5.55808">
        <ele>864.1</ele>
        <time>2023-03-20T12:15:57Z</time>
      </trkpt>
      <trkpt lat="44.44094" lon="5.55808">
        <ele>864.3</ele>
        <time>2023-03-20T12:15:58Z</time>
      </trkpt>
      <trkpt lat="44.44091" lon="5.55809">
        <ele>864.4</ele>
        <time>2023-03-20T12:15:59Z</time>
      </trkpt>
      <trkpt lat="44.44087" lon="5.5581">
        <ele>864.6</ele>
        <time>2023-03-20T12:16:00Z</time>
      </trkpt>
      <trkpt lat="44.44084" lon="5.55812">
        <ele>864.7</ele>
        <time>2023-03-20T12:16:01Z</time>
      </trkpt>
      <trkpt lat="44.44082" lon="5.55814">
        <ele>864.8</ele>
        <time>2023-03-20T12:16:02Z</time>
      </trkpt>
      <trkpt lat="44.44079" lon="5.55815">
        <ele>864.9</ele>
        <time>2023-03-20T12:16:03Z</time>
      </trkpt>
      <trkpt lat="44.44076" lon="5.55817">
        <ele>865</ele>
        <time>2023-03-20T12:16:04Z</time>
      </trkpt>
      <trkpt lat="44.44072" lon="5.55818">
        <ele>865.2</ele>
        <time>2023-03-20T12:16:05Z</time>
      </trkpt>
      <trkpt lat="44.44068" lon="5.55819">
        <ele>865.3</ele>
        <time>2023-03-20T12:16:06Z</time>
      </trkpt>
      <trkpt lat="44.44065" lon="5.55821">
        <ele>865.4</ele>
        <time>2023-03-20T12:16:07Z</time>
      </trkpt>
      <trkpt lat="44.44062" lon="5.55822">
        <ele>865.5</ele>
        <time>2023-03-20T12:16:08Z</time>
      </trkpt>
      <trkpt lat="44.4406" lon="5.55824">
        <ele>865.6</ele>
        <time>2023-03-20T12:16:09Z</time>
      </trkpt>
      <trkpt lat="44.44058" lon="5.55827">
        <ele>865.8</ele>
        <time>2023-03-20T12:16:10Z</time>
      </trkpt>
      <trkpt lat="44.44056" lon="5.55831">
        <ele>865.9</ele>
        <time>2023-03-20T12:16:11Z</time>
      </trkpt>
      <trkpt lat="44.44056" lon="5.55836">
        <ele>866</ele>
        <time>2023-03-20T12:16:12Z</time>
      </trkpt>
      <trkpt lat="44.44058" lon="5.5584">
        <ele>866.1</ele>
        <time>2023-03-20T12:16:13Z</time>
      </trkpt>
      <trkpt lat="44.44061" lon="5.55842">
        <ele>866.2</ele>
        <time>2023-03-20T12:16:14Z</time>
      </trkpt>
      <trkpt lat="44.44062" lon="5.55842">
        <ele>866.3</ele>
        <time>2023-03-20T12:16:15Z</time>
      </trkpt>
      <trkpt lat="44.44064" lon="5.55842">
        <ele>866.3</ele>
        <time>2023-03-20T12:16:16Z</time>
      </trkpt>
      <trkpt lat="44.44064" lon="5.55842">
        <ele>866.4</ele>
        <time>2023-03-20T12:16:17Z</time>
      </trkpt>
      <trkpt lat="44.44064" lon="5.55842">
        <ele>866.4</ele>
        <time>2023-03-20T12:16:18Z</time>
      </trkpt>
      <trkpt lat="44.44065" lon="5.55841">
        <ele>866.4</ele>
        <time>2023-03-20T12:16:19Z</time>
      </trkpt>
      <trkpt lat="44.44064" lon="5.55842">
        <ele>866.4</ele>
        <time>2023-03-20T12:16:20Z</time>
      </trkpt>
      <trkpt lat="44.44063" lon="5.55843">
        <ele>866.4</ele>
        <time>2023-03-20T12:16:21Z</time>
      </trkpt>
      <trkpt lat="44.44063" lon="5.55843">
        <ele>866.5</ele>
        <time>2023-03-20T12:16:22Z</time>
      </trkpt>
      <trkpt lat="44.44063" lon="5.55843">
        <ele>866.5</ele>
        <time>2023-03-20T12:16:23Z</time>
      </trkpt>
      <trkpt lat="44.44063" lon="5.55843">
        <ele>866.5</ele>
        <time>2023-03-20T12:16:24Z</time>
      </trkpt>
      <trkpt lat="44.44063" lon="5.55844">
        <ele>866.5</ele>
        <time>2023-03-20T12:16:25Z</time>
      </trkpt>
      <trkpt lat="44.44062" lon="5.55845">
        <ele>866.5</ele>
        <time>2023-03-20T12:16:26Z</time>
      </trkpt>
      <trkpt lat="44.44062" lon="5.55845">
        <ele>866.5</ele>
        <time>2023-03-20T12:16:27Z</time>
      </trkpt>
      <trkpt lat="44.44062" lon="5.55846">
        <ele>866.6</ele>
        <time>2023-03-20T12:16:28Z</time>
      </trkpt>
      <trkpt lat="44.44061" lon="5.55846">
        <ele>866.6</ele>
        <time>2023-03-20T12:16:29Z</time>
      </trkpt>
      <trkpt lat="44.44061" lon="5.55846">
        <ele>866.6</ele>
        <time>2023-03-20T12:16:30Z</time>
      </trkpt>
      <trkpt lat="44.44061" lon="5.55846">
        <ele>866.6</ele>
        <time>2023-03-20T12:16:31Z</time>
      </trkpt>
      <trkpt lat="44.44062" lon="5.55847">
        <ele>866.6</ele>
        <time>2023-03-20T12:16:32Z</time>
      </trkpt>
      <trkpt lat="44.44062" lon="5.55847">
        <ele>866.6</ele>
        <time>2023-03-20T12:16:33Z</time>
      </trkpt>
      <trkpt lat="44.44062" lon="5.55847">
        <ele>866.6</ele>
        <time>2023-03-20T12:16:34Z</time>
      </trkpt>
      <trkpt lat="44.44062" lon="5.55848">
        <ele>866.6</ele>
        <time>2023-03-20T12:16:35Z</time>
      </trkpt>
      <trkpt lat="44.44062" lon="5.55848">
        <ele>866.6</ele>
        <time>2023-03-20T12:16:36Z</time>
      </trkpt>
      <trkpt lat="44.44062" lon="5.55848">
        <ele>866.6</ele>
        <time>2023-03-20T12:16:37Z</time>
      </trkpt>
      <trkpt lat="44.44062" lon="5.55848">
        <ele>866.6</ele>
        <time>2023-03-20T12:16:38Z</time>
      </trkpt>
      <trkpt lat="44.44062" lon="5.55848">
        <ele>866.6</ele>
        <time>2023-03-20T12:16:39Z</time>
      </trkpt>
      <trkpt lat="44.44061" lon="5.55847">
        <ele>866.7</ele>
        <time>2023-03-20T12:16:40Z</time>
      </trkpt>
      <trkpt lat="44.4406" lon="5.55847">
        <ele>866.7</ele>
        <time>2023-03-20T12:16:41Z</time>
      </trkpt>
      <trkpt lat="44.44059" lon="5.55847">
        <ele>866.7</ele>
        <time>2023-03-20T12:16:42Z</time>
      </trkpt>
      <trkpt lat="44.44059" lon="5.55848">
        <ele>866.7</ele>
        <time>2023-03-20T12:16:43Z</time>
      </trkpt>
      <trkpt lat="44.44059" lon="5.55848">
        <ele>866.7</ele>
        <time>2023-03-20T12:16:44Z</time>
      </trkpt>
      <trkpt lat="44.44059" lon="5.55849">
        <ele>866.7</ele>
        <time>2023-03-20T12:16:45Z</time>
      </trkpt>
      <trkpt lat="44.44059" lon="5.55849">
        <ele>866.8</ele>
        <time>2023-03-20T12:16:46Z</time>
      </trkpt>
      <trkpt lat="44.44059" lon="5.55849">
        <ele>866.8</ele>
        <time>2023-03-20T12:16:47Z</time>
      </trkpt>
      <trkpt lat="44.4406" lon="5.55849">
        <ele>866.8</ele>
        <time>2023-03-20T12:16:48Z</time>
      </trkpt>
      <trkpt lat="44.4406" lon="5.55849">
        <ele>866.8</ele>
        <time>2023-03-20T12:16:49Z</time>
      </trkpt>
      <trkpt lat="44.4406" lon="5.55849">
        <ele>866.8</ele>
        <time>2023-03-20T12:16:50Z</time>
      </trkpt>
      <trkpt lat="44.4406" lon="5.55848">
        <ele>866.8</ele>
        <time>2023-03-20T12:16:51Z</time>
      </trkpt>
      <trkpt lat="44.4406" lon="5.55848">
        <ele>866.8</ele>
        <time>2023-03-20T12:16:52Z</time>
      </trkpt>
      <trkpt lat="44.4406" lon="5.55849">
        <ele>866.8</ele>
        <time>2023-03-20T12:16:53Z</time>
      </trkpt>
      <trkpt lat="44.44064" lon="5.55848">
        <ele>866.9</ele>
        <time>2023-03-20T12:16:59Z</time>
      </trkpt>
      <trkpt lat="44.44067" lon="5.55847">
        <ele>867</ele>
        <time>2023-03-20T12:17:00Z</time>
      </trkpt>
      <trkpt lat="44.4407" lon="5.55846">
        <ele>867.2</ele>
        <time>2023-03-20T12:17:01Z</time>
      </trkpt>
      <trkpt lat="44.44074" lon="5.55844">
        <ele>867.3</ele>
        <time>2023-03-20T12:17:02Z</time>
      </trkpt>
      <trkpt lat="44.44077" lon="5.55842">
        <ele>867.4</ele>
        <time>2023-03-20T12:17:03Z</time>
      </trkpt>
      <trkpt lat="44.4408" lon="5.5584">
        <ele>867.5</ele>
        <time>2023-03-20T12:17:04Z</time>
      </trkpt>
      <trkpt lat="44.44083" lon="5.55838">
        <ele>867.6</ele>
        <time>2023-03-20T12:17:05Z</time>
      </trkpt>
      <trkpt lat="44.44086" lon="5.55837">
        <ele>867.8</ele>
        <time>2023-03-20T12:17:06Z</time>
      </trkpt>
      <trkpt lat="44.44089" lon="5.55835">
        <ele>867.9</ele>
        <time>2023-03-20T12:17:07Z</time>
      </trkpt>
      <trkpt lat="44.44093" lon="5.55834">
        <ele>868</ele>
        <time>2023-03-20T12:17:08Z</time>
      </trkpt>
      <trkpt lat="44.44096" lon="5.55833">
        <ele>868.2</ele>
        <time>2023-03-20T12:17:09Z</time>
      </trkpt>
      <trkpt lat="44.441" lon="5.55831">
        <ele>868.3</ele>
        <time>2023-03-20T12:17:10Z</time>
      </trkpt>
      <trkpt lat="44.44103" lon="5.55829">
        <ele>868.4</ele>
        <time>2023-03-20T12:17:11Z</time>
      </trkpt>
      <trkpt lat="44.44106" lon="5.55826">
        <ele>868.5</ele>
        <time>2023-03-20T12:17:12Z</time>
      </trkpt>
      <trkpt lat="44.44109" lon="5.55824">
        <ele>868.7</ele>
        <time>2023-03-20T12:17:13Z</time>
      </trkpt>
      <trkpt lat="44.44112" lon="5.55822">
        <ele>868.8</ele>
        <time>2023-03-20T12:17:14Z</time>
      </trkpt>
      <trkpt lat="44.44115" lon="5.55822">
        <ele>868.9</ele>
        <time>2023-03-20T12:17:15Z</time>
      </trkpt>
      <trkpt lat="44.44119" lon="5.55821">
        <ele>869</ele>
        <time>2023-03-20T12:17:16Z</time>
      </trkpt>
      <trkpt lat="44.44123" lon="5.55821">
        <ele>869.2</ele>
        <time>2023-03-20T12:17:17Z</time>
      </trkpt>
      <trkpt lat="44.44128" lon="5.55821">
        <ele>869.4</ele>
        <time>2023-03-20T12:17:18Z</time>
      </trkpt>
      <trkpt lat="44.44133" lon="5.55822">
        <ele>869.5</ele>
        <time>2023-03-20T12:17:19Z</time>
      </trkpt>
      <trkpt lat="44.44138" lon="5.55823">
        <ele>869.7</ele>
        <time>2023-03-20T12:17:20Z</time>
      </trkpt>
      <trkpt lat="44.44142" lon="5.55825">
        <ele>869.9</ele>
        <time>2023-03-20T12:17:21Z</time>
      </trkpt>
      <trkpt lat="44.44146" lon="5.55827">
        <ele>870</ele>
        <time>2023-03-20T12:17:22Z</time>
      </trkpt>
      <trkpt lat="44.4415" lon="5.55828">
        <ele>870.2</ele>
        <time>2023-03-20T12:17:23Z</time>
      </trkpt>
      <trkpt lat="44.44154" lon="5.55829">
        <ele>870.3</ele>
        <time>2023-03-20T12:17:24Z</time>
      </trkpt>
      <trkpt lat="44.44157" lon="5.5583">
        <ele>870.5</ele>
        <time>2023-03-20T12:17:25Z</time>
      </trkpt>
      <trkpt lat="44.44162" lon="5.55829">
        <ele>870.6</ele>
        <time>2023-03-20T12:17:26Z</time>
      </trkpt>
      <trkpt lat="44.44167" lon="5.55829">
        <ele>870.8</ele>
        <time>2023-03-20T12:17:27Z</time>
      </trkpt>
      <trkpt lat="44.44171" lon="5.55828">
        <ele>870.9</ele>
        <time>2023-03-20T12:17:28Z</time>
      </trkpt>
      <trkpt lat="44.44175" lon="5.55827">
        <ele>871.1</ele>
        <time>2023-03-20T12:17:29Z</time>
      </trkpt>
      <trkpt lat="44.44178" lon="5.55826">
        <ele>871.2</ele>
        <time>2023-03-20T12:17:30Z</time>
      </trkpt>
      <trkpt lat="44.44181" lon="5.55826">
        <ele>871.3</ele>
        <time>2023-03-20T12:17:31Z</time>
      </trkpt>
      <trkpt lat="44.44185" lon="5.55825">
        <ele>871.4</ele>
        <time>2023-03-20T12:17:32Z</time>
      </trkpt>
      <trkpt lat="44.44188" lon="5.55825">
        <ele>871.6</ele>
        <time>2023-03-20T12:17:33Z</time>
      </trkpt>
      <trkpt lat="44.44192" lon="5.55824">
        <ele>871.7</ele>
        <time>2023-03-20T12:17:34Z</time>
      </trkpt>
      <trkpt lat="44.44196" lon="5.55823">
        <ele>871.8</ele>
        <time>2023-03-20T12:17:35Z</time>
      </trkpt>
      <trkpt lat="44.442" lon="5.55821">
        <ele>872</ele>
        <time>2023-03-20T12:17:36Z</time>
      </trkpt>
      <trkpt lat="44.44204" lon="5.5582">
        <ele>872.2</ele>
        <time>2023-03-20T12:17:37Z</time>
      </trkpt>
      <trkpt lat="44.44208" lon="5.55819">
        <ele>872.3</ele>
        <time>2023-03-20T12:17:38Z</time>
      </trkpt>
      <trkpt lat="44.44212" lon="5.55817">
        <ele>872.5</ele>
        <time>2023-03-20T12:17:39Z</time>
      </trkpt>
      <trkpt lat="44.44217" lon="5.55816">
        <ele>872.6</ele>
        <time>2023-03-20T12:17:40Z</time>
      </trkpt>
      <trkpt lat="44.44221" lon="5.55815">
        <ele>872.8</ele>
        <time>2023-03-20T12:17:41Z</time>
      </trkpt>
      <trkpt lat="44.44225" lon="5.55813">
        <ele>872.9</ele>
        <time>2023-03-20T12:17:42Z</time>
      </trkpt>
      <trkpt lat="44.44228" lon="5.55812">
        <ele>873</ele>
        <time>2023-03-20T12:17:43Z</time>
      </trkpt>
      <trkpt lat="44.44231" lon="5.55809">
        <ele>873.2</ele>
        <time>2023-03-20T12:17:44Z</time>
      </trkpt>
      <trkpt lat="44.44234" lon="5.55805">
        <ele>873.3</ele>
        <time>2023-03-20T12:17:45Z</time>
      </trkpt>
      <trkpt lat="44.44237" lon="5.558">
        <ele>873.5</ele>
        <time>2023-03-20T12:17:46Z</time>
      </trkpt>
      <trkpt lat="44.4424" lon="5.55795">
        <ele>873.7</ele>
        <time>2023-03-20T12:17:47Z</time>
      </trkpt>
      <trkpt lat="44.44242" lon="5.5579">
        <ele>873.8</ele>
        <time>2023-03-20T12:17:48Z</time>
      </trkpt>
      <trkpt lat="44.44245" lon="5.55786">
        <ele>874</ele>
        <time>2023-03-20T12:17:49Z</time>
      </trkpt>
      <trkpt lat="44.4425" lon="5.55783">
        <ele>874.2</ele>
        <time>2023-03-20T12:17:50Z</time>
      </trkpt>
      <trkpt lat="44.44255" lon="5.55783">
        <ele>874.3</ele>
        <time>2023-03-20T12:17:51Z</time>
      </trkpt>
      <trkpt lat="44.44258" lon="5.55784">
        <ele>874.4</ele>
        <time>2023-03-20T12:17:52Z</time>
      </trkpt>
      <trkpt lat="44.44261" lon="5.55788">
        <ele>874.6</ele>
        <time>2023-03-20T12:17:53Z</time>
      </trkpt>
      <trkpt lat="44.44265" lon="5.55794">
        <ele>874.8</ele>
        <time>2023-03-20T12:17:54Z</time>
      </trkpt>
      <trkpt lat="44.44264" lon="5.55798">
        <ele>874.9</ele>
        <time>2023-03-20T12:17:55Z</time>
      </trkpt>
      <trkpt lat="44.44263" lon="5.55802">
        <ele>875</ele>
        <time>2023-03-20T12:17:56Z</time>
      </trkpt>
      <trkpt lat="44.4426" lon="5.55805">
        <ele>875.1</ele>
        <time>2023-03-20T12:17:57Z</time>
      </trkpt>
      <trkpt lat="44.44258" lon="5.55807">
        <ele>875.2</ele>
        <time>2023-03-20T12:17:58Z</time>
      </trkpt>
      <trkpt lat="44.44255" lon="5.55809">
        <ele>875.3</ele>
        <time>2023-03-20T12:17:59Z</time>
      </trkpt>
      <trkpt lat="44.44252" lon="5.55811">
        <ele>875.5</ele>
        <time>2023-03-20T12:18:00Z</time>
      </trkpt>
      <trkpt lat="44.4425" lon="5.55814">
        <ele>875.6</ele>
        <time>2023-03-20T12:18:01Z</time>
      </trkpt>
      <trkpt lat="44.44247" lon="5.55816">
        <ele>875.7</ele>
        <time>2023-03-20T12:18:02Z</time>
      </trkpt>
      <trkpt lat="44.44243" lon="5.55817">
        <ele>875.8</ele>
        <time>2023-03-20T12:18:03Z</time>
      </trkpt>
      <trkpt lat="44.4424" lon="5.55819">
        <ele>875.9</ele>
        <time>2023-03-20T12:18:04Z</time>
      </trkpt>
      <trkpt lat="44.44237" lon="5.5582">
        <ele>876.1</ele>
        <time>2023-03-20T12:18:05Z</time>
      </trkpt>
      <trkpt lat="44.44233" lon="5.55823">
        <ele>876.2</ele>
        <time>2023-03-20T12:18:06Z</time>
      </trkpt>
      <trkpt lat="44.4423" lon="5.55826">
        <ele>876.4</ele>
        <time>2023-03-20T12:18:07Z</time>
      </trkpt>
      <trkpt lat="44.44226" lon="5.55829">
        <ele>876.5</ele>
        <time>2023-03-20T12:18:08Z</time>
      </trkpt>
      <trkpt lat="44.44223" lon="5.55832">
        <ele>876.6</ele>
        <time>2023-03-20T12:18:09Z</time>
      </trkpt>
      <trkpt lat="44.4422" lon="5.55835">
        <ele>876.8</ele>
        <time>2023-03-20T12:18:10Z</time>
      </trkpt>
      <trkpt lat="44.44217" lon="5.55837">
        <ele>876.9</ele>
        <time>2023-03-20T12:18:11Z</time>
      </trkpt>
      <trkpt lat="44.44213" lon="5.55839">
        <ele>877</ele>
        <time>2023-03-20T12:18:12Z</time>
      </trkpt>
      <trkpt lat="44.4421" lon="5.55841">
        <ele>877.2</ele>
        <time>2023-03-20T12:18:13Z</time>
      </trkpt>
      <trkpt lat="44.44207" lon="5.55844">
        <ele>877.3</ele>
        <time>2023-03-20T12:18:14Z</time>
      </trkpt>
      <trkpt lat="44.44203" lon="5.55846">
        <ele>877.5</ele>
        <time>2023-03-20T12:18:15Z</time>
      </trkpt>
      <trkpt lat="44.44199" lon="5.55849">
        <ele>877.6</ele>
        <time>2023-03-20T12:18:16Z</time>
      </trkpt>
      <trkpt lat="44.44194" lon="5.55852">
        <ele>877.8</ele>
        <time>2023-03-20T12:18:17Z</time>
      </trkpt>
      <trkpt lat="44.4419" lon="5.55854">
        <ele>878</ele>
        <time>2023-03-20T12:18:18Z</time>
      </trkpt>
      <trkpt lat="44.44185" lon="5.55857">
        <ele>878.2</ele>
        <time>2023-03-20T12:18:19Z</time>
      </trkpt>
      <trkpt lat="44.44181" lon="5.55861">
        <ele>878.4</ele>
        <time>2023-03-20T12:18:20Z</time>
      </trkpt>
      <trkpt lat="44.44176" lon="5.55864">
        <ele>878.5</ele>
        <time>2023-03-20T12:18:21Z</time>
      </trkpt>
      <trkpt lat="44.44172" lon="5.55867">
        <ele>878.7</ele>
        <time>2023-03-20T12:18:22Z</time>
      </trkpt>
      <trkpt lat="44.44168" lon="5.5587">
        <ele>878.9</ele>
        <time>2023-03-20T12:18:23Z</time>
      </trkpt>
      <trkpt lat="44.44163" lon="5.55873">
        <ele>879.1</ele>
        <time>2023-03-20T12:18:24Z</time>
      </trkpt>
      <trkpt lat="44.44159" lon="5.55875">
        <ele>879.2</ele>
        <time>2023-03-20T12:18:25Z</time>
      </trkpt>
      <trkpt lat="44.44154" lon="5.55877">
        <ele>879.4</ele>
        <time>2023-03-20T12:18:26Z</time>
      </trkpt>
      <trkpt lat="44.4415" lon="5.55879">
        <ele>879.6</ele>
        <time>2023-03-20T12:18:27Z</time>
      </trkpt>
      <trkpt lat="44.44146" lon="5.55879">
        <ele>879.7</ele>
        <time>2023-03-20T12:18:28Z</time>
      </trkpt>
      <trkpt lat="44.44141" lon="5.5588">
        <ele>879.9</ele>
        <time>2023-03-20T12:18:29Z</time>
      </trkpt>
      <trkpt lat="44.44137" lon="5.5588">
        <ele>880</ele>
        <time>2023-03-20T12:18:30Z</time>
      </trkpt>
      <trkpt lat="44.44134" lon="5.5588">
        <ele>880.1</ele>
        <time>2023-03-20T12:18:31Z</time>
      </trkpt>
      <trkpt lat="44.44129" lon="5.5588">
        <ele>880.3</ele>
        <time>2023-03-20T12:18:32Z</time>
      </trkpt>
      <trkpt lat="44.44126" lon="5.55879">
        <ele>880.4</ele>
        <time>2023-03-20T12:18:33Z</time>
      </trkpt>
      <trkpt lat="44.44121" lon="5.55879">
        <ele>880.6</ele>
        <time>2023-03-20T12:18:34Z</time>
      </trkpt>
      <trkpt lat="44.44116" lon="5.5588">
        <ele>880.8</ele>
        <time>2023-03-20T12:18:35Z</time>
      </trkpt>
      <trkpt lat="44.44111" lon="5.5588">
        <ele>881</ele>
        <time>2023-03-20T12:18:36Z</time>
      </trkpt>
      <trkpt lat="44.44106" lon="5.55881">
        <ele>881.1</ele>
        <time>2023-03-20T12:18:37Z</time>
      </trkpt>
      <trkpt lat="44.44102" lon="5.55883">
        <ele>881.3</ele>
        <time>2023-03-20T12:18:38Z</time>
      </trkpt>
      <trkpt lat="44.44099" lon="5.55885">
        <ele>881.4</ele>
        <time>2023-03-20T12:18:39Z</time>
      </trkpt>
      <trkpt lat="44.44095" lon="5.55887">
        <ele>881.6</ele>
        <time>2023-03-20T12:18:40Z</time>
      </trkpt>
      <trkpt lat="44.44092" lon="5.55889">
        <ele>881.7</ele>
        <time>2023-03-20T12:18:41Z</time>
      </trkpt>
      <trkpt lat="44.4409" lon="5.55892">
        <ele>881.8</ele>
        <time>2023-03-20T12:18:42Z</time>
      </trkpt>
      <trkpt lat="44.44087" lon="5.55897">
        <ele>882</ele>
        <time>2023-03-20T12:18:43Z</time>
      </trkpt>
      <trkpt lat="44.44085" lon="5.55901">
        <ele>882.1</ele>
        <time>2023-03-20T12:18:44Z</time>
      </trkpt>
      <trkpt lat="44.44084" lon="5.55907">
        <ele>882.2</ele>
        <time>2023-03-20T12:18:45Z</time>
      </trkpt>
      <trkpt lat="44.44083" lon="5.55912">
        <ele>882.4</ele>
        <time>2023-03-20T12:18:46Z</time>
      </trkpt>
      <trkpt lat="44.44083" lon="5.55917">
        <ele>882.5</ele>
        <time>2023-03-20T12:18:47Z</time>
      </trkpt>
      <trkpt lat="44.44082" lon="5.55922">
        <ele>882.6</ele>
        <time>2023-03-20T12:18:48Z</time>
      </trkpt>
      <trkpt lat="44.44082" lon="5.55928">
        <ele>882.8</ele>
        <time>2023-03-20T12:18:49Z</time>
      </trkpt>
      <trkpt lat="44.44083" lon="5.55933">
        <ele>882.9</ele>
        <time>2023-03-20T12:18:50Z</time>
      </trkpt>
      <trkpt lat="44.44083" lon="5.55939">
        <ele>883.1</ele>
        <time>2023-03-20T12:18:51Z</time>
      </trkpt>
      <trkpt lat="44.44083" lon="5.55945">
        <ele>883.2</ele>
        <time>2023-03-20T12:18:52Z</time>
      </trkpt>
      <trkpt lat="44.44084" lon="5.55951">
        <ele>883.4</ele>
        <time>2023-03-20T12:18:53Z</time>
      </trkpt>
      <trkpt lat="44.44084" lon="5.55956">
        <ele>883.5</ele>
        <time>2023-03-20T12:18:54Z</time>
      </trkpt>
      <trkpt lat="44.44084" lon="5.55962">
        <ele>883.7</ele>
        <time>2023-03-20T12:18:55Z</time>
      </trkpt>
      <trkpt lat="44.44084" lon="5.55967">
        <ele>883.8</ele>
        <time>2023-03-20T12:18:56Z</time>
      </trkpt>
      <trkpt lat="44.44084" lon="5.55972">
        <ele>883.9</ele>
        <time>2023-03-20T12:18:57Z</time>
      </trkpt>
      <trkpt lat="44.44084" lon="5.55977">
        <ele>884.1</ele>
        <time>2023-03-20T12:18:58Z</time>
      </trkpt>
      <trkpt lat="44.44084" lon="5.55982">
        <ele>884.2</ele>
        <time>2023-03-20T12:18:59Z</time>
      </trkpt>
      <trkpt lat="44.44084" lon="5.55987">
        <ele>884.3</ele>
        <time>2023-03-20T12:19:00Z</time>
      </trkpt>
      <trkpt lat="44.44084" lon="5.55993">
        <ele>884.5</ele>
        <time>2023-03-20T12:19:01Z</time>
      </trkpt>
      <trkpt lat="44.44083" lon="5.55998">
        <ele>884.6</ele>
        <time>2023-03-20T12:19:02Z</time>
      </trkpt>
      <trkpt lat="44.44084" lon="5.56004">
        <ele>884.7</ele>
        <time>2023-03-20T12:19:03Z</time>
      </trkpt>
      <trkpt lat="44.44084" lon="5.56008">
        <ele>884.9</ele>
        <time>2023-03-20T12:19:04Z</time>
      </trkpt>
      <trkpt lat="44.44084" lon="5.56014">
        <ele>885</ele>
        <time>2023-03-20T12:19:05Z</time>
      </trkpt>
      <trkpt lat="44.44085" lon="5.5602">
        <ele>885.2</ele>
        <time>2023-03-20T12:19:06Z</time>
      </trkpt>
      <trkpt lat="44.44084" lon="5.56027">
        <ele>885.3</ele>
        <time>2023-03-20T12:19:07Z</time>
      </trkpt>
      <trkpt lat="44.44084" lon="5.56033">
        <ele>885.5</ele>
        <time>2023-03-20T12:19:08Z</time>
      </trkpt>
      <trkpt lat="44.44084" lon="5.5604">
        <ele>885.7</ele>
        <time>2023-03-20T12:19:09Z</time>
      </trkpt>
      <trkpt lat="44.44084" lon="5.56046">
        <ele>885.8</ele>
        <time>2023-03-20T12:19:10Z</time>
      </trkpt>
      <trkpt lat="44.44084" lon="5.56053">
        <ele>886</ele>
        <time>2023-03-20T12:19:11Z</time>
      </trkpt>
      <trkpt lat="44.44084" lon="5.5606">
        <ele>886.2</ele>
        <time>2023-03-20T12:19:12Z</time>
      </trkpt>
      <trkpt lat="44.44084" lon="5.56066">
        <ele>886.3</ele>
        <time>2023-03-20T12:19:13Z</time>
      </trkpt>
      <trkpt lat="44.44084" lon="5.56072">
        <ele>886.5</ele>
        <time>2023-03-20T12:19:14Z</time>
      </trkpt>
      <trkpt lat="44.44085" lon="5.56078">
        <ele>886.7</ele>
        <time>2023-03-20T12:19:15Z</time>
      </trkpt>
      <trkpt lat="44.44086" lon="5.56083">
        <ele>886.8</ele>
        <time>2023-03-20T12:19:16Z</time>
      </trkpt>
      <trkpt lat="44.44087" lon="5.56089">
        <ele>887</ele>
        <time>2023-03-20T12:19:17Z</time>
      </trkpt>
      <trkpt lat="44.44089" lon="5.56095">
        <ele>887.1</ele>
        <time>2023-03-20T12:19:18Z</time>
      </trkpt>
      <trkpt lat="44.4409" lon="5.561">
        <ele>887.3</ele>
        <time>2023-03-20T12:19:19Z</time>
      </trkpt>
      <trkpt lat="44.44091" lon="5.56105">
        <ele>887.4</ele>
        <time>2023-03-20T12:19:20Z</time>
      </trkpt>
      <trkpt lat="44.44092" lon="5.56109">
        <ele>887.5</ele>
        <time>2023-03-20T12:19:21Z</time>
      </trkpt>
      <trkpt lat="44.44092" lon="5.56112">
        <ele>887.6</ele>
        <time>2023-03-20T12:19:22Z</time>
      </trkpt>
      <trkpt lat="44.44092" lon="5.56112">
        <ele>887.6</ele>
        <time>2023-03-20T12:19:23Z</time>
      </trkpt>
      <trkpt lat="44.44092" lon="5.56113">
        <ele>887.6</ele>
        <time>2023-03-20T12:19:24Z</time>
      </trkpt>
      <trkpt lat="44.44092" lon="5.56114">
        <ele>887.6</ele>
        <time>2023-03-20T12:19:25Z</time>
      </trkpt>
      <trkpt lat="44.44092" lon="5.56114">
        <ele>887.6</ele>
        <time>2023-03-20T12:19:26Z</time>
      </trkpt>
      <trkpt lat="44.44092" lon="5.56114">
        <ele>887.6</ele>
        <time>2023-03-20T12:19:27Z</time>
      </trkpt>
      <trkpt lat="44.44092" lon="5.56113">
        <ele>887.6</ele>
        <time>2023-03-20T12:19:28Z</time>
      </trkpt>
      <trkpt lat="44.44092" lon="5.56113">
        <ele>887.6</ele>
        <time>2023-03-20T12:19:29Z</time>
      </trkpt>
      <trkpt lat="44.44092" lon="5.56113">
        <ele>887.7</ele>
        <time>2023-03-20T12:19:30Z</time>
      </trkpt>
      <trkpt lat="44.44091" lon="5.56113">
        <ele>887.7</ele>
        <time>2023-03-20T12:19:31Z</time>
      </trkpt>
      <trkpt lat="44.4409" lon="5.56114">
        <ele>887.7</ele>
        <time>2023-03-20T12:19:32Z</time>
      </trkpt>
      <trkpt lat="44.4409" lon="5.56114">
        <ele>887.7</ele>
        <time>2023-03-20T12:19:33Z</time>
      </trkpt>
      <trkpt lat="44.44089" lon="5.56114">
        <ele>887.8</ele>
        <time>2023-03-20T12:19:34Z</time>
      </trkpt>
      <trkpt lat="44.44089" lon="5.56115">
        <ele>887.8</ele>
        <time>2023-03-20T12:19:35Z</time>
      </trkpt>
      <trkpt lat="44.44089" lon="5.56115">
        <ele>887.8</ele>
        <time>2023-03-20T12:19:36Z</time>
      </trkpt>
      <trkpt lat="44.44089" lon="5.56115">
        <ele>887.8</ele>
        <time>2023-03-20T12:19:37Z</time>
      </trkpt>
      <trkpt lat="44.44088" lon="5.56116">
        <ele>887.8</ele>
        <time>2023-03-20T12:19:38Z</time>
      </trkpt>
      <trkpt lat="44.44088" lon="5.56116">
        <ele>887.8</ele>
        <time>2023-03-20T12:19:39Z</time>
      </trkpt>
      <trkpt lat="44.44088" lon="5.56116">
        <ele>887.8</ele>
        <time>2023-03-20T12:19:40Z</time>
      </trkpt>
      <trkpt lat="44.44088" lon="5.56116">
        <ele>887.8</ele>
        <time>2023-03-20T12:19:41Z</time>
      </trkpt>
      <trkpt lat="44.44088" lon="5.56117">
        <ele>887.8</ele>
        <time>2023-03-20T12:19:42Z</time>
      </trkpt>
      <trkpt lat="44.44088" lon="5.56117">
        <ele>887.8</ele>
        <time>2023-03-20T12:19:43Z</time>
      </trkpt>
      <trkpt lat="44.44087" lon="5.56117">
        <ele>887.9</ele>
        <time>2023-03-20T12:19:44Z</time>
      </trkpt>
      <trkpt lat="44.44087" lon="5.56117">
        <ele>887.9</ele>
        <time>2023-03-20T12:19:45Z</time>
      </trkpt>
      <trkpt lat="44.44087" lon="5.56118">
        <ele>887.9</ele>
        <time>2023-03-20T12:19:46Z</time>
      </trkpt>
      <trkpt lat="44.44087" lon="5.56118">
        <ele>887.9</ele>
        <time>2023-03-20T12:19:47Z</time>
      </trkpt>
      <trkpt lat="44.44087" lon="5.56118">
        <ele>887.9</ele>
        <time>2023-03-20T12:19:48Z</time>
      </trkpt>
      <trkpt lat="44.44087" lon="5.56118">
        <ele>887.9</ele>
        <time>2023-03-20T12:19:49Z</time>
      </trkpt>
      <trkpt lat="44.44087" lon="5.56118">
        <ele>887.9</ele>
        <time>2023-03-20T12:19:50Z</time>
      </trkpt>
      <trkpt lat="44.44086" lon="5.56119">
        <ele>887.9</ele>
        <time>2023-03-20T12:19:51Z</time>
      </trkpt>
      <trkpt lat="44.44086" lon="5.56119">
        <ele>887.9</ele>
        <time>2023-03-20T12:19:52Z</time>
      </trkpt>
      <trkpt lat="44.44086" lon="5.56119">
        <ele>887.9</ele>
        <time>2023-03-20T12:19:53Z</time>
      </trkpt>
      <trkpt lat="44.44086" lon="5.56119">
        <ele>887.9</ele>
        <time>2023-03-20T12:19:56Z</time>
      </trkpt>
      <trkpt lat="44.44086" lon="5.5612">
        <ele>887.9</ele>
        <time>2023-03-20T12:19:57Z</time>
      </trkpt>
      <trkpt lat="44.44086" lon="5.5612">
        <ele>888</ele>
        <time>2023-03-20T12:19:58Z</time>
      </trkpt>
      <trkpt lat="44.44085" lon="5.5612">
        <ele>888</ele>
        <time>2023-03-20T12:19:59Z</time>
      </trkpt>
      <trkpt lat="44.44085" lon="5.5612">
        <ele>888</ele>
        <time>2023-03-20T12:20:00Z</time>
      </trkpt>
      <trkpt lat="44.44085" lon="5.56121">
        <ele>888</ele>
        <time>2023-03-20T12:20:01Z</time>
      </trkpt>
      <trkpt lat="44.44085" lon="5.56121">
        <ele>888</ele>
        <time>2023-03-20T12:20:02Z</time>
      </trkpt>
      <trkpt lat="44.44085" lon="5.56121">
        <ele>888</ele>
        <time>2023-03-20T12:20:03Z</time>
      </trkpt>
      <trkpt lat="44.44085" lon="5.56121">
        <ele>888</ele>
        <time>2023-03-20T12:20:04Z</time>
      </trkpt>
      <trkpt lat="44.44085" lon="5.56122">
        <ele>888</ele>
        <time>2023-03-20T12:20:05Z</time>
      </trkpt>
      <trkpt lat="44.44081" lon="5.56124">
        <ele>888.1</ele>
        <time>2023-03-20T12:20:06Z</time>
      </trkpt>
      <trkpt lat="44.4408" lon="5.56125">
        <ele>888.2</ele>
        <time>2023-03-20T12:20:07Z</time>
      </trkpt>
      <trkpt lat="44.44077" lon="5.56126">
        <ele>888.3</ele>
        <time>2023-03-20T12:20:08Z</time>
      </trkpt>
      <trkpt lat="44.44075" lon="5.56127">
        <ele>888.4</ele>
        <time>2023-03-20T12:20:09Z</time>
      </trkpt>
      <trkpt lat="44.44072" lon="5.56128">
        <ele>888.5</ele>
        <time>2023-03-20T12:20:10Z</time>
      </trkpt>
      <trkpt lat="44.44069" lon="5.5613">
        <ele>888.6</ele>
        <time>2023-03-20T12:20:11Z</time>
      </trkpt>
      <trkpt lat="44.44066" lon="5.56132">
        <ele>888.7</ele>
        <time>2023-03-20T12:20:12Z</time>
      </trkpt>
      <trkpt lat="44.44064" lon="5.56135">
        <ele>888.8</ele>
        <time>2023-03-20T12:20:13Z</time>
      </trkpt>
      <trkpt lat="44.44061" lon="5.56137">
        <ele>888.9</ele>
        <time>2023-03-20T12:20:14Z</time>
      </trkpt>
      <trkpt lat="44.44059" lon="5.5614">
        <ele>889.1</ele>
        <time>2023-03-20T12:20:15Z</time>
      </trkpt>
      <trkpt lat="44.44057" lon="5.56142">
        <ele>889.2</ele>
        <time>2023-03-20T12:20:16Z</time>
      </trkpt>
      <trkpt lat="44.44053" lon="5.56145">
        <ele>889.3</ele>
        <time>2023-03-20T12:20:17Z</time>
      </trkpt>
      <trkpt lat="44.44052" lon="5.56146">
        <ele>889.3</ele>
        <time>2023-03-20T12:20:18Z</time>
      </trkpt>
      <trkpt lat="44.44049" lon="5.56148">
        <ele>889.5</ele>
        <time>2023-03-20T12:20:19Z</time>
      </trkpt>
      <trkpt lat="44.44049" lon="5.56149">
        <ele>889.5</ele>
        <time>2023-03-20T12:20:20Z</time>
      </trkpt>
      <trkpt lat="44.44046" lon="5.56153">
        <ele>889.6</ele>
        <time>2023-03-20T12:20:21Z</time>
      </trkpt>
      <trkpt lat="44.44045" lon="5.56154">
        <ele>889.7</ele>
        <time>2023-03-20T12:20:22Z</time>
      </trkpt>
      <trkpt lat="44.44042" lon="5.56157">
        <ele>889.8</ele>
        <time>2023-03-20T12:20:23Z</time>
      </trkpt>
      <trkpt lat="44.44041" lon="5.56158">
        <ele>889.9</ele>
        <time>2023-03-20T12:20:24Z</time>
      </trkpt>
      <trkpt lat="44.44037" lon="5.56161">
        <ele>890</ele>
        <time>2023-03-20T12:20:26Z</time>
      </trkpt>
      <trkpt lat="44.44033" lon="5.5616">
        <ele>890.2</ele>
        <time>2023-03-20T12:20:27Z</time>
      </trkpt>
      <trkpt lat="44.44032" lon="5.56159">
        <ele>890.2</ele>
        <time>2023-03-20T12:20:28Z</time>
      </trkpt>
      <trkpt lat="44.44029" lon="5.56158">
        <ele>890.3</ele>
        <time>2023-03-20T12:20:29Z</time>
      </trkpt>
      <trkpt lat="44.44028" lon="5.56158">
        <ele>890.4</ele>
        <time>2023-03-20T12:20:30Z</time>
      </trkpt>
      <trkpt lat="44.44024" lon="5.56156">
        <ele>890.5</ele>
        <time>2023-03-20T12:20:31Z</time>
      </trkpt>
      <trkpt lat="44.44023" lon="5.56155">
        <ele>890.6</ele>
        <time>2023-03-20T12:20:32Z</time>
      </trkpt>
      <trkpt lat="44.4402" lon="5.56153">
        <ele>890.7</ele>
        <time>2023-03-20T12:20:33Z</time>
      </trkpt>
      <trkpt lat="44.44019" lon="5.56153">
        <ele>890.7</ele>
        <time>2023-03-20T12:20:34Z</time>
      </trkpt>
      <trkpt lat="44.44018" lon="5.56151">
        <ele>890.8</ele>
        <time>2023-03-20T12:20:35Z</time>
      </trkpt>
      <trkpt lat="44.44016" lon="5.5615">
        <ele>890.8</ele>
        <time>2023-03-20T12:20:36Z</time>
      </trkpt>
      <trkpt lat="44.44014" lon="5.5615">
        <ele>890.9</ele>
        <time>2023-03-20T12:20:37Z</time>
      </trkpt>
      <trkpt lat="44.44013" lon="5.5615">
        <ele>890.9</ele>
        <time>2023-03-20T12:20:38Z</time>
      </trkpt>
      <trkpt lat="44.44013" lon="5.56149">
        <ele>891</ele>
        <time>2023-03-20T12:20:39Z</time>
      </trkpt>
      <trkpt lat="44.44012" lon="5.56149">
        <ele>891</ele>
        <time>2023-03-20T12:20:40Z</time>
      </trkpt>
      <trkpt lat="44.44011" lon="5.56149">
        <ele>891</ele>
        <time>2023-03-20T12:20:41Z</time>
      </trkpt>
      <trkpt lat="44.4401" lon="5.56148">
        <ele>891.1</ele>
        <time>2023-03-20T12:20:42Z</time>
      </trkpt>
      <trkpt lat="44.44009" lon="5.56148">
        <ele>891.1</ele>
        <time>2023-03-20T12:20:43Z</time>
      </trkpt>
      <trkpt lat="44.44008" lon="5.56148">
        <ele>891.1</ele>
        <time>2023-03-20T12:20:44Z</time>
      </trkpt>
      <trkpt lat="44.44007" lon="5.56147">
        <ele>891.2</ele>
        <time>2023-03-20T12:20:45Z</time>
      </trkpt>
      <trkpt lat="44.44007" lon="5.56147">
        <ele>891.2</ele>
        <time>2023-03-20T12:20:46Z</time>
      </trkpt>
      <trkpt lat="44.44006" lon="5.56147">
        <ele>891.2</ele>
        <time>2023-03-20T12:20:47Z</time>
      </trkpt>
      <trkpt lat="44.44006" lon="5.56147">
        <ele>891.2</ele>
        <time>2023-03-20T12:20:48Z</time>
      </trkpt>
      <trkpt lat="44.44006" lon="5.56147">
        <ele>891.2</ele>
        <time>2023-03-20T12:20:49Z</time>
      </trkpt>
      <trkpt lat="44.44005" lon="5.56146">
        <ele>891.3</ele>
        <time>2023-03-20T12:20:50Z</time>
      </trkpt>
      <trkpt lat="44.44004" lon="5.56146">
        <ele>891.3</ele>
        <time>2023-03-20T12:20:51Z</time>
      </trkpt>
      <trkpt lat="44.44003" lon="5.56145">
        <ele>891.3</ele>
        <time>2023-03-20T12:20:52Z</time>
      </trkpt>
      <trkpt lat="44.44002" lon="5.56144">
        <ele>891.4</ele>
        <time>2023-03-20T12:20:53Z</time>
      </trkpt>
      <trkpt lat="44.44002" lon="5.56144">
        <ele>891.4</ele>
        <time>2023-03-20T12:20:54Z</time>
      </trkpt>
      <trkpt lat="44.44002" lon="5.56144">
        <ele>891.4</ele>
        <time>2023-03-20T12:20:55Z</time>
      </trkpt>
      <trkpt lat="44.44002" lon="5.56144">
        <ele>891.4</ele>
        <time>2023-03-20T12:20:56Z</time>
      </trkpt>
      <trkpt lat="44.44002" lon="5.56143">
        <ele>891.4</ele>
        <time>2023-03-20T12:20:57Z</time>
      </trkpt>
      <trkpt lat="44.44001" lon="5.56142">
        <ele>891.5</ele>
        <time>2023-03-20T12:20:58Z</time>
      </trkpt>
      <trkpt lat="44.43998" lon="5.56139">
        <ele>891.6</ele>
        <time>2023-03-20T12:20:59Z</time>
      </trkpt>
      <trkpt lat="44.43998" lon="5.56138">
        <ele>891.6</ele>
        <time>2023-03-20T12:21:00Z</time>
      </trkpt>
      <trkpt lat="44.43996" lon="5.56135">
        <ele>891.7</ele>
        <time>2023-03-20T12:21:01Z</time>
      </trkpt>
      <trkpt lat="44.43993" lon="5.56132">
        <ele>891.8</ele>
        <time>2023-03-20T12:21:02Z</time>
      </trkpt>
      <trkpt lat="44.4399" lon="5.56131">
        <ele>891.9</ele>
        <time>2023-03-20T12:21:03Z</time>
      </trkpt>
      <trkpt lat="44.43986" lon="5.56131">
        <ele>892.1</ele>
        <time>2023-03-20T12:21:04Z</time>
      </trkpt>
      <trkpt lat="44.43983" lon="5.56132">
        <ele>892.2</ele>
        <time>2023-03-20T12:21:05Z</time>
      </trkpt>
      <trkpt lat="44.4398" lon="5.56133">
        <ele>892.3</ele>
        <time>2023-03-20T12:21:06Z</time>
      </trkpt>
      <trkpt lat="44.43979" lon="5.56133">
        <ele>892.3</ele>
        <time>2023-03-20T12:21:07Z</time>
      </trkpt>
      <trkpt lat="44.43976" lon="5.56133">
        <ele>892.5</ele>
        <time>2023-03-20T12:21:08Z</time>
      </trkpt>
      <trkpt lat="44.43975" lon="5.56132">
        <ele>892.5</ele>
        <time>2023-03-20T12:21:09Z</time>
      </trkpt>
      <trkpt lat="44.43972" lon="5.56132">
        <ele>892.6</ele>
        <time>2023-03-20T12:21:10Z</time>
      </trkpt>
      <trkpt lat="44.43971" lon="5.56132">
        <ele>892.6</ele>
        <time>2023-03-20T12:21:11Z</time>
      </trkpt>
      <trkpt lat="44.43969" lon="5.56133">
        <ele>892.7</ele>
        <time>2023-03-20T12:21:12Z</time>
      </trkpt>
      <trkpt lat="44.43968" lon="5.56133">
        <ele>892.8</ele>
        <time>2023-03-20T12:21:13Z</time>
      </trkpt>
      <trkpt lat="44.43965" lon="5.5613">
        <ele>892.9</ele>
        <time>2023-03-20T12:21:14Z</time>
      </trkpt>
      <trkpt lat="44.43964" lon="5.56129">
        <ele>892.9</ele>
        <time>2023-03-20T12:21:15Z</time>
      </trkpt>
      <trkpt lat="44.4396" lon="5.56125">
        <ele>893.1</ele>
        <time>2023-03-20T12:21:16Z</time>
      </trkpt>
      <trkpt lat="44.43957" lon="5.56123">
        <ele>896.9</ele>
        <time>2023-03-20T12:21:17Z</time>
      </trkpt>
      <trkpt lat="44.43953" lon="5.56121">
        <ele>898.3</ele>
        <time>2023-03-20T12:21:18Z</time>
      </trkpt>
      <trkpt lat="44.43949" lon="5.56119">
        <ele>899.7</ele>
        <time>2023-03-20T12:21:19Z</time>
      </trkpt>
      <trkpt lat="44.43946" lon="5.56116">
        <ele>901.1</ele>
        <time>2023-03-20T12:21:20Z</time>
      </trkpt>
      <trkpt lat="44.43942" lon="5.56113">
        <ele>902.5</ele>
        <time>2023-03-20T12:21:21Z</time>
      </trkpt>
      <trkpt lat="44.43939" lon="5.5611">
        <ele>903.7</ele>
        <time>2023-03-20T12:21:22Z</time>
      </trkpt>
      <trkpt lat="44.43937" lon="5.56108">
        <ele>904.8</ele>
        <time>2023-03-20T12:21:23Z</time>
      </trkpt>
      <trkpt lat="44.43934" lon="5.56106">
        <ele>906</ele>
        <time>2023-03-20T12:21:24Z</time>
      </trkpt>
      <trkpt lat="44.43931" lon="5.56103">
        <ele>907.3</ele>
        <time>2023-03-20T12:21:25Z</time>
      </trkpt>
      <trkpt lat="44.43927" lon="5.56101">
        <ele>908.6</ele>
        <time>2023-03-20T12:21:26Z</time>
      </trkpt>
      <trkpt lat="44.43924" lon="5.56098">
        <ele>910.1</ele>
        <time>2023-03-20T12:21:27Z</time>
      </trkpt>
      <trkpt lat="44.4392" lon="5.56095">
        <ele>911.7</ele>
        <time>2023-03-20T12:21:28Z</time>
      </trkpt>
      <trkpt lat="44.43917" lon="5.56093">
        <ele>913.2</ele>
        <time>2023-03-20T12:21:29Z</time>
      </trkpt>
      <trkpt lat="44.43913" lon="5.5609">
        <ele>914.9</ele>
        <time>2023-03-20T12:21:30Z</time>
      </trkpt>
      <trkpt lat="44.4391" lon="5.56086">
        <ele>916.5</ele>
        <time>2023-03-20T12:21:31Z</time>
      </trkpt>
      <trkpt lat="44.43907" lon="5.56083">
        <ele>918.1</ele>
        <time>2023-03-20T12:21:32Z</time>
      </trkpt>
      <trkpt lat="44.43904" lon="5.5608">
        <ele>919.5</ele>
        <time>2023-03-20T12:21:33Z</time>
      </trkpt>
      <trkpt lat="44.439" lon="5.56078">
        <ele>921</ele>
        <time>2023-03-20T12:21:34Z</time>
      </trkpt>
      <trkpt lat="44.43897" lon="5.56075">
        <ele>922.5</ele>
        <time>2023-03-20T12:21:35Z</time>
      </trkpt>
      <trkpt lat="44.43893" lon="5.56073">
        <ele>924</ele>
        <time>2023-03-20T12:21:36Z</time>
      </trkpt>
      <trkpt lat="44.4389" lon="5.5607">
        <ele>925.2</ele>
        <time>2023-03-20T12:21:37Z</time>
      </trkpt>
      <trkpt lat="44.43887" lon="5.56068">
        <ele>926.5</ele>
        <time>2023-03-20T12:21:38Z</time>
      </trkpt>
      <trkpt lat="44.43886" lon="5.56067">
        <ele>927</ele>
        <time>2023-03-20T12:21:39Z</time>
      </trkpt>
      <trkpt lat="44.43882" lon="5.56065">
        <ele>928.2</ele>
        <time>2023-03-20T12:21:40Z</time>
      </trkpt>
      <trkpt lat="44.43881" lon="5.56064">
        <ele>928.6</ele>
        <time>2023-03-20T12:21:41Z</time>
      </trkpt>
      <trkpt lat="44.43878" lon="5.56063">
        <ele>929.9</ele>
        <time>2023-03-20T12:21:42Z</time>
      </trkpt>
      <trkpt lat="44.43877" lon="5.56062">
        <ele>930.4</ele>
        <time>2023-03-20T12:21:43Z</time>
      </trkpt>
      <trkpt lat="44.43869" lon="5.56056">
        <ele>933.5</ele>
        <time>2023-03-20T12:21:46Z</time>
      </trkpt>
      <trkpt lat="44.43866" lon="5.56054">
        <ele>934.8</ele>
        <time>2023-03-20T12:21:47Z</time>
      </trkpt>
      <trkpt lat="44.43863" lon="5.56051">
        <ele>936</ele>
        <time>2023-03-20T12:21:48Z</time>
      </trkpt>
      <trkpt lat="44.4386" lon="5.56049">
        <ele>937.5</ele>
        <time>2023-03-20T12:21:49Z</time>
      </trkpt>
      <trkpt lat="44.43857" lon="5.56047">
        <ele>939</ele>
        <time>2023-03-20T12:21:50Z</time>
      </trkpt>
      <trkpt lat="44.43853" lon="5.56044">
        <ele>940.7</ele>
        <time>2023-03-20T12:21:51Z</time>
      </trkpt>
      <trkpt lat="44.43849" lon="5.56042">
        <ele>942.3</ele>
        <time>2023-03-20T12:21:52Z</time>
      </trkpt>
      <trkpt lat="44.43846" lon="5.56039">
        <ele>943.9</ele>
        <time>2023-03-20T12:21:53Z</time>
      </trkpt>
      <trkpt lat="44.43842" lon="5.56036">
        <ele>945.3</ele>
        <time>2023-03-20T12:21:54Z</time>
      </trkpt>
      <trkpt lat="44.43839" lon="5.56033">
        <ele>946.7</ele>
        <time>2023-03-20T12:21:55Z</time>
      </trkpt>
      <trkpt lat="44.43835" lon="5.5603">
        <ele>948.3</ele>
        <time>2023-03-20T12:21:56Z</time>
      </trkpt>
      <trkpt lat="44.43831" lon="5.56027">
        <ele>948.9</ele>
        <time>2023-03-20T12:21:57Z</time>
      </trkpt>
      <trkpt lat="44.43828" lon="5.56024">
        <ele>949.2</ele>
        <time>2023-03-20T12:21:58Z</time>
      </trkpt>
      <trkpt lat="44.43824" lon="5.5602">
        <ele>949.5</ele>
        <time>2023-03-20T12:21:59Z</time>
      </trkpt>
      <trkpt lat="44.4382" lon="5.56017">
        <ele>949.8</ele>
        <time>2023-03-20T12:22:00Z</time>
      </trkpt>
      <trkpt lat="44.43817" lon="5.56013">
        <ele>950</ele>
        <time>2023-03-20T12:22:01Z</time>
      </trkpt>
      <trkpt lat="44.43814" lon="5.56008">
        <ele>950.3</ele>
        <time>2023-03-20T12:22:02Z</time>
      </trkpt>
      <trkpt lat="44.43811" lon="5.56003">
        <ele>950.5</ele>
        <time>2023-03-20T12:22:03Z</time>
      </trkpt>
      <trkpt lat="44.43808" lon="5.55998">
        <ele>950.7</ele>
        <time>2023-03-20T12:22:04Z</time>
      </trkpt>
      <trkpt lat="44.43805" lon="5.55992">
        <ele>950.9</ele>
        <time>2023-03-20T12:22:05Z</time>
      </trkpt>
      <trkpt lat="44.43802" lon="5.55986">
        <ele>951.1</ele>
        <time>2023-03-20T12:22:06Z</time>
      </trkpt>
      <trkpt lat="44.43799" lon="5.55981">
        <ele>951.2</ele>
        <time>2023-03-20T12:22:07Z</time>
      </trkpt>
      <trkpt lat="44.43797" lon="5.55976">
        <ele>951.3</ele>
        <time>2023-03-20T12:22:08Z</time>
      </trkpt>
      <trkpt lat="44.43794" lon="5.55969">
        <ele>951.3</ele>
        <time>2023-03-20T12:22:09Z</time>
      </trkpt>
      <trkpt lat="44.43791" lon="5.55962">
        <ele>951.3</ele>
        <time>2023-03-20T12:22:10Z</time>
      </trkpt>
      <trkpt lat="44.43787" lon="5.55956">
        <ele>951.2</ele>
        <time>2023-03-20T12:22:11Z</time>
      </trkpt>
      <trkpt lat="44.43783" lon="5.5595">
        <ele>951</ele>
        <time>2023-03-20T12:22:12Z</time>
      </trkpt>
      <trkpt lat="44.4378" lon="5.55944">
        <ele>950.6</ele>
        <time>2023-03-20T12:22:13Z</time>
      </trkpt>
      <trkpt lat="44.43777" lon="5.5594">
        <ele>950.1</ele>
        <time>2023-03-20T12:22:14Z</time>
      </trkpt>
      <trkpt lat="44.43774" lon="5.55936">
        <ele>949.6</ele>
        <time>2023-03-20T12:22:15Z</time>
      </trkpt>
      <trkpt lat="44.43771" lon="5.55934">
        <ele>949.3</ele>
        <time>2023-03-20T12:22:16Z</time>
      </trkpt>
      <trkpt lat="44.43768" lon="5.55933">
        <ele>949.1</ele>
        <time>2023-03-20T12:22:17Z</time>
      </trkpt>
      <trkpt lat="44.43765" lon="5.55934">
        <ele>949</ele>
        <time>2023-03-20T12:22:18Z</time>
      </trkpt>
      <trkpt lat="44.43764" lon="5.55939">
        <ele>948.9</ele>
        <time>2023-03-20T12:22:19Z</time>
      </trkpt>
      <trkpt lat="44.43764" lon="5.5594">
        <ele>948.9</ele>
        <time>2023-03-20T12:22:20Z</time>
      </trkpt>
      <trkpt lat="44.43763" lon="5.55946">
        <ele>948.8</ele>
        <time>2023-03-20T12:22:21Z</time>
      </trkpt>
      <trkpt lat="44.43762" lon="5.55947">
        <ele>948.8</ele>
        <time>2023-03-20T12:22:22Z</time>
      </trkpt>
      <trkpt lat="44.43761" lon="5.55951">
        <ele>948.8</ele>
        <time>2023-03-20T12:22:23Z</time>
      </trkpt>
      <trkpt lat="44.43759" lon="5.55955">
        <ele>948.8</ele>
        <time>2023-03-20T12:22:24Z</time>
      </trkpt>
      <trkpt lat="44.43757" lon="5.55959">
        <ele>948.8</ele>
        <time>2023-03-20T12:22:25Z</time>
      </trkpt>
      <trkpt lat="44.43754" lon="5.55963">
        <ele>948.8</ele>
        <time>2023-03-20T12:22:26Z</time>
      </trkpt>
      <trkpt lat="44.43751" lon="5.55965">
        <ele>948.8</ele>
        <time>2023-03-20T12:22:27Z</time>
      </trkpt>
      <trkpt lat="44.43747" lon="5.55967">
        <ele>948.8</ele>
        <time>2023-03-20T12:22:28Z</time>
      </trkpt>
      <trkpt lat="44.43744" lon="5.55969">
        <ele>948.9</ele>
        <time>2023-03-20T12:22:29Z</time>
      </trkpt>
      <trkpt lat="44.4374" lon="5.55971">
        <ele>948.9</ele>
        <time>2023-03-20T12:22:30Z</time>
      </trkpt>
      <trkpt lat="44.43736" lon="5.55973">
        <ele>948.9</ele>
        <time>2023-03-20T12:22:31Z</time>
      </trkpt>
      <trkpt lat="44.43733" lon="5.55976">
        <ele>948.9</ele>
        <time>2023-03-20T12:22:32Z</time>
      </trkpt>
      <trkpt lat="44.4373" lon="5.55978">
        <ele>948.9</ele>
        <time>2023-03-20T12:22:33Z</time>
      </trkpt>
      <trkpt lat="44.43727" lon="5.55981">
        <ele>948.9</ele>
        <time>2023-03-20T12:22:34Z</time>
      </trkpt>
      <trkpt lat="44.43725" lon="5.55985">
        <ele>948.9</ele>
        <time>2023-03-20T12:22:35Z</time>
      </trkpt>
      <trkpt lat="44.43722" lon="5.55989">
        <ele>948.9</ele>
        <time>2023-03-20T12:22:36Z</time>
      </trkpt>
      <trkpt lat="44.43719" lon="5.55994">
        <ele>949</ele>
        <time>2023-03-20T12:22:37Z</time>
      </trkpt>
      <trkpt lat="44.43716" lon="5.55997">
        <ele>949</ele>
        <time>2023-03-20T12:22:38Z</time>
      </trkpt>
      <trkpt lat="44.43713" lon="5.56001">
        <ele>949</ele>
        <time>2023-03-20T12:22:39Z</time>
      </trkpt>
      <trkpt lat="44.4371" lon="5.56004">
        <ele>949</ele>
        <time>2023-03-20T12:22:40Z</time>
      </trkpt>
      <trkpt lat="44.43705" lon="5.56007">
        <ele>949</ele>
        <time>2023-03-20T12:22:41Z</time>
      </trkpt>
      <trkpt lat="44.43702" lon="5.56009">
        <ele>949.1</ele>
        <time>2023-03-20T12:22:42Z</time>
      </trkpt>
      <trkpt lat="44.43699" lon="5.56012">
        <ele>949.1</ele>
        <time>2023-03-20T12:22:43Z</time>
      </trkpt>
      <trkpt lat="44.43697" lon="5.56013">
        <ele>949.1</ele>
        <time>2023-03-20T12:22:44Z</time>
      </trkpt>
      <trkpt lat="44.43696" lon="5.56013">
        <ele>949.1</ele>
        <time>2023-03-20T12:22:45Z</time>
      </trkpt>
      <trkpt lat="44.43692" lon="5.56016">
        <ele>949.1</ele>
        <time>2023-03-20T12:22:46Z</time>
      </trkpt>
      <trkpt lat="44.43691" lon="5.56018">
        <ele>949.2</ele>
        <time>2023-03-20T12:22:47Z</time>
      </trkpt>
      <trkpt lat="44.43687" lon="5.5602">
        <ele>949.2</ele>
        <time>2023-03-20T12:22:48Z</time>
      </trkpt>
      <trkpt lat="44.43683" lon="5.56025">
        <ele>949.2</ele>
        <time>2023-03-20T12:22:49Z</time>
      </trkpt>
      <trkpt lat="44.4368" lon="5.5603">
        <ele>949.3</ele>
        <time>2023-03-20T12:22:50Z</time>
      </trkpt>
      <trkpt lat="44.43677" lon="5.56036">
        <ele>949.3</ele>
        <time>2023-03-20T12:22:51Z</time>
      </trkpt>
      <trkpt lat="44.43674" lon="5.56042">
        <ele>949.3</ele>
        <time>2023-03-20T12:22:52Z</time>
      </trkpt>
      <trkpt lat="44.43671" lon="5.56047">
        <ele>949.4</ele>
        <time>2023-03-20T12:22:53Z</time>
      </trkpt>
      <trkpt lat="44.43669" lon="5.56053">
        <ele>949.4</ele>
        <time>2023-03-20T12:22:54Z</time>
      </trkpt>
      <trkpt lat="44.43668" lon="5.56059">
        <ele>949.5</ele>
        <time>2023-03-20T12:22:55Z</time>
      </trkpt>
      <trkpt lat="44.43667" lon="5.56064">
        <ele>949.5</ele>
        <time>2023-03-20T12:22:56Z</time>
      </trkpt>
      <trkpt lat="44.43667" lon="5.56071">
        <ele>949.6</ele>
        <time>2023-03-20T12:22:57Z</time>
      </trkpt>
      <trkpt lat="44.43667" lon="5.56077">
        <ele>949.6</ele>
        <time>2023-03-20T12:22:58Z</time>
      </trkpt>
      <trkpt lat="44.43667" lon="5.56083">
        <ele>949.7</ele>
        <time>2023-03-20T12:22:59Z</time>
      </trkpt>
      <trkpt lat="44.43667" lon="5.56088">
        <ele>949.8</ele>
        <time>2023-03-20T12:23:00Z</time>
      </trkpt>
      <trkpt lat="44.43667" lon="5.56094">
        <ele>949.9</ele>
        <time>2023-03-20T12:23:01Z</time>
      </trkpt>
      <trkpt lat="44.43668" lon="5.561">
        <ele>950.1</ele>
        <time>2023-03-20T12:23:02Z</time>
      </trkpt>
      <trkpt lat="44.43669" lon="5.56105">
        <ele>950.3</ele>
        <time>2023-03-20T12:23:03Z</time>
      </trkpt>
      <trkpt lat="44.4367" lon="5.5611">
        <ele>950.4</ele>
        <time>2023-03-20T12:23:04Z</time>
      </trkpt>
      <trkpt lat="44.43671" lon="5.56114">
        <ele>950.6</ele>
        <time>2023-03-20T12:23:05Z</time>
      </trkpt>
      <trkpt lat="44.43673" lon="5.56118">
        <ele>950.7</ele>
        <time>2023-03-20T12:23:06Z</time>
      </trkpt>
      <trkpt lat="44.43674" lon="5.56122">
        <ele>950.9</ele>
        <time>2023-03-20T12:23:07Z</time>
      </trkpt>
      <trkpt lat="44.43676" lon="5.56127">
        <ele>951</ele>
        <time>2023-03-20T12:23:08Z</time>
      </trkpt>
      <trkpt lat="44.43677" lon="5.56131">
        <ele>951.1</ele>
        <time>2023-03-20T12:23:09Z</time>
      </trkpt>
      <trkpt lat="44.43678" lon="5.56135">
        <ele>951.2</ele>
        <time>2023-03-20T12:23:10Z</time>
      </trkpt>
      <trkpt lat="44.43679" lon="5.56139">
        <ele>951.3</ele>
        <time>2023-03-20T12:23:11Z</time>
      </trkpt>
      <trkpt lat="44.43681" lon="5.56143">
        <ele>951.4</ele>
        <time>2023-03-20T12:23:12Z</time>
      </trkpt>
      <trkpt lat="44.43682" lon="5.56147">
        <ele>951.6</ele>
        <time>2023-03-20T12:23:13Z</time>
      </trkpt>
      <trkpt lat="44.43683" lon="5.56152">
        <ele>951.7</ele>
        <time>2023-03-20T12:23:14Z</time>
      </trkpt>
      <trkpt lat="44.43683" lon="5.56156">
        <ele>951.9</ele>
        <time>2023-03-20T12:23:15Z</time>
      </trkpt>
      <trkpt lat="44.43683" lon="5.56161">
        <ele>952.1</ele>
        <time>2023-03-20T12:23:16Z</time>
      </trkpt>
      <trkpt lat="44.43682" lon="5.56166">
        <ele>952.2</ele>
        <time>2023-03-20T12:23:17Z</time>
      </trkpt>
      <trkpt lat="44.43679" lon="5.56169">
        <ele>952.4</ele>
        <time>2023-03-20T12:23:18Z</time>
      </trkpt>
      <trkpt lat="44.43676" lon="5.56173">
        <ele>952.6</ele>
        <time>2023-03-20T12:23:19Z</time>
      </trkpt>
      <trkpt lat="44.43671" lon="5.56177">
        <ele>952.9</ele>
        <time>2023-03-20T12:23:20Z</time>
      </trkpt>
      <trkpt lat="44.43666" lon="5.56182">
        <ele>953.2</ele>
        <time>2023-03-20T12:23:21Z</time>
      </trkpt>
      <trkpt lat="44.4366" lon="5.56186">
        <ele>953.5</ele>
        <time>2023-03-20T12:23:22Z</time>
      </trkpt>
      <trkpt lat="44.43655" lon="5.56188">
        <ele>953.7</ele>
        <time>2023-03-20T12:23:23Z</time>
      </trkpt>
      <trkpt lat="44.43651" lon="5.56191">
        <ele>953.8</ele>
        <time>2023-03-20T12:23:24Z</time>
      </trkpt>
      <trkpt lat="44.43647" lon="5.56194">
        <ele>953.9</ele>
        <time>2023-03-20T12:23:25Z</time>
      </trkpt>
      <trkpt lat="44.43644" lon="5.56198">
        <ele>953.9</ele>
        <time>2023-03-20T12:23:26Z</time>
      </trkpt>
      <trkpt lat="44.4364" lon="5.56203">
        <ele>953.9</ele>
        <time>2023-03-20T12:23:27Z</time>
      </trkpt>
      <trkpt lat="44.43637" lon="5.56208">
        <ele>953.9</ele>
        <time>2023-03-20T12:23:28Z</time>
      </trkpt>
      <trkpt lat="44.43634" lon="5.56213">
        <ele>953.8</ele>
        <time>2023-03-20T12:23:29Z</time>
      </trkpt>
      <trkpt lat="44.43631" lon="5.56217">
        <ele>953.8</ele>
        <time>2023-03-20T12:23:30Z</time>
      </trkpt>
      <trkpt lat="44.43628" lon="5.56221">
        <ele>953.7</ele>
        <time>2023-03-20T12:23:31Z</time>
      </trkpt>
      <trkpt lat="44.43625" lon="5.56225">
        <ele>953.6</ele>
        <time>2023-03-20T12:23:32Z</time>
      </trkpt>
      <trkpt lat="44.43622" lon="5.5623">
        <ele>953.5</ele>
        <time>2023-03-20T12:23:33Z</time>
      </trkpt>
      <trkpt lat="44.43619" lon="5.56235">
        <ele>953.3</ele>
        <time>2023-03-20T12:23:34Z</time>
      </trkpt>
      <trkpt lat="44.43617" lon="5.56241">
        <ele>953.2</ele>
        <time>2023-03-20T12:23:35Z</time>
      </trkpt>
      <trkpt lat="44.43615" lon="5.56247">
        <ele>953</ele>
        <time>2023-03-20T12:23:36Z</time>
      </trkpt>
      <trkpt lat="44.43612" lon="5.56253">
        <ele>952.9</ele>
        <time>2023-03-20T12:23:37Z</time>
      </trkpt>
      <trkpt lat="44.4361" lon="5.5626">
        <ele>952.7</ele>
        <time>2023-03-20T12:23:38Z</time>
      </trkpt>
      <trkpt lat="44.43608" lon="5.56266">
        <ele>952.6</ele>
        <time>2023-03-20T12:23:39Z</time>
      </trkpt>
      <trkpt lat="44.43607" lon="5.56272">
        <ele>952.5</ele>
        <time>2023-03-20T12:23:40Z</time>
      </trkpt>
      <trkpt lat="44.43606" lon="5.56279">
        <ele>952.4</ele>
        <time>2023-03-20T12:23:41Z</time>
      </trkpt>
      <trkpt lat="44.43605" lon="5.56285">
        <ele>952.4</ele>
        <time>2023-03-20T12:23:42Z</time>
      </trkpt>
      <trkpt lat="44.43604" lon="5.56291">
        <ele>952.4</ele>
        <time>2023-03-20T12:23:43Z</time>
      </trkpt>
      <trkpt lat="44.43603" lon="5.56298">
        <ele>952.4</ele>
        <time>2023-03-20T12:23:44Z</time>
      </trkpt>
      <trkpt lat="44.43602" lon="5.56304">
        <ele>952.4</ele>
        <time>2023-03-20T12:23:45Z</time>
      </trkpt>
      <trkpt lat="44.43601" lon="5.56309">
        <ele>952.4</ele>
        <time>2023-03-20T12:23:46Z</time>
      </trkpt>
      <trkpt lat="44.43601" lon="5.56315">
        <ele>952.4</ele>
        <time>2023-03-20T12:23:47Z</time>
      </trkpt>
      <trkpt lat="44.436" lon="5.5632">
        <ele>952.4</ele>
        <time>2023-03-20T12:23:48Z</time>
      </trkpt>
      <trkpt lat="44.436" lon="5.56325">
        <ele>952.4</ele>
        <time>2023-03-20T12:23:49Z</time>
      </trkpt>
      <trkpt lat="44.436" lon="5.56331">
        <ele>952.5</ele>
        <time>2023-03-20T12:23:50Z</time>
      </trkpt>
      <trkpt lat="44.436" lon="5.56337">
        <ele>952.5</ele>
        <time>2023-03-20T12:23:51Z</time>
      </trkpt>
      <trkpt lat="44.436" lon="5.56342">
        <ele>952.6</ele>
        <time>2023-03-20T12:23:52Z</time>
      </trkpt>
      <trkpt lat="44.436" lon="5.56348">
        <ele>952.7</ele>
        <time>2023-03-20T12:23:53Z</time>
      </trkpt>
      <trkpt lat="44.436" lon="5.56353">
        <ele>952.8</ele>
        <time>2023-03-20T12:23:54Z</time>
      </trkpt>
      <trkpt lat="44.436" lon="5.56359">
        <ele>952.9</ele>
        <time>2023-03-20T12:23:55Z</time>
      </trkpt>
      <trkpt lat="44.43599" lon="5.56365">
        <ele>953.9</ele>
        <time>2023-03-20T12:23:56Z</time>
      </trkpt>
      <trkpt lat="44.43598" lon="5.5637">
        <ele>953.9</ele>
        <time>2023-03-20T12:23:57Z</time>
      </trkpt>
      <trkpt lat="44.43595" lon="5.56374">
        <ele>953.9</ele>
        <time>2023-03-20T12:23:58Z</time>
      </trkpt>
      <trkpt lat="44.4359" lon="5.56376">
        <ele>953.9</ele>
        <time>2023-03-20T12:23:59Z</time>
      </trkpt>
      <trkpt lat="44.43585" lon="5.56376">
        <ele>953.5</ele>
        <time>2023-03-20T12:24:00Z</time>
      </trkpt>
      <trkpt lat="44.4358" lon="5.56373">
        <ele>953.6</ele>
        <time>2023-03-20T12:24:01Z</time>
      </trkpt>
      <trkpt lat="44.43577" lon="5.56368">
        <ele>953.6</ele>
        <time>2023-03-20T12:24:02Z</time>
      </trkpt>
      <trkpt lat="44.43574" lon="5.56364">
        <ele>953.6</ele>
        <time>2023-03-20T12:24:03Z</time>
      </trkpt>
      <trkpt lat="44.43572" lon="5.56359">
        <ele>953.7</ele>
        <time>2023-03-20T12:24:04Z</time>
      </trkpt>
      <trkpt lat="44.4357" lon="5.56354">
        <ele>953.8</ele>
        <time>2023-03-20T12:24:05Z</time>
      </trkpt>
      <trkpt lat="44.43568" lon="5.56348">
        <ele>953.9</ele>
        <time>2023-03-20T12:24:06Z</time>
      </trkpt>
      <trkpt lat="44.43566" lon="5.56343">
        <ele>954</ele>
        <time>2023-03-20T12:24:07Z</time>
      </trkpt>
      <trkpt lat="44.43564" lon="5.56338">
        <ele>954.1</ele>
        <time>2023-03-20T12:24:08Z</time>
      </trkpt>
      <trkpt lat="44.43562" lon="5.56333">
        <ele>954.2</ele>
        <time>2023-03-20T12:24:09Z</time>
      </trkpt>
      <trkpt lat="44.4356" lon="5.56328">
        <ele>954.3</ele>
        <time>2023-03-20T12:24:10Z</time>
      </trkpt>
      <trkpt lat="44.43558" lon="5.56322">
        <ele>954.5</ele>
        <time>2023-03-20T12:24:11Z</time>
      </trkpt>
      <trkpt lat="44.43555" lon="5.56317">
        <ele>954.6</ele>
        <time>2023-03-20T12:24:12Z</time>
      </trkpt>
      <trkpt lat="44.43552" lon="5.56312">
        <ele>954.8</ele>
        <time>2023-03-20T12:24:13Z</time>
      </trkpt>
      <trkpt lat="44.4355" lon="5.56306">
        <ele>954.9</ele>
        <time>2023-03-20T12:24:14Z</time>
      </trkpt>
      <trkpt lat="44.43549" lon="5.56302">
        <ele>955</ele>
        <time>2023-03-20T12:24:15Z</time>
      </trkpt>
      <trkpt lat="44.43547" lon="5.56297">
        <ele>955.2</ele>
        <time>2023-03-20T12:24:16Z</time>
      </trkpt>
      <trkpt lat="44.43545" lon="5.56292">
        <ele>955.3</ele>
        <time>2023-03-20T12:24:17Z</time>
      </trkpt>
      <trkpt lat="44.43543" lon="5.56287">
        <ele>955.4</ele>
        <time>2023-03-20T12:24:18Z</time>
      </trkpt>
      <trkpt lat="44.43541" lon="5.56283">
        <ele>955.5</ele>
        <time>2023-03-20T12:24:19Z</time>
      </trkpt>
      <trkpt lat="44.4354" lon="5.56279">
        <ele>955.6</ele>
        <time>2023-03-20T12:24:20Z</time>
      </trkpt>
      <trkpt lat="44.43539" lon="5.56275">
        <ele>955.7</ele>
        <time>2023-03-20T12:24:21Z</time>
      </trkpt>
      <trkpt lat="44.43538" lon="5.56271">
        <ele>955.8</ele>
        <time>2023-03-20T12:24:22Z</time>
      </trkpt>
      <trkpt lat="44.43536" lon="5.56266">
        <ele>955.8</ele>
        <time>2023-03-20T12:24:23Z</time>
      </trkpt>
      <trkpt lat="44.43535" lon="5.56261">
        <ele>956</ele>
        <time>2023-03-20T12:24:24Z</time>
      </trkpt>
      <trkpt lat="44.43534" lon="5.56256">
        <ele>956.1</ele>
        <time>2023-03-20T12:24:25Z</time>
      </trkpt>
      <trkpt lat="44.43533" lon="5.56251">
        <ele>956.2</ele>
        <time>2023-03-20T12:24:26Z</time>
      </trkpt>
      <trkpt lat="44.43533" lon="5.56246">
        <ele>956.4</ele>
        <time>2023-03-20T12:24:27Z</time>
      </trkpt>
      <trkpt lat="44.43532" lon="5.5624">
        <ele>956.5</ele>
        <time>2023-03-20T12:24:28Z</time>
      </trkpt>
      <trkpt lat="44.43531" lon="5.56234">
        <ele>956.7</ele>
        <time>2023-03-20T12:24:29Z</time>
      </trkpt>
      <trkpt lat="44.43531" lon="5.56229">
        <ele>956.8</ele>
        <time>2023-03-20T12:24:30Z</time>
      </trkpt>
      <trkpt lat="44.43531" lon="5.56224">
        <ele>957</ele>
        <time>2023-03-20T12:24:31Z</time>
      </trkpt>
      <trkpt lat="44.4353" lon="5.56218">
        <ele>957.1</ele>
        <time>2023-03-20T12:24:32Z</time>
      </trkpt>
      <trkpt lat="44.4353" lon="5.56212">
        <ele>957.3</ele>
        <time>2023-03-20T12:24:33Z</time>
      </trkpt>
      <trkpt lat="44.43529" lon="5.56207">
        <ele>957.5</ele>
        <time>2023-03-20T12:24:34Z</time>
      </trkpt>
      <trkpt lat="44.43527" lon="5.56201">
        <ele>957.6</ele>
        <time>2023-03-20T12:24:35Z</time>
      </trkpt>
      <trkpt lat="44.43526" lon="5.56197">
        <ele>957.7</ele>
        <time>2023-03-20T12:24:36Z</time>
      </trkpt>
      <trkpt lat="44.43525" lon="5.56192">
        <ele>957.8</ele>
        <time>2023-03-20T12:24:37Z</time>
      </trkpt>
      <trkpt lat="44.43524" lon="5.56187">
        <ele>957.9</ele>
        <time>2023-03-20T12:24:38Z</time>
      </trkpt>
      <trkpt lat="44.43524" lon="5.56182">
        <ele>958</ele>
        <time>2023-03-20T12:24:39Z</time>
      </trkpt>
      <trkpt lat="44.43523" lon="5.56176">
        <ele>958.1</ele>
        <time>2023-03-20T12:24:40Z</time>
      </trkpt>
      <trkpt lat="44.43521" lon="5.56171">
        <ele>958.1</ele>
        <time>2023-03-20T12:24:41Z</time>
      </trkpt>
      <trkpt lat="44.4352" lon="5.56165">
        <ele>958.1</ele>
        <time>2023-03-20T12:24:42Z</time>
      </trkpt>
      <trkpt lat="44.43517" lon="5.56158">
        <ele>958.2</ele>
        <time>2023-03-20T12:24:43Z</time>
      </trkpt>
      <trkpt lat="44.43514" lon="5.56152">
        <ele>958.5</ele>
        <time>2023-03-20T12:24:44Z</time>
      </trkpt>
      <trkpt lat="44.43512" lon="5.56147">
        <ele>958.6</ele>
        <time>2023-03-20T12:24:45Z</time>
      </trkpt>
      <trkpt lat="44.4351" lon="5.56143">
        <ele>958.8</ele>
        <time>2023-03-20T12:24:46Z</time>
      </trkpt>
      <trkpt lat="44.43508" lon="5.5614">
        <ele>959</ele>
        <time>2023-03-20T12:24:47Z</time>
      </trkpt>
      <trkpt lat="44.43505" lon="5.56137">
        <ele>959.3</ele>
        <time>2023-03-20T12:24:48Z</time>
      </trkpt>
      <trkpt lat="44.43503" lon="5.56133">
        <ele>959.5</ele>
        <time>2023-03-20T12:24:49Z</time>
      </trkpt>
      <trkpt lat="44.43501" lon="5.5613">
        <ele>959.8</ele>
        <time>2023-03-20T12:24:50Z</time>
      </trkpt>
      <trkpt lat="44.43499" lon="5.56126">
        <ele>960.2</ele>
        <time>2023-03-20T12:24:51Z</time>
      </trkpt>
      <trkpt lat="44.43496" lon="5.56123">
        <ele>960.6</ele>
        <time>2023-03-20T12:24:52Z</time>
      </trkpt>
      <trkpt lat="44.43494" lon="5.5612">
        <ele>961</ele>
        <time>2023-03-20T12:24:53Z</time>
      </trkpt>
      <trkpt lat="44.43491" lon="5.56119">
        <ele>961.3</ele>
        <time>2023-03-20T12:24:54Z</time>
      </trkpt>
      <trkpt lat="44.43488" lon="5.56117">
        <ele>961.7</ele>
        <time>2023-03-20T12:24:55Z</time>
      </trkpt>
      <trkpt lat="44.43486" lon="5.56114">
        <ele>962</ele>
        <time>2023-03-20T12:24:56Z</time>
      </trkpt>
      <trkpt lat="44.43484" lon="5.56112">
        <ele>962.4</ele>
        <time>2023-03-20T12:24:57Z</time>
      </trkpt>
      <trkpt lat="44.43482" lon="5.56109">
        <ele>962.7</ele>
        <time>2023-03-20T12:24:58Z</time>
      </trkpt>
      <trkpt lat="44.43479" lon="5.56107">
        <ele>963</ele>
        <time>2023-03-20T12:24:59Z</time>
      </trkpt>
      <trkpt lat="44.43477" lon="5.56104">
        <ele>963.3</ele>
        <time>2023-03-20T12:25:00Z</time>
      </trkpt>
      <trkpt lat="44.43475" lon="5.56101">
        <ele>963.6</ele>
        <time>2023-03-20T12:25:01Z</time>
      </trkpt>
      <trkpt lat="44.43472" lon="5.56098">
        <ele>964</ele>
        <time>2023-03-20T12:25:02Z</time>
      </trkpt>
      <trkpt lat="44.4347" lon="5.56095">
        <ele>964.2</ele>
        <time>2023-03-20T12:25:03Z</time>
      </trkpt>
      <trkpt lat="44.43468" lon="5.56092">
        <ele>964.5</ele>
        <time>2023-03-20T12:25:04Z</time>
      </trkpt>
      <trkpt lat="44.43466" lon="5.56089">
        <ele>964.9</ele>
        <time>2023-03-20T12:25:05Z</time>
      </trkpt>
      <trkpt lat="44.43463" lon="5.56086">
        <ele>965.2</ele>
        <time>2023-03-20T12:25:06Z</time>
      </trkpt>
      <trkpt lat="44.43461" lon="5.56083">
        <ele>965.5</ele>
        <time>2023-03-20T12:25:07Z</time>
      </trkpt>
      <trkpt lat="44.43459" lon="5.5608">
        <ele>965.7</ele>
        <time>2023-03-20T12:25:08Z</time>
      </trkpt>
      <trkpt lat="44.43456" lon="5.56077">
        <ele>966</ele>
        <time>2023-03-20T12:25:09Z</time>
      </trkpt>
      <trkpt lat="44.43454" lon="5.56074">
        <ele>966.4</ele>
        <time>2023-03-20T12:25:10Z</time>
      </trkpt>
      <trkpt lat="44.43452" lon="5.5607">
        <ele>966.7</ele>
        <time>2023-03-20T12:25:11Z</time>
      </trkpt>
      <trkpt lat="44.4345" lon="5.56067">
        <ele>967</ele>
        <time>2023-03-20T12:25:12Z</time>
      </trkpt>
      <trkpt lat="44.43448" lon="5.56064">
        <ele>967.3</ele>
        <time>2023-03-20T12:25:13Z</time>
      </trkpt>
      <trkpt lat="44.43445" lon="5.56061">
        <ele>967.6</ele>
        <time>2023-03-20T12:25:14Z</time>
      </trkpt>
      <trkpt lat="44.43443" lon="5.56058">
        <ele>967.9</ele>
        <time>2023-03-20T12:25:15Z</time>
      </trkpt>
      <trkpt lat="44.4344" lon="5.56056">
        <ele>968.1</ele>
        <time>2023-03-20T12:25:16Z</time>
      </trkpt>
      <trkpt lat="44.43437" lon="5.56054">
        <ele>968.4</ele>
        <time>2023-03-20T12:25:17Z</time>
      </trkpt>
      <trkpt lat="44.43434" lon="5.56052">
        <ele>968.8</ele>
        <time>2023-03-20T12:25:18Z</time>
      </trkpt>
      <trkpt lat="44.43433" lon="5.56051">
        <ele>968.9</ele>
        <time>2023-03-20T12:25:19Z</time>
      </trkpt>
      <trkpt lat="44.43429" lon="5.56048">
        <ele>969.1</ele>
        <time>2023-03-20T12:25:20Z</time>
      </trkpt>
      <trkpt lat="44.43428" lon="5.56047">
        <ele>969.3</ele>
        <time>2023-03-20T12:25:21Z</time>
      </trkpt>
      <trkpt lat="44.43425" lon="5.56045">
        <ele>969.6</ele>
        <time>2023-03-20T12:25:22Z</time>
      </trkpt>
      <trkpt lat="44.43424" lon="5.56044">
        <ele>969.7</ele>
        <time>2023-03-20T12:25:23Z</time>
      </trkpt>
      <trkpt lat="44.43423" lon="5.56041">
        <ele>969.9</ele>
        <time>2023-03-20T12:25:24Z</time>
      </trkpt>
      <trkpt lat="44.4342" lon="5.56036">
        <ele>970.2</ele>
        <time>2023-03-20T12:25:25Z</time>
      </trkpt>
      <trkpt lat="44.43419" lon="5.56034">
        <ele>970.4</ele>
        <time>2023-03-20T12:25:26Z</time>
      </trkpt>
      <trkpt lat="44.43417" lon="5.5603">
        <ele>970.7</ele>
        <time>2023-03-20T12:25:27Z</time>
      </trkpt>
      <trkpt lat="44.43415" lon="5.56027">
        <ele>970.9</ele>
        <time>2023-03-20T12:25:28Z</time>
      </trkpt>
      <trkpt lat="44.43413" lon="5.56023">
        <ele>971.2</ele>
        <time>2023-03-20T12:25:29Z</time>
      </trkpt>
      <trkpt lat="44.43411" lon="5.56019">
        <ele>971.5</ele>
        <time>2023-03-20T12:25:30Z</time>
      </trkpt>
      <trkpt lat="44.4341" lon="5.56014">
        <ele>971.9</ele>
        <time>2023-03-20T12:25:31Z</time>
      </trkpt>
      <trkpt lat="44.43408" lon="5.5601">
        <ele>972.2</ele>
        <time>2023-03-20T12:25:32Z</time>
      </trkpt>
      <trkpt lat="44.43405" lon="5.56007">
        <ele>972.5</ele>
        <time>2023-03-20T12:25:33Z</time>
      </trkpt>
      <trkpt lat="44.43403" lon="5.56004">
        <ele>972.8</ele>
        <time>2023-03-20T12:25:34Z</time>
      </trkpt>
      <trkpt lat="44.434" lon="5.56002">
        <ele>973.1</ele>
        <time>2023-03-20T12:25:35Z</time>
      </trkpt>
      <trkpt lat="44.43399" lon="5.56002">
        <ele>973.2</ele>
        <time>2023-03-20T12:25:36Z</time>
      </trkpt>
      <trkpt lat="44.43396" lon="5.56">
        <ele>973.6</ele>
        <time>2023-03-20T12:25:37Z</time>
      </trkpt>
      <trkpt lat="44.43394" lon="5.56">
        <ele>973.7</ele>
        <time>2023-03-20T12:25:38Z</time>
      </trkpt>
      <trkpt lat="44.43392" lon="5.55998">
        <ele>974</ele>
        <time>2023-03-20T12:25:39Z</time>
      </trkpt>
      <trkpt lat="44.43389" lon="5.55996">
        <ele>974.3</ele>
        <time>2023-03-20T12:25:40Z</time>
      </trkpt>
      <trkpt lat="44.43388" lon="5.55995">
        <ele>974.4</ele>
        <time>2023-03-20T12:25:41Z</time>
      </trkpt>
      <trkpt lat="44.43385" lon="5.55992">
        <ele>974.7</ele>
        <time>2023-03-20T12:25:42Z</time>
      </trkpt>
      <trkpt lat="44.43385" lon="5.55991">
        <ele>974.8</ele>
        <time>2023-03-20T12:25:43Z</time>
      </trkpt>
      <trkpt lat="44.43383" lon="5.55988">
        <ele>975.1</ele>
        <time>2023-03-20T12:25:44Z</time>
      </trkpt>
      <trkpt lat="44.43382" lon="5.55987">
        <ele>975.2</ele>
        <time>2023-03-20T12:25:45Z</time>
      </trkpt>
      <trkpt lat="44.43381" lon="5.55984">
        <ele>975.4</ele>
        <time>2023-03-20T12:25:46Z</time>
      </trkpt>
      <trkpt lat="44.43379" lon="5.5598">
        <ele>975.6</ele>
        <time>2023-03-20T12:25:47Z</time>
      </trkpt>
      <trkpt lat="44.43377" lon="5.55976">
        <ele>975.9</ele>
        <time>2023-03-20T12:25:48Z</time>
      </trkpt>
      <trkpt lat="44.43375" lon="5.55972">
        <ele>976.2</ele>
        <time>2023-03-20T12:25:49Z</time>
      </trkpt>
      <trkpt lat="44.43374" lon="5.55969">
        <ele>976.4</ele>
        <time>2023-03-20T12:25:50Z</time>
      </trkpt>
      <trkpt lat="44.43372" lon="5.55964">
        <ele>976.7</ele>
        <time>2023-03-20T12:25:51Z</time>
      </trkpt>
      <trkpt lat="44.4337" lon="5.5596">
        <ele>977</ele>
        <time>2023-03-20T12:25:52Z</time>
      </trkpt>
      <trkpt lat="44.43369" lon="5.55955">
        <ele>977.2</ele>
        <time>2023-03-20T12:25:53Z</time>
      </trkpt>
      <trkpt lat="44.43368" lon="5.55951">
        <ele>977.5</ele>
        <time>2023-03-20T12:25:54Z</time>
      </trkpt>
      <trkpt lat="44.43367" lon="5.55947">
        <ele>977.7</ele>
        <time>2023-03-20T12:25:55Z</time>
      </trkpt>
      <trkpt lat="44.43366" lon="5.55942">
        <ele>978</ele>
        <time>2023-03-20T12:25:56Z</time>
      </trkpt>
      <trkpt lat="44.43364" lon="5.55937">
        <ele>978.3</ele>
        <time>2023-03-20T12:25:57Z</time>
      </trkpt>
      <trkpt lat="44.43363" lon="5.55933">
        <ele>978.6</ele>
        <time>2023-03-20T12:25:58Z</time>
      </trkpt>
      <trkpt lat="44.43361" lon="5.55929">
        <ele>978.9</ele>
        <time>2023-03-20T12:25:59Z</time>
      </trkpt>
      <trkpt lat="44.43359" lon="5.55925">
        <ele>979.2</ele>
        <time>2023-03-20T12:26:00Z</time>
      </trkpt>
      <trkpt lat="44.43357" lon="5.5592">
        <ele>979.6</ele>
        <time>2023-03-20T12:26:01Z</time>
      </trkpt>
      <trkpt lat="44.43355" lon="5.55916">
        <ele>980</ele>
        <time>2023-03-20T12:26:02Z</time>
      </trkpt>
      <trkpt lat="44.43354" lon="5.55912">
        <ele>980.3</ele>
        <time>2023-03-20T12:26:03Z</time>
      </trkpt>
      <trkpt lat="44.43352" lon="5.55908">
        <ele>980.7</ele>
        <time>2023-03-20T12:26:04Z</time>
      </trkpt>
      <trkpt lat="44.43351" lon="5.55903">
        <ele>981</ele>
        <time>2023-03-20T12:26:05Z</time>
      </trkpt>
      <trkpt lat="44.4335" lon="5.55898">
        <ele>981.3</ele>
        <time>2023-03-20T12:26:06Z</time>
      </trkpt>
      <trkpt lat="44.4335" lon="5.55894">
        <ele>981.6</ele>
        <time>2023-03-20T12:26:07Z</time>
      </trkpt>
      <trkpt lat="44.4335" lon="5.5589">
        <ele>981.9</ele>
        <time>2023-03-20T12:26:08Z</time>
      </trkpt>
      <trkpt lat="44.43349" lon="5.55885">
        <ele>982.2</ele>
        <time>2023-03-20T12:26:09Z</time>
      </trkpt>
      <trkpt lat="44.4335" lon="5.5588">
        <ele>984.2</ele>
        <time>2023-03-20T12:26:10Z</time>
      </trkpt>
      <trkpt lat="44.4335" lon="5.55876">
        <ele>986.3</ele>
        <time>2023-03-20T12:26:11Z</time>
      </trkpt>
      <trkpt lat="44.43351" lon="5.55871">
        <ele>988</ele>
        <time>2023-03-20T12:26:12Z</time>
      </trkpt>
      <trkpt lat="44.43351" lon="5.55866">
        <ele>990</ele>
        <time>2023-03-20T12:26:13Z</time>
      </trkpt>
      <trkpt lat="44.43352" lon="5.55862">
        <ele>992.1</ele>
        <time>2023-03-20T12:26:14Z</time>
      </trkpt>
      <trkpt lat="44.43352" lon="5.55857">
        <ele>994.1</ele>
        <time>2023-03-20T12:26:15Z</time>
      </trkpt>
      <trkpt lat="44.43352" lon="5.55853">
        <ele>993.8</ele>
        <time>2023-03-20T12:26:16Z</time>
      </trkpt>
      <trkpt lat="44.43352" lon="5.55848">
        <ele>993.5</ele>
        <time>2023-03-20T12:26:17Z</time>
      </trkpt>
      <trkpt lat="44.43353" lon="5.55844">
        <ele>993.3</ele>
        <time>2023-03-20T12:26:18Z</time>
      </trkpt>
      <trkpt lat="44.43353" lon="5.55839">
        <ele>993</ele>
        <time>2023-03-20T12:26:19Z</time>
      </trkpt>
      <trkpt lat="44.43353" lon="5.55835">
        <ele>992.8</ele>
        <time>2023-03-20T12:26:20Z</time>
      </trkpt>
      <trkpt lat="44.43354" lon="5.55831">
        <ele>992.5</ele>
        <time>2023-03-20T12:26:21Z</time>
      </trkpt>
      <trkpt lat="44.43354" lon="5.55827">
        <ele>992.3</ele>
        <time>2023-03-20T12:26:22Z</time>
      </trkpt>
      <trkpt lat="44.43354" lon="5.55823">
        <ele>992.1</ele>
        <time>2023-03-20T12:26:23Z</time>
      </trkpt>
      <trkpt lat="44.43354" lon="5.55819">
        <ele>991.9</ele>
        <time>2023-03-20T12:26:24Z</time>
      </trkpt>
      <trkpt lat="44.43353" lon="5.55815">
        <ele>991.7</ele>
        <time>2023-03-20T12:26:25Z</time>
      </trkpt>
      <trkpt lat="44.43353" lon="5.55811">
        <ele>991.5</ele>
        <time>2023-03-20T12:26:26Z</time>
      </trkpt>
      <trkpt lat="44.43353" lon="5.55807">
        <ele>991.3</ele>
        <time>2023-03-20T12:26:27Z</time>
      </trkpt>
      <trkpt lat="44.43353" lon="5.55801">
        <ele>991</ele>
        <time>2023-03-20T12:26:28Z</time>
      </trkpt>
      <trkpt lat="44.43353" lon="5.55799">
        <ele>991</ele>
        <time>2023-03-20T12:26:29Z</time>
      </trkpt>
      <trkpt lat="44.43353" lon="5.55795">
        <ele>991.2</ele>
        <time>2023-03-20T12:26:30Z</time>
      </trkpt>
      <trkpt lat="44.43352" lon="5.5579">
        <ele>991.5</ele>
        <time>2023-03-20T12:26:31Z</time>
      </trkpt>
      <trkpt lat="44.43351" lon="5.55788">
        <ele>991.6</ele>
        <time>2023-03-20T12:26:32Z</time>
      </trkpt>
      <trkpt lat="44.43351" lon="5.55784">
        <ele>991.8</ele>
        <time>2023-03-20T12:26:33Z</time>
      </trkpt>
      <trkpt lat="44.43349" lon="5.5578">
        <ele>992</ele>
        <time>2023-03-20T12:26:34Z</time>
      </trkpt>
      <trkpt lat="44.43348" lon="5.5578">
        <ele>992.1</ele>
        <time>2023-03-20T12:26:35Z</time>
      </trkpt>
      <trkpt lat="44.43345" lon="5.5578">
        <ele>992.3</ele>
        <time>2023-03-20T12:26:36Z</time>
      </trkpt>
      <trkpt lat="44.43344" lon="5.55781">
        <ele>992.4</ele>
        <time>2023-03-20T12:26:37Z</time>
      </trkpt>
      <trkpt lat="44.43341" lon="5.55783">
        <ele>992.6</ele>
        <time>2023-03-20T12:26:38Z</time>
      </trkpt>
      <trkpt lat="44.43338" lon="5.55786">
        <ele>992.9</ele>
        <time>2023-03-20T12:26:39Z</time>
      </trkpt>
      <trkpt lat="44.43337" lon="5.55788">
        <ele>993</ele>
        <time>2023-03-20T12:26:40Z</time>
      </trkpt>
      <trkpt lat="44.43336" lon="5.55791">
        <ele>993.2</ele>
        <time>2023-03-20T12:26:41Z</time>
      </trkpt>
      <trkpt lat="44.43336" lon="5.55793">
        <ele>993.3</ele>
        <time>2023-03-20T12:26:42Z</time>
      </trkpt>
      <trkpt lat="44.43335" lon="5.55797">
        <ele>993.6</ele>
        <time>2023-03-20T12:26:43Z</time>
      </trkpt>
      <trkpt lat="44.43335" lon="5.55799">
        <ele>993.6</ele>
        <time>2023-03-20T12:26:44Z</time>
      </trkpt>
      <trkpt lat="44.43334" lon="5.55803">
        <ele>994</ele>
        <time>2023-03-20T12:26:45Z</time>
      </trkpt>
      <trkpt lat="44.43334" lon="5.55805">
        <ele>994.1</ele>
        <time>2023-03-20T12:26:46Z</time>
      </trkpt>
      <trkpt lat="44.43332" lon="5.5581">
        <ele>994.4</ele>
        <time>2023-03-20T12:26:47Z</time>
      </trkpt>
      <trkpt lat="44.43332" lon="5.55812">
        <ele>994.5</ele>
        <time>2023-03-20T12:26:48Z</time>
      </trkpt>
      <trkpt lat="44.4333" lon="5.55815">
        <ele>994.8</ele>
        <time>2023-03-20T12:26:49Z</time>
      </trkpt>
      <trkpt lat="44.43329" lon="5.5582">
        <ele>995.1</ele>
        <time>2023-03-20T12:26:50Z</time>
      </trkpt>
      <trkpt lat="44.43328" lon="5.55824">
        <ele>995.4</ele>
        <time>2023-03-20T12:26:51Z</time>
      </trkpt>
      <trkpt lat="44.43327" lon="5.55828">
        <ele>995.7</ele>
        <time>2023-03-20T12:26:52Z</time>
      </trkpt>
      <trkpt lat="44.43326" lon="5.55833">
        <ele>996</ele>
        <time>2023-03-20T12:26:53Z</time>
      </trkpt>
      <trkpt lat="44.43326" lon="5.55838">
        <ele>996.3</ele>
        <time>2023-03-20T12:26:54Z</time>
      </trkpt>
      <trkpt lat="44.43325" lon="5.55842">
        <ele>996.6</ele>
        <time>2023-03-20T12:26:55Z</time>
      </trkpt>
      <trkpt lat="44.43324" lon="5.55847">
        <ele>996.9</ele>
        <time>2023-03-20T12:26:56Z</time>
      </trkpt>
      <trkpt lat="44.43323" lon="5.5585">
        <ele>997.1</ele>
        <time>2023-03-20T12:26:57Z</time>
      </trkpt>
      <trkpt lat="44.43323" lon="5.55854">
        <ele>997.4</ele>
        <time>2023-03-20T12:26:58Z</time>
      </trkpt>
      <trkpt lat="44.43322" lon="5.55859">
        <ele>997.7</ele>
        <time>2023-03-20T12:26:59Z</time>
      </trkpt>
      <trkpt lat="44.43321" lon="5.55863">
        <ele>998</ele>
        <time>2023-03-20T12:27:00Z</time>
      </trkpt>
      <trkpt lat="44.4332" lon="5.55867">
        <ele>998.2</ele>
        <time>2023-03-20T12:27:01Z</time>
      </trkpt>
      <trkpt lat="44.43319" lon="5.5587">
        <ele>998.5</ele>
        <time>2023-03-20T12:27:02Z</time>
      </trkpt>
      <trkpt lat="44.43318" lon="5.55874">
        <ele>998.8</ele>
        <time>2023-03-20T12:27:03Z</time>
      </trkpt>
      <trkpt lat="44.43318" lon="5.55878">
        <ele>999</ele>
        <time>2023-03-20T12:27:04Z</time>
      </trkpt>
      <trkpt lat="44.43317" lon="5.55882">
        <ele>999.3</ele>
        <time>2023-03-20T12:27:05Z</time>
      </trkpt>
      <trkpt lat="44.43316" lon="5.55887">
        <ele>999.5</ele>
        <time>2023-03-20T12:27:06Z</time>
      </trkpt>
      <trkpt lat="44.43315" lon="5.55891">
        <ele>999.8</ele>
        <time>2023-03-20T12:27:07Z</time>
      </trkpt>
      <trkpt lat="44.43315" lon="5.55895">
        <ele>1000</ele>
        <time>2023-03-20T12:27:08Z</time>
      </trkpt>
      <trkpt lat="44.43314" lon="5.55899">
        <ele>1000.2</ele>
        <time>2023-03-20T12:27:09Z</time>
      </trkpt>
      <trkpt lat="44.43314" lon="5.55903">
        <ele>1000.4</ele>
        <time>2023-03-20T12:27:10Z</time>
      </trkpt>
      <trkpt lat="44.43313" lon="5.55908">
        <ele>1000.7</ele>
        <time>2023-03-20T12:27:11Z</time>
      </trkpt>
      <trkpt lat="44.43312" lon="5.55912">
        <ele>1000.9</ele>
        <time>2023-03-20T12:27:12Z</time>
      </trkpt>
      <trkpt lat="44.43311" lon="5.55916">
        <ele>1001.1</ele>
        <time>2023-03-20T12:27:13Z</time>
      </trkpt>
      <trkpt lat="44.4331" lon="5.55921">
        <ele>1001.4</ele>
        <time>2023-03-20T12:27:14Z</time>
      </trkpt>
      <trkpt lat="44.43309" lon="5.55923">
        <ele>1001.5</ele>
        <time>2023-03-20T12:27:15Z</time>
      </trkpt>
      <trkpt lat="44.43308" lon="5.55928">
        <ele>1001.8</ele>
        <time>2023-03-20T12:27:16Z</time>
      </trkpt>
      <trkpt lat="44.43308" lon="5.5593">
        <ele>1002</ele>
        <time>2023-03-20T12:27:17Z</time>
      </trkpt>
      <trkpt lat="44.43307" lon="5.55935">
        <ele>1002.3</ele>
        <time>2023-03-20T12:27:18Z</time>
      </trkpt>
      <trkpt lat="44.43307" lon="5.55939">
        <ele>1002.5</ele>
        <time>2023-03-20T12:27:19Z</time>
      </trkpt>
      <trkpt lat="44.43307" lon="5.55943">
        <ele>1002.7</ele>
        <time>2023-03-20T12:27:20Z</time>
      </trkpt>
      <trkpt lat="44.43307" lon="5.55947">
        <ele>1003</ele>
        <time>2023-03-20T12:27:21Z</time>
      </trkpt>
      <trkpt lat="44.43307" lon="5.55951">
        <ele>1003.2</ele>
        <time>2023-03-20T12:27:22Z</time>
      </trkpt>
      <trkpt lat="44.43306" lon="5.55955">
        <ele>1003.4</ele>
        <time>2023-03-20T12:27:23Z</time>
      </trkpt>
      <trkpt lat="44.43306" lon="5.5596">
        <ele>1003.7</ele>
        <time>2023-03-20T12:27:24Z</time>
      </trkpt>
      <trkpt lat="44.43306" lon="5.55964">
        <ele>1003.9</ele>
        <time>2023-03-20T12:27:25Z</time>
      </trkpt>
      <trkpt lat="44.43307" lon="5.55968">
        <ele>1004.2</ele>
        <time>2023-03-20T12:27:26Z</time>
      </trkpt>
      <trkpt lat="44.43308" lon="5.55973">
        <ele>1004.4</ele>
        <time>2023-03-20T12:27:27Z</time>
      </trkpt>
      <trkpt lat="44.43309" lon="5.55977">
        <ele>1004.7</ele>
        <time>2023-03-20T12:27:28Z</time>
      </trkpt>
      <trkpt lat="44.4331" lon="5.55981">
        <ele>1004.9</ele>
        <time>2023-03-20T12:27:29Z</time>
      </trkpt>
      <trkpt lat="44.43311" lon="5.55985">
        <ele>1005.2</ele>
        <time>2023-03-20T12:27:30Z</time>
      </trkpt>
      <trkpt lat="44.43312" lon="5.55989">
        <ele>1005.5</ele>
        <time>2023-03-20T12:27:31Z</time>
      </trkpt>
      <trkpt lat="44.43313" lon="5.55994">
        <ele>1005.7</ele>
        <time>2023-03-20T12:27:32Z</time>
      </trkpt>
      <trkpt lat="44.43313" lon="5.55998">
        <ele>1006</ele>
        <time>2023-03-20T12:27:33Z</time>
      </trkpt>
      <trkpt lat="44.43313" lon="5.56003">
        <ele>1006.2</ele>
        <time>2023-03-20T12:27:34Z</time>
      </trkpt>
      <trkpt lat="44.43314" lon="5.56007">
        <ele>1006.5</ele>
        <time>2023-03-20T12:27:35Z</time>
      </trkpt>
      <trkpt lat="44.43314" lon="5.56012">
        <ele>1006.7</ele>
        <time>2023-03-20T12:27:36Z</time>
      </trkpt>
      <trkpt lat="44.43314" lon="5.56016">
        <ele>1006.9</ele>
        <time>2023-03-20T12:27:37Z</time>
      </trkpt>
      <trkpt lat="44.43313" lon="5.56021">
        <ele>1007.2</ele>
        <time>2023-03-20T12:27:38Z</time>
      </trkpt>
      <trkpt lat="44.43312" lon="5.56025">
        <ele>1007.4</ele>
        <time>2023-03-20T12:27:39Z</time>
      </trkpt>
      <trkpt lat="44.43311" lon="5.56028">
        <ele>1007.6</ele>
        <time>2023-03-20T12:27:40Z</time>
      </trkpt>
      <trkpt lat="44.4331" lon="5.56032">
        <ele>1007.9</ele>
        <time>2023-03-20T12:27:41Z</time>
      </trkpt>
      <trkpt lat="44.43308" lon="5.56037">
        <ele>1008.2</ele>
        <time>2023-03-20T12:27:42Z</time>
      </trkpt>
      <trkpt lat="44.43307" lon="5.56038">
        <ele>1008.2</ele>
        <time>2023-03-20T12:27:43Z</time>
      </trkpt>
      <trkpt lat="44.43306" lon="5.56043">
        <ele>1008.5</ele>
        <time>2023-03-20T12:27:44Z</time>
      </trkpt>
      <trkpt lat="44.43305" lon="5.56045">
        <ele>1008.7</ele>
        <time>2023-03-20T12:27:45Z</time>
      </trkpt>
      <trkpt lat="44.43303" lon="5.56049">
        <ele>1008.9</ele>
        <time>2023-03-20T12:27:46Z</time>
      </trkpt>
      <trkpt lat="44.43302" lon="5.56054">
        <ele>1009.3</ele>
        <time>2023-03-20T12:27:47Z</time>
      </trkpt>
      <trkpt lat="44.43302" lon="5.56059">
        <ele>1009.5</ele>
        <time>2023-03-20T12:27:48Z</time>
      </trkpt>
      <trkpt lat="44.43301" lon="5.56064">
        <ele>1009.8</ele>
        <time>2023-03-20T12:27:49Z</time>
      </trkpt>
      <trkpt lat="44.43301" lon="5.56069">
        <ele>1010.1</ele>
        <time>2023-03-20T12:27:50Z</time>
      </trkpt>
      <trkpt lat="44.433" lon="5.56073">
        <ele>1010.3</ele>
        <time>2023-03-20T12:27:51Z</time>
      </trkpt>
      <trkpt lat="44.433" lon="5.56077">
        <ele>1010.6</ele>
        <time>2023-03-20T12:27:52Z</time>
      </trkpt>
      <trkpt lat="44.433" lon="5.56082">
        <ele>1010.8</ele>
        <time>2023-03-20T12:27:53Z</time>
      </trkpt>
      <trkpt lat="44.433" lon="5.56086">
        <ele>1011.1</ele>
        <time>2023-03-20T12:27:54Z</time>
      </trkpt>
      <trkpt lat="44.433" lon="5.5609">
        <ele>1011.3</ele>
        <time>2023-03-20T12:27:55Z</time>
      </trkpt>
      <trkpt lat="44.433" lon="5.56095">
        <ele>1011.6</ele>
        <time>2023-03-20T12:27:56Z</time>
      </trkpt>
      <trkpt lat="44.433" lon="5.56099">
        <ele>1011.8</ele>
        <time>2023-03-20T12:27:57Z</time>
      </trkpt>
      <trkpt lat="44.433" lon="5.56103">
        <ele>1012</ele>
        <time>2023-03-20T12:27:58Z</time>
      </trkpt>
      <trkpt lat="44.433" lon="5.56107">
        <ele>1012.2</ele>
        <time>2023-03-20T12:27:59Z</time>
      </trkpt>
      <trkpt lat="44.43301" lon="5.56111">
        <ele>1012.5</ele>
        <time>2023-03-20T12:28:00Z</time>
      </trkpt>
      <trkpt lat="44.43302" lon="5.56114">
        <ele>1012.7</ele>
        <time>2023-03-20T12:28:01Z</time>
      </trkpt>
      <trkpt lat="44.43304" lon="5.56118">
        <ele>1012.9</ele>
        <time>2023-03-20T12:28:02Z</time>
      </trkpt>
      <trkpt lat="44.43305" lon="5.56122">
        <ele>1013.1</ele>
        <time>2023-03-20T12:28:03Z</time>
      </trkpt>
      <trkpt lat="44.43307" lon="5.56125">
        <ele>1013.3</ele>
        <time>2023-03-20T12:28:04Z</time>
      </trkpt>
      <trkpt lat="44.43309" lon="5.56129">
        <ele>1013.5</ele>
        <time>2023-03-20T12:28:05Z</time>
      </trkpt>
      <trkpt lat="44.4331" lon="5.56132">
        <ele>1013.7</ele>
        <time>2023-03-20T12:28:06Z</time>
      </trkpt>
      <trkpt lat="44.43311" lon="5.56136">
        <ele>1013.9</ele>
        <time>2023-03-20T12:28:07Z</time>
      </trkpt>
      <trkpt lat="44.43312" lon="5.5614">
        <ele>1014.1</ele>
        <time>2023-03-20T12:28:08Z</time>
      </trkpt>
      <trkpt lat="44.43312" lon="5.56144">
        <ele>1014.3</ele>
        <time>2023-03-20T12:28:09Z</time>
      </trkpt>
      <trkpt lat="44.43312" lon="5.56148">
        <ele>1014.5</ele>
        <time>2023-03-20T12:28:10Z</time>
      </trkpt>
      <trkpt lat="44.43312" lon="5.56153">
        <ele>1014.7</ele>
        <time>2023-03-20T12:28:11Z</time>
      </trkpt>
      <trkpt lat="44.43312" lon="5.56155">
        <ele>1014.8</ele>
        <time>2023-03-20T12:28:12Z</time>
      </trkpt>
      <trkpt lat="44.43311" lon="5.56159">
        <ele>1015</ele>
        <time>2023-03-20T12:28:13Z</time>
      </trkpt>
      <trkpt lat="44.4331" lon="5.56164">
        <ele>1015.3</ele>
        <time>2023-03-20T12:28:14Z</time>
      </trkpt>
      <trkpt lat="44.43309" lon="5.56168">
        <ele>1015.5</ele>
        <time>2023-03-20T12:28:15Z</time>
      </trkpt>
      <trkpt lat="44.43309" lon="5.56173">
        <ele>1015.7</ele>
        <time>2023-03-20T12:28:16Z</time>
      </trkpt>
      <trkpt lat="44.43308" lon="5.56177">
        <ele>1015.9</ele>
        <time>2023-03-20T12:28:17Z</time>
      </trkpt>
      <trkpt lat="44.43307" lon="5.56182">
        <ele>1016.1</ele>
        <time>2023-03-20T12:28:18Z</time>
      </trkpt>
      <trkpt lat="44.43307" lon="5.56186">
        <ele>1016.3</ele>
        <time>2023-03-20T12:28:19Z</time>
      </trkpt>
      <trkpt lat="44.43308" lon="5.5619">
        <ele>1016.5</ele>
        <time>2023-03-20T12:28:20Z</time>
      </trkpt>
      <trkpt lat="44.43308" lon="5.56194">
        <ele>1016.7</ele>
        <time>2023-03-20T12:28:21Z</time>
      </trkpt>
      <trkpt lat="44.43309" lon="5.56199">
        <ele>1016.9</ele>
        <time>2023-03-20T12:28:22Z</time>
      </trkpt>
      <trkpt lat="44.4331" lon="5.56203">
        <ele>1017.1</ele>
        <time>2023-03-20T12:28:23Z</time>
      </trkpt>
      <trkpt lat="44.43311" lon="5.56208">
        <ele>1017.4</ele>
        <time>2023-03-20T12:28:24Z</time>
      </trkpt>
      <trkpt lat="44.43312" lon="5.56212">
        <ele>1017.6</ele>
        <time>2023-03-20T12:28:25Z</time>
      </trkpt>
      <trkpt lat="44.43312" lon="5.56216">
        <ele>1017.8</ele>
        <time>2023-03-20T12:28:26Z</time>
      </trkpt>
      <trkpt lat="44.43312" lon="5.5622">
        <ele>1018.1</ele>
        <time>2023-03-20T12:28:27Z</time>
      </trkpt>
      <trkpt lat="44.43312" lon="5.56224">
        <ele>1018.3</ele>
        <time>2023-03-20T12:28:28Z</time>
      </trkpt>
      <trkpt lat="44.43312" lon="5.56229">
        <ele>1018.6</ele>
        <time>2023-03-20T12:28:29Z</time>
      </trkpt>
      <trkpt lat="44.43312" lon="5.56233">
        <ele>1018.8</ele>
        <time>2023-03-20T12:28:30Z</time>
      </trkpt>
      <trkpt lat="44.43312" lon="5.56238">
        <ele>1019.2</ele>
        <time>2023-03-20T12:28:31Z</time>
      </trkpt>
      <trkpt lat="44.43312" lon="5.5624">
        <ele>1019.3</ele>
        <time>2023-03-20T12:28:32Z</time>
      </trkpt>
      <trkpt lat="44.43312" lon="5.56245">
        <ele>1019.6</ele>
        <time>2023-03-20T12:28:33Z</time>
      </trkpt>
      <trkpt lat="44.43311" lon="5.56247">
        <ele>1019.7</ele>
        <time>2023-03-20T12:28:34Z</time>
      </trkpt>
      <trkpt lat="44.4331" lon="5.56251">
        <ele>1020</ele>
        <time>2023-03-20T12:28:35Z</time>
      </trkpt>
      <trkpt lat="44.43309" lon="5.56254">
        <ele>1020.2</ele>
        <time>2023-03-20T12:28:36Z</time>
      </trkpt>
      <trkpt lat="44.43308" lon="5.56259">
        <ele>1020.6</ele>
        <time>2023-03-20T12:28:37Z</time>
      </trkpt>
      <trkpt lat="44.43308" lon="5.56261">
        <ele>1020.7</ele>
        <time>2023-03-20T12:28:38Z</time>
      </trkpt>
      <trkpt lat="44.43306" lon="5.56265">
        <ele>1021</ele>
        <time>2023-03-20T12:28:39Z</time>
      </trkpt>
      <trkpt lat="44.43306" lon="5.56267">
        <ele>1021.1</ele>
        <time>2023-03-20T12:28:40Z</time>
      </trkpt>
      <trkpt lat="44.43304" lon="5.5627">
        <ele>1021.3</ele>
        <time>2023-03-20T12:28:41Z</time>
      </trkpt>
      <trkpt lat="44.43303" lon="5.56272">
        <ele>1021.4</ele>
        <time>2023-03-20T12:28:42Z</time>
      </trkpt>
      <trkpt lat="44.433" lon="5.56275">
        <ele>1021.6</ele>
        <time>2023-03-20T12:28:43Z</time>
      </trkpt>
      <trkpt lat="44.43299" lon="5.56276">
        <ele>1021.7</ele>
        <time>2023-03-20T12:28:44Z</time>
      </trkpt>
      <trkpt lat="44.43296" lon="5.56279">
        <ele>1022</ele>
        <time>2023-03-20T12:28:45Z</time>
      </trkpt>
      <trkpt lat="44.43295" lon="5.5628">
        <ele>1022</ele>
        <time>2023-03-20T12:28:46Z</time>
      </trkpt>
      <trkpt lat="44.43294" lon="5.56283">
        <ele>1022.2</ele>
        <time>2023-03-20T12:28:47Z</time>
      </trkpt>
      <trkpt lat="44.43293" lon="5.56284">
        <ele>1022.3</ele>
        <time>2023-03-20T12:28:48Z</time>
      </trkpt>
      <trkpt lat="44.43291" lon="5.56288">
        <ele>1022.5</ele>
        <time>2023-03-20T12:28:49Z</time>
      </trkpt>
      <trkpt lat="44.4329" lon="5.56289">
        <ele>1022.6</ele>
        <time>2023-03-20T12:28:50Z</time>
      </trkpt>
      <trkpt lat="44.43289" lon="5.56294">
        <ele>1022.8</ele>
        <time>2023-03-20T12:28:51Z</time>
      </trkpt>
      <trkpt lat="44.43289" lon="5.56296">
        <ele>1022.9</ele>
        <time>2023-03-20T12:28:52Z</time>
      </trkpt>
      <trkpt lat="44.43289" lon="5.56301">
        <ele>1023.2</ele>
        <time>2023-03-20T12:28:53Z</time>
      </trkpt>
      <trkpt lat="44.43289" lon="5.56305">
        <ele>1023.4</ele>
        <time>2023-03-20T12:28:54Z</time>
      </trkpt>
      <trkpt lat="44.4329" lon="5.56309">
        <ele>1023.6</ele>
        <time>2023-03-20T12:28:55Z</time>
      </trkpt>
      <trkpt lat="44.4329" lon="5.56315">
        <ele>1024</ele>
        <time>2023-03-20T12:28:56Z</time>
      </trkpt>
      <trkpt lat="44.4329" lon="5.56317">
        <ele>1024.1</ele>
        <time>2023-03-20T12:28:57Z</time>
      </trkpt>
      <trkpt lat="44.4329" lon="5.56321">
        <ele>1024.4</ele>
        <time>2023-03-20T12:28:58Z</time>
      </trkpt>
      <trkpt lat="44.4329" lon="5.56326">
        <ele>1024.7</ele>
        <time>2023-03-20T12:28:59Z</time>
      </trkpt>
      <trkpt lat="44.4329" lon="5.56328">
        <ele>1024.8</ele>
        <time>2023-03-20T12:29:00Z</time>
      </trkpt>
      <trkpt lat="44.43289" lon="5.56333">
        <ele>1025.2</ele>
        <time>2023-03-20T12:29:01Z</time>
      </trkpt>
      <trkpt lat="44.43289" lon="5.56335">
        <ele>1025.3</ele>
        <time>2023-03-20T12:29:02Z</time>
      </trkpt>
      <trkpt lat="44.43288" lon="5.56338">
        <ele>1025.6</ele>
        <time>2023-03-20T12:29:03Z</time>
      </trkpt>
      <trkpt lat="44.43286" lon="5.56342">
        <ele>1025.8</ele>
        <time>2023-03-20T12:29:04Z</time>
      </trkpt>
      <trkpt lat="44.43285" lon="5.56346">
        <ele>1026.2</ele>
        <time>2023-03-20T12:29:05Z</time>
      </trkpt>
      <trkpt lat="44.43284" lon="5.56351">
        <ele>1026.5</ele>
        <time>2023-03-20T12:29:06Z</time>
      </trkpt>
      <trkpt lat="44.43283" lon="5.56355">
        <ele>1026.7</ele>
        <time>2023-03-20T12:29:07Z</time>
      </trkpt>
      <trkpt lat="44.43282" lon="5.56359">
        <ele>1027</ele>
        <time>2023-03-20T12:29:08Z</time>
      </trkpt>
      <trkpt lat="44.43282" lon="5.56363">
        <ele>1027.2</ele>
        <time>2023-03-20T12:29:09Z</time>
      </trkpt>
      <trkpt lat="44.43283" lon="5.56367">
        <ele>1027.4</ele>
        <time>2023-03-20T12:29:10Z</time>
      </trkpt>
      <trkpt lat="44.43285" lon="5.56371">
        <ele>1027.7</ele>
        <time>2023-03-20T12:29:11Z</time>
      </trkpt>
      <trkpt lat="44.43287" lon="5.56373">
        <ele>1027.9</ele>
        <time>2023-03-20T12:29:12Z</time>
      </trkpt>
      <trkpt lat="44.43289" lon="5.56376">
        <ele>1028.1</ele>
        <time>2023-03-20T12:29:13Z</time>
      </trkpt>
      <trkpt lat="44.43291" lon="5.56379">
        <ele>1028.3</ele>
        <time>2023-03-20T12:29:14Z</time>
      </trkpt>
      <trkpt lat="44.43294" lon="5.56382">
        <ele>1028.5</ele>
        <time>2023-03-20T12:29:15Z</time>
      </trkpt>
      <trkpt lat="44.43296" lon="5.56385">
        <ele>1028.8</ele>
        <time>2023-03-20T12:29:16Z</time>
      </trkpt>
      <trkpt lat="44.43298" lon="5.56388">
        <ele>1029</ele>
        <time>2023-03-20T12:29:17Z</time>
      </trkpt>
      <trkpt lat="44.433" lon="5.56391">
        <ele>1029.3</ele>
        <time>2023-03-20T12:29:18Z</time>
      </trkpt>
      <trkpt lat="44.43302" lon="5.56394">
        <ele>1029.5</ele>
        <time>2023-03-20T12:29:19Z</time>
      </trkpt>
      <trkpt lat="44.43305" lon="5.56397">
        <ele>1029.8</ele>
        <time>2023-03-20T12:29:20Z</time>
      </trkpt>
      <trkpt lat="44.43307" lon="5.564">
        <ele>1030</ele>
        <time>2023-03-20T12:29:21Z</time>
      </trkpt>
      <trkpt lat="44.43308" lon="5.56403">
        <ele>1030.2</ele>
        <time>2023-03-20T12:29:22Z</time>
      </trkpt>
      <trkpt lat="44.4331" lon="5.56406">
        <ele>1030.4</ele>
        <time>2023-03-20T12:29:23Z</time>
      </trkpt>
      <trkpt lat="44.43312" lon="5.56409">
        <ele>1030.6</ele>
        <time>2023-03-20T12:29:24Z</time>
      </trkpt>
      <trkpt lat="44.43313" lon="5.56414">
        <ele>1030.9</ele>
        <time>2023-03-20T12:29:25Z</time>
      </trkpt>
      <trkpt lat="44.43314" lon="5.56415">
        <ele>1031</ele>
        <time>2023-03-20T12:29:26Z</time>
      </trkpt>
      <trkpt lat="44.43315" lon="5.5642">
        <ele>1031.3</ele>
        <time>2023-03-20T12:29:27Z</time>
      </trkpt>
      <trkpt lat="44.43316" lon="5.56422">
        <ele>1031.4</ele>
        <time>2023-03-20T12:29:28Z</time>
      </trkpt>
      <trkpt lat="44.43317" lon="5.56427">
        <ele>1031.7</ele>
        <time>2023-03-20T12:29:29Z</time>
      </trkpt>
      <trkpt lat="44.43317" lon="5.56429">
        <ele>1031.9</ele>
        <time>2023-03-20T12:29:30Z</time>
      </trkpt>
      <trkpt lat="44.43318" lon="5.56435">
        <ele>1032.2</ele>
        <time>2023-03-20T12:29:31Z</time>
      </trkpt>
      <trkpt lat="44.43318" lon="5.56437">
        <ele>1032.4</ele>
        <time>2023-03-20T12:29:32Z</time>
      </trkpt>
      <trkpt lat="44.43318" lon="5.56442">
        <ele>1032.8</ele>
        <time>2023-03-20T12:29:33Z</time>
      </trkpt>
      <trkpt lat="44.43319" lon="5.56444">
        <ele>1032.9</ele>
        <time>2023-03-20T12:29:34Z</time>
      </trkpt>
      <trkpt lat="44.43319" lon="5.56447">
        <ele>1033.1</ele>
        <time>2023-03-20T12:29:35Z</time>
      </trkpt>
      <trkpt lat="44.4332" lon="5.56451">
        <ele>1033.4</ele>
        <time>2023-03-20T12:29:36Z</time>
      </trkpt>
      <trkpt lat="44.43322" lon="5.56455">
        <ele>1033.7</ele>
        <time>2023-03-20T12:29:37Z</time>
      </trkpt>
      <trkpt lat="44.43324" lon="5.56459">
        <ele>1034</ele>
        <time>2023-03-20T12:29:38Z</time>
      </trkpt>
      <trkpt lat="44.43325" lon="5.56462">
        <ele>1034.2</ele>
        <time>2023-03-20T12:29:39Z</time>
      </trkpt>
      <trkpt lat="44.43327" lon="5.56466">
        <ele>1034.3</ele>
        <time>2023-03-20T12:29:40Z</time>
      </trkpt>
      <trkpt lat="44.43328" lon="5.56468">
        <ele>1034.5</ele>
        <time>2023-03-20T12:29:41Z</time>
      </trkpt>
      <trkpt lat="44.4333" lon="5.56471">
        <ele>1035</ele>
        <time>2023-03-20T12:29:42Z</time>
      </trkpt>
      <trkpt lat="44.43332" lon="5.56474">
        <ele>1035.4</ele>
        <time>2023-03-20T12:29:43Z</time>
      </trkpt>
      <trkpt lat="44.43334" lon="5.56478">
        <ele>1035.9</ele>
        <time>2023-03-20T12:29:44Z</time>
      </trkpt>
      <trkpt lat="44.43335" lon="5.56481">
        <ele>1036.4</ele>
        <time>2023-03-20T12:29:45Z</time>
      </trkpt>
      <trkpt lat="44.43337" lon="5.56486">
        <ele>1037</ele>
        <time>2023-03-20T12:29:46Z</time>
      </trkpt>
      <trkpt lat="44.43338" lon="5.56488">
        <ele>1037.2</ele>
        <time>2023-03-20T12:29:47Z</time>
      </trkpt>
      <trkpt lat="44.43339" lon="5.56491">
        <ele>1037.7</ele>
        <time>2023-03-20T12:29:48Z</time>
      </trkpt>
      <trkpt lat="44.43341" lon="5.56494">
        <ele>1038.1</ele>
        <time>2023-03-20T12:29:49Z</time>
      </trkpt>
      <trkpt lat="44.43342" lon="5.56499">
        <ele>1038.8</ele>
        <time>2023-03-20T12:29:50Z</time>
      </trkpt>
      <trkpt lat="44.43342" lon="5.56501">
        <ele>1039</ele>
        <time>2023-03-20T12:29:51Z</time>
      </trkpt>
      <trkpt lat="44.43344" lon="5.56508">
        <ele>1039.8</ele>
        <time>2023-03-20T12:29:53Z</time>
      </trkpt>
      <trkpt lat="44.43344" lon="5.56512">
        <ele>1040.3</ele>
        <time>2023-03-20T12:29:54Z</time>
      </trkpt>
      <trkpt lat="44.43345" lon="5.56516">
        <ele>1040.8</ele>
        <time>2023-03-20T12:29:55Z</time>
      </trkpt>
      <trkpt lat="44.43345" lon="5.5652">
        <ele>1041.2</ele>
        <time>2023-03-20T12:29:56Z</time>
      </trkpt>
      <trkpt lat="44.43346" lon="5.56524">
        <ele>1041.7</ele>
        <time>2023-03-20T12:29:57Z</time>
      </trkpt>
      <trkpt lat="44.43347" lon="5.56528">
        <ele>1042.1</ele>
        <time>2023-03-20T12:29:58Z</time>
      </trkpt>
      <trkpt lat="44.43348" lon="5.56533">
        <ele>1042.7</ele>
        <time>2023-03-20T12:29:59Z</time>
      </trkpt>
      <trkpt lat="44.43348" lon="5.56535">
        <ele>1042.9</ele>
        <time>2023-03-20T12:30:00Z</time>
      </trkpt>
      <trkpt lat="44.4335" lon="5.56539">
        <ele>1043.4</ele>
        <time>2023-03-20T12:30:01Z</time>
      </trkpt>
      <trkpt lat="44.4335" lon="5.56541">
        <ele>1043.6</ele>
        <time>2023-03-20T12:30:02Z</time>
      </trkpt>
      <trkpt lat="44.43352" lon="5.56546">
        <ele>1044.2</ele>
        <time>2023-03-20T12:30:03Z</time>
      </trkpt>
      <trkpt lat="44.43352" lon="5.56548">
        <ele>1044.4</ele>
        <time>2023-03-20T12:30:04Z</time>
      </trkpt>
      <trkpt lat="44.43353" lon="5.56552">
        <ele>1044.8</ele>
        <time>2023-03-20T12:30:05Z</time>
      </trkpt>
      <trkpt lat="44.43354" lon="5.56556">
        <ele>1045.2</ele>
        <time>2023-03-20T12:30:06Z</time>
      </trkpt>
      <trkpt lat="44.43354" lon="5.56561">
        <ele>1045.8</ele>
        <time>2023-03-20T12:30:07Z</time>
      </trkpt>
      <trkpt lat="44.43354" lon="5.56563">
        <ele>1046</ele>
        <time>2023-03-20T12:30:08Z</time>
      </trkpt>
      <trkpt lat="44.43355" lon="5.56569">
        <ele>1046.5</ele>
        <time>2023-03-20T12:30:09Z</time>
      </trkpt>
      <trkpt lat="44.43355" lon="5.5657">
        <ele>1046.7</ele>
        <time>2023-03-20T12:30:10Z</time>
      </trkpt>
      <trkpt lat="44.43355" lon="5.56574">
        <ele>1047.1</ele>
        <time>2023-03-20T12:30:11Z</time>
      </trkpt>
      <trkpt lat="44.43356" lon="5.5658">
        <ele>1047.6</ele>
        <time>2023-03-20T12:30:12Z</time>
      </trkpt>
      <trkpt lat="44.43357" lon="5.56582">
        <ele>1047.8</ele>
        <time>2023-03-20T12:30:13Z</time>
      </trkpt>
      <trkpt lat="44.43357" lon="5.56585">
        <ele>1048.1</ele>
        <time>2023-03-20T12:30:14Z</time>
      </trkpt>
      <trkpt lat="44.43358" lon="5.5659">
        <ele>1048.6</ele>
        <time>2023-03-20T12:30:15Z</time>
      </trkpt>
      <trkpt lat="44.43359" lon="5.56594">
        <ele>1049</ele>
        <time>2023-03-20T12:30:16Z</time>
      </trkpt>
      <trkpt lat="44.4336" lon="5.56598">
        <ele>1049.4</ele>
        <time>2023-03-20T12:30:17Z</time>
      </trkpt>
      <trkpt lat="44.43361" lon="5.56603">
        <ele>1049.9</ele>
        <time>2023-03-20T12:30:18Z</time>
      </trkpt>
      <trkpt lat="44.43362" lon="5.56608">
        <ele>1050.3</ele>
        <time>2023-03-20T12:30:19Z</time>
      </trkpt>
      <trkpt lat="44.43363" lon="5.56612">
        <ele>1053.6</ele>
        <time>2023-03-20T12:30:20Z</time>
      </trkpt>
      <trkpt lat="44.43361" lon="5.56616">
        <ele>1053.7</ele>
        <time>2023-03-20T12:30:21Z</time>
      </trkpt>
      <trkpt lat="44.4336" lon="5.56617">
        <ele>1053.8</ele>
        <time>2023-03-20T12:30:22Z</time>
      </trkpt>
      <trkpt lat="44.43357" lon="5.56617">
        <ele>1054</ele>
        <time>2023-03-20T12:30:23Z</time>
      </trkpt>
      <trkpt lat="44.43356" lon="5.56617">
        <ele>1054.1</ele>
        <time>2023-03-20T12:30:24Z</time>
      </trkpt>
      <trkpt lat="44.43354" lon="5.56615">
        <ele>1054.2</ele>
        <time>2023-03-20T12:30:25Z</time>
      </trkpt>
      <trkpt lat="44.43353" lon="5.56614">
        <ele>1054.3</ele>
        <time>2023-03-20T12:30:26Z</time>
      </trkpt>
      <trkpt lat="44.43351" lon="5.56609">
        <ele>1054.5</ele>
        <time>2023-03-20T12:30:27Z</time>
      </trkpt>
      <trkpt lat="44.43351" lon="5.56608">
        <ele>1054.6</ele>
        <time>2023-03-20T12:30:28Z</time>
      </trkpt>
      <trkpt lat="44.43349" lon="5.56603">
        <ele>1054.8</ele>
        <time>2023-03-20T12:30:29Z</time>
      </trkpt>
      <trkpt lat="44.43349" lon="5.56602">
        <ele>1054.8</ele>
        <time>2023-03-20T12:30:30Z</time>
      </trkpt>
      <trkpt lat="44.43347" lon="5.56598">
        <ele>1055</ele>
        <time>2023-03-20T12:30:31Z</time>
      </trkpt>
      <trkpt lat="44.43347" lon="5.56596">
        <ele>1055.1</ele>
        <time>2023-03-20T12:30:32Z</time>
      </trkpt>
      <trkpt lat="44.43345" lon="5.56592">
        <ele>1055.3</ele>
        <time>2023-03-20T12:30:33Z</time>
      </trkpt>
      <trkpt lat="44.43345" lon="5.56591">
        <ele>1055.4</ele>
        <time>2023-03-20T12:30:34Z</time>
      </trkpt>
      <trkpt lat="44.43343" lon="5.56586">
        <ele>1055.6</ele>
        <time>2023-03-20T12:30:35Z</time>
      </trkpt>
      <trkpt lat="44.43342" lon="5.56584">
        <ele>1055.7</ele>
        <time>2023-03-20T12:30:36Z</time>
      </trkpt>
      <trkpt lat="44.4334" lon="5.5658">
        <ele>1055.9</ele>
        <time>2023-03-20T12:30:37Z</time>
      </trkpt>
      <trkpt lat="44.4334" lon="5.56578">
        <ele>1056</ele>
        <time>2023-03-20T12:30:38Z</time>
      </trkpt>
      <trkpt lat="44.43337" lon="5.56574">
        <ele>1056.2</ele>
        <time>2023-03-20T12:30:39Z</time>
      </trkpt>
      <trkpt lat="44.43336" lon="5.56572">
        <ele>1056.3</ele>
        <time>2023-03-20T12:30:40Z</time>
      </trkpt>
      <trkpt lat="44.43334" lon="5.56568">
        <ele>1056.5</ele>
        <time>2023-03-20T12:30:41Z</time>
      </trkpt>
      <trkpt lat="44.43333" lon="5.56566">
        <ele>1056.6</ele>
        <time>2023-03-20T12:30:42Z</time>
      </trkpt>
      <trkpt lat="44.43331" lon="5.56562">
        <ele>1056.8</ele>
        <time>2023-03-20T12:30:43Z</time>
      </trkpt>
      <trkpt lat="44.4333" lon="5.56558">
        <ele>1057</ele>
        <time>2023-03-20T12:30:44Z</time>
      </trkpt>
      <trkpt lat="44.43329" lon="5.56554">
        <ele>1057.1</ele>
        <time>2023-03-20T12:30:45Z</time>
      </trkpt>
      <trkpt lat="44.43328" lon="5.5655">
        <ele>1057.3</ele>
        <time>2023-03-20T12:30:46Z</time>
      </trkpt>
      <trkpt lat="44.43327" lon="5.56546">
        <ele>1057.5</ele>
        <time>2023-03-20T12:30:47Z</time>
      </trkpt>
      <trkpt lat="44.43326" lon="5.56542">
        <ele>1057.7</ele>
        <time>2023-03-20T12:30:48Z</time>
      </trkpt>
      <trkpt lat="44.43325" lon="5.5654">
        <ele>1057.8</ele>
        <time>2023-03-20T12:30:49Z</time>
      </trkpt>
      <trkpt lat="44.43323" lon="5.56535">
        <ele>1058</ele>
        <time>2023-03-20T12:30:50Z</time>
      </trkpt>
      <trkpt lat="44.43323" lon="5.56533">
        <ele>1058.1</ele>
        <time>2023-03-20T12:30:51Z</time>
      </trkpt>
      <trkpt lat="44.43321" lon="5.5653">
        <ele>1058.3</ele>
        <time>2023-03-20T12:30:52Z</time>
      </trkpt>
      <trkpt lat="44.43319" lon="5.56527">
        <ele>1058.4</ele>
        <time>2023-03-20T12:30:53Z</time>
      </trkpt>
      <trkpt lat="44.43318" lon="5.56524">
        <ele>1058.6</ele>
        <time>2023-03-20T12:30:54Z</time>
      </trkpt>
      <trkpt lat="44.43316" lon="5.56521">
        <ele>1058.7</ele>
        <time>2023-03-20T12:30:55Z</time>
      </trkpt>
      <trkpt lat="44.43313" lon="5.56518">
        <ele>1058.9</ele>
        <time>2023-03-20T12:30:56Z</time>
      </trkpt>
      <trkpt lat="44.43311" lon="5.56515">
        <ele>1059.1</ele>
        <time>2023-03-20T12:30:57Z</time>
      </trkpt>
      <trkpt lat="44.43308" lon="5.56512">
        <ele>1059.3</ele>
        <time>2023-03-20T12:30:58Z</time>
      </trkpt>
      <trkpt lat="44.43306" lon="5.5651">
        <ele>1059.5</ele>
        <time>2023-03-20T12:30:59Z</time>
      </trkpt>
      <trkpt lat="44.43304" lon="5.56507">
        <ele>1059.7</ele>
        <time>2023-03-20T12:31:00Z</time>
      </trkpt>
      <trkpt lat="44.43302" lon="5.56504">
        <ele>1059.8</ele>
        <time>2023-03-20T12:31:01Z</time>
      </trkpt>
      <trkpt lat="44.433" lon="5.56502">
        <ele>1060</ele>
        <time>2023-03-20T12:31:02Z</time>
      </trkpt>
      <trkpt lat="44.43297" lon="5.56499">
        <ele>1060.2</ele>
        <time>2023-03-20T12:31:03Z</time>
      </trkpt>
      <trkpt lat="44.43295" lon="5.56497">
        <ele>1060.3</ele>
        <time>2023-03-20T12:31:04Z</time>
      </trkpt>
      <trkpt lat="44.43293" lon="5.56494">
        <ele>1060.5</ele>
        <time>2023-03-20T12:31:05Z</time>
      </trkpt>
      <trkpt lat="44.43291" lon="5.56491">
        <ele>1060.7</ele>
        <time>2023-03-20T12:31:06Z</time>
      </trkpt>
      <trkpt lat="44.43288" lon="5.56488">
        <ele>1060.9</ele>
        <time>2023-03-20T12:31:07Z</time>
      </trkpt>
      <trkpt lat="44.43286" lon="5.56485">
        <ele>1061.1</ele>
        <time>2023-03-20T12:31:08Z</time>
      </trkpt>
      <trkpt lat="44.43284" lon="5.56482">
        <ele>1061.2</ele>
        <time>2023-03-20T12:31:09Z</time>
      </trkpt>
      <trkpt lat="44.43282" lon="5.56479">
        <ele>1061.4</ele>
        <time>2023-03-20T12:31:10Z</time>
      </trkpt>
      <trkpt lat="44.4328" lon="5.56476">
        <ele>1061.6</ele>
        <time>2023-03-20T12:31:11Z</time>
      </trkpt>
      <trkpt lat="44.43278" lon="5.56474">
        <ele>1061.7</ele>
        <time>2023-03-20T12:31:12Z</time>
      </trkpt>
      <trkpt lat="44.43276" lon="5.56471">
        <ele>1061.9</ele>
        <time>2023-03-20T12:31:13Z</time>
      </trkpt>
      <trkpt lat="44.43273" lon="5.56467">
        <ele>1062.1</ele>
        <time>2023-03-20T12:31:14Z</time>
      </trkpt>
      <trkpt lat="44.43272" lon="5.56465">
        <ele>1062.2</ele>
        <time>2023-03-20T12:31:15Z</time>
      </trkpt>
      <trkpt lat="44.43269" lon="5.56461">
        <ele>1062.4</ele>
        <time>2023-03-20T12:31:16Z</time>
      </trkpt>
      <trkpt lat="44.43268" lon="5.5646">
        <ele>1062.5</ele>
        <time>2023-03-20T12:31:17Z</time>
      </trkpt>
      <trkpt lat="44.43266" lon="5.56457">
        <ele>1062.7</ele>
        <time>2023-03-20T12:31:18Z</time>
      </trkpt>
      <trkpt lat="44.43264" lon="5.56454">
        <ele>1062.9</ele>
        <time>2023-03-20T12:31:19Z</time>
      </trkpt>
      <trkpt lat="44.43261" lon="5.56451">
        <ele>1063.1</ele>
        <time>2023-03-20T12:31:20Z</time>
      </trkpt>
      <trkpt lat="44.43259" lon="5.56448">
        <ele>1063.3</ele>
        <time>2023-03-20T12:31:21Z</time>
      </trkpt>
      <trkpt lat="44.43256" lon="5.56446">
        <ele>1063.5</ele>
        <time>2023-03-20T12:31:22Z</time>
      </trkpt>
      <trkpt lat="44.43254" lon="5.56444">
        <ele>1063.6</ele>
        <time>2023-03-20T12:31:23Z</time>
      </trkpt>
      <trkpt lat="44.43251" lon="5.5644">
        <ele>1063.8</ele>
        <time>2023-03-20T12:31:24Z</time>
      </trkpt>
      <trkpt lat="44.4325" lon="5.56439">
        <ele>1063.9</ele>
        <time>2023-03-20T12:31:25Z</time>
      </trkpt>
      <trkpt lat="44.43248" lon="5.56436">
        <ele>1064.1</ele>
        <time>2023-03-20T12:31:26Z</time>
      </trkpt>
      <trkpt lat="44.43247" lon="5.56433">
        <ele>1064.2</ele>
        <time>2023-03-20T12:31:27Z</time>
      </trkpt>
      <trkpt lat="44.43244" lon="5.56428">
        <ele>1064.5</ele>
        <time>2023-03-20T12:31:28Z</time>
      </trkpt>
      <trkpt lat="44.43243" lon="5.56426">
        <ele>1064.6</ele>
        <time>2023-03-20T12:31:29Z</time>
      </trkpt>
      <trkpt lat="44.43241" lon="5.56422">
        <ele>1064.8</ele>
        <time>2023-03-20T12:31:30Z</time>
      </trkpt>
      <trkpt lat="44.4324" lon="5.56418">
        <ele>1065</ele>
        <time>2023-03-20T12:31:31Z</time>
      </trkpt>
      <trkpt lat="44.43238" lon="5.56415">
        <ele>1065.2</ele>
        <time>2023-03-20T12:31:32Z</time>
      </trkpt>
      <trkpt lat="44.43236" lon="5.5641">
        <ele>1065.4</ele>
        <time>2023-03-20T12:31:33Z</time>
      </trkpt>
      <trkpt lat="44.43236" lon="5.56408">
        <ele>1065.4</ele>
        <time>2023-03-20T12:31:34Z</time>
      </trkpt>
      <trkpt lat="44.43234" lon="5.56404">
        <ele>1065.7</ele>
        <time>2023-03-20T12:31:35Z</time>
      </trkpt>
      <trkpt lat="44.43233" lon="5.56402">
        <ele>1065.8</ele>
        <time>2023-03-20T12:31:36Z</time>
      </trkpt>
      <trkpt lat="44.43231" lon="5.56399">
        <ele>1065.9</ele>
        <time>2023-03-20T12:31:37Z</time>
      </trkpt>
      <trkpt lat="44.43229" lon="5.56395">
        <ele>1066.1</ele>
        <time>2023-03-20T12:31:38Z</time>
      </trkpt>
      <trkpt lat="44.43228" lon="5.56391">
        <ele>1066.3</ele>
        <time>2023-03-20T12:31:39Z</time>
      </trkpt>
      <trkpt lat="44.43226" lon="5.56388">
        <ele>1066.5</ele>
        <time>2023-03-20T12:31:40Z</time>
      </trkpt>
      <trkpt lat="44.43223" lon="5.56384">
        <ele>1066.7</ele>
        <time>2023-03-20T12:31:41Z</time>
      </trkpt>
      <trkpt lat="44.43223" lon="5.56382">
        <ele>1066.8</ele>
        <time>2023-03-20T12:31:42Z</time>
      </trkpt>
      <trkpt lat="44.4322" lon="5.56377">
        <ele>1067</ele>
        <time>2023-03-20T12:31:43Z</time>
      </trkpt>
      <trkpt lat="44.43219" lon="5.56375">
        <ele>1067.1</ele>
        <time>2023-03-20T12:31:44Z</time>
      </trkpt>
      <trkpt lat="44.43218" lon="5.56372">
        <ele>1067.3</ele>
        <time>2023-03-20T12:31:45Z</time>
      </trkpt>
      <trkpt lat="44.43216" lon="5.56368">
        <ele>1067.5</ele>
        <time>2023-03-20T12:31:46Z</time>
      </trkpt>
      <trkpt lat="44.43215" lon="5.56364">
        <ele>1067.7</ele>
        <time>2023-03-20T12:31:47Z</time>
      </trkpt>
      <trkpt lat="44.43214" lon="5.5636">
        <ele>1067.8</ele>
        <time>2023-03-20T12:31:48Z</time>
      </trkpt>
      <trkpt lat="44.43213" lon="5.56355">
        <ele>1068</ele>
        <time>2023-03-20T12:31:49Z</time>
      </trkpt>
      <trkpt lat="44.43212" lon="5.56351">
        <ele>1068.2</ele>
        <time>2023-03-20T12:31:50Z</time>
      </trkpt>
      <trkpt lat="44.43211" lon="5.56347">
        <ele>1068.4</ele>
        <time>2023-03-20T12:31:51Z</time>
      </trkpt>
      <trkpt lat="44.4321" lon="5.56342">
        <ele>1068.6</ele>
        <time>2023-03-20T12:31:52Z</time>
      </trkpt>
      <trkpt lat="44.4321" lon="5.5634">
        <ele>1068.7</ele>
        <time>2023-03-20T12:31:53Z</time>
      </trkpt>
      <trkpt lat="44.43209" lon="5.56335">
        <ele>1068.9</ele>
        <time>2023-03-20T12:31:54Z</time>
      </trkpt>
      <trkpt lat="44.43208" lon="5.56333">
        <ele>1069</ele>
        <time>2023-03-20T12:31:55Z</time>
      </trkpt>
      <trkpt lat="44.43207" lon="5.56329">
        <ele>1069.2</ele>
        <time>2023-03-20T12:31:56Z</time>
      </trkpt>
      <trkpt lat="44.43206" lon="5.56327">
        <ele>1069.3</ele>
        <time>2023-03-20T12:31:57Z</time>
      </trkpt>
      <trkpt lat="44.43205" lon="5.56323">
        <ele>1069.5</ele>
        <time>2023-03-20T12:31:58Z</time>
      </trkpt>
      <trkpt lat="44.43204" lon="5.56319">
        <ele>1069.6</ele>
        <time>2023-03-20T12:31:59Z</time>
      </trkpt>
      <trkpt lat="44.43203" lon="5.56314">
        <ele>1069.9</ele>
        <time>2023-03-20T12:32:00Z</time>
      </trkpt>
      <trkpt lat="44.43203" lon="5.56312">
        <ele>1069.9</ele>
        <time>2023-03-20T12:32:01Z</time>
      </trkpt>
      <trkpt lat="44.43202" lon="5.56307">
        <ele>1070.2</ele>
        <time>2023-03-20T12:32:02Z</time>
      </trkpt>
      <trkpt lat="44.43202" lon="5.56306">
        <ele>1070.2</ele>
        <time>2023-03-20T12:32:03Z</time>
      </trkpt>
      <trkpt lat="44.43201" lon="5.563">
        <ele>1070.5</ele>
        <time>2023-03-20T12:32:04Z</time>
      </trkpt>
      <trkpt lat="44.432" lon="5.56298">
        <ele>1070.5</ele>
        <time>2023-03-20T12:32:05Z</time>
      </trkpt>
      <trkpt lat="44.43199" lon="5.56294">
        <ele>1070.7</ele>
        <time>2023-03-20T12:32:06Z</time>
      </trkpt>
      <trkpt lat="44.43199" lon="5.5629">
        <ele>1070.9</ele>
        <time>2023-03-20T12:32:07Z</time>
      </trkpt>
      <trkpt lat="44.43197" lon="5.56286">
        <ele>1071.1</ele>
        <time>2023-03-20T12:32:08Z</time>
      </trkpt>
      <trkpt lat="44.43195" lon="5.56283">
        <ele>1071.3</ele>
        <time>2023-03-20T12:32:09Z</time>
      </trkpt>
      <trkpt lat="44.43194" lon="5.56278">
        <ele>1071.5</ele>
        <time>2023-03-20T12:32:10Z</time>
      </trkpt>
      <trkpt lat="44.43194" lon="5.56276">
        <ele>1071.5</ele>
        <time>2023-03-20T12:32:11Z</time>
      </trkpt>
      <trkpt lat="44.43193" lon="5.56273">
        <ele>1071.7</ele>
        <time>2023-03-20T12:32:12Z</time>
      </trkpt>
      <trkpt lat="44.43193" lon="5.56269">
        <ele>1071.9</ele>
        <time>2023-03-20T12:32:13Z</time>
      </trkpt>
      <trkpt lat="44.43193" lon="5.56264">
        <ele>1072.1</ele>
        <time>2023-03-20T12:32:14Z</time>
      </trkpt>
      <trkpt lat="44.43193" lon="5.56263">
        <ele>1072.1</ele>
        <time>2023-03-20T12:32:15Z</time>
      </trkpt>
      <trkpt lat="44.43193" lon="5.56257">
        <ele>1072.4</ele>
        <time>2023-03-20T12:32:16Z</time>
      </trkpt>
      <trkpt lat="44.43194" lon="5.56255">
        <ele>1072.4</ele>
        <time>2023-03-20T12:32:17Z</time>
      </trkpt>
      <trkpt lat="44.43194" lon="5.5625">
        <ele>1072.7</ele>
        <time>2023-03-20T12:32:18Z</time>
      </trkpt>
      <trkpt lat="44.43194" lon="5.56248">
        <ele>1072.8</ele>
        <time>2023-03-20T12:32:19Z</time>
      </trkpt>
      <trkpt lat="44.43195" lon="5.56244">
        <ele>1072.9</ele>
        <time>2023-03-20T12:32:20Z</time>
      </trkpt>
      <trkpt lat="44.43196" lon="5.5624">
        <ele>1073.1</ele>
        <time>2023-03-20T12:32:21Z</time>
      </trkpt>
      <trkpt lat="44.43196" lon="5.56236">
        <ele>1073.3</ele>
        <time>2023-03-20T12:32:22Z</time>
      </trkpt>
      <trkpt lat="44.43196" lon="5.56232">
        <ele>1073.4</ele>
        <time>2023-03-20T12:32:23Z</time>
      </trkpt>
      <trkpt lat="44.43197" lon="5.56228">
        <ele>1073.6</ele>
        <time>2023-03-20T12:32:24Z</time>
      </trkpt>
      <trkpt lat="44.43198" lon="5.56224">
        <ele>1073.8</ele>
        <time>2023-03-20T12:32:25Z</time>
      </trkpt>
      <trkpt lat="44.43198" lon="5.56219">
        <ele>1074</ele>
        <time>2023-03-20T12:32:26Z</time>
      </trkpt>
      <trkpt lat="44.43198" lon="5.56217">
        <ele>1074.1</ele>
        <time>2023-03-20T12:32:27Z</time>
      </trkpt>
      <trkpt lat="44.43198" lon="5.56212">
        <ele>1074.3</ele>
        <time>2023-03-20T12:32:28Z</time>
      </trkpt>
      <trkpt lat="44.43198" lon="5.5621">
        <ele>1074.3</ele>
        <time>2023-03-20T12:32:29Z</time>
      </trkpt>
      <trkpt lat="44.43197" lon="5.56205">
        <ele>1074.6</ele>
        <time>2023-03-20T12:32:30Z</time>
      </trkpt>
      <trkpt lat="44.43197" lon="5.56204">
        <ele>1074.6</ele>
        <time>2023-03-20T12:32:31Z</time>
      </trkpt>
      <trkpt lat="44.43195" lon="5.56199">
        <ele>1074.9</ele>
        <time>2023-03-20T12:32:32Z</time>
      </trkpt>
      <trkpt lat="44.43195" lon="5.56197">
        <ele>1074.9</ele>
        <time>2023-03-20T12:32:33Z</time>
      </trkpt>
      <trkpt lat="44.43193" lon="5.56193">
        <ele>1075.1</ele>
        <time>2023-03-20T12:32:34Z</time>
      </trkpt>
      <trkpt lat="44.43193" lon="5.56191">
        <ele>1075.2</ele>
        <time>2023-03-20T12:32:35Z</time>
      </trkpt>
      <trkpt lat="44.43192" lon="5.56187">
        <ele>1075.4</ele>
        <time>2023-03-20T12:32:36Z</time>
      </trkpt>
      <trkpt lat="44.43191" lon="5.56185">
        <ele>1075.5</ele>
        <time>2023-03-20T12:32:37Z</time>
      </trkpt>
      <trkpt lat="44.4319" lon="5.5618">
        <ele>1075.7</ele>
        <time>2023-03-20T12:32:38Z</time>
      </trkpt>
      <trkpt lat="44.4319" lon="5.56179">
        <ele>1075.7</ele>
        <time>2023-03-20T12:32:39Z</time>
      </trkpt>
      <trkpt lat="44.4319" lon="5.56175">
        <ele>1075.9</ele>
        <time>2023-03-20T12:32:40Z</time>
      </trkpt>
      <trkpt lat="44.43191" lon="5.56173">
        <ele>1076</ele>
        <time>2023-03-20T12:32:41Z</time>
      </trkpt>
      <trkpt lat="44.4319" lon="5.56168">
        <ele>1076.2</ele>
        <time>2023-03-20T12:32:42Z</time>
      </trkpt>
      <trkpt lat="44.4319" lon="5.56167">
        <ele>1076.3</ele>
        <time>2023-03-20T12:32:43Z</time>
      </trkpt>
      <trkpt lat="44.4319" lon="5.56161">
        <ele>1076.5</ele>
        <time>2023-03-20T12:32:44Z</time>
      </trkpt>
      <trkpt lat="44.4319" lon="5.56159">
        <ele>1076.6</ele>
        <time>2023-03-20T12:32:45Z</time>
      </trkpt>
      <trkpt lat="44.4319" lon="5.56155">
        <ele>1076.7</ele>
        <time>2023-03-20T12:32:46Z</time>
      </trkpt>
      <trkpt lat="44.4319" lon="5.56154">
        <ele>1076.8</ele>
        <time>2023-03-20T12:32:47Z</time>
      </trkpt>
      <trkpt lat="44.43189" lon="5.56149">
        <ele>1077</ele>
        <time>2023-03-20T12:32:48Z</time>
      </trkpt>
      <trkpt lat="44.43189" lon="5.56148">
        <ele>1077.1</ele>
        <time>2023-03-20T12:32:49Z</time>
      </trkpt>
      <trkpt lat="44.43189" lon="5.56143">
        <ele>1077.3</ele>
        <time>2023-03-20T12:32:50Z</time>
      </trkpt>
      <trkpt lat="44.43189" lon="5.56141">
        <ele>1077.3</ele>
        <time>2023-03-20T12:32:51Z</time>
      </trkpt>
      <trkpt lat="44.43188" lon="5.56137">
        <ele>1077.5</ele>
        <time>2023-03-20T12:32:52Z</time>
      </trkpt>
      <trkpt lat="44.43188" lon="5.56135">
        <ele>1077.6</ele>
        <time>2023-03-20T12:32:53Z</time>
      </trkpt>
      <trkpt lat="44.43188" lon="5.5613">
        <ele>1077.8</ele>
        <time>2023-03-20T12:32:54Z</time>
      </trkpt>
      <trkpt lat="44.43188" lon="5.56128">
        <ele>1077.9</ele>
        <time>2023-03-20T12:32:55Z</time>
      </trkpt>
      <trkpt lat="44.43189" lon="5.56124">
        <ele>1078.1</ele>
        <time>2023-03-20T12:32:56Z</time>
      </trkpt>
      <trkpt lat="44.43189" lon="5.56122">
        <ele>1078.1</ele>
        <time>2023-03-20T12:32:57Z</time>
      </trkpt>
      <trkpt lat="44.43189" lon="5.56117">
        <ele>1078.3</ele>
        <time>2023-03-20T12:32:58Z</time>
      </trkpt>
      <trkpt lat="44.43189" lon="5.56116">
        <ele>1078.4</ele>
        <time>2023-03-20T12:32:59Z</time>
      </trkpt>
      <trkpt lat="44.43189" lon="5.56111">
        <ele>1078.6</ele>
        <time>2023-03-20T12:33:00Z</time>
      </trkpt>
      <trkpt lat="44.43189" lon="5.56109">
        <ele>1078.7</ele>
        <time>2023-03-20T12:33:01Z</time>
      </trkpt>
      <trkpt lat="44.43188" lon="5.56105">
        <ele>1078.8</ele>
        <time>2023-03-20T12:33:02Z</time>
      </trkpt>
      <trkpt lat="44.43188" lon="5.56103">
        <ele>1078.9</ele>
        <time>2023-03-20T12:33:03Z</time>
      </trkpt>
      <trkpt lat="44.43188" lon="5.56099">
        <ele>1079.1</ele>
        <time>2023-03-20T12:33:04Z</time>
      </trkpt>
      <trkpt lat="44.43188" lon="5.56097">
        <ele>1079.2</ele>
        <time>2023-03-20T12:33:05Z</time>
      </trkpt>
      <trkpt lat="44.43188" lon="5.56092">
        <ele>1079.4</ele>
        <time>2023-03-20T12:33:06Z</time>
      </trkpt>
      <trkpt lat="44.43188" lon="5.56091">
        <ele>1079.4</ele>
        <time>2023-03-20T12:33:07Z</time>
      </trkpt>
      <trkpt lat="44.43188" lon="5.56087">
        <ele>1079.6</ele>
        <time>2023-03-20T12:33:08Z</time>
      </trkpt>
      <trkpt lat="44.43188" lon="5.56083">
        <ele>1079.8</ele>
        <time>2023-03-20T12:33:09Z</time>
      </trkpt>
      <trkpt lat="44.43188" lon="5.56081">
        <ele>1079.8</ele>
        <time>2023-03-20T12:33:10Z</time>
      </trkpt>
      <trkpt lat="44.43188" lon="5.56076">
        <ele>1080.1</ele>
        <time>2023-03-20T12:33:11Z</time>
      </trkpt>
      <trkpt lat="44.43188" lon="5.56074">
        <ele>1080.2</ele>
        <time>2023-03-20T12:33:12Z</time>
      </trkpt>
      <trkpt lat="44.43186" lon="5.5607">
        <ele>1080.3</ele>
        <time>2023-03-20T12:33:13Z</time>
      </trkpt>
      <trkpt lat="44.43184" lon="5.56065">
        <ele>1080.6</ele>
        <time>2023-03-20T12:33:14Z</time>
      </trkpt>
      <trkpt lat="44.43184" lon="5.56064">
        <ele>1080.6</ele>
        <time>2023-03-20T12:33:15Z</time>
      </trkpt>
      <trkpt lat="44.43184" lon="5.56059">
        <ele>1080.8</ele>
        <time>2023-03-20T12:33:16Z</time>
      </trkpt>
      <trkpt lat="44.43184" lon="5.56057">
        <ele>1080.9</ele>
        <time>2023-03-20T12:33:17Z</time>
      </trkpt>
      <trkpt lat="44.43185" lon="5.56052">
        <ele>1081.1</ele>
        <time>2023-03-20T12:33:18Z</time>
      </trkpt>
      <trkpt lat="44.43185" lon="5.5605">
        <ele>1081.2</ele>
        <time>2023-03-20T12:33:19Z</time>
      </trkpt>
      <trkpt lat="44.43185" lon="5.56045">
        <ele>1081.4</ele>
        <time>2023-03-20T12:33:20Z</time>
      </trkpt>
      <trkpt lat="44.43185" lon="5.56043">
        <ele>1081.5</ele>
        <time>2023-03-20T12:33:21Z</time>
      </trkpt>
      <trkpt lat="44.43185" lon="5.56039">
        <ele>1081.7</ele>
        <time>2023-03-20T12:33:22Z</time>
      </trkpt>
      <trkpt lat="44.43185" lon="5.56035">
        <ele>1081.9</ele>
        <time>2023-03-20T12:33:23Z</time>
      </trkpt>
      <trkpt lat="44.43186" lon="5.56031">
        <ele>1082</ele>
        <time>2023-03-20T12:33:24Z</time>
      </trkpt>
      <trkpt lat="44.43186" lon="5.56025">
        <ele>1082.3</ele>
        <time>2023-03-20T12:33:25Z</time>
      </trkpt>
      <trkpt lat="44.43186" lon="5.56023">
        <ele>1082.3</ele>
        <time>2023-03-20T12:33:26Z</time>
      </trkpt>
      <trkpt lat="44.43186" lon="5.56019">
        <ele>1082.5</ele>
        <time>2023-03-20T12:33:27Z</time>
      </trkpt>
      <trkpt lat="44.43185" lon="5.56014">
        <ele>1082.7</ele>
        <time>2023-03-20T12:33:28Z</time>
      </trkpt>
      <trkpt lat="44.43184" lon="5.56012">
        <ele>1082.8</ele>
        <time>2023-03-20T12:33:29Z</time>
      </trkpt>
      <trkpt lat="44.43184" lon="5.56007">
        <ele>1083</ele>
        <time>2023-03-20T12:33:30Z</time>
      </trkpt>
      <trkpt lat="44.43184" lon="5.56005">
        <ele>1083.1</ele>
        <time>2023-03-20T12:33:31Z</time>
      </trkpt>
      <trkpt lat="44.43183" lon="5.56">
        <ele>1083.3</ele>
        <time>2023-03-20T12:33:32Z</time>
      </trkpt>
      <trkpt lat="44.43183" lon="5.55998">
        <ele>1083.4</ele>
        <time>2023-03-20T12:33:33Z</time>
      </trkpt>
      <trkpt lat="44.43183" lon="5.55993">
        <ele>1083.6</ele>
        <time>2023-03-20T12:33:34Z</time>
      </trkpt>
      <trkpt lat="44.43182" lon="5.55991">
        <ele>1083.7</ele>
        <time>2023-03-20T12:33:35Z</time>
      </trkpt>
      <trkpt lat="44.43182" lon="5.55987">
        <ele>1083.9</ele>
        <time>2023-03-20T12:33:36Z</time>
      </trkpt>
      <trkpt lat="44.43183" lon="5.55981">
        <ele>1084.1</ele>
        <time>2023-03-20T12:33:37Z</time>
      </trkpt>
      <trkpt lat="44.43183" lon="5.55979">
        <ele>1084.2</ele>
        <time>2023-03-20T12:33:38Z</time>
      </trkpt>
      <trkpt lat="44.43183" lon="5.55975">
        <ele>1084.4</ele>
        <time>2023-03-20T12:33:39Z</time>
      </trkpt>
      <trkpt lat="44.43182" lon="5.55971">
        <ele>1084.6</ele>
        <time>2023-03-20T12:33:40Z</time>
      </trkpt>
      <trkpt lat="44.43181" lon="5.55966">
        <ele>1084.7</ele>
        <time>2023-03-20T12:33:41Z</time>
      </trkpt>
      <trkpt lat="44.4318" lon="5.55961">
        <ele>1085</ele>
        <time>2023-03-20T12:33:42Z</time>
      </trkpt>
      <trkpt lat="44.4318" lon="5.55959">
        <ele>1085.1</ele>
        <time>2023-03-20T12:33:43Z</time>
      </trkpt>
      <trkpt lat="44.43179" lon="5.55954">
        <ele>1085.3</ele>
        <time>2023-03-20T12:33:44Z</time>
      </trkpt>
      <trkpt lat="44.43179" lon="5.5595">
        <ele>1085.4</ele>
        <time>2023-03-20T12:33:45Z</time>
      </trkpt>
      <trkpt lat="44.43178" lon="5.55946">
        <ele>1085.6</ele>
        <time>2023-03-20T12:33:46Z</time>
      </trkpt>
      <trkpt lat="44.43178" lon="5.55941">
        <ele>1085.8</ele>
        <time>2023-03-20T12:33:47Z</time>
      </trkpt>
      <trkpt lat="44.43177" lon="5.55937">
        <ele>1086</ele>
        <time>2023-03-20T12:33:48Z</time>
      </trkpt>
      <trkpt lat="44.43177" lon="5.55932">
        <ele>1086.2</ele>
        <time>2023-03-20T12:33:49Z</time>
      </trkpt>
      <trkpt lat="44.43176" lon="5.55928">
        <ele>1086.4</ele>
        <time>2023-03-20T12:33:50Z</time>
      </trkpt>
      <trkpt lat="44.43176" lon="5.55924">
        <ele>1086.6</ele>
        <time>2023-03-20T12:33:51Z</time>
      </trkpt>
      <trkpt lat="44.43175" lon="5.55919">
        <ele>1086.8</ele>
        <time>2023-03-20T12:33:52Z</time>
      </trkpt>
      <trkpt lat="44.43174" lon="5.55914">
        <ele>1087</ele>
        <time>2023-03-20T12:33:53Z</time>
      </trkpt>
      <trkpt lat="44.43173" lon="5.5591">
        <ele>1087.2</ele>
        <time>2023-03-20T12:33:54Z</time>
      </trkpt>
      <trkpt lat="44.43172" lon="5.55905">
        <ele>1087.4</ele>
        <time>2023-03-20T12:33:55Z</time>
      </trkpt>
      <trkpt lat="44.43172" lon="5.55904">
        <ele>1087.4</ele>
        <time>2023-03-20T12:33:56Z</time>
      </trkpt>
      <trkpt lat="44.43172" lon="5.55899">
        <ele>1087.6</ele>
        <time>2023-03-20T12:33:57Z</time>
      </trkpt>
      <trkpt lat="44.43172" lon="5.55897">
        <ele>1087.7</ele>
        <time>2023-03-20T12:33:58Z</time>
      </trkpt>
      <trkpt lat="44.43172" lon="5.55893">
        <ele>1087.9</ele>
        <time>2023-03-20T12:33:59Z</time>
      </trkpt>
      <trkpt lat="44.43172" lon="5.55892">
        <ele>1087.9</ele>
        <time>2023-03-20T12:34:00Z</time>
      </trkpt>
      <trkpt lat="44.43172" lon="5.55888">
        <ele>1088.1</ele>
        <time>2023-03-20T12:34:01Z</time>
      </trkpt>
      <trkpt lat="44.43171" lon="5.55886">
        <ele>1088.1</ele>
        <time>2023-03-20T12:34:02Z</time>
      </trkpt>
      <trkpt lat="44.43171" lon="5.55883">
        <ele>1088.3</ele>
        <time>2023-03-20T12:34:03Z</time>
      </trkpt>
      <trkpt lat="44.4317" lon="5.55877">
        <ele>1088.5</ele>
        <time>2023-03-20T12:34:05Z</time>
      </trkpt>
      <trkpt lat="44.43169" lon="5.55872">
        <ele>1088.7</ele>
        <time>2023-03-20T12:34:06Z</time>
      </trkpt>
      <trkpt lat="44.43169" lon="5.55871">
        <ele>1088.8</ele>
        <time>2023-03-20T12:34:07Z</time>
      </trkpt>
      <trkpt lat="44.43169" lon="5.55866">
        <ele>1089</ele>
        <time>2023-03-20T12:34:08Z</time>
      </trkpt>
      <trkpt lat="44.43169" lon="5.55864">
        <ele>1089.1</ele>
        <time>2023-03-20T12:34:09Z</time>
      </trkpt>
      <trkpt lat="44.43169" lon="5.55859">
        <ele>1089.3</ele>
        <time>2023-03-20T12:34:10Z</time>
      </trkpt>
      <trkpt lat="44.43168" lon="5.55857">
        <ele>1089.4</ele>
        <time>2023-03-20T12:34:11Z</time>
      </trkpt>
      <trkpt lat="44.43168" lon="5.55852">
        <ele>1089.6</ele>
        <time>2023-03-20T12:34:12Z</time>
      </trkpt>
      <trkpt lat="44.43167" lon="5.5585">
        <ele>1089.7</ele>
        <time>2023-03-20T12:34:13Z</time>
      </trkpt>
      <trkpt lat="44.43167" lon="5.55846">
        <ele>1089.9</ele>
        <time>2023-03-20T12:34:14Z</time>
      </trkpt>
      <trkpt lat="44.43166" lon="5.55842">
        <ele>1090</ele>
        <time>2023-03-20T12:34:15Z</time>
      </trkpt>
      <trkpt lat="44.43165" lon="5.55837">
        <ele>1090.2</ele>
        <time>2023-03-20T12:34:16Z</time>
      </trkpt>
      <trkpt lat="44.43165" lon="5.55835">
        <ele>1090.3</ele>
        <time>2023-03-20T12:34:17Z</time>
      </trkpt>
      <trkpt lat="44.43165" lon="5.55831">
        <ele>1090.5</ele>
        <time>2023-03-20T12:34:18Z</time>
      </trkpt>
      <trkpt lat="44.43165" lon="5.55829">
        <ele>1090.6</ele>
        <time>2023-03-20T12:34:19Z</time>
      </trkpt>
      <trkpt lat="44.43165" lon="5.55825">
        <ele>1090.8</ele>
        <time>2023-03-20T12:34:20Z</time>
      </trkpt>
      <trkpt lat="44.43165" lon="5.55823">
        <ele>1090.8</ele>
        <time>2023-03-20T12:34:21Z</time>
      </trkpt>
      <trkpt lat="44.43165" lon="5.55818">
        <ele>1091</ele>
        <time>2023-03-20T12:34:22Z</time>
      </trkpt>
      <trkpt lat="44.43165" lon="5.55817">
        <ele>1091.1</ele>
        <time>2023-03-20T12:34:23Z</time>
      </trkpt>
      <trkpt lat="44.43165" lon="5.55812">
        <ele>1091.3</ele>
        <time>2023-03-20T12:34:24Z</time>
      </trkpt>
      <trkpt lat="44.43165" lon="5.5581">
        <ele>1091.4</ele>
        <time>2023-03-20T12:34:25Z</time>
      </trkpt>
      <trkpt lat="44.43164" lon="5.55805">
        <ele>1091.6</ele>
        <time>2023-03-20T12:34:26Z</time>
      </trkpt>
      <trkpt lat="44.43164" lon="5.55803">
        <ele>1091.7</ele>
        <time>2023-03-20T12:34:27Z</time>
      </trkpt>
      <trkpt lat="44.43164" lon="5.55799">
        <ele>1091.9</ele>
        <time>2023-03-20T12:34:28Z</time>
      </trkpt>
      <trkpt lat="44.43164" lon="5.55797">
        <ele>1091.9</ele>
        <time>2023-03-20T12:34:29Z</time>
      </trkpt>
      <trkpt lat="44.43164" lon="5.55793">
        <ele>1092.1</ele>
        <time>2023-03-20T12:34:30Z</time>
      </trkpt>
      <trkpt lat="44.43164" lon="5.55792">
        <ele>1092.2</ele>
        <time>2023-03-20T12:34:31Z</time>
      </trkpt>
      <trkpt lat="44.43164" lon="5.55788">
        <ele>1092.3</ele>
        <time>2023-03-20T12:34:32Z</time>
      </trkpt>
      <trkpt lat="44.43165" lon="5.55786">
        <ele>1092.4</ele>
        <time>2023-03-20T12:34:33Z</time>
      </trkpt>
      <trkpt lat="44.43165" lon="5.55782">
        <ele>1092.6</ele>
        <time>2023-03-20T12:34:34Z</time>
      </trkpt>
      <trkpt lat="44.43165" lon="5.5578">
        <ele>1092.6</ele>
        <time>2023-03-20T12:34:35Z</time>
      </trkpt>
      <trkpt lat="44.43165" lon="5.55776">
        <ele>1092.8</ele>
        <time>2023-03-20T12:34:36Z</time>
      </trkpt>
      <trkpt lat="44.43165" lon="5.55774">
        <ele>1092.9</ele>
        <time>2023-03-20T12:34:37Z</time>
      </trkpt>
      <trkpt lat="44.43165" lon="5.5577">
        <ele>1093.1</ele>
        <time>2023-03-20T12:34:38Z</time>
      </trkpt>
      <trkpt lat="44.43165" lon="5.55768">
        <ele>1093.2</ele>
        <time>2023-03-20T12:34:39Z</time>
      </trkpt>
      <trkpt lat="44.43165" lon="5.55763">
        <ele>1093.4</ele>
        <time>2023-03-20T12:34:40Z</time>
      </trkpt>
      <trkpt lat="44.43165" lon="5.55761">
        <ele>1093.4</ele>
        <time>2023-03-20T12:34:41Z</time>
      </trkpt>
      <trkpt lat="44.43166" lon="5.55757">
        <ele>1093.6</ele>
        <time>2023-03-20T12:34:42Z</time>
      </trkpt>
      <trkpt lat="44.43166" lon="5.55755">
        <ele>1093.7</ele>
        <time>2023-03-20T12:34:43Z</time>
      </trkpt>
      <trkpt lat="44.43166" lon="5.55751">
        <ele>1093.9</ele>
        <time>2023-03-20T12:34:44Z</time>
      </trkpt>
      <trkpt lat="44.43166" lon="5.55749">
        <ele>1093.9</ele>
        <time>2023-03-20T12:34:45Z</time>
      </trkpt>
      <trkpt lat="44.43167" lon="5.55746">
        <ele>1094.1</ele>
        <time>2023-03-20T12:34:46Z</time>
      </trkpt>
      <trkpt lat="44.43167" lon="5.55744">
        <ele>1094.2</ele>
        <time>2023-03-20T12:34:47Z</time>
      </trkpt>
      <trkpt lat="44.43167" lon="5.55739">
        <ele>1094.4</ele>
        <time>2023-03-20T12:34:48Z</time>
      </trkpt>
      <trkpt lat="44.43167" lon="5.55738">
        <ele>1094.4</ele>
        <time>2023-03-20T12:34:49Z</time>
      </trkpt>
      <trkpt lat="44.43167" lon="5.55732">
        <ele>1094.7</ele>
        <time>2023-03-20T12:34:50Z</time>
      </trkpt>
      <trkpt lat="44.43167" lon="5.5573">
        <ele>1094.7</ele>
        <time>2023-03-20T12:34:51Z</time>
      </trkpt>
      <trkpt lat="44.43167" lon="5.55725">
        <ele>1094.9</ele>
        <time>2023-03-20T12:34:52Z</time>
      </trkpt>
      <trkpt lat="44.43167" lon="5.55724">
        <ele>1095</ele>
        <time>2023-03-20T12:34:53Z</time>
      </trkpt>
      <trkpt lat="44.43168" lon="5.55719">
        <ele>1095.2</ele>
        <time>2023-03-20T12:34:54Z</time>
      </trkpt>
      <trkpt lat="44.43168" lon="5.55718">
        <ele>1095.3</ele>
        <time>2023-03-20T12:34:55Z</time>
      </trkpt>
      <trkpt lat="44.43169" lon="5.55714">
        <ele>1095.4</ele>
        <time>2023-03-20T12:34:56Z</time>
      </trkpt>
      <trkpt lat="44.43169" lon="5.55712">
        <ele>1095.5</ele>
        <time>2023-03-20T12:34:57Z</time>
      </trkpt>
      <trkpt lat="44.43169" lon="5.55708">
        <ele>1095.7</ele>
        <time>2023-03-20T12:34:58Z</time>
      </trkpt>
      <trkpt lat="44.4317" lon="5.55707">
        <ele>1095.7</ele>
        <time>2023-03-20T12:34:59Z</time>
      </trkpt>
      <trkpt lat="44.4317" lon="5.55705">
        <ele>1095.8</ele>
        <time>2023-03-20T12:35:00Z</time>
      </trkpt>
      <trkpt lat="44.4317" lon="5.55702">
        <ele>1095.9</ele>
        <time>2023-03-20T12:35:01Z</time>
      </trkpt>
      <trkpt lat="44.4317" lon="5.55698">
        <ele>1096.1</ele>
        <time>2023-03-20T12:35:02Z</time>
      </trkpt>
      <trkpt lat="44.4317" lon="5.55697">
        <ele>1096.2</ele>
        <time>2023-03-20T12:35:03Z</time>
      </trkpt>
      <trkpt lat="44.4317" lon="5.55693">
        <ele>1096.3</ele>
        <time>2023-03-20T12:35:04Z</time>
      </trkpt>
      <trkpt lat="44.4317" lon="5.55691">
        <ele>1096.4</ele>
        <time>2023-03-20T12:35:05Z</time>
      </trkpt>
      <trkpt lat="44.43171" lon="5.55688">
        <ele>1096.5</ele>
        <time>2023-03-20T12:35:06Z</time>
      </trkpt>
      <trkpt lat="44.43171" lon="5.55686">
        <ele>1096.6</ele>
        <time>2023-03-20T12:35:07Z</time>
      </trkpt>
      <trkpt lat="44.43171" lon="5.55682">
        <ele>1096.8</ele>
        <time>2023-03-20T12:35:08Z</time>
      </trkpt>
      <trkpt lat="44.43171" lon="5.5568">
        <ele>1096.8</ele>
        <time>2023-03-20T12:35:09Z</time>
      </trkpt>
      <trkpt lat="44.43171" lon="5.55676">
        <ele>1097</ele>
        <time>2023-03-20T12:35:10Z</time>
      </trkpt>
      <trkpt lat="44.43172" lon="5.55675">
        <ele>1097.1</ele>
        <time>2023-03-20T12:35:11Z</time>
      </trkpt>
      <trkpt lat="44.43172" lon="5.5567">
        <ele>1097.3</ele>
        <time>2023-03-20T12:35:12Z</time>
      </trkpt>
      <trkpt lat="44.43172" lon="5.55669">
        <ele>1097.3</ele>
        <time>2023-03-20T12:35:13Z</time>
      </trkpt>
      <trkpt lat="44.43173" lon="5.55664">
        <ele>1097.5</ele>
        <time>2023-03-20T12:35:14Z</time>
      </trkpt>
      <trkpt lat="44.43173" lon="5.55663">
        <ele>1097.6</ele>
        <time>2023-03-20T12:35:15Z</time>
      </trkpt>
      <trkpt lat="44.43172" lon="5.55659">
        <ele>1097.8</ele>
        <time>2023-03-20T12:35:16Z</time>
      </trkpt>
      <trkpt lat="44.43172" lon="5.55657">
        <ele>1097.8</ele>
        <time>2023-03-20T12:35:17Z</time>
      </trkpt>
      <trkpt lat="44.43172" lon="5.55652">
        <ele>1098</ele>
        <time>2023-03-20T12:35:18Z</time>
      </trkpt>
      <trkpt lat="44.43172" lon="5.5565">
        <ele>1098.1</ele>
        <time>2023-03-20T12:35:19Z</time>
      </trkpt>
      <trkpt lat="44.43173" lon="5.55645">
        <ele>1098.3</ele>
        <time>2023-03-20T12:35:20Z</time>
      </trkpt>
      <trkpt lat="44.43174" lon="5.55644">
        <ele>1098.4</ele>
        <time>2023-03-20T12:35:21Z</time>
      </trkpt>
      <trkpt lat="44.43174" lon="5.55639">
        <ele>1098.6</ele>
        <time>2023-03-20T12:35:22Z</time>
      </trkpt>
      <trkpt lat="44.43174" lon="5.55637">
        <ele>1098.7</ele>
        <time>2023-03-20T12:35:23Z</time>
      </trkpt>
      <trkpt lat="44.43175" lon="5.55632">
        <ele>1098.9</ele>
        <time>2023-03-20T12:35:24Z</time>
      </trkpt>
      <trkpt lat="44.43175" lon="5.55631">
        <ele>1098.9</ele>
        <time>2023-03-20T12:35:25Z</time>
      </trkpt>
      <trkpt lat="44.43176" lon="5.55625">
        <ele>1099.2</ele>
        <time>2023-03-20T12:35:26Z</time>
      </trkpt>
      <trkpt lat="44.43176" lon="5.55623">
        <ele>1099.3</ele>
        <time>2023-03-20T12:35:27Z</time>
      </trkpt>
      <trkpt lat="44.43177" lon="5.55619">
        <ele>1099.5</ele>
        <time>2023-03-20T12:35:28Z</time>
      </trkpt>
      <trkpt lat="44.43178" lon="5.55617">
        <ele>1099.5</ele>
        <time>2023-03-20T12:35:29Z</time>
      </trkpt>
      <trkpt lat="44.4318" lon="5.55613">
        <ele>1099.8</ele>
        <time>2023-03-20T12:35:30Z</time>
      </trkpt>
      <trkpt lat="44.43181" lon="5.55611">
        <ele>1099.8</ele>
        <time>2023-03-20T12:35:31Z</time>
      </trkpt>
      <trkpt lat="44.43182" lon="5.55607">
        <ele>1100</ele>
        <time>2023-03-20T12:35:32Z</time>
      </trkpt>
      <trkpt lat="44.43183" lon="5.55606">
        <ele>1100.1</ele>
        <time>2023-03-20T12:35:33Z</time>
      </trkpt>
      <trkpt lat="44.43184" lon="5.55601">
        <ele>1100.3</ele>
        <time>2023-03-20T12:35:34Z</time>
      </trkpt>
      <trkpt lat="44.43185" lon="5.556">
        <ele>1100.4</ele>
        <time>2023-03-20T12:35:35Z</time>
      </trkpt>
      <trkpt lat="44.43186" lon="5.55595">
        <ele>1100.6</ele>
        <time>2023-03-20T12:35:36Z</time>
      </trkpt>
      <trkpt lat="44.43186" lon="5.55594">
        <ele>1100.6</ele>
        <time>2023-03-20T12:35:37Z</time>
      </trkpt>
      <trkpt lat="44.43187" lon="5.55589">
        <ele>1100.9</ele>
        <time>2023-03-20T12:35:38Z</time>
      </trkpt>
      <trkpt lat="44.43188" lon="5.55587">
        <ele>1100.9</ele>
        <time>2023-03-20T12:35:39Z</time>
      </trkpt>
      <trkpt lat="44.43189" lon="5.55583">
        <ele>1101.1</ele>
        <time>2023-03-20T12:35:40Z</time>
      </trkpt>
      <trkpt lat="44.43189" lon="5.55581">
        <ele>1101.2</ele>
        <time>2023-03-20T12:35:41Z</time>
      </trkpt>
      <trkpt lat="44.43189" lon="5.55577">
        <ele>1101.4</ele>
        <time>2023-03-20T12:35:42Z</time>
      </trkpt>
      <trkpt lat="44.43188" lon="5.55575">
        <ele>1101.4</ele>
        <time>2023-03-20T12:35:43Z</time>
      </trkpt>
      <trkpt lat="44.43187" lon="5.55571">
        <ele>1101.6</ele>
        <time>2023-03-20T12:35:44Z</time>
      </trkpt>
      <trkpt lat="44.43186" lon="5.5557">
        <ele>1101.7</ele>
        <time>2023-03-20T12:35:45Z</time>
      </trkpt>
      <trkpt lat="44.43185" lon="5.55566">
        <ele>1101.9</ele>
        <time>2023-03-20T12:35:46Z</time>
      </trkpt>
      <trkpt lat="44.43184" lon="5.55565">
        <ele>1101.9</ele>
        <time>2023-03-20T12:35:47Z</time>
      </trkpt>
      <trkpt lat="44.43182" lon="5.55562">
        <ele>1102.1</ele>
        <time>2023-03-20T12:35:48Z</time>
      </trkpt>
      <trkpt lat="44.43182" lon="5.55561">
        <ele>1102.2</ele>
        <time>2023-03-20T12:35:49Z</time>
      </trkpt>
      <trkpt lat="44.4318" lon="5.55557">
        <ele>1102.3</ele>
        <time>2023-03-20T12:35:50Z</time>
      </trkpt>
      <trkpt lat="44.4318" lon="5.55556">
        <ele>1102.4</ele>
        <time>2023-03-20T12:35:51Z</time>
      </trkpt>
      <trkpt lat="44.43177" lon="5.55553">
        <ele>1102.6</ele>
        <time>2023-03-20T12:35:52Z</time>
      </trkpt>
      <trkpt lat="44.43177" lon="5.55551">
        <ele>1102.6</ele>
        <time>2023-03-20T12:35:53Z</time>
      </trkpt>
      <trkpt lat="44.43175" lon="5.5555">
        <ele>1102.7</ele>
        <time>2023-03-20T12:35:54Z</time>
      </trkpt>
      <trkpt lat="44.43174" lon="5.55548">
        <ele>1102.8</ele>
        <time>2023-03-20T12:35:55Z</time>
      </trkpt>
      <trkpt lat="44.43173" lon="5.55546">
        <ele>1102.9</ele>
        <time>2023-03-20T12:35:56Z</time>
      </trkpt>
      <trkpt lat="44.43172" lon="5.55544">
        <ele>1103</ele>
        <time>2023-03-20T12:35:57Z</time>
      </trkpt>
      <trkpt lat="44.43171" lon="5.55542">
        <ele>1103.1</ele>
        <time>2023-03-20T12:35:58Z</time>
      </trkpt>
      <trkpt lat="44.43171" lon="5.5554">
        <ele>1103.2</ele>
        <time>2023-03-20T12:35:59Z</time>
      </trkpt>
      <trkpt lat="44.43169" lon="5.55536">
        <ele>1103.4</ele>
        <time>2023-03-20T12:36:00Z</time>
      </trkpt>
      <trkpt lat="44.43168" lon="5.55535">
        <ele>1103.5</ele>
        <time>2023-03-20T12:36:01Z</time>
      </trkpt>
      <trkpt lat="44.43167" lon="5.55531">
        <ele>1103.7</ele>
        <time>2023-03-20T12:36:02Z</time>
      </trkpt>
      <trkpt lat="44.43167" lon="5.5553">
        <ele>1103.8</ele>
        <time>2023-03-20T12:36:03Z</time>
      </trkpt>
      <trkpt lat="44.43166" lon="5.55526">
        <ele>1104</ele>
        <time>2023-03-20T12:36:04Z</time>
      </trkpt>
      <trkpt lat="44.43166" lon="5.55524">
        <ele>1104.1</ele>
        <time>2023-03-20T12:36:05Z</time>
      </trkpt>
      <trkpt lat="44.43165" lon="5.5552">
        <ele>1104.2</ele>
        <time>2023-03-20T12:36:06Z</time>
      </trkpt>
      <trkpt lat="44.43165" lon="5.55519">
        <ele>1104.3</ele>
        <time>2023-03-20T12:36:07Z</time>
      </trkpt>
      <trkpt lat="44.43165" lon="5.55516">
        <ele>1104.4</ele>
        <time>2023-03-20T12:36:08Z</time>
      </trkpt>
      <trkpt lat="44.43165" lon="5.55514">
        <ele>1104.5</ele>
        <time>2023-03-20T12:36:09Z</time>
      </trkpt>
      <trkpt lat="44.43164" lon="5.55511">
        <ele>1104.7</ele>
        <time>2023-03-20T12:36:10Z</time>
      </trkpt>
      <trkpt lat="44.43163" lon="5.55509">
        <ele>1104.8</ele>
        <time>2023-03-20T12:36:11Z</time>
      </trkpt>
      <trkpt lat="44.43162" lon="5.55506">
        <ele>1104.9</ele>
        <time>2023-03-20T12:36:12Z</time>
      </trkpt>
      <trkpt lat="44.43161" lon="5.55505">
        <ele>1105</ele>
        <time>2023-03-20T12:36:13Z</time>
      </trkpt>
      <trkpt lat="44.4316" lon="5.55501">
        <ele>1105.2</ele>
        <time>2023-03-20T12:36:14Z</time>
      </trkpt>
      <trkpt lat="44.4316" lon="5.55499">
        <ele>1105.3</ele>
        <time>2023-03-20T12:36:15Z</time>
      </trkpt>
      <trkpt lat="44.43159" lon="5.55497">
        <ele>1105.4</ele>
        <time>2023-03-20T12:36:16Z</time>
      </trkpt>
      <trkpt lat="44.43158" lon="5.55495">
        <ele>1105.5</ele>
        <time>2023-03-20T12:36:17Z</time>
      </trkpt>
      <trkpt lat="44.43158" lon="5.55491">
        <ele>1105.7</ele>
        <time>2023-03-20T12:36:18Z</time>
      </trkpt>
      <trkpt lat="44.43157" lon="5.5549">
        <ele>1105.7</ele>
        <time>2023-03-20T12:36:19Z</time>
      </trkpt>
      <trkpt lat="44.43157" lon="5.55488">
        <ele>1105.8</ele>
        <time>2023-03-20T12:36:20Z</time>
      </trkpt>
      <trkpt lat="44.43156" lon="5.55486">
        <ele>1106</ele>
        <time>2023-03-20T12:36:21Z</time>
      </trkpt>
      <trkpt lat="44.43155" lon="5.55484">
        <ele>1106.1</ele>
        <time>2023-03-20T12:36:22Z</time>
      </trkpt>
      <trkpt lat="44.43155" lon="5.55482">
        <ele>1106.2</ele>
        <time>2023-03-20T12:36:23Z</time>
      </trkpt>
      <trkpt lat="44.43154" lon="5.55479">
        <ele>1106.3</ele>
        <time>2023-03-20T12:36:24Z</time>
      </trkpt>
      <trkpt lat="44.43154" lon="5.55478">
        <ele>1106.4</ele>
        <time>2023-03-20T12:36:25Z</time>
      </trkpt>
      <trkpt lat="44.43154" lon="5.55476">
        <ele>1106.4</ele>
        <time>2023-03-20T12:36:26Z</time>
      </trkpt>
      <trkpt lat="44.43152" lon="5.55473">
        <ele>1106.6</ele>
        <time>2023-03-20T12:36:27Z</time>
      </trkpt>
      <trkpt lat="44.43151" lon="5.55472">
        <ele>1106.7</ele>
        <time>2023-03-20T12:36:28Z</time>
      </trkpt>
      <trkpt lat="44.4315" lon="5.55468">
        <ele>1106.9</ele>
        <time>2023-03-20T12:36:29Z</time>
      </trkpt>
      <trkpt lat="44.43149" lon="5.55467">
        <ele>1107</ele>
        <time>2023-03-20T12:36:30Z</time>
      </trkpt>
      <trkpt lat="44.43147" lon="5.55464">
        <ele>1107.2</ele>
        <time>2023-03-20T12:36:31Z</time>
      </trkpt>
      <trkpt lat="44.43146" lon="5.55463">
        <ele>1107.3</ele>
        <time>2023-03-20T12:36:32Z</time>
      </trkpt>
      <trkpt lat="44.43144" lon="5.55459">
        <ele>1107.5</ele>
        <time>2023-03-20T12:36:33Z</time>
      </trkpt>
      <trkpt lat="44.43144" lon="5.55458">
        <ele>1107.5</ele>
        <time>2023-03-20T12:36:34Z</time>
      </trkpt>
      <trkpt lat="44.43143" lon="5.55454">
        <ele>1107.7</ele>
        <time>2023-03-20T12:36:35Z</time>
      </trkpt>
      <trkpt lat="44.43142" lon="5.55453">
        <ele>1107.8</ele>
        <time>2023-03-20T12:36:36Z</time>
      </trkpt>
      <trkpt lat="44.43141" lon="5.55449">
        <ele>1108</ele>
        <time>2023-03-20T12:36:37Z</time>
      </trkpt>
      <trkpt lat="44.43141" lon="5.55448">
        <ele>1108.1</ele>
        <time>2023-03-20T12:36:38Z</time>
      </trkpt>
      <trkpt lat="44.43141" lon="5.55445">
        <ele>1108.2</ele>
        <time>2023-03-20T12:36:39Z</time>
      </trkpt>
      <trkpt lat="44.4314" lon="5.55443">
        <ele>1108.3</ele>
        <time>2023-03-20T12:36:40Z</time>
      </trkpt>
      <trkpt lat="44.43139" lon="5.55439">
        <ele>1108.5</ele>
        <time>2023-03-20T12:36:41Z</time>
      </trkpt>
      <trkpt lat="44.43138" lon="5.55438">
        <ele>1108.6</ele>
        <time>2023-03-20T12:36:42Z</time>
      </trkpt>
      <trkpt lat="44.43137" lon="5.55433">
        <ele>1108.8</ele>
        <time>2023-03-20T12:36:43Z</time>
      </trkpt>
      <trkpt lat="44.43136" lon="5.55432">
        <ele>1108.9</ele>
        <time>2023-03-20T12:36:44Z</time>
      </trkpt>
      <trkpt lat="44.43135" lon="5.55427">
        <ele>1109.1</ele>
        <time>2023-03-20T12:36:45Z</time>
      </trkpt>
      <trkpt lat="44.43135" lon="5.55426">
        <ele>1109.1</ele>
        <time>2023-03-20T12:36:46Z</time>
      </trkpt>
      <trkpt lat="44.43134" lon="5.55422">
        <ele>1109.3</ele>
        <time>2023-03-20T12:36:47Z</time>
      </trkpt>
      <trkpt lat="44.43134" lon="5.5542">
        <ele>1109.4</ele>
        <time>2023-03-20T12:36:48Z</time>
      </trkpt>
      <trkpt lat="44.43133" lon="5.55418">
        <ele>1109.5</ele>
        <time>2023-03-20T12:36:49Z</time>
      </trkpt>
      <trkpt lat="44.43133" lon="5.55416">
        <ele>1109.6</ele>
        <time>2023-03-20T12:36:50Z</time>
      </trkpt>
      <trkpt lat="44.43132" lon="5.55412">
        <ele>1109.7</ele>
        <time>2023-03-20T12:36:51Z</time>
      </trkpt>
      <trkpt lat="44.43132" lon="5.5541">
        <ele>1109.8</ele>
        <time>2023-03-20T12:36:52Z</time>
      </trkpt>
      <trkpt lat="44.43132" lon="5.55408">
        <ele>1109.9</ele>
        <time>2023-03-20T12:36:53Z</time>
      </trkpt>
      <trkpt lat="44.43132" lon="5.55405">
        <ele>1110</ele>
        <time>2023-03-20T12:36:54Z</time>
      </trkpt>
      <trkpt lat="44.43131" lon="5.55403">
        <ele>1110</ele>
        <time>2023-03-20T12:36:55Z</time>
      </trkpt>
      <trkpt lat="44.4313" lon="5.55401">
        <ele>1110.1</ele>
        <time>2023-03-20T12:36:56Z</time>
      </trkpt>
      <trkpt lat="44.4313" lon="5.55397">
        <ele>1110.3</ele>
        <time>2023-03-20T12:36:57Z</time>
      </trkpt>
      <trkpt lat="44.4313" lon="5.55396">
        <ele>1110.4</ele>
        <time>2023-03-20T12:36:58Z</time>
      </trkpt>
      <trkpt lat="44.43129" lon="5.55392">
        <ele>1110.5</ele>
        <time>2023-03-20T12:36:59Z</time>
      </trkpt>
      <trkpt lat="44.43129" lon="5.5539">
        <ele>1110.6</ele>
        <time>2023-03-20T12:37:00Z</time>
      </trkpt>
      <trkpt lat="44.43128" lon="5.55386">
        <ele>1110.8</ele>
        <time>2023-03-20T12:37:01Z</time>
      </trkpt>
      <trkpt lat="44.43128" lon="5.55384">
        <ele>1110.9</ele>
        <time>2023-03-20T12:37:02Z</time>
      </trkpt>
      <trkpt lat="44.43127" lon="5.55379">
        <ele>1111.1</ele>
        <time>2023-03-20T12:37:03Z</time>
      </trkpt>
      <trkpt lat="44.43126" lon="5.55377">
        <ele>1111.2</ele>
        <time>2023-03-20T12:37:04Z</time>
      </trkpt>
      <trkpt lat="44.43125" lon="5.55373">
        <ele>1111.4</ele>
        <time>2023-03-20T12:37:05Z</time>
      </trkpt>
      <trkpt lat="44.43125" lon="5.55372">
        <ele>1111.5</ele>
        <time>2023-03-20T12:37:06Z</time>
      </trkpt>
      <trkpt lat="44.43124" lon="5.55368">
        <ele>1111.7</ele>
        <time>2023-03-20T12:37:07Z</time>
      </trkpt>
      <trkpt lat="44.43124" lon="5.55366">
        <ele>1111.8</ele>
        <time>2023-03-20T12:37:08Z</time>
      </trkpt>
      <trkpt lat="44.43123" lon="5.55361">
        <ele>1111.9</ele>
        <time>2023-03-20T12:37:09Z</time>
      </trkpt>
      <trkpt lat="44.43122" lon="5.5536">
        <ele>1112</ele>
        <time>2023-03-20T12:37:10Z</time>
      </trkpt>
      <trkpt lat="44.43121" lon="5.55355">
        <ele>1112.2</ele>
        <time>2023-03-20T12:37:11Z</time>
      </trkpt>
      <trkpt lat="44.43121" lon="5.55354">
        <ele>1112.3</ele>
        <time>2023-03-20T12:37:12Z</time>
      </trkpt>
      <trkpt lat="44.4312" lon="5.55349">
        <ele>1112.5</ele>
        <time>2023-03-20T12:37:13Z</time>
      </trkpt>
      <trkpt lat="44.4312" lon="5.55347">
        <ele>1112.6</ele>
        <time>2023-03-20T12:37:14Z</time>
      </trkpt>
      <trkpt lat="44.43119" lon="5.55343">
        <ele>1112.8</ele>
        <time>2023-03-20T12:37:15Z</time>
      </trkpt>
      <trkpt lat="44.43119" lon="5.55341">
        <ele>1112.8</ele>
        <time>2023-03-20T12:37:16Z</time>
      </trkpt>
      <trkpt lat="44.43118" lon="5.55336">
        <ele>1113.1</ele>
        <time>2023-03-20T12:37:17Z</time>
      </trkpt>
      <trkpt lat="44.43118" lon="5.55335">
        <ele>1113.1</ele>
        <time>2023-03-20T12:37:18Z</time>
      </trkpt>
      <trkpt lat="44.43117" lon="5.5533">
        <ele>1113.3</ele>
        <time>2023-03-20T12:37:19Z</time>
      </trkpt>
      <trkpt lat="44.43117" lon="5.55329">
        <ele>1113.4</ele>
        <time>2023-03-20T12:37:20Z</time>
      </trkpt>
      <trkpt lat="44.43116" lon="5.55324">
        <ele>1113.6</ele>
        <time>2023-03-20T12:37:21Z</time>
      </trkpt>
      <trkpt lat="44.43116" lon="5.55322">
        <ele>1113.7</ele>
        <time>2023-03-20T12:37:22Z</time>
      </trkpt>
      <trkpt lat="44.43114" lon="5.55317">
        <ele>1113.9</ele>
        <time>2023-03-20T12:37:23Z</time>
      </trkpt>
      <trkpt lat="44.43114" lon="5.55316">
        <ele>1114</ele>
        <time>2023-03-20T12:37:24Z</time>
      </trkpt>
      <trkpt lat="44.43113" lon="5.55311">
        <ele>1114.2</ele>
        <time>2023-03-20T12:37:25Z</time>
      </trkpt>
      <trkpt lat="44.43113" lon="5.5531">
        <ele>1114.2</ele>
        <time>2023-03-20T12:37:26Z</time>
      </trkpt>
      <trkpt lat="44.43113" lon="5.55305">
        <ele>1114.5</ele>
        <time>2023-03-20T12:37:27Z</time>
      </trkpt>
      <trkpt lat="44.43113" lon="5.55304">
        <ele>1114.5</ele>
        <time>2023-03-20T12:37:28Z</time>
      </trkpt>
      <trkpt lat="44.43112" lon="5.55298">
        <ele>1114.8</ele>
        <time>2023-03-20T12:37:29Z</time>
      </trkpt>
      <trkpt lat="44.43112" lon="5.55297">
        <ele>1114.8</ele>
        <time>2023-03-20T12:37:30Z</time>
      </trkpt>
      <trkpt lat="44.43111" lon="5.55292">
        <ele>1115</ele>
        <time>2023-03-20T12:37:31Z</time>
      </trkpt>
      <trkpt lat="44.43111" lon="5.5529">
        <ele>1115.1</ele>
        <time>2023-03-20T12:37:32Z</time>
      </trkpt>
      <trkpt lat="44.43111" lon="5.55285">
        <ele>1115.3</ele>
        <time>2023-03-20T12:37:33Z</time>
      </trkpt>
      <trkpt lat="44.43111" lon="5.55284">
        <ele>1115.4</ele>
        <time>2023-03-20T12:37:34Z</time>
      </trkpt>
      <trkpt lat="44.43111" lon="5.55279">
        <ele>1115.6</ele>
        <time>2023-03-20T12:37:35Z</time>
      </trkpt>
      <trkpt lat="44.43111" lon="5.55277">
        <ele>1115.7</ele>
        <time>2023-03-20T12:37:36Z</time>
      </trkpt>
      <trkpt lat="44.43111" lon="5.55273">
        <ele>1115.9</ele>
        <time>2023-03-20T12:37:37Z</time>
      </trkpt>
      <trkpt lat="44.43111" lon="5.55271">
        <ele>1115.9</ele>
        <time>2023-03-20T12:37:38Z</time>
      </trkpt>
      <trkpt lat="44.43111" lon="5.55266">
        <ele>1116.1</ele>
        <time>2023-03-20T12:37:39Z</time>
      </trkpt>
      <trkpt lat="44.43111" lon="5.55265">
        <ele>1116.2</ele>
        <time>2023-03-20T12:37:40Z</time>
      </trkpt>
      <trkpt lat="44.43111" lon="5.5526">
        <ele>1116.4</ele>
        <time>2023-03-20T12:37:41Z</time>
      </trkpt>
      <trkpt lat="44.4311" lon="5.55258">
        <ele>1116.5</ele>
        <time>2023-03-20T12:37:42Z</time>
      </trkpt>
      <trkpt lat="44.4311" lon="5.55254">
        <ele>1116.7</ele>
        <time>2023-03-20T12:37:43Z</time>
      </trkpt>
      <trkpt lat="44.4311" lon="5.55252">
        <ele>1116.7</ele>
        <time>2023-03-20T12:37:44Z</time>
      </trkpt>
      <trkpt lat="44.4311" lon="5.55248">
        <ele>1116.9</ele>
        <time>2023-03-20T12:37:45Z</time>
      </trkpt>
      <trkpt lat="44.4311" lon="5.55246">
        <ele>1117</ele>
        <time>2023-03-20T12:37:46Z</time>
      </trkpt>
      <trkpt lat="44.43111" lon="5.55242">
        <ele>1117.2</ele>
        <time>2023-03-20T12:37:47Z</time>
      </trkpt>
      <trkpt lat="44.43111" lon="5.55241">
        <ele>1117.2</ele>
        <time>2023-03-20T12:37:48Z</time>
      </trkpt>
      <trkpt lat="44.43111" lon="5.55236">
        <ele>1117.4</ele>
        <time>2023-03-20T12:37:49Z</time>
      </trkpt>
      <trkpt lat="44.4311" lon="5.55235">
        <ele>1117.5</ele>
        <time>2023-03-20T12:37:50Z</time>
      </trkpt>
      <trkpt lat="44.43109" lon="5.5523">
        <ele>1117.7</ele>
        <time>2023-03-20T12:37:51Z</time>
      </trkpt>
      <trkpt lat="44.43109" lon="5.55229">
        <ele>1117.8</ele>
        <time>2023-03-20T12:37:52Z</time>
      </trkpt>
      <trkpt lat="44.43109" lon="5.55225">
        <ele>1118</ele>
        <time>2023-03-20T12:37:53Z</time>
      </trkpt>
      <trkpt lat="44.43109" lon="5.55223">
        <ele>1118</ele>
        <time>2023-03-20T12:37:54Z</time>
      </trkpt>
      <trkpt lat="44.43109" lon="5.55219">
        <ele>1118.3</ele>
        <time>2023-03-20T12:37:55Z</time>
      </trkpt>
      <trkpt lat="44.43109" lon="5.55217">
        <ele>1118.3</ele>
        <time>2023-03-20T12:37:56Z</time>
      </trkpt>
      <trkpt lat="44.43108" lon="5.55213">
        <ele>1118.6</ele>
        <time>2023-03-20T12:37:57Z</time>
      </trkpt>
      <trkpt lat="44.43108" lon="5.55211">
        <ele>1118.6</ele>
        <time>2023-03-20T12:37:58Z</time>
      </trkpt>
      <trkpt lat="44.43107" lon="5.55206">
        <ele>1118.9</ele>
        <time>2023-03-20T12:37:59Z</time>
      </trkpt>
      <trkpt lat="44.43107" lon="5.55204">
        <ele>1119</ele>
        <time>2023-03-20T12:38:00Z</time>
      </trkpt>
      <trkpt lat="44.43108" lon="5.55199">
        <ele>1119.2</ele>
        <time>2023-03-20T12:38:01Z</time>
      </trkpt>
      <trkpt lat="44.43108" lon="5.55197">
        <ele>1119.3</ele>
        <time>2023-03-20T12:38:02Z</time>
      </trkpt>
      <trkpt lat="44.43108" lon="5.55192">
        <ele>1119.5</ele>
        <time>2023-03-20T12:38:03Z</time>
      </trkpt>
      <trkpt lat="44.43108" lon="5.55191">
        <ele>1119.6</ele>
        <time>2023-03-20T12:38:04Z</time>
      </trkpt>
      <trkpt lat="44.43108" lon="5.55186">
        <ele>1119.8</ele>
        <time>2023-03-20T12:38:05Z</time>
      </trkpt>
      <trkpt lat="44.43107" lon="5.55184">
        <ele>1119.9</ele>
        <time>2023-03-20T12:38:06Z</time>
      </trkpt>
      <trkpt lat="44.43108" lon="5.55179">
        <ele>1120.1</ele>
        <time>2023-03-20T12:38:07Z</time>
      </trkpt>
      <trkpt lat="44.43108" lon="5.55178">
        <ele>1120.2</ele>
        <time>2023-03-20T12:38:08Z</time>
      </trkpt>
      <trkpt lat="44.43108" lon="5.55173">
        <ele>1120.3</ele>
        <time>2023-03-20T12:38:09Z</time>
      </trkpt>
      <trkpt lat="44.43108" lon="5.55172">
        <ele>1120.4</ele>
        <time>2023-03-20T12:38:10Z</time>
      </trkpt>
      <trkpt lat="44.43108" lon="5.55167">
        <ele>1120.6</ele>
        <time>2023-03-20T12:38:11Z</time>
      </trkpt>
      <trkpt lat="44.43108" lon="5.55166">
        <ele>1120.7</ele>
        <time>2023-03-20T12:38:12Z</time>
      </trkpt>
      <trkpt lat="44.43107" lon="5.55161">
        <ele>1120.9</ele>
        <time>2023-03-20T12:38:13Z</time>
      </trkpt>
      <trkpt lat="44.43107" lon="5.55159">
        <ele>1121</ele>
        <time>2023-03-20T12:38:14Z</time>
      </trkpt>
      <trkpt lat="44.43107" lon="5.55154">
        <ele>1121.2</ele>
        <time>2023-03-20T12:38:15Z</time>
      </trkpt>
      <trkpt lat="44.43107" lon="5.55153">
        <ele>1121.3</ele>
        <time>2023-03-20T12:38:16Z</time>
      </trkpt>
      <trkpt lat="44.43107" lon="5.55147">
        <ele>1121.6</ele>
        <time>2023-03-20T12:38:17Z</time>
      </trkpt>
      <trkpt lat="44.43107" lon="5.55146">
        <ele>1121.6</ele>
        <time>2023-03-20T12:38:18Z</time>
      </trkpt>
      <trkpt lat="44.43107" lon="5.55141">
        <ele>1121.9</ele>
        <time>2023-03-20T12:38:19Z</time>
      </trkpt>
      <trkpt lat="44.43107" lon="5.55139">
        <ele>1122</ele>
        <time>2023-03-20T12:38:20Z</time>
      </trkpt>
      <trkpt lat="44.43108" lon="5.55134">
        <ele>1122.2</ele>
        <time>2023-03-20T12:38:21Z</time>
      </trkpt>
      <trkpt lat="44.43108" lon="5.55133">
        <ele>1122.3</ele>
        <time>2023-03-20T12:38:22Z</time>
      </trkpt>
      <trkpt lat="44.43109" lon="5.55128">
        <ele>1122.5</ele>
        <time>2023-03-20T12:38:23Z</time>
      </trkpt>
      <trkpt lat="44.43109" lon="5.55127">
        <ele>1122.6</ele>
        <time>2023-03-20T12:38:24Z</time>
      </trkpt>
      <trkpt lat="44.4311" lon="5.55122">
        <ele>1122.8</ele>
        <time>2023-03-20T12:38:25Z</time>
      </trkpt>
      <trkpt lat="44.43111" lon="5.5512">
        <ele>1122.9</ele>
        <time>2023-03-20T12:38:26Z</time>
      </trkpt>
      <trkpt lat="44.43111" lon="5.55115">
        <ele>1123.2</ele>
        <time>2023-03-20T12:38:27Z</time>
      </trkpt>
      <trkpt lat="44.43111" lon="5.55114">
        <ele>1123.2</ele>
        <time>2023-03-20T12:38:28Z</time>
      </trkpt>
      <trkpt lat="44.43112" lon="5.55109">
        <ele>1123.4</ele>
        <time>2023-03-20T12:38:29Z</time>
      </trkpt>
      <trkpt lat="44.43112" lon="5.55107">
        <ele>1123.5</ele>
        <time>2023-03-20T12:38:30Z</time>
      </trkpt>
      <trkpt lat="44.43112" lon="5.55102">
        <ele>1123.7</ele>
        <time>2023-03-20T12:38:31Z</time>
      </trkpt>
      <trkpt lat="44.43113" lon="5.55101">
        <ele>1123.7</ele>
        <time>2023-03-20T12:38:32Z</time>
      </trkpt>
      <trkpt lat="44.43114" lon="5.55097">
        <ele>1123.9</ele>
        <time>2023-03-20T12:38:33Z</time>
      </trkpt>
      <trkpt lat="44.43114" lon="5.55096">
        <ele>1124</ele>
        <time>2023-03-20T12:38:34Z</time>
      </trkpt>
      <trkpt lat="44.43115" lon="5.55091">
        <ele>1124.1</ele>
        <time>2023-03-20T12:38:35Z</time>
      </trkpt>
      <trkpt lat="44.43115" lon="5.5509">
        <ele>1124.2</ele>
        <time>2023-03-20T12:38:36Z</time>
      </trkpt>
      <trkpt lat="44.43114" lon="5.55086">
        <ele>1124.4</ele>
        <time>2023-03-20T12:38:37Z</time>
      </trkpt>
      <trkpt lat="44.43114" lon="5.55085">
        <ele>1124.4</ele>
        <time>2023-03-20T12:38:38Z</time>
      </trkpt>
      <trkpt lat="44.43114" lon="5.55082">
        <ele>1124.5</ele>
        <time>2023-03-20T12:38:39Z</time>
      </trkpt>
      <trkpt lat="44.43114" lon="5.5508">
        <ele>1124.6</ele>
        <time>2023-03-20T12:38:40Z</time>
      </trkpt>
      <trkpt lat="44.43113" lon="5.55075">
        <ele>1124.8</ele>
        <time>2023-03-20T12:38:41Z</time>
      </trkpt>
      <trkpt lat="44.43113" lon="5.55074">
        <ele>1124.8</ele>
        <time>2023-03-20T12:38:42Z</time>
      </trkpt>
      <trkpt lat="44.43112" lon="5.55069">
        <ele>1125</ele>
        <time>2023-03-20T12:38:43Z</time>
      </trkpt>
      <trkpt lat="44.43111" lon="5.55068">
        <ele>1125.1</ele>
        <time>2023-03-20T12:38:44Z</time>
      </trkpt>
      <trkpt lat="44.43111" lon="5.55064">
        <ele>1125.3</ele>
        <time>2023-03-20T12:38:45Z</time>
      </trkpt>
      <trkpt lat="44.43111" lon="5.55063">
        <ele>1125.3</ele>
        <time>2023-03-20T12:38:46Z</time>
      </trkpt>
      <trkpt lat="44.4311" lon="5.55059">
        <ele>1125.5</ele>
        <time>2023-03-20T12:38:47Z</time>
      </trkpt>
      <trkpt lat="44.4311" lon="5.55057">
        <ele>1125.6</ele>
        <time>2023-03-20T12:38:48Z</time>
      </trkpt>
      <trkpt lat="44.43108" lon="5.55053">
        <ele>1125.7</ele>
        <time>2023-03-20T12:38:49Z</time>
      </trkpt>
      <trkpt lat="44.43108" lon="5.55052">
        <ele>1125.8</ele>
        <time>2023-03-20T12:38:50Z</time>
      </trkpt>
      <trkpt lat="44.43108" lon="5.55047">
        <ele>1126</ele>
        <time>2023-03-20T12:38:51Z</time>
      </trkpt>
      <trkpt lat="44.43108" lon="5.55046">
        <ele>1126</ele>
        <time>2023-03-20T12:38:52Z</time>
      </trkpt>
      <trkpt lat="44.43108" lon="5.5504">
        <ele>1126.2</ele>
        <time>2023-03-20T12:38:53Z</time>
      </trkpt>
      <trkpt lat="44.43108" lon="5.55039">
        <ele>1126.3</ele>
        <time>2023-03-20T12:38:54Z</time>
      </trkpt>
      <trkpt lat="44.43108" lon="5.55035">
        <ele>1126.5</ele>
        <time>2023-03-20T12:38:55Z</time>
      </trkpt>
      <trkpt lat="44.4311" lon="5.5503">
        <ele>1126.7</ele>
        <time>2023-03-20T12:38:56Z</time>
      </trkpt>
      <trkpt lat="44.4311" lon="5.55028">
        <ele>1126.8</ele>
        <time>2023-03-20T12:38:57Z</time>
      </trkpt>
      <trkpt lat="44.43111" lon="5.55024">
        <ele>1127</ele>
        <time>2023-03-20T12:38:58Z</time>
      </trkpt>
      <trkpt lat="44.43112" lon="5.55023">
        <ele>1127.1</ele>
        <time>2023-03-20T12:38:59Z</time>
      </trkpt>
      <trkpt lat="44.43113" lon="5.55019">
        <ele>1127.3</ele>
        <time>2023-03-20T12:39:00Z</time>
      </trkpt>
      <trkpt lat="44.43114" lon="5.55017">
        <ele>1127.3</ele>
        <time>2023-03-20T12:39:01Z</time>
      </trkpt>
      <trkpt lat="44.43115" lon="5.55013">
        <ele>1127.6</ele>
        <time>2023-03-20T12:39:02Z</time>
      </trkpt>
      <trkpt lat="44.43116" lon="5.55011">
        <ele>1127.6</ele>
        <time>2023-03-20T12:39:03Z</time>
      </trkpt>
      <trkpt lat="44.43116" lon="5.55006">
        <ele>1127.8</ele>
        <time>2023-03-20T12:39:04Z</time>
      </trkpt>
      <trkpt lat="44.43116" lon="5.55005">
        <ele>1127.9</ele>
        <time>2023-03-20T12:39:05Z</time>
      </trkpt>
      <trkpt lat="44.43117" lon="5.55">
        <ele>1128.1</ele>
        <time>2023-03-20T12:39:06Z</time>
      </trkpt>
      <trkpt lat="44.43117" lon="5.54998">
        <ele>1128.2</ele>
        <time>2023-03-20T12:39:07Z</time>
      </trkpt>
      <trkpt lat="44.43118" lon="5.54994">
        <ele>1128.4</ele>
        <time>2023-03-20T12:39:08Z</time>
      </trkpt>
      <trkpt lat="44.43118" lon="5.54993">
        <ele>1128.4</ele>
        <time>2023-03-20T12:39:09Z</time>
      </trkpt>
      <trkpt lat="44.43119" lon="5.54988">
        <ele>1128.6</ele>
        <time>2023-03-20T12:39:10Z</time>
      </trkpt>
      <trkpt lat="44.4312" lon="5.54986">
        <ele>1128.7</ele>
        <time>2023-03-20T12:39:11Z</time>
      </trkpt>
      <trkpt lat="44.43121" lon="5.54982">
        <ele>1128.9</ele>
        <time>2023-03-20T12:39:12Z</time>
      </trkpt>
      <trkpt lat="44.43121" lon="5.5498">
        <ele>1129</ele>
        <time>2023-03-20T12:39:13Z</time>
      </trkpt>
      <trkpt lat="44.43122" lon="5.54975">
        <ele>1129.2</ele>
        <time>2023-03-20T12:39:14Z</time>
      </trkpt>
      <trkpt lat="44.43122" lon="5.54974">
        <ele>1129.2</ele>
        <time>2023-03-20T12:39:15Z</time>
      </trkpt>
      <trkpt lat="44.43123" lon="5.5497">
        <ele>1129.4</ele>
        <time>2023-03-20T12:39:16Z</time>
      </trkpt>
      <trkpt lat="44.43123" lon="5.54968">
        <ele>1129.5</ele>
        <time>2023-03-20T12:39:17Z</time>
      </trkpt>
      <trkpt lat="44.43124" lon="5.54963">
        <ele>1129.7</ele>
        <time>2023-03-20T12:39:18Z</time>
      </trkpt>
      <trkpt lat="44.43124" lon="5.54962">
        <ele>1129.7</ele>
        <time>2023-03-20T12:39:19Z</time>
      </trkpt>
      <trkpt lat="44.43124" lon="5.54957">
        <ele>1129.9</ele>
        <time>2023-03-20T12:39:20Z</time>
      </trkpt>
      <trkpt lat="44.43124" lon="5.54955">
        <ele>1130</ele>
        <time>2023-03-20T12:39:21Z</time>
      </trkpt>
      <trkpt lat="44.43124" lon="5.5495">
        <ele>1130.2</ele>
        <time>2023-03-20T12:39:22Z</time>
      </trkpt>
      <trkpt lat="44.43125" lon="5.54949">
        <ele>1130.3</ele>
        <time>2023-03-20T12:39:23Z</time>
      </trkpt>
      <trkpt lat="44.43125" lon="5.54944">
        <ele>1130.5</ele>
        <time>2023-03-20T12:39:24Z</time>
      </trkpt>
      <trkpt lat="44.43125" lon="5.54942">
        <ele>1130.6</ele>
        <time>2023-03-20T12:39:25Z</time>
      </trkpt>
      <trkpt lat="44.43126" lon="5.54938">
        <ele>1130.8</ele>
        <time>2023-03-20T12:39:26Z</time>
      </trkpt>
      <trkpt lat="44.43126" lon="5.54936">
        <ele>1130.9</ele>
        <time>2023-03-20T12:39:27Z</time>
      </trkpt>
      <trkpt lat="44.43127" lon="5.54931">
        <ele>1131.1</ele>
        <time>2023-03-20T12:39:28Z</time>
      </trkpt>
      <trkpt lat="44.43128" lon="5.54929">
        <ele>1131.2</ele>
        <time>2023-03-20T12:39:29Z</time>
      </trkpt>
      <trkpt lat="44.43129" lon="5.54925">
        <ele>1131.4</ele>
        <time>2023-03-20T12:39:30Z</time>
      </trkpt>
      <trkpt lat="44.43129" lon="5.54924">
        <ele>1131.5</ele>
        <time>2023-03-20T12:39:31Z</time>
      </trkpt>
      <trkpt lat="44.4313" lon="5.54919">
        <ele>1131.7</ele>
        <time>2023-03-20T12:39:32Z</time>
      </trkpt>
      <trkpt lat="44.4313" lon="5.54918">
        <ele>1131.8</ele>
        <time>2023-03-20T12:39:33Z</time>
      </trkpt>
      <trkpt lat="44.43132" lon="5.54913">
        <ele>1132</ele>
        <time>2023-03-20T12:39:34Z</time>
      </trkpt>
      <trkpt lat="44.43133" lon="5.54912">
        <ele>1132.1</ele>
        <time>2023-03-20T12:39:35Z</time>
      </trkpt>
      <trkpt lat="44.43135" lon="5.54908">
        <ele>1132.3</ele>
        <time>2023-03-20T12:39:36Z</time>
      </trkpt>
      <trkpt lat="44.43135" lon="5.54907">
        <ele>1132.3</ele>
        <time>2023-03-20T12:39:37Z</time>
      </trkpt>
      <trkpt lat="44.43137" lon="5.54903">
        <ele>1132.5</ele>
        <time>2023-03-20T12:39:38Z</time>
      </trkpt>
      <trkpt lat="44.43138" lon="5.54902">
        <ele>1132.6</ele>
        <time>2023-03-20T12:39:39Z</time>
      </trkpt>
      <trkpt lat="44.4314" lon="5.54898">
        <ele>1132.7</ele>
        <time>2023-03-20T12:39:40Z</time>
      </trkpt>
      <trkpt lat="44.43141" lon="5.54897">
        <ele>1132.8</ele>
        <time>2023-03-20T12:39:41Z</time>
      </trkpt>
      <trkpt lat="44.43143" lon="5.54893">
        <ele>1133</ele>
        <time>2023-03-20T12:39:42Z</time>
      </trkpt>
      <trkpt lat="44.43143" lon="5.54892">
        <ele>1133.1</ele>
        <time>2023-03-20T12:39:43Z</time>
      </trkpt>
      <trkpt lat="44.43145" lon="5.54889">
        <ele>1133.2</ele>
        <time>2023-03-20T12:39:44Z</time>
      </trkpt>
      <trkpt lat="44.43146" lon="5.54888">
        <ele>1133.3</ele>
        <time>2023-03-20T12:39:45Z</time>
      </trkpt>
      <trkpt lat="44.43147" lon="5.54884">
        <ele>1133.5</ele>
        <time>2023-03-20T12:39:46Z</time>
      </trkpt>
      <trkpt lat="44.43148" lon="5.54883">
        <ele>1133.5</ele>
        <time>2023-03-20T12:39:47Z</time>
      </trkpt>
      <trkpt lat="44.43149" lon="5.5488">
        <ele>1133.7</ele>
        <time>2023-03-20T12:39:48Z</time>
      </trkpt>
      <trkpt lat="44.4315" lon="5.54879">
        <ele>1133.8</ele>
        <time>2023-03-20T12:39:49Z</time>
      </trkpt>
      <trkpt lat="44.43152" lon="5.54876">
        <ele>1134</ele>
        <time>2023-03-20T12:39:50Z</time>
      </trkpt>
      <trkpt lat="44.43153" lon="5.54875">
        <ele>1134</ele>
        <time>2023-03-20T12:39:51Z</time>
      </trkpt>
      <trkpt lat="44.43155" lon="5.54872">
        <ele>1134.2</ele>
        <time>2023-03-20T12:39:52Z</time>
      </trkpt>
      <trkpt lat="44.43156" lon="5.54871">
        <ele>1134.3</ele>
        <time>2023-03-20T12:39:53Z</time>
      </trkpt>
      <trkpt lat="44.43158" lon="5.54868">
        <ele>1134.5</ele>
        <time>2023-03-20T12:39:54Z</time>
      </trkpt>
      <trkpt lat="44.43159" lon="5.54868">
        <ele>1134.5</ele>
        <time>2023-03-20T12:39:55Z</time>
      </trkpt>
      <trkpt lat="44.43161" lon="5.54865">
        <ele>1134.7</ele>
        <time>2023-03-20T12:39:56Z</time>
      </trkpt>
      <trkpt lat="44.43162" lon="5.54864">
        <ele>1134.8</ele>
        <time>2023-03-20T12:39:57Z</time>
      </trkpt>
      <trkpt lat="44.43164" lon="5.54862">
        <ele>1134.9</ele>
        <time>2023-03-20T12:39:58Z</time>
      </trkpt>
      <trkpt lat="44.43164" lon="5.54861">
        <ele>1135</ele>
        <time>2023-03-20T12:39:59Z</time>
      </trkpt>
      <trkpt lat="44.43166" lon="5.54859">
        <ele>1135.1</ele>
        <time>2023-03-20T12:40:00Z</time>
      </trkpt>
      <trkpt lat="44.43167" lon="5.54858">
        <ele>1135.2</ele>
        <time>2023-03-20T12:40:01Z</time>
      </trkpt>
      <trkpt lat="44.43168" lon="5.54856">
        <ele>1135.3</ele>
        <time>2023-03-20T12:40:02Z</time>
      </trkpt>
      <trkpt lat="44.43169" lon="5.54854">
        <ele>1135.4</ele>
        <time>2023-03-20T12:40:03Z</time>
      </trkpt>
      <trkpt lat="44.43171" lon="5.54851">
        <ele>1135.6</ele>
        <time>2023-03-20T12:40:04Z</time>
      </trkpt>
      <trkpt lat="44.43172" lon="5.5485">
        <ele>1135.7</ele>
        <time>2023-03-20T12:40:05Z</time>
      </trkpt>
      <trkpt lat="44.43173" lon="5.54846">
        <ele>1135.9</ele>
        <time>2023-03-20T12:40:06Z</time>
      </trkpt>
      <trkpt lat="44.43174" lon="5.54845">
        <ele>1135.9</ele>
        <time>2023-03-20T12:40:07Z</time>
      </trkpt>
      <trkpt lat="44.43175" lon="5.5484">
        <ele>1136.2</ele>
        <time>2023-03-20T12:40:08Z</time>
      </trkpt>
      <trkpt lat="44.43176" lon="5.54839">
        <ele>1136.3</ele>
        <time>2023-03-20T12:40:09Z</time>
      </trkpt>
      <trkpt lat="44.43177" lon="5.54834">
        <ele>1136.5</ele>
        <time>2023-03-20T12:40:10Z</time>
      </trkpt>
      <trkpt lat="44.43177" lon="5.54833">
        <ele>1136.6</ele>
        <time>2023-03-20T12:40:11Z</time>
      </trkpt>
      <trkpt lat="44.43179" lon="5.54828">
        <ele>1136.8</ele>
        <time>2023-03-20T12:40:12Z</time>
      </trkpt>
      <trkpt lat="44.43179" lon="5.54827">
        <ele>1136.9</ele>
        <time>2023-03-20T12:40:13Z</time>
      </trkpt>
      <trkpt lat="44.43181" lon="5.54822">
        <ele>1137.1</ele>
        <time>2023-03-20T12:40:14Z</time>
      </trkpt>
      <trkpt lat="44.43181" lon="5.54818">
        <ele>1137.3</ele>
        <time>2023-03-20T12:40:15Z</time>
      </trkpt>
      <trkpt lat="44.43183" lon="5.54815">
        <ele>1137.5</ele>
        <time>2023-03-20T12:40:16Z</time>
      </trkpt>
      <trkpt lat="44.43184" lon="5.54811">
        <ele>1138.2</ele>
        <time>2023-03-20T12:40:17Z</time>
      </trkpt>
      <trkpt lat="44.43185" lon="5.54807">
        <ele>1138.3</ele>
        <time>2023-03-20T12:40:18Z</time>
      </trkpt>
      <trkpt lat="44.43186" lon="5.54802">
        <ele>1138.4</ele>
        <time>2023-03-20T12:40:19Z</time>
      </trkpt>
      <trkpt lat="44.43186" lon="5.548">
        <ele>1138.4</ele>
        <time>2023-03-20T12:40:20Z</time>
      </trkpt>
      <trkpt lat="44.43186" lon="5.54795">
        <ele>1138.6</ele>
        <time>2023-03-20T12:40:21Z</time>
      </trkpt>
      <trkpt lat="44.43187" lon="5.54793">
        <ele>1138.6</ele>
        <time>2023-03-20T12:40:22Z</time>
      </trkpt>
      <trkpt lat="44.43188" lon="5.54788">
        <ele>1138.8</ele>
        <time>2023-03-20T12:40:23Z</time>
      </trkpt>
      <trkpt lat="44.43188" lon="5.54786">
        <ele>1138.8</ele>
        <time>2023-03-20T12:40:24Z</time>
      </trkpt>
      <trkpt lat="44.43189" lon="5.54783">
        <ele>1138.9</ele>
        <time>2023-03-20T12:40:25Z</time>
      </trkpt>
      <trkpt lat="44.43191" lon="5.54778">
        <ele>1139.1</ele>
        <time>2023-03-20T12:40:26Z</time>
      </trkpt>
      <trkpt lat="44.43192" lon="5.54776">
        <ele>1139.1</ele>
        <time>2023-03-20T12:40:27Z</time>
      </trkpt>
      <trkpt lat="44.43194" lon="5.54772">
        <ele>1139.3</ele>
        <time>2023-03-20T12:40:28Z</time>
      </trkpt>
      <trkpt lat="44.43194" lon="5.54771">
        <ele>1139.3</ele>
        <time>2023-03-20T12:40:29Z</time>
      </trkpt>
      <trkpt lat="44.43196" lon="5.54767">
        <ele>1139.4</ele>
        <time>2023-03-20T12:40:30Z</time>
      </trkpt>
      <trkpt lat="44.43197" lon="5.54766">
        <ele>1139.5</ele>
        <time>2023-03-20T12:40:31Z</time>
      </trkpt>
      <trkpt lat="44.43198" lon="5.54762">
        <ele>1139.6</ele>
        <time>2023-03-20T12:40:32Z</time>
      </trkpt>
      <trkpt lat="44.43199" lon="5.54761">
        <ele>1139.6</ele>
        <time>2023-03-20T12:40:33Z</time>
      </trkpt>
      <trkpt lat="44.43201" lon="5.54756">
        <ele>1139.8</ele>
        <time>2023-03-20T12:40:34Z</time>
      </trkpt>
      <trkpt lat="44.43201" lon="5.54755">
        <ele>1139.8</ele>
        <time>2023-03-20T12:40:35Z</time>
      </trkpt>
      <trkpt lat="44.43203" lon="5.5475">
        <ele>1140</ele>
        <time>2023-03-20T12:40:36Z</time>
      </trkpt>
      <trkpt lat="44.43204" lon="5.54748">
        <ele>1140</ele>
        <time>2023-03-20T12:40:37Z</time>
      </trkpt>
      <trkpt lat="44.43205" lon="5.54745">
        <ele>1140.1</ele>
        <time>2023-03-20T12:40:38Z</time>
      </trkpt>
      <trkpt lat="44.43206" lon="5.54741">
        <ele>1140.2</ele>
        <time>2023-03-20T12:40:39Z</time>
      </trkpt>
      <trkpt lat="44.43207" lon="5.54736">
        <ele>1140.4</ele>
        <time>2023-03-20T12:40:40Z</time>
      </trkpt>
      <trkpt lat="44.43207" lon="5.54734">
        <ele>1140.4</ele>
        <time>2023-03-20T12:40:41Z</time>
      </trkpt>
      <trkpt lat="44.43207" lon="5.5473">
        <ele>1140.5</ele>
        <time>2023-03-20T12:40:42Z</time>
      </trkpt>
      <trkpt lat="44.43208" lon="5.54724">
        <ele>1140.7</ele>
        <time>2023-03-20T12:40:43Z</time>
      </trkpt>
      <trkpt lat="44.43208" lon="5.54722">
        <ele>1140.7</ele>
        <time>2023-03-20T12:40:44Z</time>
      </trkpt>
      <trkpt lat="44.43209" lon="5.54717">
        <ele>1140.9</ele>
        <time>2023-03-20T12:40:45Z</time>
      </trkpt>
      <trkpt lat="44.43209" lon="5.54716">
        <ele>1140.9</ele>
        <time>2023-03-20T12:40:46Z</time>
      </trkpt>
      <trkpt lat="44.43211" lon="5.54711">
        <ele>1141.1</ele>
        <time>2023-03-20T12:40:47Z</time>
      </trkpt>
      <trkpt lat="44.43211" lon="5.5471">
        <ele>1141.1</ele>
        <time>2023-03-20T12:40:48Z</time>
      </trkpt>
      <trkpt lat="44.43213" lon="5.54705">
        <ele>1141.2</ele>
        <time>2023-03-20T12:40:49Z</time>
      </trkpt>
      <trkpt lat="44.43213" lon="5.54704">
        <ele>1141.3</ele>
        <time>2023-03-20T12:40:50Z</time>
      </trkpt>
      <trkpt lat="44.43216" lon="5.547">
        <ele>1141.4</ele>
        <time>2023-03-20T12:40:51Z</time>
      </trkpt>
      <trkpt lat="44.43217" lon="5.54699">
        <ele>1141.5</ele>
        <time>2023-03-20T12:40:52Z</time>
      </trkpt>
      <trkpt lat="44.4322" lon="5.54695">
        <ele>1141.6</ele>
        <time>2023-03-20T12:40:53Z</time>
      </trkpt>
      <trkpt lat="44.43221" lon="5.54694">
        <ele>1141.7</ele>
        <time>2023-03-20T12:40:54Z</time>
      </trkpt>
      <trkpt lat="44.43224" lon="5.54691">
        <ele>1141.8</ele>
        <time>2023-03-20T12:40:55Z</time>
      </trkpt>
      <trkpt lat="44.43225" lon="5.5469">
        <ele>1141.9</ele>
        <time>2023-03-20T12:40:56Z</time>
      </trkpt>
      <trkpt lat="44.43227" lon="5.54686">
        <ele>1142</ele>
        <time>2023-03-20T12:40:57Z</time>
      </trkpt>
      <trkpt lat="44.43228" lon="5.54685">
        <ele>1142</ele>
        <time>2023-03-20T12:40:58Z</time>
      </trkpt>
      <trkpt lat="44.43231" lon="5.54683">
        <ele>1142.2</ele>
        <time>2023-03-20T12:40:59Z</time>
      </trkpt>
      <trkpt lat="44.43232" lon="5.54682">
        <ele>1142.2</ele>
        <time>2023-03-20T12:41:00Z</time>
      </trkpt>
      <trkpt lat="44.43235" lon="5.54678">
        <ele>1142.4</ele>
        <time>2023-03-20T12:41:01Z</time>
      </trkpt>
      <trkpt lat="44.43236" lon="5.54677">
        <ele>1142.4</ele>
        <time>2023-03-20T12:41:02Z</time>
      </trkpt>
      <trkpt lat="44.43238" lon="5.54674">
        <ele>1142.5</ele>
        <time>2023-03-20T12:41:03Z</time>
      </trkpt>
      <trkpt lat="44.4324" lon="5.54669">
        <ele>1142.7</ele>
        <time>2023-03-20T12:41:04Z</time>
      </trkpt>
      <trkpt lat="44.43241" lon="5.54667">
        <ele>1142.7</ele>
        <time>2023-03-20T12:41:05Z</time>
      </trkpt>
      <trkpt lat="44.43242" lon="5.54664">
        <ele>1142.8</ele>
        <time>2023-03-20T12:41:06Z</time>
      </trkpt>
      <trkpt lat="44.43242" lon="5.5466">
        <ele>1142.9</ele>
        <time>2023-03-20T12:41:07Z</time>
      </trkpt>
      <trkpt lat="44.43242" lon="5.54656">
        <ele>1143</ele>
        <time>2023-03-20T12:41:08Z</time>
      </trkpt>
      <trkpt lat="44.43242" lon="5.5465">
        <ele>1143.2</ele>
        <time>2023-03-20T12:41:09Z</time>
      </trkpt>
      <trkpt lat="44.43242" lon="5.54649">
        <ele>1143.2</ele>
        <time>2023-03-20T12:41:10Z</time>
      </trkpt>
      <trkpt lat="44.43243" lon="5.54644">
        <ele>1143.4</ele>
        <time>2023-03-20T12:41:11Z</time>
      </trkpt>
      <trkpt lat="44.43243" lon="5.54642">
        <ele>1143.4</ele>
        <time>2023-03-20T12:41:12Z</time>
      </trkpt>
      <trkpt lat="44.43244" lon="5.54637">
        <ele>1143.5</ele>
        <time>2023-03-20T12:41:13Z</time>
      </trkpt>
      <trkpt lat="44.43244" lon="5.54635">
        <ele>1143.6</ele>
        <time>2023-03-20T12:41:14Z</time>
      </trkpt>
      <trkpt lat="44.43244" lon="5.5463">
        <ele>1143.7</ele>
        <time>2023-03-20T12:41:15Z</time>
      </trkpt>
      <trkpt lat="44.43244" lon="5.54628">
        <ele>1143.8</ele>
        <time>2023-03-20T12:41:16Z</time>
      </trkpt>
      <trkpt lat="44.43245" lon="5.54625">
        <ele>1143.9</ele>
        <time>2023-03-20T12:41:17Z</time>
      </trkpt>
      <trkpt lat="44.43245" lon="5.5462">
        <ele>1144</ele>
        <time>2023-03-20T12:41:18Z</time>
      </trkpt>
      <trkpt lat="44.43246" lon="5.54618">
        <ele>1144.1</ele>
        <time>2023-03-20T12:41:19Z</time>
      </trkpt>
      <trkpt lat="44.43247" lon="5.54613">
        <ele>1144.2</ele>
        <time>2023-03-20T12:41:20Z</time>
      </trkpt>
      <trkpt lat="44.43247" lon="5.54612">
        <ele>1144.3</ele>
        <time>2023-03-20T12:41:21Z</time>
      </trkpt>
      <trkpt lat="44.43248" lon="5.54608">
        <ele>1144.4</ele>
        <time>2023-03-20T12:41:22Z</time>
      </trkpt>
      <trkpt lat="44.4325" lon="5.54604">
        <ele>1144.5</ele>
        <time>2023-03-20T12:41:23Z</time>
      </trkpt>
      <trkpt lat="44.4325" lon="5.54602">
        <ele>1144.5</ele>
        <time>2023-03-20T12:41:24Z</time>
      </trkpt>
      <trkpt lat="44.43252" lon="5.54597">
        <ele>1144.7</ele>
        <time>2023-03-20T12:41:25Z</time>
      </trkpt>
      <trkpt lat="44.43252" lon="5.54595">
        <ele>1144.7</ele>
        <time>2023-03-20T12:41:26Z</time>
      </trkpt>
      <trkpt lat="44.43254" lon="5.54591">
        <ele>1144.9</ele>
        <time>2023-03-20T12:41:27Z</time>
      </trkpt>
      <trkpt lat="44.43254" lon="5.54589">
        <ele>1144.9</ele>
        <time>2023-03-20T12:41:28Z</time>
      </trkpt>
      <trkpt lat="44.43256" lon="5.54584">
        <ele>1145.1</ele>
        <time>2023-03-20T12:41:29Z</time>
      </trkpt>
      <trkpt lat="44.43256" lon="5.54583">
        <ele>1145.1</ele>
        <time>2023-03-20T12:41:30Z</time>
      </trkpt>
      <trkpt lat="44.43257" lon="5.54578">
        <ele>1145.2</ele>
        <time>2023-03-20T12:41:31Z</time>
      </trkpt>
      <trkpt lat="44.43257" lon="5.54577">
        <ele>1145.3</ele>
        <time>2023-03-20T12:41:32Z</time>
      </trkpt>
      <trkpt lat="44.43259" lon="5.54572">
        <ele>1145.4</ele>
        <time>2023-03-20T12:41:33Z</time>
      </trkpt>
      <trkpt lat="44.43259" lon="5.54571">
        <ele>1145.4</ele>
        <time>2023-03-20T12:41:34Z</time>
      </trkpt>
      <trkpt lat="44.4326" lon="5.54566">
        <ele>1145.6</ele>
        <time>2023-03-20T12:41:35Z</time>
      </trkpt>
      <trkpt lat="44.4326" lon="5.54564">
        <ele>1145.6</ele>
        <time>2023-03-20T12:41:36Z</time>
      </trkpt>
      <trkpt lat="44.43261" lon="5.5456">
        <ele>1145.8</ele>
        <time>2023-03-20T12:41:37Z</time>
      </trkpt>
      <trkpt lat="44.43262" lon="5.54558">
        <ele>1145.8</ele>
        <time>2023-03-20T12:41:38Z</time>
      </trkpt>
      <trkpt lat="44.43263" lon="5.54553">
        <ele>1145.9</ele>
        <time>2023-03-20T12:41:39Z</time>
      </trkpt>
      <trkpt lat="44.43263" lon="5.54552">
        <ele>1146</ele>
        <time>2023-03-20T12:41:40Z</time>
      </trkpt>
      <trkpt lat="44.43264" lon="5.54546">
        <ele>1146.1</ele>
        <time>2023-03-20T12:41:41Z</time>
      </trkpt>
      <trkpt lat="44.43265" lon="5.54545">
        <ele>1146.2</ele>
        <time>2023-03-20T12:41:42Z</time>
      </trkpt>
      <trkpt lat="44.43266" lon="5.54539">
        <ele>1146.3</ele>
        <time>2023-03-20T12:41:43Z</time>
      </trkpt>
      <trkpt lat="44.43267" lon="5.54538">
        <ele>1146.4</ele>
        <time>2023-03-20T12:41:44Z</time>
      </trkpt>
      <trkpt lat="44.43269" lon="5.54533">
        <ele>1146.5</ele>
        <time>2023-03-20T12:41:45Z</time>
      </trkpt>
      <trkpt lat="44.43269" lon="5.54532">
        <ele>1146.6</ele>
        <time>2023-03-20T12:41:46Z</time>
      </trkpt>
      <trkpt lat="44.43271" lon="5.54528">
        <ele>1146.7</ele>
        <time>2023-03-20T12:41:47Z</time>
      </trkpt>
      <trkpt lat="44.43272" lon="5.54526">
        <ele>1146.7</ele>
        <time>2023-03-20T12:41:48Z</time>
      </trkpt>
      <trkpt lat="44.43274" lon="5.54523">
        <ele>1146.9</ele>
        <time>2023-03-20T12:41:49Z</time>
      </trkpt>
      <trkpt lat="44.43275" lon="5.54521">
        <ele>1146.9</ele>
        <time>2023-03-20T12:41:50Z</time>
      </trkpt>
      <trkpt lat="44.43277" lon="5.54518">
        <ele>1147</ele>
        <time>2023-03-20T12:41:51Z</time>
      </trkpt>
      <trkpt lat="44.43278" lon="5.54517">
        <ele>1147.1</ele>
        <time>2023-03-20T12:41:52Z</time>
      </trkpt>
      <trkpt lat="44.4328" lon="5.54513">
        <ele>1147.2</ele>
        <time>2023-03-20T12:41:53Z</time>
      </trkpt>
      <trkpt lat="44.43281" lon="5.54511">
        <ele>1147.3</ele>
        <time>2023-03-20T12:41:54Z</time>
      </trkpt>
      <trkpt lat="44.43281" lon="5.54506">
        <ele>1147.4</ele>
        <time>2023-03-20T12:41:55Z</time>
      </trkpt>
      <trkpt lat="44.43282" lon="5.54505">
        <ele>1147.5</ele>
        <time>2023-03-20T12:41:56Z</time>
      </trkpt>
      <trkpt lat="44.43281" lon="5.545">
        <ele>1147.6</ele>
        <time>2023-03-20T12:41:57Z</time>
      </trkpt>
      <trkpt lat="44.43281" lon="5.54498">
        <ele>1148.5</ele>
        <time>2023-03-20T12:41:58Z</time>
      </trkpt>
      <trkpt lat="44.43281" lon="5.54494">
        <ele>1149.3</ele>
        <time>2023-03-20T12:41:59Z</time>
      </trkpt>
      <trkpt lat="44.4328" lon="5.54492">
        <ele>1150.2</ele>
        <time>2023-03-20T12:42:00Z</time>
      </trkpt>
      <trkpt lat="44.4328" lon="5.5449">
        <ele>1153.7</ele>
        <time>2023-03-20T12:42:01Z</time>
      </trkpt>
      <trkpt lat="44.43279" lon="5.54488">
        <ele>1154.6</ele>
        <time>2023-03-20T12:42:02Z</time>
      </trkpt>
      <trkpt lat="44.43278" lon="5.54486">
        <ele>1155.4</ele>
        <time>2023-03-20T12:42:03Z</time>
      </trkpt>
      <trkpt lat="44.43278" lon="5.54484">
        <ele>1156.3</ele>
        <time>2023-03-20T12:42:04Z</time>
      </trkpt>
      <trkpt lat="44.43275" lon="5.54481">
        <ele>1157.2</ele>
        <time>2023-03-20T12:42:05Z</time>
      </trkpt>
      <trkpt lat="44.43275" lon="5.5448">
        <ele>1158.1</ele>
        <time>2023-03-20T12:42:06Z</time>
      </trkpt>
      <trkpt lat="44.43272" lon="5.54477">
        <ele>1158.9</ele>
        <time>2023-03-20T12:42:07Z</time>
      </trkpt>
      <trkpt lat="44.43272" lon="5.54476">
        <ele>1159.8</ele>
        <time>2023-03-20T12:42:08Z</time>
      </trkpt>
      <trkpt lat="44.4327" lon="5.54475">
        <ele>1160.7</ele>
        <time>2023-03-20T12:42:09Z</time>
      </trkpt>
      <trkpt lat="44.43269" lon="5.54473">
        <ele>1161.5</ele>
        <time>2023-03-20T12:42:10Z</time>
      </trkpt>
      <trkpt lat="44.43267" lon="5.5447">
        <ele>1164.5</ele>
        <time>2023-03-20T12:42:11Z</time>
      </trkpt>
      <trkpt lat="44.43267" lon="5.54469">
        <ele>1165.4</ele>
        <time>2023-03-20T12:42:12Z</time>
      </trkpt>
      <trkpt lat="44.43265" lon="5.54466">
        <ele>1166.1</ele>
        <time>2023-03-20T12:42:13Z</time>
      </trkpt>
      <trkpt lat="44.43264" lon="5.54465">
        <ele>1166</ele>
        <time>2023-03-20T12:42:14Z</time>
      </trkpt>
      <trkpt lat="44.43263" lon="5.54463">
        <ele>1165.8</ele>
        <time>2023-03-20T12:42:15Z</time>
      </trkpt>
      <trkpt lat="44.43262" lon="5.54461">
        <ele>1165.7</ele>
        <time>2023-03-20T12:42:16Z</time>
      </trkpt>
      <trkpt lat="44.43261" lon="5.54457">
        <ele>1165.5</ele>
        <time>2023-03-20T12:42:17Z</time>
      </trkpt>
      <trkpt lat="44.4326" lon="5.54456">
        <ele>1165.4</ele>
        <time>2023-03-20T12:42:18Z</time>
      </trkpt>
      <trkpt lat="44.43259" lon="5.54451">
        <ele>1165.1</ele>
        <time>2023-03-20T12:42:19Z</time>
      </trkpt>
      <trkpt lat="44.43259" lon="5.5445">
        <ele>1165</ele>
        <time>2023-03-20T12:42:20Z</time>
      </trkpt>
      <trkpt lat="44.43258" lon="5.54446">
        <ele>1164.8</ele>
        <time>2023-03-20T12:42:21Z</time>
      </trkpt>
      <trkpt lat="44.43258" lon="5.54444">
        <ele>1164.7</ele>
        <time>2023-03-20T12:42:22Z</time>
      </trkpt>
      <trkpt lat="44.43258" lon="5.5444">
        <ele>1164.4</ele>
        <time>2023-03-20T12:42:23Z</time>
      </trkpt>
      <trkpt lat="44.43258" lon="5.54439">
        <ele>1164.4</ele>
        <time>2023-03-20T12:42:24Z</time>
      </trkpt>
      <trkpt lat="44.43257" lon="5.54436">
        <ele>1164.2</ele>
        <time>2023-03-20T12:42:25Z</time>
      </trkpt>
      <trkpt lat="44.43257" lon="5.54434">
        <ele>1164.1</ele>
        <time>2023-03-20T12:42:26Z</time>
      </trkpt>
      <trkpt lat="44.43257" lon="5.54432">
        <ele>1164</ele>
        <time>2023-03-20T12:42:27Z</time>
      </trkpt>
      <trkpt lat="44.43257" lon="5.5443">
        <ele>1163.8</ele>
        <time>2023-03-20T12:42:28Z</time>
      </trkpt>
      <trkpt lat="44.43256" lon="5.54426">
        <ele>1163.6</ele>
        <time>2023-03-20T12:42:29Z</time>
      </trkpt>
      <trkpt lat="44.43256" lon="5.54424">
        <ele>1163.5</ele>
        <time>2023-03-20T12:42:30Z</time>
      </trkpt>
      <trkpt lat="44.43255" lon="5.5442">
        <ele>1163.2</ele>
        <time>2023-03-20T12:42:31Z</time>
      </trkpt>
      <trkpt lat="44.43254" lon="5.54418">
        <ele>1163.1</ele>
        <time>2023-03-20T12:42:32Z</time>
      </trkpt>
      <trkpt lat="44.43254" lon="5.54413">
        <ele>1162.8</ele>
        <time>2023-03-20T12:42:33Z</time>
      </trkpt>
      <trkpt lat="44.43254" lon="5.54411">
        <ele>1162.7</ele>
        <time>2023-03-20T12:42:34Z</time>
      </trkpt>
      <trkpt lat="44.43253" lon="5.54406">
        <ele>1162.3</ele>
        <time>2023-03-20T12:42:35Z</time>
      </trkpt>
      <trkpt lat="44.43253" lon="5.54404">
        <ele>1162.2</ele>
        <time>2023-03-20T12:42:36Z</time>
      </trkpt>
      <trkpt lat="44.43252" lon="5.54398">
        <ele>1161.9</ele>
        <time>2023-03-20T12:42:37Z</time>
      </trkpt>
      <trkpt lat="44.43252" lon="5.54396">
        <ele>1161.8</ele>
        <time>2023-03-20T12:42:38Z</time>
      </trkpt>
      <trkpt lat="44.43252" lon="5.54391">
        <ele>1161.4</ele>
        <time>2023-03-20T12:42:39Z</time>
      </trkpt>
      <trkpt lat="44.43251" lon="5.54389">
        <ele>1161.3</ele>
        <time>2023-03-20T12:42:40Z</time>
      </trkpt>
      <trkpt lat="44.43251" lon="5.54385">
        <ele>1161.1</ele>
        <time>2023-03-20T12:42:41Z</time>
      </trkpt>
      <trkpt lat="44.43252" lon="5.54383">
        <ele>1161</ele>
        <time>2023-03-20T12:42:42Z</time>
      </trkpt>
      <trkpt lat="44.43251" lon="5.54378">
        <ele>1160.6</ele>
        <time>2023-03-20T12:42:43Z</time>
      </trkpt>
      <trkpt lat="44.43251" lon="5.54376">
        <ele>1160.5</ele>
        <time>2023-03-20T12:42:44Z</time>
      </trkpt>
      <trkpt lat="44.43251" lon="5.54371">
        <ele>1160.2</ele>
        <time>2023-03-20T12:42:45Z</time>
      </trkpt>
      <trkpt lat="44.43251" lon="5.54369">
        <ele>1160.1</ele>
        <time>2023-03-20T12:42:46Z</time>
      </trkpt>
      <trkpt lat="44.43251" lon="5.54364">
        <ele>1159.8</ele>
        <time>2023-03-20T12:42:47Z</time>
      </trkpt>
      <trkpt lat="44.43251" lon="5.54362">
        <ele>1159.7</ele>
        <time>2023-03-20T12:42:48Z</time>
      </trkpt>
      <trkpt lat="44.43251" lon="5.54357">
        <ele>1159.4</ele>
        <time>2023-03-20T12:42:49Z</time>
      </trkpt>
      <trkpt lat="44.43251" lon="5.54355">
        <ele>1159.2</ele>
        <time>2023-03-20T12:42:50Z</time>
      </trkpt>
      <trkpt lat="44.43252" lon="5.54349">
        <ele>1158.9</ele>
        <time>2023-03-20T12:42:51Z</time>
      </trkpt>
      <trkpt lat="44.43252" lon="5.54347">
        <ele>1158.8</ele>
        <time>2023-03-20T12:42:52Z</time>
      </trkpt>
      <trkpt lat="44.43251" lon="5.54342">
        <ele>1158.5</ele>
        <time>2023-03-20T12:42:53Z</time>
      </trkpt>
      <trkpt lat="44.43251" lon="5.5434">
        <ele>1158.4</ele>
        <time>2023-03-20T12:42:54Z</time>
      </trkpt>
      <trkpt lat="44.43248" lon="5.54338">
        <ele>1158.7</ele>
        <time>2023-03-20T12:42:55Z</time>
      </trkpt>
      <trkpt lat="44.43245" lon="5.54337">
        <ele>1159</ele>
        <time>2023-03-20T12:42:56Z</time>
      </trkpt>
      <trkpt lat="44.43241" lon="5.54339">
        <ele>1159.3</ele>
        <time>2023-03-20T12:42:57Z</time>
      </trkpt>
      <trkpt lat="44.43241" lon="5.5434">
        <ele>1159.3</ele>
        <time>2023-03-20T12:42:58Z</time>
      </trkpt>
      <trkpt lat="44.4324" lon="5.54341">
        <ele>1159.5</ele>
        <time>2023-03-20T12:42:59Z</time>
      </trkpt>
      <trkpt lat="44.43239" lon="5.54343">
        <ele>1159.6</ele>
        <time>2023-03-20T12:43:00Z</time>
      </trkpt>
      <trkpt lat="44.43238" lon="5.54345">
        <ele>1159.7</ele>
        <time>2023-03-20T12:43:01Z</time>
      </trkpt>
      <trkpt lat="44.43237" lon="5.54347">
        <ele>1159.9</ele>
        <time>2023-03-20T12:43:02Z</time>
      </trkpt>
      <trkpt lat="44.43237" lon="5.5435">
        <ele>1160.1</ele>
        <time>2023-03-20T12:43:03Z</time>
      </trkpt>
      <trkpt lat="44.43236" lon="5.54351">
        <ele>1160.2</ele>
        <time>2023-03-20T12:43:04Z</time>
      </trkpt>
      <trkpt lat="44.43236" lon="5.54353">
        <ele>1160.3</ele>
        <time>2023-03-20T12:43:05Z</time>
      </trkpt>
      <trkpt lat="44.43235" lon="5.54355">
        <ele>1160.4</ele>
        <time>2023-03-20T12:43:06Z</time>
      </trkpt>
      <trkpt lat="44.43235" lon="5.54357">
        <ele>1160.5</ele>
        <time>2023-03-20T12:43:07Z</time>
      </trkpt>
      <trkpt lat="44.43234" lon="5.54359">
        <ele>1160.6</ele>
        <time>2023-03-20T12:43:08Z</time>
      </trkpt>
      <trkpt lat="44.43233" lon="5.54361">
        <ele>1160.8</ele>
        <time>2023-03-20T12:43:09Z</time>
      </trkpt>
      <trkpt lat="44.43233" lon="5.54363">
        <ele>1160.9</ele>
        <time>2023-03-20T12:43:10Z</time>
      </trkpt>
      <trkpt lat="44.43233" lon="5.54365">
        <ele>1161</ele>
        <time>2023-03-20T12:43:11Z</time>
      </trkpt>
      <trkpt lat="44.43232" lon="5.54368">
        <ele>1161.3</ele>
        <time>2023-03-20T12:43:12Z</time>
      </trkpt>
      <trkpt lat="44.43232" lon="5.5437">
        <ele>1161.4</ele>
        <time>2023-03-20T12:43:13Z</time>
      </trkpt>
      <trkpt lat="44.43231" lon="5.54372">
        <ele>1161.5</ele>
        <time>2023-03-20T12:43:14Z</time>
      </trkpt>
      <trkpt lat="44.43231" lon="5.54374">
        <ele>1161.6</ele>
        <time>2023-03-20T12:43:15Z</time>
      </trkpt>
      <trkpt lat="44.43231" lon="5.54378">
        <ele>1161.9</ele>
        <time>2023-03-20T12:43:16Z</time>
      </trkpt>
      <trkpt lat="44.43231" lon="5.54379">
        <ele>1161.9</ele>
        <time>2023-03-20T12:43:17Z</time>
      </trkpt>
      <trkpt lat="44.43231" lon="5.54383">
        <ele>1162.2</ele>
        <time>2023-03-20T12:43:18Z</time>
      </trkpt>
      <trkpt lat="44.43231" lon="5.54385">
        <ele>1162.3</ele>
        <time>2023-03-20T12:43:19Z</time>
      </trkpt>
      <trkpt lat="44.43231" lon="5.54389">
        <ele>1162.5</ele>
        <time>2023-03-20T12:43:20Z</time>
      </trkpt>
      <trkpt lat="44.43231" lon="5.54391">
        <ele>1162.6</ele>
        <time>2023-03-20T12:43:21Z</time>
      </trkpt>
      <trkpt lat="44.43231" lon="5.54393">
        <ele>1162.8</ele>
        <time>2023-03-20T12:43:22Z</time>
      </trkpt>
      <trkpt lat="44.4323" lon="5.54395">
        <ele>1162.9</ele>
        <time>2023-03-20T12:43:23Z</time>
      </trkpt>
      <trkpt lat="44.4323" lon="5.54399">
        <ele>1163.2</ele>
        <time>2023-03-20T12:43:24Z</time>
      </trkpt>
      <trkpt lat="44.4323" lon="5.54401">
        <ele>1163.3</ele>
        <time>2023-03-20T12:43:25Z</time>
      </trkpt>
      <trkpt lat="44.4323" lon="5.54405">
        <ele>1163.5</ele>
        <time>2023-03-20T12:43:26Z</time>
      </trkpt>
      <trkpt lat="44.4323" lon="5.54406">
        <ele>1163.6</ele>
        <time>2023-03-20T12:43:27Z</time>
      </trkpt>
      <trkpt lat="44.4323" lon="5.5441">
        <ele>1163.8</ele>
        <time>2023-03-20T12:43:28Z</time>
      </trkpt>
      <trkpt lat="44.4323" lon="5.54411">
        <ele>1163.9</ele>
        <time>2023-03-20T12:43:29Z</time>
      </trkpt>
      <trkpt lat="44.43231" lon="5.54415">
        <ele>1164.1</ele>
        <time>2023-03-20T12:43:30Z</time>
      </trkpt>
      <trkpt lat="44.43231" lon="5.54417">
        <ele>1164.2</ele>
        <time>2023-03-20T12:43:31Z</time>
      </trkpt>
      <trkpt lat="44.43231" lon="5.54422">
        <ele>1164.5</ele>
        <time>2023-03-20T12:43:32Z</time>
      </trkpt>
      <trkpt lat="44.43232" lon="5.54423">
        <ele>1164.6</ele>
        <time>2023-03-20T12:43:33Z</time>
      </trkpt>
      <trkpt lat="44.43232" lon="5.54427">
        <ele>1164.8</ele>
        <time>2023-03-20T12:43:34Z</time>
      </trkpt>
      <trkpt lat="44.43232" lon="5.54428">
        <ele>1164.9</ele>
        <time>2023-03-20T12:43:35Z</time>
      </trkpt>
      <trkpt lat="44.43231" lon="5.5443">
        <ele>1165</ele>
        <time>2023-03-20T12:43:36Z</time>
      </trkpt>
      <trkpt lat="44.43232" lon="5.54433">
        <ele>1165.2</ele>
        <time>2023-03-20T12:43:37Z</time>
      </trkpt>
      <trkpt lat="44.43233" lon="5.54435">
        <ele>1165.3</ele>
        <time>2023-03-20T12:43:38Z</time>
      </trkpt>
      <trkpt lat="44.43234" lon="5.54436">
        <ele>1165.4</ele>
        <time>2023-03-20T12:43:39Z</time>
      </trkpt>
      <trkpt lat="44.43235" lon="5.54438">
        <ele>1165.6</ele>
        <time>2023-03-20T12:43:40Z</time>
      </trkpt>
      <trkpt lat="44.43236" lon="5.54441">
        <ele>1165.7</ele>
        <time>2023-03-20T12:43:41Z</time>
      </trkpt>
      <trkpt lat="44.43238" lon="5.54444">
        <ele>1166</ele>
        <time>2023-03-20T12:43:42Z</time>
      </trkpt>
      <trkpt lat="44.43239" lon="5.54446">
        <ele>1166.2</ele>
        <time>2023-03-20T12:43:43Z</time>
      </trkpt>
      <trkpt lat="44.43241" lon="5.5445">
        <ele>1166.5</ele>
        <time>2023-03-20T12:43:44Z</time>
      </trkpt>
      <trkpt lat="44.43242" lon="5.54451">
        <ele>1166.5</ele>
        <time>2023-03-20T12:43:45Z</time>
      </trkpt>
      <trkpt lat="44.43243" lon="5.54456">
        <ele>1166.8</ele>
        <time>2023-03-20T12:43:46Z</time>
      </trkpt>
      <trkpt lat="44.43243" lon="5.54457">
        <ele>1166.9</ele>
        <time>2023-03-20T12:43:47Z</time>
      </trkpt>
      <trkpt lat="44.43244" lon="5.54462">
        <ele>1167.2</ele>
        <time>2023-03-20T12:43:48Z</time>
      </trkpt>
      <trkpt lat="44.43244" lon="5.54463">
        <ele>1167.3</ele>
        <time>2023-03-20T12:43:49Z</time>
      </trkpt>
      <trkpt lat="44.43243" lon="5.54467">
        <ele>1167.5</ele>
        <time>2023-03-20T12:43:50Z</time>
      </trkpt>
      <trkpt lat="44.43242" lon="5.54468">
        <ele>1167.6</ele>
        <time>2023-03-20T12:43:51Z</time>
      </trkpt>
      <trkpt lat="44.43241" lon="5.54472">
        <ele>1167.9</ele>
        <time>2023-03-20T12:43:52Z</time>
      </trkpt>
      <trkpt lat="44.43241" lon="5.54473">
        <ele>1168</ele>
        <time>2023-03-20T12:43:53Z</time>
      </trkpt>
      <trkpt lat="44.43239" lon="5.54477">
        <ele>1168.3</ele>
        <time>2023-03-20T12:43:54Z</time>
      </trkpt>
      <trkpt lat="44.43238" lon="5.54478">
        <ele>1168.4</ele>
        <time>2023-03-20T12:43:55Z</time>
      </trkpt>
      <trkpt lat="44.43237" lon="5.54482">
        <ele>1168.7</ele>
        <time>2023-03-20T12:43:56Z</time>
      </trkpt>
      <trkpt lat="44.43236" lon="5.54483">
        <ele>1168.8</ele>
        <time>2023-03-20T12:43:57Z</time>
      </trkpt>
      <trkpt lat="44.43234" lon="5.54487">
        <ele>1169.1</ele>
        <time>2023-03-20T12:43:58Z</time>
      </trkpt>
      <trkpt lat="44.43234" lon="5.54488">
        <ele>1169.2</ele>
        <time>2023-03-20T12:43:59Z</time>
      </trkpt>
      <trkpt lat="44.43232" lon="5.54491">
        <ele>1169.4</ele>
        <time>2023-03-20T12:44:00Z</time>
      </trkpt>
      <trkpt lat="44.43231" lon="5.54492">
        <ele>1169.5</ele>
        <time>2023-03-20T12:44:01Z</time>
      </trkpt>
      <trkpt lat="44.43229" lon="5.54496">
        <ele>1169.8</ele>
        <time>2023-03-20T12:44:02Z</time>
      </trkpt>
      <trkpt lat="44.43228" lon="5.54497">
        <ele>1169.9</ele>
        <time>2023-03-20T12:44:03Z</time>
      </trkpt>
      <trkpt lat="44.43226" lon="5.54499">
        <ele>1170.2</ele>
        <time>2023-03-20T12:44:04Z</time>
      </trkpt>
      <trkpt lat="44.43224" lon="5.54503">
        <ele>1170.5</ele>
        <time>2023-03-20T12:44:05Z</time>
      </trkpt>
      <trkpt lat="44.43223" lon="5.54504">
        <ele>1170.6</ele>
        <time>2023-03-20T12:44:06Z</time>
      </trkpt>
      <trkpt lat="44.43222" lon="5.54507">
        <ele>1170.8</ele>
        <time>2023-03-20T12:44:07Z</time>
      </trkpt>
      <trkpt lat="44.43221" lon="5.54508">
        <ele>1170.9</ele>
        <time>2023-03-20T12:44:08Z</time>
      </trkpt>
      <trkpt lat="44.43219" lon="5.54511">
        <ele>1171.1</ele>
        <time>2023-03-20T12:44:09Z</time>
      </trkpt>
      <trkpt lat="44.43219" lon="5.54512">
        <ele>1171.2</ele>
        <time>2023-03-20T12:44:10Z</time>
      </trkpt>
      <trkpt lat="44.43217" lon="5.54516">
        <ele>1171.5</ele>
        <time>2023-03-20T12:44:11Z</time>
      </trkpt>
      <trkpt lat="44.43217" lon="5.54517">
        <ele>1171.5</ele>
        <time>2023-03-20T12:44:12Z</time>
      </trkpt>
      <trkpt lat="44.43216" lon="5.54519">
        <ele>1171.7</ele>
        <time>2023-03-20T12:44:13Z</time>
      </trkpt>
      <trkpt lat="44.43215" lon="5.54521">
        <ele>1171.8</ele>
        <time>2023-03-20T12:44:14Z</time>
      </trkpt>
      <trkpt lat="44.43213" lon="5.54524">
        <ele>1172</ele>
        <time>2023-03-20T12:44:15Z</time>
      </trkpt>
      <trkpt lat="44.43212" lon="5.54525">
        <ele>1172.1</ele>
        <time>2023-03-20T12:44:16Z</time>
      </trkpt>
      <trkpt lat="44.43211" lon="5.54528">
        <ele>1172.3</ele>
        <time>2023-03-20T12:44:17Z</time>
      </trkpt>
      <trkpt lat="44.4321" lon="5.5453">
        <ele>1172.4</ele>
        <time>2023-03-20T12:44:18Z</time>
      </trkpt>
      <trkpt lat="44.43209" lon="5.54533">
        <ele>1172.6</ele>
        <time>2023-03-20T12:44:19Z</time>
      </trkpt>
      <trkpt lat="44.43208" lon="5.54534">
        <ele>1172.7</ele>
        <time>2023-03-20T12:44:20Z</time>
      </trkpt>
      <trkpt lat="44.43207" lon="5.54538">
        <ele>1172.9</ele>
        <time>2023-03-20T12:44:21Z</time>
      </trkpt>
      <trkpt lat="44.43207" lon="5.5454">
        <ele>1173</ele>
        <time>2023-03-20T12:44:22Z</time>
      </trkpt>
      <trkpt lat="44.43205" lon="5.54544">
        <ele>1173.3</ele>
        <time>2023-03-20T12:44:23Z</time>
      </trkpt>
      <trkpt lat="44.43205" lon="5.54546">
        <ele>1173.3</ele>
        <time>2023-03-20T12:44:24Z</time>
      </trkpt>
      <trkpt lat="44.43204" lon="5.54551">
        <ele>1173.6</ele>
        <time>2023-03-20T12:44:25Z</time>
      </trkpt>
      <trkpt lat="44.43203" lon="5.54552">
        <ele>1173.7</ele>
        <time>2023-03-20T12:44:26Z</time>
      </trkpt>
      <trkpt lat="44.43202" lon="5.54556">
        <ele>1173.9</ele>
        <time>2023-03-20T12:44:27Z</time>
      </trkpt>
      <trkpt lat="44.43202" lon="5.54558">
        <ele>1174</ele>
        <time>2023-03-20T12:44:28Z</time>
      </trkpt>
      <trkpt lat="44.432" lon="5.54562">
        <ele>1174.2</ele>
        <time>2023-03-20T12:44:29Z</time>
      </trkpt>
      <trkpt lat="44.43199" lon="5.54563">
        <ele>1174.3</ele>
        <time>2023-03-20T12:44:30Z</time>
      </trkpt>
      <trkpt lat="44.43198" lon="5.54568">
        <ele>1174.6</ele>
        <time>2023-03-20T12:44:31Z</time>
      </trkpt>
      <trkpt lat="44.43197" lon="5.54569">
        <ele>1174.7</ele>
        <time>2023-03-20T12:44:32Z</time>
      </trkpt>
      <trkpt lat="44.43196" lon="5.54573">
        <ele>1174.9</ele>
        <time>2023-03-20T12:44:33Z</time>
      </trkpt>
      <trkpt lat="44.43195" lon="5.54574">
        <ele>1175</ele>
        <time>2023-03-20T12:44:34Z</time>
      </trkpt>
      <trkpt lat="44.43193" lon="5.54579">
        <ele>1175.2</ele>
        <time>2023-03-20T12:44:35Z</time>
      </trkpt>
      <trkpt lat="44.43193" lon="5.5458">
        <ele>1175.3</ele>
        <time>2023-03-20T12:44:36Z</time>
      </trkpt>
      <trkpt lat="44.43191" lon="5.54584">
        <ele>1175.6</ele>
        <time>2023-03-20T12:44:37Z</time>
      </trkpt>
      <trkpt lat="44.4319" lon="5.54586">
        <ele>1175.7</ele>
        <time>2023-03-20T12:44:38Z</time>
      </trkpt>
      <trkpt lat="44.43187" lon="5.5459">
        <ele>1176</ele>
        <time>2023-03-20T12:44:39Z</time>
      </trkpt>
      <trkpt lat="44.43187" lon="5.54591">
        <ele>1176.1</ele>
        <time>2023-03-20T12:44:40Z</time>
      </trkpt>
      <trkpt lat="44.43185" lon="5.54596">
        <ele>1176.3</ele>
        <time>2023-03-20T12:44:41Z</time>
      </trkpt>
      <trkpt lat="44.43184" lon="5.54597">
        <ele>1176.4</ele>
        <time>2023-03-20T12:44:42Z</time>
      </trkpt>
      <trkpt lat="44.43183" lon="5.54601">
        <ele>1176.6</ele>
        <time>2023-03-20T12:44:43Z</time>
      </trkpt>
      <trkpt lat="44.43182" lon="5.54602">
        <ele>1176.7</ele>
        <time>2023-03-20T12:44:44Z</time>
      </trkpt>
      <trkpt lat="44.4318" lon="5.54605">
        <ele>1176.9</ele>
        <time>2023-03-20T12:44:45Z</time>
      </trkpt>
      <trkpt lat="44.43179" lon="5.54606">
        <ele>1177</ele>
        <time>2023-03-20T12:44:46Z</time>
      </trkpt>
      <trkpt lat="44.43176" lon="5.54609">
        <ele>1177.3</ele>
        <time>2023-03-20T12:44:47Z</time>
      </trkpt>
      <trkpt lat="44.43175" lon="5.54611">
        <ele>1177.4</ele>
        <time>2023-03-20T12:44:48Z</time>
      </trkpt>
      <trkpt lat="44.43173" lon="5.54614">
        <ele>1177.6</ele>
        <time>2023-03-20T12:44:49Z</time>
      </trkpt>
      <trkpt lat="44.43172" lon="5.54615">
        <ele>1177.7</ele>
        <time>2023-03-20T12:44:50Z</time>
      </trkpt>
      <trkpt lat="44.4317" lon="5.54618">
        <ele>1178</ele>
        <time>2023-03-20T12:44:51Z</time>
      </trkpt>
      <trkpt lat="44.43169" lon="5.54619">
        <ele>1178.1</ele>
        <time>2023-03-20T12:44:52Z</time>
      </trkpt>
      <trkpt lat="44.43167" lon="5.54623">
        <ele>1178.3</ele>
        <time>2023-03-20T12:44:53Z</time>
      </trkpt>
      <trkpt lat="44.43166" lon="5.54624">
        <ele>1178.4</ele>
        <time>2023-03-20T12:44:54Z</time>
      </trkpt>
      <trkpt lat="44.43164" lon="5.54629">
        <ele>1178.7</ele>
        <time>2023-03-20T12:44:55Z</time>
      </trkpt>
      <trkpt lat="44.43164" lon="5.5463">
        <ele>1178.7</ele>
        <time>2023-03-20T12:44:56Z</time>
      </trkpt>
      <trkpt lat="44.43162" lon="5.54635">
        <ele>1179</ele>
        <time>2023-03-20T12:44:57Z</time>
      </trkpt>
      <trkpt lat="44.43162" lon="5.54636">
        <ele>1179.1</ele>
        <time>2023-03-20T12:44:58Z</time>
      </trkpt>
      <trkpt lat="44.4316" lon="5.5464">
        <ele>1179.2</ele>
        <time>2023-03-20T12:44:59Z</time>
      </trkpt>
      <trkpt lat="44.43159" lon="5.54644">
        <ele>1179.5</ele>
        <time>2023-03-20T12:45:00Z</time>
      </trkpt>
      <trkpt lat="44.43158" lon="5.54645">
        <ele>1179.5</ele>
        <time>2023-03-20T12:45:01Z</time>
      </trkpt>
      <trkpt lat="44.43157" lon="5.54651">
        <ele>1179.8</ele>
        <time>2023-03-20T12:45:02Z</time>
      </trkpt>
      <trkpt lat="44.43156" lon="5.54652">
        <ele>1179.8</ele>
        <time>2023-03-20T12:45:03Z</time>
      </trkpt>
      <trkpt lat="44.43155" lon="5.54657">
        <ele>1180</ele>
        <time>2023-03-20T12:45:04Z</time>
      </trkpt>
      <trkpt lat="44.43155" lon="5.54658">
        <ele>1180.1</ele>
        <time>2023-03-20T12:45:05Z</time>
      </trkpt>
      <trkpt lat="44.43153" lon="5.54662">
        <ele>1180.3</ele>
        <time>2023-03-20T12:45:06Z</time>
      </trkpt>
      <trkpt lat="44.43153" lon="5.54663">
        <ele>1180.3</ele>
        <time>2023-03-20T12:45:07Z</time>
      </trkpt>
      <trkpt lat="44.43151" lon="5.54667">
        <ele>1180.6</ele>
        <time>2023-03-20T12:45:08Z</time>
      </trkpt>
      <trkpt lat="44.4315" lon="5.54668">
        <ele>1180.6</ele>
        <time>2023-03-20T12:45:09Z</time>
      </trkpt>
      <trkpt lat="44.43149" lon="5.54672">
        <ele>1180.8</ele>
        <time>2023-03-20T12:45:10Z</time>
      </trkpt>
      <trkpt lat="44.43148" lon="5.54674">
        <ele>1180.9</ele>
        <time>2023-03-20T12:45:11Z</time>
      </trkpt>
      <trkpt lat="44.43147" lon="5.54678">
        <ele>1181.1</ele>
        <time>2023-03-20T12:45:12Z</time>
      </trkpt>
      <trkpt lat="44.43146" lon="5.5468">
        <ele>1181.1</ele>
        <time>2023-03-20T12:45:13Z</time>
      </trkpt>
      <trkpt lat="44.43144" lon="5.54684">
        <ele>1181.3</ele>
        <time>2023-03-20T12:45:14Z</time>
      </trkpt>
      <trkpt lat="44.43144" lon="5.54686">
        <ele>1181.4</ele>
        <time>2023-03-20T12:45:15Z</time>
      </trkpt>
      <trkpt lat="44.43142" lon="5.5469">
        <ele>1181.6</ele>
        <time>2023-03-20T12:45:16Z</time>
      </trkpt>
      <trkpt lat="44.43142" lon="5.54691">
        <ele>1181.7</ele>
        <time>2023-03-20T12:45:17Z</time>
      </trkpt>
      <trkpt lat="44.4314" lon="5.54695">
        <ele>1181.9</ele>
        <time>2023-03-20T12:45:18Z</time>
      </trkpt>
      <trkpt lat="44.43139" lon="5.54696">
        <ele>1181.9</ele>
        <time>2023-03-20T12:45:19Z</time>
      </trkpt>
      <trkpt lat="44.43137" lon="5.547">
        <ele>1182.1</ele>
        <time>2023-03-20T12:45:20Z</time>
      </trkpt>
      <trkpt lat="44.43137" lon="5.54701">
        <ele>1182.1</ele>
        <time>2023-03-20T12:45:21Z</time>
      </trkpt>
      <trkpt lat="44.43135" lon="5.54705">
        <ele>1182.3</ele>
        <time>2023-03-20T12:45:22Z</time>
      </trkpt>
      <trkpt lat="44.43134" lon="5.54707">
        <ele>1182.4</ele>
        <time>2023-03-20T12:45:23Z</time>
      </trkpt>
      <trkpt lat="44.43132" lon="5.54712">
        <ele>1182.6</ele>
        <time>2023-03-20T12:45:24Z</time>
      </trkpt>
      <trkpt lat="44.43132" lon="5.54713">
        <ele>1182.7</ele>
        <time>2023-03-20T12:45:25Z</time>
      </trkpt>
      <trkpt lat="44.4313" lon="5.54717">
        <ele>1182.9</ele>
        <time>2023-03-20T12:45:26Z</time>
      </trkpt>
      <trkpt lat="44.43129" lon="5.54721">
        <ele>1183</ele>
        <time>2023-03-20T12:45:27Z</time>
      </trkpt>
      <trkpt lat="44.43128" lon="5.54726">
        <ele>1183.3</ele>
        <time>2023-03-20T12:45:28Z</time>
      </trkpt>
      <trkpt lat="44.43128" lon="5.54727">
        <ele>1183.3</ele>
        <time>2023-03-20T12:45:29Z</time>
      </trkpt>
      <trkpt lat="44.43126" lon="5.54732">
        <ele>1183.6</ele>
        <time>2023-03-20T12:45:30Z</time>
      </trkpt>
      <trkpt lat="44.43125" lon="5.54734">
        <ele>1183.6</ele>
        <time>2023-03-20T12:45:31Z</time>
      </trkpt>
      <trkpt lat="44.43124" lon="5.54737">
        <ele>1183.8</ele>
        <time>2023-03-20T12:45:32Z</time>
      </trkpt>
      <trkpt lat="44.43122" lon="5.54741">
        <ele>1184</ele>
        <time>2023-03-20T12:45:33Z</time>
      </trkpt>
      <trkpt lat="44.43121" lon="5.54744">
        <ele>1184.1</ele>
        <time>2023-03-20T12:45:34Z</time>
      </trkpt>
      <trkpt lat="44.43119" lon="5.54747">
        <ele>1184.3</ele>
        <time>2023-03-20T12:45:35Z</time>
      </trkpt>
      <trkpt lat="44.43118" lon="5.54751">
        <ele>1184.5</ele>
        <time>2023-03-20T12:45:36Z</time>
      </trkpt>
      <trkpt lat="44.43116" lon="5.54754">
        <ele>1184.6</ele>
        <time>2023-03-20T12:45:37Z</time>
      </trkpt>
      <trkpt lat="44.43114" lon="5.54758">
        <ele>1184.8</ele>
        <time>2023-03-20T12:45:38Z</time>
      </trkpt>
      <trkpt lat="44.43114" lon="5.5476">
        <ele>1184.9</ele>
        <time>2023-03-20T12:45:39Z</time>
      </trkpt>
      <trkpt lat="44.43112" lon="5.54765">
        <ele>1185.1</ele>
        <time>2023-03-20T12:45:40Z</time>
      </trkpt>
      <trkpt lat="44.43112" lon="5.54767">
        <ele>1185.2</ele>
        <time>2023-03-20T12:45:41Z</time>
      </trkpt>
      <trkpt lat="44.4311" lon="5.5477">
        <ele>1185.4</ele>
        <time>2023-03-20T12:45:42Z</time>
      </trkpt>
      <trkpt lat="44.43109" lon="5.54774">
        <ele>1185.6</ele>
        <time>2023-03-20T12:45:43Z</time>
      </trkpt>
      <trkpt lat="44.43108" lon="5.54777">
        <ele>1185.7</ele>
        <time>2023-03-20T12:45:44Z</time>
      </trkpt>
      <trkpt lat="44.43106" lon="5.54782">
        <ele>1186</ele>
        <time>2023-03-20T12:45:45Z</time>
      </trkpt>
      <trkpt lat="44.43105" lon="5.54783">
        <ele>1186.1</ele>
        <time>2023-03-20T12:45:46Z</time>
      </trkpt>
      <trkpt lat="44.43102" lon="5.54785">
        <ele>1186.3</ele>
        <time>2023-03-20T12:45:47Z</time>
      </trkpt>
      <trkpt lat="44.431" lon="5.54788">
        <ele>1186.5</ele>
        <time>2023-03-20T12:45:48Z</time>
      </trkpt>
      <trkpt lat="44.43098" lon="5.54791">
        <ele>1186.7</ele>
        <time>2023-03-20T12:45:49Z</time>
      </trkpt>
      <trkpt lat="44.43096" lon="5.54793">
        <ele>1186.9</ele>
        <time>2023-03-20T12:45:50Z</time>
      </trkpt>
      <trkpt lat="44.43094" lon="5.54797">
        <ele>1187.1</ele>
        <time>2023-03-20T12:45:51Z</time>
      </trkpt>
      <trkpt lat="44.43092" lon="5.548">
        <ele>1187.3</ele>
        <time>2023-03-20T12:45:52Z</time>
      </trkpt>
      <trkpt lat="44.43091" lon="5.54803">
        <ele>1187.5</ele>
        <time>2023-03-20T12:45:53Z</time>
      </trkpt>
      <trkpt lat="44.43089" lon="5.54806">
        <ele>1187.7</ele>
        <time>2023-03-20T12:45:54Z</time>
      </trkpt>
      <trkpt lat="44.43087" lon="5.54809">
        <ele>1187.9</ele>
        <time>2023-03-20T12:45:55Z</time>
      </trkpt>
      <trkpt lat="44.43085" lon="5.54812">
        <ele>1188.1</ele>
        <time>2023-03-20T12:45:56Z</time>
      </trkpt>
      <trkpt lat="44.43083" lon="5.54815">
        <ele>1188.3</ele>
        <time>2023-03-20T12:45:57Z</time>
      </trkpt>
      <trkpt lat="44.43081" lon="5.54819">
        <ele>1188.6</ele>
        <time>2023-03-20T12:45:58Z</time>
      </trkpt>
      <trkpt lat="44.4308" lon="5.5482">
        <ele>1188.7</ele>
        <time>2023-03-20T12:45:59Z</time>
      </trkpt>
      <trkpt lat="44.43079" lon="5.54824">
        <ele>1188.9</ele>
        <time>2023-03-20T12:46:00Z</time>
      </trkpt>
      <trkpt lat="44.43077" lon="5.54828">
        <ele>1189.2</ele>
        <time>2023-03-20T12:46:01Z</time>
      </trkpt>
      <trkpt lat="44.43076" lon="5.54829">
        <ele>1189.3</ele>
        <time>2023-03-20T12:46:02Z</time>
      </trkpt>
      <trkpt lat="44.43074" lon="5.54834">
        <ele>1189.6</ele>
        <time>2023-03-20T12:46:03Z</time>
      </trkpt>
      <trkpt lat="44.43074" lon="5.54835">
        <ele>1189.7</ele>
        <time>2023-03-20T12:46:04Z</time>
      </trkpt>
      <trkpt lat="44.43072" lon="5.54839">
        <ele>1189.9</ele>
        <time>2023-03-20T12:46:05Z</time>
      </trkpt>
      <trkpt lat="44.43071" lon="5.54842">
        <ele>1190.1</ele>
        <time>2023-03-20T12:46:06Z</time>
      </trkpt>
      <trkpt lat="44.43069" lon="5.54846">
        <ele>1190.4</ele>
        <time>2023-03-20T12:46:07Z</time>
      </trkpt>
      <trkpt lat="44.43068" lon="5.5485">
        <ele>1190.6</ele>
        <time>2023-03-20T12:46:08Z</time>
      </trkpt>
      <trkpt lat="44.43066" lon="5.54853">
        <ele>1190.8</ele>
        <time>2023-03-20T12:46:09Z</time>
      </trkpt>
      <trkpt lat="44.43064" lon="5.54858">
        <ele>1191.1</ele>
        <time>2023-03-20T12:46:10Z</time>
      </trkpt>
      <trkpt lat="44.43064" lon="5.54859">
        <ele>1191.2</ele>
        <time>2023-03-20T12:46:11Z</time>
      </trkpt>
      <trkpt lat="44.43062" lon="5.54864">
        <ele>1191.5</ele>
        <time>2023-03-20T12:46:12Z</time>
      </trkpt>
      <trkpt lat="44.43061" lon="5.54866">
        <ele>1191.6</ele>
        <time>2023-03-20T12:46:13Z</time>
      </trkpt>
      <trkpt lat="44.43059" lon="5.5487">
        <ele>1191.9</ele>
        <time>2023-03-20T12:46:14Z</time>
      </trkpt>
      <trkpt lat="44.43059" lon="5.54871">
        <ele>1192</ele>
        <time>2023-03-20T12:46:15Z</time>
      </trkpt>
      <trkpt lat="44.43057" lon="5.54875">
        <ele>1192.3</ele>
        <time>2023-03-20T12:46:16Z</time>
      </trkpt>
      <trkpt lat="44.43055" lon="5.54879">
        <ele>1192.6</ele>
        <time>2023-03-20T12:46:17Z</time>
      </trkpt>
      <trkpt lat="44.43054" lon="5.54881">
        <ele>1192.7</ele>
        <time>2023-03-20T12:46:18Z</time>
      </trkpt>
      <trkpt lat="44.43052" lon="5.54885">
        <ele>1193</ele>
        <time>2023-03-20T12:46:19Z</time>
      </trkpt>
      <trkpt lat="44.43051" lon="5.54886">
        <ele>1193.1</ele>
        <time>2023-03-20T12:46:20Z</time>
      </trkpt>
      <trkpt lat="44.43049" lon="5.54891">
        <ele>1193.4</ele>
        <time>2023-03-20T12:46:21Z</time>
      </trkpt>
      <trkpt lat="44.43049" lon="5.54893">
        <ele>1193.5</ele>
        <time>2023-03-20T12:46:22Z</time>
      </trkpt>
      <trkpt lat="44.43047" lon="5.54896">
        <ele>1193.8</ele>
        <time>2023-03-20T12:46:23Z</time>
      </trkpt>
      <trkpt lat="44.43046" lon="5.549">
        <ele>1194.1</ele>
        <time>2023-03-20T12:46:24Z</time>
      </trkpt>
      <trkpt lat="44.43043" lon="5.54904">
        <ele>1194.4</ele>
        <time>2023-03-20T12:46:25Z</time>
      </trkpt>
      <trkpt lat="44.43043" lon="5.54906">
        <ele>1194.6</ele>
        <time>2023-03-20T12:46:26Z</time>
      </trkpt>
      <trkpt lat="44.43041" lon="5.54911">
        <ele>1194.9</ele>
        <time>2023-03-20T12:46:27Z</time>
      </trkpt>
      <trkpt lat="44.4304" lon="5.54912">
        <ele>1195.1</ele>
        <time>2023-03-20T12:46:28Z</time>
      </trkpt>
      <trkpt lat="44.43038" lon="5.54917">
        <ele>1195.5</ele>
        <time>2023-03-20T12:46:29Z</time>
      </trkpt>
      <trkpt lat="44.43037" lon="5.54918">
        <ele>1195.6</ele>
        <time>2023-03-20T12:46:30Z</time>
      </trkpt>
      <trkpt lat="44.43036" lon="5.54922">
        <ele>1195.8</ele>
        <time>2023-03-20T12:46:31Z</time>
      </trkpt>
      <trkpt lat="44.43035" lon="5.54926">
        <ele>1196.3</ele>
        <time>2023-03-20T12:46:32Z</time>
      </trkpt>
      <trkpt lat="44.43034" lon="5.54928">
        <ele>1196.5</ele>
        <time>2023-03-20T12:46:33Z</time>
      </trkpt>
      <trkpt lat="44.43033" lon="5.54933">
        <ele>1196.9</ele>
        <time>2023-03-20T12:46:34Z</time>
      </trkpt>
      <trkpt lat="44.43033" lon="5.54934">
        <ele>1197.1</ele>
        <time>2023-03-20T12:46:35Z</time>
      </trkpt>
      <trkpt lat="44.43031" lon="5.54939">
        <ele>1197.6</ele>
        <time>2023-03-20T12:46:36Z</time>
      </trkpt>
      <trkpt lat="44.43031" lon="5.54941">
        <ele>1197.7</ele>
        <time>2023-03-20T12:46:37Z</time>
      </trkpt>
      <trkpt lat="44.43029" lon="5.54946">
        <ele>1198.2</ele>
        <time>2023-03-20T12:46:38Z</time>
      </trkpt>
      <trkpt lat="44.43028" lon="5.54947">
        <ele>1198.4</ele>
        <time>2023-03-20T12:46:39Z</time>
      </trkpt>
      <trkpt lat="44.43026" lon="5.54952">
        <ele>1198.9</ele>
        <time>2023-03-20T12:46:40Z</time>
      </trkpt>
      <trkpt lat="44.43026" lon="5.54953">
        <ele>1199</ele>
        <time>2023-03-20T12:46:41Z</time>
      </trkpt>
      <trkpt lat="44.43025" lon="5.54958">
        <ele>1199.5</ele>
        <time>2023-03-20T12:46:42Z</time>
      </trkpt>
      <trkpt lat="44.43024" lon="5.54959">
        <ele>1199.6</ele>
        <time>2023-03-20T12:46:43Z</time>
      </trkpt>
      <trkpt lat="44.43023" lon="5.54963">
        <ele>1200.1</ele>
        <time>2023-03-20T12:46:44Z</time>
      </trkpt>
      <trkpt lat="44.43023" lon="5.54964">
        <ele>1200.2</ele>
        <time>2023-03-20T12:46:45Z</time>
      </trkpt>
      <trkpt lat="44.43022" lon="5.54969">
        <ele>1200.7</ele>
        <time>2023-03-20T12:46:46Z</time>
      </trkpt>
      <trkpt lat="44.43022" lon="5.5497">
        <ele>1200.8</ele>
        <time>2023-03-20T12:46:47Z</time>
      </trkpt>
      <trkpt lat="44.43022" lon="5.54974">
        <ele>1201.2</ele>
        <time>2023-03-20T12:46:48Z</time>
      </trkpt>
      <trkpt lat="44.43022" lon="5.54975">
        <ele>1201.3</ele>
        <time>2023-03-20T12:46:49Z</time>
      </trkpt>
      <trkpt lat="44.43021" lon="5.5498">
        <ele>1201.8</ele>
        <time>2023-03-20T12:46:50Z</time>
      </trkpt>
      <trkpt lat="44.43021" lon="5.54981">
        <ele>1201.9</ele>
        <time>2023-03-20T12:46:51Z</time>
      </trkpt>
      <trkpt lat="44.43021" lon="5.54983">
        <ele>1202.1</ele>
        <time>2023-03-20T12:46:52Z</time>
      </trkpt>
      <trkpt lat="44.43021" lon="5.54986">
        <ele>1202.4</ele>
        <time>2023-03-20T12:46:53Z</time>
      </trkpt>
      <trkpt lat="44.43021" lon="5.5499">
        <ele>1202.8</ele>
        <time>2023-03-20T12:46:54Z</time>
      </trkpt>
      <trkpt lat="44.4302" lon="5.54991">
        <ele>1202.9</ele>
        <time>2023-03-20T12:46:55Z</time>
      </trkpt>
      <trkpt lat="44.43019" lon="5.54993">
        <ele>1203.2</ele>
        <time>2023-03-20T12:46:56Z</time>
      </trkpt>
      <trkpt lat="44.43018" lon="5.54994">
        <ele>1203.4</ele>
        <time>2023-03-20T12:46:57Z</time>
      </trkpt>
      <trkpt lat="44.43015" lon="5.54994">
        <ele>1206.2</ele>
        <time>2023-03-20T12:46:58Z</time>
      </trkpt>
      <trkpt lat="44.43014" lon="5.54994">
        <ele>1206.2</ele>
        <time>2023-03-20T12:46:59Z</time>
      </trkpt>
      <trkpt lat="44.43012" lon="5.54994">
        <ele>1206.1</ele>
        <time>2023-03-20T12:47:00Z</time>
      </trkpt>
      <trkpt lat="44.43011" lon="5.54994">
        <ele>1206.1</ele>
        <time>2023-03-20T12:47:01Z</time>
      </trkpt>
      <trkpt lat="44.43009" lon="5.54992">
        <ele>1206.1</ele>
        <time>2023-03-20T12:47:02Z</time>
      </trkpt>
      <trkpt lat="44.43008" lon="5.54991">
        <ele>1206.1</ele>
        <time>2023-03-20T12:47:03Z</time>
      </trkpt>
      <trkpt lat="44.43008" lon="5.5499">
        <ele>1206</ele>
        <time>2023-03-20T12:47:04Z</time>
      </trkpt>
      <trkpt lat="44.43007" lon="5.54989">
        <ele>1206</ele>
        <time>2023-03-20T12:47:05Z</time>
      </trkpt>
      <trkpt lat="44.43006" lon="5.54987">
        <ele>1206</ele>
        <time>2023-03-20T12:47:06Z</time>
      </trkpt>
      <trkpt lat="44.43006" lon="5.54987">
        <ele>1206</ele>
        <time>2023-03-20T12:47:07Z</time>
      </trkpt>
      <trkpt lat="44.43006" lon="5.54986">
        <ele>1206</ele>
        <time>2023-03-20T12:47:08Z</time>
      </trkpt>
      <trkpt lat="44.43006" lon="5.54984">
        <ele>1205.9</ele>
        <time>2023-03-20T12:47:09Z</time>
      </trkpt>
      <trkpt lat="44.43006" lon="5.54982">
        <ele>1205.9</ele>
        <time>2023-03-20T12:47:10Z</time>
      </trkpt>
      <trkpt lat="44.43005" lon="5.54979">
        <ele>1205.9</ele>
        <time>2023-03-20T12:47:11Z</time>
      </trkpt>
      <trkpt lat="44.43005" lon="5.54978">
        <ele>1205.8</ele>
        <time>2023-03-20T12:47:12Z</time>
      </trkpt>
      <trkpt lat="44.43005" lon="5.54977">
        <ele>1205.8</ele>
        <time>2023-03-20T12:47:13Z</time>
      </trkpt>
      <trkpt lat="44.43004" lon="5.54975">
        <ele>1206</ele>
        <time>2023-03-20T12:47:14Z</time>
      </trkpt>
      <trkpt lat="44.43004" lon="5.54973">
        <ele>1206.3</ele>
        <time>2023-03-20T12:47:15Z</time>
      </trkpt>
      <trkpt lat="44.43004" lon="5.54971">
        <ele>1206.6</ele>
        <time>2023-03-20T12:47:16Z</time>
      </trkpt>
      <trkpt lat="44.43004" lon="5.54968">
        <ele>1207</ele>
        <time>2023-03-20T12:47:17Z</time>
      </trkpt>
      <trkpt lat="44.43004" lon="5.54965">
        <ele>1207.4</ele>
        <time>2023-03-20T12:47:18Z</time>
      </trkpt>
      <trkpt lat="44.43004" lon="5.54964">
        <ele>1207.6</ele>
        <time>2023-03-20T12:47:19Z</time>
      </trkpt>
      <trkpt lat="44.43004" lon="5.54963">
        <ele>1207.8</ele>
        <time>2023-03-20T12:47:20Z</time>
      </trkpt>
      <trkpt lat="44.43005" lon="5.54961">
        <ele>1208.1</ele>
        <time>2023-03-20T12:47:21Z</time>
      </trkpt>
      <trkpt lat="44.43005" lon="5.54958">
        <ele>1208.5</ele>
        <time>2023-03-20T12:47:22Z</time>
      </trkpt>
      <trkpt lat="44.43005" lon="5.54956">
        <ele>1208.8</ele>
        <time>2023-03-20T12:47:23Z</time>
      </trkpt>
      <trkpt lat="44.43006" lon="5.54954">
        <ele>1209.2</ele>
        <time>2023-03-20T12:47:24Z</time>
      </trkpt>
      <trkpt lat="44.43005" lon="5.54949">
        <ele>1209.9</ele>
        <time>2023-03-20T12:47:25Z</time>
      </trkpt>
      <trkpt lat="44.43005" lon="5.54948">
        <ele>1210.1</ele>
        <time>2023-03-20T12:47:26Z</time>
      </trkpt>
      <trkpt lat="44.43005" lon="5.54943">
        <ele>1210.8</ele>
        <time>2023-03-20T12:47:27Z</time>
      </trkpt>
      <trkpt lat="44.43005" lon="5.54942">
        <ele>1211</ele>
        <time>2023-03-20T12:47:28Z</time>
      </trkpt>
      <trkpt lat="44.43005" lon="5.54938">
        <ele>1211.6</ele>
        <time>2023-03-20T12:47:29Z</time>
      </trkpt>
      <trkpt lat="44.43005" lon="5.54936">
        <ele>1211.9</ele>
        <time>2023-03-20T12:47:30Z</time>
      </trkpt>
      <trkpt lat="44.43005" lon="5.54932">
        <ele>1212.5</ele>
        <time>2023-03-20T12:47:31Z</time>
      </trkpt>
      <trkpt lat="44.43005" lon="5.54931">
        <ele>1212.7</ele>
        <time>2023-03-20T12:47:32Z</time>
      </trkpt>
      <trkpt lat="44.43005" lon="5.54926">
        <ele>1213.3</ele>
        <time>2023-03-20T12:47:33Z</time>
      </trkpt>
      <trkpt lat="44.43006" lon="5.54925">
        <ele>1213.5</ele>
        <time>2023-03-20T12:47:34Z</time>
      </trkpt>
      <trkpt lat="44.43006" lon="5.54921">
        <ele>1214.1</ele>
        <time>2023-03-20T12:47:35Z</time>
      </trkpt>
      <trkpt lat="44.43006" lon="5.5492">
        <ele>1214.3</ele>
        <time>2023-03-20T12:47:36Z</time>
      </trkpt>
      <trkpt lat="44.43006" lon="5.54917">
        <ele>1214.7</ele>
        <time>2023-03-20T12:47:37Z</time>
      </trkpt>
      <trkpt lat="44.43007" lon="5.54915">
        <ele>1215</ele>
        <time>2023-03-20T12:47:38Z</time>
      </trkpt>
      <trkpt lat="44.43007" lon="5.54913">
        <ele>1215.4</ele>
        <time>2023-03-20T12:47:39Z</time>
      </trkpt>
      <trkpt lat="44.43008" lon="5.5491">
        <ele>1215.8</ele>
        <time>2023-03-20T12:47:40Z</time>
      </trkpt>
      <trkpt lat="44.43008" lon="5.54908">
        <ele>1216.1</ele>
        <time>2023-03-20T12:47:41Z</time>
      </trkpt>
      <trkpt lat="44.43008" lon="5.54906">
        <ele>1216.5</ele>
        <time>2023-03-20T12:47:42Z</time>
      </trkpt>
      <trkpt lat="44.43009" lon="5.54901">
        <ele>1217.2</ele>
        <time>2023-03-20T12:47:43Z</time>
      </trkpt>
      <trkpt lat="44.43009" lon="5.549">
        <ele>1217.4</ele>
        <time>2023-03-20T12:47:44Z</time>
      </trkpt>
      <trkpt lat="44.43009" lon="5.54896">
        <ele>1218</ele>
        <time>2023-03-20T12:47:45Z</time>
      </trkpt>
      <trkpt lat="44.43009" lon="5.54895">
        <ele>1218.2</ele>
        <time>2023-03-20T12:47:46Z</time>
      </trkpt>
      <trkpt lat="44.4301" lon="5.54893">
        <ele>1218.5</ele>
        <time>2023-03-20T12:47:47Z</time>
      </trkpt>
      <trkpt lat="44.43011" lon="5.54891">
        <ele>1218.9</ele>
        <time>2023-03-20T12:47:48Z</time>
      </trkpt>
      <trkpt lat="44.43012" lon="5.54887">
        <ele>1219.5</ele>
        <time>2023-03-20T12:47:49Z</time>
      </trkpt>
      <trkpt lat="44.43012" lon="5.54886">
        <ele>1219.7</ele>
        <time>2023-03-20T12:47:50Z</time>
      </trkpt>
      <trkpt lat="44.43013" lon="5.54882">
        <ele>1220.3</ele>
        <time>2023-03-20T12:47:51Z</time>
      </trkpt>
      <trkpt lat="44.43013" lon="5.5488">
        <ele>1220.5</ele>
        <time>2023-03-20T12:47:52Z</time>
      </trkpt>
      <trkpt lat="44.43013" lon="5.54877">
        <ele>1221.1</ele>
        <time>2023-03-20T12:47:53Z</time>
      </trkpt>
      <trkpt lat="44.43014" lon="5.54875">
        <ele>1221.3</ele>
        <time>2023-03-20T12:47:54Z</time>
      </trkpt>
      <trkpt lat="44.43014" lon="5.54871">
        <ele>1222</ele>
        <time>2023-03-20T12:47:55Z</time>
      </trkpt>
      <trkpt lat="44.43014" lon="5.54869">
        <ele>1222.2</ele>
        <time>2023-03-20T12:47:56Z</time>
      </trkpt>
      <trkpt lat="44.43014" lon="5.54865">
        <ele>1222.9</ele>
        <time>2023-03-20T12:47:57Z</time>
      </trkpt>
      <trkpt lat="44.43014" lon="5.54864">
        <ele>1223.1</ele>
        <time>2023-03-20T12:47:58Z</time>
      </trkpt>
      <trkpt lat="44.43015" lon="5.54859">
        <ele>1223.8</ele>
        <time>2023-03-20T12:47:59Z</time>
      </trkpt>
      <trkpt lat="44.43015" lon="5.54858">
        <ele>1224</ele>
        <time>2023-03-20T12:48:00Z</time>
      </trkpt>
      <trkpt lat="44.43016" lon="5.54854">
        <ele>1224.6</ele>
        <time>2023-03-20T12:48:01Z</time>
      </trkpt>
      <trkpt lat="44.43016" lon="5.54853">
        <ele>1224.8</ele>
        <time>2023-03-20T12:48:02Z</time>
      </trkpt>
      <trkpt lat="44.43017" lon="5.54849">
        <ele>1225.4</ele>
        <time>2023-03-20T12:48:03Z</time>
      </trkpt>
      <trkpt lat="44.43017" lon="5.54847">
        <ele>1225.6</ele>
        <time>2023-03-20T12:48:04Z</time>
      </trkpt>
      <trkpt lat="44.43017" lon="5.54843">
        <ele>1226.2</ele>
        <time>2023-03-20T12:48:05Z</time>
      </trkpt>
      <trkpt lat="44.43018" lon="5.54842">
        <ele>1226.4</ele>
        <time>2023-03-20T12:48:06Z</time>
      </trkpt>
      <trkpt lat="44.43018" lon="5.54838">
        <ele>1227</ele>
        <time>2023-03-20T12:48:07Z</time>
      </trkpt>
      <trkpt lat="44.43019" lon="5.54837">
        <ele>1227.2</ele>
        <time>2023-03-20T12:48:08Z</time>
      </trkpt>
      <trkpt lat="44.4302" lon="5.54833">
        <ele>1227.8</ele>
        <time>2023-03-20T12:48:09Z</time>
      </trkpt>
      <trkpt lat="44.4302" lon="5.54832">
        <ele>1228</ele>
        <time>2023-03-20T12:48:10Z</time>
      </trkpt>
      <trkpt lat="44.43022" lon="5.54829">
        <ele>1228.6</ele>
        <time>2023-03-20T12:48:11Z</time>
      </trkpt>
      <trkpt lat="44.43023" lon="5.54827">
        <ele>1228.8</ele>
        <time>2023-03-20T12:48:12Z</time>
      </trkpt>
      <trkpt lat="44.43024" lon="5.54823">
        <ele>1229.5</ele>
        <time>2023-03-20T12:48:13Z</time>
      </trkpt>
      <trkpt lat="44.43025" lon="5.54822">
        <ele>1234.4</ele>
        <time>2023-03-20T12:48:14Z</time>
      </trkpt>
      <trkpt lat="44.43026" lon="5.54819">
        <ele>1234.5</ele>
        <time>2023-03-20T12:48:15Z</time>
      </trkpt>
      <trkpt lat="44.43027" lon="5.54818">
        <ele>1234.6</ele>
        <time>2023-03-20T12:48:16Z</time>
      </trkpt>
      <trkpt lat="44.43027" lon="5.54816">
        <ele>1234.6</ele>
        <time>2023-03-20T12:48:17Z</time>
      </trkpt>
      <trkpt lat="44.43026" lon="5.54815">
        <ele>1234.6</ele>
        <time>2023-03-20T12:48:18Z</time>
      </trkpt>
      <trkpt lat="44.43024" lon="5.54815">
        <ele>1234.7</ele>
        <time>2023-03-20T12:48:19Z</time>
      </trkpt>
      <trkpt lat="44.43023" lon="5.54816">
        <ele>1234.7</ele>
        <time>2023-03-20T12:48:20Z</time>
      </trkpt>
      <trkpt lat="44.43023" lon="5.54817">
        <ele>1234.8</ele>
        <time>2023-03-20T12:48:21Z</time>
      </trkpt>
      <trkpt lat="44.43023" lon="5.54819">
        <ele>1234.8</ele>
        <time>2023-03-20T12:48:22Z</time>
      </trkpt>
      <trkpt lat="44.43022" lon="5.5482">
        <ele>1234.9</ele>
        <time>2023-03-20T12:48:23Z</time>
      </trkpt>
      <trkpt lat="44.43021" lon="5.54823">
        <ele>1234.9</ele>
        <time>2023-03-20T12:48:24Z</time>
      </trkpt>
      <trkpt lat="44.43021" lon="5.54825">
        <ele>1235</ele>
        <time>2023-03-20T12:48:25Z</time>
      </trkpt>
      <trkpt lat="44.4302" lon="5.54827">
        <ele>1235.1</ele>
        <time>2023-03-20T12:48:26Z</time>
      </trkpt>
      <trkpt lat="44.4302" lon="5.54829">
        <ele>1235.1</ele>
        <time>2023-03-20T12:48:27Z</time>
      </trkpt>
      <trkpt lat="44.43019" lon="5.5483">
        <ele>1235.2</ele>
        <time>2023-03-20T12:48:28Z</time>
      </trkpt>
      <trkpt lat="44.43018" lon="5.54832">
        <ele>1235.2</ele>
        <time>2023-03-20T12:48:29Z</time>
      </trkpt>
      <trkpt lat="44.43017" lon="5.54834">
        <ele>1235.3</ele>
        <time>2023-03-20T12:48:30Z</time>
      </trkpt>
      <trkpt lat="44.43016" lon="5.54837">
        <ele>1235.4</ele>
        <time>2023-03-20T12:48:31Z</time>
      </trkpt>
      <trkpt lat="44.43015" lon="5.54838">
        <ele>1235.4</ele>
        <time>2023-03-20T12:48:33Z</time>
      </trkpt>
      <trkpt lat="44.43015" lon="5.54839">
        <ele>1235.5</ele>
        <time>2023-03-20T12:48:34Z</time>
      </trkpt>
      <trkpt lat="44.43014" lon="5.5484">
        <ele>1235.5</ele>
        <time>2023-03-20T12:48:35Z</time>
      </trkpt>
      <trkpt lat="44.43013" lon="5.54842">
        <ele>1235.6</ele>
        <time>2023-03-20T12:48:36Z</time>
      </trkpt>
      <trkpt lat="44.43013" lon="5.54843">
        <ele>1235.7</ele>
        <time>2023-03-20T12:48:37Z</time>
      </trkpt>
      <trkpt lat="44.43012" lon="5.54845">
        <ele>1235.7</ele>
        <time>2023-03-20T12:48:38Z</time>
      </trkpt>
      <trkpt lat="44.43011" lon="5.54847">
        <ele>1235.8</ele>
        <time>2023-03-20T12:48:39Z</time>
      </trkpt>
      <trkpt lat="44.4301" lon="5.5485">
        <ele>1235.9</ele>
        <time>2023-03-20T12:48:40Z</time>
      </trkpt>
      <trkpt lat="44.43009" lon="5.54851">
        <ele>1236</ele>
        <time>2023-03-20T12:48:41Z</time>
      </trkpt>
      <trkpt lat="44.43009" lon="5.54853">
        <ele>1236</ele>
        <time>2023-03-20T12:48:42Z</time>
      </trkpt>
      <trkpt lat="44.43008" lon="5.54855">
        <ele>1236.1</ele>
        <time>2023-03-20T12:48:43Z</time>
      </trkpt>
      <trkpt lat="44.43007" lon="5.54857">
        <ele>1236.2</ele>
        <time>2023-03-20T12:48:44Z</time>
      </trkpt>
      <trkpt lat="44.43006" lon="5.54862">
        <ele>1236.4</ele>
        <time>2023-03-20T12:48:45Z</time>
      </trkpt>
      <trkpt lat="44.43006" lon="5.54863">
        <ele>1236.4</ele>
        <time>2023-03-20T12:48:46Z</time>
      </trkpt>
      <trkpt lat="44.43005" lon="5.54865">
        <ele>1236.5</ele>
        <time>2023-03-20T12:48:47Z</time>
      </trkpt>
      <trkpt lat="44.43005" lon="5.54867">
        <ele>1236.6</ele>
        <time>2023-03-20T12:48:48Z</time>
      </trkpt>
      <trkpt lat="44.43003" lon="5.54871">
        <ele>1236.7</ele>
        <time>2023-03-20T12:48:49Z</time>
      </trkpt>
      <trkpt lat="44.43003" lon="5.54872">
        <ele>1236.8</ele>
        <time>2023-03-20T12:48:50Z</time>
      </trkpt>
      <trkpt lat="44.43002" lon="5.54876">
        <ele>1236.9</ele>
        <time>2023-03-20T12:48:51Z</time>
      </trkpt>
      <trkpt lat="44.43001" lon="5.54877">
        <ele>1237</ele>
        <time>2023-03-20T12:48:52Z</time>
      </trkpt>
      <trkpt lat="44.43" lon="5.54879">
        <ele>1237.1</ele>
        <time>2023-03-20T12:48:53Z</time>
      </trkpt>
      <trkpt lat="44.42999" lon="5.54881">
        <ele>1237.2</ele>
        <time>2023-03-20T12:48:54Z</time>
      </trkpt>
      <trkpt lat="44.42998" lon="5.54883">
        <ele>1237.3</ele>
        <time>2023-03-20T12:48:55Z</time>
      </trkpt>
      <trkpt lat="44.42997" lon="5.54884">
        <ele>1237.3</ele>
        <time>2023-03-20T12:48:56Z</time>
      </trkpt>
      <trkpt lat="44.42995" lon="5.54887">
        <ele>1237.4</ele>
        <time>2023-03-20T12:48:57Z</time>
      </trkpt>
      <trkpt lat="44.42995" lon="5.54888">
        <ele>1237.5</ele>
        <time>2023-03-20T12:48:58Z</time>
      </trkpt>
      <trkpt lat="44.42994" lon="5.54889">
        <ele>1237.5</ele>
        <time>2023-03-20T12:48:59Z</time>
      </trkpt>
      <trkpt lat="44.42993" lon="5.5489">
        <ele>1237.6</ele>
        <time>2023-03-20T12:49:00Z</time>
      </trkpt>
      <trkpt lat="44.42992" lon="5.54892">
        <ele>1237.7</ele>
        <time>2023-03-20T12:49:01Z</time>
      </trkpt>
      <trkpt lat="44.42991" lon="5.54894">
        <ele>1237.8</ele>
        <time>2023-03-20T12:49:02Z</time>
      </trkpt>
      <trkpt lat="44.4299" lon="5.54895">
        <ele>1237.8</ele>
        <time>2023-03-20T12:49:03Z</time>
      </trkpt>
      <trkpt lat="44.4299" lon="5.54897">
        <ele>1237.9</ele>
        <time>2023-03-20T12:49:04Z</time>
      </trkpt>
      <trkpt lat="44.42989" lon="5.54899">
        <ele>1238</ele>
        <time>2023-03-20T12:49:05Z</time>
      </trkpt>
      <trkpt lat="44.42989" lon="5.54901">
        <ele>1238</ele>
        <time>2023-03-20T12:49:06Z</time>
      </trkpt>
      <trkpt lat="44.42987" lon="5.54903">
        <ele>1238.1</ele>
        <time>2023-03-20T12:49:07Z</time>
      </trkpt>
      <trkpt lat="44.42986" lon="5.54907">
        <ele>1238.2</ele>
        <time>2023-03-20T12:49:08Z</time>
      </trkpt>
      <trkpt lat="44.42985" lon="5.54908">
        <ele>1238.2</ele>
        <time>2023-03-20T12:49:09Z</time>
      </trkpt>
      <trkpt lat="44.42983" lon="5.54912">
        <ele>1238.3</ele>
        <time>2023-03-20T12:49:10Z</time>
      </trkpt>
      <trkpt lat="44.42983" lon="5.54913">
        <ele>1238.4</ele>
        <time>2023-03-20T12:49:11Z</time>
      </trkpt>
      <trkpt lat="44.42981" lon="5.54917">
        <ele>1238.4</ele>
        <time>2023-03-20T12:49:12Z</time>
      </trkpt>
      <trkpt lat="44.42981" lon="5.54918">
        <ele>1238.5</ele>
        <time>2023-03-20T12:49:13Z</time>
      </trkpt>
      <trkpt lat="44.4298" lon="5.5492">
        <ele>1238.5</ele>
        <time>2023-03-20T12:49:14Z</time>
      </trkpt>
      <trkpt lat="44.42979" lon="5.54922">
        <ele>1238.6</ele>
        <time>2023-03-20T12:49:15Z</time>
      </trkpt>
      <trkpt lat="44.42978" lon="5.54926">
        <ele>1238.7</ele>
        <time>2023-03-20T12:49:16Z</time>
      </trkpt>
      <trkpt lat="44.42977" lon="5.54927">
        <ele>1238.7</ele>
        <time>2023-03-20T12:49:17Z</time>
      </trkpt>
      <trkpt lat="44.42975" lon="5.5493">
        <ele>1238.8</ele>
        <time>2023-03-20T12:49:18Z</time>
      </trkpt>
      <trkpt lat="44.42974" lon="5.54931">
        <ele>1238.9</ele>
        <time>2023-03-20T12:49:19Z</time>
      </trkpt>
      <trkpt lat="44.42972" lon="5.54935">
        <ele>1239</ele>
        <time>2023-03-20T12:49:20Z</time>
      </trkpt>
      <trkpt lat="44.42972" lon="5.54936">
        <ele>1239</ele>
        <time>2023-03-20T12:49:21Z</time>
      </trkpt>
      <trkpt lat="44.42971" lon="5.54938">
        <ele>1239.1</ele>
        <time>2023-03-20T12:49:22Z</time>
      </trkpt>
      <trkpt lat="44.42969" lon="5.54939">
        <ele>1239.2</ele>
        <time>2023-03-20T12:49:23Z</time>
      </trkpt>
      <trkpt lat="44.42968" lon="5.54941">
        <ele>1239.2</ele>
        <time>2023-03-20T12:49:24Z</time>
      </trkpt>
      <trkpt lat="44.42967" lon="5.54943">
        <ele>1239.3</ele>
        <time>2023-03-20T12:49:25Z</time>
      </trkpt>
      <trkpt lat="44.42966" lon="5.54944">
        <ele>1239.4</ele>
        <time>2023-03-20T12:49:26Z</time>
      </trkpt>
      <trkpt lat="44.42965" lon="5.54946">
        <ele>1239.5</ele>
        <time>2023-03-20T12:49:27Z</time>
      </trkpt>
      <trkpt lat="44.42964" lon="5.54947">
        <ele>1239.6</ele>
        <time>2023-03-20T12:49:28Z</time>
      </trkpt>
      <trkpt lat="44.42962" lon="5.54949">
        <ele>1239.7</ele>
        <time>2023-03-20T12:49:29Z</time>
      </trkpt>
      <trkpt lat="44.42961" lon="5.54952">
        <ele>1239.8</ele>
        <time>2023-03-20T12:49:30Z</time>
      </trkpt>
      <trkpt lat="44.4296" lon="5.54954">
        <ele>1239.9</ele>
        <time>2023-03-20T12:49:31Z</time>
      </trkpt>
      <trkpt lat="44.42958" lon="5.54956">
        <ele>1240</ele>
        <time>2023-03-20T12:49:32Z</time>
      </trkpt>
      <trkpt lat="44.42957" lon="5.54957">
        <ele>1240.1</ele>
        <time>2023-03-20T12:49:33Z</time>
      </trkpt>
      <trkpt lat="44.42956" lon="5.5496">
        <ele>1240.2</ele>
        <time>2023-03-20T12:49:34Z</time>
      </trkpt>
      <trkpt lat="44.42955" lon="5.54961">
        <ele>1240.3</ele>
        <time>2023-03-20T12:49:35Z</time>
      </trkpt>
      <trkpt lat="44.42953" lon="5.54965">
        <ele>1240.5</ele>
        <time>2023-03-20T12:49:36Z</time>
      </trkpt>
      <trkpt lat="44.42952" lon="5.54966">
        <ele>1240.5</ele>
        <time>2023-03-20T12:49:37Z</time>
      </trkpt>
      <trkpt lat="44.4295" lon="5.54969">
        <ele>1240.7</ele>
        <time>2023-03-20T12:49:38Z</time>
      </trkpt>
      <trkpt lat="44.42949" lon="5.54969">
        <ele>1240.7</ele>
        <time>2023-03-20T12:49:39Z</time>
      </trkpt>
      <trkpt lat="44.42947" lon="5.54972">
        <ele>1240.9</ele>
        <time>2023-03-20T12:49:40Z</time>
      </trkpt>
      <trkpt lat="44.42946" lon="5.54973">
        <ele>1240.9</ele>
        <time>2023-03-20T12:49:41Z</time>
      </trkpt>
      <trkpt lat="44.42945" lon="5.54974">
        <ele>1241.4</ele>
        <time>2023-03-20T12:49:42Z</time>
      </trkpt>
      <trkpt lat="44.42944" lon="5.54976">
        <ele>1241.8</ele>
        <time>2023-03-20T12:49:43Z</time>
      </trkpt>
      <trkpt lat="44.42941" lon="5.54978">
        <ele>1242.7</ele>
        <time>2023-03-20T12:49:44Z</time>
      </trkpt>
      <trkpt lat="44.4294" lon="5.54978">
        <ele>1242.9</ele>
        <time>2023-03-20T12:49:45Z</time>
      </trkpt>
      <trkpt lat="44.42939" lon="5.54979">
        <ele>1243.3</ele>
        <time>2023-03-20T12:49:46Z</time>
      </trkpt>
      <trkpt lat="44.42937" lon="5.54979">
        <ele>1243.8</ele>
        <time>2023-03-20T12:49:47Z</time>
      </trkpt>
      <trkpt lat="44.42934" lon="5.54981">
        <ele>1244.7</ele>
        <time>2023-03-20T12:49:48Z</time>
      </trkpt>
      <trkpt lat="44.42933" lon="5.54981">
        <ele>1245</ele>
        <time>2023-03-20T12:49:49Z</time>
      </trkpt>
      <trkpt lat="44.42931" lon="5.54984">
        <ele>1245.8</ele>
        <time>2023-03-20T12:49:50Z</time>
      </trkpt>
      <trkpt lat="44.42931" lon="5.54985">
        <ele>1246.1</ele>
        <time>2023-03-20T12:49:51Z</time>
      </trkpt>
      <trkpt lat="44.42929" lon="5.54986">
        <ele>1246.6</ele>
        <time>2023-03-20T12:49:52Z</time>
      </trkpt>
      <trkpt lat="44.42928" lon="5.54988">
        <ele>1247.1</ele>
        <time>2023-03-20T12:49:53Z</time>
      </trkpt>
      <trkpt lat="44.42926" lon="5.54991">
        <ele>1248</ele>
        <time>2023-03-20T12:49:54Z</time>
      </trkpt>
      <trkpt lat="44.42925" lon="5.54991">
        <ele>1248.2</ele>
        <time>2023-03-20T12:49:55Z</time>
      </trkpt>
      <trkpt lat="44.42924" lon="5.54992">
        <ele>1248.7</ele>
        <time>2023-03-20T12:49:56Z</time>
      </trkpt>
      <trkpt lat="44.42922" lon="5.54993">
        <ele>1249.2</ele>
        <time>2023-03-20T12:49:57Z</time>
      </trkpt>
      <trkpt lat="44.4292" lon="5.54994">
        <ele>1249.7</ele>
        <time>2023-03-20T12:49:58Z</time>
      </trkpt>
      <trkpt lat="44.42919" lon="5.54995">
        <ele>1250.1</ele>
        <time>2023-03-20T12:49:59Z</time>
      </trkpt>
      <trkpt lat="44.42917" lon="5.54996">
        <ele>1250.6</ele>
        <time>2023-03-20T12:50:00Z</time>
      </trkpt>
      <trkpt lat="44.42916" lon="5.54996">
        <ele>1251.1</ele>
        <time>2023-03-20T12:50:01Z</time>
      </trkpt>
      <trkpt lat="44.42914" lon="5.54997">
        <ele>1251.6</ele>
        <time>2023-03-20T12:50:02Z</time>
      </trkpt>
      <trkpt lat="44.42912" lon="5.54998">
        <ele>1252.2</ele>
        <time>2023-03-20T12:50:03Z</time>
      </trkpt>
      <trkpt lat="44.42911" lon="5.54998">
        <ele>1252.6</ele>
        <time>2023-03-20T12:50:04Z</time>
      </trkpt>
      <trkpt lat="44.42909" lon="5.54999">
        <ele>1253.1</ele>
        <time>2023-03-20T12:50:05Z</time>
      </trkpt>
      <trkpt lat="44.42907" lon="5.54999">
        <ele>1253.6</ele>
        <time>2023-03-20T12:50:06Z</time>
      </trkpt>
      <trkpt lat="44.42906" lon="5.55">
        <ele>1253.6</ele>
        <time>2023-03-20T12:50:07Z</time>
      </trkpt>
      <trkpt lat="44.42905" lon="5.55001">
        <ele>1253.6</ele>
        <time>2023-03-20T12:50:08Z</time>
      </trkpt>
      <trkpt lat="44.42903" lon="5.55002">
        <ele>1253.6</ele>
        <time>2023-03-20T12:50:09Z</time>
      </trkpt>
      <trkpt lat="44.42901" lon="5.55002">
        <ele>1253.6</ele>
        <time>2023-03-20T12:50:10Z</time>
      </trkpt>
      <trkpt lat="44.429" lon="5.55003">
        <ele>1254.4</ele>
        <time>2023-03-20T12:50:11Z</time>
      </trkpt>
      <trkpt lat="44.42899" lon="5.55003">
        <ele>1254.4</ele>
        <time>2023-03-20T12:50:12Z</time>
      </trkpt>
      <trkpt lat="44.42899" lon="5.55003">
        <ele>1254.4</ele>
        <time>2023-03-20T12:50:13Z</time>
      </trkpt>
      <trkpt lat="44.42899" lon="5.55004">
        <ele>1254.4</ele>
        <time>2023-03-20T12:50:14Z</time>
      </trkpt>
      <trkpt lat="44.42898" lon="5.55004">
        <ele>1254.4</ele>
        <time>2023-03-20T12:50:15Z</time>
      </trkpt>
      <trkpt lat="44.42898" lon="5.55004">
        <ele>1254.4</ele>
        <time>2023-03-20T12:50:16Z</time>
      </trkpt>
      <trkpt lat="44.42898" lon="5.55004">
        <ele>1254.4</ele>
        <time>2023-03-20T12:50:17Z</time>
      </trkpt>
      <trkpt lat="44.42898" lon="5.55004">
        <ele>1254.3</ele>
        <time>2023-03-20T12:50:18Z</time>
      </trkpt>
      <trkpt lat="44.42898" lon="5.55004">
        <ele>1254.3</ele>
        <time>2023-03-20T12:50:19Z</time>
      </trkpt>
      <trkpt lat="44.42898" lon="5.55004">
        <ele>1254.3</ele>
        <time>2023-03-20T12:50:20Z</time>
      </trkpt>
      <trkpt lat="44.42897" lon="5.55005">
        <ele>1254.3</ele>
        <time>2023-03-20T12:50:21Z</time>
      </trkpt>
      <trkpt lat="44.42897" lon="5.55005">
        <ele>1254.3</ele>
        <time>2023-03-20T12:50:22Z</time>
      </trkpt>
      <trkpt lat="44.42897" lon="5.55005">
        <ele>1254.3</ele>
        <time>2023-03-20T12:50:23Z</time>
      </trkpt>
      <trkpt lat="44.42897" lon="5.55005">
        <ele>1254.3</ele>
        <time>2023-03-20T12:50:24Z</time>
      </trkpt>
      <trkpt lat="44.42898" lon="5.55005">
        <ele>1254.3</ele>
        <time>2023-03-20T12:50:25Z</time>
      </trkpt>
      <trkpt lat="44.42898" lon="5.55005">
        <ele>1254.3</ele>
        <time>2023-03-20T12:50:26Z</time>
      </trkpt>
      <trkpt lat="44.42898" lon="5.55005">
        <ele>1254.3</ele>
        <time>2023-03-20T12:50:27Z</time>
      </trkpt>
      <trkpt lat="44.42896" lon="5.55006">
        <ele>1254.3</ele>
        <time>2023-03-20T12:50:28Z</time>
      </trkpt>
      <trkpt lat="44.42895" lon="5.55006">
        <ele>1254.3</ele>
        <time>2023-03-20T12:50:29Z</time>
      </trkpt>
      <trkpt lat="44.42895" lon="5.55007">
        <ele>1254.3</ele>
        <time>2023-03-20T12:50:30Z</time>
      </trkpt>
      <trkpt lat="44.42894" lon="5.55007">
        <ele>1254.3</ele>
        <time>2023-03-20T12:50:31Z</time>
      </trkpt>
      <trkpt lat="44.42894" lon="5.55008">
        <ele>1254.2</ele>
        <time>2023-03-20T12:50:32Z</time>
      </trkpt>
      <trkpt lat="44.42893" lon="5.55009">
        <ele>1254.2</ele>
        <time>2023-03-20T12:50:33Z</time>
      </trkpt>
      <trkpt lat="44.42893" lon="5.5501">
        <ele>1254.2</ele>
        <time>2023-03-20T12:50:34Z</time>
      </trkpt>
      <trkpt lat="44.42893" lon="5.55011">
        <ele>1254.2</ele>
        <time>2023-03-20T12:50:35Z</time>
      </trkpt>
      <trkpt lat="44.42892" lon="5.55012">
        <ele>1254.2</ele>
        <time>2023-03-20T12:50:36Z</time>
      </trkpt>
      <trkpt lat="44.42892" lon="5.55013">
        <ele>1254.2</ele>
        <time>2023-03-20T12:50:37Z</time>
      </trkpt>
      <trkpt lat="44.42892" lon="5.55013">
        <ele>1254.2</ele>
        <time>2023-03-20T12:50:38Z</time>
      </trkpt>
      <trkpt lat="44.42892" lon="5.55013">
        <ele>1254.2</ele>
        <time>2023-03-20T12:50:39Z</time>
      </trkpt>
      <trkpt lat="44.42892" lon="5.55013">
        <ele>1254.2</ele>
        <time>2023-03-20T12:50:40Z</time>
      </trkpt>
      <trkpt lat="44.42891" lon="5.55013">
        <ele>1254.2</ele>
        <time>2023-03-20T12:50:41Z</time>
      </trkpt>
      <trkpt lat="44.42891" lon="5.55013">
        <ele>1254.2</ele>
        <time>2023-03-20T12:50:42Z</time>
      </trkpt>
      <trkpt lat="44.42891" lon="5.55013">
        <ele>1254.2</ele>
        <time>2023-03-20T12:50:43Z</time>
      </trkpt>
      <trkpt lat="44.42891" lon="5.55013">
        <ele>1254.2</ele>
        <time>2023-03-20T12:50:44Z</time>
      </trkpt>
      <trkpt lat="44.42891" lon="5.55013">
        <ele>1254.2</ele>
        <time>2023-03-20T12:50:45Z</time>
      </trkpt>
      <trkpt lat="44.42891" lon="5.55013">
        <ele>1254.2</ele>
        <time>2023-03-20T12:50:46Z</time>
      </trkpt>
      <trkpt lat="44.42891" lon="5.55013">
        <ele>1254.1</ele>
        <time>2023-03-20T12:50:47Z</time>
      </trkpt>
      <trkpt lat="44.42889" lon="5.55017">
        <ele>1254.2</ele>
        <time>2023-03-20T12:50:51Z</time>
      </trkpt>
      <trkpt lat="44.4289" lon="5.55018">
        <ele>1254.1</ele>
        <time>2023-03-20T12:50:52Z</time>
      </trkpt>
      <trkpt lat="44.42889" lon="5.55018">
        <ele>1254.1</ele>
        <time>2023-03-20T12:50:53Z</time>
      </trkpt>
      <trkpt lat="44.42889" lon="5.55018">
        <ele>1254.1</ele>
        <time>2023-03-20T12:50:54Z</time>
      </trkpt>
      <trkpt lat="44.42889" lon="5.55018">
        <ele>1254.1</ele>
        <time>2023-03-20T12:50:55Z</time>
      </trkpt>
      <trkpt lat="44.42889" lon="5.55018">
        <ele>1254.1</ele>
        <time>2023-03-20T12:50:56Z</time>
      </trkpt>
      <trkpt lat="44.42889" lon="5.55019">
        <ele>1254.1</ele>
        <time>2023-03-20T12:50:57Z</time>
      </trkpt>
      <trkpt lat="44.42889" lon="5.55019">
        <ele>1254.1</ele>
        <time>2023-03-20T12:50:58Z</time>
      </trkpt>
      <trkpt lat="44.42889" lon="5.55019">
        <ele>1254.1</ele>
        <time>2023-03-20T12:50:59Z</time>
      </trkpt>
      <trkpt lat="44.42889" lon="5.55019">
        <ele>1254.1</ele>
        <time>2023-03-20T12:51:00Z</time>
      </trkpt>
      <trkpt lat="44.42889" lon="5.55019">
        <ele>1254.1</ele>
        <time>2023-03-20T12:51:01Z</time>
      </trkpt>
      <trkpt lat="44.42889" lon="5.55019">
        <ele>1254.1</ele>
        <time>2023-03-20T12:51:02Z</time>
      </trkpt>
      <trkpt lat="44.42892" lon="5.55014">
        <ele>1254.1</ele>
        <time>2023-03-20T12:51:36Z</time>
      </trkpt>
      <trkpt lat="44.42893" lon="5.55014">
        <ele>1254</ele>
        <time>2023-03-20T12:51:37Z</time>
      </trkpt>
      <trkpt lat="44.42893" lon="5.55014">
        <ele>1254</ele>
        <time>2023-03-20T12:51:38Z</time>
      </trkpt>
      <trkpt lat="44.42894" lon="5.55013">
        <ele>1254</ele>
        <time>2023-03-20T12:51:39Z</time>
      </trkpt>
      <trkpt lat="44.42894" lon="5.55013">
        <ele>1254</ele>
        <time>2023-03-20T12:51:40Z</time>
      </trkpt>
      <trkpt lat="44.42894" lon="5.55012">
        <ele>1254</ele>
        <time>2023-03-20T12:51:41Z</time>
      </trkpt>
      <trkpt lat="44.42894" lon="5.55012">
        <ele>1254</ele>
        <time>2023-03-20T12:51:42Z</time>
      </trkpt>
      <trkpt lat="44.42894" lon="5.55012">
        <ele>1254</ele>
        <time>2023-03-20T12:51:43Z</time>
      </trkpt>
      <trkpt lat="44.42894" lon="5.55012">
        <ele>1254</ele>
        <time>2023-03-20T12:51:44Z</time>
      </trkpt>
      <trkpt lat="44.42894" lon="5.55012">
        <ele>1254</ele>
        <time>2023-03-20T12:51:45Z</time>
      </trkpt>
      <trkpt lat="44.42894" lon="5.55012">
        <ele>1254</ele>
        <time>2023-03-20T12:51:46Z</time>
      </trkpt>
      <trkpt lat="44.42894" lon="5.55012">
        <ele>1254</ele>
        <time>2023-03-20T12:51:47Z</time>
      </trkpt>
      <trkpt lat="44.42894" lon="5.55012">
        <ele>1254</ele>
        <time>2023-03-20T12:51:48Z</time>
      </trkpt>
      <trkpt lat="44.42894" lon="5.55012">
        <ele>1254</ele>
        <time>2023-03-20T12:51:49Z</time>
      </trkpt>
      <trkpt lat="44.42894" lon="5.55012">
        <ele>1254</ele>
        <time>2023-03-20T12:51:50Z</time>
      </trkpt>
      <trkpt lat="44.42894" lon="5.55012">
        <ele>1253.9</ele>
        <time>2023-03-20T12:51:51Z</time>
      </trkpt>
      <trkpt lat="44.42895" lon="5.55011">
        <ele>1253.9</ele>
        <time>2023-03-20T12:52:10Z</time>
      </trkpt>
      <trkpt lat="44.42896" lon="5.55009">
        <ele>1253.9</ele>
        <time>2023-03-20T12:52:12Z</time>
      </trkpt>
      <trkpt lat="44.42896" lon="5.55008">
        <ele>1253.9</ele>
        <time>2023-03-20T12:52:13Z</time>
      </trkpt>
      <trkpt lat="44.42896" lon="5.55007">
        <ele>1253.9</ele>
        <time>2023-03-20T12:52:14Z</time>
      </trkpt>
      <trkpt lat="44.42896" lon="5.55006">
        <ele>1253.9</ele>
        <time>2023-03-20T12:52:15Z</time>
      </trkpt>
      <trkpt lat="44.42896" lon="5.55006">
        <ele>1253.9</ele>
        <time>2023-03-20T12:52:16Z</time>
      </trkpt>
      <trkpt lat="44.42896" lon="5.55007">
        <ele>1253.9</ele>
        <time>2023-03-20T12:52:17Z</time>
      </trkpt>
      <trkpt lat="44.42896" lon="5.55007">
        <ele>1253.9</ele>
        <time>2023-03-20T12:52:18Z</time>
      </trkpt>
      <trkpt lat="44.42896" lon="5.55007">
        <ele>1253.9</ele>
        <time>2023-03-20T12:52:19Z</time>
      </trkpt>
      <trkpt lat="44.42896" lon="5.55007">
        <ele>1253.9</ele>
        <time>2023-03-20T12:52:20Z</time>
      </trkpt>
      <trkpt lat="44.42896" lon="5.55007">
        <ele>1253.9</ele>
        <time>2023-03-20T12:52:21Z</time>
      </trkpt>
      <trkpt lat="44.42896" lon="5.55007">
        <ele>1253.9</ele>
        <time>2023-03-20T12:52:22Z</time>
      </trkpt>
      <trkpt lat="44.42896" lon="5.55007">
        <ele>1253.9</ele>
        <time>2023-03-20T12:52:23Z</time>
      </trkpt>
      <trkpt lat="44.42896" lon="5.55007">
        <ele>1253.9</ele>
        <time>2023-03-20T12:52:24Z</time>
      </trkpt>
      <trkpt lat="44.42896" lon="5.55007">
        <ele>1253.8</ele>
        <time>2023-03-20T12:52:25Z</time>
      </trkpt>
      <trkpt lat="44.42896" lon="5.55007">
        <ele>1253.8</ele>
        <time>2023-03-20T12:52:26Z</time>
      </trkpt>
      <trkpt lat="44.42894" lon="5.55004">
        <ele>1253.8</ele>
        <time>2023-03-20T12:52:33Z</time>
      </trkpt>
      <trkpt lat="44.42894" lon="5.55003">
        <ele>1253.8</ele>
        <time>2023-03-20T12:52:34Z</time>
      </trkpt>
      <trkpt lat="44.42894" lon="5.55003">
        <ele>1253.8</ele>
        <time>2023-03-20T12:52:35Z</time>
      </trkpt>
      <trkpt lat="44.42894" lon="5.55003">
        <ele>1253.8</ele>
        <time>2023-03-20T12:52:37Z</time>
      </trkpt>
      <trkpt lat="44.42894" lon="5.55003">
        <ele>1253.8</ele>
        <time>2023-03-20T12:52:38Z</time>
      </trkpt>
      <trkpt lat="44.42894" lon="5.55004">
        <ele>1253.8</ele>
        <time>2023-03-20T12:52:39Z</time>
      </trkpt>
      <trkpt lat="44.42894" lon="5.55004">
        <ele>1253.8</ele>
        <time>2023-03-20T12:52:40Z</time>
      </trkpt>
      <trkpt lat="44.42894" lon="5.55004">
        <ele>1253.8</ele>
        <time>2023-03-20T12:52:41Z</time>
      </trkpt>
      <trkpt lat="44.42894" lon="5.55004">
        <ele>1253.8</ele>
        <time>2023-03-20T12:52:42Z</time>
      </trkpt>
      <trkpt lat="44.42894" lon="5.55004">
        <ele>1253.8</ele>
        <time>2023-03-20T12:52:43Z</time>
      </trkpt>
      <trkpt lat="44.42894" lon="5.55004">
        <ele>1253.8</ele>
        <time>2023-03-20T12:52:44Z</time>
      </trkpt>
      <trkpt lat="44.42894" lon="5.55004">
        <ele>1253.8</ele>
        <time>2023-03-20T12:52:45Z</time>
      </trkpt>
      <trkpt lat="44.42894" lon="5.55004">
        <ele>1253.7</ele>
        <time>2023-03-20T12:52:46Z</time>
      </trkpt>
      <trkpt lat="44.42894" lon="5.55004">
        <ele>1253.7</ele>
        <time>2023-03-20T12:52:47Z</time>
      </trkpt>
      <trkpt lat="44.42894" lon="5.55004">
        <ele>1253.7</ele>
        <time>2023-03-20T12:52:48Z</time>
      </trkpt>
      <trkpt lat="44.42894" lon="5.55004">
        <ele>1253.7</ele>
        <time>2023-03-20T12:52:49Z</time>
      </trkpt>
      <trkpt lat="44.42894" lon="5.55004">
        <ele>1253.7</ele>
        <time>2023-03-20T12:52:50Z</time>
      </trkpt>
      <trkpt lat="44.42894" lon="5.55004">
        <ele>1253.7</ele>
        <time>2023-03-20T12:52:51Z</time>
      </trkpt>
      <trkpt lat="44.42894" lon="5.55004">
        <ele>1253.7</ele>
        <time>2023-03-20T12:52:52Z</time>
      </trkpt>
      <trkpt lat="44.42894" lon="5.55004">
        <ele>1253.7</ele>
        <time>2023-03-20T12:52:53Z</time>
      </trkpt>
      <trkpt lat="44.42894" lon="5.55004">
        <ele>1253.7</ele>
        <time>2023-03-20T12:52:54Z</time>
      </trkpt>
      <trkpt lat="44.42894" lon="5.55004">
        <ele>1253.7</ele>
        <time>2023-03-20T12:52:55Z</time>
      </trkpt>
      <trkpt lat="44.42894" lon="5.55004">
        <ele>1253.7</ele>
        <time>2023-03-20T12:52:56Z</time>
      </trkpt>
      <trkpt lat="44.42894" lon="5.55004">
        <ele>1253.7</ele>
        <time>2023-03-20T12:52:57Z</time>
      </trkpt>
      <trkpt lat="44.42894" lon="5.55004">
        <ele>1253.7</ele>
        <time>2023-03-20T12:52:58Z</time>
      </trkpt>
      <trkpt lat="44.42894" lon="5.55004">
        <ele>1253.7</ele>
        <time>2023-03-20T12:52:59Z</time>
      </trkpt>
      <trkpt lat="44.42894" lon="5.55004">
        <ele>1253.6</ele>
        <time>2023-03-20T12:53:00Z</time>
      </trkpt>
      <trkpt lat="44.42894" lon="5.55004">
        <ele>1253.6</ele>
        <time>2023-03-20T12:53:01Z</time>
      </trkpt>
      <trkpt lat="44.42894" lon="5.55006">
        <ele>1253.6</ele>
        <time>2023-03-20T12:53:02Z</time>
      </trkpt>
      <trkpt lat="44.42894" lon="5.55007">
        <ele>1253.6</ele>
        <time>2023-03-20T12:53:03Z</time>
      </trkpt>
      <trkpt lat="44.42895" lon="5.55008">
        <ele>1253.6</ele>
        <time>2023-03-20T12:53:04Z</time>
      </trkpt>
      <trkpt lat="44.42895" lon="5.55008">
        <ele>1253.6</ele>
        <time>2023-03-20T12:53:06Z</time>
      </trkpt>
      <trkpt lat="44.42895" lon="5.55007">
        <ele>1253.6</ele>
        <time>2023-03-20T12:53:07Z</time>
      </trkpt>
      <trkpt lat="44.42895" lon="5.55007">
        <ele>1253.6</ele>
        <time>2023-03-20T12:53:08Z</time>
      </trkpt>
      <trkpt lat="44.42895" lon="5.55007">
        <ele>1253.6</ele>
        <time>2023-03-20T12:53:09Z</time>
      </trkpt>
      <trkpt lat="44.42894" lon="5.55007">
        <ele>1253.6</ele>
        <time>2023-03-20T12:53:10Z</time>
      </trkpt>
      <trkpt lat="44.42893" lon="5.55007">
        <ele>1253.6</ele>
        <time>2023-03-20T12:53:11Z</time>
      </trkpt>
      <trkpt lat="44.42892" lon="5.55007">
        <ele>1253.6</ele>
        <time>2023-03-20T12:53:12Z</time>
      </trkpt>
      <trkpt lat="44.42891" lon="5.55007">
        <ele>1253.6</ele>
        <time>2023-03-20T12:53:13Z</time>
      </trkpt>
      <trkpt lat="44.4289" lon="5.55007">
        <ele>1253.6</ele>
        <time>2023-03-20T12:53:14Z</time>
      </trkpt>
      <trkpt lat="44.4289" lon="5.55007">
        <ele>1253.6</ele>
        <time>2023-03-20T12:53:15Z</time>
      </trkpt>
      <trkpt lat="44.42889" lon="5.55007">
        <ele>1253.5</ele>
        <time>2023-03-20T12:53:16Z</time>
      </trkpt>
      <trkpt lat="44.42889" lon="5.55008">
        <ele>1253.5</ele>
        <time>2023-03-20T12:53:17Z</time>
      </trkpt>
      <trkpt lat="44.42888" lon="5.55008">
        <ele>1253.5</ele>
        <time>2023-03-20T12:53:18Z</time>
      </trkpt>
      <trkpt lat="44.42888" lon="5.55008">
        <ele>1253.3</ele>
        <time>2023-03-20T12:53:19Z</time>
      </trkpt>
      <trkpt lat="44.42887" lon="5.55009">
        <ele>1253.3</ele>
        <time>2023-03-20T12:53:20Z</time>
      </trkpt>
      <trkpt lat="44.42887" lon="5.55009">
        <ele>1253.2</ele>
        <time>2023-03-20T12:53:21Z</time>
      </trkpt>
      <trkpt lat="44.42886" lon="5.5501">
        <ele>1253.2</ele>
        <time>2023-03-20T12:53:22Z</time>
      </trkpt>
      <trkpt lat="44.42885" lon="5.55011">
        <ele>1253.2</ele>
        <time>2023-03-20T12:53:23Z</time>
      </trkpt>
      <trkpt lat="44.42885" lon="5.55013">
        <ele>1253.2</ele>
        <time>2023-03-20T12:53:24Z</time>
      </trkpt>
      <trkpt lat="44.42884" lon="5.55014">
        <ele>1253.2</ele>
        <time>2023-03-20T12:53:25Z</time>
      </trkpt>
      <trkpt lat="44.42883" lon="5.55017">
        <ele>1252.9</ele>
        <time>2023-03-20T12:53:27Z</time>
      </trkpt>
      <trkpt lat="44.42882" lon="5.55018">
        <ele>1252.9</ele>
        <time>2023-03-20T12:53:28Z</time>
      </trkpt>
      <trkpt lat="44.42881" lon="5.55019">
        <ele>1252.9</ele>
        <time>2023-03-20T12:53:29Z</time>
      </trkpt>
      <trkpt lat="44.42881" lon="5.5502">
        <ele>1252.9</ele>
        <time>2023-03-20T12:53:30Z</time>
      </trkpt>
      <trkpt lat="44.4288" lon="5.55021">
        <ele>1252.9</ele>
        <time>2023-03-20T12:53:31Z</time>
      </trkpt>
      <trkpt lat="44.4288" lon="5.55023">
        <ele>1252.9</ele>
        <time>2023-03-20T12:53:32Z</time>
      </trkpt>
      <trkpt lat="44.42879" lon="5.55024">
        <ele>1252.8</ele>
        <time>2023-03-20T12:53:33Z</time>
      </trkpt>
      <trkpt lat="44.42879" lon="5.55025">
        <ele>1252.8</ele>
        <time>2023-03-20T12:53:34Z</time>
      </trkpt>
      <trkpt lat="44.42879" lon="5.55026">
        <ele>1252.8</ele>
        <time>2023-03-20T12:53:35Z</time>
      </trkpt>
      <trkpt lat="44.42879" lon="5.55026">
        <ele>1252.8</ele>
        <time>2023-03-20T12:53:36Z</time>
      </trkpt>
      <trkpt lat="44.42879" lon="5.55026">
        <ele>1252.8</ele>
        <time>2023-03-20T12:53:37Z</time>
      </trkpt>
      <trkpt lat="44.42879" lon="5.55026">
        <ele>1252.8</ele>
        <time>2023-03-20T12:53:38Z</time>
      </trkpt>
      <trkpt lat="44.42879" lon="5.55026">
        <ele>1252.8</ele>
        <time>2023-03-20T12:53:39Z</time>
      </trkpt>
      <trkpt lat="44.42879" lon="5.55026">
        <ele>1252.8</ele>
        <time>2023-03-20T12:53:40Z</time>
      </trkpt>
      <trkpt lat="44.42879" lon="5.55027">
        <ele>1252.8</ele>
        <time>2023-03-20T12:53:41Z</time>
      </trkpt>
      <trkpt lat="44.42879" lon="5.55028">
        <ele>1252.8</ele>
        <time>2023-03-20T12:53:42Z</time>
      </trkpt>
      <trkpt lat="44.42879" lon="5.55028">
        <ele>1252.8</ele>
        <time>2023-03-20T12:53:43Z</time>
      </trkpt>
      <trkpt lat="44.42878" lon="5.55028">
        <ele>1252.8</ele>
        <time>2023-03-20T12:53:44Z</time>
      </trkpt>
      <trkpt lat="44.42878" lon="5.55028">
        <ele>1252.8</ele>
        <time>2023-03-20T12:53:45Z</time>
      </trkpt>
      <trkpt lat="44.42875" lon="5.55031">
        <ele>1251.3</ele>
        <time>2023-03-20T12:53:51Z</time>
      </trkpt>
      <trkpt lat="44.42874" lon="5.55032">
        <ele>1251.3</ele>
        <time>2023-03-20T12:53:52Z</time>
      </trkpt>
      <trkpt lat="44.42874" lon="5.55032">
        <ele>1251.3</ele>
        <time>2023-03-20T12:53:53Z</time>
      </trkpt>
      <trkpt lat="44.42874" lon="5.55032">
        <ele>1251.3</ele>
        <time>2023-03-20T12:53:54Z</time>
      </trkpt>
      <trkpt lat="44.42874" lon="5.55032">
        <ele>1251.3</ele>
        <time>2023-03-20T12:53:55Z</time>
      </trkpt>
      <trkpt lat="44.42874" lon="5.55032">
        <ele>1251.3</ele>
        <time>2023-03-20T12:53:56Z</time>
      </trkpt>
      <trkpt lat="44.42874" lon="5.55032">
        <ele>1251.3</ele>
        <time>2023-03-20T12:53:57Z</time>
      </trkpt>
      <trkpt lat="44.42874" lon="5.55032">
        <ele>1251.3</ele>
        <time>2023-03-20T12:53:58Z</time>
      </trkpt>
      <trkpt lat="44.42874" lon="5.55032">
        <ele>1251.3</ele>
        <time>2023-03-20T12:53:59Z</time>
      </trkpt>
      <trkpt lat="44.42874" lon="5.55032">
        <ele>1251.3</ele>
        <time>2023-03-20T12:54:00Z</time>
      </trkpt>
      <trkpt lat="44.42874" lon="5.55032">
        <ele>1251.3</ele>
        <time>2023-03-20T12:54:01Z</time>
      </trkpt>
      <trkpt lat="44.42874" lon="5.55032">
        <ele>1251.2</ele>
        <time>2023-03-20T12:54:02Z</time>
      </trkpt>
      <trkpt lat="44.42874" lon="5.55032">
        <ele>1251.2</ele>
        <time>2023-03-20T12:54:03Z</time>
      </trkpt>
      <trkpt lat="44.42874" lon="5.55032">
        <ele>1251.2</ele>
        <time>2023-03-20T12:54:04Z</time>
      </trkpt>
      <trkpt lat="44.42872" lon="5.55033">
        <ele>1250.6</ele>
        <time>2023-03-20T12:54:06Z</time>
      </trkpt>
      <trkpt lat="44.42871" lon="5.55033">
        <ele>1250.6</ele>
        <time>2023-03-20T12:54:07Z</time>
      </trkpt>
      <trkpt lat="44.4287" lon="5.55034">
        <ele>1250.6</ele>
        <time>2023-03-20T12:54:08Z</time>
      </trkpt>
      <trkpt lat="44.42869" lon="5.55034">
        <ele>1250.6</ele>
        <time>2023-03-20T12:54:09Z</time>
      </trkpt>
      <trkpt lat="44.42868" lon="5.55034">
        <ele>1250.6</ele>
        <time>2023-03-20T12:54:10Z</time>
      </trkpt>
      <trkpt lat="44.42868" lon="5.55034">
        <ele>1250.6</ele>
        <time>2023-03-20T12:54:11Z</time>
      </trkpt>
      <trkpt lat="44.42867" lon="5.55033">
        <ele>1250.6</ele>
        <time>2023-03-20T12:54:12Z</time>
      </trkpt>
      <trkpt lat="44.42867" lon="5.55033">
        <ele>1250.6</ele>
        <time>2023-03-20T12:54:13Z</time>
      </trkpt>
      <trkpt lat="44.42866" lon="5.55034">
        <ele>1250.6</ele>
        <time>2023-03-20T12:54:14Z</time>
      </trkpt>
      <trkpt lat="44.42865" lon="5.55034">
        <ele>1250.6</ele>
        <time>2023-03-20T12:54:15Z</time>
      </trkpt>
      <trkpt lat="44.42865" lon="5.55034">
        <ele>1250.6</ele>
        <time>2023-03-20T12:54:16Z</time>
      </trkpt>
      <trkpt lat="44.42865" lon="5.55034">
        <ele>1250.6</ele>
        <time>2023-03-20T12:54:17Z</time>
      </trkpt>
      <trkpt lat="44.42865" lon="5.55034">
        <ele>1250.6</ele>
        <time>2023-03-20T12:54:18Z</time>
      </trkpt>
      <trkpt lat="44.42864" lon="5.55033">
        <ele>1250.6</ele>
        <time>2023-03-20T12:54:19Z</time>
      </trkpt>
      <trkpt lat="44.42864" lon="5.55033">
        <ele>1250.6</ele>
        <time>2023-03-20T12:54:20Z</time>
      </trkpt>
      <trkpt lat="44.42864" lon="5.55033">
        <ele>1250.5</ele>
        <time>2023-03-20T12:54:21Z</time>
      </trkpt>
      <trkpt lat="44.42864" lon="5.55033">
        <ele>1250.5</ele>
        <time>2023-03-20T12:54:22Z</time>
      </trkpt>
      <trkpt lat="44.42864" lon="5.55033">
        <ele>1250.5</ele>
        <time>2023-03-20T12:54:23Z</time>
      </trkpt>
      <trkpt lat="44.42864" lon="5.55033">
        <ele>1250.5</ele>
        <time>2023-03-20T12:54:24Z</time>
      </trkpt>
      <trkpt lat="44.42864" lon="5.55033">
        <ele>1250.5</ele>
        <time>2023-03-20T12:54:25Z</time>
      </trkpt>
      <trkpt lat="44.42864" lon="5.55033">
        <ele>1250.5</ele>
        <time>2023-03-20T12:54:26Z</time>
      </trkpt>
      <trkpt lat="44.42864" lon="5.55033">
        <ele>1250.5</ele>
        <time>2023-03-20T12:54:27Z</time>
      </trkpt>
      <trkpt lat="44.42864" lon="5.55033">
        <ele>1250.5</ele>
        <time>2023-03-20T12:54:28Z</time>
      </trkpt>
      <trkpt lat="44.42864" lon="5.55032">
        <ele>1251.1</ele>
        <time>2023-03-20T12:54:29Z</time>
      </trkpt>
      <trkpt lat="44.42863" lon="5.55029">
        <ele>1251.1</ele>
        <time>2023-03-20T12:54:31Z</time>
      </trkpt>
      <trkpt lat="44.42863" lon="5.55028">
        <ele>1248.1</ele>
        <time>2023-03-20T12:54:32Z</time>
      </trkpt>
      <trkpt lat="44.42862" lon="5.55027">
        <ele>1248.1</ele>
        <time>2023-03-20T12:54:33Z</time>
      </trkpt>
      <trkpt lat="44.42862" lon="5.55026">
        <ele>1248.1</ele>
        <time>2023-03-20T12:54:34Z</time>
      </trkpt>
      <trkpt lat="44.42861" lon="5.55025">
        <ele>1248.1</ele>
        <time>2023-03-20T12:54:35Z</time>
      </trkpt>
      <trkpt lat="44.42861" lon="5.55024">
        <ele>1248.1</ele>
        <time>2023-03-20T12:54:36Z</time>
      </trkpt>
      <trkpt lat="44.4286" lon="5.55025">
        <ele>1248.1</ele>
        <time>2023-03-20T12:54:37Z</time>
      </trkpt>
      <trkpt lat="44.4286" lon="5.55025">
        <ele>1248.1</ele>
        <time>2023-03-20T12:54:38Z</time>
      </trkpt>
      <trkpt lat="44.4286" lon="5.55025">
        <ele>1248.1</ele>
        <time>2023-03-20T12:54:39Z</time>
      </trkpt>
      <trkpt lat="44.4286" lon="5.55025">
        <ele>1248.1</ele>
        <time>2023-03-20T12:54:40Z</time>
      </trkpt>
      <trkpt lat="44.4286" lon="5.55025">
        <ele>1248.1</ele>
        <time>2023-03-20T12:54:41Z</time>
      </trkpt>
      <trkpt lat="44.4286" lon="5.55025">
        <ele>1248.1</ele>
        <time>2023-03-20T12:54:42Z</time>
      </trkpt>
      <trkpt lat="44.4286" lon="5.55025">
        <ele>1248.1</ele>
        <time>2023-03-20T12:54:43Z</time>
      </trkpt>
      <trkpt lat="44.4286" lon="5.55025">
        <ele>1248</ele>
        <time>2023-03-20T12:54:44Z</time>
      </trkpt>
      <trkpt lat="44.4286" lon="5.55025">
        <ele>1248</ele>
        <time>2023-03-20T12:54:45Z</time>
      </trkpt>
      <trkpt lat="44.42859" lon="5.55024">
        <ele>1248</ele>
        <time>2023-03-20T12:54:46Z</time>
      </trkpt>
      <trkpt lat="44.42858" lon="5.55024">
        <ele>1248</ele>
        <time>2023-03-20T12:54:47Z</time>
      </trkpt>
      <trkpt lat="44.42857" lon="5.55024">
        <ele>1248</ele>
        <time>2023-03-20T12:54:48Z</time>
      </trkpt>
      <trkpt lat="44.42856" lon="5.55024">
        <ele>1248</ele>
        <time>2023-03-20T12:54:49Z</time>
      </trkpt>
      <trkpt lat="44.42855" lon="5.55023">
        <ele>1248</ele>
        <time>2023-03-20T12:54:50Z</time>
      </trkpt>
      <trkpt lat="44.42854" lon="5.55023">
        <ele>1248</ele>
        <time>2023-03-20T12:54:51Z</time>
      </trkpt>
      <trkpt lat="44.42853" lon="5.55023">
        <ele>1248</ele>
        <time>2023-03-20T12:54:52Z</time>
      </trkpt>
      <trkpt lat="44.42853" lon="5.55023">
        <ele>1248</ele>
        <time>2023-03-20T12:54:53Z</time>
      </trkpt>
      <trkpt lat="44.42852" lon="5.55022">
        <ele>1248</ele>
        <time>2023-03-20T12:54:54Z</time>
      </trkpt>
      <trkpt lat="44.42852" lon="5.55022">
        <ele>1248</ele>
        <time>2023-03-20T12:54:55Z</time>
      </trkpt>
      <trkpt lat="44.42852" lon="5.55021">
        <ele>1248</ele>
        <time>2023-03-20T12:54:56Z</time>
      </trkpt>
      <trkpt lat="44.42852" lon="5.55021">
        <ele>1248</ele>
        <time>2023-03-20T12:54:57Z</time>
      </trkpt>
      <trkpt lat="44.42851" lon="5.55021">
        <ele>1247.9</ele>
        <time>2023-03-20T12:54:58Z</time>
      </trkpt>
      <trkpt lat="44.42851" lon="5.5502">
        <ele>1247.9</ele>
        <time>2023-03-20T12:54:59Z</time>
      </trkpt>
      <trkpt lat="44.4285" lon="5.5502">
        <ele>1244</ele>
        <time>2023-03-20T12:55:00Z</time>
      </trkpt>
      <trkpt lat="44.4285" lon="5.55019">
        <ele>1244</ele>
        <time>2023-03-20T12:55:01Z</time>
      </trkpt>
      <trkpt lat="44.42849" lon="5.55019">
        <ele>1244</ele>
        <time>2023-03-20T12:55:02Z</time>
      </trkpt>
      <trkpt lat="44.42849" lon="5.55019">
        <ele>1244</ele>
        <time>2023-03-20T12:55:03Z</time>
      </trkpt>
      <trkpt lat="44.42849" lon="5.55019">
        <ele>1244</ele>
        <time>2023-03-20T12:55:04Z</time>
      </trkpt>
      <trkpt lat="44.42849" lon="5.55019">
        <ele>1244</ele>
        <time>2023-03-20T12:55:05Z</time>
      </trkpt>
      <trkpt lat="44.42848" lon="5.55019">
        <ele>1244</ele>
        <time>2023-03-20T12:55:06Z</time>
      </trkpt>
      <trkpt lat="44.42848" lon="5.55019">
        <ele>1243.9</ele>
        <time>2023-03-20T12:55:07Z</time>
      </trkpt>
      <trkpt lat="44.42847" lon="5.55018">
        <ele>1243.9</ele>
        <time>2023-03-20T12:55:08Z</time>
      </trkpt>
      <trkpt lat="44.42846" lon="5.55018">
        <ele>1243.9</ele>
        <time>2023-03-20T12:55:09Z</time>
      </trkpt>
      <trkpt lat="44.42846" lon="5.55018">
        <ele>1243.9</ele>
        <time>2023-03-20T12:55:10Z</time>
      </trkpt>
      <trkpt lat="44.42846" lon="5.55018">
        <ele>1243.9</ele>
        <time>2023-03-20T12:55:11Z</time>
      </trkpt>
      <trkpt lat="44.42845" lon="5.55018">
        <ele>1243.9</ele>
        <time>2023-03-20T12:55:12Z</time>
      </trkpt>
      <trkpt lat="44.42845" lon="5.55017">
        <ele>1243.9</ele>
        <time>2023-03-20T12:55:13Z</time>
      </trkpt>
      <trkpt lat="44.42843" lon="5.55015">
        <ele>1245.1</ele>
        <time>2023-03-20T12:55:14Z</time>
      </trkpt>
      <trkpt lat="44.42843" lon="5.55014">
        <ele>1245.1</ele>
        <time>2023-03-20T12:55:15Z</time>
      </trkpt>
      <trkpt lat="44.42842" lon="5.55013">
        <ele>1245.1</ele>
        <time>2023-03-20T12:55:16Z</time>
      </trkpt>
      <trkpt lat="44.42842" lon="5.55012">
        <ele>1245.1</ele>
        <time>2023-03-20T12:55:17Z</time>
      </trkpt>
      <trkpt lat="44.42841" lon="5.55011">
        <ele>1245.1</ele>
        <time>2023-03-20T12:55:18Z</time>
      </trkpt>
      <trkpt lat="44.42841" lon="5.5501">
        <ele>1245</ele>
        <time>2023-03-20T12:55:19Z</time>
      </trkpt>
      <trkpt lat="44.4284" lon="5.55009">
        <ele>1245</ele>
        <time>2023-03-20T12:55:20Z</time>
      </trkpt>
      <trkpt lat="44.42839" lon="5.55008">
        <ele>1245</ele>
        <time>2023-03-20T12:55:21Z</time>
      </trkpt>
      <trkpt lat="44.42838" lon="5.55007">
        <ele>1240.1</ele>
        <time>2023-03-20T12:55:22Z</time>
      </trkpt>
      <trkpt lat="44.42837" lon="5.55005">
        <ele>1240.1</ele>
        <time>2023-03-20T12:55:23Z</time>
      </trkpt>
      <trkpt lat="44.42836" lon="5.55004">
        <ele>1240.1</ele>
        <time>2023-03-20T12:55:24Z</time>
      </trkpt>
      <trkpt lat="44.42835" lon="5.55003">
        <ele>1240.1</ele>
        <time>2023-03-20T12:55:25Z</time>
      </trkpt>
      <trkpt lat="44.42834" lon="5.55002">
        <ele>1240.1</ele>
        <time>2023-03-20T12:55:26Z</time>
      </trkpt>
      <trkpt lat="44.42833" lon="5.55001">
        <ele>1240.1</ele>
        <time>2023-03-20T12:55:27Z</time>
      </trkpt>
      <trkpt lat="44.42832" lon="5.55">
        <ele>1240.1</ele>
        <time>2023-03-20T12:55:28Z</time>
      </trkpt>
      <trkpt lat="44.4283" lon="5.54999">
        <ele>1240</ele>
        <time>2023-03-20T12:55:29Z</time>
      </trkpt>
      <trkpt lat="44.42829" lon="5.54998">
        <ele>1242.4</ele>
        <time>2023-03-20T12:55:30Z</time>
      </trkpt>
      <trkpt lat="44.42828" lon="5.54997">
        <ele>1242.4</ele>
        <time>2023-03-20T12:55:31Z</time>
      </trkpt>
      <trkpt lat="44.42826" lon="5.54996">
        <ele>1242.3</ele>
        <time>2023-03-20T12:55:32Z</time>
      </trkpt>
      <trkpt lat="44.42825" lon="5.54995">
        <ele>1237.3</ele>
        <time>2023-03-20T12:55:33Z</time>
      </trkpt>
      <trkpt lat="44.42823" lon="5.54994">
        <ele>1237.3</ele>
        <time>2023-03-20T12:55:34Z</time>
      </trkpt>
      <trkpt lat="44.42821" lon="5.54994">
        <ele>1237.3</ele>
        <time>2023-03-20T12:55:35Z</time>
      </trkpt>
      <trkpt lat="44.4282" lon="5.54993">
        <ele>1237.2</ele>
        <time>2023-03-20T12:55:36Z</time>
      </trkpt>
      <trkpt lat="44.42819" lon="5.54993">
        <ele>1237.2</ele>
        <time>2023-03-20T12:55:37Z</time>
      </trkpt>
      <trkpt lat="44.42818" lon="5.54993">
        <ele>1237.2</ele>
        <time>2023-03-20T12:55:38Z</time>
      </trkpt>
      <trkpt lat="44.42817" lon="5.54993">
        <ele>1237.2</ele>
        <time>2023-03-20T12:55:39Z</time>
      </trkpt>
      <trkpt lat="44.42816" lon="5.54993">
        <ele>1237.2</ele>
        <time>2023-03-20T12:55:40Z</time>
      </trkpt>
      <trkpt lat="44.42816" lon="5.54992">
        <ele>1237.2</ele>
        <time>2023-03-20T12:55:41Z</time>
      </trkpt>
      <trkpt lat="44.42814" lon="5.54992">
        <ele>1231.8</ele>
        <time>2023-03-20T12:55:42Z</time>
      </trkpt>
      <trkpt lat="44.42813" lon="5.54991">
        <ele>1231.8</ele>
        <time>2023-03-20T12:55:43Z</time>
      </trkpt>
      <trkpt lat="44.42811" lon="5.54991">
        <ele>1231.8</ele>
        <time>2023-03-20T12:55:44Z</time>
      </trkpt>
      <trkpt lat="44.4281" lon="5.5499">
        <ele>1231.7</ele>
        <time>2023-03-20T12:55:45Z</time>
      </trkpt>
      <trkpt lat="44.42809" lon="5.5499">
        <ele>1231.7</ele>
        <time>2023-03-20T12:55:46Z</time>
      </trkpt>
      <trkpt lat="44.42809" lon="5.54989">
        <ele>1231.7</ele>
        <time>2023-03-20T12:55:47Z</time>
      </trkpt>
      <trkpt lat="44.42809" lon="5.54989">
        <ele>1231.7</ele>
        <time>2023-03-20T12:55:48Z</time>
      </trkpt>
      <trkpt lat="44.42809" lon="5.54989">
        <ele>1231.7</ele>
        <time>2023-03-20T12:55:49Z</time>
      </trkpt>
      <trkpt lat="44.42809" lon="5.54988">
        <ele>1231.7</ele>
        <time>2023-03-20T12:55:50Z</time>
      </trkpt>
      <trkpt lat="44.42809" lon="5.54988">
        <ele>1231.7</ele>
        <time>2023-03-20T12:55:51Z</time>
      </trkpt>
      <trkpt lat="44.42808" lon="5.54988">
        <ele>1231.7</ele>
        <time>2023-03-20T12:55:52Z</time>
      </trkpt>
      <trkpt lat="44.42806" lon="5.54988">
        <ele>1231.7</ele>
        <time>2023-03-20T12:55:53Z</time>
      </trkpt>
      <trkpt lat="44.42805" lon="5.54988">
        <ele>1231.7</ele>
        <time>2023-03-20T12:55:54Z</time>
      </trkpt>
      <trkpt lat="44.42804" lon="5.54987">
        <ele>1231.7</ele>
        <time>2023-03-20T12:55:55Z</time>
      </trkpt>
      <trkpt lat="44.42804" lon="5.54987">
        <ele>1231.7</ele>
        <time>2023-03-20T12:55:56Z</time>
      </trkpt>
      <trkpt lat="44.42804" lon="5.54987">
        <ele>1231.7</ele>
        <time>2023-03-20T12:55:57Z</time>
      </trkpt>
      <trkpt lat="44.42803" lon="5.54987">
        <ele>1231.7</ele>
        <time>2023-03-20T12:55:58Z</time>
      </trkpt>
      <trkpt lat="44.42803" lon="5.54986">
        <ele>1231.7</ele>
        <time>2023-03-20T12:55:59Z</time>
      </trkpt>
      <trkpt lat="44.42803" lon="5.54986">
        <ele>1231.6</ele>
        <time>2023-03-20T12:56:00Z</time>
      </trkpt>
      <trkpt lat="44.42801" lon="5.54985">
        <ele>1225.4</ele>
        <time>2023-03-20T12:56:01Z</time>
      </trkpt>
      <trkpt lat="44.42801" lon="5.54984">
        <ele>1225.4</ele>
        <time>2023-03-20T12:56:02Z</time>
      </trkpt>
      <trkpt lat="44.428" lon="5.54983">
        <ele>1225.4</ele>
        <time>2023-03-20T12:56:03Z</time>
      </trkpt>
      <trkpt lat="44.42799" lon="5.54982">
        <ele>1225.4</ele>
        <time>2023-03-20T12:56:04Z</time>
      </trkpt>
      <trkpt lat="44.42798" lon="5.54981">
        <ele>1228.4</ele>
        <time>2023-03-20T12:56:05Z</time>
      </trkpt>
      <trkpt lat="44.42797" lon="5.5498">
        <ele>1228.4</ele>
        <time>2023-03-20T12:56:06Z</time>
      </trkpt>
      <trkpt lat="44.42796" lon="5.5498">
        <ele>1228.4</ele>
        <time>2023-03-20T12:56:07Z</time>
      </trkpt>
      <trkpt lat="44.42796" lon="5.5498">
        <ele>1228.4</ele>
        <time>2023-03-20T12:56:08Z</time>
      </trkpt>
      <trkpt lat="44.42794" lon="5.54979">
        <ele>1228.4</ele>
        <time>2023-03-20T12:56:09Z</time>
      </trkpt>
      <trkpt lat="44.42793" lon="5.54979">
        <ele>1228.4</ele>
        <time>2023-03-20T12:56:10Z</time>
      </trkpt>
      <trkpt lat="44.42792" lon="5.54979">
        <ele>1228.4</ele>
        <time>2023-03-20T12:56:11Z</time>
      </trkpt>
      <trkpt lat="44.42792" lon="5.54979">
        <ele>1228.4</ele>
        <time>2023-03-20T12:56:12Z</time>
      </trkpt>
      <trkpt lat="44.42791" lon="5.54978">
        <ele>1228.4</ele>
        <time>2023-03-20T12:56:13Z</time>
      </trkpt>
      <trkpt lat="44.42791" lon="5.54978">
        <ele>1228.4</ele>
        <time>2023-03-20T12:56:14Z</time>
      </trkpt>
      <trkpt lat="44.4279" lon="5.54978">
        <ele>1228.4</ele>
        <time>2023-03-20T12:56:15Z</time>
      </trkpt>
      <trkpt lat="44.4279" lon="5.54978">
        <ele>1228.3</ele>
        <time>2023-03-20T12:56:16Z</time>
      </trkpt>
      <trkpt lat="44.42789" lon="5.54978">
        <ele>1222.8</ele>
        <time>2023-03-20T12:56:17Z</time>
      </trkpt>
      <trkpt lat="44.42788" lon="5.54977">
        <ele>1222.8</ele>
        <time>2023-03-20T12:56:18Z</time>
      </trkpt>
      <trkpt lat="44.42788" lon="5.54977">
        <ele>1222.8</ele>
        <time>2023-03-20T12:56:19Z</time>
      </trkpt>
      <trkpt lat="44.42787" lon="5.54977">
        <ele>1222.8</ele>
        <time>2023-03-20T12:56:20Z</time>
      </trkpt>
      <trkpt lat="44.42787" lon="5.54977">
        <ele>1222.8</ele>
        <time>2023-03-20T12:56:21Z</time>
      </trkpt>
      <trkpt lat="44.42786" lon="5.54977">
        <ele>1222.8</ele>
        <time>2023-03-20T12:56:22Z</time>
      </trkpt>
      <trkpt lat="44.42785" lon="5.54976">
        <ele>1222.8</ele>
        <time>2023-03-20T12:56:23Z</time>
      </trkpt>
      <trkpt lat="44.42784" lon="5.54976">
        <ele>1222.8</ele>
        <time>2023-03-20T12:56:24Z</time>
      </trkpt>
      <trkpt lat="44.42784" lon="5.54975">
        <ele>1222.7</ele>
        <time>2023-03-20T12:56:25Z</time>
      </trkpt>
      <trkpt lat="44.42783" lon="5.54975">
        <ele>1222.7</ele>
        <time>2023-03-20T12:56:26Z</time>
      </trkpt>
      <trkpt lat="44.42782" lon="5.54974">
        <ele>1222.7</ele>
        <time>2023-03-20T12:56:27Z</time>
      </trkpt>
      <trkpt lat="44.42781" lon="5.54974">
        <ele>1222.7</ele>
        <time>2023-03-20T12:56:28Z</time>
      </trkpt>
      <trkpt lat="44.42779" lon="5.54974">
        <ele>1222.7</ele>
        <time>2023-03-20T12:56:29Z</time>
      </trkpt>
      <trkpt lat="44.42778" lon="5.54975">
        <ele>1222.7</ele>
        <time>2023-03-20T12:56:30Z</time>
      </trkpt>
      <trkpt lat="44.42776" lon="5.54975">
        <ele>1216.8</ele>
        <time>2023-03-20T12:56:31Z</time>
      </trkpt>
      <trkpt lat="44.42774" lon="5.54974">
        <ele>1216.8</ele>
        <time>2023-03-20T12:56:32Z</time>
      </trkpt>
      <trkpt lat="44.42773" lon="5.54974">
        <ele>1216.8</ele>
        <time>2023-03-20T12:56:33Z</time>
      </trkpt>
      <trkpt lat="44.42771" lon="5.54973">
        <ele>1216.8</ele>
        <time>2023-03-20T12:56:34Z</time>
      </trkpt>
      <trkpt lat="44.4277" lon="5.54973">
        <ele>1216.7</ele>
        <time>2023-03-20T12:56:35Z</time>
      </trkpt>
      <trkpt lat="44.42767" lon="5.54972">
        <ele>1216.7</ele>
        <time>2023-03-20T12:56:36Z</time>
      </trkpt>
      <trkpt lat="44.42763" lon="5.54972">
        <ele>1211.9</ele>
        <time>2023-03-20T12:56:37Z</time>
      </trkpt>
      <trkpt lat="44.42759" lon="5.54971">
        <ele>1211.9</ele>
        <time>2023-03-20T12:56:38Z</time>
      </trkpt>
      <trkpt lat="44.42757" lon="5.54972">
        <ele>1211.9</ele>
        <time>2023-03-20T12:56:39Z</time>
      </trkpt>
      <trkpt lat="44.42754" lon="5.54972">
        <ele>1211.9</ele>
        <time>2023-03-20T12:56:40Z</time>
      </trkpt>
      <trkpt lat="44.42749" lon="5.54971">
        <ele>1206.8</ele>
        <time>2023-03-20T12:56:42Z</time>
      </trkpt>
      <trkpt lat="44.42745" lon="5.5497">
        <ele>1206.8</ele>
        <time>2023-03-20T12:56:43Z</time>
      </trkpt>
      <trkpt lat="44.42741" lon="5.5497">
        <ele>1206.8</ele>
        <time>2023-03-20T12:56:44Z</time>
      </trkpt>
      <trkpt lat="44.42737" lon="5.54972">
        <ele>1202.9</ele>
        <time>2023-03-20T12:56:45Z</time>
      </trkpt>
      <trkpt lat="44.42734" lon="5.54976">
        <ele>1202.8</ele>
        <time>2023-03-20T12:56:46Z</time>
      </trkpt>
      <trkpt lat="44.42732" lon="5.5498">
        <ele>1202.8</ele>
        <time>2023-03-20T12:56:47Z</time>
      </trkpt>
      <trkpt lat="44.42731" lon="5.54984">
        <ele>1198.9</ele>
        <time>2023-03-20T12:56:48Z</time>
      </trkpt>
      <trkpt lat="44.42731" lon="5.54989">
        <ele>1198.9</ele>
        <time>2023-03-20T12:56:49Z</time>
      </trkpt>
      <trkpt lat="44.42729" lon="5.54993">
        <ele>1198.9</ele>
        <time>2023-03-20T12:56:50Z</time>
      </trkpt>
      <trkpt lat="44.42726" lon="5.54998">
        <ele>1195.5</ele>
        <time>2023-03-20T12:56:51Z</time>
      </trkpt>
      <trkpt lat="44.42724" lon="5.55003">
        <ele>1191.4</ele>
        <time>2023-03-20T12:56:52Z</time>
      </trkpt>
      <trkpt lat="44.42723" lon="5.55007">
        <ele>1191.4</ele>
        <time>2023-03-20T12:56:53Z</time>
      </trkpt>
      <trkpt lat="44.42721" lon="5.55011">
        <ele>1191.4</ele>
        <time>2023-03-20T12:56:54Z</time>
      </trkpt>
      <trkpt lat="44.4272" lon="5.55016">
        <ele>1187.9</ele>
        <time>2023-03-20T12:56:55Z</time>
      </trkpt>
      <trkpt lat="44.42719" lon="5.5502">
        <ele>1187.9</ele>
        <time>2023-03-20T12:56:56Z</time>
      </trkpt>
      <trkpt lat="44.42717" lon="5.55024">
        <ele>1187.9</ele>
        <time>2023-03-20T12:56:57Z</time>
      </trkpt>
      <trkpt lat="44.42714" lon="5.55032">
        <ele>1185.2</ele>
        <time>2023-03-20T12:56:58Z</time>
      </trkpt>
      <trkpt lat="44.4271" lon="5.55041">
        <ele>1181.3</ele>
        <time>2023-03-20T12:56:59Z</time>
      </trkpt>
      <trkpt lat="44.42708" lon="5.5505">
        <ele>1177.5</ele>
        <time>2023-03-20T12:57:00Z</time>
      </trkpt>
      <trkpt lat="44.42706" lon="5.55059">
        <ele>1177.5</ele>
        <time>2023-03-20T12:57:01Z</time>
      </trkpt>
      <trkpt lat="44.42705" lon="5.55067">
        <ele>1177.5</ele>
        <time>2023-03-20T12:57:02Z</time>
      </trkpt>
      <trkpt lat="44.42703" lon="5.55074">
        <ele>1171.5</ele>
        <time>2023-03-20T12:57:03Z</time>
      </trkpt>
      <trkpt lat="44.427" lon="5.5508">
        <ele>1171.5</ele>
        <time>2023-03-20T12:57:04Z</time>
      </trkpt>
      <trkpt lat="44.42696" lon="5.55086">
        <ele>1166.6</ele>
        <time>2023-03-20T12:57:05Z</time>
      </trkpt>
      <trkpt lat="44.42691" lon="5.55092">
        <ele>1165.1</ele>
        <time>2023-03-20T12:57:06Z</time>
      </trkpt>
      <trkpt lat="44.42686" lon="5.55097">
        <ele>1165.1</ele>
        <time>2023-03-20T12:57:07Z</time>
      </trkpt>
      <trkpt lat="44.42682" lon="5.55102">
        <ele>1160.8</ele>
        <time>2023-03-20T12:57:08Z</time>
      </trkpt>
      <trkpt lat="44.42677" lon="5.55106">
        <ele>1160.5</ele>
        <time>2023-03-20T12:57:09Z</time>
      </trkpt>
      <trkpt lat="44.42672" lon="5.5511">
        <ele>1160.5</ele>
        <time>2023-03-20T12:57:10Z</time>
      </trkpt>
      <trkpt lat="44.42668" lon="5.55114">
        <ele>1160.5</ele>
        <time>2023-03-20T12:57:11Z</time>
      </trkpt>
      <trkpt lat="44.42666" lon="5.55118">
        <ele>1160.8</ele>
        <time>2023-03-20T12:57:12Z</time>
      </trkpt>
      <trkpt lat="44.42663" lon="5.55121">
        <ele>1157.1</ele>
        <time>2023-03-20T12:57:13Z</time>
      </trkpt>
      <trkpt lat="44.4266" lon="5.55126">
        <ele>1157.1</ele>
        <time>2023-03-20T12:57:14Z</time>
      </trkpt>
      <trkpt lat="44.42657" lon="5.55131">
        <ele>1157.1</ele>
        <time>2023-03-20T12:57:15Z</time>
      </trkpt>
      <trkpt lat="44.42655" lon="5.55135">
        <ele>1158.5</ele>
        <time>2023-03-20T12:57:16Z</time>
      </trkpt>
      <trkpt lat="44.42653" lon="5.55138">
        <ele>1155.5</ele>
        <time>2023-03-20T12:57:17Z</time>
      </trkpt>
      <trkpt lat="44.4265" lon="5.55141">
        <ele>1155.4</ele>
        <time>2023-03-20T12:57:18Z</time>
      </trkpt>
      <trkpt lat="44.42649" lon="5.55142">
        <ele>1155.4</ele>
        <time>2023-03-20T12:57:19Z</time>
      </trkpt>
      <trkpt lat="44.42646" lon="5.55145">
        <ele>1155.4</ele>
        <time>2023-03-20T12:57:20Z</time>
      </trkpt>
      <trkpt lat="44.42646" lon="5.55147">
        <ele>1155.4</ele>
        <time>2023-03-20T12:57:21Z</time>
      </trkpt>
      <trkpt lat="44.42644" lon="5.5515">
        <ele>1155.4</ele>
        <time>2023-03-20T12:57:22Z</time>
      </trkpt>
      <trkpt lat="44.42641" lon="5.55154">
        <ele>1155.9</ele>
        <time>2023-03-20T12:57:23Z</time>
      </trkpt>
      <trkpt lat="44.42639" lon="5.55158">
        <ele>1155.9</ele>
        <time>2023-03-20T12:57:24Z</time>
      </trkpt>
      <trkpt lat="44.42636" lon="5.55161">
        <ele>1155.8</ele>
        <time>2023-03-20T12:57:25Z</time>
      </trkpt>
      <trkpt lat="44.42633" lon="5.55165">
        <ele>1155.8</ele>
        <time>2023-03-20T12:57:26Z</time>
      </trkpt>
      <trkpt lat="44.42631" lon="5.55168">
        <ele>1155.8</ele>
        <time>2023-03-20T12:57:27Z</time>
      </trkpt>
      <trkpt lat="44.42628" lon="5.55171">
        <ele>1156.4</ele>
        <time>2023-03-20T12:57:28Z</time>
      </trkpt>
      <trkpt lat="44.42627" lon="5.55173">
        <ele>1156.4</ele>
        <time>2023-03-20T12:57:29Z</time>
      </trkpt>
      <trkpt lat="44.42625" lon="5.55175">
        <ele>1156.4</ele>
        <time>2023-03-20T12:57:30Z</time>
      </trkpt>
      <trkpt lat="44.42622" lon="5.55179">
        <ele>1156.4</ele>
        <time>2023-03-20T12:57:31Z</time>
      </trkpt>
      <trkpt lat="44.42621" lon="5.5518">
        <ele>1156.3</ele>
        <time>2023-03-20T12:57:32Z</time>
      </trkpt>
      <trkpt lat="44.42619" lon="5.55184">
        <ele>1156.3</ele>
        <time>2023-03-20T12:57:33Z</time>
      </trkpt>
      <trkpt lat="44.42617" lon="5.55188">
        <ele>1157.9</ele>
        <time>2023-03-20T12:57:34Z</time>
      </trkpt>
      <trkpt lat="44.42614" lon="5.55191">
        <ele>1157.9</ele>
        <time>2023-03-20T12:57:35Z</time>
      </trkpt>
      <trkpt lat="44.42612" lon="5.55193">
        <ele>1157.8</ele>
        <time>2023-03-20T12:57:36Z</time>
      </trkpt>
      <trkpt lat="44.42609" lon="5.55197">
        <ele>1157.8</ele>
        <time>2023-03-20T12:57:37Z</time>
      </trkpt>
      <trkpt lat="44.42606" lon="5.552">
        <ele>1157.8</ele>
        <time>2023-03-20T12:57:38Z</time>
      </trkpt>
      <trkpt lat="44.42604" lon="5.55205">
        <ele>1159.3</ele>
        <time>2023-03-20T12:57:39Z</time>
      </trkpt>
      <trkpt lat="44.42602" lon="5.55209">
        <ele>1159.3</ele>
        <time>2023-03-20T12:57:40Z</time>
      </trkpt>
      <trkpt lat="44.426" lon="5.55213">
        <ele>1159.3</ele>
        <time>2023-03-20T12:57:41Z</time>
      </trkpt>
      <trkpt lat="44.42599" lon="5.55214">
        <ele>1159.3</ele>
        <time>2023-03-20T12:57:42Z</time>
      </trkpt>
      <trkpt lat="44.42598" lon="5.55215">
        <ele>1159.3</ele>
        <time>2023-03-20T12:57:43Z</time>
      </trkpt>
      <trkpt lat="44.42597" lon="5.55216">
        <ele>1159.3</ele>
        <time>2023-03-20T12:57:44Z</time>
      </trkpt>
      <trkpt lat="44.42596" lon="5.55215">
        <ele>1159.3</ele>
        <time>2023-03-20T12:57:45Z</time>
      </trkpt>
      <trkpt lat="44.42595" lon="5.55215">
        <ele>1159.3</ele>
        <time>2023-03-20T12:57:46Z</time>
      </trkpt>
      <trkpt lat="44.42593" lon="5.55215">
        <ele>1160.7</ele>
        <time>2023-03-20T12:57:47Z</time>
      </trkpt>
      <trkpt lat="44.42592" lon="5.55215">
        <ele>1160.6</ele>
        <time>2023-03-20T12:57:48Z</time>
      </trkpt>
      <trkpt lat="44.4259" lon="5.55215">
        <ele>1160.6</ele>
        <time>2023-03-20T12:57:49Z</time>
      </trkpt>
      <trkpt lat="44.42589" lon="5.55215">
        <ele>1160.4</ele>
        <time>2023-03-20T12:57:50Z</time>
      </trkpt>
      <trkpt lat="44.42588" lon="5.55215">
        <ele>1160.4</ele>
        <time>2023-03-20T12:57:51Z</time>
      </trkpt>
      <trkpt lat="44.42588" lon="5.55215">
        <ele>1160.3</ele>
        <time>2023-03-20T12:57:52Z</time>
      </trkpt>
      <trkpt lat="44.42588" lon="5.55215">
        <ele>1160.3</ele>
        <time>2023-03-20T12:57:53Z</time>
      </trkpt>
      <trkpt lat="44.42587" lon="5.55214">
        <ele>1160.2</ele>
        <time>2023-03-20T12:57:54Z</time>
      </trkpt>
      <trkpt lat="44.42587" lon="5.55214">
        <ele>1160.1</ele>
        <time>2023-03-20T12:57:55Z</time>
      </trkpt>
      <trkpt lat="44.42587" lon="5.55214">
        <ele>1160.1</ele>
        <time>2023-03-20T12:57:56Z</time>
      </trkpt>
      <trkpt lat="44.42586" lon="5.55214">
        <ele>1160</ele>
        <time>2023-03-20T12:57:57Z</time>
      </trkpt>
      <trkpt lat="44.42586" lon="5.55213">
        <ele>1159.9</ele>
        <time>2023-03-20T12:57:58Z</time>
      </trkpt>
      <trkpt lat="44.42586" lon="5.55213">
        <ele>1159.9</ele>
        <time>2023-03-20T12:57:59Z</time>
      </trkpt>
      <trkpt lat="44.42585" lon="5.55213">
        <ele>1159.8</ele>
        <time>2023-03-20T12:58:00Z</time>
      </trkpt>
      <trkpt lat="44.42585" lon="5.55213">
        <ele>1159.8</ele>
        <time>2023-03-20T12:58:01Z</time>
      </trkpt>
      <trkpt lat="44.42585" lon="5.55213">
        <ele>1159.7</ele>
        <time>2023-03-20T12:58:02Z</time>
      </trkpt>
      <trkpt lat="44.42584" lon="5.55212">
        <ele>1159.7</ele>
        <time>2023-03-20T12:58:03Z</time>
      </trkpt>
      <trkpt lat="44.42584" lon="5.55212">
        <ele>1159.6</ele>
        <time>2023-03-20T12:58:04Z</time>
      </trkpt>
      <trkpt lat="44.42584" lon="5.55212">
        <ele>1159.6</ele>
        <time>2023-03-20T12:58:05Z</time>
      </trkpt>
      <trkpt lat="44.42583" lon="5.55212">
        <ele>1159.5</ele>
        <time>2023-03-20T12:58:06Z</time>
      </trkpt>
      <trkpt lat="44.42583" lon="5.55211">
        <ele>1159.5</ele>
        <time>2023-03-20T12:58:07Z</time>
      </trkpt>
      <trkpt lat="44.42583" lon="5.55211">
        <ele>1159.4</ele>
        <time>2023-03-20T12:58:08Z</time>
      </trkpt>
      <trkpt lat="44.42583" lon="5.55211">
        <ele>1159.4</ele>
        <time>2023-03-20T12:58:09Z</time>
      </trkpt>
      <trkpt lat="44.42582" lon="5.55211">
        <ele>1159.3</ele>
        <time>2023-03-20T12:58:14Z</time>
      </trkpt>
      <trkpt lat="44.42582" lon="5.5521">
        <ele>1159.3</ele>
        <time>2023-03-20T12:58:15Z</time>
      </trkpt>
      <trkpt lat="44.42582" lon="5.5521">
        <ele>1159.2</ele>
        <time>2023-03-20T12:58:16Z</time>
      </trkpt>
      <trkpt lat="44.42579" lon="5.55207">
        <ele>1158.7</ele>
        <time>2023-03-20T12:58:17Z</time>
      </trkpt>
      <trkpt lat="44.42578" lon="5.55206">
        <ele>1158.5</ele>
        <time>2023-03-20T12:58:18Z</time>
      </trkpt>
      <trkpt lat="44.42575" lon="5.55203">
        <ele>1158</ele>
        <time>2023-03-20T12:58:19Z</time>
      </trkpt>
      <trkpt lat="44.42572" lon="5.552">
        <ele>1157.4</ele>
        <time>2023-03-20T12:58:20Z</time>
      </trkpt>
      <trkpt lat="44.42569" lon="5.55196">
        <ele>1156.8</ele>
        <time>2023-03-20T12:58:21Z</time>
      </trkpt>
      <trkpt lat="44.42566" lon="5.55192">
        <ele>1156.2</ele>
        <time>2023-03-20T12:58:22Z</time>
      </trkpt>
      <trkpt lat="44.42563" lon="5.55188">
        <ele>1155.6</ele>
        <time>2023-03-20T12:58:23Z</time>
      </trkpt>
      <trkpt lat="44.42561" lon="5.55184">
        <ele>1155.1</ele>
        <time>2023-03-20T12:58:24Z</time>
      </trkpt>
      <trkpt lat="44.42559" lon="5.55182">
        <ele>1154.7</ele>
        <time>2023-03-20T12:58:25Z</time>
      </trkpt>
      <trkpt lat="44.42559" lon="5.55182">
        <ele>1154.7</ele>
        <time>2023-03-20T12:58:26Z</time>
      </trkpt>
      <trkpt lat="44.42559" lon="5.55181">
        <ele>1154.6</ele>
        <time>2023-03-20T12:58:27Z</time>
      </trkpt>
      <trkpt lat="44.42556" lon="5.55178">
        <ele>1154.1</ele>
        <time>2023-03-20T12:58:28Z</time>
      </trkpt>
      <trkpt lat="44.42555" lon="5.55177">
        <ele>1153.9</ele>
        <time>2023-03-20T12:58:29Z</time>
      </trkpt>
      <trkpt lat="44.42553" lon="5.55174">
        <ele>1153.4</ele>
        <time>2023-03-20T12:58:30Z</time>
      </trkpt>
      <trkpt lat="44.4255" lon="5.5517">
        <ele>1152.9</ele>
        <time>2023-03-20T12:58:31Z</time>
      </trkpt>
      <trkpt lat="44.42547" lon="5.55166">
        <ele>1152.2</ele>
        <time>2023-03-20T12:58:32Z</time>
      </trkpt>
      <trkpt lat="44.42544" lon="5.55159">
        <ele>1151.3</ele>
        <time>2023-03-20T12:58:33Z</time>
      </trkpt>
      <trkpt lat="44.4254" lon="5.55152">
        <ele>1150.5</ele>
        <time>2023-03-20T12:58:34Z</time>
      </trkpt>
      <trkpt lat="44.42537" lon="5.55146">
        <ele>1149.6</ele>
        <time>2023-03-20T12:58:35Z</time>
      </trkpt>
      <trkpt lat="44.42533" lon="5.55141">
        <ele>1148.8</ele>
        <time>2023-03-20T12:58:36Z</time>
      </trkpt>
      <trkpt lat="44.4253" lon="5.55135">
        <ele>1148.1</ele>
        <time>2023-03-20T12:58:37Z</time>
      </trkpt>
      <trkpt lat="44.42527" lon="5.55128">
        <ele>1147.2</ele>
        <time>2023-03-20T12:58:38Z</time>
      </trkpt>
      <trkpt lat="44.42524" lon="5.55123">
        <ele>1146.5</ele>
        <time>2023-03-20T12:58:39Z</time>
      </trkpt>
      <trkpt lat="44.42521" lon="5.55119">
        <ele>1145.9</ele>
        <time>2023-03-20T12:58:40Z</time>
      </trkpt>
      <trkpt lat="44.42519" lon="5.55115">
        <ele>1145.4</ele>
        <time>2023-03-20T12:58:41Z</time>
      </trkpt>
      <trkpt lat="44.42516" lon="5.55112">
        <ele>1144.8</ele>
        <time>2023-03-20T12:58:42Z</time>
      </trkpt>
      <trkpt lat="44.42513" lon="5.55108">
        <ele>1144.2</ele>
        <time>2023-03-20T12:58:43Z</time>
      </trkpt>
      <trkpt lat="44.42508" lon="5.55103">
        <ele>1143.4</ele>
        <time>2023-03-20T12:58:44Z</time>
      </trkpt>
      <trkpt lat="44.42504" lon="5.55099">
        <ele>1142.6</ele>
        <time>2023-03-20T12:58:45Z</time>
      </trkpt>
      <trkpt lat="44.425" lon="5.55094">
        <ele>1141.8</ele>
        <time>2023-03-20T12:58:46Z</time>
      </trkpt>
      <trkpt lat="44.42496" lon="5.55089">
        <ele>1141</ele>
        <time>2023-03-20T12:58:47Z</time>
      </trkpt>
      <trkpt lat="44.42492" lon="5.55081">
        <ele>1140</ele>
        <time>2023-03-20T12:58:48Z</time>
      </trkpt>
      <trkpt lat="44.42489" lon="5.55072">
        <ele>1139</ele>
        <time>2023-03-20T12:58:49Z</time>
      </trkpt>
      <trkpt lat="44.42486" lon="5.55065">
        <ele>1138.1</ele>
        <time>2023-03-20T12:58:50Z</time>
      </trkpt>
      <trkpt lat="44.42484" lon="5.55057">
        <ele>1137.2</ele>
        <time>2023-03-20T12:58:51Z</time>
      </trkpt>
      <trkpt lat="44.42481" lon="5.55051">
        <ele>1136.4</ele>
        <time>2023-03-20T12:58:52Z</time>
      </trkpt>
      <trkpt lat="44.42478" lon="5.55045">
        <ele>1135.6</ele>
        <time>2023-03-20T12:58:53Z</time>
      </trkpt>
      <trkpt lat="44.42475" lon="5.55039">
        <ele>1134.9</ele>
        <time>2023-03-20T12:58:54Z</time>
      </trkpt>
      <trkpt lat="44.42472" lon="5.55033">
        <ele>1134.1</ele>
        <time>2023-03-20T12:58:55Z</time>
      </trkpt>
      <trkpt lat="44.42469" lon="5.55027">
        <ele>1133.3</ele>
        <time>2023-03-20T12:58:56Z</time>
      </trkpt>
      <trkpt lat="44.42465" lon="5.55021">
        <ele>1132.5</ele>
        <time>2023-03-20T12:58:57Z</time>
      </trkpt>
      <trkpt lat="44.42462" lon="5.55015">
        <ele>1131.7</ele>
        <time>2023-03-20T12:58:58Z</time>
      </trkpt>
      <trkpt lat="44.42459" lon="5.55009">
        <ele>1130.9</ele>
        <time>2023-03-20T12:58:59Z</time>
      </trkpt>
      <trkpt lat="44.42455" lon="5.55003">
        <ele>1130</ele>
        <time>2023-03-20T12:59:00Z</time>
      </trkpt>
      <trkpt lat="44.42451" lon="5.54995">
        <ele>1129</ele>
        <time>2023-03-20T12:59:01Z</time>
      </trkpt>
      <trkpt lat="44.42448" lon="5.54985">
        <ele>1127.9</ele>
        <time>2023-03-20T12:59:02Z</time>
      </trkpt>
      <trkpt lat="44.42446" lon="5.54975">
        <ele>1126.8</ele>
        <time>2023-03-20T12:59:03Z</time>
      </trkpt>
      <trkpt lat="44.42444" lon="5.54965">
        <ele>1125.7</ele>
        <time>2023-03-20T12:59:04Z</time>
      </trkpt>
      <trkpt lat="44.42443" lon="5.54957">
        <ele>1124.8</ele>
        <time>2023-03-20T12:59:05Z</time>
      </trkpt>
      <trkpt lat="44.4244" lon="5.54948">
        <ele>1123.8</ele>
        <time>2023-03-20T12:59:06Z</time>
      </trkpt>
      <trkpt lat="44.42438" lon="5.54941">
        <ele>1122.9</ele>
        <time>2023-03-20T12:59:07Z</time>
      </trkpt>
      <trkpt lat="44.42436" lon="5.54933">
        <ele>1122.1</ele>
        <time>2023-03-20T12:59:08Z</time>
      </trkpt>
      <trkpt lat="44.42434" lon="5.54926">
        <ele>1121.3</ele>
        <time>2023-03-20T12:59:09Z</time>
      </trkpt>
      <trkpt lat="44.42433" lon="5.54917">
        <ele>1120.3</ele>
        <time>2023-03-20T12:59:10Z</time>
      </trkpt>
      <trkpt lat="44.4243" lon="5.54908">
        <ele>1119.2</ele>
        <time>2023-03-20T12:59:11Z</time>
      </trkpt>
      <trkpt lat="44.42429" lon="5.54897">
        <ele>1118.1</ele>
        <time>2023-03-20T12:59:12Z</time>
      </trkpt>
      <trkpt lat="44.42428" lon="5.54887">
        <ele>1117</ele>
        <time>2023-03-20T12:59:13Z</time>
      </trkpt>
      <trkpt lat="44.42428" lon="5.54876">
        <ele>1115.9</ele>
        <time>2023-03-20T12:59:14Z</time>
      </trkpt>
      <trkpt lat="44.42428" lon="5.54865">
        <ele>1114.7</ele>
        <time>2023-03-20T12:59:15Z</time>
      </trkpt>
      <trkpt lat="44.42429" lon="5.54856">
        <ele>1113.7</ele>
        <time>2023-03-20T12:59:16Z</time>
      </trkpt>
      <trkpt lat="44.4243" lon="5.54847">
        <ele>1112.7</ele>
        <time>2023-03-20T12:59:17Z</time>
      </trkpt>
      <trkpt lat="44.4243" lon="5.54837">
        <ele>1111.7</ele>
        <time>2023-03-20T12:59:18Z</time>
      </trkpt>
      <trkpt lat="44.42431" lon="5.54828">
        <ele>1110.8</ele>
        <time>2023-03-20T12:59:19Z</time>
      </trkpt>
      <trkpt lat="44.42432" lon="5.54819">
        <ele>1109.8</ele>
        <time>2023-03-20T12:59:20Z</time>
      </trkpt>
      <trkpt lat="44.42433" lon="5.54811">
        <ele>1108.9</ele>
        <time>2023-03-20T12:59:21Z</time>
      </trkpt>
      <trkpt lat="44.42434" lon="5.54803">
        <ele>1108</ele>
        <time>2023-03-20T12:59:22Z</time>
      </trkpt>
      <trkpt lat="44.42435" lon="5.54794">
        <ele>1107.1</ele>
        <time>2023-03-20T12:59:23Z</time>
      </trkpt>
      <trkpt lat="44.42435" lon="5.54786">
        <ele>1106.3</ele>
        <time>2023-03-20T12:59:24Z</time>
      </trkpt>
      <trkpt lat="44.42435" lon="5.54778">
        <ele>1105.4</ele>
        <time>2023-03-20T12:59:25Z</time>
      </trkpt>
      <trkpt lat="44.42435" lon="5.54769">
        <ele>1104.5</ele>
        <time>2023-03-20T12:59:26Z</time>
      </trkpt>
      <trkpt lat="44.42434" lon="5.54761">
        <ele>1103.6</ele>
        <time>2023-03-20T12:59:27Z</time>
      </trkpt>
      <trkpt lat="44.42433" lon="5.54754">
        <ele>1102.9</ele>
        <time>2023-03-20T12:59:28Z</time>
      </trkpt>
      <trkpt lat="44.42427" lon="5.54752">
        <ele>1102</ele>
        <time>2023-03-20T12:59:29Z</time>
      </trkpt>
      <trkpt lat="44.42421" lon="5.54753">
        <ele>1101.1</ele>
        <time>2023-03-20T12:59:30Z</time>
      </trkpt>
      <trkpt lat="44.42417" lon="5.54753">
        <ele>1100.4</ele>
        <time>2023-03-20T12:59:31Z</time>
      </trkpt>
      <trkpt lat="44.42414" lon="5.5475">
        <ele>1099.9</ele>
        <time>2023-03-20T12:59:32Z</time>
      </trkpt>
      <trkpt lat="44.42411" lon="5.54745">
        <ele>1099.2</ele>
        <time>2023-03-20T12:59:33Z</time>
      </trkpt>
      <trkpt lat="44.4241" lon="5.54737">
        <ele>1098.4</ele>
        <time>2023-03-20T12:59:34Z</time>
      </trkpt>
      <trkpt lat="44.42408" lon="5.5473">
        <ele>1097.6</ele>
        <time>2023-03-20T12:59:35Z</time>
      </trkpt>
      <trkpt lat="44.42406" lon="5.54723">
        <ele>1096.8</ele>
        <time>2023-03-20T12:59:36Z</time>
      </trkpt>
      <trkpt lat="44.42405" lon="5.54717">
        <ele>1096.1</ele>
        <time>2023-03-20T12:59:37Z</time>
      </trkpt>
      <trkpt lat="44.42402" lon="5.54712">
        <ele>1095.4</ele>
        <time>2023-03-20T12:59:38Z</time>
      </trkpt>
      <trkpt lat="44.424" lon="5.54705">
        <ele>1094.7</ele>
        <time>2023-03-20T12:59:39Z</time>
      </trkpt>
      <trkpt lat="44.42398" lon="5.54699">
        <ele>1093.9</ele>
        <time>2023-03-20T12:59:40Z</time>
      </trkpt>
      <trkpt lat="44.42395" lon="5.54692">
        <ele>1093.1</ele>
        <time>2023-03-20T12:59:41Z</time>
      </trkpt>
      <trkpt lat="44.42393" lon="5.54685">
        <ele>1092.3</ele>
        <time>2023-03-20T12:59:42Z</time>
      </trkpt>
      <trkpt lat="44.42389" lon="5.54679">
        <ele>1091.4</ele>
        <time>2023-03-20T12:59:43Z</time>
      </trkpt>
      <trkpt lat="44.42385" lon="5.54671">
        <ele>1090.5</ele>
        <time>2023-03-20T12:59:44Z</time>
      </trkpt>
      <trkpt lat="44.42382" lon="5.54664">
        <ele>1089.6</ele>
        <time>2023-03-20T12:59:45Z</time>
      </trkpt>
      <trkpt lat="44.42379" lon="5.54658">
        <ele>1088.8</ele>
        <time>2023-03-20T12:59:46Z</time>
      </trkpt>
      <trkpt lat="44.42375" lon="5.54653">
        <ele>1088</ele>
        <time>2023-03-20T12:59:47Z</time>
      </trkpt>
      <trkpt lat="44.4237" lon="5.54649">
        <ele>1087.1</ele>
        <time>2023-03-20T12:59:48Z</time>
      </trkpt>
      <trkpt lat="44.42365" lon="5.54645">
        <ele>1086.2</ele>
        <time>2023-03-20T12:59:49Z</time>
      </trkpt>
      <trkpt lat="44.42358" lon="5.54643">
        <ele>1085.3</ele>
        <time>2023-03-20T12:59:50Z</time>
      </trkpt>
      <trkpt lat="44.42351" lon="5.5464">
        <ele>1084.2</ele>
        <time>2023-03-20T12:59:51Z</time>
      </trkpt>
      <trkpt lat="44.42344" lon="5.54638">
        <ele>1083.1</ele>
        <time>2023-03-20T12:59:52Z</time>
      </trkpt>
      <trkpt lat="44.42336" lon="5.54635">
        <ele>1081.8</ele>
        <time>2023-03-20T12:59:53Z</time>
      </trkpt>
      <trkpt lat="44.42327" lon="5.54633">
        <ele>1080.5</ele>
        <time>2023-03-20T12:59:54Z</time>
      </trkpt>
      <trkpt lat="44.42319" lon="5.54632">
        <ele>1079.3</ele>
        <time>2023-03-20T12:59:55Z</time>
      </trkpt>
      <trkpt lat="44.42312" lon="5.5463">
        <ele>1078.2</ele>
        <time>2023-03-20T12:59:56Z</time>
      </trkpt>
      <trkpt lat="44.42304" lon="5.54628">
        <ele>1077.1</ele>
        <time>2023-03-20T12:59:57Z</time>
      </trkpt>
      <trkpt lat="44.42297" lon="5.54626">
        <ele>1076</ele>
        <time>2023-03-20T12:59:58Z</time>
      </trkpt>
      <trkpt lat="44.4229" lon="5.54624">
        <ele>1074.9</ele>
        <time>2023-03-20T12:59:59Z</time>
      </trkpt>
      <trkpt lat="44.42284" lon="5.54619">
        <ele>1073.9</ele>
        <time>2023-03-20T13:00:00Z</time>
      </trkpt>
      <trkpt lat="44.4228" lon="5.54613">
        <ele>1073</ele>
        <time>2023-03-20T13:00:01Z</time>
      </trkpt>
      <trkpt lat="44.42277" lon="5.54607">
        <ele>1072.2</ele>
        <time>2023-03-20T13:00:02Z</time>
      </trkpt>
      <trkpt lat="44.42273" lon="5.54602">
        <ele>1071.4</ele>
        <time>2023-03-20T13:00:03Z</time>
      </trkpt>
      <trkpt lat="44.42269" lon="5.54596">
        <ele>1070.6</ele>
        <time>2023-03-20T13:00:04Z</time>
      </trkpt>
      <trkpt lat="44.42264" lon="5.54592">
        <ele>1069.7</ele>
        <time>2023-03-20T13:00:05Z</time>
      </trkpt>
      <trkpt lat="44.42259" lon="5.54589">
        <ele>1068.9</ele>
        <time>2023-03-20T13:00:06Z</time>
      </trkpt>
      <trkpt lat="44.42254" lon="5.54585">
        <ele>1068</ele>
        <time>2023-03-20T13:00:07Z</time>
      </trkpt>
      <trkpt lat="44.42248" lon="5.54581">
        <ele>1067.1</ele>
        <time>2023-03-20T13:00:08Z</time>
      </trkpt>
      <trkpt lat="44.42243" lon="5.54578">
        <ele>1066.3</ele>
        <time>2023-03-20T13:00:09Z</time>
      </trkpt>
      <trkpt lat="44.42237" lon="5.54574">
        <ele>1065.4</ele>
        <time>2023-03-20T13:00:10Z</time>
      </trkpt>
      <trkpt lat="44.42231" lon="5.5457">
        <ele>1064.4</ele>
        <time>2023-03-20T13:00:11Z</time>
      </trkpt>
      <trkpt lat="44.42225" lon="5.54568">
        <ele>1063.4</ele>
        <time>2023-03-20T13:00:12Z</time>
      </trkpt>
      <trkpt lat="44.42218" lon="5.54566">
        <ele>1062.4</ele>
        <time>2023-03-20T13:00:13Z</time>
      </trkpt>
      <trkpt lat="44.4221" lon="5.54563">
        <ele>1061.2</ele>
        <time>2023-03-20T13:00:14Z</time>
      </trkpt>
      <trkpt lat="44.42203" lon="5.54558">
        <ele>1060</ele>
        <time>2023-03-20T13:00:15Z</time>
      </trkpt>
      <trkpt lat="44.42195" lon="5.54551">
        <ele>1058.6</ele>
        <time>2023-03-20T13:00:16Z</time>
      </trkpt>
      <trkpt lat="44.42188" lon="5.54544">
        <ele>1057.3</ele>
        <time>2023-03-20T13:00:17Z</time>
      </trkpt>
      <trkpt lat="44.42181" lon="5.54538">
        <ele>1056.1</ele>
        <time>2023-03-20T13:00:18Z</time>
      </trkpt>
      <trkpt lat="44.42176" lon="5.54531">
        <ele>1055.1</ele>
        <time>2023-03-20T13:00:19Z</time>
      </trkpt>
      <trkpt lat="44.4217" lon="5.54525">
        <ele>1053.9</ele>
        <time>2023-03-20T13:00:20Z</time>
      </trkpt>
      <trkpt lat="44.42165" lon="5.54517">
        <ele>1052.9</ele>
        <time>2023-03-20T13:00:21Z</time>
      </trkpt>
      <trkpt lat="44.4216" lon="5.54509">
        <ele>1051.8</ele>
        <time>2023-03-20T13:00:22Z</time>
      </trkpt>
      <trkpt lat="44.42154" lon="5.54502">
        <ele>1050.6</ele>
        <time>2023-03-20T13:00:23Z</time>
      </trkpt>
      <trkpt lat="44.42147" lon="5.54496">
        <ele>1049.1</ele>
        <time>2023-03-20T13:00:24Z</time>
      </trkpt>
      <trkpt lat="44.42138" lon="5.54491">
        <ele>1047.9</ele>
        <time>2023-03-20T13:00:25Z</time>
      </trkpt>
      <trkpt lat="44.42131" lon="5.54487">
        <ele>1047.1</ele>
        <time>2023-03-20T13:00:26Z</time>
      </trkpt>
      <trkpt lat="44.42123" lon="5.54482">
        <ele>1046.4</ele>
        <time>2023-03-20T13:00:27Z</time>
      </trkpt>
      <trkpt lat="44.42116" lon="5.54477">
        <ele>1046</ele>
        <time>2023-03-20T13:00:28Z</time>
      </trkpt>
      <trkpt lat="44.42111" lon="5.54472">
        <ele>1045.6</ele>
        <time>2023-03-20T13:00:29Z</time>
      </trkpt>
      <trkpt lat="44.42107" lon="5.54466">
        <ele>1045.1</ele>
        <time>2023-03-20T13:00:30Z</time>
      </trkpt>
      <trkpt lat="44.42104" lon="5.5446">
        <ele>1044.5</ele>
        <time>2023-03-20T13:00:31Z</time>
      </trkpt>
      <trkpt lat="44.42101" lon="5.54455">
        <ele>1043.9</ele>
        <time>2023-03-20T13:00:32Z</time>
      </trkpt>
      <trkpt lat="44.42098" lon="5.54449">
        <ele>1043.1</ele>
        <time>2023-03-20T13:00:33Z</time>
      </trkpt>
      <trkpt lat="44.42096" lon="5.54443">
        <ele>1042.2</ele>
        <time>2023-03-20T13:00:34Z</time>
      </trkpt>
      <trkpt lat="44.42093" lon="5.54438">
        <ele>1041.3</ele>
        <time>2023-03-20T13:00:35Z</time>
      </trkpt>
      <trkpt lat="44.42089" lon="5.54433">
        <ele>1040.4</ele>
        <time>2023-03-20T13:00:36Z</time>
      </trkpt>
      <trkpt lat="44.42087" lon="5.54428">
        <ele>1039.5</ele>
        <time>2023-03-20T13:00:37Z</time>
      </trkpt>
      <trkpt lat="44.42084" lon="5.54423">
        <ele>1038.7</ele>
        <time>2023-03-20T13:00:38Z</time>
      </trkpt>
      <trkpt lat="44.42082" lon="5.54418">
        <ele>1037.9</ele>
        <time>2023-03-20T13:00:39Z</time>
      </trkpt>
      <trkpt lat="44.42079" lon="5.54414">
        <ele>1037.1</ele>
        <time>2023-03-20T13:00:40Z</time>
      </trkpt>
      <trkpt lat="44.42076" lon="5.54412">
        <ele>1036.4</ele>
        <time>2023-03-20T13:00:41Z</time>
      </trkpt>
      <trkpt lat="44.42073" lon="5.54413">
        <ele>1035.6</ele>
        <time>2023-03-20T13:00:42Z</time>
      </trkpt>
      <trkpt lat="44.42069" lon="5.54412">
        <ele>1034.7</ele>
        <time>2023-03-20T13:00:43Z</time>
      </trkpt>
      <trkpt lat="44.42065" lon="5.54412">
        <ele>1033.8</ele>
        <time>2023-03-20T13:00:44Z</time>
      </trkpt>
      <trkpt lat="44.42061" lon="5.54412">
        <ele>1032.6</ele>
        <time>2023-03-20T13:00:45Z</time>
      </trkpt>
      <trkpt lat="44.42056" lon="5.54413">
        <ele>1031.4</ele>
        <time>2023-03-20T13:00:46Z</time>
      </trkpt>
      <trkpt lat="44.42052" lon="5.54415">
        <ele>1030</ele>
        <time>2023-03-20T13:00:47Z</time>
      </trkpt>
      <trkpt lat="44.42047" lon="5.54418">
        <ele>1028.5</ele>
        <time>2023-03-20T13:00:48Z</time>
      </trkpt>
      <trkpt lat="44.42042" lon="5.54421">
        <ele>1026.8</ele>
        <time>2023-03-20T13:00:49Z</time>
      </trkpt>
      <trkpt lat="44.42036" lon="5.54424">
        <ele>1025.3</ele>
        <time>2023-03-20T13:00:50Z</time>
      </trkpt>
      <trkpt lat="44.4203" lon="5.54425">
        <ele>1023.9</ele>
        <time>2023-03-20T13:00:51Z</time>
      </trkpt>
      <trkpt lat="44.42026" lon="5.54423">
        <ele>1022.9</ele>
        <time>2023-03-20T13:00:52Z</time>
      </trkpt>
      <trkpt lat="44.42022" lon="5.54419">
        <ele>1021.8</ele>
        <time>2023-03-20T13:00:53Z</time>
      </trkpt>
      <trkpt lat="44.42019" lon="5.54414">
        <ele>1020.7</ele>
        <time>2023-03-20T13:00:54Z</time>
      </trkpt>
      <trkpt lat="44.42015" lon="5.54408">
        <ele>1019.4</ele>
        <time>2023-03-20T13:00:55Z</time>
      </trkpt>
      <trkpt lat="44.42011" lon="5.54404">
        <ele>1017.9</ele>
        <time>2023-03-20T13:00:56Z</time>
      </trkpt>
      <trkpt lat="44.42006" lon="5.54401">
        <ele>1016.5</ele>
        <time>2023-03-20T13:00:57Z</time>
      </trkpt>
      <trkpt lat="44.42001" lon="5.54399">
        <ele>1015</ele>
        <time>2023-03-20T13:00:58Z</time>
      </trkpt>
      <trkpt lat="44.41996" lon="5.54396">
        <ele>1013.3</ele>
        <time>2023-03-20T13:00:59Z</time>
      </trkpt>
      <trkpt lat="44.4199" lon="5.54392">
        <ele>1011.6</ele>
        <time>2023-03-20T13:01:00Z</time>
      </trkpt>
      <trkpt lat="44.41985" lon="5.54389">
        <ele>1010.1</ele>
        <time>2023-03-20T13:01:01Z</time>
      </trkpt>
      <trkpt lat="44.4198" lon="5.54385">
        <ele>1008.4</ele>
        <time>2023-03-20T13:01:02Z</time>
      </trkpt>
      <trkpt lat="44.41975" lon="5.54382">
        <ele>1006.9</ele>
        <time>2023-03-20T13:01:03Z</time>
      </trkpt>
      <trkpt lat="44.41971" lon="5.54379">
        <ele>1005.5</ele>
        <time>2023-03-20T13:01:04Z</time>
      </trkpt>
      <trkpt lat="44.41968" lon="5.54376">
        <ele>1004.5</ele>
        <time>2023-03-20T13:01:05Z</time>
      </trkpt>
      <trkpt lat="44.41965" lon="5.54373">
        <ele>1003.4</ele>
        <time>2023-03-20T13:01:06Z</time>
      </trkpt>
      <trkpt lat="44.41961" lon="5.54371">
        <ele>1002.3</ele>
        <time>2023-03-20T13:01:07Z</time>
      </trkpt>
      <trkpt lat="44.41956" lon="5.54371">
        <ele>1001.4</ele>
        <time>2023-03-20T13:01:08Z</time>
      </trkpt>
      <trkpt lat="44.41952" lon="5.54371">
        <ele>1000.3</ele>
        <time>2023-03-20T13:01:09Z</time>
      </trkpt>
      <trkpt lat="44.41947" lon="5.54373">
        <ele>999.2</ele>
        <time>2023-03-20T13:01:10Z</time>
      </trkpt>
      <trkpt lat="44.41942" lon="5.54375">
        <ele>997.9</ele>
        <time>2023-03-20T13:01:11Z</time>
      </trkpt>
      <trkpt lat="44.41937" lon="5.54378">
        <ele>996.7</ele>
        <time>2023-03-20T13:01:12Z</time>
      </trkpt>
      <trkpt lat="44.41933" lon="5.5438">
        <ele>995.6</ele>
        <time>2023-03-20T13:01:13Z</time>
      </trkpt>
      <trkpt lat="44.41928" lon="5.54382">
        <ele>994.4</ele>
        <time>2023-03-20T13:01:14Z</time>
      </trkpt>
      <trkpt lat="44.41923" lon="5.54383">
        <ele>993.2</ele>
        <time>2023-03-20T13:01:15Z</time>
      </trkpt>
      <trkpt lat="44.41917" lon="5.54384">
        <ele>991.8</ele>
        <time>2023-03-20T13:01:16Z</time>
      </trkpt>
      <trkpt lat="44.41912" lon="5.54388">
        <ele>990.3</ele>
        <time>2023-03-20T13:01:17Z</time>
      </trkpt>
      <trkpt lat="44.41906" lon="5.54392">
        <ele>988.8</ele>
        <time>2023-03-20T13:01:18Z</time>
      </trkpt>
      <trkpt lat="44.41899" lon="5.54396">
        <ele>987.1</ele>
        <time>2023-03-20T13:01:19Z</time>
      </trkpt>
      <trkpt lat="44.41892" lon="5.54398">
        <ele>985.6</ele>
        <time>2023-03-20T13:01:20Z</time>
      </trkpt>
      <trkpt lat="44.41885" lon="5.54399">
        <ele>984.1</ele>
        <time>2023-03-20T13:01:21Z</time>
      </trkpt>
      <trkpt lat="44.41878" lon="5.544">
        <ele>982.7</ele>
        <time>2023-03-20T13:01:22Z</time>
      </trkpt>
      <trkpt lat="44.4187" lon="5.544">
        <ele>981.5</ele>
        <time>2023-03-20T13:01:23Z</time>
      </trkpt>
      <trkpt lat="44.41862" lon="5.544">
        <ele>980.3</ele>
        <time>2023-03-20T13:01:24Z</time>
      </trkpt>
      <trkpt lat="44.41854" lon="5.54401">
        <ele>979</ele>
        <time>2023-03-20T13:01:25Z</time>
      </trkpt>
      <trkpt lat="44.41847" lon="5.544">
        <ele>977.9</ele>
        <time>2023-03-20T13:01:26Z</time>
      </trkpt>
      <trkpt lat="44.4184" lon="5.54399">
        <ele>976.8</ele>
        <time>2023-03-20T13:01:27Z</time>
      </trkpt>
      <trkpt lat="44.41834" lon="5.54399">
        <ele>976</ele>
        <time>2023-03-20T13:01:28Z</time>
      </trkpt>
      <trkpt lat="44.41828" lon="5.54399">
        <ele>975.4</ele>
        <time>2023-03-20T13:01:29Z</time>
      </trkpt>
      <trkpt lat="44.41823" lon="5.54398">
        <ele>974.9</ele>
        <time>2023-03-20T13:01:30Z</time>
      </trkpt>
      <trkpt lat="44.41819" lon="5.54396">
        <ele>974.4</ele>
        <time>2023-03-20T13:01:31Z</time>
      </trkpt>
      <trkpt lat="44.41815" lon="5.54392">
        <ele>973.9</ele>
        <time>2023-03-20T13:01:32Z</time>
      </trkpt>
      <trkpt lat="44.41812" lon="5.54386">
        <ele>973.3</ele>
        <time>2023-03-20T13:01:33Z</time>
      </trkpt>
      <trkpt lat="44.41809" lon="5.54378">
        <ele>972.7</ele>
        <time>2023-03-20T13:01:34Z</time>
      </trkpt>
      <trkpt lat="44.41805" lon="5.54372">
        <ele>971.9</ele>
        <time>2023-03-20T13:01:35Z</time>
      </trkpt>
      <trkpt lat="44.41801" lon="5.54367">
        <ele>971.3</ele>
        <time>2023-03-20T13:01:36Z</time>
      </trkpt>
      <trkpt lat="44.41796" lon="5.54363">
        <ele>970.6</ele>
        <time>2023-03-20T13:01:37Z</time>
      </trkpt>
      <trkpt lat="44.41792" lon="5.54356">
        <ele>969.5</ele>
        <time>2023-03-20T13:01:38Z</time>
      </trkpt>
      <trkpt lat="44.41789" lon="5.54347">
        <ele>968.6</ele>
        <time>2023-03-20T13:01:39Z</time>
      </trkpt>
      <trkpt lat="44.41786" lon="5.54338">
        <ele>967.4</ele>
        <time>2023-03-20T13:01:40Z</time>
      </trkpt>
      <trkpt lat="44.41782" lon="5.54328">
        <ele>966</ele>
        <time>2023-03-20T13:01:41Z</time>
      </trkpt>
      <trkpt lat="44.41778" lon="5.54319">
        <ele>964.4</ele>
        <time>2023-03-20T13:01:42Z</time>
      </trkpt>
      <trkpt lat="44.41773" lon="5.54311">
        <ele>962.8</ele>
        <time>2023-03-20T13:01:43Z</time>
      </trkpt>
      <trkpt lat="44.41768" lon="5.54302">
        <ele>961.1</ele>
        <time>2023-03-20T13:01:44Z</time>
      </trkpt>
      <trkpt lat="44.41762" lon="5.54293">
        <ele>959.5</ele>
        <time>2023-03-20T13:01:45Z</time>
      </trkpt>
      <trkpt lat="44.41757" lon="5.54284">
        <ele>958</ele>
        <time>2023-03-20T13:01:46Z</time>
      </trkpt>
      <trkpt lat="44.41751" lon="5.54273">
        <ele>956.7</ele>
        <time>2023-03-20T13:01:47Z</time>
      </trkpt>
      <trkpt lat="44.41746" lon="5.54261">
        <ele>955.6</ele>
        <time>2023-03-20T13:01:48Z</time>
      </trkpt>
      <trkpt lat="44.41741" lon="5.5425">
        <ele>954.7</ele>
        <time>2023-03-20T13:01:49Z</time>
      </trkpt>
      <trkpt lat="44.41736" lon="5.5424">
        <ele>954.2</ele>
        <time>2023-03-20T13:01:50Z</time>
      </trkpt>
      <trkpt lat="44.41731" lon="5.54229">
        <ele>953.9</ele>
        <time>2023-03-20T13:01:51Z</time>
      </trkpt>
      <trkpt lat="44.41726" lon="5.54219">
        <ele>953.9</ele>
        <time>2023-03-20T13:01:52Z</time>
      </trkpt>
      <trkpt lat="44.41721" lon="5.5421">
        <ele>953.9</ele>
        <time>2023-03-20T13:01:53Z</time>
      </trkpt>
      <trkpt lat="44.41717" lon="5.542">
        <ele>954.1</ele>
        <time>2023-03-20T13:01:54Z</time>
      </trkpt>
      <trkpt lat="44.41713" lon="5.54191">
        <ele>954.2</ele>
        <time>2023-03-20T13:01:55Z</time>
      </trkpt>
      <trkpt lat="44.41709" lon="5.54182">
        <ele>954.4</ele>
        <time>2023-03-20T13:01:56Z</time>
      </trkpt>
      <trkpt lat="44.41707" lon="5.54173">
        <ele>954.5</ele>
        <time>2023-03-20T13:01:57Z</time>
      </trkpt>
      <trkpt lat="44.41707" lon="5.54164">
        <ele>954.6</ele>
        <time>2023-03-20T13:01:58Z</time>
      </trkpt>
      <trkpt lat="44.41707" lon="5.54156">
        <ele>954.6</ele>
        <time>2023-03-20T13:01:59Z</time>
      </trkpt>
      <trkpt lat="44.41708" lon="5.54149">
        <ele>954.5</ele>
        <time>2023-03-20T13:02:00Z</time>
      </trkpt>
      <trkpt lat="44.41709" lon="5.54143">
        <ele>954.5</ele>
        <time>2023-03-20T13:02:01Z</time>
      </trkpt>
      <trkpt lat="44.4171" lon="5.54138">
        <ele>954.6</ele>
        <time>2023-03-20T13:02:02Z</time>
      </trkpt>
      <trkpt lat="44.41711" lon="5.54134">
        <ele>954.9</ele>
        <time>2023-03-20T13:02:03Z</time>
      </trkpt>
      <trkpt lat="44.41713" lon="5.54129">
        <ele>955.2</ele>
        <time>2023-03-20T13:02:04Z</time>
      </trkpt>
      <trkpt lat="44.41714" lon="5.54125">
        <ele>955.5</ele>
        <time>2023-03-20T13:02:05Z</time>
      </trkpt>
      <trkpt lat="44.41716" lon="5.54121">
        <ele>955.7</ele>
        <time>2023-03-20T13:02:06Z</time>
      </trkpt>
      <trkpt lat="44.41718" lon="5.54117">
        <ele>956</ele>
        <time>2023-03-20T13:02:07Z</time>
      </trkpt>
      <trkpt lat="44.41719" lon="5.54115">
        <ele>956.1</ele>
        <time>2023-03-20T13:02:08Z</time>
      </trkpt>
      <trkpt lat="44.41721" lon="5.54111">
        <ele>956.5</ele>
        <time>2023-03-20T13:02:09Z</time>
      </trkpt>
      <trkpt lat="44.41722" lon="5.5411">
        <ele>956.5</ele>
        <time>2023-03-20T13:02:10Z</time>
      </trkpt>
      <trkpt lat="44.41724" lon="5.54106">
        <ele>956.4</ele>
        <time>2023-03-20T13:02:11Z</time>
      </trkpt>
      <trkpt lat="44.41726" lon="5.54102">
        <ele>956.2</ele>
        <time>2023-03-20T13:02:12Z</time>
      </trkpt>
      <trkpt lat="44.41727" lon="5.54101">
        <ele>956.2</ele>
        <time>2023-03-20T13:02:13Z</time>
      </trkpt>
      <trkpt lat="44.41728" lon="5.54101">
        <ele>956.1</ele>
        <time>2023-03-20T13:02:14Z</time>
      </trkpt>
      <trkpt lat="44.41728" lon="5.54103">
        <ele>956.1</ele>
        <time>2023-03-20T13:02:15Z</time>
      </trkpt>
      <trkpt lat="44.41727" lon="5.54104">
        <ele>956</ele>
        <time>2023-03-20T13:02:16Z</time>
      </trkpt>
      <trkpt lat="44.41725" lon="5.54105">
        <ele>955.9</ele>
        <time>2023-03-20T13:02:17Z</time>
      </trkpt>
      <trkpt lat="44.41723" lon="5.54107">
        <ele>955.8</ele>
        <time>2023-03-20T13:02:18Z</time>
      </trkpt>
      <trkpt lat="44.4172" lon="5.54109">
        <ele>955.7</ele>
        <time>2023-03-20T13:02:19Z</time>
      </trkpt>
      <trkpt lat="44.41717" lon="5.54112">
        <ele>955.5</ele>
        <time>2023-03-20T13:02:20Z</time>
      </trkpt>
      <trkpt lat="44.41714" lon="5.54116">
        <ele>955.3</ele>
        <time>2023-03-20T13:02:21Z</time>
      </trkpt>
      <trkpt lat="44.41713" lon="5.54119">
        <ele>955.2</ele>
        <time>2023-03-20T13:02:22Z</time>
      </trkpt>
      <trkpt lat="44.41711" lon="5.54123">
        <ele>955</ele>
        <time>2023-03-20T13:02:23Z</time>
      </trkpt>
      <trkpt lat="44.41709" lon="5.54126">
        <ele>954.9</ele>
        <time>2023-03-20T13:02:24Z</time>
      </trkpt>
      <trkpt lat="44.41707" lon="5.5413">
        <ele>954.8</ele>
        <time>2023-03-20T13:02:25Z</time>
      </trkpt>
      <trkpt lat="44.41705" lon="5.54134">
        <ele>954.6</ele>
        <time>2023-03-20T13:02:26Z</time>
      </trkpt>
      <trkpt lat="44.41703" lon="5.54139">
        <ele>954.2</ele>
        <time>2023-03-20T13:02:27Z</time>
      </trkpt>
      <trkpt lat="44.417" lon="5.54144">
        <ele>953.9</ele>
        <time>2023-03-20T13:02:28Z</time>
      </trkpt>
      <trkpt lat="44.41698" lon="5.5415">
        <ele>953.5</ele>
        <time>2023-03-20T13:02:29Z</time>
      </trkpt>
      <trkpt lat="44.41695" lon="5.54156">
        <ele>953.1</ele>
        <time>2023-03-20T13:02:30Z</time>
      </trkpt>
      <trkpt lat="44.41693" lon="5.54164">
        <ele>952.8</ele>
        <time>2023-03-20T13:02:31Z</time>
      </trkpt>
      <trkpt lat="44.41693" lon="5.54172">
        <ele>952.3</ele>
        <time>2023-03-20T13:02:32Z</time>
      </trkpt>
      <trkpt lat="44.41694" lon="5.54182">
        <ele>951.8</ele>
        <time>2023-03-20T13:02:33Z</time>
      </trkpt>
      <trkpt lat="44.41695" lon="5.54192">
        <ele>951.3</ele>
        <time>2023-03-20T13:02:34Z</time>
      </trkpt>
      <trkpt lat="44.41698" lon="5.54203">
        <ele>950.7</ele>
        <time>2023-03-20T13:02:35Z</time>
      </trkpt>
      <trkpt lat="44.41699" lon="5.54215">
        <ele>950.1</ele>
        <time>2023-03-20T13:02:36Z</time>
      </trkpt>
      <trkpt lat="44.41701" lon="5.54228">
        <ele>949.5</ele>
        <time>2023-03-20T13:02:37Z</time>
      </trkpt>
      <trkpt lat="44.41702" lon="5.5424">
        <ele>948.8</ele>
        <time>2023-03-20T13:02:38Z</time>
      </trkpt>
      <trkpt lat="44.41703" lon="5.54253">
        <ele>948.2</ele>
        <time>2023-03-20T13:02:39Z</time>
      </trkpt>
      <trkpt lat="44.41702" lon="5.54264">
        <ele>947.6</ele>
        <time>2023-03-20T13:02:40Z</time>
      </trkpt>
      <trkpt lat="44.41701" lon="5.54274">
        <ele>947.1</ele>
        <time>2023-03-20T13:02:41Z</time>
      </trkpt>
      <trkpt lat="44.417" lon="5.54284">
        <ele>946.6</ele>
        <time>2023-03-20T13:02:42Z</time>
      </trkpt>
      <trkpt lat="44.41698" lon="5.5429">
        <ele>946.2</ele>
        <time>2023-03-20T13:02:43Z</time>
      </trkpt>
      <trkpt lat="44.41695" lon="5.54296">
        <ele>945.9</ele>
        <time>2023-03-20T13:02:44Z</time>
      </trkpt>
      <trkpt lat="44.4169" lon="5.54299">
        <ele>945.5</ele>
        <time>2023-03-20T13:02:45Z</time>
      </trkpt>
      <trkpt lat="44.41682" lon="5.54299">
        <ele>945</ele>
        <time>2023-03-20T13:02:46Z</time>
      </trkpt>
      <trkpt lat="44.41675" lon="5.54299">
        <ele>944.4</ele>
        <time>2023-03-20T13:02:47Z</time>
      </trkpt>
      <trkpt lat="44.41666" lon="5.54296">
        <ele>943.8</ele>
        <time>2023-03-20T13:02:48Z</time>
      </trkpt>
      <trkpt lat="44.41658" lon="5.54293">
        <ele>943.2</ele>
        <time>2023-03-20T13:02:49Z</time>
      </trkpt>
      <trkpt lat="44.4165" lon="5.5429">
        <ele>942.6</ele>
        <time>2023-03-20T13:02:50Z</time>
      </trkpt>
      <trkpt lat="44.41641" lon="5.54286">
        <ele>942</ele>
        <time>2023-03-20T13:02:51Z</time>
      </trkpt>
      <trkpt lat="44.41633" lon="5.54283">
        <ele>941.4</ele>
        <time>2023-03-20T13:02:52Z</time>
      </trkpt>
      <trkpt lat="44.41625" lon="5.54284">
        <ele>940.8</ele>
        <time>2023-03-20T13:02:53Z</time>
      </trkpt>
      <trkpt lat="44.41617" lon="5.54285">
        <ele>940.3</ele>
        <time>2023-03-20T13:02:54Z</time>
      </trkpt>
      <trkpt lat="44.41609" lon="5.54285">
        <ele>939.7</ele>
        <time>2023-03-20T13:02:55Z</time>
      </trkpt>
      <trkpt lat="44.41601" lon="5.54284">
        <ele>938.5</ele>
        <time>2023-03-20T13:02:56Z</time>
      </trkpt>
      <trkpt lat="44.41594" lon="5.5428">
        <ele>937.3</ele>
        <time>2023-03-20T13:02:57Z</time>
      </trkpt>
      <trkpt lat="44.41586" lon="5.54275">
        <ele>936</ele>
        <time>2023-03-20T13:02:58Z</time>
      </trkpt>
      <trkpt lat="44.41578" lon="5.54271">
        <ele>934.7</ele>
        <time>2023-03-20T13:02:59Z</time>
      </trkpt>
      <trkpt lat="44.41569" lon="5.54267">
        <ele>933.3</ele>
        <time>2023-03-20T13:03:00Z</time>
      </trkpt>
      <trkpt lat="44.41559" lon="5.54265">
        <ele>931.9</ele>
        <time>2023-03-20T13:03:01Z</time>
      </trkpt>
      <trkpt lat="44.4155" lon="5.54263">
        <ele>930.5</ele>
        <time>2023-03-20T13:03:02Z</time>
      </trkpt>
      <trkpt lat="44.41541" lon="5.54263">
        <ele>929.2</ele>
        <time>2023-03-20T13:03:03Z</time>
      </trkpt>
      <trkpt lat="44.41532" lon="5.54263">
        <ele>927.8</ele>
        <time>2023-03-20T13:03:04Z</time>
      </trkpt>
      <trkpt lat="44.41523" lon="5.5426">
        <ele>926.4</ele>
        <time>2023-03-20T13:03:05Z</time>
      </trkpt>
      <trkpt lat="44.41514" lon="5.54255">
        <ele>925</ele>
        <time>2023-03-20T13:03:06Z</time>
      </trkpt>
      <trkpt lat="44.41505" lon="5.5425">
        <ele>923.5</ele>
        <time>2023-03-20T13:03:07Z</time>
      </trkpt>
      <trkpt lat="44.41497" lon="5.54247">
        <ele>922.2</ele>
        <time>2023-03-20T13:03:08Z</time>
      </trkpt>
      <trkpt lat="44.41488" lon="5.54242">
        <ele>920.9</ele>
        <time>2023-03-20T13:03:09Z</time>
      </trkpt>
      <trkpt lat="44.41481" lon="5.54239">
        <ele>919.7</ele>
        <time>2023-03-20T13:03:10Z</time>
      </trkpt>
      <trkpt lat="44.41473" lon="5.54235">
        <ele>918.6</ele>
        <time>2023-03-20T13:03:11Z</time>
      </trkpt>
      <trkpt lat="44.41466" lon="5.54233">
        <ele>917.5</ele>
        <time>2023-03-20T13:03:12Z</time>
      </trkpt>
      <trkpt lat="44.41459" lon="5.5423">
        <ele>916.4</ele>
        <time>2023-03-20T13:03:13Z</time>
      </trkpt>
      <trkpt lat="44.41452" lon="5.54228">
        <ele>915.3</ele>
        <time>2023-03-20T13:03:14Z</time>
      </trkpt>
      <trkpt lat="44.41444" lon="5.54227">
        <ele>914.2</ele>
        <time>2023-03-20T13:03:15Z</time>
      </trkpt>
      <trkpt lat="44.41438" lon="5.54225">
        <ele>913.2</ele>
        <time>2023-03-20T13:03:16Z</time>
      </trkpt>
      <trkpt lat="44.41432" lon="5.54223">
        <ele>912.3</ele>
        <time>2023-03-20T13:03:17Z</time>
      </trkpt>
      <trkpt lat="44.41426" lon="5.54219">
        <ele>911.3</ele>
        <time>2023-03-20T13:03:18Z</time>
      </trkpt>
      <trkpt lat="44.41421" lon="5.54213">
        <ele>910.3</ele>
        <time>2023-03-20T13:03:19Z</time>
      </trkpt>
      <trkpt lat="44.41416" lon="5.54208">
        <ele>909.4</ele>
        <time>2023-03-20T13:03:20Z</time>
      </trkpt>
      <trkpt lat="44.41413" lon="5.54202">
        <ele>908.6</ele>
        <time>2023-03-20T13:03:21Z</time>
      </trkpt>
      <trkpt lat="44.4141" lon="5.54197">
        <ele>908</ele>
        <time>2023-03-20T13:03:22Z</time>
      </trkpt>
      <trkpt lat="44.41408" lon="5.54193">
        <ele>907.4</ele>
        <time>2023-03-20T13:03:23Z</time>
      </trkpt>
      <trkpt lat="44.41404" lon="5.5419">
        <ele>906.7</ele>
        <time>2023-03-20T13:03:24Z</time>
      </trkpt>
      <trkpt lat="44.41398" lon="5.54188">
        <ele>905.9</ele>
        <time>2023-03-20T13:03:25Z</time>
      </trkpt>
      <trkpt lat="44.41392" lon="5.54186">
        <ele>904.9</ele>
        <time>2023-03-20T13:03:26Z</time>
      </trkpt>
      <trkpt lat="44.41386" lon="5.54185">
        <ele>904.1</ele>
        <time>2023-03-20T13:03:27Z</time>
      </trkpt>
      <trkpt lat="44.41382" lon="5.54185">
        <ele>903.4</ele>
        <time>2023-03-20T13:03:28Z</time>
      </trkpt>
      <trkpt lat="44.41377" lon="5.54184">
        <ele>902.7</ele>
        <time>2023-03-20T13:03:29Z</time>
      </trkpt>
      <trkpt lat="44.41372" lon="5.54183">
        <ele>902</ele>
        <time>2023-03-20T13:03:30Z</time>
      </trkpt>
      <trkpt lat="44.41367" lon="5.54182">
        <ele>901.1</ele>
        <time>2023-03-20T13:03:31Z</time>
      </trkpt>
      <trkpt lat="44.41361" lon="5.54184">
        <ele>900.2</ele>
        <time>2023-03-20T13:03:32Z</time>
      </trkpt>
      <trkpt lat="44.41356" lon="5.54189">
        <ele>899.3</ele>
        <time>2023-03-20T13:03:33Z</time>
      </trkpt>
      <trkpt lat="44.41352" lon="5.54197">
        <ele>898.3</ele>
        <time>2023-03-20T13:03:34Z</time>
      </trkpt>
      <trkpt lat="44.41347" lon="5.54204">
        <ele>897.3</ele>
        <time>2023-03-20T13:03:35Z</time>
      </trkpt>
      <trkpt lat="44.41343" lon="5.54209">
        <ele>896.4</ele>
        <time>2023-03-20T13:03:36Z</time>
      </trkpt>
      <trkpt lat="44.41338" lon="5.54214">
        <ele>895.5</ele>
        <time>2023-03-20T13:03:37Z</time>
      </trkpt>
      <trkpt lat="44.41332" lon="5.54216">
        <ele>894.7</ele>
        <time>2023-03-20T13:03:38Z</time>
      </trkpt>
      <trkpt lat="44.41327" lon="5.54216">
        <ele>893.9</ele>
        <time>2023-03-20T13:03:39Z</time>
      </trkpt>
      <trkpt lat="44.41323" lon="5.54213">
        <ele>893.2</ele>
        <time>2023-03-20T13:03:40Z</time>
      </trkpt>
      <trkpt lat="44.4132" lon="5.54207">
        <ele>892.3</ele>
        <time>2023-03-20T13:03:41Z</time>
      </trkpt>
      <trkpt lat="44.41318" lon="5.54199">
        <ele>891.4</ele>
        <time>2023-03-20T13:03:42Z</time>
      </trkpt>
      <trkpt lat="44.4132" lon="5.54189">
        <ele>890.4</ele>
        <time>2023-03-20T13:03:43Z</time>
      </trkpt>
      <trkpt lat="44.41322" lon="5.54179">
        <ele>889.3</ele>
        <time>2023-03-20T13:03:44Z</time>
      </trkpt>
      <trkpt lat="44.41322" lon="5.54168">
        <ele>888.1</ele>
        <time>2023-03-20T13:03:45Z</time>
      </trkpt>
      <trkpt lat="44.41321" lon="5.54157">
        <ele>886.9</ele>
        <time>2023-03-20T13:03:46Z</time>
      </trkpt>
      <trkpt lat="44.4132" lon="5.54146">
        <ele>885.7</ele>
        <time>2023-03-20T13:03:47Z</time>
      </trkpt>
      <trkpt lat="44.41319" lon="5.54135">
        <ele>884.6</ele>
        <time>2023-03-20T13:03:48Z</time>
      </trkpt>
      <trkpt lat="44.41318" lon="5.54125">
        <ele>883.5</ele>
        <time>2023-03-20T13:03:49Z</time>
      </trkpt>
      <trkpt lat="44.41318" lon="5.54114">
        <ele>882.3</ele>
        <time>2023-03-20T13:03:50Z</time>
      </trkpt>
      <trkpt lat="44.41316" lon="5.54103">
        <ele>881.1</ele>
        <time>2023-03-20T13:03:51Z</time>
      </trkpt>
      <trkpt lat="44.41314" lon="5.54092">
        <ele>879.9</ele>
        <time>2023-03-20T13:03:52Z</time>
      </trkpt>
      <trkpt lat="44.4131" lon="5.54082">
        <ele>878.7</ele>
        <time>2023-03-20T13:03:53Z</time>
      </trkpt>
      <trkpt lat="44.41305" lon="5.54073">
        <ele>877.6</ele>
        <time>2023-03-20T13:03:54Z</time>
      </trkpt>
      <trkpt lat="44.41301" lon="5.54064">
        <ele>876.4</ele>
        <time>2023-03-20T13:03:55Z</time>
      </trkpt>
      <trkpt lat="44.41297" lon="5.54056">
        <ele>875.3</ele>
        <time>2023-03-20T13:03:56Z</time>
      </trkpt>
      <trkpt lat="44.41293" lon="5.54047">
        <ele>874.2</ele>
        <time>2023-03-20T13:03:57Z</time>
      </trkpt>
      <trkpt lat="44.41289" lon="5.54038">
        <ele>873.3</ele>
        <time>2023-03-20T13:03:58Z</time>
      </trkpt>
      <trkpt lat="44.41285" lon="5.54028">
        <ele>872.5</ele>
        <time>2023-03-20T13:03:59Z</time>
      </trkpt>
      <trkpt lat="44.4128" lon="5.54017">
        <ele>871.7</ele>
        <time>2023-03-20T13:04:00Z</time>
      </trkpt>
      <trkpt lat="44.41277" lon="5.54004">
        <ele>870.8</ele>
        <time>2023-03-20T13:04:01Z</time>
      </trkpt>
      <trkpt lat="44.41272" lon="5.5399">
        <ele>869.9</ele>
        <time>2023-03-20T13:04:02Z</time>
      </trkpt>
      <trkpt lat="44.41268" lon="5.53975">
        <ele>868.8</ele>
        <time>2023-03-20T13:04:03Z</time>
      </trkpt>
      <trkpt lat="44.41263" lon="5.53961">
        <ele>867.8</ele>
        <time>2023-03-20T13:04:04Z</time>
      </trkpt>
      <trkpt lat="44.41258" lon="5.53948">
        <ele>866.8</ele>
        <time>2023-03-20T13:04:05Z</time>
      </trkpt>
      <trkpt lat="44.41252" lon="5.53935">
        <ele>865.8</ele>
        <time>2023-03-20T13:04:06Z</time>
      </trkpt>
      <trkpt lat="44.41245" lon="5.53924">
        <ele>864.8</ele>
        <time>2023-03-20T13:04:07Z</time>
      </trkpt>
      <trkpt lat="44.41236" lon="5.53914">
        <ele>863.8</ele>
        <time>2023-03-20T13:04:08Z</time>
      </trkpt>
      <trkpt lat="44.41228" lon="5.53904">
        <ele>862.8</ele>
        <time>2023-03-20T13:04:09Z</time>
      </trkpt>
      <trkpt lat="44.41221" lon="5.53893">
        <ele>861.9</ele>
        <time>2023-03-20T13:04:10Z</time>
      </trkpt>
      <trkpt lat="44.41216" lon="5.53881">
        <ele>860.9</ele>
        <time>2023-03-20T13:04:11Z</time>
      </trkpt>
      <trkpt lat="44.41212" lon="5.53868">
        <ele>860.1</ele>
        <time>2023-03-20T13:04:12Z</time>
      </trkpt>
      <trkpt lat="44.41212" lon="5.53855">
        <ele>859.2</ele>
        <time>2023-03-20T13:04:13Z</time>
      </trkpt>
      <trkpt lat="44.41215" lon="5.53841">
        <ele>858.2</ele>
        <time>2023-03-20T13:04:14Z</time>
      </trkpt>
      <trkpt lat="44.41215" lon="5.53828">
        <ele>857.4</ele>
        <time>2023-03-20T13:04:15Z</time>
      </trkpt>
      <trkpt lat="44.41212" lon="5.53821">
        <ele>856.9</ele>
        <time>2023-03-20T13:04:16Z</time>
      </trkpt>
      <trkpt lat="44.41205" lon="5.53816">
        <ele>856.2</ele>
        <time>2023-03-20T13:04:17Z</time>
      </trkpt>
      <trkpt lat="44.41197" lon="5.53814">
        <ele>855.4</ele>
        <time>2023-03-20T13:04:18Z</time>
      </trkpt>
      <trkpt lat="44.41189" lon="5.53813">
        <ele>854.7</ele>
        <time>2023-03-20T13:04:19Z</time>
      </trkpt>
      <trkpt lat="44.41181" lon="5.5381">
        <ele>853.9</ele>
        <time>2023-03-20T13:04:20Z</time>
      </trkpt>
      <trkpt lat="44.41173" lon="5.53808">
        <ele>853.2</ele>
        <time>2023-03-20T13:04:21Z</time>
      </trkpt>
      <trkpt lat="44.41166" lon="5.53805">
        <ele>852.5</ele>
        <time>2023-03-20T13:04:22Z</time>
      </trkpt>
      <trkpt lat="44.41159" lon="5.53804">
        <ele>851.8</ele>
        <time>2023-03-20T13:04:23Z</time>
      </trkpt>
      <trkpt lat="44.41153" lon="5.53802">
        <ele>851.4</ele>
        <time>2023-03-20T13:04:24Z</time>
      </trkpt>
      <trkpt lat="44.41147" lon="5.53799">
        <ele>850.9</ele>
        <time>2023-03-20T13:04:25Z</time>
      </trkpt>
      <trkpt lat="44.41142" lon="5.53795">
        <ele>850.5</ele>
        <time>2023-03-20T13:04:26Z</time>
      </trkpt>
      <trkpt lat="44.41136" lon="5.53792">
        <ele>850</ele>
        <time>2023-03-20T13:04:27Z</time>
      </trkpt>
      <trkpt lat="44.4113" lon="5.53789">
        <ele>849.6</ele>
        <time>2023-03-20T13:04:28Z</time>
      </trkpt>
      <trkpt lat="44.41125" lon="5.53785">
        <ele>849.2</ele>
        <time>2023-03-20T13:04:29Z</time>
      </trkpt>
      <trkpt lat="44.4112" lon="5.53778">
        <ele>848.6</ele>
        <time>2023-03-20T13:04:30Z</time>
      </trkpt>
      <trkpt lat="44.41115" lon="5.53768">
        <ele>848</ele>
        <time>2023-03-20T13:04:31Z</time>
      </trkpt>
      <trkpt lat="44.41111" lon="5.53756">
        <ele>847.3</ele>
        <time>2023-03-20T13:04:32Z</time>
      </trkpt>
      <trkpt lat="44.41104" lon="5.53743">
        <ele>846.5</ele>
        <time>2023-03-20T13:04:33Z</time>
      </trkpt>
      <trkpt lat="44.41098" lon="5.53731">
        <ele>845.2</ele>
        <time>2023-03-20T13:04:34Z</time>
      </trkpt>
      <trkpt lat="44.41093" lon="5.53719">
        <ele>844.8</ele>
        <time>2023-03-20T13:04:35Z</time>
      </trkpt>
      <trkpt lat="44.41088" lon="5.53708">
        <ele>844.5</ele>
        <time>2023-03-20T13:04:36Z</time>
      </trkpt>
      <trkpt lat="44.41084" lon="5.53696">
        <ele>844.1</ele>
        <time>2023-03-20T13:04:37Z</time>
      </trkpt>
      <trkpt lat="44.4108" lon="5.53685">
        <ele>843.6</ele>
        <time>2023-03-20T13:04:38Z</time>
      </trkpt>
      <trkpt lat="44.41075" lon="5.53674">
        <ele>843.1</ele>
        <time>2023-03-20T13:04:39Z</time>
      </trkpt>
      <trkpt lat="44.41071" lon="5.53662">
        <ele>842.5</ele>
        <time>2023-03-20T13:04:40Z</time>
      </trkpt>
      <trkpt lat="44.41066" lon="5.53651">
        <ele>841.9</ele>
        <time>2023-03-20T13:04:41Z</time>
      </trkpt>
      <trkpt lat="44.41062" lon="5.53639">
        <ele>841.3</ele>
        <time>2023-03-20T13:04:42Z</time>
      </trkpt>
      <trkpt lat="44.41057" lon="5.53627">
        <ele>840.6</ele>
        <time>2023-03-20T13:04:43Z</time>
      </trkpt>
      <trkpt lat="44.41053" lon="5.53615">
        <ele>839.9</ele>
        <time>2023-03-20T13:04:44Z</time>
      </trkpt>
      <trkpt lat="44.41049" lon="5.53603">
        <ele>839.2</ele>
        <time>2023-03-20T13:04:45Z</time>
      </trkpt>
      <trkpt lat="44.41044" lon="5.5359">
        <ele>838.5</ele>
        <time>2023-03-20T13:04:46Z</time>
      </trkpt>
      <trkpt lat="44.4104" lon="5.53578">
        <ele>837.8</ele>
        <time>2023-03-20T13:04:47Z</time>
      </trkpt>
      <trkpt lat="44.41035" lon="5.53565">
        <ele>837.1</ele>
        <time>2023-03-20T13:04:48Z</time>
      </trkpt>
      <trkpt lat="44.41031" lon="5.53553">
        <ele>836.5</ele>
        <time>2023-03-20T13:04:49Z</time>
      </trkpt>
      <trkpt lat="44.41026" lon="5.5354">
        <ele>835.8</ele>
        <time>2023-03-20T13:04:50Z</time>
      </trkpt>
      <trkpt lat="44.41021" lon="5.53528">
        <ele>835</ele>
        <time>2023-03-20T13:04:51Z</time>
      </trkpt>
      <trkpt lat="44.41016" lon="5.53515">
        <ele>834.2</ele>
        <time>2023-03-20T13:04:52Z</time>
      </trkpt>
      <trkpt lat="44.41011" lon="5.53502">
        <ele>833.5</ele>
        <time>2023-03-20T13:04:53Z</time>
      </trkpt>
      <trkpt lat="44.41007" lon="5.53489">
        <ele>832.8</ele>
        <time>2023-03-20T13:04:54Z</time>
      </trkpt>
      <trkpt lat="44.41002" lon="5.53477">
        <ele>832.1</ele>
        <time>2023-03-20T13:04:55Z</time>
      </trkpt>
      <trkpt lat="44.40997" lon="5.53464">
        <ele>831.5</ele>
        <time>2023-03-20T13:04:56Z</time>
      </trkpt>
      <trkpt lat="44.40992" lon="5.53451">
        <ele>830.8</ele>
        <time>2023-03-20T13:04:57Z</time>
      </trkpt>
      <trkpt lat="44.40987" lon="5.53439">
        <ele>830.2</ele>
        <time>2023-03-20T13:04:58Z</time>
      </trkpt>
      <trkpt lat="44.40982" lon="5.53427">
        <ele>829.5</ele>
        <time>2023-03-20T13:04:59Z</time>
      </trkpt>
      <trkpt lat="44.40977" lon="5.53416">
        <ele>828.9</ele>
        <time>2023-03-20T13:05:00Z</time>
      </trkpt>
      <trkpt lat="44.40972" lon="5.53405">
        <ele>828.3</ele>
        <time>2023-03-20T13:05:01Z</time>
      </trkpt>
      <trkpt lat="44.40965" lon="5.53394">
        <ele>827.6</ele>
        <time>2023-03-20T13:05:02Z</time>
      </trkpt>
      <trkpt lat="44.40958" lon="5.53385">
        <ele>827</ele>
        <time>2023-03-20T13:05:03Z</time>
      </trkpt>
      <trkpt lat="44.40951" lon="5.53376">
        <ele>826.4</ele>
        <time>2023-03-20T13:05:04Z</time>
      </trkpt>
      <trkpt lat="44.40944" lon="5.53368">
        <ele>825.9</ele>
        <time>2023-03-20T13:05:05Z</time>
      </trkpt>
      <trkpt lat="44.40936" lon="5.5336">
        <ele>825.3</ele>
        <time>2023-03-20T13:05:06Z</time>
      </trkpt>
      <trkpt lat="44.40928" lon="5.53354">
        <ele>824.7</ele>
        <time>2023-03-20T13:05:07Z</time>
      </trkpt>
      <trkpt lat="44.40919" lon="5.53347">
        <ele>824</ele>
        <time>2023-03-20T13:05:08Z</time>
      </trkpt>
      <trkpt lat="44.4091" lon="5.53341">
        <ele>823.3</ele>
        <time>2023-03-20T13:05:09Z</time>
      </trkpt>
      <trkpt lat="44.409" lon="5.53335">
        <ele>822.7</ele>
        <time>2023-03-20T13:05:10Z</time>
      </trkpt>
      <trkpt lat="44.40891" lon="5.5333">
        <ele>822.1</ele>
        <time>2023-03-20T13:05:11Z</time>
      </trkpt>
      <trkpt lat="44.40881" lon="5.53325">
        <ele>821.6</ele>
        <time>2023-03-20T13:05:12Z</time>
      </trkpt>
      <trkpt lat="44.40872" lon="5.5332">
        <ele>821.1</ele>
        <time>2023-03-20T13:05:13Z</time>
      </trkpt>
      <trkpt lat="44.40862" lon="5.53315">
        <ele>820.7</ele>
        <time>2023-03-20T13:05:14Z</time>
      </trkpt>
      <trkpt lat="44.40852" lon="5.5331">
        <ele>820.3</ele>
        <time>2023-03-20T13:05:15Z</time>
      </trkpt>
      <trkpt lat="44.40843" lon="5.53305">
        <ele>819.9</ele>
        <time>2023-03-20T13:05:16Z</time>
      </trkpt>
      <trkpt lat="44.40833" lon="5.533">
        <ele>819.6</ele>
        <time>2023-03-20T13:05:17Z</time>
      </trkpt>
      <trkpt lat="44.40824" lon="5.53296">
        <ele>819.4</ele>
        <time>2023-03-20T13:05:18Z</time>
      </trkpt>
      <trkpt lat="44.40814" lon="5.53293">
        <ele>819.3</ele>
        <time>2023-03-20T13:05:19Z</time>
      </trkpt>
      <trkpt lat="44.40805" lon="5.53292">
        <ele>819.2</ele>
        <time>2023-03-20T13:05:20Z</time>
      </trkpt>
      <trkpt lat="44.40797" lon="5.53291">
        <ele>819.2</ele>
        <time>2023-03-20T13:05:21Z</time>
      </trkpt>
      <trkpt lat="44.40789" lon="5.53291">
        <ele>819.2</ele>
        <time>2023-03-20T13:05:22Z</time>
      </trkpt>
      <trkpt lat="44.40781" lon="5.53292">
        <ele>819.2</ele>
        <time>2023-03-20T13:05:23Z</time>
      </trkpt>
      <trkpt lat="44.40772" lon="5.53292">
        <ele>819.2</ele>
        <time>2023-03-20T13:05:24Z</time>
      </trkpt>
      <trkpt lat="44.40765" lon="5.53292">
        <ele>819.3</ele>
        <time>2023-03-20T13:05:25Z</time>
      </trkpt>
      <trkpt lat="44.40757" lon="5.53291">
        <ele>819.3</ele>
        <time>2023-03-20T13:05:26Z</time>
      </trkpt>
      <trkpt lat="44.4075" lon="5.5329">
        <ele>819.3</ele>
        <time>2023-03-20T13:05:27Z</time>
      </trkpt>
      <trkpt lat="44.40743" lon="5.53287">
        <ele>819.4</ele>
        <time>2023-03-20T13:05:28Z</time>
      </trkpt>
      <trkpt lat="44.40736" lon="5.53283">
        <ele>819.5</ele>
        <time>2023-03-20T13:05:29Z</time>
      </trkpt>
      <trkpt lat="44.4073" lon="5.53278">
        <ele>819.5</ele>
        <time>2023-03-20T13:05:30Z</time>
      </trkpt>
      <trkpt lat="44.40724" lon="5.53273">
        <ele>819.6</ele>
        <time>2023-03-20T13:05:31Z</time>
      </trkpt>
      <trkpt lat="44.40718" lon="5.53268">
        <ele>819.6</ele>
        <time>2023-03-20T13:05:32Z</time>
      </trkpt>
      <trkpt lat="44.40713" lon="5.53262">
        <ele>819.6</ele>
        <time>2023-03-20T13:05:33Z</time>
      </trkpt>
      <trkpt lat="44.40708" lon="5.53257">
        <ele>819.7</ele>
        <time>2023-03-20T13:05:34Z</time>
      </trkpt>
      <trkpt lat="44.40703" lon="5.53251">
        <ele>819.7</ele>
        <time>2023-03-20T13:05:35Z</time>
      </trkpt>
      <trkpt lat="44.40698" lon="5.53245">
        <ele>819.7</ele>
        <time>2023-03-20T13:05:36Z</time>
      </trkpt>
      <trkpt lat="44.40692" lon="5.5324">
        <ele>819.8</ele>
        <time>2023-03-20T13:05:37Z</time>
      </trkpt>
      <trkpt lat="44.40687" lon="5.53235">
        <ele>819.9</ele>
        <time>2023-03-20T13:05:38Z</time>
      </trkpt>
      <trkpt lat="44.40681" lon="5.53231">
        <ele>819.9</ele>
        <time>2023-03-20T13:05:39Z</time>
      </trkpt>
      <trkpt lat="44.40675" lon="5.53227">
        <ele>820</ele>
        <time>2023-03-20T13:05:40Z</time>
      </trkpt>
      <trkpt lat="44.40669" lon="5.53224">
        <ele>820</ele>
        <time>2023-03-20T13:05:41Z</time>
      </trkpt>
      <trkpt lat="44.40662" lon="5.53222">
        <ele>820.1</ele>
        <time>2023-03-20T13:05:42Z</time>
      </trkpt>
      <trkpt lat="44.40656" lon="5.5322">
        <ele>820.1</ele>
        <time>2023-03-20T13:05:43Z</time>
      </trkpt>
      <trkpt lat="44.4065" lon="5.53219">
        <ele>820.2</ele>
        <time>2023-03-20T13:05:44Z</time>
      </trkpt>
      <trkpt lat="44.40644" lon="5.53218">
        <ele>820.2</ele>
        <time>2023-03-20T13:05:45Z</time>
      </trkpt>
      <trkpt lat="44.40638" lon="5.53215">
        <ele>820.2</ele>
        <time>2023-03-20T13:05:46Z</time>
      </trkpt>
      <trkpt lat="44.40632" lon="5.53212">
        <ele>820.2</ele>
        <time>2023-03-20T13:05:47Z</time>
      </trkpt>
      <trkpt lat="44.40627" lon="5.53209">
        <ele>820.2</ele>
        <time>2023-03-20T13:05:48Z</time>
      </trkpt>
      <trkpt lat="44.40621" lon="5.53205">
        <ele>820.2</ele>
        <time>2023-03-20T13:05:49Z</time>
      </trkpt>
      <trkpt lat="44.40616" lon="5.53202">
        <ele>820.2</ele>
        <time>2023-03-20T13:05:50Z</time>
      </trkpt>
      <trkpt lat="44.4061" lon="5.53198">
        <ele>820.2</ele>
        <time>2023-03-20T13:05:51Z</time>
      </trkpt>
      <trkpt lat="44.40605" lon="5.53194">
        <ele>820.3</ele>
        <time>2023-03-20T13:05:52Z</time>
      </trkpt>
      <trkpt lat="44.40599" lon="5.53191">
        <ele>820.3</ele>
        <time>2023-03-20T13:05:53Z</time>
      </trkpt>
      <trkpt lat="44.40594" lon="5.53187">
        <ele>820.3</ele>
        <time>2023-03-20T13:05:54Z</time>
      </trkpt>
      <trkpt lat="44.40589" lon="5.53183">
        <ele>820.3</ele>
        <time>2023-03-20T13:05:55Z</time>
      </trkpt>
      <trkpt lat="44.40584" lon="5.53178">
        <ele>820.3</ele>
        <time>2023-03-20T13:05:56Z</time>
      </trkpt>
      <trkpt lat="44.40579" lon="5.53172">
        <ele>820.4</ele>
        <time>2023-03-20T13:05:57Z</time>
      </trkpt>
      <trkpt lat="44.40575" lon="5.53166">
        <ele>820.4</ele>
        <time>2023-03-20T13:05:58Z</time>
      </trkpt>
      <trkpt lat="44.40571" lon="5.5316">
        <ele>820.4</ele>
        <time>2023-03-20T13:05:59Z</time>
      </trkpt>
      <trkpt lat="44.40567" lon="5.53153">
        <ele>820.4</ele>
        <time>2023-03-20T13:06:00Z</time>
      </trkpt>
      <trkpt lat="44.40564" lon="5.53146">
        <ele>820.4</ele>
        <time>2023-03-20T13:06:01Z</time>
      </trkpt>
      <trkpt lat="44.40561" lon="5.53139">
        <ele>820.4</ele>
        <time>2023-03-20T13:06:02Z</time>
      </trkpt>
      <trkpt lat="44.40559" lon="5.53131">
        <ele>820.4</ele>
        <time>2023-03-20T13:06:03Z</time>
      </trkpt>
      <trkpt lat="44.40557" lon="5.53123">
        <ele>820.4</ele>
        <time>2023-03-20T13:06:04Z</time>
      </trkpt>
      <trkpt lat="44.40555" lon="5.53115">
        <ele>820.4</ele>
        <time>2023-03-20T13:06:05Z</time>
      </trkpt>
      <trkpt lat="44.40553" lon="5.53106">
        <ele>820.4</ele>
        <time>2023-03-20T13:06:06Z</time>
      </trkpt>
      <trkpt lat="44.40553" lon="5.53099">
        <ele>820.4</ele>
        <time>2023-03-20T13:06:07Z</time>
      </trkpt>
      <trkpt lat="44.40553" lon="5.53091">
        <ele>820.4</ele>
        <time>2023-03-20T13:06:08Z</time>
      </trkpt>
      <trkpt lat="44.40554" lon="5.53083">
        <ele>820.4</ele>
        <time>2023-03-20T13:06:09Z</time>
      </trkpt>
      <trkpt lat="44.40555" lon="5.53075">
        <ele>820.4</ele>
        <time>2023-03-20T13:06:10Z</time>
      </trkpt>
      <trkpt lat="44.40557" lon="5.53068">
        <ele>820.4</ele>
        <time>2023-03-20T13:06:11Z</time>
      </trkpt>
      <trkpt lat="44.40559" lon="5.53061">
        <ele>820.4</ele>
        <time>2023-03-20T13:06:12Z</time>
      </trkpt>
      <trkpt lat="44.40562" lon="5.53053">
        <ele>820.4</ele>
        <time>2023-03-20T13:06:13Z</time>
      </trkpt>
      <trkpt lat="44.40565" lon="5.53047">
        <ele>820.4</ele>
        <time>2023-03-20T13:06:14Z</time>
      </trkpt>
      <trkpt lat="44.40568" lon="5.5304">
        <ele>820.3</ele>
        <time>2023-03-20T13:06:15Z</time>
      </trkpt>
      <trkpt lat="44.40571" lon="5.53034">
        <ele>820.3</ele>
        <time>2023-03-20T13:06:16Z</time>
      </trkpt>
      <trkpt lat="44.40576" lon="5.53029">
        <ele>820.3</ele>
        <time>2023-03-20T13:06:17Z</time>
      </trkpt>
      <trkpt lat="44.40581" lon="5.53025">
        <ele>820.2</ele>
        <time>2023-03-20T13:06:18Z</time>
      </trkpt>
      <trkpt lat="44.40586" lon="5.53021">
        <ele>820.1</ele>
        <time>2023-03-20T13:06:19Z</time>
      </trkpt>
      <trkpt lat="44.40591" lon="5.53017">
        <ele>819.9</ele>
        <time>2023-03-20T13:06:20Z</time>
      </trkpt>
      <trkpt lat="44.40597" lon="5.53014">
        <ele>819.7</ele>
        <time>2023-03-20T13:06:21Z</time>
      </trkpt>
      <trkpt lat="44.40603" lon="5.5301">
        <ele>819.5</ele>
        <time>2023-03-20T13:06:22Z</time>
      </trkpt>
      <trkpt lat="44.40608" lon="5.53007">
        <ele>819.2</ele>
        <time>2023-03-20T13:06:23Z</time>
      </trkpt>
      <trkpt lat="44.40614" lon="5.53003">
        <ele>818.9</ele>
        <time>2023-03-20T13:06:24Z</time>
      </trkpt>
      <trkpt lat="44.4062" lon="5.52998">
        <ele>818.6</ele>
        <time>2023-03-20T13:06:25Z</time>
      </trkpt>
      <trkpt lat="44.40625" lon="5.52993">
        <ele>818.3</ele>
        <time>2023-03-20T13:06:26Z</time>
      </trkpt>
      <trkpt lat="44.4063" lon="5.52987">
        <ele>817.9</ele>
        <time>2023-03-20T13:06:27Z</time>
      </trkpt>
      <trkpt lat="44.40635" lon="5.52979">
        <ele>817.5</ele>
        <time>2023-03-20T13:06:28Z</time>
      </trkpt>
      <trkpt lat="44.4064" lon="5.5297">
        <ele>817.1</ele>
        <time>2023-03-20T13:06:29Z</time>
      </trkpt>
      <trkpt lat="44.40644" lon="5.52962">
        <ele>816.7</ele>
        <time>2023-03-20T13:06:30Z</time>
      </trkpt>
      <trkpt lat="44.40647" lon="5.52953">
        <ele>816.3</ele>
        <time>2023-03-20T13:06:31Z</time>
      </trkpt>
      <trkpt lat="44.4065" lon="5.52943">
        <ele>815.8</ele>
        <time>2023-03-20T13:06:32Z</time>
      </trkpt>
      <trkpt lat="44.40652" lon="5.52934">
        <ele>815.4</ele>
        <time>2023-03-20T13:06:33Z</time>
      </trkpt>
      <trkpt lat="44.40654" lon="5.52924">
        <ele>815</ele>
        <time>2023-03-20T13:06:34Z</time>
      </trkpt>
      <trkpt lat="44.40655" lon="5.52915">
        <ele>814.6</ele>
        <time>2023-03-20T13:06:35Z</time>
      </trkpt>
      <trkpt lat="44.40656" lon="5.52906">
        <ele>814.2</ele>
        <time>2023-03-20T13:06:36Z</time>
      </trkpt>
      <trkpt lat="44.40656" lon="5.52896">
        <ele>813.7</ele>
        <time>2023-03-20T13:06:37Z</time>
      </trkpt>
      <trkpt lat="44.40656" lon="5.52886">
        <ele>813.2</ele>
        <time>2023-03-20T13:06:38Z</time>
      </trkpt>
      <trkpt lat="44.40655" lon="5.52877">
        <ele>812.8</ele>
        <time>2023-03-20T13:06:39Z</time>
      </trkpt>
      <trkpt lat="44.40653" lon="5.52867">
        <ele>812.3</ele>
        <time>2023-03-20T13:06:40Z</time>
      </trkpt>
      <trkpt lat="44.40651" lon="5.52857">
        <ele>811.8</ele>
        <time>2023-03-20T13:06:41Z</time>
      </trkpt>
      <trkpt lat="44.40647" lon="5.52848">
        <ele>811.3</ele>
        <time>2023-03-20T13:06:42Z</time>
      </trkpt>
      <trkpt lat="44.40643" lon="5.5284">
        <ele>810.8</ele>
        <time>2023-03-20T13:06:43Z</time>
      </trkpt>
      <trkpt lat="44.40637" lon="5.52832">
        <ele>810.3</ele>
        <time>2023-03-20T13:06:44Z</time>
      </trkpt>
      <trkpt lat="44.40631" lon="5.52825">
        <ele>809.8</ele>
        <time>2023-03-20T13:06:45Z</time>
      </trkpt>
      <trkpt lat="44.40625" lon="5.52819">
        <ele>809.3</ele>
        <time>2023-03-20T13:06:46Z</time>
      </trkpt>
      <trkpt lat="44.40618" lon="5.52813">
        <ele>808.8</ele>
        <time>2023-03-20T13:06:47Z</time>
      </trkpt>
      <trkpt lat="44.40609" lon="5.52808">
        <ele>808.3</ele>
        <time>2023-03-20T13:06:48Z</time>
      </trkpt>
      <trkpt lat="44.40599" lon="5.52804">
        <ele>807.6</ele>
        <time>2023-03-20T13:06:49Z</time>
      </trkpt>
      <trkpt lat="44.40589" lon="5.528">
        <ele>807</ele>
        <time>2023-03-20T13:06:50Z</time>
      </trkpt>
      <trkpt lat="44.40579" lon="5.52796">
        <ele>806.3</ele>
        <time>2023-03-20T13:06:51Z</time>
      </trkpt>
      <trkpt lat="44.4057" lon="5.52793">
        <ele>805.7</ele>
        <time>2023-03-20T13:06:52Z</time>
      </trkpt>
      <trkpt lat="44.4056" lon="5.5279">
        <ele>805.1</ele>
        <time>2023-03-20T13:06:53Z</time>
      </trkpt>
      <trkpt lat="44.4055" lon="5.52787">
        <ele>804.5</ele>
        <time>2023-03-20T13:06:54Z</time>
      </trkpt>
      <trkpt lat="44.40541" lon="5.52784">
        <ele>803.9</ele>
        <time>2023-03-20T13:06:55Z</time>
      </trkpt>
      <trkpt lat="44.40531" lon="5.52779">
        <ele>803.4</ele>
        <time>2023-03-20T13:06:56Z</time>
      </trkpt>
      <trkpt lat="44.40521" lon="5.52774">
        <ele>802.8</ele>
        <time>2023-03-20T13:06:57Z</time>
      </trkpt>
      <trkpt lat="44.40512" lon="5.52768">
        <ele>802.3</ele>
        <time>2023-03-20T13:06:58Z</time>
      </trkpt>
      <trkpt lat="44.40503" lon="5.52761">
        <ele>801.7</ele>
        <time>2023-03-20T13:06:59Z</time>
      </trkpt>
      <trkpt lat="44.40494" lon="5.52753">
        <ele>801.2</ele>
        <time>2023-03-20T13:07:00Z</time>
      </trkpt>
      <trkpt lat="44.40486" lon="5.52744">
        <ele>800.7</ele>
        <time>2023-03-20T13:07:01Z</time>
      </trkpt>
      <trkpt lat="44.40478" lon="5.52734">
        <ele>800.3</ele>
        <time>2023-03-20T13:07:02Z</time>
      </trkpt>
      <trkpt lat="44.40472" lon="5.52724">
        <ele>800</ele>
        <time>2023-03-20T13:07:03Z</time>
      </trkpt>
      <trkpt lat="44.40465" lon="5.52713">
        <ele>799.7</ele>
        <time>2023-03-20T13:07:04Z</time>
      </trkpt>
      <trkpt lat="44.40459" lon="5.52703">
        <ele>799.4</ele>
        <time>2023-03-20T13:07:05Z</time>
      </trkpt>
      <trkpt lat="44.40453" lon="5.52694">
        <ele>799.2</ele>
        <time>2023-03-20T13:07:06Z</time>
      </trkpt>
      <trkpt lat="44.40447" lon="5.52685">
        <ele>799.1</ele>
        <time>2023-03-20T13:07:07Z</time>
      </trkpt>
      <trkpt lat="44.40442" lon="5.52677">
        <ele>799</ele>
        <time>2023-03-20T13:07:08Z</time>
      </trkpt>
      <trkpt lat="44.40436" lon="5.5267">
        <ele>798.9</ele>
        <time>2023-03-20T13:07:09Z</time>
      </trkpt>
      <trkpt lat="44.40431" lon="5.52662">
        <ele>798.8</ele>
        <time>2023-03-20T13:07:10Z</time>
      </trkpt>
      <trkpt lat="44.40425" lon="5.52655">
        <ele>798.7</ele>
        <time>2023-03-20T13:07:11Z</time>
      </trkpt>
      <trkpt lat="44.40418" lon="5.52649">
        <ele>798.7</ele>
        <time>2023-03-20T13:07:12Z</time>
      </trkpt>
      <trkpt lat="44.40412" lon="5.52646">
        <ele>798.6</ele>
        <time>2023-03-20T13:07:13Z</time>
      </trkpt>
      <trkpt lat="44.40406" lon="5.52643">
        <ele>798.6</ele>
        <time>2023-03-20T13:07:14Z</time>
      </trkpt>
      <trkpt lat="44.404" lon="5.52641">
        <ele>798.6</ele>
        <time>2023-03-20T13:07:15Z</time>
      </trkpt>
      <trkpt lat="44.40394" lon="5.52638">
        <ele>798.6</ele>
        <time>2023-03-20T13:07:16Z</time>
      </trkpt>
      <trkpt lat="44.40389" lon="5.52635">
        <ele>798.5</ele>
        <time>2023-03-20T13:07:17Z</time>
      </trkpt>
      <trkpt lat="44.40383" lon="5.52632">
        <ele>798.5</ele>
        <time>2023-03-20T13:07:18Z</time>
      </trkpt>
      <trkpt lat="44.40379" lon="5.52629">
        <ele>798.5</ele>
        <time>2023-03-20T13:07:19Z</time>
      </trkpt>
      <trkpt lat="44.40374" lon="5.52626">
        <ele>798.5</ele>
        <time>2023-03-20T13:07:20Z</time>
      </trkpt>
      <trkpt lat="44.4037" lon="5.52622">
        <ele>798.5</ele>
        <time>2023-03-20T13:07:21Z</time>
      </trkpt>
      <trkpt lat="44.40366" lon="5.52619">
        <ele>798.4</ele>
        <time>2023-03-20T13:07:22Z</time>
      </trkpt>
      <trkpt lat="44.40362" lon="5.52616">
        <ele>798.4</ele>
        <time>2023-03-20T13:07:23Z</time>
      </trkpt>
      <trkpt lat="44.40357" lon="5.52613">
        <ele>798.4</ele>
        <time>2023-03-20T13:07:24Z</time>
      </trkpt>
      <trkpt lat="44.40353" lon="5.52609">
        <ele>798.3</ele>
        <time>2023-03-20T13:07:25Z</time>
      </trkpt>
      <trkpt lat="44.40348" lon="5.52606">
        <ele>798.3</ele>
        <time>2023-03-20T13:07:26Z</time>
      </trkpt>
      <trkpt lat="44.40343" lon="5.52602">
        <ele>798.2</ele>
        <time>2023-03-20T13:07:27Z</time>
      </trkpt>
      <trkpt lat="44.40338" lon="5.52598">
        <ele>798.1</ele>
        <time>2023-03-20T13:07:28Z</time>
      </trkpt>
      <trkpt lat="44.40333" lon="5.52594">
        <ele>798</ele>
        <time>2023-03-20T13:07:29Z</time>
      </trkpt>
      <trkpt lat="44.40328" lon="5.5259">
        <ele>797.9</ele>
        <time>2023-03-20T13:07:30Z</time>
      </trkpt>
      <trkpt lat="44.40323" lon="5.52586">
        <ele>797.7</ele>
        <time>2023-03-20T13:07:31Z</time>
      </trkpt>
      <trkpt lat="44.40318" lon="5.52583">
        <ele>797.6</ele>
        <time>2023-03-20T13:07:32Z</time>
      </trkpt>
      <trkpt lat="44.40312" lon="5.52582">
        <ele>797.7</ele>
        <time>2023-03-20T13:07:33Z</time>
      </trkpt>
      <trkpt lat="44.40306" lon="5.52583">
        <ele>797.8</ele>
        <time>2023-03-20T13:07:34Z</time>
      </trkpt>
      <trkpt lat="44.40301" lon="5.52585">
        <ele>797.9</ele>
        <time>2023-03-20T13:07:35Z</time>
      </trkpt>
      <trkpt lat="44.40296" lon="5.52586">
        <ele>798</ele>
        <time>2023-03-20T13:07:36Z</time>
      </trkpt>
      <trkpt lat="44.40291" lon="5.52588">
        <ele>798.1</ele>
        <time>2023-03-20T13:07:37Z</time>
      </trkpt>
      <trkpt lat="44.40286" lon="5.5259">
        <ele>798.3</ele>
        <time>2023-03-20T13:07:38Z</time>
      </trkpt>
      <trkpt lat="44.40282" lon="5.52592">
        <ele>798.5</ele>
        <time>2023-03-20T13:07:39Z</time>
      </trkpt>
      <trkpt lat="44.40277" lon="5.52595">
        <ele>798.7</ele>
        <time>2023-03-20T13:07:40Z</time>
      </trkpt>
      <trkpt lat="44.40273" lon="5.52598">
        <ele>798.9</ele>
        <time>2023-03-20T13:07:41Z</time>
      </trkpt>
      <trkpt lat="44.40268" lon="5.52601">
        <ele>799.1</ele>
        <time>2023-03-20T13:07:42Z</time>
      </trkpt>
      <trkpt lat="44.40265" lon="5.52605">
        <ele>799.3</ele>
        <time>2023-03-20T13:07:43Z</time>
      </trkpt>
      <trkpt lat="44.40261" lon="5.5261">
        <ele>799.6</ele>
        <time>2023-03-20T13:07:44Z</time>
      </trkpt>
      <trkpt lat="44.40258" lon="5.52616">
        <ele>799.9</ele>
        <time>2023-03-20T13:07:45Z</time>
      </trkpt>
      <trkpt lat="44.40255" lon="5.52621">
        <ele>800.2</ele>
        <time>2023-03-20T13:07:46Z</time>
      </trkpt>
      <trkpt lat="44.40253" lon="5.52627">
        <ele>800.4</ele>
        <time>2023-03-20T13:07:47Z</time>
      </trkpt>
      <trkpt lat="44.40251" lon="5.52633">
        <ele>800.8</ele>
        <time>2023-03-20T13:07:48Z</time>
      </trkpt>
      <trkpt lat="44.40249" lon="5.52639">
        <ele>801</ele>
        <time>2023-03-20T13:07:49Z</time>
      </trkpt>
      <trkpt lat="44.40247" lon="5.52644">
        <ele>801.3</ele>
        <time>2023-03-20T13:07:50Z</time>
      </trkpt>
      <trkpt lat="44.40246" lon="5.5265">
        <ele>801.6</ele>
        <time>2023-03-20T13:07:51Z</time>
      </trkpt>
      <trkpt lat="44.40245" lon="5.52655">
        <ele>801.9</ele>
        <time>2023-03-20T13:07:52Z</time>
      </trkpt>
      <trkpt lat="44.40244" lon="5.52659">
        <ele>802.1</ele>
        <time>2023-03-20T13:07:53Z</time>
      </trkpt>
      <trkpt lat="44.40244" lon="5.52664">
        <ele>802.4</ele>
        <time>2023-03-20T13:07:54Z</time>
      </trkpt>
      <trkpt lat="44.40243" lon="5.52669">
        <ele>802.6</ele>
        <time>2023-03-20T13:07:55Z</time>
      </trkpt>
      <trkpt lat="44.40243" lon="5.52673">
        <ele>802.8</ele>
        <time>2023-03-20T13:07:56Z</time>
      </trkpt>
      <trkpt lat="44.40243" lon="5.52678">
        <ele>803.1</ele>
        <time>2023-03-20T13:07:57Z</time>
      </trkpt>
      <trkpt lat="44.40242" lon="5.52683">
        <ele>803.3</ele>
        <time>2023-03-20T13:07:58Z</time>
      </trkpt>
      <trkpt lat="44.40242" lon="5.52689">
        <ele>803.6</ele>
        <time>2023-03-20T13:07:59Z</time>
      </trkpt>
      <trkpt lat="44.40242" lon="5.52694">
        <ele>803.9</ele>
        <time>2023-03-20T13:08:00Z</time>
      </trkpt>
      <trkpt lat="44.40242" lon="5.527">
        <ele>804.2</ele>
        <time>2023-03-20T13:08:01Z</time>
      </trkpt>
      <trkpt lat="44.40241" lon="5.52707">
        <ele>804.6</ele>
        <time>2023-03-20T13:08:02Z</time>
      </trkpt>
      <trkpt lat="44.40241" lon="5.52715">
        <ele>804.9</ele>
        <time>2023-03-20T13:08:03Z</time>
      </trkpt>
      <trkpt lat="44.4024" lon="5.52723">
        <ele>805.3</ele>
        <time>2023-03-20T13:08:04Z</time>
      </trkpt>
      <trkpt lat="44.4024" lon="5.5273">
        <ele>805.6</ele>
        <time>2023-03-20T13:08:05Z</time>
      </trkpt>
      <trkpt lat="44.4024" lon="5.52737">
        <ele>806</ele>
        <time>2023-03-20T13:08:06Z</time>
      </trkpt>
      <trkpt lat="44.40241" lon="5.52744">
        <ele>806.3</ele>
        <time>2023-03-20T13:08:07Z</time>
      </trkpt>
      <trkpt lat="44.40241" lon="5.52751">
        <ele>806.7</ele>
        <time>2023-03-20T13:08:08Z</time>
      </trkpt>
      <trkpt lat="44.4024" lon="5.52758">
        <ele>807</ele>
        <time>2023-03-20T13:08:09Z</time>
      </trkpt>
      <trkpt lat="44.40239" lon="5.52765">
        <ele>807.4</ele>
        <time>2023-03-20T13:08:10Z</time>
      </trkpt>
      <trkpt lat="44.40239" lon="5.52772">
        <ele>807.7</ele>
        <time>2023-03-20T13:08:11Z</time>
      </trkpt>
      <trkpt lat="44.40237" lon="5.52779">
        <ele>808.1</ele>
        <time>2023-03-20T13:08:12Z</time>
      </trkpt>
      <trkpt lat="44.40236" lon="5.52786">
        <ele>808.4</ele>
        <time>2023-03-20T13:08:13Z</time>
      </trkpt>
      <trkpt lat="44.40234" lon="5.52792">
        <ele>808.8</ele>
        <time>2023-03-20T13:08:14Z</time>
      </trkpt>
      <trkpt lat="44.40231" lon="5.52797">
        <ele>809.1</ele>
        <time>2023-03-20T13:08:15Z</time>
      </trkpt>
      <trkpt lat="44.40227" lon="5.52802">
        <ele>809.5</ele>
        <time>2023-03-20T13:08:16Z</time>
      </trkpt>
      <trkpt lat="44.40223" lon="5.52807">
        <ele>809.8</ele>
        <time>2023-03-20T13:08:17Z</time>
      </trkpt>
      <trkpt lat="44.40218" lon="5.5281">
        <ele>810.2</ele>
        <time>2023-03-20T13:08:18Z</time>
      </trkpt>
      <trkpt lat="44.40212" lon="5.52813">
        <ele>810.5</ele>
        <time>2023-03-20T13:08:19Z</time>
      </trkpt>
      <trkpt lat="44.40207" lon="5.52815">
        <ele>810.9</ele>
        <time>2023-03-20T13:08:20Z</time>
      </trkpt>
      <trkpt lat="44.40202" lon="5.52818">
        <ele>811.3</ele>
        <time>2023-03-20T13:08:21Z</time>
      </trkpt>
      <trkpt lat="44.40197" lon="5.5282">
        <ele>811.6</ele>
        <time>2023-03-20T13:08:22Z</time>
      </trkpt>
      <trkpt lat="44.40193" lon="5.52822">
        <ele>812</ele>
        <time>2023-03-20T13:08:23Z</time>
      </trkpt>
      <trkpt lat="44.40188" lon="5.52825">
        <ele>812.4</ele>
        <time>2023-03-20T13:08:24Z</time>
      </trkpt>
      <trkpt lat="44.40184" lon="5.52829">
        <ele>812.7</ele>
        <time>2023-03-20T13:08:25Z</time>
      </trkpt>
      <trkpt lat="44.40179" lon="5.52833">
        <ele>813.1</ele>
        <time>2023-03-20T13:08:26Z</time>
      </trkpt>
      <trkpt lat="44.40174" lon="5.52838">
        <ele>813.5</ele>
        <time>2023-03-20T13:08:27Z</time>
      </trkpt>
      <trkpt lat="44.4017" lon="5.52843">
        <ele>813.9</ele>
        <time>2023-03-20T13:08:28Z</time>
      </trkpt>
      <trkpt lat="44.40166" lon="5.52848">
        <ele>814.2</ele>
        <time>2023-03-20T13:08:29Z</time>
      </trkpt>
      <trkpt lat="44.40162" lon="5.52853">
        <ele>814.6</ele>
        <time>2023-03-20T13:08:30Z</time>
      </trkpt>
      <trkpt lat="44.40158" lon="5.52858">
        <ele>814.9</ele>
        <time>2023-03-20T13:08:31Z</time>
      </trkpt>
      <trkpt lat="44.40154" lon="5.52862">
        <ele>815.2</ele>
        <time>2023-03-20T13:08:32Z</time>
      </trkpt>
      <trkpt lat="44.40149" lon="5.52867">
        <ele>815.6</ele>
        <time>2023-03-20T13:08:33Z</time>
      </trkpt>
      <trkpt lat="44.40145" lon="5.52872">
        <ele>815.9</ele>
        <time>2023-03-20T13:08:34Z</time>
      </trkpt>
      <trkpt lat="44.4014" lon="5.52877">
        <ele>816.3</ele>
        <time>2023-03-20T13:08:35Z</time>
      </trkpt>
      <trkpt lat="44.40136" lon="5.52881">
        <ele>816.7</ele>
        <time>2023-03-20T13:08:36Z</time>
      </trkpt>
      <trkpt lat="44.40132" lon="5.52886">
        <ele>817</ele>
        <time>2023-03-20T13:08:37Z</time>
      </trkpt>
      <trkpt lat="44.40128" lon="5.52891">
        <ele>817.4</ele>
        <time>2023-03-20T13:08:38Z</time>
      </trkpt>
      <trkpt lat="44.40124" lon="5.52896">
        <ele>817.7</ele>
        <time>2023-03-20T13:08:39Z</time>
      </trkpt>
      <trkpt lat="44.4012" lon="5.52902">
        <ele>817.9</ele>
        <time>2023-03-20T13:08:40Z</time>
      </trkpt>
      <trkpt lat="44.40117" lon="5.52908">
        <ele>818.1</ele>
        <time>2023-03-20T13:08:41Z</time>
      </trkpt>
      <trkpt lat="44.40114" lon="5.52914">
        <ele>818.3</ele>
        <time>2023-03-20T13:08:42Z</time>
      </trkpt>
      <trkpt lat="44.40111" lon="5.52921">
        <ele>818.5</ele>
        <time>2023-03-20T13:08:43Z</time>
      </trkpt>
      <trkpt lat="44.40108" lon="5.52927">
        <ele>818.7</ele>
        <time>2023-03-20T13:08:44Z</time>
      </trkpt>
      <trkpt lat="44.40105" lon="5.52934">
        <ele>819</ele>
        <time>2023-03-20T13:08:45Z</time>
      </trkpt>
      <trkpt lat="44.40102" lon="5.5294">
        <ele>819.3</ele>
        <time>2023-03-20T13:08:46Z</time>
      </trkpt>
      <trkpt lat="44.40099" lon="5.52947">
        <ele>819.7</ele>
        <time>2023-03-20T13:08:47Z</time>
      </trkpt>
      <trkpt lat="44.40095" lon="5.52954">
        <ele>820.1</ele>
        <time>2023-03-20T13:08:48Z</time>
      </trkpt>
      <trkpt lat="44.40092" lon="5.5296">
        <ele>820.4</ele>
        <time>2023-03-20T13:08:49Z</time>
      </trkpt>
      <trkpt lat="44.40088" lon="5.52965">
        <ele>820.8</ele>
        <time>2023-03-20T13:08:50Z</time>
      </trkpt>
      <trkpt lat="44.40084" lon="5.5297">
        <ele>821.2</ele>
        <time>2023-03-20T13:08:51Z</time>
      </trkpt>
      <trkpt lat="44.4008" lon="5.52975">
        <ele>821.6</ele>
        <time>2023-03-20T13:08:52Z</time>
      </trkpt>
      <trkpt lat="44.40075" lon="5.52979">
        <ele>822</ele>
        <time>2023-03-20T13:08:53Z</time>
      </trkpt>
      <trkpt lat="44.4007" lon="5.52982">
        <ele>822.5</ele>
        <time>2023-03-20T13:08:54Z</time>
      </trkpt>
      <trkpt lat="44.40065" lon="5.52983">
        <ele>822.9</ele>
        <time>2023-03-20T13:08:55Z</time>
      </trkpt>
      <trkpt lat="44.40059" lon="5.52983">
        <ele>823.3</ele>
        <time>2023-03-20T13:08:56Z</time>
      </trkpt>
      <trkpt lat="44.40054" lon="5.52982">
        <ele>823.8</ele>
        <time>2023-03-20T13:08:57Z</time>
      </trkpt>
      <trkpt lat="44.40048" lon="5.5298">
        <ele>824.1</ele>
        <time>2023-03-20T13:08:58Z</time>
      </trkpt>
      <trkpt lat="44.40043" lon="5.52979">
        <ele>824.5</ele>
        <time>2023-03-20T13:08:59Z</time>
      </trkpt>
      <trkpt lat="44.40038" lon="5.52977">
        <ele>824.9</ele>
        <time>2023-03-20T13:09:00Z</time>
      </trkpt>
      <trkpt lat="44.40032" lon="5.52977">
        <ele>825.3</ele>
        <time>2023-03-20T13:09:01Z</time>
      </trkpt>
      <trkpt lat="44.40026" lon="5.52977">
        <ele>825.8</ele>
        <time>2023-03-20T13:09:02Z</time>
      </trkpt>
      <trkpt lat="44.40021" lon="5.52979">
        <ele>826.1</ele>
        <time>2023-03-20T13:09:03Z</time>
      </trkpt>
      <trkpt lat="44.40015" lon="5.52983">
        <ele>826.5</ele>
        <time>2023-03-20T13:09:04Z</time>
      </trkpt>
      <trkpt lat="44.40011" lon="5.52987">
        <ele>826.9</ele>
        <time>2023-03-20T13:09:05Z</time>
      </trkpt>
      <trkpt lat="44.40006" lon="5.52991">
        <ele>827.2</ele>
        <time>2023-03-20T13:09:06Z</time>
      </trkpt>
      <trkpt lat="44.40002" lon="5.52994">
        <ele>827.6</ele>
        <time>2023-03-20T13:09:07Z</time>
      </trkpt>
      <trkpt lat="44.39997" lon="5.52996">
        <ele>828</ele>
        <time>2023-03-20T13:09:08Z</time>
      </trkpt>
      <trkpt lat="44.39991" lon="5.52996">
        <ele>828.4</ele>
        <time>2023-03-20T13:09:09Z</time>
      </trkpt>
      <trkpt lat="44.39986" lon="5.52995">
        <ele>828.8</ele>
        <time>2023-03-20T13:09:10Z</time>
      </trkpt>
      <trkpt lat="44.39981" lon="5.52994">
        <ele>829.2</ele>
        <time>2023-03-20T13:09:11Z</time>
      </trkpt>
      <trkpt lat="44.39976" lon="5.52992">
        <ele>829.6</ele>
        <time>2023-03-20T13:09:12Z</time>
      </trkpt>
      <trkpt lat="44.39971" lon="5.5299">
        <ele>830</ele>
        <time>2023-03-20T13:09:13Z</time>
      </trkpt>
      <trkpt lat="44.39966" lon="5.52989">
        <ele>830.3</ele>
        <time>2023-03-20T13:09:14Z</time>
      </trkpt>
      <trkpt lat="44.39961" lon="5.52988">
        <ele>830.7</ele>
        <time>2023-03-20T13:09:15Z</time>
      </trkpt>
      <trkpt lat="44.39956" lon="5.52987">
        <ele>831</ele>
        <time>2023-03-20T13:09:16Z</time>
      </trkpt>
      <trkpt lat="44.39951" lon="5.52986">
        <ele>831.3</ele>
        <time>2023-03-20T13:09:17Z</time>
      </trkpt>
      <trkpt lat="44.39946" lon="5.52986">
        <ele>831.6</ele>
        <time>2023-03-20T13:09:18Z</time>
      </trkpt>
      <trkpt lat="44.39941" lon="5.52986">
        <ele>831.9</ele>
        <time>2023-03-20T13:09:19Z</time>
      </trkpt>
      <trkpt lat="44.39935" lon="5.52987">
        <ele>832.3</ele>
        <time>2023-03-20T13:09:20Z</time>
      </trkpt>
      <trkpt lat="44.3993" lon="5.52988">
        <ele>832.6</ele>
        <time>2023-03-20T13:09:21Z</time>
      </trkpt>
      <trkpt lat="44.39925" lon="5.52989">
        <ele>833</ele>
        <time>2023-03-20T13:09:22Z</time>
      </trkpt>
      <trkpt lat="44.3992" lon="5.52988">
        <ele>833.3</ele>
        <time>2023-03-20T13:09:23Z</time>
      </trkpt>
      <trkpt lat="44.39915" lon="5.52986">
        <ele>833.7</ele>
        <time>2023-03-20T13:09:24Z</time>
      </trkpt>
      <trkpt lat="44.3991" lon="5.52983">
        <ele>834</ele>
        <time>2023-03-20T13:09:25Z</time>
      </trkpt>
      <trkpt lat="44.39906" lon="5.52981">
        <ele>834.3</ele>
        <time>2023-03-20T13:09:26Z</time>
      </trkpt>
      <trkpt lat="44.39902" lon="5.52978">
        <ele>834.6</ele>
        <time>2023-03-20T13:09:27Z</time>
      </trkpt>
      <trkpt lat="44.39898" lon="5.52977">
        <ele>834.9</ele>
        <time>2023-03-20T13:09:28Z</time>
      </trkpt>
      <trkpt lat="44.39893" lon="5.52976">
        <ele>835.2</ele>
        <time>2023-03-20T13:09:29Z</time>
      </trkpt>
      <trkpt lat="44.39889" lon="5.52975">
        <ele>835.5</ele>
        <time>2023-03-20T13:09:30Z</time>
      </trkpt>
      <trkpt lat="44.39883" lon="5.52975">
        <ele>835.8</ele>
        <time>2023-03-20T13:09:31Z</time>
      </trkpt>
      <trkpt lat="44.39878" lon="5.52977">
        <ele>836.2</ele>
        <time>2023-03-20T13:09:32Z</time>
      </trkpt>
      <trkpt lat="44.39873" lon="5.52979">
        <ele>836.5</ele>
        <time>2023-03-20T13:09:33Z</time>
      </trkpt>
      <trkpt lat="44.39869" lon="5.52982">
        <ele>836.8</ele>
        <time>2023-03-20T13:09:34Z</time>
      </trkpt>
      <trkpt lat="44.39864" lon="5.52987">
        <ele>837.2</ele>
        <time>2023-03-20T13:09:35Z</time>
      </trkpt>
      <trkpt lat="44.39861" lon="5.52992">
        <ele>837.5</ele>
        <time>2023-03-20T13:09:36Z</time>
      </trkpt>
      <trkpt lat="44.39857" lon="5.52997">
        <ele>837.8</ele>
        <time>2023-03-20T13:09:37Z</time>
      </trkpt>
      <trkpt lat="44.39854" lon="5.53003">
        <ele>838.2</ele>
        <time>2023-03-20T13:09:38Z</time>
      </trkpt>
      <trkpt lat="44.39851" lon="5.5301">
        <ele>838.6</ele>
        <time>2023-03-20T13:09:39Z</time>
      </trkpt>
      <trkpt lat="44.39849" lon="5.53017">
        <ele>838.9</ele>
        <time>2023-03-20T13:09:40Z</time>
      </trkpt>
      <trkpt lat="44.39846" lon="5.53023">
        <ele>839.3</ele>
        <time>2023-03-20T13:09:41Z</time>
      </trkpt>
      <trkpt lat="44.39844" lon="5.5303">
        <ele>839.7</ele>
        <time>2023-03-20T13:09:42Z</time>
      </trkpt>
      <trkpt lat="44.39841" lon="5.53037">
        <ele>840.1</ele>
        <time>2023-03-20T13:09:43Z</time>
      </trkpt>
      <trkpt lat="44.39838" lon="5.53043">
        <ele>840.5</ele>
        <time>2023-03-20T13:09:44Z</time>
      </trkpt>
      <trkpt lat="44.39835" lon="5.53049">
        <ele>840.9</ele>
        <time>2023-03-20T13:09:45Z</time>
      </trkpt>
      <trkpt lat="44.3983" lon="5.53053">
        <ele>841.2</ele>
        <time>2023-03-20T13:09:46Z</time>
      </trkpt>
      <trkpt lat="44.39825" lon="5.53056">
        <ele>841.6</ele>
        <time>2023-03-20T13:09:47Z</time>
      </trkpt>
      <trkpt lat="44.3982" lon="5.53057">
        <ele>842</ele>
        <time>2023-03-20T13:09:48Z</time>
      </trkpt>
      <trkpt lat="44.39815" lon="5.53057">
        <ele>842.4</ele>
        <time>2023-03-20T13:09:49Z</time>
      </trkpt>
      <trkpt lat="44.39809" lon="5.53057">
        <ele>842.7</ele>
        <time>2023-03-20T13:09:50Z</time>
      </trkpt>
      <trkpt lat="44.39804" lon="5.53056">
        <ele>843.1</ele>
        <time>2023-03-20T13:09:51Z</time>
      </trkpt>
      <trkpt lat="44.39798" lon="5.53055">
        <ele>843.5</ele>
        <time>2023-03-20T13:09:52Z</time>
      </trkpt>
      <trkpt lat="44.39793" lon="5.53053">
        <ele>843.9</ele>
        <time>2023-03-20T13:09:53Z</time>
      </trkpt>
      <trkpt lat="44.39788" lon="5.5305">
        <ele>844.3</ele>
        <time>2023-03-20T13:09:54Z</time>
      </trkpt>
      <trkpt lat="44.39782" lon="5.53048">
        <ele>844.7</ele>
        <time>2023-03-20T13:09:55Z</time>
      </trkpt>
      <trkpt lat="44.39778" lon="5.53046">
        <ele>845</ele>
        <time>2023-03-20T13:09:56Z</time>
      </trkpt>
      <trkpt lat="44.39773" lon="5.53044">
        <ele>845.3</ele>
        <time>2023-03-20T13:09:57Z</time>
      </trkpt>
      <trkpt lat="44.39768" lon="5.53043">
        <ele>845.6</ele>
        <time>2023-03-20T13:09:58Z</time>
      </trkpt>
      <trkpt lat="44.39763" lon="5.53041">
        <ele>846</ele>
        <time>2023-03-20T13:09:59Z</time>
      </trkpt>
      <trkpt lat="44.39758" lon="5.53039">
        <ele>846.3</ele>
        <time>2023-03-20T13:10:00Z</time>
      </trkpt>
      <trkpt lat="44.39752" lon="5.53037">
        <ele>846.7</ele>
        <time>2023-03-20T13:10:01Z</time>
      </trkpt>
      <trkpt lat="44.39748" lon="5.53036">
        <ele>847</ele>
        <time>2023-03-20T13:10:02Z</time>
      </trkpt>
      <trkpt lat="44.39743" lon="5.53035">
        <ele>847.3</ele>
        <time>2023-03-20T13:10:03Z</time>
      </trkpt>
      <trkpt lat="44.39738" lon="5.53035">
        <ele>847.6</ele>
        <time>2023-03-20T13:10:04Z</time>
      </trkpt>
      <trkpt lat="44.39732" lon="5.53034">
        <ele>848</ele>
        <time>2023-03-20T13:10:05Z</time>
      </trkpt>
      <trkpt lat="44.39727" lon="5.53033">
        <ele>848.3</ele>
        <time>2023-03-20T13:10:06Z</time>
      </trkpt>
      <trkpt lat="44.39722" lon="5.53032">
        <ele>848.7</ele>
        <time>2023-03-20T13:10:07Z</time>
      </trkpt>
      <trkpt lat="44.39717" lon="5.5303">
        <ele>849.1</ele>
        <time>2023-03-20T13:10:08Z</time>
      </trkpt>
      <trkpt lat="44.39712" lon="5.53027">
        <ele>849.5</ele>
        <time>2023-03-20T13:10:09Z</time>
      </trkpt>
      <trkpt lat="44.39708" lon="5.53023">
        <ele>849.8</ele>
        <time>2023-03-20T13:10:10Z</time>
      </trkpt>
      <trkpt lat="44.39705" lon="5.53018">
        <ele>850.2</ele>
        <time>2023-03-20T13:10:11Z</time>
      </trkpt>
      <trkpt lat="44.39703" lon="5.53011">
        <ele>850.5</ele>
        <time>2023-03-20T13:10:12Z</time>
      </trkpt>
      <trkpt lat="44.39701" lon="5.53005">
        <ele>850.9</ele>
        <time>2023-03-20T13:10:13Z</time>
      </trkpt>
      <trkpt lat="44.39698" lon="5.53">
        <ele>851.2</ele>
        <time>2023-03-20T13:10:14Z</time>
      </trkpt>
      <trkpt lat="44.39695" lon="5.52995">
        <ele>851.6</ele>
        <time>2023-03-20T13:10:15Z</time>
      </trkpt>
      <trkpt lat="44.39691" lon="5.52991">
        <ele>851.9</ele>
        <time>2023-03-20T13:10:16Z</time>
      </trkpt>
      <trkpt lat="44.39686" lon="5.52988">
        <ele>852.4</ele>
        <time>2023-03-20T13:10:17Z</time>
      </trkpt>
      <trkpt lat="44.39681" lon="5.52985">
        <ele>852.8</ele>
        <time>2023-03-20T13:10:18Z</time>
      </trkpt>
      <trkpt lat="44.39676" lon="5.52983">
        <ele>853.1</ele>
        <time>2023-03-20T13:10:19Z</time>
      </trkpt>
      <trkpt lat="44.39671" lon="5.52981">
        <ele>853.5</ele>
        <time>2023-03-20T13:10:20Z</time>
      </trkpt>
      <trkpt lat="44.39667" lon="5.52979">
        <ele>853.9</ele>
        <time>2023-03-20T13:10:21Z</time>
      </trkpt>
      <trkpt lat="44.39662" lon="5.52977">
        <ele>854.2</ele>
        <time>2023-03-20T13:10:22Z</time>
      </trkpt>
      <trkpt lat="44.39658" lon="5.52975">
        <ele>854.5</ele>
        <time>2023-03-20T13:10:23Z</time>
      </trkpt>
      <trkpt lat="44.39653" lon="5.52974">
        <ele>854.8</ele>
        <time>2023-03-20T13:10:24Z</time>
      </trkpt>
      <trkpt lat="44.39648" lon="5.52972">
        <ele>855.1</ele>
        <time>2023-03-20T13:10:25Z</time>
      </trkpt>
      <trkpt lat="44.39644" lon="5.52972">
        <ele>855.4</ele>
        <time>2023-03-20T13:10:26Z</time>
      </trkpt>
      <trkpt lat="44.39639" lon="5.5297">
        <ele>855.8</ele>
        <time>2023-03-20T13:10:27Z</time>
      </trkpt>
      <trkpt lat="44.39634" lon="5.52969">
        <ele>856.1</ele>
        <time>2023-03-20T13:10:28Z</time>
      </trkpt>
      <trkpt lat="44.3963" lon="5.52969">
        <ele>856.4</ele>
        <time>2023-03-20T13:10:29Z</time>
      </trkpt>
      <trkpt lat="44.39625" lon="5.52968">
        <ele>856.8</ele>
        <time>2023-03-20T13:10:30Z</time>
      </trkpt>
      <trkpt lat="44.3962" lon="5.52968">
        <ele>857.1</ele>
        <time>2023-03-20T13:10:31Z</time>
      </trkpt>
      <trkpt lat="44.39615" lon="5.52968">
        <ele>857.5</ele>
        <time>2023-03-20T13:10:32Z</time>
      </trkpt>
      <trkpt lat="44.3961" lon="5.52969">
        <ele>857.9</ele>
        <time>2023-03-20T13:10:33Z</time>
      </trkpt>
      <trkpt lat="44.39606" lon="5.5297">
        <ele>858.2</ele>
        <time>2023-03-20T13:10:34Z</time>
      </trkpt>
      <trkpt lat="44.39601" lon="5.52972">
        <ele>858.6</ele>
        <time>2023-03-20T13:10:35Z</time>
      </trkpt>
      <trkpt lat="44.39597" lon="5.52976">
        <ele>858.9</ele>
        <time>2023-03-20T13:10:36Z</time>
      </trkpt>
      <trkpt lat="44.39593" lon="5.5298">
        <ele>859.2</ele>
        <time>2023-03-20T13:10:37Z</time>
      </trkpt>
      <trkpt lat="44.39589" lon="5.52985">
        <ele>859.5</ele>
        <time>2023-03-20T13:10:38Z</time>
      </trkpt>
      <trkpt lat="44.39585" lon="5.52989">
        <ele>859.8</ele>
        <time>2023-03-20T13:10:39Z</time>
      </trkpt>
      <trkpt lat="44.39582" lon="5.52995">
        <ele>860.1</ele>
        <time>2023-03-20T13:10:40Z</time>
      </trkpt>
      <trkpt lat="44.39579" lon="5.53001">
        <ele>860.4</ele>
        <time>2023-03-20T13:10:41Z</time>
      </trkpt>
      <trkpt lat="44.39576" lon="5.53006">
        <ele>860.8</ele>
        <time>2023-03-20T13:10:42Z</time>
      </trkpt>
      <trkpt lat="44.39574" lon="5.53012">
        <ele>861.1</ele>
        <time>2023-03-20T13:10:43Z</time>
      </trkpt>
      <trkpt lat="44.39571" lon="5.53018">
        <ele>861.4</ele>
        <time>2023-03-20T13:10:44Z</time>
      </trkpt>
      <trkpt lat="44.39569" lon="5.53023">
        <ele>861.7</ele>
        <time>2023-03-20T13:10:45Z</time>
      </trkpt>
      <trkpt lat="44.39566" lon="5.53029">
        <ele>862</ele>
        <time>2023-03-20T13:10:46Z</time>
      </trkpt>
      <trkpt lat="44.39563" lon="5.53035">
        <ele>862.4</ele>
        <time>2023-03-20T13:10:47Z</time>
      </trkpt>
      <trkpt lat="44.3956" lon="5.53041">
        <ele>862.7</ele>
        <time>2023-03-20T13:10:48Z</time>
      </trkpt>
      <trkpt lat="44.39557" lon="5.53047">
        <ele>863.1</ele>
        <time>2023-03-20T13:10:49Z</time>
      </trkpt>
      <trkpt lat="44.39554" lon="5.53053">
        <ele>863.4</ele>
        <time>2023-03-20T13:10:50Z</time>
      </trkpt>
      <trkpt lat="44.39552" lon="5.53059">
        <ele>863.8</ele>
        <time>2023-03-20T13:10:51Z</time>
      </trkpt>
      <trkpt lat="44.39548" lon="5.53064">
        <ele>864.1</ele>
        <time>2023-03-20T13:10:52Z</time>
      </trkpt>
      <trkpt lat="44.39545" lon="5.53068">
        <ele>864.5</ele>
        <time>2023-03-20T13:10:53Z</time>
      </trkpt>
      <trkpt lat="44.39541" lon="5.53071">
        <ele>864.8</ele>
        <time>2023-03-20T13:10:54Z</time>
      </trkpt>
      <trkpt lat="44.39536" lon="5.53072">
        <ele>865.2</ele>
        <time>2023-03-20T13:10:55Z</time>
      </trkpt>
      <trkpt lat="44.39531" lon="5.53071">
        <ele>865.6</ele>
        <time>2023-03-20T13:10:56Z</time>
      </trkpt>
      <trkpt lat="44.39526" lon="5.53068">
        <ele>866</ele>
        <time>2023-03-20T13:10:57Z</time>
      </trkpt>
      <trkpt lat="44.39521" lon="5.53064">
        <ele>866.5</ele>
        <time>2023-03-20T13:10:58Z</time>
      </trkpt>
      <trkpt lat="44.39516" lon="5.5306">
        <ele>866.9</ele>
        <time>2023-03-20T13:10:59Z</time>
      </trkpt>
      <trkpt lat="44.39512" lon="5.53055">
        <ele>867.3</ele>
        <time>2023-03-20T13:11:00Z</time>
      </trkpt>
      <trkpt lat="44.39509" lon="5.5305">
        <ele>867.7</ele>
        <time>2023-03-20T13:11:01Z</time>
      </trkpt>
      <trkpt lat="44.39505" lon="5.53045">
        <ele>868</ele>
        <time>2023-03-20T13:11:02Z</time>
      </trkpt>
      <trkpt lat="44.395" lon="5.53041">
        <ele>868.4</ele>
        <time>2023-03-20T13:11:03Z</time>
      </trkpt>
      <trkpt lat="44.39495" lon="5.53038">
        <ele>868.7</ele>
        <time>2023-03-20T13:11:04Z</time>
      </trkpt>
      <trkpt lat="44.3949" lon="5.53036">
        <ele>869</ele>
        <time>2023-03-20T13:11:05Z</time>
      </trkpt>
      <trkpt lat="44.39484" lon="5.53034">
        <ele>869.4</ele>
        <time>2023-03-20T13:11:06Z</time>
      </trkpt>
      <trkpt lat="44.39479" lon="5.53032">
        <ele>869.7</ele>
        <time>2023-03-20T13:11:07Z</time>
      </trkpt>
      <trkpt lat="44.39474" lon="5.53031">
        <ele>870</ele>
        <time>2023-03-20T13:11:08Z</time>
      </trkpt>
      <trkpt lat="44.39469" lon="5.5303">
        <ele>870.2</ele>
        <time>2023-03-20T13:11:09Z</time>
      </trkpt>
      <trkpt lat="44.39464" lon="5.53029">
        <ele>870.5</ele>
        <time>2023-03-20T13:11:10Z</time>
      </trkpt>
      <trkpt lat="44.39459" lon="5.53028">
        <ele>870.8</ele>
        <time>2023-03-20T13:11:11Z</time>
      </trkpt>
      <trkpt lat="44.39454" lon="5.53027">
        <ele>871.1</ele>
        <time>2023-03-20T13:11:12Z</time>
      </trkpt>
      <trkpt lat="44.39449" lon="5.53025">
        <ele>871.4</ele>
        <time>2023-03-20T13:11:13Z</time>
      </trkpt>
      <trkpt lat="44.39444" lon="5.53022">
        <ele>871.8</ele>
        <time>2023-03-20T13:11:14Z</time>
      </trkpt>
      <trkpt lat="44.3944" lon="5.53019">
        <ele>872.1</ele>
        <time>2023-03-20T13:11:15Z</time>
      </trkpt>
      <trkpt lat="44.39435" lon="5.53015">
        <ele>872.5</ele>
        <time>2023-03-20T13:11:16Z</time>
      </trkpt>
      <trkpt lat="44.3943" lon="5.53012">
        <ele>872.9</ele>
        <time>2023-03-20T13:11:17Z</time>
      </trkpt>
      <trkpt lat="44.39425" lon="5.5301">
        <ele>873.2</ele>
        <time>2023-03-20T13:11:18Z</time>
      </trkpt>
      <trkpt lat="44.3942" lon="5.53007">
        <ele>873.6</ele>
        <time>2023-03-20T13:11:19Z</time>
      </trkpt>
      <trkpt lat="44.39415" lon="5.53004">
        <ele>874</ele>
        <time>2023-03-20T13:11:20Z</time>
      </trkpt>
      <trkpt lat="44.3941" lon="5.53002">
        <ele>874.4</ele>
        <time>2023-03-20T13:11:21Z</time>
      </trkpt>
      <trkpt lat="44.39405" lon="5.53001">
        <ele>874.7</ele>
        <time>2023-03-20T13:11:22Z</time>
      </trkpt>
      <trkpt lat="44.39401" lon="5.52999">
        <ele>875.1</ele>
        <time>2023-03-20T13:11:23Z</time>
      </trkpt>
      <trkpt lat="44.39396" lon="5.52997">
        <ele>875.4</ele>
        <time>2023-03-20T13:11:24Z</time>
      </trkpt>
      <trkpt lat="44.39391" lon="5.52995">
        <ele>875.7</ele>
        <time>2023-03-20T13:11:25Z</time>
      </trkpt>
      <trkpt lat="44.39387" lon="5.52991">
        <ele>876.1</ele>
        <time>2023-03-20T13:11:26Z</time>
      </trkpt>
      <trkpt lat="44.39383" lon="5.52987">
        <ele>876.5</ele>
        <time>2023-03-20T13:11:27Z</time>
      </trkpt>
      <trkpt lat="44.39379" lon="5.52983">
        <ele>876.9</ele>
        <time>2023-03-20T13:11:28Z</time>
      </trkpt>
      <trkpt lat="44.39375" lon="5.52977">
        <ele>877.3</ele>
        <time>2023-03-20T13:11:29Z</time>
      </trkpt>
      <trkpt lat="44.39371" lon="5.52973">
        <ele>877.6</ele>
        <time>2023-03-20T13:11:30Z</time>
      </trkpt>
      <trkpt lat="44.39367" lon="5.52967">
        <ele>877.9</ele>
        <time>2023-03-20T13:11:31Z</time>
      </trkpt>
      <trkpt lat="44.39363" lon="5.52962">
        <ele>878.3</ele>
        <time>2023-03-20T13:11:32Z</time>
      </trkpt>
      <trkpt lat="44.3936" lon="5.52958">
        <ele>878.5</ele>
        <time>2023-03-20T13:11:33Z</time>
      </trkpt>
      <trkpt lat="44.39356" lon="5.52953">
        <ele>878.8</ele>
        <time>2023-03-20T13:11:34Z</time>
      </trkpt>
      <trkpt lat="44.39352" lon="5.52949">
        <ele>879.1</ele>
        <time>2023-03-20T13:11:35Z</time>
      </trkpt>
      <trkpt lat="44.39347" lon="5.52944">
        <ele>879.3</ele>
        <time>2023-03-20T13:11:36Z</time>
      </trkpt>
      <trkpt lat="44.39342" lon="5.52941">
        <ele>879.6</ele>
        <time>2023-03-20T13:11:37Z</time>
      </trkpt>
      <trkpt lat="44.39337" lon="5.52937">
        <ele>879.8</ele>
        <time>2023-03-20T13:11:38Z</time>
      </trkpt>
      <trkpt lat="44.39331" lon="5.52935">
        <ele>880</ele>
        <time>2023-03-20T13:11:39Z</time>
      </trkpt>
      <trkpt lat="44.39325" lon="5.52933">
        <ele>880.2</ele>
        <time>2023-03-20T13:11:40Z</time>
      </trkpt>
      <trkpt lat="44.3932" lon="5.52931">
        <ele>880.3</ele>
        <time>2023-03-20T13:11:41Z</time>
      </trkpt>
      <trkpt lat="44.39314" lon="5.5293">
        <ele>880.5</ele>
        <time>2023-03-20T13:11:42Z</time>
      </trkpt>
      <trkpt lat="44.39308" lon="5.52929">
        <ele>880.7</ele>
        <time>2023-03-20T13:11:43Z</time>
      </trkpt>
      <trkpt lat="44.39303" lon="5.52928">
        <ele>880.9</ele>
        <time>2023-03-20T13:11:44Z</time>
      </trkpt>
      <trkpt lat="44.39297" lon="5.52927">
        <ele>881.1</ele>
        <time>2023-03-20T13:11:45Z</time>
      </trkpt>
      <trkpt lat="44.39291" lon="5.52925">
        <ele>881.4</ele>
        <time>2023-03-20T13:11:46Z</time>
      </trkpt>
      <trkpt lat="44.39286" lon="5.52925">
        <ele>881.6</ele>
        <time>2023-03-20T13:11:47Z</time>
      </trkpt>
      <trkpt lat="44.39281" lon="5.52924">
        <ele>881.8</ele>
        <time>2023-03-20T13:11:48Z</time>
      </trkpt>
      <trkpt lat="44.39275" lon="5.52922">
        <ele>882</ele>
        <time>2023-03-20T13:11:49Z</time>
      </trkpt>
      <trkpt lat="44.3927" lon="5.5292">
        <ele>882.2</ele>
        <time>2023-03-20T13:11:50Z</time>
      </trkpt>
      <trkpt lat="44.39265" lon="5.52919">
        <ele>882.3</ele>
        <time>2023-03-20T13:11:51Z</time>
      </trkpt>
      <trkpt lat="44.39259" lon="5.52918">
        <ele>882.4</ele>
        <time>2023-03-20T13:11:52Z</time>
      </trkpt>
      <trkpt lat="44.39253" lon="5.52917">
        <ele>882.4</ele>
        <time>2023-03-20T13:11:53Z</time>
      </trkpt>
      <trkpt lat="44.39248" lon="5.52915">
        <ele>882.4</ele>
        <time>2023-03-20T13:11:54Z</time>
      </trkpt>
      <trkpt lat="44.39242" lon="5.52914">
        <ele>882.2</ele>
        <time>2023-03-20T13:11:55Z</time>
      </trkpt>
      <trkpt lat="44.39237" lon="5.52912">
        <ele>882.1</ele>
        <time>2023-03-20T13:11:56Z</time>
      </trkpt>
      <trkpt lat="44.39232" lon="5.52911">
        <ele>881.9</ele>
        <time>2023-03-20T13:11:57Z</time>
      </trkpt>
      <trkpt lat="44.39226" lon="5.5291">
        <ele>881.7</ele>
        <time>2023-03-20T13:11:58Z</time>
      </trkpt>
      <trkpt lat="44.3922" lon="5.52909">
        <ele>881.4</ele>
        <time>2023-03-20T13:11:59Z</time>
      </trkpt>
      <trkpt lat="44.39214" lon="5.52908">
        <ele>881</ele>
        <time>2023-03-20T13:12:00Z</time>
      </trkpt>
      <trkpt lat="44.39207" lon="5.52906">
        <ele>880.4</ele>
        <time>2023-03-20T13:12:01Z</time>
      </trkpt>
      <trkpt lat="44.39201" lon="5.529">
        <ele>879.8</ele>
        <time>2023-03-20T13:12:02Z</time>
      </trkpt>
      <trkpt lat="44.39196" lon="5.52892">
        <ele>879.1</ele>
        <time>2023-03-20T13:12:03Z</time>
      </trkpt>
      <trkpt lat="44.39194" lon="5.52881">
        <ele>878.4</ele>
        <time>2023-03-20T13:12:04Z</time>
      </trkpt>
      <trkpt lat="44.39193" lon="5.5287">
        <ele>877.7</ele>
        <time>2023-03-20T13:12:05Z</time>
      </trkpt>
      <trkpt lat="44.39192" lon="5.52858">
        <ele>877.1</ele>
        <time>2023-03-20T13:12:06Z</time>
      </trkpt>
      <trkpt lat="44.3919" lon="5.52847">
        <ele>876.5</ele>
        <time>2023-03-20T13:12:07Z</time>
      </trkpt>
      <trkpt lat="44.39187" lon="5.52837">
        <ele>876.1</ele>
        <time>2023-03-20T13:12:08Z</time>
      </trkpt>
      <trkpt lat="44.39182" lon="5.52828">
        <ele>875.7</ele>
        <time>2023-03-20T13:12:09Z</time>
      </trkpt>
      <trkpt lat="44.39177" lon="5.52818">
        <ele>875.4</ele>
        <time>2023-03-20T13:12:10Z</time>
      </trkpt>
      <trkpt lat="44.39172" lon="5.52808">
        <ele>875.2</ele>
        <time>2023-03-20T13:12:11Z</time>
      </trkpt>
      <trkpt lat="44.39168" lon="5.52799">
        <ele>875.2</ele>
        <time>2023-03-20T13:12:12Z</time>
      </trkpt>
      <trkpt lat="44.39163" lon="5.52792">
        <ele>875.2</ele>
        <time>2023-03-20T13:12:13Z</time>
      </trkpt>
      <trkpt lat="44.39156" lon="5.52787">
        <ele>875.2</ele>
        <time>2023-03-20T13:12:14Z</time>
      </trkpt>
      <trkpt lat="44.39149" lon="5.52786">
        <ele>875.2</ele>
        <time>2023-03-20T13:12:15Z</time>
      </trkpt>
      <trkpt lat="44.39142" lon="5.52787">
        <ele>875.3</ele>
        <time>2023-03-20T13:12:16Z</time>
      </trkpt>
      <trkpt lat="44.39136" lon="5.52789">
        <ele>875.4</ele>
        <time>2023-03-20T13:12:17Z</time>
      </trkpt>
      <trkpt lat="44.39129" lon="5.52791">
        <ele>875.6</ele>
        <time>2023-03-20T13:12:18Z</time>
      </trkpt>
      <trkpt lat="44.39124" lon="5.52794">
        <ele>875.8</ele>
        <time>2023-03-20T13:12:19Z</time>
      </trkpt>
      <trkpt lat="44.39119" lon="5.52796">
        <ele>875.9</ele>
        <time>2023-03-20T13:12:20Z</time>
      </trkpt>
      <trkpt lat="44.39114" lon="5.52798">
        <ele>876.1</ele>
        <time>2023-03-20T13:12:21Z</time>
      </trkpt>
      <trkpt lat="44.39109" lon="5.528">
        <ele>876.3</ele>
        <time>2023-03-20T13:12:22Z</time>
      </trkpt>
      <trkpt lat="44.39104" lon="5.52802">
        <ele>876.4</ele>
        <time>2023-03-20T13:12:23Z</time>
      </trkpt>
      <trkpt lat="44.39098" lon="5.52804">
        <ele>876.7</ele>
        <time>2023-03-20T13:12:24Z</time>
      </trkpt>
      <trkpt lat="44.39093" lon="5.52806">
        <ele>876.9</ele>
        <time>2023-03-20T13:12:25Z</time>
      </trkpt>
      <trkpt lat="44.39087" lon="5.52808">
        <ele>877.1</ele>
        <time>2023-03-20T13:12:26Z</time>
      </trkpt>
      <trkpt lat="44.39082" lon="5.52809">
        <ele>877.4</ele>
        <time>2023-03-20T13:12:27Z</time>
      </trkpt>
      <trkpt lat="44.39076" lon="5.5281">
        <ele>877.7</ele>
        <time>2023-03-20T13:12:28Z</time>
      </trkpt>
      <trkpt lat="44.3907" lon="5.52811">
        <ele>878</ele>
        <time>2023-03-20T13:12:29Z</time>
      </trkpt>
      <trkpt lat="44.39064" lon="5.52811">
        <ele>878.3</ele>
        <time>2023-03-20T13:12:30Z</time>
      </trkpt>
      <trkpt lat="44.39058" lon="5.52811">
        <ele>878.6</ele>
        <time>2023-03-20T13:12:31Z</time>
      </trkpt>
      <trkpt lat="44.39053" lon="5.52811">
        <ele>878.9</ele>
        <time>2023-03-20T13:12:32Z</time>
      </trkpt>
      <trkpt lat="44.39047" lon="5.52809">
        <ele>879.2</ele>
        <time>2023-03-20T13:12:33Z</time>
      </trkpt>
      <trkpt lat="44.39041" lon="5.52808">
        <ele>879.5</ele>
        <time>2023-03-20T13:12:34Z</time>
      </trkpt>
      <trkpt lat="44.39035" lon="5.52806">
        <ele>879.9</ele>
        <time>2023-03-20T13:12:35Z</time>
      </trkpt>
      <trkpt lat="44.39028" lon="5.52805">
        <ele>880.3</ele>
        <time>2023-03-20T13:12:36Z</time>
      </trkpt>
      <trkpt lat="44.39022" lon="5.52805">
        <ele>880.6</ele>
        <time>2023-03-20T13:12:37Z</time>
      </trkpt>
      <trkpt lat="44.39015" lon="5.52803">
        <ele>880.9</ele>
        <time>2023-03-20T13:12:38Z</time>
      </trkpt>
      <trkpt lat="44.39009" lon="5.52802">
        <ele>881.2</ele>
        <time>2023-03-20T13:12:39Z</time>
      </trkpt>
      <trkpt lat="44.39003" lon="5.52801">
        <ele>881.3</ele>
        <time>2023-03-20T13:12:40Z</time>
      </trkpt>
      <trkpt lat="44.38998" lon="5.528">
        <ele>881.5</ele>
        <time>2023-03-20T13:12:41Z</time>
      </trkpt>
      <trkpt lat="44.38993" lon="5.52798">
        <ele>881.7</ele>
        <time>2023-03-20T13:12:42Z</time>
      </trkpt>
      <trkpt lat="44.38987" lon="5.52796">
        <ele>882</ele>
        <time>2023-03-20T13:12:43Z</time>
      </trkpt>
      <trkpt lat="44.38981" lon="5.52794">
        <ele>882.2</ele>
        <time>2023-03-20T13:12:44Z</time>
      </trkpt>
      <trkpt lat="44.38975" lon="5.52793">
        <ele>882.5</ele>
        <time>2023-03-20T13:12:45Z</time>
      </trkpt>
      <trkpt lat="44.38969" lon="5.52793">
        <ele>882.8</ele>
        <time>2023-03-20T13:12:46Z</time>
      </trkpt>
      <trkpt lat="44.38963" lon="5.52792">
        <ele>883</ele>
        <time>2023-03-20T13:12:47Z</time>
      </trkpt>
      <trkpt lat="44.38957" lon="5.52792">
        <ele>883.1</ele>
        <time>2023-03-20T13:12:48Z</time>
      </trkpt>
      <trkpt lat="44.38951" lon="5.52791">
        <ele>883.1</ele>
        <time>2023-03-20T13:12:49Z</time>
      </trkpt>
      <trkpt lat="44.38945" lon="5.52789">
        <ele>883.1</ele>
        <time>2023-03-20T13:12:50Z</time>
      </trkpt>
      <trkpt lat="44.38939" lon="5.52788">
        <ele>883.1</ele>
        <time>2023-03-20T13:12:51Z</time>
      </trkpt>
      <trkpt lat="44.38933" lon="5.52787">
        <ele>883</ele>
        <time>2023-03-20T13:12:52Z</time>
      </trkpt>
      <trkpt lat="44.38927" lon="5.52786">
        <ele>882.9</ele>
        <time>2023-03-20T13:12:53Z</time>
      </trkpt>
      <trkpt lat="44.38921" lon="5.52785">
        <ele>882.8</ele>
        <time>2023-03-20T13:12:54Z</time>
      </trkpt>
      <trkpt lat="44.38916" lon="5.52784">
        <ele>882.7</ele>
        <time>2023-03-20T13:12:55Z</time>
      </trkpt>
      <trkpt lat="44.38911" lon="5.52782">
        <ele>882.5</ele>
        <time>2023-03-20T13:12:56Z</time>
      </trkpt>
      <trkpt lat="44.38906" lon="5.52781">
        <ele>882.3</ele>
        <time>2023-03-20T13:12:57Z</time>
      </trkpt>
      <trkpt lat="44.389" lon="5.5278">
        <ele>882</ele>
        <time>2023-03-20T13:12:58Z</time>
      </trkpt>
      <trkpt lat="44.38895" lon="5.5278">
        <ele>881.8</ele>
        <time>2023-03-20T13:12:59Z</time>
      </trkpt>
      <trkpt lat="44.38889" lon="5.52779">
        <ele>881.5</ele>
        <time>2023-03-20T13:13:00Z</time>
      </trkpt>
      <trkpt lat="44.38884" lon="5.52777">
        <ele>881.2</ele>
        <time>2023-03-20T13:13:01Z</time>
      </trkpt>
      <trkpt lat="44.38879" lon="5.52776">
        <ele>881</ele>
        <time>2023-03-20T13:13:02Z</time>
      </trkpt>
      <trkpt lat="44.38873" lon="5.52774">
        <ele>880.7</ele>
        <time>2023-03-20T13:13:03Z</time>
      </trkpt>
      <trkpt lat="44.38868" lon="5.52773">
        <ele>880.4</ele>
        <time>2023-03-20T13:13:04Z</time>
      </trkpt>
      <trkpt lat="44.38862" lon="5.52772">
        <ele>880.1</ele>
        <time>2023-03-20T13:13:05Z</time>
      </trkpt>
      <trkpt lat="44.38857" lon="5.52771">
        <ele>879.8</ele>
        <time>2023-03-20T13:13:06Z</time>
      </trkpt>
      <trkpt lat="44.38851" lon="5.5277">
        <ele>879.4</ele>
        <time>2023-03-20T13:13:07Z</time>
      </trkpt>
      <trkpt lat="44.38844" lon="5.52769">
        <ele>879</ele>
        <time>2023-03-20T13:13:08Z</time>
      </trkpt>
      <trkpt lat="44.38838" lon="5.52768">
        <ele>878.5</ele>
        <time>2023-03-20T13:13:09Z</time>
      </trkpt>
      <trkpt lat="44.38831" lon="5.52766">
        <ele>878</ele>
        <time>2023-03-20T13:13:10Z</time>
      </trkpt>
      <trkpt lat="44.38824" lon="5.52764">
        <ele>877.5</ele>
        <time>2023-03-20T13:13:11Z</time>
      </trkpt>
      <trkpt lat="44.38817" lon="5.52763">
        <ele>877</ele>
        <time>2023-03-20T13:13:12Z</time>
      </trkpt>
      <trkpt lat="44.3881" lon="5.52761">
        <ele>876.5</ele>
        <time>2023-03-20T13:13:13Z</time>
      </trkpt>
      <trkpt lat="44.38803" lon="5.5276">
        <ele>876</ele>
        <time>2023-03-20T13:13:14Z</time>
      </trkpt>
      <trkpt lat="44.38795" lon="5.52759">
        <ele>875.5</ele>
        <time>2023-03-20T13:13:15Z</time>
      </trkpt>
      <trkpt lat="44.38788" lon="5.52758">
        <ele>875</ele>
        <time>2023-03-20T13:13:16Z</time>
      </trkpt>
      <trkpt lat="44.3878" lon="5.52757">
        <ele>874.5</ele>
        <time>2023-03-20T13:13:17Z</time>
      </trkpt>
      <trkpt lat="44.38772" lon="5.52756">
        <ele>874</ele>
        <time>2023-03-20T13:13:18Z</time>
      </trkpt>
      <trkpt lat="44.38765" lon="5.52756">
        <ele>873.6</ele>
        <time>2023-03-20T13:13:19Z</time>
      </trkpt>
      <trkpt lat="44.38757" lon="5.52756">
        <ele>873.2</ele>
        <time>2023-03-20T13:13:20Z</time>
      </trkpt>
      <trkpt lat="44.38749" lon="5.52756">
        <ele>872.8</ele>
        <time>2023-03-20T13:13:21Z</time>
      </trkpt>
      <trkpt lat="44.38742" lon="5.52757">
        <ele>872.4</ele>
        <time>2023-03-20T13:13:22Z</time>
      </trkpt>
      <trkpt lat="44.38734" lon="5.52759">
        <ele>872</ele>
        <time>2023-03-20T13:13:23Z</time>
      </trkpt>
      <trkpt lat="44.38726" lon="5.52759">
        <ele>871.6</ele>
        <time>2023-03-20T13:13:24Z</time>
      </trkpt>
      <trkpt lat="44.38718" lon="5.52759">
        <ele>871.2</ele>
        <time>2023-03-20T13:13:25Z</time>
      </trkpt>
      <trkpt lat="44.38711" lon="5.52757">
        <ele>870.8</ele>
        <time>2023-03-20T13:13:26Z</time>
      </trkpt>
      <trkpt lat="44.38703" lon="5.52755">
        <ele>870.5</ele>
        <time>2023-03-20T13:13:27Z</time>
      </trkpt>
      <trkpt lat="44.38695" lon="5.52753">
        <ele>870.1</ele>
        <time>2023-03-20T13:13:28Z</time>
      </trkpt>
      <trkpt lat="44.38687" lon="5.52751">
        <ele>869.7</ele>
        <time>2023-03-20T13:13:29Z</time>
      </trkpt>
      <trkpt lat="44.3868" lon="5.52748">
        <ele>869.3</ele>
        <time>2023-03-20T13:13:30Z</time>
      </trkpt>
      <trkpt lat="44.38672" lon="5.52745">
        <ele>868.9</ele>
        <time>2023-03-20T13:13:31Z</time>
      </trkpt>
      <trkpt lat="44.38665" lon="5.52742">
        <ele>868.5</ele>
        <time>2023-03-20T13:13:32Z</time>
      </trkpt>
      <trkpt lat="44.38658" lon="5.52739">
        <ele>868</ele>
        <time>2023-03-20T13:13:33Z</time>
      </trkpt>
      <trkpt lat="44.3865" lon="5.52736">
        <ele>867.4</ele>
        <time>2023-03-20T13:13:34Z</time>
      </trkpt>
      <trkpt lat="44.38643" lon="5.52733">
        <ele>866.7</ele>
        <time>2023-03-20T13:13:35Z</time>
      </trkpt>
      <trkpt lat="44.38635" lon="5.5273">
        <ele>866.1</ele>
        <time>2023-03-20T13:13:36Z</time>
      </trkpt>
      <trkpt lat="44.38628" lon="5.52726">
        <ele>865.4</ele>
        <time>2023-03-20T13:13:37Z</time>
      </trkpt>
      <trkpt lat="44.3862" lon="5.52722">
        <ele>864.7</ele>
        <time>2023-03-20T13:13:38Z</time>
      </trkpt>
      <trkpt lat="44.38613" lon="5.52717">
        <ele>864</ele>
        <time>2023-03-20T13:13:39Z</time>
      </trkpt>
      <trkpt lat="44.38605" lon="5.52712">
        <ele>863.3</ele>
        <time>2023-03-20T13:13:40Z</time>
      </trkpt>
      <trkpt lat="44.38597" lon="5.52706">
        <ele>862.6</ele>
        <time>2023-03-20T13:13:41Z</time>
      </trkpt>
      <trkpt lat="44.38589" lon="5.52701">
        <ele>862</ele>
        <time>2023-03-20T13:13:42Z</time>
      </trkpt>
      <trkpt lat="44.3858" lon="5.52695">
        <ele>861.4</ele>
        <time>2023-03-20T13:13:43Z</time>
      </trkpt>
      <trkpt lat="44.38572" lon="5.52689">
        <ele>860.8</ele>
        <time>2023-03-20T13:13:44Z</time>
      </trkpt>
      <trkpt lat="44.38556" lon="5.52676">
        <ele>859.6</ele>
        <time>2023-03-20T13:13:46Z</time>
      </trkpt>
      <trkpt lat="44.38549" lon="5.52667">
        <ele>858.9</ele>
        <time>2023-03-20T13:13:47Z</time>
      </trkpt>
      <trkpt lat="44.38544" lon="5.52658">
        <ele>858.3</ele>
        <time>2023-03-20T13:13:48Z</time>
      </trkpt>
      <trkpt lat="44.38539" lon="5.52648">
        <ele>857.8</ele>
        <time>2023-03-20T13:13:49Z</time>
      </trkpt>
      <trkpt lat="44.38534" lon="5.52637">
        <ele>857.2</ele>
        <time>2023-03-20T13:13:50Z</time>
      </trkpt>
      <trkpt lat="44.3853" lon="5.52626">
        <ele>856.6</ele>
        <time>2023-03-20T13:13:51Z</time>
      </trkpt>
      <trkpt lat="44.38526" lon="5.52614">
        <ele>856</ele>
        <time>2023-03-20T13:13:52Z</time>
      </trkpt>
      <trkpt lat="44.3852" lon="5.52603">
        <ele>855.3</ele>
        <time>2023-03-20T13:13:53Z</time>
      </trkpt>
      <trkpt lat="44.38514" lon="5.52594">
        <ele>854.6</ele>
        <time>2023-03-20T13:13:54Z</time>
      </trkpt>
      <trkpt lat="44.38506" lon="5.52586">
        <ele>853.8</ele>
        <time>2023-03-20T13:13:55Z</time>
      </trkpt>
      <trkpt lat="44.38498" lon="5.52579">
        <ele>853.1</ele>
        <time>2023-03-20T13:13:56Z</time>
      </trkpt>
      <trkpt lat="44.3849" lon="5.52573">
        <ele>852.4</ele>
        <time>2023-03-20T13:13:57Z</time>
      </trkpt>
      <trkpt lat="44.38481" lon="5.52565">
        <ele>851.7</ele>
        <time>2023-03-20T13:13:58Z</time>
      </trkpt>
      <trkpt lat="44.38473" lon="5.52558">
        <ele>851</ele>
        <time>2023-03-20T13:13:59Z</time>
      </trkpt>
      <trkpt lat="44.38465" lon="5.5255">
        <ele>850.3</ele>
        <time>2023-03-20T13:14:00Z</time>
      </trkpt>
      <trkpt lat="44.38457" lon="5.52542">
        <ele>849.5</ele>
        <time>2023-03-20T13:14:01Z</time>
      </trkpt>
      <trkpt lat="44.38448" lon="5.52534">
        <ele>848.8</ele>
        <time>2023-03-20T13:14:02Z</time>
      </trkpt>
      <trkpt lat="44.3844" lon="5.52526">
        <ele>848.1</ele>
        <time>2023-03-20T13:14:03Z</time>
      </trkpt>
      <trkpt lat="44.38431" lon="5.52518">
        <ele>847.4</ele>
        <time>2023-03-20T13:14:04Z</time>
      </trkpt>
      <trkpt lat="44.38424" lon="5.52509">
        <ele>846.7</ele>
        <time>2023-03-20T13:14:05Z</time>
      </trkpt>
      <trkpt lat="44.38416" lon="5.52499">
        <ele>846</ele>
        <time>2023-03-20T13:14:06Z</time>
      </trkpt>
      <trkpt lat="44.38409" lon="5.5249">
        <ele>845.3</ele>
        <time>2023-03-20T13:14:07Z</time>
      </trkpt>
      <trkpt lat="44.38401" lon="5.52479">
        <ele>844.6</ele>
        <time>2023-03-20T13:14:08Z</time>
      </trkpt>
      <trkpt lat="44.38394" lon="5.52469">
        <ele>843.7</ele>
        <time>2023-03-20T13:14:09Z</time>
      </trkpt>
      <trkpt lat="44.38388" lon="5.52458">
        <ele>842.9</ele>
        <time>2023-03-20T13:14:10Z</time>
      </trkpt>
      <trkpt lat="44.38381" lon="5.52447">
        <ele>842</ele>
        <time>2023-03-20T13:14:11Z</time>
      </trkpt>
      <trkpt lat="44.38374" lon="5.52435">
        <ele>841</ele>
        <time>2023-03-20T13:14:12Z</time>
      </trkpt>
      <trkpt lat="44.38367" lon="5.52424">
        <ele>840.1</ele>
        <time>2023-03-20T13:14:13Z</time>
      </trkpt>
      <trkpt lat="44.38359" lon="5.52413">
        <ele>839.1</ele>
        <time>2023-03-20T13:14:14Z</time>
      </trkpt>
      <trkpt lat="44.38351" lon="5.52402">
        <ele>838.2</ele>
        <time>2023-03-20T13:14:15Z</time>
      </trkpt>
      <trkpt lat="44.38343" lon="5.52393">
        <ele>837.3</ele>
        <time>2023-03-20T13:14:16Z</time>
      </trkpt>
      <trkpt lat="44.38334" lon="5.52384">
        <ele>836.4</ele>
        <time>2023-03-20T13:14:17Z</time>
      </trkpt>
      <trkpt lat="44.38325" lon="5.52375">
        <ele>835.4</ele>
        <time>2023-03-20T13:14:18Z</time>
      </trkpt>
      <trkpt lat="44.38316" lon="5.52365">
        <ele>834.5</ele>
        <time>2023-03-20T13:14:19Z</time>
      </trkpt>
      <trkpt lat="44.38309" lon="5.52354">
        <ele>833.6</ele>
        <time>2023-03-20T13:14:20Z</time>
      </trkpt>
      <trkpt lat="44.38302" lon="5.52341">
        <ele>832.6</ele>
        <time>2023-03-20T13:14:21Z</time>
      </trkpt>
      <trkpt lat="44.38296" lon="5.52329">
        <ele>831.6</ele>
        <time>2023-03-20T13:14:22Z</time>
      </trkpt>
      <trkpt lat="44.3829" lon="5.52316">
        <ele>830.6</ele>
        <time>2023-03-20T13:14:23Z</time>
      </trkpt>
      <trkpt lat="44.38283" lon="5.52303">
        <ele>829.5</ele>
        <time>2023-03-20T13:14:24Z</time>
      </trkpt>
      <trkpt lat="44.38276" lon="5.52291">
        <ele>828.5</ele>
        <time>2023-03-20T13:14:25Z</time>
      </trkpt>
      <trkpt lat="44.3827" lon="5.52277">
        <ele>827.5</ele>
        <time>2023-03-20T13:14:26Z</time>
      </trkpt>
      <trkpt lat="44.38263" lon="5.52263">
        <ele>826.4</ele>
        <time>2023-03-20T13:14:27Z</time>
      </trkpt>
      <trkpt lat="44.38256" lon="5.52249">
        <ele>825.5</ele>
        <time>2023-03-20T13:14:28Z</time>
      </trkpt>
      <trkpt lat="44.38249" lon="5.52236">
        <ele>824.5</ele>
        <time>2023-03-20T13:14:29Z</time>
      </trkpt>
      <trkpt lat="44.38242" lon="5.52223">
        <ele>823.6</ele>
        <time>2023-03-20T13:14:30Z</time>
      </trkpt>
      <trkpt lat="44.38237" lon="5.5221">
        <ele>822.6</ele>
        <time>2023-03-20T13:14:31Z</time>
      </trkpt>
      <trkpt lat="44.38231" lon="5.52196">
        <ele>821.7</ele>
        <time>2023-03-20T13:14:32Z</time>
      </trkpt>
      <trkpt lat="44.38227" lon="5.52181">
        <ele>820.7</ele>
        <time>2023-03-20T13:14:33Z</time>
      </trkpt>
      <trkpt lat="44.38223" lon="5.52167">
        <ele>819.7</ele>
        <time>2023-03-20T13:14:34Z</time>
      </trkpt>
      <trkpt lat="44.38219" lon="5.52155">
        <ele>818.8</ele>
        <time>2023-03-20T13:14:35Z</time>
      </trkpt>
      <trkpt lat="44.38215" lon="5.52142">
        <ele>817.9</ele>
        <time>2023-03-20T13:14:36Z</time>
      </trkpt>
      <trkpt lat="44.38211" lon="5.52131">
        <ele>817</ele>
        <time>2023-03-20T13:14:37Z</time>
      </trkpt>
      <trkpt lat="44.38206" lon="5.52122">
        <ele>816.1</ele>
        <time>2023-03-20T13:14:38Z</time>
      </trkpt>
      <trkpt lat="44.38196" lon="5.52117">
        <ele>815.2</ele>
        <time>2023-03-20T13:14:39Z</time>
      </trkpt>
      <trkpt lat="44.38185" lon="5.52118">
        <ele>814</ele>
        <time>2023-03-20T13:14:40Z</time>
      </trkpt>
      <trkpt lat="44.38176" lon="5.52123">
        <ele>813.1</ele>
        <time>2023-03-20T13:14:41Z</time>
      </trkpt>
      <trkpt lat="44.38168" lon="5.52133">
        <ele>812.1</ele>
        <time>2023-03-20T13:14:42Z</time>
      </trkpt>
      <trkpt lat="44.38159" lon="5.52139">
        <ele>811.2</ele>
        <time>2023-03-20T13:14:43Z</time>
      </trkpt>
      <trkpt lat="44.3815" lon="5.52139">
        <ele>810.4</ele>
        <time>2023-03-20T13:14:44Z</time>
      </trkpt>
      <trkpt lat="44.38141" lon="5.52132">
        <ele>809.5</ele>
        <time>2023-03-20T13:14:45Z</time>
      </trkpt>
      <trkpt lat="44.38133" lon="5.52121">
        <ele>808.6</ele>
        <time>2023-03-20T13:14:46Z</time>
      </trkpt>
      <trkpt lat="44.38127" lon="5.52107">
        <ele>807.7</ele>
        <time>2023-03-20T13:14:47Z</time>
      </trkpt>
      <trkpt lat="44.38123" lon="5.52093">
        <ele>806.7</ele>
        <time>2023-03-20T13:14:48Z</time>
      </trkpt>
      <trkpt lat="44.38122" lon="5.52078">
        <ele>805.8</ele>
        <time>2023-03-20T13:14:49Z</time>
      </trkpt>
      <trkpt lat="44.38125" lon="5.52064">
        <ele>804.9</ele>
        <time>2023-03-20T13:14:50Z</time>
      </trkpt>
      <trkpt lat="44.3813" lon="5.5205">
        <ele>803.9</ele>
        <time>2023-03-20T13:14:51Z</time>
      </trkpt>
      <trkpt lat="44.38135" lon="5.52035">
        <ele>802.9</ele>
        <time>2023-03-20T13:14:52Z</time>
      </trkpt>
      <trkpt lat="44.38141" lon="5.5202">
        <ele>801.9</ele>
        <time>2023-03-20T13:14:53Z</time>
      </trkpt>
      <trkpt lat="44.38145" lon="5.52004">
        <ele>800.9</ele>
        <time>2023-03-20T13:14:54Z</time>
      </trkpt>
      <trkpt lat="44.38148" lon="5.51987">
        <ele>800</ele>
        <time>2023-03-20T13:14:55Z</time>
      </trkpt>
      <trkpt lat="44.38151" lon="5.51972">
        <ele>799.2</ele>
        <time>2023-03-20T13:14:56Z</time>
      </trkpt>
      <trkpt lat="44.38157" lon="5.51961">
        <ele>798.5</ele>
        <time>2023-03-20T13:14:57Z</time>
      </trkpt>
      <trkpt lat="44.38166" lon="5.51956">
        <ele>797.7</ele>
        <time>2023-03-20T13:14:58Z</time>
      </trkpt>
      <trkpt lat="44.38176" lon="5.51954">
        <ele>796.7</ele>
        <time>2023-03-20T13:14:59Z</time>
      </trkpt>
      <trkpt lat="44.38185" lon="5.51952">
        <ele>795.9</ele>
        <time>2023-03-20T13:15:00Z</time>
      </trkpt>
      <trkpt lat="44.3819" lon="5.51947">
        <ele>795.3</ele>
        <time>2023-03-20T13:15:01Z</time>
      </trkpt>
      <trkpt lat="44.3819" lon="5.51937">
        <ele>794.6</ele>
        <time>2023-03-20T13:15:02Z</time>
      </trkpt>
      <trkpt lat="44.38185" lon="5.51927">
        <ele>793.7</ele>
        <time>2023-03-20T13:15:03Z</time>
      </trkpt>
      <trkpt lat="44.38177" lon="5.5192">
        <ele>792.9</ele>
        <time>2023-03-20T13:15:04Z</time>
      </trkpt>
      <trkpt lat="44.38168" lon="5.51917">
        <ele>792</ele>
        <time>2023-03-20T13:15:05Z</time>
      </trkpt>
      <trkpt lat="44.3816" lon="5.51914">
        <ele>791.3</ele>
        <time>2023-03-20T13:15:06Z</time>
      </trkpt>
      <trkpt lat="44.38154" lon="5.51911">
        <ele>790.7</ele>
        <time>2023-03-20T13:15:07Z</time>
      </trkpt>
      <trkpt lat="44.38147" lon="5.51909">
        <ele>790.1</ele>
        <time>2023-03-20T13:15:08Z</time>
      </trkpt>
      <trkpt lat="44.3814" lon="5.51907">
        <ele>789.4</ele>
        <time>2023-03-20T13:15:09Z</time>
      </trkpt>
      <trkpt lat="44.38131" lon="5.51905">
        <ele>788.6</ele>
        <time>2023-03-20T13:15:10Z</time>
      </trkpt>
      <trkpt lat="44.38121" lon="5.51903">
        <ele>787.7</ele>
        <time>2023-03-20T13:15:11Z</time>
      </trkpt>
      <trkpt lat="44.38111" lon="5.51903">
        <ele>786.7</ele>
        <time>2023-03-20T13:15:12Z</time>
      </trkpt>
      <trkpt lat="44.381" lon="5.51903">
        <ele>785.6</ele>
        <time>2023-03-20T13:15:13Z</time>
      </trkpt>
      <trkpt lat="44.3809" lon="5.51905">
        <ele>784.7</ele>
        <time>2023-03-20T13:15:14Z</time>
      </trkpt>
      <trkpt lat="44.3808" lon="5.51909">
        <ele>783.7</ele>
        <time>2023-03-20T13:15:15Z</time>
      </trkpt>
      <trkpt lat="44.3807" lon="5.51913">
        <ele>782.8</ele>
        <time>2023-03-20T13:15:16Z</time>
      </trkpt>
      <trkpt lat="44.38059" lon="5.51918">
        <ele>781.8</ele>
        <time>2023-03-20T13:15:17Z</time>
      </trkpt>
      <trkpt lat="44.38048" lon="5.51922">
        <ele>780.8</ele>
        <time>2023-03-20T13:15:18Z</time>
      </trkpt>
      <trkpt lat="44.38037" lon="5.51926">
        <ele>779.6</ele>
        <time>2023-03-20T13:15:19Z</time>
      </trkpt>
      <trkpt lat="44.38026" lon="5.51929">
        <ele>778.5</ele>
        <time>2023-03-20T13:15:20Z</time>
      </trkpt>
      <trkpt lat="44.38015" lon="5.51931">
        <ele>777.4</ele>
        <time>2023-03-20T13:15:21Z</time>
      </trkpt>
      <trkpt lat="44.38004" lon="5.51932">
        <ele>776.4</ele>
        <time>2023-03-20T13:15:22Z</time>
      </trkpt>
      <trkpt lat="44.37993" lon="5.51934">
        <ele>775.4</ele>
        <time>2023-03-20T13:15:23Z</time>
      </trkpt>
      <trkpt lat="44.37981" lon="5.51935">
        <ele>774.3</ele>
        <time>2023-03-20T13:15:24Z</time>
      </trkpt>
      <trkpt lat="44.3797" lon="5.51936">
        <ele>773.3</ele>
        <time>2023-03-20T13:15:25Z</time>
      </trkpt>
      <trkpt lat="44.37958" lon="5.51937">
        <ele>772.2</ele>
        <time>2023-03-20T13:15:26Z</time>
      </trkpt>
      <trkpt lat="44.37948" lon="5.51938">
        <ele>771.2</ele>
        <time>2023-03-20T13:15:27Z</time>
      </trkpt>
      <trkpt lat="44.37936" lon="5.51939">
        <ele>770.1</ele>
        <time>2023-03-20T13:15:28Z</time>
      </trkpt>
      <trkpt lat="44.37925" lon="5.51941">
        <ele>769</ele>
        <time>2023-03-20T13:15:29Z</time>
      </trkpt>
      <trkpt lat="44.37913" lon="5.51943">
        <ele>768</ele>
        <time>2023-03-20T13:15:30Z</time>
      </trkpt>
      <trkpt lat="44.37902" lon="5.51945">
        <ele>767</ele>
        <time>2023-03-20T13:15:31Z</time>
      </trkpt>
      <trkpt lat="44.3789" lon="5.51947">
        <ele>766</ele>
        <time>2023-03-20T13:15:32Z</time>
      </trkpt>
      <trkpt lat="44.3788" lon="5.51948">
        <ele>765.2</ele>
        <time>2023-03-20T13:15:33Z</time>
      </trkpt>
      <trkpt lat="44.37868" lon="5.5195">
        <ele>764.2</ele>
        <time>2023-03-20T13:15:34Z</time>
      </trkpt>
      <trkpt lat="44.37856" lon="5.51953">
        <ele>763.3</ele>
        <time>2023-03-20T13:15:35Z</time>
      </trkpt>
      <trkpt lat="44.37844" lon="5.51955">
        <ele>762.4</ele>
        <time>2023-03-20T13:15:36Z</time>
      </trkpt>
      <trkpt lat="44.37833" lon="5.51958">
        <ele>761.5</ele>
        <time>2023-03-20T13:15:37Z</time>
      </trkpt>
      <trkpt lat="44.37821" lon="5.51962">
        <ele>760.4</ele>
        <time>2023-03-20T13:15:38Z</time>
      </trkpt>
      <trkpt lat="44.37811" lon="5.51965">
        <ele>759.4</ele>
        <time>2023-03-20T13:15:39Z</time>
      </trkpt>
      <trkpt lat="44.37801" lon="5.51969">
        <ele>758.5</ele>
        <time>2023-03-20T13:15:40Z</time>
      </trkpt>
      <trkpt lat="44.37794" lon="5.51976">
        <ele>757.6</ele>
        <time>2023-03-20T13:15:41Z</time>
      </trkpt>
      <trkpt lat="44.37787" lon="5.51985">
        <ele>756.8</ele>
        <time>2023-03-20T13:15:42Z</time>
      </trkpt>
      <trkpt lat="44.3778" lon="5.51994">
        <ele>755.9</ele>
        <time>2023-03-20T13:15:43Z</time>
      </trkpt>
      <trkpt lat="44.37774" lon="5.51999">
        <ele>755.1</ele>
        <time>2023-03-20T13:15:44Z</time>
      </trkpt>
      <trkpt lat="44.37768" lon="5.52">
        <ele>754.4</ele>
        <time>2023-03-20T13:15:45Z</time>
      </trkpt>
      <trkpt lat="44.37763" lon="5.51993">
        <ele>753.7</ele>
        <time>2023-03-20T13:15:46Z</time>
      </trkpt>
      <trkpt lat="44.37762" lon="5.51981">
        <ele>752.7</ele>
        <time>2023-03-20T13:15:47Z</time>
      </trkpt>
      <trkpt lat="44.37763" lon="5.5197">
        <ele>751.8</ele>
        <time>2023-03-20T13:15:48Z</time>
      </trkpt>
      <trkpt lat="44.37767" lon="5.51959">
        <ele>750.9</ele>
        <time>2023-03-20T13:15:49Z</time>
      </trkpt>
      <trkpt lat="44.3777" lon="5.51948">
        <ele>750.1</ele>
        <time>2023-03-20T13:15:50Z</time>
      </trkpt>
      <trkpt lat="44.37772" lon="5.51938">
        <ele>749.4</ele>
        <time>2023-03-20T13:15:51Z</time>
      </trkpt>
      <trkpt lat="44.37774" lon="5.51928">
        <ele>748.9</ele>
        <time>2023-03-20T13:15:52Z</time>
      </trkpt>
      <trkpt lat="44.37775" lon="5.51917">
        <ele>748.2</ele>
        <time>2023-03-20T13:15:53Z</time>
      </trkpt>
      <trkpt lat="44.37775" lon="5.51905">
        <ele>747.6</ele>
        <time>2023-03-20T13:15:54Z</time>
      </trkpt>
      <trkpt lat="44.37776" lon="5.51892">
        <ele>746.9</ele>
        <time>2023-03-20T13:15:55Z</time>
      </trkpt>
      <trkpt lat="44.37776" lon="5.51879">
        <ele>746.4</ele>
        <time>2023-03-20T13:15:56Z</time>
      </trkpt>
      <trkpt lat="44.37777" lon="5.51866">
        <ele>745.9</ele>
        <time>2023-03-20T13:15:57Z</time>
      </trkpt>
      <trkpt lat="44.37777" lon="5.51853">
        <ele>745.4</ele>
        <time>2023-03-20T13:15:58Z</time>
      </trkpt>
      <trkpt lat="44.37778" lon="5.5184">
        <ele>745</ele>
        <time>2023-03-20T13:15:59Z</time>
      </trkpt>
      <trkpt lat="44.37778" lon="5.51828">
        <ele>744.6</ele>
        <time>2023-03-20T13:16:00Z</time>
      </trkpt>
      <trkpt lat="44.37777" lon="5.51817">
        <ele>744.3</ele>
        <time>2023-03-20T13:16:01Z</time>
      </trkpt>
      <trkpt lat="44.37775" lon="5.51805">
        <ele>744</ele>
        <time>2023-03-20T13:16:02Z</time>
      </trkpt>
      <trkpt lat="44.37773" lon="5.51793">
        <ele>743.7</ele>
        <time>2023-03-20T13:16:03Z</time>
      </trkpt>
      <trkpt lat="44.3777" lon="5.51782">
        <ele>743.4</ele>
        <time>2023-03-20T13:16:04Z</time>
      </trkpt>
      <trkpt lat="44.37767" lon="5.51772">
        <ele>743.2</ele>
        <time>2023-03-20T13:16:05Z</time>
      </trkpt>
      <trkpt lat="44.37762" lon="5.51762">
        <ele>742.9</ele>
        <time>2023-03-20T13:16:06Z</time>
      </trkpt>
      <trkpt lat="44.37758" lon="5.51754">
        <ele>742.6</ele>
        <time>2023-03-20T13:16:07Z</time>
      </trkpt>
      <trkpt lat="44.37753" lon="5.51746">
        <ele>742.3</ele>
        <time>2023-03-20T13:16:08Z</time>
      </trkpt>
      <trkpt lat="44.37748" lon="5.51737">
        <ele>741.9</ele>
        <time>2023-03-20T13:16:09Z</time>
      </trkpt>
      <trkpt lat="44.37744" lon="5.51729">
        <ele>741.5</ele>
        <time>2023-03-20T13:16:10Z</time>
      </trkpt>
      <trkpt lat="44.3774" lon="5.5172">
        <ele>741.1</ele>
        <time>2023-03-20T13:16:11Z</time>
      </trkpt>
      <trkpt lat="44.37738" lon="5.5171">
        <ele>740.5</ele>
        <time>2023-03-20T13:16:12Z</time>
      </trkpt>
      <trkpt lat="44.37736" lon="5.51699">
        <ele>739.9</ele>
        <time>2023-03-20T13:16:13Z</time>
      </trkpt>
      <trkpt lat="44.37735" lon="5.51687">
        <ele>739.3</ele>
        <time>2023-03-20T13:16:14Z</time>
      </trkpt>
      <trkpt lat="44.37736" lon="5.51675">
        <ele>738.7</ele>
        <time>2023-03-20T13:16:15Z</time>
      </trkpt>
      <trkpt lat="44.37738" lon="5.51663">
        <ele>738.1</ele>
        <time>2023-03-20T13:16:16Z</time>
      </trkpt>
      <trkpt lat="44.37742" lon="5.51652">
        <ele>737.6</ele>
        <time>2023-03-20T13:16:17Z</time>
      </trkpt>
      <trkpt lat="44.37749" lon="5.51641">
        <ele>737.1</ele>
        <time>2023-03-20T13:16:18Z</time>
      </trkpt>
      <trkpt lat="44.37755" lon="5.5163">
        <ele>736.7</ele>
        <time>2023-03-20T13:16:19Z</time>
      </trkpt>
      <trkpt lat="44.37759" lon="5.51619">
        <ele>736.5</ele>
        <time>2023-03-20T13:16:20Z</time>
      </trkpt>
      <trkpt lat="44.37762" lon="5.51608">
        <ele>736.3</ele>
        <time>2023-03-20T13:16:21Z</time>
      </trkpt>
      <trkpt lat="44.37765" lon="5.51598">
        <ele>736.1</ele>
        <time>2023-03-20T13:16:22Z</time>
      </trkpt>
      <trkpt lat="44.37767" lon="5.51589">
        <ele>736</ele>
        <time>2023-03-20T13:16:23Z</time>
      </trkpt>
      <trkpt lat="44.37769" lon="5.51579">
        <ele>735.8</ele>
        <time>2023-03-20T13:16:24Z</time>
      </trkpt>
      <trkpt lat="44.37771" lon="5.5157">
        <ele>735.7</ele>
        <time>2023-03-20T13:16:25Z</time>
      </trkpt>
      <trkpt lat="44.37772" lon="5.5156">
        <ele>735.6</ele>
        <time>2023-03-20T13:16:26Z</time>
      </trkpt>
      <trkpt lat="44.37773" lon="5.51551">
        <ele>735.6</ele>
        <time>2023-03-20T13:16:27Z</time>
      </trkpt>
      <trkpt lat="44.37773" lon="5.51542">
        <ele>735.5</ele>
        <time>2023-03-20T13:16:28Z</time>
      </trkpt>
      <trkpt lat="44.37771" lon="5.51534">
        <ele>735.5</ele>
        <time>2023-03-20T13:16:29Z</time>
      </trkpt>
      <trkpt lat="44.37767" lon="5.51527">
        <ele>735.2</ele>
        <time>2023-03-20T13:16:30Z</time>
      </trkpt>
      <trkpt lat="44.37762" lon="5.51521">
        <ele>734.9</ele>
        <time>2023-03-20T13:16:31Z</time>
      </trkpt>
      <trkpt lat="44.37757" lon="5.51517">
        <ele>734.7</ele>
        <time>2023-03-20T13:16:32Z</time>
      </trkpt>
      <trkpt lat="44.37752" lon="5.51512">
        <ele>734.5</ele>
        <time>2023-03-20T13:16:33Z</time>
      </trkpt>
      <trkpt lat="44.37747" lon="5.51507">
        <ele>734.3</ele>
        <time>2023-03-20T13:16:34Z</time>
      </trkpt>
      <trkpt lat="44.37742" lon="5.51503">
        <ele>734.1</ele>
        <time>2023-03-20T13:16:35Z</time>
      </trkpt>
      <trkpt lat="44.37737" lon="5.51498">
        <ele>733.8</ele>
        <time>2023-03-20T13:16:36Z</time>
      </trkpt>
      <trkpt lat="44.37728" lon="5.51488">
        <ele>733.5</ele>
        <time>2023-03-20T13:16:38Z</time>
      </trkpt>
      <trkpt lat="44.37723" lon="5.51484">
        <ele>733.3</ele>
        <time>2023-03-20T13:16:39Z</time>
      </trkpt>
      <trkpt lat="44.37718" lon="5.51479">
        <ele>733.1</ele>
        <time>2023-03-20T13:16:40Z</time>
      </trkpt>
      <trkpt lat="44.37713" lon="5.51474">
        <ele>732.9</ele>
        <time>2023-03-20T13:16:41Z</time>
      </trkpt>
      <trkpt lat="44.37709" lon="5.5147">
        <ele>732.8</ele>
        <time>2023-03-20T13:16:42Z</time>
      </trkpt>
      <trkpt lat="44.37704" lon="5.51465">
        <ele>732.7</ele>
        <time>2023-03-20T13:16:43Z</time>
      </trkpt>
      <trkpt lat="44.377" lon="5.51461">
        <ele>732.6</ele>
        <time>2023-03-20T13:16:44Z</time>
      </trkpt>
      <trkpt lat="44.37696" lon="5.51456">
        <ele>732.5</ele>
        <time>2023-03-20T13:16:45Z</time>
      </trkpt>
      <trkpt lat="44.37694" lon="5.5145">
        <ele>732.4</ele>
        <time>2023-03-20T13:16:46Z</time>
      </trkpt>
      <trkpt lat="44.37695" lon="5.51444">
        <ele>732.5</ele>
        <time>2023-03-20T13:16:47Z</time>
      </trkpt>
      <trkpt lat="44.37697" lon="5.51439">
        <ele>732.6</ele>
        <time>2023-03-20T13:16:48Z</time>
      </trkpt>
      <trkpt lat="44.37701" lon="5.51432">
        <ele>732.7</ele>
        <time>2023-03-20T13:16:49Z</time>
      </trkpt>
      <trkpt lat="44.37705" lon="5.51427">
        <ele>732.8</ele>
        <time>2023-03-20T13:16:50Z</time>
      </trkpt>
      <trkpt lat="44.37708" lon="5.51422">
        <ele>732.8</ele>
        <time>2023-03-20T13:16:51Z</time>
      </trkpt>
      <trkpt lat="44.3771" lon="5.51417">
        <ele>732.9</ele>
        <time>2023-03-20T13:16:52Z</time>
      </trkpt>
      <trkpt lat="44.37712" lon="5.51412">
        <ele>733</ele>
        <time>2023-03-20T13:16:53Z</time>
      </trkpt>
      <trkpt lat="44.37715" lon="5.51407">
        <ele>733</ele>
        <time>2023-03-20T13:16:54Z</time>
      </trkpt>
      <trkpt lat="44.37717" lon="5.51402">
        <ele>733</ele>
        <time>2023-03-20T13:16:55Z</time>
      </trkpt>
      <trkpt lat="44.37719" lon="5.51398">
        <ele>733.1</ele>
        <time>2023-03-20T13:16:56Z</time>
      </trkpt>
      <trkpt lat="44.37719" lon="5.51394">
        <ele>733.1</ele>
        <time>2023-03-20T13:16:57Z</time>
      </trkpt>
      <trkpt lat="44.37721" lon="5.51391">
        <ele>733.1</ele>
        <time>2023-03-20T13:16:58Z</time>
      </trkpt>
      <trkpt lat="44.37722" lon="5.51387">
        <ele>733.1</ele>
        <time>2023-03-20T13:16:59Z</time>
      </trkpt>
      <trkpt lat="44.37725" lon="5.51383">
        <ele>733.2</ele>
        <time>2023-03-20T13:17:00Z</time>
      </trkpt>
      <trkpt lat="44.37727" lon="5.5138">
        <ele>733.2</ele>
        <time>2023-03-20T13:17:01Z</time>
      </trkpt>
      <trkpt lat="44.37729" lon="5.51376">
        <ele>733.2</ele>
        <time>2023-03-20T13:17:02Z</time>
      </trkpt>
      <trkpt lat="44.37731" lon="5.51372">
        <ele>733.2</ele>
        <time>2023-03-20T13:17:03Z</time>
      </trkpt>
      <trkpt lat="44.37734" lon="5.51368">
        <ele>733.2</ele>
        <time>2023-03-20T13:17:04Z</time>
      </trkpt>
      <trkpt lat="44.37737" lon="5.51365">
        <ele>733.2</ele>
        <time>2023-03-20T13:17:05Z</time>
      </trkpt>
      <trkpt lat="44.3774" lon="5.51362">
        <ele>733.2</ele>
        <time>2023-03-20T13:17:06Z</time>
      </trkpt>
      <trkpt lat="44.37743" lon="5.51359">
        <ele>733.2</ele>
        <time>2023-03-20T13:17:07Z</time>
      </trkpt>
      <trkpt lat="44.37747" lon="5.51356">
        <ele>733.2</ele>
        <time>2023-03-20T13:17:08Z</time>
      </trkpt>
      <trkpt lat="44.37751" lon="5.51354">
        <ele>733.2</ele>
        <time>2023-03-20T13:17:09Z</time>
      </trkpt>
      <trkpt lat="44.37756" lon="5.51352">
        <ele>733.2</ele>
        <time>2023-03-20T13:17:10Z</time>
      </trkpt>
      <trkpt lat="44.37762" lon="5.51348">
        <ele>733.1</ele>
        <time>2023-03-20T13:17:11Z</time>
      </trkpt>
      <trkpt lat="44.37767" lon="5.51339">
        <ele>733</ele>
        <time>2023-03-20T13:17:12Z</time>
      </trkpt>
      <trkpt lat="44.37772" lon="5.5133">
        <ele>732.9</ele>
        <time>2023-03-20T13:17:13Z</time>
      </trkpt>
      <trkpt lat="44.37776" lon="5.51322">
        <ele>732.8</ele>
        <time>2023-03-20T13:17:14Z</time>
      </trkpt>
      <trkpt lat="44.37779" lon="5.51314">
        <ele>732.8</ele>
        <time>2023-03-20T13:17:15Z</time>
      </trkpt>
      <trkpt lat="44.3778" lon="5.51306">
        <ele>732.7</ele>
        <time>2023-03-20T13:17:16Z</time>
      </trkpt>
      <trkpt lat="44.37778" lon="5.51299">
        <ele>732.7</ele>
        <time>2023-03-20T13:17:17Z</time>
      </trkpt>
      <trkpt lat="44.37775" lon="5.51295">
        <ele>732.6</ele>
        <time>2023-03-20T13:17:18Z</time>
      </trkpt>
      <trkpt lat="44.37771" lon="5.51291">
        <ele>732.5</ele>
        <time>2023-03-20T13:17:19Z</time>
      </trkpt>
      <trkpt lat="44.37766" lon="5.51287">
        <ele>732.5</ele>
        <time>2023-03-20T13:17:20Z</time>
      </trkpt>
      <trkpt lat="44.3776" lon="5.51282">
        <ele>732.4</ele>
        <time>2023-03-20T13:17:21Z</time>
      </trkpt>
      <trkpt lat="44.37755" lon="5.51279">
        <ele>732.4</ele>
        <time>2023-03-20T13:17:22Z</time>
      </trkpt>
      <trkpt lat="44.3775" lon="5.51275">
        <ele>732.3</ele>
        <time>2023-03-20T13:17:23Z</time>
      </trkpt>
      <trkpt lat="44.37746" lon="5.51273">
        <ele>732.3</ele>
        <time>2023-03-20T13:17:24Z</time>
      </trkpt>
      <trkpt lat="44.37742" lon="5.51271">
        <ele>732.2</ele>
        <time>2023-03-20T13:17:25Z</time>
      </trkpt>
      <trkpt lat="44.37739" lon="5.5127">
        <ele>732.2</ele>
        <time>2023-03-20T13:17:26Z</time>
      </trkpt>
      <trkpt lat="44.37736" lon="5.5127">
        <ele>732.1</ele>
        <time>2023-03-20T13:17:27Z</time>
      </trkpt>
      <trkpt lat="44.37735" lon="5.51273">
        <ele>732.1</ele>
        <time>2023-03-20T13:17:28Z</time>
      </trkpt>
      <trkpt lat="44.37735" lon="5.51275">
        <ele>732.1</ele>
        <time>2023-03-20T13:17:29Z</time>
      </trkpt>
      <trkpt lat="44.37735" lon="5.51279">
        <ele>732.1</ele>
        <time>2023-03-20T13:17:30Z</time>
      </trkpt>
      <trkpt lat="44.37735" lon="5.51284">
        <ele>732</ele>
        <time>2023-03-20T13:17:31Z</time>
      </trkpt>
      <trkpt lat="44.37736" lon="5.51289">
        <ele>732</ele>
        <time>2023-03-20T13:17:32Z</time>
      </trkpt>
      <trkpt lat="44.37736" lon="5.51294">
        <ele>732</ele>
        <time>2023-03-20T13:17:33Z</time>
      </trkpt>
      <trkpt lat="44.37738" lon="5.51299">
        <ele>731.9</ele>
        <time>2023-03-20T13:17:34Z</time>
      </trkpt>
      <trkpt lat="44.37738" lon="5.513">
        <ele>731.9</ele>
        <time>2023-03-20T13:17:35Z</time>
      </trkpt>
      <trkpt lat="44.37738" lon="5.51301">
        <ele>731.9</ele>
        <time>2023-03-20T13:17:36Z</time>
      </trkpt>
      <trkpt lat="44.37738" lon="5.51301">
        <ele>731.9</ele>
        <time>2023-03-20T13:17:37Z</time>
      </trkpt>
      <trkpt lat="44.37738" lon="5.51301">
        <ele>731.9</ele>
        <time>2023-03-20T13:17:38Z</time>
      </trkpt>
      <trkpt lat="44.37738" lon="5.51301">
        <ele>731.9</ele>
        <time>2023-03-20T13:17:39Z</time>
      </trkpt>
      <trkpt lat="44.37738" lon="5.51301">
        <ele>731.9</ele>
        <time>2023-03-20T13:17:40Z</time>
      </trkpt>
      <trkpt lat="44.37738" lon="5.51301">
        <ele>731.9</ele>
        <time>2023-03-20T13:17:41Z</time>
      </trkpt>
      <trkpt lat="44.37738" lon="5.51301">
        <ele>731.9</ele>
        <time>2023-03-20T13:17:42Z</time>
      </trkpt>
      <trkpt lat="44.37738" lon="5.51301">
        <ele>731.9</ele>
        <time>2023-03-20T13:17:43Z</time>
      </trkpt>
      <trkpt lat="44.37737" lon="5.51301">
        <ele>731.9</ele>
        <time>2023-03-20T13:17:44Z</time>
      </trkpt>
      <trkpt lat="44.37737" lon="5.51301">
        <ele>731.9</ele>
        <time>2023-03-20T13:17:45Z</time>
      </trkpt>
      <trkpt lat="44.37737" lon="5.51301">
        <ele>731.9</ele>
        <time>2023-03-20T13:17:46Z</time>
      </trkpt>
      <trkpt lat="44.37737" lon="5.51301">
        <ele>731.9</ele>
        <time>2023-03-20T13:17:47Z</time>
      </trkpt>
      <trkpt lat="44.37737" lon="5.51301">
        <ele>731.9</ele>
        <time>2023-03-20T13:17:48Z</time>
      </trkpt>
      <trkpt lat="44.37737" lon="5.51301">
        <ele>731.9</ele>
        <time>2023-03-20T13:17:53Z</time>
      </trkpt>
      <trkpt lat="44.37737" lon="5.51301">
        <ele>731.9</ele>
        <time>2023-03-20T13:17:54Z</time>
      </trkpt>
      <trkpt lat="44.37737" lon="5.51301">
        <ele>731.9</ele>
        <time>2023-03-20T13:17:55Z</time>
      </trkpt>
      <trkpt lat="44.37737" lon="5.51301">
        <ele>731.9</ele>
        <time>2023-03-20T13:17:56Z</time>
      </trkpt>
      <trkpt lat="44.37737" lon="5.513">
        <ele>731.9</ele>
        <time>2023-03-20T13:17:57Z</time>
      </trkpt>
      <trkpt lat="44.37737" lon="5.513">
        <ele>731.9</ele>
        <time>2023-03-20T13:17:58Z</time>
      </trkpt>
      <trkpt lat="44.37737" lon="5.513">
        <ele>731.9</ele>
        <time>2023-03-20T13:17:59Z</time>
      </trkpt>
      <trkpt lat="44.37737" lon="5.513">
        <ele>731.9</ele>
        <time>2023-03-20T13:18:00Z</time>
      </trkpt>
      <trkpt lat="44.37737" lon="5.513">
        <ele>731.9</ele>
        <time>2023-03-20T13:18:01Z</time>
      </trkpt>
      <trkpt lat="44.37737" lon="5.513">
        <ele>731.9</ele>
        <time>2023-03-20T13:18:02Z</time>
      </trkpt>
      <trkpt lat="44.37737" lon="5.513">
        <ele>731.9</ele>
        <time>2023-03-20T13:18:03Z</time>
      </trkpt>
      <trkpt lat="44.37737" lon="5.513">
        <ele>731.9</ele>
        <time>2023-03-20T13:18:04Z</time>
      </trkpt>
      <trkpt lat="44.37737" lon="5.513">
        <ele>731.9</ele>
        <time>2023-03-20T13:18:05Z</time>
      </trkpt>
      <trkpt lat="44.37737" lon="5.513">
        <ele>731.9</ele>
        <time>2023-03-20T13:18:06Z</time>
      </trkpt>
      <trkpt lat="44.37737" lon="5.513">
        <ele>731.9</ele>
        <time>2023-03-20T13:18:07Z</time>
      </trkpt>
      <trkpt lat="44.37736" lon="5.513">
        <ele>731.9</ele>
        <time>2023-03-20T13:18:08Z</time>
      </trkpt>
      <trkpt lat="44.37736" lon="5.513">
        <ele>731.9</ele>
        <time>2023-03-20T13:18:09Z</time>
      </trkpt>
      <trkpt lat="44.37736" lon="5.513">
        <ele>731.9</ele>
        <time>2023-03-20T13:18:10Z</time>
      </trkpt>
      <trkpt lat="44.37735" lon="5.513">
        <ele>731.9</ele>
        <time>2023-03-20T13:18:11Z</time>
      </trkpt>
      <trkpt lat="44.37735" lon="5.513">
        <ele>731.9</ele>
        <time>2023-03-20T13:18:12Z</time>
      </trkpt>
      <trkpt lat="44.37735" lon="5.513">
        <ele>731.9</ele>
        <time>2023-03-20T13:18:13Z</time>
      </trkpt>
      <trkpt lat="44.37735" lon="5.513">
        <ele>731.9</ele>
        <time>2023-03-20T13:18:14Z</time>
      </trkpt>
      <trkpt lat="44.37735" lon="5.513">
        <ele>731.9</ele>
        <time>2023-03-20T13:18:15Z</time>
      </trkpt>
      <trkpt lat="44.37735" lon="5.513">
        <ele>731.9</ele>
        <time>2023-03-20T13:18:16Z</time>
      </trkpt>
      <trkpt lat="44.37735" lon="5.513">
        <ele>731.9</ele>
        <time>2023-03-20T13:18:17Z</time>
      </trkpt>
      <trkpt lat="44.37735" lon="5.513">
        <ele>731.9</ele>
        <time>2023-03-20T13:18:18Z</time>
      </trkpt>
      <trkpt lat="44.37735" lon="5.513">
        <ele>731.9</ele>
        <time>2023-03-20T13:18:19Z</time>
      </trkpt>
      <trkpt lat="44.37735" lon="5.513">
        <ele>731.9</ele>
        <time>2023-03-20T13:18:20Z</time>
      </trkpt>
      <trkpt lat="44.37735" lon="5.513">
        <ele>731.9</ele>
        <time>2023-03-20T13:18:21Z</time>
      </trkpt>
      <trkpt lat="44.37735" lon="5.513">
        <ele>731.9</ele>
        <time>2023-03-20T13:18:22Z</time>
      </trkpt>
      <trkpt lat="44.37733" lon="5.513">
        <ele>731.8</ele>
        <time>2023-03-20T13:18:29Z</time>
      </trkpt>
      <trkpt lat="44.37733" lon="5.513">
        <ele>731.8</ele>
        <time>2023-03-20T13:18:30Z</time>
      </trkpt>
      <trkpt lat="44.37733" lon="5.513">
        <ele>731.8</ele>
        <time>2023-03-20T13:18:31Z</time>
      </trkpt>
      <trkpt lat="44.37733" lon="5.513">
        <ele>731.8</ele>
        <time>2023-03-20T13:18:32Z</time>
      </trkpt>
      <trkpt lat="44.37733" lon="5.513">
        <ele>731.8</ele>
        <time>2023-03-20T13:18:33Z</time>
      </trkpt>
      <trkpt lat="44.37733" lon="5.513">
        <ele>731.8</ele>
        <time>2023-03-20T13:18:34Z</time>
      </trkpt>
      <trkpt lat="44.37733" lon="5.513">
        <ele>731.8</ele>
        <time>2023-03-20T13:18:35Z</time>
      </trkpt>
      <trkpt lat="44.37733" lon="5.513">
        <ele>731.8</ele>
        <time>2023-03-20T13:18:36Z</time>
      </trkpt>
      <trkpt lat="44.37733" lon="5.513">
        <ele>731.8</ele>
        <time>2023-03-20T13:18:37Z</time>
      </trkpt>
      <trkpt lat="44.37733" lon="5.513">
        <ele>731.8</ele>
        <time>2023-03-20T13:18:38Z</time>
      </trkpt>
      <trkpt lat="44.37733" lon="5.513">
        <ele>731.8</ele>
        <time>2023-03-20T13:18:39Z</time>
      </trkpt>
      <trkpt lat="44.37733" lon="5.513">
        <ele>731.8</ele>
        <time>2023-03-20T13:18:40Z</time>
      </trkpt>
    </trkseg>
  </trk>
</gpx>